<?xml version='1.0' encoding='UTF-8'?><gpx version="1.1" creator="JPX - https://github.com/jenetics/jpx" xmlns="http://www.topografix.com/GPX/1/1"><trk><trkseg><trkpt lat="43.7156433" lon="11.3573433"><ele>422.0</ele><time>2026-04-19T07:29:58.65Z</time></trkpt><trkpt lat="43.7157617" lon="11.3573517"><ele>422.0</ele><time>2026-04-19T07:30:03.646Z</time></trkpt><trkpt lat="43.71589" lon="11.3573417"><ele>422.0</ele><time>2026-04-19T07:30:05.647Z</time></trkpt><trkpt lat="43.716095" lon="11.3573633"><ele>421.5</ele><time>2026-04-19T07:30:07.648Z</time></trkpt><trkpt lat="43.71628" lon="11.357405"><ele>421.0</ele><time>2026-04-19T07:30:08.649Z</time></trkpt><trkpt lat="43.71642" lon="11.35745"><ele>420.5</ele><time>2026-04-19T07:30:09.648Z</time></trkpt><trkpt lat="43.7165217" lon="11.357435"><ele>420.0</ele><time>2026-04-19T07:30:10.653Z</time></trkpt><trkpt lat="43.7166183" lon="11.357405"><ele>420.0</ele><time>2026-04-19T07:30:11.649Z</time></trkpt><trkpt lat="43.716705" lon="11.3573467"><ele>420.0</ele><time>2026-04-19T07:30:12.654Z</time></trkpt><trkpt lat="43.7168" lon="11.357295"><ele>420.0</ele><time>2026-04-19T07:30:13.651Z</time></trkpt><trkpt lat="43.7168967" lon="11.3572467"><ele>420.0</ele><time>2026-04-19T07:30:14.654Z</time></trkpt><trkpt lat="43.7169583" lon="11.3571917"><ele>420.0</ele><time>2026-04-19T07:30:15.654Z</time></trkpt><trkpt lat="43.7170167" lon="11.35713"><ele>420.0</ele><time>2026-04-19T07:30:16.657Z</time></trkpt><trkpt lat="43.71701" lon="11.3570017"><ele>420.0</ele><time>2026-04-19T07:30:17.65Z</time></trkpt><trkpt lat="43.7170117" lon="11.3568783"><ele>420.0</ele><time>2026-04-19T07:30:18.65Z</time></trkpt><trkpt lat="43.7170367" lon="11.3567567"><ele>420.0</ele><time>2026-04-19T07:30:19.649Z</time></trkpt><trkpt lat="43.717045" lon="11.3566633"><ele>420.0</ele><time>2026-04-19T07:30:20.651Z</time></trkpt><trkpt lat="43.717045" lon="11.3565233"><ele>420.0</ele><time>2026-04-19T07:30:21.654Z</time></trkpt><trkpt lat="43.7170267" lon="11.35636"><ele>416.5</ele><time>2026-04-19T07:30:22.655Z</time></trkpt><trkpt lat="43.71698" lon="11.3561883"><ele>413.0</ele><time>2026-04-19T07:30:23.649Z</time></trkpt><trkpt lat="43.7169367" lon="11.3560317"><ele>409.5</ele><time>2026-04-19T07:30:24.647Z</time></trkpt><trkpt lat="43.7169083" lon="11.355895"><ele>406.0</ele><time>2026-04-19T07:30:25.645Z</time></trkpt><trkpt lat="43.71686" lon="11.3557833"><ele>405.0</ele><time>2026-04-19T07:30:26.65Z</time></trkpt><trkpt lat="43.71681" lon="11.3556867"><ele>404.0</ele><time>2026-04-19T07:30:27.649Z</time></trkpt><trkpt lat="43.7167533" lon="11.35556"><ele>403.0</ele><time>2026-04-19T07:30:28.648Z</time></trkpt><trkpt lat="43.716695" lon="11.3554567"><ele>402.0</ele><time>2026-04-19T07:30:29.649Z</time></trkpt><trkpt lat="43.7166283" lon="11.3553633"><ele>401.0</ele><time>2026-04-19T07:30:30.648Z</time></trkpt><trkpt lat="43.7165683" lon="11.3552633"><ele>398.8333333333333</ele><time>2026-04-19T07:30:31.652Z</time></trkpt><trkpt lat="43.7165" lon="11.355185"><ele>396.66666666666663</ele><time>2026-04-19T07:30:32.652Z</time></trkpt><trkpt lat="43.7164367" lon="11.355115"><ele>394.5</ele><time>2026-04-19T07:30:33.653Z</time></trkpt><trkpt lat="43.7163717" lon="11.3551"><ele>392.33333333333337</ele><time>2026-04-19T07:30:34.655Z</time></trkpt><trkpt lat="43.7162983" lon="11.35513"><ele>390.1666666666667</ele><time>2026-04-19T07:30:35.65Z</time></trkpt><trkpt lat="43.7162267" lon="11.35523"><ele>388.0</ele><time>2026-04-19T07:30:36.645Z</time></trkpt><trkpt lat="43.7161417" lon="11.3552617"><ele>386.4</ele><time>2026-04-19T07:30:37.649Z</time></trkpt><trkpt lat="43.7160283" lon="11.3552733"><ele>384.79999999999995</ele><time>2026-04-19T07:30:39.653Z</time></trkpt><trkpt lat="43.7159717" lon="11.3552133"><ele>383.2</ele><time>2026-04-19T07:30:40.649Z</time></trkpt><trkpt lat="43.7159283" lon="11.3551383"><ele>381.6</ele><time>2026-04-19T07:30:41.652Z</time></trkpt><trkpt lat="43.7158817" lon="11.35507"><ele>380.0</ele><time>2026-04-19T07:30:42.651Z</time></trkpt><trkpt lat="43.7158283" lon="11.3548883"><ele>380.0</ele><time>2026-04-19T07:30:44.651Z</time></trkpt><trkpt lat="43.715825" lon="11.35476"><ele>380.0</ele><time>2026-04-19T07:30:45.647Z</time></trkpt><trkpt lat="43.7158467" lon="11.3545833"><ele>380.0</ele><time>2026-04-19T07:30:46.648Z</time></trkpt><trkpt lat="43.71586" lon="11.3544283"><ele>380.0</ele><time>2026-04-19T07:30:47.648Z</time></trkpt><trkpt lat="43.71588" lon="11.35424"><ele>377.75</ele><time>2026-04-19T07:30:48.648Z</time></trkpt><trkpt lat="43.715885" lon="11.3540483"><ele>375.5</ele><time>2026-04-19T07:30:49.653Z</time></trkpt><trkpt lat="43.7158867" lon="11.3538717"><ele>373.25</ele><time>2026-04-19T07:30:50.657Z</time></trkpt><trkpt lat="43.715855" lon="11.35374"><ele>371.0</ele><time>2026-04-19T07:30:51.649Z</time></trkpt><trkpt lat="43.7157833" lon="11.3536333"><ele>367.5</ele><time>2026-04-19T07:30:52.655Z</time></trkpt><trkpt lat="43.7156867" lon="11.3535283"><ele>364.0</ele><time>2026-04-19T07:30:53.646Z</time></trkpt><trkpt lat="43.7156033" lon="11.353395"><ele>360.5</ele><time>2026-04-19T07:30:54.648Z</time></trkpt><trkpt lat="43.7154933" lon="11.3532983"><ele>357.0</ele><time>2026-04-19T07:30:55.65Z</time></trkpt><trkpt lat="43.7154" lon="11.35327"><ele>357.0</ele><time>2026-04-19T07:30:56.66Z</time></trkpt><trkpt lat="43.7153083" lon="11.3531917"><ele>357.0</ele><time>2026-04-19T07:30:57.651Z</time></trkpt><trkpt lat="43.7152367" lon="11.35313"><ele>357.0</ele><time>2026-04-19T07:30:58.651Z</time></trkpt><trkpt lat="43.71517" lon="11.3530683"><ele>357.0</ele><time>2026-04-19T07:30:59.65Z</time></trkpt><trkpt lat="43.71512" lon="11.3530017"><ele>357.0</ele><time>2026-04-19T07:31:00.651Z</time></trkpt><trkpt lat="43.71517" lon="11.3529033"><ele>357.0</ele><time>2026-04-19T07:31:03.656Z</time></trkpt><trkpt lat="43.71524" lon="11.35278"><ele>353.25</ele><time>2026-04-19T07:31:05.65Z</time></trkpt><trkpt lat="43.71531" lon="11.35273"><ele>349.5</ele><time>2026-04-19T07:31:06.649Z</time></trkpt><trkpt lat="43.7154667" lon="11.3527033"><ele>345.75</ele><time>2026-04-19T07:31:07.651Z</time></trkpt><trkpt lat="43.7155567" lon="11.35263"><ele>342.0</ele><time>2026-04-19T07:31:08.649Z</time></trkpt><trkpt lat="43.71569" lon="11.3525883"><ele>342.0</ele><time>2026-04-19T07:31:09.652Z</time></trkpt><trkpt lat="43.7157967" lon="11.352555"><ele>342.0</ele><time>2026-04-19T07:31:10.653Z</time></trkpt><trkpt lat="43.7158683" lon="11.352505"><ele>342.0</ele><time>2026-04-19T07:31:11.653Z</time></trkpt><trkpt lat="43.71592" lon="11.352435"><ele>342.0</ele><time>2026-04-19T07:31:12.655Z</time></trkpt><trkpt lat="43.7159883" lon="11.352375"><ele>342.0</ele><time>2026-04-19T07:31:13.645Z</time></trkpt><trkpt lat="43.716015" lon="11.3522667"><ele>342.0</ele><time>2026-04-19T07:31:14.652Z</time></trkpt><trkpt lat="43.7159867" lon="11.352105"><ele>340.20000000000005</ele><time>2026-04-19T07:31:15.658Z</time></trkpt><trkpt lat="43.715965" lon="11.351945"><ele>338.4</ele><time>2026-04-19T07:31:16.652Z</time></trkpt><trkpt lat="43.71595" lon="11.3517983"><ele>336.6</ele><time>2026-04-19T07:31:17.65Z</time></trkpt><trkpt lat="43.715945" lon="11.3516683"><ele>334.79999999999995</ele><time>2026-04-19T07:31:18.65Z</time></trkpt><trkpt lat="43.7159367" lon="11.3515617"><ele>333.0</ele><time>2026-04-19T07:31:19.657Z</time></trkpt><trkpt lat="43.7159133" lon="11.35145"><ele>331.5</ele><time>2026-04-19T07:31:20.654Z</time></trkpt><trkpt lat="43.715895" lon="11.351325"><ele>330.0</ele><time>2026-04-19T07:31:21.652Z</time></trkpt><trkpt lat="43.7158583" lon="11.3511817"><ele>328.5</ele><time>2026-04-19T07:31:22.65Z</time></trkpt><trkpt lat="43.7157567" lon="11.3510283"><ele>327.0</ele><time>2026-04-19T07:31:23.648Z</time></trkpt><trkpt lat="43.7155667" lon="11.3507633"><ele>323.0</ele><time>2026-04-19T07:31:24.652Z</time></trkpt><trkpt lat="43.7153333" lon="11.3504433"><ele>319.0</ele><time>2026-04-19T07:31:25.649Z</time></trkpt><trkpt lat="43.715225" lon="11.350265"><ele>319.0</ele><time>2026-04-19T07:31:26.65Z</time></trkpt><trkpt lat="43.7150933" lon="11.3500217"><ele>319.0</ele><time>2026-04-19T07:31:27.653Z</time></trkpt><trkpt lat="43.7149517" lon="11.3498417"><ele>319.0</ele><time>2026-04-19T07:31:28.647Z</time></trkpt><trkpt lat="43.7148217" lon="11.3496667"><ele>317.5</ele><time>2026-04-19T07:31:29.655Z</time></trkpt><trkpt lat="43.714735" lon="11.34952"><ele>316.0</ele><time>2026-04-19T07:31:30.65Z</time></trkpt><trkpt lat="43.7146433" lon="11.3493633"><ele>314.5</ele><time>2026-04-19T07:31:31.652Z</time></trkpt><trkpt lat="43.71455" lon="11.3491917"><ele>313.0</ele><time>2026-04-19T07:31:32.656Z</time></trkpt><trkpt lat="43.71446" lon="11.349015"><ele>309.0</ele><time>2026-04-19T07:31:33.651Z</time></trkpt><trkpt lat="43.7143733" lon="11.348845"><ele>305.0</ele><time>2026-04-19T07:31:34.647Z</time></trkpt><trkpt lat="43.7142817" lon="11.3486767"><ele>301.0</ele><time>2026-04-19T07:31:35.646Z</time></trkpt><trkpt lat="43.7141883" lon="11.3485133"><ele>301.0</ele><time>2026-04-19T07:31:36.648Z</time></trkpt><trkpt lat="43.714085" lon="11.348355"><ele>301.0</ele><time>2026-04-19T07:31:37.65Z</time></trkpt><trkpt lat="43.7139867" lon="11.3481933"><ele>301.0</ele><time>2026-04-19T07:31:38.654Z</time></trkpt><trkpt lat="43.71388" lon="11.34806"><ele>297.8</ele><time>2026-04-19T07:31:39.655Z</time></trkpt><trkpt lat="43.7137933" lon="11.3479733"><ele>294.6</ele><time>2026-04-19T07:31:40.655Z</time></trkpt><trkpt lat="43.7137217" lon="11.34791"><ele>291.4</ele><time>2026-04-19T07:31:41.643Z</time></trkpt><trkpt lat="43.7136833" lon="11.3477717"><ele>288.2</ele><time>2026-04-19T07:31:43.647Z</time></trkpt><trkpt lat="43.7136617" lon="11.347675"><ele>285.0</ele><time>2026-04-19T07:31:44.649Z</time></trkpt><trkpt lat="43.7137133" lon="11.3475217"><ele>285.0</ele><time>2026-04-19T07:31:46.647Z</time></trkpt><trkpt lat="43.713885" lon="11.3475267"><ele>285.0</ele><time>2026-04-19T07:31:47.649Z</time></trkpt><trkpt lat="43.71397" lon="11.347475"><ele>285.0</ele><time>2026-04-19T07:31:48.649Z</time></trkpt><trkpt lat="43.7141167" lon="11.34747"><ele>285.0</ele><time>2026-04-19T07:31:49.653Z</time></trkpt><trkpt lat="43.71435" lon="11.3474983"><ele>285.0</ele><time>2026-04-19T07:31:50.655Z</time></trkpt><trkpt lat="43.7145667" lon="11.3475117"><ele>285.0</ele><time>2026-04-19T07:31:51.651Z</time></trkpt><trkpt lat="43.714715" lon="11.3475033"><ele>285.0</ele><time>2026-04-19T07:31:52.653Z</time></trkpt><trkpt lat="43.7148633" lon="11.347495"><ele>285.0</ele><time>2026-04-19T07:31:53.644Z</time></trkpt><trkpt lat="43.7149667" lon="11.347455"><ele>285.0</ele><time>2026-04-19T07:31:54.655Z</time></trkpt><trkpt lat="43.7150733" lon="11.3474217"><ele>285.0</ele><time>2026-04-19T07:31:55.647Z</time></trkpt><trkpt lat="43.71516" lon="11.3473883"><ele>285.0</ele><time>2026-04-19T07:31:56.649Z</time></trkpt><trkpt lat="43.7152433" lon="11.3473517"><ele>285.0</ele><time>2026-04-19T07:31:57.65Z</time></trkpt><trkpt lat="43.7153317" lon="11.3473167"><ele>283.8333333333333</ele><time>2026-04-19T07:31:58.652Z</time></trkpt><trkpt lat="43.715405" lon="11.3472633"><ele>282.6666666666667</ele><time>2026-04-19T07:31:59.652Z</time></trkpt><trkpt lat="43.715495" lon="11.3471983"><ele>281.5</ele><time>2026-04-19T07:32:00.661Z</time></trkpt><trkpt lat="43.7155733" lon="11.347135"><ele>280.33333333333337</ele><time>2026-04-19T07:32:01.649Z</time></trkpt><trkpt lat="43.7156467" lon="11.3470467"><ele>279.1666666666667</ele><time>2026-04-19T07:32:02.647Z</time></trkpt><trkpt lat="43.7157067" lon="11.3469883"><ele>278.0</ele><time>2026-04-19T07:32:03.648Z</time></trkpt><trkpt lat="43.7157" lon="11.3468883"><ele>276.0</ele><time>2026-04-19T07:32:04.646Z</time></trkpt><trkpt lat="43.715715" lon="11.3467967"><ele>274.0</ele><time>2026-04-19T07:32:05.65Z</time></trkpt><trkpt lat="43.7157117" lon="11.346685"><ele>272.0</ele><time>2026-04-19T07:32:06.648Z</time></trkpt><trkpt lat="43.715605" lon="11.34653"><ele>270.0</ele><time>2026-04-19T07:32:07.65Z</time></trkpt><trkpt lat="43.7155333" lon="11.34638"><ele>268.0</ele><time>2026-04-19T07:32:08.652Z</time></trkpt><trkpt lat="43.7155217" lon="11.3462833"><ele>265.0</ele><time>2026-04-19T07:32:09.655Z</time></trkpt><trkpt lat="43.7153017" lon="11.3460867"><ele>262.0</ele><time>2026-04-19T07:32:10.653Z</time></trkpt><trkpt lat="43.7151983" lon="11.3459983"><ele>259.0</ele><time>2026-04-19T07:32:11.653Z</time></trkpt><trkpt lat="43.7150633" lon="11.345925"><ele>262.4</ele><time>2026-04-19T07:32:13.646Z</time></trkpt><trkpt lat="43.7149633" lon="11.3458283"><ele>265.79999999999995</ele><time>2026-04-19T07:32:15.651Z</time></trkpt><trkpt lat="43.7148883" lon="11.3457567"><ele>269.20000000000005</ele><time>2026-04-19T07:32:17.646Z</time></trkpt><trkpt lat="43.71485" lon="11.3456683"><ele>272.6</ele><time>2026-04-19T07:32:18.653Z</time></trkpt><trkpt lat="43.7148217" lon="11.3455617"><ele>276.0</ele><time>2026-04-19T07:32:19.654Z</time></trkpt><trkpt lat="43.71479" lon="11.345415"><ele>276.0</ele><time>2026-04-19T07:32:20.653Z</time></trkpt><trkpt lat="43.7147717" lon="11.3452917"><ele>276.0</ele><time>2026-04-19T07:32:21.652Z</time></trkpt><trkpt lat="43.7147467" lon="11.3451617"><ele>276.0</ele><time>2026-04-19T07:32:22.65Z</time></trkpt><trkpt lat="43.714735" lon="11.345015"><ele>276.0</ele><time>2026-04-19T07:32:23.65Z</time></trkpt><trkpt lat="43.71474" lon="11.3448933"><ele>276.0</ele><time>2026-04-19T07:32:24.646Z</time></trkpt><trkpt lat="43.7147367" lon="11.3447617"><ele>275.5</ele><time>2026-04-19T07:32:25.649Z</time></trkpt><trkpt lat="43.7147267" lon="11.3445983"><ele>275.0</ele><time>2026-04-19T07:32:26.647Z</time></trkpt><trkpt lat="43.7147367" lon="11.34441"><ele>274.5</ele><time>2026-04-19T07:32:27.656Z</time></trkpt><trkpt lat="43.714765" lon="11.3442617"><ele>274.0</ele><time>2026-04-19T07:32:28.652Z</time></trkpt><trkpt lat="43.7147867" lon="11.3441217"><ele>274.0</ele><time>2026-04-19T07:32:29.652Z</time></trkpt><trkpt lat="43.714795" lon="11.344"><ele>274.0</ele><time>2026-04-19T07:32:30.654Z</time></trkpt><trkpt lat="43.7147983" lon="11.3438933"><ele>274.0</ele><time>2026-04-19T07:32:31.657Z</time></trkpt><trkpt lat="43.7147883" lon="11.3437933"><ele>274.0</ele><time>2026-04-19T07:32:32.648Z</time></trkpt><trkpt lat="43.71475" lon="11.34368"><ele>274.0</ele><time>2026-04-19T07:32:33.646Z</time></trkpt><trkpt lat="43.7147283" lon="11.34358"><ele>274.0</ele><time>2026-04-19T07:32:34.648Z</time></trkpt><trkpt lat="43.714705" lon="11.3434833"><ele>273.0</ele><time>2026-04-19T07:32:35.648Z</time></trkpt><trkpt lat="43.7146317" lon="11.3433617"><ele>272.0</ele><time>2026-04-19T07:32:36.647Z</time></trkpt><trkpt lat="43.7145367" lon="11.3432617"><ele>271.0</ele><time>2026-04-19T07:32:37.65Z</time></trkpt><trkpt lat="43.714475" lon="11.3431767"><ele>270.0</ele><time>2026-04-19T07:32:38.648Z</time></trkpt><trkpt lat="43.7143933" lon="11.3430917"><ele>269.0</ele><time>2026-04-19T07:32:39.651Z</time></trkpt><trkpt lat="43.7143033" lon="11.3430233"><ele>267.33333333333337</ele><time>2026-04-19T07:32:40.644Z</time></trkpt><trkpt lat="43.71423" lon="11.3429683"><ele>265.6666666666667</ele><time>2026-04-19T07:32:41.649Z</time></trkpt><trkpt lat="43.71416" lon="11.3429017"><ele>264.0</ele><time>2026-04-19T07:32:42.645Z</time></trkpt><trkpt lat="43.7141033" lon="11.3428183"><ele>262.3333333333333</ele><time>2026-04-19T07:32:43.646Z</time></trkpt><trkpt lat="43.714055" lon="11.34273"><ele>260.66666666666663</ele><time>2026-04-19T07:32:44.649Z</time></trkpt><trkpt lat="43.714015" lon="11.3426517"><ele>259.0</ele><time>2026-04-19T07:32:45.647Z</time></trkpt><trkpt lat="43.7139733" lon="11.3425583"><ele>259.0</ele><time>2026-04-19T07:32:46.654Z</time></trkpt><trkpt lat="43.713945" lon="11.3424583"><ele>259.0</ele><time>2026-04-19T07:32:47.653Z</time></trkpt><trkpt lat="43.7138983" lon="11.342285"><ele>259.0</ele><time>2026-04-19T07:32:48.65Z</time></trkpt><trkpt lat="43.713865" lon="11.3420917"><ele>259.0</ele><time>2026-04-19T07:32:49.652Z</time></trkpt><trkpt lat="43.7138367" lon="11.3419167"><ele>257.75</ele><time>2026-04-19T07:32:50.655Z</time></trkpt><trkpt lat="43.7138283" lon="11.3417417"><ele>256.5</ele><time>2026-04-19T07:32:51.646Z</time></trkpt><trkpt lat="43.7138367" lon="11.3415783"><ele>255.25</ele><time>2026-04-19T07:32:52.648Z</time></trkpt><trkpt lat="43.7138433" lon="11.3414067"><ele>254.0</ele><time>2026-04-19T07:32:53.648Z</time></trkpt><trkpt lat="43.7138567" lon="11.3412133"><ele>253.25</ele><time>2026-04-19T07:32:54.647Z</time></trkpt><trkpt lat="43.7139183" lon="11.341025"><ele>252.5</ele><time>2026-04-19T07:32:55.649Z</time></trkpt><trkpt lat="43.7140033" lon="11.3408983"><ele>251.75</ele><time>2026-04-19T07:32:56.647Z</time></trkpt><trkpt lat="43.7140633" lon="11.340715"><ele>251.0</ele><time>2026-04-19T07:32:57.649Z</time></trkpt><trkpt lat="43.7141083" lon="11.3405417"><ele>250.0</ele><time>2026-04-19T07:32:58.651Z</time></trkpt><trkpt lat="43.7141783" lon="11.3403017"><ele>249.0</ele><time>2026-04-19T07:32:59.655Z</time></trkpt><trkpt lat="43.7142217" lon="11.3401383"><ele>248.0</ele><time>2026-04-19T07:33:00.654Z</time></trkpt><trkpt lat="43.7142583" lon="11.339975"><ele>247.0</ele><time>2026-04-19T07:33:01.657Z</time></trkpt><trkpt lat="43.7142883" lon="11.3398033"><ele>245.75</ele><time>2026-04-19T07:33:02.646Z</time></trkpt><trkpt lat="43.7143117" lon="11.3396233"><ele>244.5</ele><time>2026-04-19T07:33:03.654Z</time></trkpt><trkpt lat="43.7143533" lon="11.33945"><ele>243.25</ele><time>2026-04-19T07:33:04.649Z</time></trkpt><trkpt lat="43.7144067" lon="11.3392883"><ele>242.0</ele><time>2026-04-19T07:33:05.656Z</time></trkpt><trkpt lat="43.7144583" lon="11.3391283"><ele>236.33333333333334</ele><time>2026-04-19T07:33:06.65Z</time></trkpt><trkpt lat="43.714535" lon="11.3389717"><ele>230.66666666666669</ele><time>2026-04-19T07:33:07.651Z</time></trkpt><trkpt lat="43.7146567" lon="11.3387817"><ele>225.0</ele><time>2026-04-19T07:33:08.647Z</time></trkpt><trkpt lat="43.714735" lon="11.3386267"><ele>225.0</ele><time>2026-04-19T07:33:09.647Z</time></trkpt><trkpt lat="43.71481" lon="11.3384917"><ele>225.0</ele><time>2026-04-19T07:33:10.649Z</time></trkpt><trkpt lat="43.7148667" lon="11.3383617"><ele>225.0</ele><time>2026-04-19T07:33:11.648Z</time></trkpt><trkpt lat="43.7149283" lon="11.3382333"><ele>225.0</ele><time>2026-04-19T07:33:12.648Z</time></trkpt><trkpt lat="43.7149917" lon="11.338105"><ele>224.0</ele><time>2026-04-19T07:33:13.645Z</time></trkpt><trkpt lat="43.7150517" lon="11.338"><ele>223.0</ele><time>2026-04-19T07:33:14.657Z</time></trkpt><trkpt lat="43.7151267" lon="11.3378917"><ele>222.0</ele><time>2026-04-19T07:33:15.647Z</time></trkpt><trkpt lat="43.7152067" lon="11.33779"><ele>221.0</ele><time>2026-04-19T07:33:16.654Z</time></trkpt><trkpt lat="43.715285" lon="11.3376867"><ele>220.0</ele><time>2026-04-19T07:33:17.651Z</time></trkpt><trkpt lat="43.7153733" lon="11.3375717"><ele>217.0</ele><time>2026-04-19T07:33:18.652Z</time></trkpt><trkpt lat="43.7154633" lon="11.337455"><ele>214.0</ele><time>2026-04-19T07:33:19.658Z</time></trkpt><trkpt lat="43.71555" lon="11.3373417"><ele>211.0</ele><time>2026-04-19T07:33:20.65Z</time></trkpt><trkpt lat="43.715625" lon="11.3372233"><ele>208.0</ele><time>2026-04-19T07:33:21.658Z</time></trkpt><trkpt lat="43.7156983" lon="11.3371067"><ele>207.2</ele><time>2026-04-19T07:33:22.649Z</time></trkpt><trkpt lat="43.71577" lon="11.3369933"><ele>206.4</ele><time>2026-04-19T07:33:23.65Z</time></trkpt><trkpt lat="43.71583" lon="11.336875"><ele>205.6</ele><time>2026-04-19T07:33:24.648Z</time></trkpt><trkpt lat="43.7158817" lon="11.3367567"><ele>204.79999999999998</ele><time>2026-04-19T07:33:25.65Z</time></trkpt><trkpt lat="43.7159367" lon="11.3366067"><ele>204.0</ele><time>2026-04-19T07:33:26.653Z</time></trkpt><trkpt lat="43.716005" lon="11.3364567"><ele>202.5</ele><time>2026-04-19T07:33:27.654Z</time></trkpt><trkpt lat="43.7160883" lon="11.33632"><ele>201.0</ele><time>2026-04-19T07:33:28.647Z</time></trkpt><trkpt lat="43.7161717" lon="11.3361867"><ele>199.5</ele><time>2026-04-19T07:33:29.652Z</time></trkpt><trkpt lat="43.716255" lon="11.3360417"><ele>198.0</ele><time>2026-04-19T07:33:30.652Z</time></trkpt><trkpt lat="43.7163367" lon="11.3359"><ele>198.0</ele><time>2026-04-19T07:33:31.654Z</time></trkpt><trkpt lat="43.716415" lon="11.335765"><ele>198.0</ele><time>2026-04-19T07:33:32.656Z</time></trkpt><trkpt lat="43.7164883" lon="11.3356367"><ele>198.0</ele><time>2026-04-19T07:33:33.647Z</time></trkpt><trkpt lat="43.716545" lon="11.3355033"><ele>198.0</ele><time>2026-04-19T07:33:34.652Z</time></trkpt><trkpt lat="43.716605" lon="11.3353683"><ele>197.0</ele><time>2026-04-19T07:33:35.649Z</time></trkpt><trkpt lat="43.716655" lon="11.3352717"><ele>196.0</ele><time>2026-04-19T07:33:36.648Z</time></trkpt><trkpt lat="43.7166983" lon="11.3351967"><ele>195.0</ele><time>2026-04-19T07:33:37.652Z</time></trkpt><trkpt lat="43.71674" lon="11.3351067"><ele>194.0</ele><time>2026-04-19T07:33:38.655Z</time></trkpt><trkpt lat="43.7167767" lon="11.33502"><ele>193.0</ele><time>2026-04-19T07:33:39.651Z</time></trkpt><trkpt lat="43.7168167" lon="11.334935"><ele>192.0</ele><time>2026-04-19T07:33:40.653Z</time></trkpt><trkpt lat="43.716875" lon="11.3348383"><ele>188.8</ele><time>2026-04-19T07:33:41.65Z</time></trkpt><trkpt lat="43.71693" lon="11.3347533"><ele>185.6</ele><time>2026-04-19T07:33:42.646Z</time></trkpt><trkpt lat="43.7169833" lon="11.3346583"><ele>182.4</ele><time>2026-04-19T07:33:43.648Z</time></trkpt><trkpt lat="43.717045" lon="11.334515"><ele>179.20000000000002</ele><time>2026-04-19T07:33:45.649Z</time></trkpt><trkpt lat="43.7170733" lon="11.33438"><ele>176.0</ele><time>2026-04-19T07:33:47.651Z</time></trkpt><trkpt lat="43.7170733" lon="11.334245"><ele>175.0</ele><time>2026-04-19T07:33:49.656Z</time></trkpt><trkpt lat="43.7170483" lon="11.3340883"><ele>174.0</ele><time>2026-04-19T07:33:51.653Z</time></trkpt><trkpt lat="43.7169433" lon="11.3339033"><ele>173.0</ele><time>2026-04-19T07:33:53.647Z</time></trkpt><trkpt lat="43.71685" lon="11.3337717"><ele>172.0</ele><time>2026-04-19T07:33:54.648Z</time></trkpt><trkpt lat="43.716775" lon="11.3336583"><ele>169.5</ele><time>2026-04-19T07:33:55.649Z</time></trkpt><trkpt lat="43.7166867" lon="11.333545"><ele>167.0</ele><time>2026-04-19T07:33:56.653Z</time></trkpt><trkpt lat="43.7165967" lon="11.3334433"><ele>164.5</ele><time>2026-04-19T07:33:57.643Z</time></trkpt><trkpt lat="43.7164783" lon="11.3333783"><ele>162.0</ele><time>2026-04-19T07:33:58.652Z</time></trkpt><trkpt lat="43.7163567" lon="11.3333383"><ele>162.0</ele><time>2026-04-19T07:33:59.649Z</time></trkpt><trkpt lat="43.7162467" lon="11.3332567"><ele>162.0</ele><time>2026-04-19T07:34:00.656Z</time></trkpt><trkpt lat="43.7161383" lon="11.3331633"><ele>162.0</ele><time>2026-04-19T07:34:01.647Z</time></trkpt><trkpt lat="43.716035" lon="11.3330917"><ele>162.0</ele><time>2026-04-19T07:34:02.647Z</time></trkpt><trkpt lat="43.7159117" lon="11.33302"><ele>160.83333333333334</ele><time>2026-04-19T07:34:03.647Z</time></trkpt><trkpt lat="43.7158467" lon="11.33295"><ele>159.66666666666666</ele><time>2026-04-19T07:34:04.651Z</time></trkpt><trkpt lat="43.715775" lon="11.3328583"><ele>158.5</ele><time>2026-04-19T07:34:05.65Z</time></trkpt><trkpt lat="43.7157133" lon="11.3327917"><ele>157.33333333333331</ele><time>2026-04-19T07:34:06.648Z</time></trkpt><trkpt lat="43.7156583" lon="11.3327033"><ele>156.16666666666666</ele><time>2026-04-19T07:34:08.654Z</time></trkpt><trkpt lat="43.715685" lon="11.3325867"><ele>155.0</ele><time>2026-04-19T07:34:11.649Z</time></trkpt><trkpt lat="43.7158117" lon="11.3325283"><ele>155.0</ele><time>2026-04-19T07:34:13.649Z</time></trkpt><trkpt lat="43.7158983" lon="11.33253"><ele>155.0</ele><time>2026-04-19T07:34:14.647Z</time></trkpt><trkpt lat="43.7160983" lon="11.3325883"><ele>155.0</ele><time>2026-04-19T07:34:15.649Z</time></trkpt><trkpt lat="43.7162933" lon="11.332645"><ele>154.0</ele><time>2026-04-19T07:34:16.651Z</time></trkpt><trkpt lat="43.7165083" lon="11.3327033"><ele>153.0</ele><time>2026-04-19T07:34:17.655Z</time></trkpt><trkpt lat="43.7166983" lon="11.332745"><ele>152.0</ele><time>2026-04-19T07:34:18.647Z</time></trkpt><trkpt lat="43.7169717" lon="11.3328083"><ele>150.66666666666666</ele><time>2026-04-19T07:34:19.651Z</time></trkpt><trkpt lat="43.7171917" lon="11.3328783"><ele>149.33333333333334</ele><time>2026-04-19T07:34:20.646Z</time></trkpt><trkpt lat="43.7173933" lon="11.3329317"><ele>148.0</ele><time>2026-04-19T07:34:21.647Z</time></trkpt><trkpt lat="43.7175967" lon="11.3329733"><ele>147.66666666666669</ele><time>2026-04-19T07:34:22.645Z</time></trkpt><trkpt lat="43.7177683" lon="11.3330033"><ele>147.33333333333334</ele><time>2026-04-19T07:34:23.651Z</time></trkpt><trkpt lat="43.7179433" lon="11.3330267"><ele>147.0</ele><time>2026-04-19T07:34:24.654Z</time></trkpt><trkpt lat="43.7181083" lon="11.3330383"><ele>147.0</ele><time>2026-04-19T07:34:25.66Z</time></trkpt><trkpt lat="43.718265" lon="11.333035"><ele>147.0</ele><time>2026-04-19T07:34:26.648Z</time></trkpt><trkpt lat="43.718425" lon="11.3330283"><ele>147.0</ele><time>2026-04-19T07:34:27.651Z</time></trkpt><trkpt lat="43.7185767" lon="11.3330183"><ele>146.66666666666666</ele><time>2026-04-19T07:34:28.652Z</time></trkpt><trkpt lat="43.7187667" lon="11.3330217"><ele>146.33333333333331</ele><time>2026-04-19T07:34:29.654Z</time></trkpt><trkpt lat="43.7189017" lon="11.3329817"><ele>146.0</ele><time>2026-04-19T07:34:30.656Z</time></trkpt><trkpt lat="43.7190367" lon="11.3328833"><ele>146.0</ele><time>2026-04-19T07:34:31.646Z</time></trkpt><trkpt lat="43.719155" lon="11.33272"><ele>146.0</ele><time>2026-04-19T07:34:32.651Z</time></trkpt><trkpt lat="43.7192833" lon="11.3325467"><ele>146.0</ele><time>2026-04-19T07:34:33.65Z</time></trkpt><trkpt lat="43.7194333" lon="11.3324117"><ele>147.33333333333331</ele><time>2026-04-19T07:34:34.65Z</time></trkpt><trkpt lat="43.71955" lon="11.3322683"><ele>148.66666666666666</ele><time>2026-04-19T07:34:35.65Z</time></trkpt><trkpt lat="43.7197017" lon="11.332135"><ele>150.0</ele><time>2026-04-19T07:34:36.653Z</time></trkpt><trkpt lat="43.71984" lon="11.3320017"><ele>147.33333333333334</ele><time>2026-04-19T07:34:37.653Z</time></trkpt><trkpt lat="43.7199833" lon="11.331885"><ele>144.66666666666669</ele><time>2026-04-19T07:34:38.644Z</time></trkpt><trkpt lat="43.720125" lon="11.331765"><ele>142.0</ele><time>2026-04-19T07:34:39.651Z</time></trkpt><trkpt lat="43.7202683" lon="11.3316367"><ele>142.0</ele><time>2026-04-19T07:34:40.644Z</time></trkpt><trkpt lat="43.720415" lon="11.3315017"><ele>142.0</ele><time>2026-04-19T07:34:41.647Z</time></trkpt><trkpt lat="43.7205533" lon="11.3313667"><ele>142.0</ele><time>2026-04-19T07:34:42.65Z</time></trkpt><trkpt lat="43.7207033" lon="11.331235"><ele>139.66666666666669</ele><time>2026-04-19T07:34:43.651Z</time></trkpt><trkpt lat="43.7208583" lon="11.3310983"><ele>137.33333333333334</ele><time>2026-04-19T07:34:44.648Z</time></trkpt><trkpt lat="43.7210033" lon="11.3309717"><ele>135.0</ele><time>2026-04-19T07:34:45.655Z</time></trkpt><trkpt lat="43.72115" lon="11.3308483"><ele>135.0</ele><time>2026-04-19T07:34:46.65Z</time></trkpt><trkpt lat="43.7212833" lon="11.3307217"><ele>135.0</ele><time>2026-04-19T07:34:47.643Z</time></trkpt><trkpt lat="43.7214067" lon="11.330585"><ele>135.0</ele><time>2026-04-19T07:34:48.655Z</time></trkpt><trkpt lat="43.72153" lon="11.3304433"><ele>134.0</ele><time>2026-04-19T07:34:49.65Z</time></trkpt><trkpt lat="43.7216267" lon="11.3303033"><ele>133.0</ele><time>2026-04-19T07:34:50.646Z</time></trkpt><trkpt lat="43.7217367" lon="11.330175"><ele>132.0</ele><time>2026-04-19T07:34:51.649Z</time></trkpt><trkpt lat="43.7218567" lon="11.3300683"><ele>131.0</ele><time>2026-04-19T07:34:52.649Z</time></trkpt><trkpt lat="43.7219717" lon="11.3299717"><ele>131.0</ele><time>2026-04-19T07:34:53.652Z</time></trkpt><trkpt lat="43.7220867" lon="11.329865"><ele>131.0</ele><time>2026-04-19T07:34:54.65Z</time></trkpt><trkpt lat="43.722205" lon="11.329765"><ele>131.0</ele><time>2026-04-19T07:34:55.653Z</time></trkpt><trkpt lat="43.7223083" lon="11.3296383"><ele>131.0</ele><time>2026-04-19T07:34:56.649Z</time></trkpt><trkpt lat="43.722405" lon="11.3294967"><ele>131.0</ele><time>2026-04-19T07:34:57.654Z</time></trkpt><trkpt lat="43.722485" lon="11.3293267"><ele>131.0</ele><time>2026-04-19T07:34:58.651Z</time></trkpt><trkpt lat="43.7225867" lon="11.3291867"><ele>131.0</ele><time>2026-04-19T07:34:59.646Z</time></trkpt><trkpt lat="43.7226883" lon="11.3290483"><ele>131.0</ele><time>2026-04-19T07:35:00.645Z</time></trkpt><trkpt lat="43.7227883" lon="11.3289367"><ele>130.0</ele><time>2026-04-19T07:35:01.65Z</time></trkpt><trkpt lat="43.722885" lon="11.3288783"><ele>129.0</ele><time>2026-04-19T07:35:02.652Z</time></trkpt><trkpt lat="43.72299" lon="11.328875"><ele>128.0</ele><time>2026-04-19T07:35:03.649Z</time></trkpt><trkpt lat="43.7231" lon="11.328865"><ele>127.0</ele><time>2026-04-19T07:35:04.651Z</time></trkpt><trkpt lat="43.723255" lon="11.32888"><ele>127.0</ele><time>2026-04-19T07:35:05.653Z</time></trkpt><trkpt lat="43.7234083" lon="11.3288733"><ele>127.0</ele><time>2026-04-19T07:35:06.65Z</time></trkpt><trkpt lat="43.7236117" lon="11.3289267"><ele>127.0</ele><time>2026-04-19T07:35:07.652Z</time></trkpt><trkpt lat="43.7237633" lon="11.328935"><ele>126.5</ele><time>2026-04-19T07:35:08.653Z</time></trkpt><trkpt lat="43.7239017" lon="11.3289367"><ele>126.0</ele><time>2026-04-19T07:35:09.653Z</time></trkpt><trkpt lat="43.72403" lon="11.3289367"><ele>125.5</ele><time>2026-04-19T07:35:10.647Z</time></trkpt><trkpt lat="43.7241367" lon="11.3289383"><ele>125.0</ele><time>2026-04-19T07:35:11.646Z</time></trkpt><trkpt lat="43.72422" lon="11.32894"><ele>124.99999999999999</ele><time>2026-04-19T07:35:12.65Z</time></trkpt><trkpt lat="43.7242933" lon="11.32894"><ele>125.0</ele><time>2026-04-19T07:35:13.646Z</time></trkpt><trkpt lat="43.7243567" lon="11.3289317"><ele>125.0</ele><time>2026-04-19T07:35:14.648Z</time></trkpt><trkpt lat="43.7244433" lon="11.3289117"><ele>125.0</ele><time>2026-04-19T07:35:15.646Z</time></trkpt><trkpt lat="43.7245283" lon="11.32887"><ele>124.99999999999999</ele><time>2026-04-19T07:35:16.655Z</time></trkpt><trkpt lat="43.7246067" lon="11.328825"><ele>125.0</ele><time>2026-04-19T07:35:17.651Z</time></trkpt><trkpt lat="43.7246783" lon="11.32876"><ele>124.5</ele><time>2026-04-19T07:35:18.644Z</time></trkpt><trkpt lat="43.72476" lon="11.3286633"><ele>124.0</ele><time>2026-04-19T07:35:19.645Z</time></trkpt><trkpt lat="43.7248567" lon="11.328535"><ele>123.5</ele><time>2026-04-19T07:35:20.649Z</time></trkpt><trkpt lat="43.7249617" lon="11.32837"><ele>123.0</ele><time>2026-04-19T07:35:21.656Z</time></trkpt><trkpt lat="43.725065" lon="11.328195"><ele>122.33333333333334</ele><time>2026-04-19T07:35:22.65Z</time></trkpt><trkpt lat="43.725215" lon="11.3279967"><ele>121.66666666666667</ele><time>2026-04-19T07:35:23.649Z</time></trkpt><trkpt lat="43.72535" lon="11.3278033"><ele>121.0</ele><time>2026-04-19T07:35:24.649Z</time></trkpt><trkpt lat="43.72548" lon="11.3276367"><ele>120.33333333333334</ele><time>2026-04-19T07:35:25.65Z</time></trkpt><trkpt lat="43.7256233" lon="11.3274717"><ele>119.66666666666666</ele><time>2026-04-19T07:35:26.65Z</time></trkpt><trkpt lat="43.725755" lon="11.3273233"><ele>119.0</ele><time>2026-04-19T07:35:27.654Z</time></trkpt><trkpt lat="43.7258883" lon="11.3271667"><ele>119.0</ele><time>2026-04-19T07:35:28.654Z</time></trkpt><trkpt lat="43.7260233" lon="11.3269917"><ele>119.0</ele><time>2026-04-19T07:35:29.652Z</time></trkpt><trkpt lat="43.72616" lon="11.3268183"><ele>119.0</ele><time>2026-04-19T07:35:30.646Z</time></trkpt><trkpt lat="43.7262683" lon="11.32663"><ele>122.33333333333333</ele><time>2026-04-19T07:35:31.65Z</time></trkpt><trkpt lat="43.7263433" lon="11.3264167"><ele>125.66666666666666</ele><time>2026-04-19T07:35:32.651Z</time></trkpt><trkpt lat="43.726425" lon="11.3262067"><ele>129.0</ele><time>2026-04-19T07:35:33.652Z</time></trkpt><trkpt lat="43.7264217" lon="11.3259433"><ele>129.0</ele><time>2026-04-19T07:35:34.65Z</time></trkpt><trkpt lat="43.7264317" lon="11.3257067"><ele>129.0</ele><time>2026-04-19T07:35:35.649Z</time></trkpt><trkpt lat="43.7264283" lon="11.3254467"><ele>129.0</ele><time>2026-04-19T07:35:36.653Z</time></trkpt><trkpt lat="43.7264117" lon="11.3251733"><ele>126.5</ele><time>2026-04-19T07:35:37.647Z</time></trkpt><trkpt lat="43.7263683" lon="11.324855"><ele>124.0</ele><time>2026-04-19T07:35:38.659Z</time></trkpt><trkpt lat="43.7263283" lon="11.3245383"><ele>122.33333333333334</ele><time>2026-04-19T07:35:39.658Z</time></trkpt><trkpt lat="43.7263417" lon="11.3243033"><ele>120.66666666666666</ele><time>2026-04-19T07:35:40.649Z</time></trkpt><trkpt lat="43.7263533" lon="11.324065"><ele>119.0</ele><time>2026-04-19T07:35:41.645Z</time></trkpt><trkpt lat="43.7263583" lon="11.3238317"><ele>118.0</ele><time>2026-04-19T07:35:42.65Z</time></trkpt><trkpt lat="43.7263617" lon="11.3236117"><ele>117.0</ele><time>2026-04-19T07:35:43.649Z</time></trkpt><trkpt lat="43.7263767" lon="11.3234"><ele>116.0</ele><time>2026-04-19T07:35:44.651Z</time></trkpt><trkpt lat="43.7263817" lon="11.323195"><ele>115.5</ele><time>2026-04-19T07:35:45.652Z</time></trkpt><trkpt lat="43.7263817" lon="11.3230017"><ele>115.0</ele><time>2026-04-19T07:35:46.653Z</time></trkpt><trkpt lat="43.7263867" lon="11.32283"><ele>114.5</ele><time>2026-04-19T07:35:47.655Z</time></trkpt><trkpt lat="43.726395" lon="11.32269"><ele>114.0</ele><time>2026-04-19T07:35:48.66Z</time></trkpt><trkpt lat="43.7264167" lon="11.3225633"><ele>114.0</ele><time>2026-04-19T07:35:49.655Z</time></trkpt><trkpt lat="43.7264333" lon="11.3224467"><ele>114.0</ele><time>2026-04-19T07:35:50.646Z</time></trkpt><trkpt lat="43.7264333" lon="11.3223267"><ele>114.0</ele><time>2026-04-19T07:35:51.65Z</time></trkpt><trkpt lat="43.726435" lon="11.32222"><ele>114.0</ele><time>2026-04-19T07:35:52.65Z</time></trkpt><trkpt lat="43.72644" lon="11.3221067"><ele>114.0</ele><time>2026-04-19T07:35:53.649Z</time></trkpt><trkpt lat="43.7264283" lon="11.32201"><ele>114.0</ele><time>2026-04-19T07:35:54.653Z</time></trkpt><trkpt lat="43.726435" lon="11.3219183"><ele>113.75</ele><time>2026-04-19T07:35:55.652Z</time></trkpt><trkpt lat="43.7264483" lon="11.3217783"><ele>113.5</ele><time>2026-04-19T07:35:57.653Z</time></trkpt><trkpt lat="43.7264067" lon="11.3217"><ele>113.25</ele><time>2026-04-19T07:35:59.65Z</time></trkpt><trkpt lat="43.72624" lon="11.3218217"><ele>113.0</ele><time>2026-04-19T07:36:00.647Z</time></trkpt><trkpt lat="43.7260567" lon="11.3218283"><ele>113.4</ele><time>2026-04-19T07:36:01.65Z</time></trkpt><trkpt lat="43.725895" lon="11.32181"><ele>113.80000000000001</ele><time>2026-04-19T07:36:02.65Z</time></trkpt><trkpt lat="43.7258" lon="11.32178"><ele>114.2</ele><time>2026-04-19T07:36:03.651Z</time></trkpt><trkpt lat="43.7257267" lon="11.3217617"><ele>114.6</ele><time>2026-04-19T07:36:04.65Z</time></trkpt><trkpt lat="43.7256617" lon="11.3217683"><ele>115.0</ele><time>2026-04-19T07:36:05.655Z</time></trkpt><trkpt lat="43.725575" lon="11.3217783"><ele>115.0</ele><time>2026-04-19T07:36:06.649Z</time></trkpt><trkpt lat="43.7254783" lon="11.32178"><ele>115.0</ele><time>2026-04-19T07:36:07.645Z</time></trkpt><trkpt lat="43.7253633" lon="11.3217533"><ele>115.0</ele><time>2026-04-19T07:36:08.646Z</time></trkpt><trkpt lat="43.725215" lon="11.3217017"><ele>115.0</ele><time>2026-04-19T07:36:09.647Z</time></trkpt><trkpt lat="43.7250833" lon="11.3216467"><ele>117.66666666666667</ele><time>2026-04-19T07:36:10.647Z</time></trkpt><trkpt lat="43.7249283" lon="11.3215917"><ele>120.33333333333334</ele><time>2026-04-19T07:36:11.647Z</time></trkpt><trkpt lat="43.7247933" lon="11.3215133"><ele>123.0</ele><time>2026-04-19T07:36:12.653Z</time></trkpt><trkpt lat="43.724655" lon="11.3214333"><ele>123.75</ele><time>2026-04-19T07:36:13.649Z</time></trkpt><trkpt lat="43.7245217" lon="11.3213533"><ele>124.5</ele><time>2026-04-19T07:36:14.652Z</time></trkpt><trkpt lat="43.7243933" lon="11.32127"><ele>125.25</ele><time>2026-04-19T07:36:15.651Z</time></trkpt><trkpt lat="43.7242583" lon="11.321185"><ele>126.0</ele><time>2026-04-19T07:36:16.654Z</time></trkpt><trkpt lat="43.724115" lon="11.3211"><ele>128.66666666666666</ele><time>2026-04-19T07:36:17.652Z</time></trkpt><trkpt lat="43.723975" lon="11.3210333"><ele>131.33333333333331</ele><time>2026-04-19T07:36:18.645Z</time></trkpt><trkpt lat="43.7238333" lon="11.3209817"><ele>134.0</ele><time>2026-04-19T07:36:19.646Z</time></trkpt><trkpt lat="43.72368" lon="11.32094"><ele>137.0</ele><time>2026-04-19T07:36:20.647Z</time></trkpt><trkpt lat="43.7235117" lon="11.3209133"><ele>140.0</ele><time>2026-04-19T07:36:21.653Z</time></trkpt><trkpt lat="43.723345" lon="11.3208967"><ele>143.0</ele><time>2026-04-19T07:36:22.648Z</time></trkpt><trkpt lat="43.723175" lon="11.32092"><ele>143.0</ele><time>2026-04-19T07:36:23.649Z</time></trkpt><trkpt lat="43.7229967" lon="11.3209283"><ele>143.0</ele><time>2026-04-19T07:36:24.65Z</time></trkpt><trkpt lat="43.7228033" lon="11.3209233"><ele>143.0</ele><time>2026-04-19T07:36:25.652Z</time></trkpt><trkpt lat="43.722625" lon="11.3209117"><ele>145.0</ele><time>2026-04-19T07:36:26.649Z</time></trkpt><trkpt lat="43.7224467" lon="11.3208883"><ele>147.0</ele><time>2026-04-19T07:36:27.656Z</time></trkpt><trkpt lat="43.7222617" lon="11.3208633"><ele>149.0</ele><time>2026-04-19T07:36:28.651Z</time></trkpt><trkpt lat="43.72208" lon="11.3208367"><ele>149.0</ele><time>2026-04-19T07:36:29.645Z</time></trkpt><trkpt lat="43.7219033" lon="11.32079"><ele>149.0</ele><time>2026-04-19T07:36:30.648Z</time></trkpt><trkpt lat="43.7217217" lon="11.3207417"><ele>149.0</ele><time>2026-04-19T07:36:31.648Z</time></trkpt><trkpt lat="43.7215383" lon="11.3207033"><ele>151.0</ele><time>2026-04-19T07:36:32.655Z</time></trkpt><trkpt lat="43.7213517" lon="11.3206717"><ele>153.0</ele><time>2026-04-19T07:36:33.653Z</time></trkpt><trkpt lat="43.7211633" lon="11.320655"><ele>155.0</ele><time>2026-04-19T07:36:34.654Z</time></trkpt><trkpt lat="43.720975" lon="11.3206433"><ele>157.0</ele><time>2026-04-19T07:36:35.651Z</time></trkpt><trkpt lat="43.7207933" lon="11.3206567"><ele>159.0</ele><time>2026-04-19T07:36:36.654Z</time></trkpt><trkpt lat="43.720615" lon="11.3206833"><ele>161.0</ele><time>2026-04-19T07:36:37.652Z</time></trkpt><trkpt lat="43.7204417" lon="11.32073"><ele>161.0</ele><time>2026-04-19T07:36:38.655Z</time></trkpt><trkpt lat="43.7202783" lon="11.3208017"><ele>161.0</ele><time>2026-04-19T07:36:39.654Z</time></trkpt><trkpt lat="43.7201317" lon="11.3208667"><ele>161.0</ele><time>2026-04-19T07:36:40.644Z</time></trkpt><trkpt lat="43.71998" lon="11.3209017"><ele>162.0</ele><time>2026-04-19T07:36:41.654Z</time></trkpt><trkpt lat="43.7198333" lon="11.3209167"><ele>163.0</ele><time>2026-04-19T07:36:42.65Z</time></trkpt><trkpt lat="43.7197033" lon="11.3209283"><ele>164.0</ele><time>2026-04-19T07:36:43.647Z</time></trkpt><trkpt lat="43.719565" lon="11.320915"><ele>165.0</ele><time>2026-04-19T07:36:44.651Z</time></trkpt><trkpt lat="43.7194267" lon="11.3208833"><ele>165.75</ele><time>2026-04-19T07:36:45.653Z</time></trkpt><trkpt lat="43.7193017" lon="11.3208233"><ele>166.5</ele><time>2026-04-19T07:36:46.653Z</time></trkpt><trkpt lat="43.7191967" lon="11.32074"><ele>167.25</ele><time>2026-04-19T07:36:47.656Z</time></trkpt><trkpt lat="43.719095" lon="11.320655"><ele>168.0</ele><time>2026-04-19T07:36:48.648Z</time></trkpt><trkpt lat="43.719" lon="11.3205283"><ele>168.0</ele><time>2026-04-19T07:36:49.646Z</time></trkpt><trkpt lat="43.71888" lon="11.3203967"><ele>168.0</ele><time>2026-04-19T07:36:50.649Z</time></trkpt><trkpt lat="43.7187733" lon="11.3202567"><ele>168.0</ele><time>2026-04-19T07:36:51.649Z</time></trkpt><trkpt lat="43.7186367" lon="11.3201483"><ele>168.0</ele><time>2026-04-19T07:36:52.654Z</time></trkpt><trkpt lat="43.7184767" lon="11.3200083"><ele>168.0</ele><time>2026-04-19T07:36:53.651Z</time></trkpt><trkpt lat="43.7183317" lon="11.3199017"><ele>168.0</ele><time>2026-04-19T07:36:54.651Z</time></trkpt><trkpt lat="43.7181917" lon="11.3197833"><ele>169.33333333333334</ele><time>2026-04-19T07:36:55.651Z</time></trkpt><trkpt lat="43.7180567" lon="11.3196433"><ele>170.66666666666669</ele><time>2026-04-19T07:36:56.645Z</time></trkpt><trkpt lat="43.71792" lon="11.3194983"><ele>172.0</ele><time>2026-04-19T07:36:57.654Z</time></trkpt><trkpt lat="43.71779" lon="11.3193567"><ele>175.33333333333334</ele><time>2026-04-19T07:36:58.657Z</time></trkpt><trkpt lat="43.7176633" lon="11.3192133"><ele>178.66666666666666</ele><time>2026-04-19T07:36:59.647Z</time></trkpt><trkpt lat="43.7175333" lon="11.3190717"><ele>182.0</ele><time>2026-04-19T07:37:00.655Z</time></trkpt><trkpt lat="43.7174067" lon="11.318935"><ele>184.33333333333331</ele><time>2026-04-19T07:37:01.647Z</time></trkpt><trkpt lat="43.7172833" lon="11.318805"><ele>186.66666666666666</ele><time>2026-04-19T07:37:02.652Z</time></trkpt><trkpt lat="43.7171583" lon="11.3186867"><ele>189.0</ele><time>2026-04-19T07:37:03.648Z</time></trkpt><trkpt lat="43.71702" lon="11.31858"><ele>188.75</ele><time>2026-04-19T07:37:04.652Z</time></trkpt><trkpt lat="43.7168933" lon="11.3184783"><ele>188.5</ele><time>2026-04-19T07:37:05.653Z</time></trkpt><trkpt lat="43.7167683" lon="11.318375"><ele>188.25</ele><time>2026-04-19T07:37:06.653Z</time></trkpt><trkpt lat="43.7166383" lon="11.31826"><ele>188.0</ele><time>2026-04-19T07:37:07.661Z</time></trkpt><trkpt lat="43.71649" lon="11.3181317"><ele>188.66666666666666</ele><time>2026-04-19T07:37:08.653Z</time></trkpt><trkpt lat="43.7163517" lon="11.3180183"><ele>189.33333333333334</ele><time>2026-04-19T07:37:09.65Z</time></trkpt><trkpt lat="43.7162017" lon="11.3178983"><ele>190.0</ele><time>2026-04-19T07:37:10.65Z</time></trkpt><trkpt lat="43.716045" lon="11.3178"><ele>191.0</ele><time>2026-04-19T07:37:11.647Z</time></trkpt><trkpt lat="43.7158783" lon="11.31772"><ele>192.0</ele><time>2026-04-19T07:37:12.652Z</time></trkpt><trkpt lat="43.7157017" lon="11.31765"><ele>193.0</ele><time>2026-04-19T07:37:13.65Z</time></trkpt><trkpt lat="43.71553" lon="11.317585"><ele>193.0</ele><time>2026-04-19T07:37:14.652Z</time></trkpt><trkpt lat="43.7153617" lon="11.31753"><ele>193.0</ele><time>2026-04-19T07:37:15.651Z</time></trkpt><trkpt lat="43.7151867" lon="11.3174833"><ele>193.0</ele><time>2026-04-19T07:37:16.645Z</time></trkpt><trkpt lat="43.715015" lon="11.31746"><ele>194.0</ele><time>2026-04-19T07:37:17.654Z</time></trkpt><trkpt lat="43.71485" lon="11.3174567"><ele>195.0</ele><time>2026-04-19T07:37:18.656Z</time></trkpt><trkpt lat="43.714695" lon="11.317465"><ele>196.0</ele><time>2026-04-19T07:37:19.66Z</time></trkpt><trkpt lat="43.7145533" lon="11.3174517"><ele>196.0</ele><time>2026-04-19T07:37:20.65Z</time></trkpt><trkpt lat="43.7144083" lon="11.3174483"><ele>196.0</ele><time>2026-04-19T07:37:21.656Z</time></trkpt><trkpt lat="43.7142733" lon="11.317435"><ele>196.0</ele><time>2026-04-19T07:37:22.649Z</time></trkpt><trkpt lat="43.71415" lon="11.31737"><ele>196.0</ele><time>2026-04-19T07:37:23.649Z</time></trkpt><trkpt lat="43.714025" lon="11.3173167"><ele>195.66666666666666</ele><time>2026-04-19T07:37:24.65Z</time></trkpt><trkpt lat="43.71389" lon="11.31725"><ele>195.33333333333331</ele><time>2026-04-19T07:37:25.65Z</time></trkpt><trkpt lat="43.7137517" lon="11.31714"><ele>195.0</ele><time>2026-04-19T07:37:26.648Z</time></trkpt><trkpt lat="43.7136283" lon="11.31703"><ele>194.25</ele><time>2026-04-19T07:37:27.651Z</time></trkpt><trkpt lat="43.7134983" lon="11.3169333"><ele>193.5</ele><time>2026-04-19T07:37:28.645Z</time></trkpt><trkpt lat="43.7133767" lon="11.31685"><ele>192.75</ele><time>2026-04-19T07:37:29.649Z</time></trkpt><trkpt lat="43.7132467" lon="11.31679"><ele>192.0</ele><time>2026-04-19T07:37:30.648Z</time></trkpt><trkpt lat="43.7130967" lon="11.3168067"><ele>192.0</ele><time>2026-04-19T07:37:31.65Z</time></trkpt><trkpt lat="43.7129267" lon="11.3168683"><ele>192.0</ele><time>2026-04-19T07:37:32.656Z</time></trkpt><trkpt lat="43.7127717" lon="11.3169083"><ele>192.0</ele><time>2026-04-19T07:37:33.659Z</time></trkpt><trkpt lat="43.712615" lon="11.3169733"><ele>192.33333333333331</ele><time>2026-04-19T07:37:34.652Z</time></trkpt><trkpt lat="43.7124833" lon="11.3170767"><ele>192.66666666666666</ele><time>2026-04-19T07:37:35.654Z</time></trkpt><trkpt lat="43.7123617" lon="11.3172083"><ele>193.0</ele><time>2026-04-19T07:37:36.654Z</time></trkpt><trkpt lat="43.7122383" lon="11.31734"><ele>193.0</ele><time>2026-04-19T07:37:37.646Z</time></trkpt><trkpt lat="43.7121167" lon="11.3174733"><ele>193.0</ele><time>2026-04-19T07:37:38.648Z</time></trkpt><trkpt lat="43.711995" lon="11.317615"><ele>193.0</ele><time>2026-04-19T07:37:39.65Z</time></trkpt><trkpt lat="43.7118783" lon="11.317755"><ele>192.5</ele><time>2026-04-19T07:37:40.652Z</time></trkpt><trkpt lat="43.7117667" lon="11.317895"><ele>192.0</ele><time>2026-04-19T07:37:41.649Z</time></trkpt><trkpt lat="43.7116667" lon="11.31802"><ele>191.5</ele><time>2026-04-19T07:37:42.65Z</time></trkpt><trkpt lat="43.7115883" lon="11.31814"><ele>191.0</ele><time>2026-04-19T07:37:43.652Z</time></trkpt><trkpt lat="43.711515" lon="11.31824"><ele>191.0</ele><time>2026-04-19T07:37:44.651Z</time></trkpt><trkpt lat="43.71146" lon="11.3182933"><ele>191.0</ele><time>2026-04-19T07:37:45.648Z</time></trkpt><trkpt lat="43.7113367" lon="11.3183483"><ele>191.0</ele><time>2026-04-19T07:37:47.647Z</time></trkpt><trkpt lat="43.7112483" lon="11.3183783"><ele>191.0</ele><time>2026-04-19T07:37:48.646Z</time></trkpt><trkpt lat="43.7111567" lon="11.3184083"><ele>191.0</ele><time>2026-04-19T07:37:49.649Z</time></trkpt><trkpt lat="43.711065" lon="11.3184367"><ele>189.4</ele><time>2026-04-19T07:37:50.651Z</time></trkpt><trkpt lat="43.71097" lon="11.3184483"><ele>187.8</ele><time>2026-04-19T07:37:51.652Z</time></trkpt><trkpt lat="43.7108833" lon="11.318435"><ele>186.20000000000002</ele><time>2026-04-19T07:37:52.65Z</time></trkpt><trkpt lat="43.71079" lon="11.3184"><ele>184.60000000000002</ele><time>2026-04-19T07:37:53.652Z</time></trkpt><trkpt lat="43.7107067" lon="11.31836"><ele>183.0</ele><time>2026-04-19T07:37:54.652Z</time></trkpt><trkpt lat="43.710625" lon="11.3183083"><ele>183.0</ele><time>2026-04-19T07:37:55.652Z</time></trkpt><trkpt lat="43.7105467" lon="11.3182083"><ele>183.0</ele><time>2026-04-19T07:37:56.643Z</time></trkpt><trkpt lat="43.7104833" lon="11.3180667"><ele>183.0</ele><time>2026-04-19T07:37:57.653Z</time></trkpt><trkpt lat="43.710415" lon="11.3178883"><ele>183.0</ele><time>2026-04-19T07:37:58.647Z</time></trkpt><trkpt lat="43.71035" lon="11.31771"><ele>183.66666666666666</ele><time>2026-04-19T07:37:59.661Z</time></trkpt><trkpt lat="43.7102833" lon="11.3175133"><ele>184.33333333333331</ele><time>2026-04-19T07:38:00.649Z</time></trkpt><trkpt lat="43.7101983" lon="11.3172983"><ele>185.0</ele><time>2026-04-19T07:38:01.651Z</time></trkpt><trkpt lat="43.7101467" lon="11.3170633"><ele>185.0</ele><time>2026-04-19T07:38:02.649Z</time></trkpt><trkpt lat="43.7100833" lon="11.3168133"><ele>185.0</ele><time>2026-04-19T07:38:03.649Z</time></trkpt><trkpt lat="43.7100067" lon="11.3165933"><ele>185.0</ele><time>2026-04-19T07:38:04.644Z</time></trkpt><trkpt lat="43.7099567" lon="11.3163933"><ele>183.66666666666666</ele><time>2026-04-19T07:38:05.657Z</time></trkpt><trkpt lat="43.7099083" lon="11.316195"><ele>182.33333333333334</ele><time>2026-04-19T07:38:06.648Z</time></trkpt><trkpt lat="43.709855" lon="11.3159867"><ele>181.0</ele><time>2026-04-19T07:38:07.653Z</time></trkpt><trkpt lat="43.7097667" lon="11.315775"><ele>179.33333333333334</ele><time>2026-04-19T07:38:08.648Z</time></trkpt><trkpt lat="43.7096933" lon="11.31557"><ele>177.66666666666666</ele><time>2026-04-19T07:38:09.655Z</time></trkpt><trkpt lat="43.7096233" lon="11.3153483"><ele>176.0</ele><time>2026-04-19T07:38:10.648Z</time></trkpt><trkpt lat="43.7095517" lon="11.3151083"><ele>176.0</ele><time>2026-04-19T07:38:11.649Z</time></trkpt><trkpt lat="43.7094967" lon="11.3148683"><ele>176.0</ele><time>2026-04-19T07:38:12.648Z</time></trkpt><trkpt lat="43.7094883" lon="11.3145933"><ele>176.0</ele><time>2026-04-19T07:38:13.654Z</time></trkpt><trkpt lat="43.7094933" lon="11.314315"><ele>174.33333333333331</ele><time>2026-04-19T07:38:14.65Z</time></trkpt><trkpt lat="43.7095117" lon="11.31406"><ele>172.66666666666666</ele><time>2026-04-19T07:38:15.654Z</time></trkpt><trkpt lat="43.7095167" lon="11.3138233"><ele>171.0</ele><time>2026-04-19T07:38:16.644Z</time></trkpt><trkpt lat="43.7095217" lon="11.3135983"><ele>169.0</ele><time>2026-04-19T07:38:17.648Z</time></trkpt><trkpt lat="43.7095167" lon="11.3133683"><ele>167.0</ele><time>2026-04-19T07:38:18.647Z</time></trkpt><trkpt lat="43.7094933" lon="11.3131417"><ele>165.0</ele><time>2026-04-19T07:38:19.659Z</time></trkpt><trkpt lat="43.7094583" lon="11.31293"><ele>163.66666666666666</ele><time>2026-04-19T07:38:20.652Z</time></trkpt><trkpt lat="43.7094183" lon="11.3127317"><ele>162.33333333333331</ele><time>2026-04-19T07:38:21.65Z</time></trkpt><trkpt lat="43.7093483" lon="11.31254"><ele>161.0</ele><time>2026-04-19T07:38:22.652Z</time></trkpt><trkpt lat="43.70927" lon="11.3123517"><ele>159.66666666666666</ele><time>2026-04-19T07:38:23.65Z</time></trkpt><trkpt lat="43.7091733" lon="11.3121533"><ele>158.33333333333334</ele><time>2026-04-19T07:38:24.644Z</time></trkpt><trkpt lat="43.7090667" lon="11.3119483"><ele>157.0</ele><time>2026-04-19T07:38:25.644Z</time></trkpt><trkpt lat="43.70896" lon="11.3117233"><ele>157.0</ele><time>2026-04-19T07:38:26.647Z</time></trkpt><trkpt lat="43.7088467" lon="11.3115083"><ele>157.0</ele><time>2026-04-19T07:38:27.646Z</time></trkpt><trkpt lat="43.7087317" lon="11.3112933"><ele>157.0</ele><time>2026-04-19T07:38:28.644Z</time></trkpt><trkpt lat="43.7086833" lon="11.3110583"><ele>154.5</ele><time>2026-04-19T07:38:29.647Z</time></trkpt><trkpt lat="43.7085417" lon="11.310795"><ele>152.0</ele><time>2026-04-19T07:38:30.674Z</time></trkpt><trkpt lat="43.7083983" lon="11.3105217"><ele>150.66666666666666</ele><time>2026-04-19T07:38:31.649Z</time></trkpt><trkpt lat="43.70832" lon="11.310285"><ele>149.33333333333334</ele><time>2026-04-19T07:38:32.654Z</time></trkpt><trkpt lat="43.7082483" lon="11.3100417"><ele>148.0</ele><time>2026-04-19T07:38:33.651Z</time></trkpt><trkpt lat="43.7082" lon="11.3098"><ele>145.0</ele><time>2026-04-19T07:38:34.648Z</time></trkpt><trkpt lat="43.70814" lon="11.3095517"><ele>142.0</ele><time>2026-04-19T07:38:35.652Z</time></trkpt><trkpt lat="43.7080917" lon="11.3093083"><ele>139.0</ele><time>2026-04-19T07:38:36.652Z</time></trkpt><trkpt lat="43.7080233" lon="11.3090567"><ele>137.66666666666669</ele><time>2026-04-19T07:38:37.648Z</time></trkpt><trkpt lat="43.70794" lon="11.3088317"><ele>136.33333333333334</ele><time>2026-04-19T07:38:38.646Z</time></trkpt><trkpt lat="43.7078417" lon="11.308635"><ele>135.0</ele><time>2026-04-19T07:38:39.655Z</time></trkpt><trkpt lat="43.7077333" lon="11.308445"><ele>135.0</ele><time>2026-04-19T07:38:40.649Z</time></trkpt><trkpt lat="43.7076067" lon="11.308245"><ele>135.0</ele><time>2026-04-19T07:38:41.651Z</time></trkpt><trkpt lat="43.7074783" lon="11.3080367"><ele>135.0</ele><time>2026-04-19T07:38:42.65Z</time></trkpt><trkpt lat="43.707355" lon="11.3078283"><ele>132.33333333333334</ele><time>2026-04-19T07:38:43.643Z</time></trkpt><trkpt lat="43.7072433" lon="11.3076267"><ele>129.66666666666669</ele><time>2026-04-19T07:38:44.642Z</time></trkpt><trkpt lat="43.7071383" lon="11.307435"><ele>127.0</ele><time>2026-04-19T07:38:45.643Z</time></trkpt><trkpt lat="43.7070367" lon="11.3072633"><ele>125.0</ele><time>2026-04-19T07:38:46.651Z</time></trkpt><trkpt lat="43.70694" lon="11.3071183"><ele>123.0</ele><time>2026-04-19T07:38:47.647Z</time></trkpt><trkpt lat="43.70685" lon="11.3069967"><ele>121.0</ele><time>2026-04-19T07:38:48.649Z</time></trkpt><trkpt lat="43.7067567" lon="11.3069067"><ele>119.0</ele><time>2026-04-19T07:38:49.647Z</time></trkpt><trkpt lat="43.70669" lon="11.3068717"><ele>118.5</ele><time>2026-04-19T07:38:50.652Z</time></trkpt><trkpt lat="43.7065817" lon="11.30692"><ele>118.0</ele><time>2026-04-19T07:38:52.648Z</time></trkpt><trkpt lat="43.706545" lon="11.307095"><ele>117.5</ele><time>2026-04-19T07:38:53.651Z</time></trkpt><trkpt lat="43.7064983" lon="11.3072583"><ele>117.0</ele><time>2026-04-19T07:38:54.654Z</time></trkpt><trkpt lat="43.7064933" lon="11.3074217"><ele>117.0</ele><time>2026-04-19T07:38:55.646Z</time></trkpt><trkpt lat="43.7064533" lon="11.3075067"><ele>116.99999999999999</ele><time>2026-04-19T07:38:56.647Z</time></trkpt><trkpt lat="43.7063667" lon="11.3075867"><ele>116.99999999999999</ele><time>2026-04-19T07:38:58.646Z</time></trkpt><trkpt lat="43.7062667" lon="11.3075817"><ele>117.0</ele><time>2026-04-19T07:39:00.651Z</time></trkpt><trkpt lat="43.706195" lon="11.3074033"><ele>117.0</ele><time>2026-04-19T07:39:02.652Z</time></trkpt><trkpt lat="43.7061367" lon="11.3072433"><ele>117.0</ele><time>2026-04-19T07:39:03.649Z</time></trkpt><trkpt lat="43.706095" lon="11.3070983"><ele>117.0</ele><time>2026-04-19T07:39:04.645Z</time></trkpt><trkpt lat="43.7060767" lon="11.3069433"><ele>117.0</ele><time>2026-04-19T07:39:05.642Z</time></trkpt><trkpt lat="43.7060733" lon="11.30677"><ele>117.0</ele><time>2026-04-19T07:39:06.665Z</time></trkpt><trkpt lat="43.7061083" lon="11.3065267"><ele>114.75</ele><time>2026-04-19T07:39:07.657Z</time></trkpt><trkpt lat="43.70613" lon="11.30636"><ele>112.5</ele><time>2026-04-19T07:39:08.656Z</time></trkpt><trkpt lat="43.706185" lon="11.306185"><ele>110.25</ele><time>2026-04-19T07:39:09.649Z</time></trkpt><trkpt lat="43.7062633" lon="11.3060567"><ele>108.0</ele><time>2026-04-19T07:39:10.652Z</time></trkpt><trkpt lat="43.7062833" lon="11.3059633"><ele>108.0</ele><time>2026-04-19T07:39:11.651Z</time></trkpt><trkpt lat="43.7063083" lon="11.30588"><ele>108.0</ele><time>2026-04-19T07:39:12.647Z</time></trkpt><trkpt lat="43.7062117" lon="11.30595"><ele>108.0</ele><time>2026-04-19T07:39:17.652Z</time></trkpt><trkpt lat="43.7061133" lon="11.3060383"><ele>108.0</ele><time>2026-04-19T07:39:18.645Z</time></trkpt><trkpt lat="43.70598" lon="11.3062867"><ele>108.33333333333334</ele><time>2026-04-19T07:39:19.647Z</time></trkpt><trkpt lat="43.7058333" lon="11.3065217"><ele>108.66666666666667</ele><time>2026-04-19T07:39:20.651Z</time></trkpt><trkpt lat="43.7056917" lon="11.3066917"><ele>109.0</ele><time>2026-04-19T07:39:21.65Z</time></trkpt><trkpt lat="43.7055367" lon="11.3068617"><ele>109.0</ele><time>2026-04-19T07:39:22.648Z</time></trkpt><trkpt lat="43.705385" lon="11.3069933"><ele>109.0</ele><time>2026-04-19T07:39:23.642Z</time></trkpt><trkpt lat="43.7052283" lon="11.3071183"><ele>109.0</ele><time>2026-04-19T07:39:24.646Z</time></trkpt><trkpt lat="43.7050567" lon="11.3072283"><ele>108.0</ele><time>2026-04-19T07:39:25.652Z</time></trkpt><trkpt lat="43.7048933" lon="11.3073333"><ele>107.0</ele><time>2026-04-19T07:39:26.652Z</time></trkpt><trkpt lat="43.7047383" lon="11.30743"><ele>106.0</ele><time>2026-04-19T07:39:27.644Z</time></trkpt><trkpt lat="43.7046" lon="11.30752"><ele>106.0</ele><time>2026-04-19T07:39:28.653Z</time></trkpt><trkpt lat="43.7044417" lon="11.3076017"><ele>106.0</ele><time>2026-04-19T07:39:29.645Z</time></trkpt><trkpt lat="43.7042783" lon="11.3076683"><ele>106.0</ele><time>2026-04-19T07:39:30.652Z</time></trkpt><trkpt lat="43.7041217" lon="11.3077067"><ele>105.33333333333334</ele><time>2026-04-19T07:39:31.649Z</time></trkpt><trkpt lat="43.7039467" lon="11.3077167"><ele>104.66666666666666</ele><time>2026-04-19T07:39:32.648Z</time></trkpt><trkpt lat="43.7037733" lon="11.3076867"><ele>104.0</ele><time>2026-04-19T07:39:33.649Z</time></trkpt><trkpt lat="43.7035767" lon="11.307585"><ele>104.0</ele><time>2026-04-19T07:39:34.645Z</time></trkpt><trkpt lat="43.70337" lon="11.307525"><ele>104.0</ele><time>2026-04-19T07:39:35.65Z</time></trkpt><trkpt lat="43.7031833" lon="11.307485"><ele>104.0</ele><time>2026-04-19T07:39:36.655Z</time></trkpt><trkpt lat="43.70299" lon="11.3074483"><ele>104.0</ele><time>2026-04-19T07:39:37.649Z</time></trkpt><trkpt lat="43.7028" lon="11.307425"><ele>104.0</ele><time>2026-04-19T07:39:38.646Z</time></trkpt><trkpt lat="43.702615" lon="11.30741"><ele>104.0</ele><time>2026-04-19T07:39:39.648Z</time></trkpt><trkpt lat="43.7024333" lon="11.3073967"><ele>104.0</ele><time>2026-04-19T07:39:40.652Z</time></trkpt><trkpt lat="43.70225" lon="11.307375"><ele>104.0</ele><time>2026-04-19T07:39:41.647Z</time></trkpt><trkpt lat="43.7020733" lon="11.307375"><ele>104.0</ele><time>2026-04-19T07:39:42.657Z</time></trkpt><trkpt lat="43.7019067" lon="11.3073967"><ele>104.0</ele><time>2026-04-19T07:39:43.652Z</time></trkpt><trkpt lat="43.7017483" lon="11.30743"><ele>104.0</ele><time>2026-04-19T07:39:44.652Z</time></trkpt><trkpt lat="43.7015967" lon="11.30748"><ele>104.0</ele><time>2026-04-19T07:39:45.647Z</time></trkpt><trkpt lat="43.7014467" lon="11.307555"><ele>104.0</ele><time>2026-04-19T07:39:46.643Z</time></trkpt><trkpt lat="43.7013117" lon="11.3076583"><ele>104.0</ele><time>2026-04-19T07:39:47.647Z</time></trkpt><trkpt lat="43.70121" lon="11.3078183"><ele>104.0</ele><time>2026-04-19T07:39:48.651Z</time></trkpt><trkpt lat="43.7011433" lon="11.3079833"><ele>104.0</ele><time>2026-04-19T07:39:49.653Z</time></trkpt><trkpt lat="43.7010583" lon="11.30811"><ele>104.0</ele><time>2026-04-19T07:39:50.647Z</time></trkpt><trkpt lat="43.70098" lon="11.30826"><ele>104.0</ele><time>2026-04-19T07:39:51.649Z</time></trkpt><trkpt lat="43.7008883" lon="11.3083883"><ele>104.0</ele><time>2026-04-19T07:39:52.643Z</time></trkpt><trkpt lat="43.700795" lon="11.3085033"><ele>104.0</ele><time>2026-04-19T07:39:53.653Z</time></trkpt><trkpt lat="43.7007033" lon="11.3086383"><ele>104.0</ele><time>2026-04-19T07:39:54.649Z</time></trkpt><trkpt lat="43.70061" lon="11.3087817"><ele>104.0</ele><time>2026-04-19T07:39:55.645Z</time></trkpt><trkpt lat="43.7005217" lon="11.3089467"><ele>104.0</ele><time>2026-04-19T07:39:56.645Z</time></trkpt><trkpt lat="43.700465" lon="11.30915"><ele>104.0</ele><time>2026-04-19T07:39:57.649Z</time></trkpt><trkpt lat="43.7003833" lon="11.3093083"><ele>105.25</ele><time>2026-04-19T07:39:58.646Z</time></trkpt><trkpt lat="43.7003433" lon="11.3094867"><ele>106.5</ele><time>2026-04-19T07:39:59.65Z</time></trkpt><trkpt lat="43.7003117" lon="11.3096467"><ele>107.75</ele><time>2026-04-19T07:40:00.648Z</time></trkpt><trkpt lat="43.700355" lon="11.3098017"><ele>109.0</ele><time>2026-04-19T07:40:01.65Z</time></trkpt><trkpt lat="43.7002817" lon="11.3098983"><ele>108.5</ele><time>2026-04-19T07:40:02.65Z</time></trkpt><trkpt lat="43.700265" lon="11.310005"><ele>108.0</ele><time>2026-04-19T07:40:03.644Z</time></trkpt><trkpt lat="43.7001917" lon="11.3100967"><ele>107.5</ele><time>2026-04-19T07:40:04.659Z</time></trkpt><trkpt lat="43.700035" lon="11.31007"><ele>107.0</ele><time>2026-04-19T07:40:05.653Z</time></trkpt><trkpt lat="43.6998217" lon="11.3099517"><ele>107.0</ele><time>2026-04-19T07:40:06.661Z</time></trkpt><trkpt lat="43.6996083" lon="11.3098583"><ele>107.0</ele><time>2026-04-19T07:40:07.647Z</time></trkpt><trkpt lat="43.6994767" lon="11.309815"><ele>107.0</ele><time>2026-04-19T07:40:08.651Z</time></trkpt><trkpt lat="43.699335" lon="11.3097567"><ele>106.66666666666666</ele><time>2026-04-19T07:40:09.651Z</time></trkpt><trkpt lat="43.6992033" lon="11.3096833"><ele>106.33333333333334</ele><time>2026-04-19T07:40:10.653Z</time></trkpt><trkpt lat="43.6990567" lon="11.3095883"><ele>106.0</ele><time>2026-04-19T07:40:11.649Z</time></trkpt><trkpt lat="43.698845" lon="11.3093217"><ele>106.0</ele><time>2026-04-19T07:40:12.65Z</time></trkpt><trkpt lat="43.6987217" lon="11.3091817"><ele>106.0</ele><time>2026-04-19T07:40:13.655Z</time></trkpt><trkpt lat="43.69856" lon="11.3089683"><ele>106.0</ele><time>2026-04-19T07:40:14.648Z</time></trkpt><trkpt lat="43.6984217" lon="11.3088183"><ele>106.0</ele><time>2026-04-19T07:40:15.644Z</time></trkpt><trkpt lat="43.6982767" lon="11.3086617"><ele>106.0</ele><time>2026-04-19T07:40:16.656Z</time></trkpt><trkpt lat="43.6981383" lon="11.30851"><ele>106.0</ele><time>2026-04-19T07:40:17.644Z</time></trkpt><trkpt lat="43.6980083" lon="11.3083717"><ele>106.0</ele><time>2026-04-19T07:40:18.647Z</time></trkpt><trkpt lat="43.6978733" lon="11.3082383"><ele>106.0</ele><time>2026-04-19T07:40:19.648Z</time></trkpt><trkpt lat="43.6977283" lon="11.308115"><ele>106.0</ele><time>2026-04-19T07:40:20.648Z</time></trkpt><trkpt lat="43.697575" lon="11.307995"><ele>107.0</ele><time>2026-04-19T07:40:21.653Z</time></trkpt><trkpt lat="43.697425" lon="11.3078817"><ele>108.0</ele><time>2026-04-19T07:40:22.649Z</time></trkpt><trkpt lat="43.6972833" lon="11.30779"><ele>109.0</ele><time>2026-04-19T07:40:23.65Z</time></trkpt><trkpt lat="43.697145" lon="11.3077617"><ele>109.0</ele><time>2026-04-19T07:40:24.646Z</time></trkpt><trkpt lat="43.6970033" lon="11.3077617"><ele>109.0</ele><time>2026-04-19T07:40:25.656Z</time></trkpt><trkpt lat="43.69686" lon="11.30776"><ele>109.0</ele><time>2026-04-19T07:40:26.658Z</time></trkpt><trkpt lat="43.696705" lon="11.3077367"><ele>109.0</ele><time>2026-04-19T07:40:27.647Z</time></trkpt><trkpt lat="43.69654" lon="11.30773"><ele>109.33333333333334</ele><time>2026-04-19T07:40:28.647Z</time></trkpt><trkpt lat="43.696365" lon="11.3077233"><ele>109.66666666666666</ele><time>2026-04-19T07:40:29.659Z</time></trkpt><trkpt lat="43.6961867" lon="11.30772"><ele>110.0</ele><time>2026-04-19T07:40:30.647Z</time></trkpt><trkpt lat="43.6959883" lon="11.3077"><ele>110.0</ele><time>2026-04-19T07:40:31.65Z</time></trkpt><trkpt lat="43.6958033" lon="11.3076767"><ele>110.0</ele><time>2026-04-19T07:40:32.653Z</time></trkpt><trkpt lat="43.695615" lon="11.3076317"><ele>110.0</ele><time>2026-04-19T07:40:33.652Z</time></trkpt><trkpt lat="43.695425" lon="11.3075717"><ele>111.0</ele><time>2026-04-19T07:40:34.655Z</time></trkpt><trkpt lat="43.69523" lon="11.3074867"><ele>112.0</ele><time>2026-04-19T07:40:35.644Z</time></trkpt><trkpt lat="43.6950433" lon="11.3073917"><ele>113.0</ele><time>2026-04-19T07:40:36.646Z</time></trkpt><trkpt lat="43.6948583" lon="11.3072933"><ele>112.0</ele><time>2026-04-19T07:40:37.652Z</time></trkpt><trkpt lat="43.69469" lon="11.3071883"><ele>111.0</ele><time>2026-04-19T07:40:38.648Z</time></trkpt><trkpt lat="43.6945283" lon="11.3071017"><ele>110.0</ele><time>2026-04-19T07:40:39.651Z</time></trkpt><trkpt lat="43.694375" lon="11.3070133"><ele>110.0</ele><time>2026-04-19T07:40:40.648Z</time></trkpt><trkpt lat="43.6942333" lon="11.3069367"><ele>110.0</ele><time>2026-04-19T07:40:41.65Z</time></trkpt><trkpt lat="43.6940833" lon="11.3068717"><ele>110.0</ele><time>2026-04-19T07:40:42.654Z</time></trkpt><trkpt lat="43.6939317" lon="11.30684"><ele>110.0</ele><time>2026-04-19T07:40:43.649Z</time></trkpt><trkpt lat="43.6937767" lon="11.306845"><ele>110.0</ele><time>2026-04-19T07:40:44.645Z</time></trkpt><trkpt lat="43.6936433" lon="11.30697"><ele>110.0</ele><time>2026-04-19T07:40:45.654Z</time></trkpt><trkpt lat="43.6935133" lon="11.3070867"><ele>111.0</ele><time>2026-04-19T07:40:46.658Z</time></trkpt><trkpt lat="43.69336" lon="11.3072567"><ele>112.0</ele><time>2026-04-19T07:40:47.648Z</time></trkpt><trkpt lat="43.6932067" lon="11.307405"><ele>113.0</ele><time>2026-04-19T07:40:48.654Z</time></trkpt><trkpt lat="43.6930533" lon="11.3075783"><ele>113.0</ele><time>2026-04-19T07:40:49.65Z</time></trkpt><trkpt lat="43.6928917" lon="11.3077133"><ele>113.0</ele><time>2026-04-19T07:40:50.65Z</time></trkpt><trkpt lat="43.6927233" lon="11.30785"><ele>113.0</ele><time>2026-04-19T07:40:51.652Z</time></trkpt><trkpt lat="43.6925417" lon="11.3079717"><ele>113.66666666666666</ele><time>2026-04-19T07:40:52.653Z</time></trkpt><trkpt lat="43.69236" lon="11.3080767"><ele>114.33333333333334</ele><time>2026-04-19T07:40:53.651Z</time></trkpt><trkpt lat="43.6921783" lon="11.308175"><ele>115.0</ele><time>2026-04-19T07:40:54.655Z</time></trkpt><trkpt lat="43.692" lon="11.3082733"><ele>114.33333333333334</ele><time>2026-04-19T07:40:55.647Z</time></trkpt><trkpt lat="43.6918333" lon="11.308385"><ele>113.66666666666666</ele><time>2026-04-19T07:40:56.647Z</time></trkpt><trkpt lat="43.6916833" lon="11.30851"><ele>113.0</ele><time>2026-04-19T07:40:57.649Z</time></trkpt><trkpt lat="43.69156" lon="11.308665"><ele>113.0</ele><time>2026-04-19T07:40:58.648Z</time></trkpt><trkpt lat="43.6914317" lon="11.3088117"><ele>113.0</ele><time>2026-04-19T07:40:59.65Z</time></trkpt><trkpt lat="43.6912917" lon="11.3089417"><ele>113.0</ele><time>2026-04-19T07:41:00.653Z</time></trkpt><trkpt lat="43.6911383" lon="11.309055"><ele>114.33333333333333</ele><time>2026-04-19T07:41:01.653Z</time></trkpt><trkpt lat="43.690975" lon="11.30915"><ele>115.66666666666666</ele><time>2026-04-19T07:41:02.646Z</time></trkpt><trkpt lat="43.6908067" lon="11.3092467"><ele>117.0</ele><time>2026-04-19T07:41:03.65Z</time></trkpt><trkpt lat="43.6906433" lon="11.30935"><ele>117.0</ele><time>2026-04-19T07:41:04.655Z</time></trkpt><trkpt lat="43.6904917" lon="11.30949"><ele>117.0</ele><time>2026-04-19T07:41:05.653Z</time></trkpt><trkpt lat="43.690355" lon="11.3096517"><ele>117.0</ele><time>2026-04-19T07:41:06.646Z</time></trkpt><trkpt lat="43.690215" lon="11.30982"><ele>122.0</ele><time>2026-04-19T07:41:07.649Z</time></trkpt><trkpt lat="43.6900683" lon="11.3099783"><ele>127.0</ele><time>2026-04-19T07:41:08.65Z</time></trkpt><trkpt lat="43.6899067" lon="11.3101383"><ele>132.0</ele><time>2026-04-19T07:41:09.652Z</time></trkpt><trkpt lat="43.6897533" lon="11.3102717"><ele>132.0</ele><time>2026-04-19T07:41:10.65Z</time></trkpt><trkpt lat="43.6895933" lon="11.310375"><ele>132.0</ele><time>2026-04-19T07:41:11.65Z</time></trkpt><trkpt lat="43.6894167" lon="11.3104367"><ele>132.0</ele><time>2026-04-19T07:41:12.654Z</time></trkpt><trkpt lat="43.6892533" lon="11.3104867"><ele>134.33333333333334</ele><time>2026-04-19T07:41:13.644Z</time></trkpt><trkpt lat="43.6890583" lon="11.3104817"><ele>136.66666666666669</ele><time>2026-04-19T07:41:14.645Z</time></trkpt><trkpt lat="43.6888767" lon="11.3105133"><ele>139.0</ele><time>2026-04-19T07:41:15.647Z</time></trkpt><trkpt lat="43.6886867" lon="11.3105417"><ele>140.33333333333334</ele><time>2026-04-19T07:41:16.649Z</time></trkpt><trkpt lat="43.68849" lon="11.310565"><ele>141.66666666666666</ele><time>2026-04-19T07:41:17.654Z</time></trkpt><trkpt lat="43.6883" lon="11.3106017"><ele>143.0</ele><time>2026-04-19T07:41:18.649Z</time></trkpt><trkpt lat="43.6881083" lon="11.3106317"><ele>146.33333333333331</ele><time>2026-04-19T07:41:19.648Z</time></trkpt><trkpt lat="43.6879233" lon="11.3106717"><ele>149.66666666666666</ele><time>2026-04-19T07:41:20.651Z</time></trkpt><trkpt lat="43.68773" lon="11.3107167"><ele>153.0</ele><time>2026-04-19T07:41:21.653Z</time></trkpt><trkpt lat="43.687545" lon="11.3107667"><ele>153.0</ele><time>2026-04-19T07:41:22.643Z</time></trkpt><trkpt lat="43.687355" lon="11.3108217"><ele>153.0</ele><time>2026-04-19T07:41:23.654Z</time></trkpt><trkpt lat="43.6871667" lon="11.3108817"><ele>153.0</ele><time>2026-04-19T07:41:24.655Z</time></trkpt><trkpt lat="43.6869733" lon="11.3109417"><ele>152.66666666666666</ele><time>2026-04-19T07:41:25.658Z</time></trkpt><trkpt lat="43.68678" lon="11.311"><ele>152.33333333333331</ele><time>2026-04-19T07:41:26.65Z</time></trkpt><trkpt lat="43.6865917" lon="11.3110583"><ele>152.0</ele><time>2026-04-19T07:41:27.648Z</time></trkpt><trkpt lat="43.6864067" lon="11.3111217"><ele>152.0</ele><time>2026-04-19T07:41:28.65Z</time></trkpt><trkpt lat="43.6862167" lon="11.31118"><ele>152.0</ele><time>2026-04-19T07:41:29.651Z</time></trkpt><trkpt lat="43.6860267" lon="11.3112267"><ele>152.0</ele><time>2026-04-19T07:41:30.651Z</time></trkpt><trkpt lat="43.6858417" lon="11.3112717"><ele>152.33333333333331</ele><time>2026-04-19T07:41:31.655Z</time></trkpt><trkpt lat="43.6856583" lon="11.3113017"><ele>152.66666666666666</ele><time>2026-04-19T07:41:32.654Z</time></trkpt><trkpt lat="43.685475" lon="11.3113167"><ele>153.0</ele><time>2026-04-19T07:41:33.652Z</time></trkpt><trkpt lat="43.6852933" lon="11.311325"><ele>153.66666666666666</ele><time>2026-04-19T07:41:34.654Z</time></trkpt><trkpt lat="43.6851183" lon="11.31133"><ele>154.33333333333331</ele><time>2026-04-19T07:41:35.647Z</time></trkpt><trkpt lat="43.68495" lon="11.3113383"><ele>155.0</ele><time>2026-04-19T07:41:36.647Z</time></trkpt><trkpt lat="43.6847717" lon="11.3113383"><ele>155.0</ele><time>2026-04-19T07:41:37.65Z</time></trkpt><trkpt lat="43.6845933" lon="11.311325"><ele>155.0</ele><time>2026-04-19T07:41:38.648Z</time></trkpt><trkpt lat="43.68441" lon="11.311305"><ele>155.0</ele><time>2026-04-19T07:41:39.647Z</time></trkpt><trkpt lat="43.6842133" lon="11.3112833"><ele>156.66666666666666</ele><time>2026-04-19T07:41:40.651Z</time></trkpt><trkpt lat="43.684015" lon="11.3112667"><ele>158.33333333333334</ele><time>2026-04-19T07:41:41.652Z</time></trkpt><trkpt lat="43.6838083" lon="11.3112483"><ele>160.0</ele><time>2026-04-19T07:41:42.654Z</time></trkpt><trkpt lat="43.6835817" lon="11.311225"><ele>162.0</ele><time>2026-04-19T07:41:43.644Z</time></trkpt><trkpt lat="43.683365" lon="11.3112117"><ele>164.0</ele><time>2026-04-19T07:41:44.653Z</time></trkpt><trkpt lat="43.68315" lon="11.3111967"><ele>166.0</ele><time>2026-04-19T07:41:45.645Z</time></trkpt><trkpt lat="43.6829483" lon="11.3111867"><ele>167.66666666666669</ele><time>2026-04-19T07:41:46.654Z</time></trkpt><trkpt lat="43.6827417" lon="11.3111683"><ele>169.33333333333334</ele><time>2026-04-19T07:41:47.647Z</time></trkpt><trkpt lat="43.6825483" lon="11.311155"><ele>171.0</ele><time>2026-04-19T07:41:48.652Z</time></trkpt><trkpt lat="43.6823533" lon="11.31114"><ele>171.0</ele><time>2026-04-19T07:41:49.647Z</time></trkpt><trkpt lat="43.6821583" lon="11.3111217"><ele>171.0</ele><time>2026-04-19T07:41:50.648Z</time></trkpt><trkpt lat="43.6819717" lon="11.3111083"><ele>171.0</ele><time>2026-04-19T07:41:51.657Z</time></trkpt><trkpt lat="43.6817833" lon="11.3111133"><ele>171.66666666666666</ele><time>2026-04-19T07:41:52.652Z</time></trkpt><trkpt lat="43.6815983" lon="11.3111333"><ele>172.33333333333331</ele><time>2026-04-19T07:41:53.657Z</time></trkpt><trkpt lat="43.681415" lon="11.3111467"><ele>173.0</ele><time>2026-04-19T07:41:54.656Z</time></trkpt><trkpt lat="43.6812283" lon="11.3111533"><ele>175.0</ele><time>2026-04-19T07:41:55.65Z</time></trkpt><trkpt lat="43.6810483" lon="11.3111433"><ele>177.0</ele><time>2026-04-19T07:41:56.656Z</time></trkpt><trkpt lat="43.680865" lon="11.3111083"><ele>179.0</ele><time>2026-04-19T07:41:57.653Z</time></trkpt><trkpt lat="43.680695" lon="11.31104"><ele>179.0</ele><time>2026-04-19T07:41:58.65Z</time></trkpt><trkpt lat="43.680525" lon="11.31096"><ele>179.0</ele><time>2026-04-19T07:41:59.651Z</time></trkpt><trkpt lat="43.680355" lon="11.310875"><ele>179.0</ele><time>2026-04-19T07:42:00.649Z</time></trkpt><trkpt lat="43.680185" lon="11.3107867"><ele>180.66666666666666</ele><time>2026-04-19T07:42:01.653Z</time></trkpt><trkpt lat="43.680025" lon="11.310705"><ele>182.33333333333334</ele><time>2026-04-19T07:42:02.652Z</time></trkpt><trkpt lat="43.6798833" lon="11.3106"><ele>184.0</ele><time>2026-04-19T07:42:03.65Z</time></trkpt><trkpt lat="43.6797417" lon="11.310515"><ele>184.0</ele><time>2026-04-19T07:42:04.653Z</time></trkpt><trkpt lat="43.6795883" lon="11.3104483"><ele>184.0</ele><time>2026-04-19T07:42:05.648Z</time></trkpt><trkpt lat="43.6794417" lon="11.3103967"><ele>184.0</ele><time>2026-04-19T07:42:06.647Z</time></trkpt><trkpt lat="43.6792883" lon="11.31036"><ele>184.0</ele><time>2026-04-19T07:42:07.65Z</time></trkpt><trkpt lat="43.6791383" lon="11.3103717"><ele>184.0</ele><time>2026-04-19T07:42:08.65Z</time></trkpt><trkpt lat="43.6789933" lon="11.3103983"><ele>184.0</ele><time>2026-04-19T07:42:09.652Z</time></trkpt><trkpt lat="43.6788533" lon="11.3104617"><ele>184.0</ele><time>2026-04-19T07:42:10.65Z</time></trkpt><trkpt lat="43.6787067" lon="11.310485"><ele>182.0</ele><time>2026-04-19T07:42:11.652Z</time></trkpt><trkpt lat="43.6785367" lon="11.31056"><ele>180.0</ele><time>2026-04-19T07:42:12.651Z</time></trkpt><trkpt lat="43.6783483" lon="11.310625"><ele>178.0</ele><time>2026-04-19T07:42:13.649Z</time></trkpt><trkpt lat="43.6781933" lon="11.3108067"><ele>180.5</ele><time>2026-04-19T07:42:14.652Z</time></trkpt><trkpt lat="43.678045" lon="11.3109133"><ele>183.0</ele><time>2026-04-19T07:42:15.659Z</time></trkpt><trkpt lat="43.6779183" lon="11.3110167"><ele>185.5</ele><time>2026-04-19T07:42:16.648Z</time></trkpt><trkpt lat="43.6778167" lon="11.31114"><ele>188.0</ele><time>2026-04-19T07:42:17.647Z</time></trkpt><trkpt lat="43.6777017" lon="11.3112717"><ele>188.0</ele><time>2026-04-19T07:42:18.649Z</time></trkpt><trkpt lat="43.6776167" lon="11.311405"><ele>188.0</ele><time>2026-04-19T07:42:19.653Z</time></trkpt><trkpt lat="43.6775117" lon="11.3115217"><ele>188.0</ele><time>2026-04-19T07:42:20.648Z</time></trkpt><trkpt lat="43.6774467" lon="11.3116283"><ele>188.0</ele><time>2026-04-19T07:42:21.652Z</time></trkpt><trkpt lat="43.67736" lon="11.3117417"><ele>189.25</ele><time>2026-04-19T07:42:22.653Z</time></trkpt><trkpt lat="43.677325" lon="11.311875"><ele>190.5</ele><time>2026-04-19T07:42:23.648Z</time></trkpt><trkpt lat="43.67724" lon="11.3120033"><ele>191.75</ele><time>2026-04-19T07:42:24.651Z</time></trkpt><trkpt lat="43.677145" lon="11.31216"><ele>193.0</ele><time>2026-04-19T07:42:25.648Z</time></trkpt><trkpt lat="43.677045" lon="11.31231"><ele>191.66666666666666</ele><time>2026-04-19T07:42:26.646Z</time></trkpt><trkpt lat="43.676945" lon="11.3124817"><ele>190.33333333333331</ele><time>2026-04-19T07:42:27.65Z</time></trkpt><trkpt lat="43.6768383" lon="11.3126883"><ele>189.0</ele><time>2026-04-19T07:42:28.646Z</time></trkpt><trkpt lat="43.6767117" lon="11.3128867"><ele>190.66666666666669</ele><time>2026-04-19T07:42:29.654Z</time></trkpt><trkpt lat="43.6765833" lon="11.3130733"><ele>192.33333333333334</ele><time>2026-04-19T07:42:30.65Z</time></trkpt><trkpt lat="43.6764383" lon="11.3132567"><ele>194.0</ele><time>2026-04-19T07:42:31.653Z</time></trkpt><trkpt lat="43.6763017" lon="11.3134133"><ele>194.0</ele><time>2026-04-19T07:42:32.65Z</time></trkpt><trkpt lat="43.676155" lon="11.313555"><ele>194.0</ele><time>2026-04-19T07:42:33.646Z</time></trkpt><trkpt lat="43.675995" lon="11.3136783"><ele>194.0</ele><time>2026-04-19T07:42:34.651Z</time></trkpt><trkpt lat="43.67584" lon="11.3138133"><ele>195.66666666666669</ele><time>2026-04-19T07:42:35.648Z</time></trkpt><trkpt lat="43.675675" lon="11.31395"><ele>197.33333333333331</ele><time>2026-04-19T07:42:36.648Z</time></trkpt><trkpt lat="43.6755083" lon="11.3141"><ele>199.0</ele><time>2026-04-19T07:42:37.65Z</time></trkpt><trkpt lat="43.6753333" lon="11.3142417"><ele>198.0</ele><time>2026-04-19T07:42:38.648Z</time></trkpt><trkpt lat="43.6751633" lon="11.3143767"><ele>197.0</ele><time>2026-04-19T07:42:39.649Z</time></trkpt><trkpt lat="43.67499" lon="11.3145083"><ele>196.0</ele><time>2026-04-19T07:42:40.657Z</time></trkpt><trkpt lat="43.6748167" lon="11.3146367"><ele>196.0</ele><time>2026-04-19T07:42:41.649Z</time></trkpt><trkpt lat="43.6746467" lon="11.3147617"><ele>196.0</ele><time>2026-04-19T07:42:42.65Z</time></trkpt><trkpt lat="43.6744817" lon="11.31489"><ele>196.0</ele><time>2026-04-19T07:42:43.653Z</time></trkpt><trkpt lat="43.6743167" lon="11.3150267"><ele>196.0</ele><time>2026-04-19T07:42:44.647Z</time></trkpt><trkpt lat="43.6741567" lon="11.3151667"><ele>196.0</ele><time>2026-04-19T07:42:45.654Z</time></trkpt><trkpt lat="43.6739983" lon="11.31532"><ele>196.0</ele><time>2026-04-19T07:42:46.649Z</time></trkpt><trkpt lat="43.6738433" lon="11.3154817"><ele>197.0</ele><time>2026-04-19T07:42:47.647Z</time></trkpt><trkpt lat="43.67368" lon="11.31564"><ele>198.0</ele><time>2026-04-19T07:42:48.648Z</time></trkpt><trkpt lat="43.6735183" lon="11.315795"><ele>199.0</ele><time>2026-04-19T07:42:49.647Z</time></trkpt><trkpt lat="43.673365" lon="11.3159467"><ele>200.66666666666666</ele><time>2026-04-19T07:42:50.652Z</time></trkpt><trkpt lat="43.6732183" lon="11.31611"><ele>202.33333333333331</ele><time>2026-04-19T07:42:51.651Z</time></trkpt><trkpt lat="43.6730683" lon="11.31626"><ele>204.0</ele><time>2026-04-19T07:42:52.652Z</time></trkpt><trkpt lat="43.6729133" lon="11.316405"><ele>206.33333333333331</ele><time>2026-04-19T07:42:53.643Z</time></trkpt><trkpt lat="43.6727683" lon="11.31655"><ele>208.66666666666666</ele><time>2026-04-19T07:42:54.644Z</time></trkpt><trkpt lat="43.672625" lon="11.3166883"><ele>211.0</ele><time>2026-04-19T07:42:55.656Z</time></trkpt><trkpt lat="43.6724817" lon="11.3168333"><ele>211.0</ele><time>2026-04-19T07:42:56.653Z</time></trkpt><trkpt lat="43.6723383" lon="11.3169817"><ele>211.0</ele><time>2026-04-19T07:42:57.65Z</time></trkpt><trkpt lat="43.6721867" lon="11.3171367"><ele>211.0</ele><time>2026-04-19T07:42:58.649Z</time></trkpt><trkpt lat="43.672025" lon="11.317285"><ele>212.33333333333331</ele><time>2026-04-19T07:42:59.654Z</time></trkpt><trkpt lat="43.67187" lon="11.3174317"><ele>213.66666666666669</ele><time>2026-04-19T07:43:00.65Z</time></trkpt><trkpt lat="43.6717133" lon="11.3175833"><ele>215.0</ele><time>2026-04-19T07:43:01.644Z</time></trkpt><trkpt lat="43.671565" lon="11.3177267"><ele>215.0</ele><time>2026-04-19T07:43:02.655Z</time></trkpt><trkpt lat="43.6714317" lon="11.3178617"><ele>215.0</ele><time>2026-04-19T07:43:03.653Z</time></trkpt><trkpt lat="43.6713133" lon="11.3179883"><ele>215.0</ele><time>2026-04-19T07:43:04.652Z</time></trkpt><trkpt lat="43.6712017" lon="11.3181"><ele>215.0</ele><time>2026-04-19T07:43:05.656Z</time></trkpt><trkpt lat="43.671115" lon="11.318185"><ele>215.0</ele><time>2026-04-19T07:43:06.651Z</time></trkpt><trkpt lat="43.6710383" lon="11.3182367"><ele>215.0</ele><time>2026-04-19T07:43:07.648Z</time></trkpt><trkpt lat="43.670955" lon="11.3182783"><ele>215.0</ele><time>2026-04-19T07:43:08.651Z</time></trkpt><trkpt lat="43.6708633" lon="11.318315"><ele>215.0</ele><time>2026-04-19T07:43:09.653Z</time></trkpt><trkpt lat="43.6707517" lon="11.31834"><ele>214.5</ele><time>2026-04-19T07:43:10.647Z</time></trkpt><trkpt lat="43.670635" lon="11.318355"><ele>214.0</ele><time>2026-04-19T07:43:11.649Z</time></trkpt><trkpt lat="43.6705083" lon="11.318345"><ele>213.5</ele><time>2026-04-19T07:43:12.655Z</time></trkpt><trkpt lat="43.670395" lon="11.3183267"><ele>213.0</ele><time>2026-04-19T07:43:13.648Z</time></trkpt><trkpt lat="43.6702383" lon="11.3182833"><ele>210.0</ele><time>2026-04-19T07:43:14.655Z</time></trkpt><trkpt lat="43.6700683" lon="11.3182283"><ele>207.0</ele><time>2026-04-19T07:43:15.647Z</time></trkpt><trkpt lat="43.6699067" lon="11.3181717"><ele>204.0</ele><time>2026-04-19T07:43:16.657Z</time></trkpt><trkpt lat="43.669745" lon="11.3181083"><ele>203.66666666666669</ele><time>2026-04-19T07:43:17.651Z</time></trkpt><trkpt lat="43.6695967" lon="11.3180433"><ele>203.33333333333334</ele><time>2026-04-19T07:43:18.651Z</time></trkpt><trkpt lat="43.6694533" lon="11.31798"><ele>203.0</ele><time>2026-04-19T07:43:19.654Z</time></trkpt><trkpt lat="43.6693133" lon="11.3179167"><ele>203.0</ele><time>2026-04-19T07:43:20.643Z</time></trkpt><trkpt lat="43.6691917" lon="11.317875"><ele>203.0</ele><time>2026-04-19T07:43:21.646Z</time></trkpt><trkpt lat="43.669085" lon="11.3178617"><ele>203.0</ele><time>2026-04-19T07:43:22.651Z</time></trkpt><trkpt lat="43.6689867" lon="11.3178467"><ele>203.0</ele><time>2026-04-19T07:43:23.644Z</time></trkpt><trkpt lat="43.6689183" lon="11.3178533"><ele>203.0</ele><time>2026-04-19T07:43:24.649Z</time></trkpt><trkpt lat="43.6688883" lon="11.3179367"><ele>200.25</ele><time>2026-04-19T07:43:26.648Z</time></trkpt><trkpt lat="43.6690333" lon="11.3181183"><ele>197.5</ele><time>2026-04-19T07:43:28.652Z</time></trkpt><trkpt lat="43.6690467" lon="11.3183033"><ele>194.75</ele><time>2026-04-19T07:43:30.668Z</time></trkpt><trkpt lat="43.6690617" lon="11.3184133"><ele>192.0</ele><time>2026-04-19T07:43:31.649Z</time></trkpt><trkpt lat="43.669015" lon="11.3184967"><ele>192.0</ele><time>2026-04-19T07:43:32.648Z</time></trkpt><trkpt lat="43.668975" lon="11.3185933"><ele>192.0</ele><time>2026-04-19T07:43:33.647Z</time></trkpt><trkpt lat="43.668905" lon="11.31868"><ele>192.0</ele><time>2026-04-19T07:43:34.647Z</time></trkpt><trkpt lat="43.6688067" lon="11.3187617"><ele>192.0</ele><time>2026-04-19T07:43:35.649Z</time></trkpt><trkpt lat="43.6686883" lon="11.3188317"><ele>192.0</ele><time>2026-04-19T07:43:36.647Z</time></trkpt><trkpt lat="43.6686033" lon="11.3189183"><ele>189.5</ele><time>2026-04-19T07:43:37.655Z</time></trkpt><trkpt lat="43.6685183" lon="11.3190033"><ele>187.0</ele><time>2026-04-19T07:43:38.652Z</time></trkpt><trkpt lat="43.6684417" lon="11.3191033"><ele>184.5</ele><time>2026-04-19T07:43:39.649Z</time></trkpt><trkpt lat="43.668365" lon="11.3191817"><ele>182.0</ele><time>2026-04-19T07:43:40.65Z</time></trkpt><trkpt lat="43.6683567" lon="11.31927"><ele>179.5</ele><time>2026-04-19T07:43:41.643Z</time></trkpt><trkpt lat="43.6683667" lon="11.319365"><ele>177.0</ele><time>2026-04-19T07:43:42.653Z</time></trkpt><trkpt lat="43.6683817" lon="11.31947"><ele>177.0</ele><time>2026-04-19T07:43:43.645Z</time></trkpt><trkpt lat="43.6683967" lon="11.3195667"><ele>177.0</ele><time>2026-04-19T07:43:44.648Z</time></trkpt><trkpt lat="43.668375" lon="11.3196717"><ele>177.0</ele><time>2026-04-19T07:43:45.648Z</time></trkpt><trkpt lat="43.668335" lon="11.31977"><ele>177.0</ele><time>2026-04-19T07:43:46.649Z</time></trkpt><trkpt lat="43.66828" lon="11.3198617"><ele>177.0</ele><time>2026-04-19T07:43:47.651Z</time></trkpt><trkpt lat="43.6682017" lon="11.31995"><ele>177.0</ele><time>2026-04-19T07:43:48.649Z</time></trkpt><trkpt lat="43.6681133" lon="11.3200233"><ele>175.6</ele><time>2026-04-19T07:43:49.653Z</time></trkpt><trkpt lat="43.6680133" lon="11.320075"><ele>174.2</ele><time>2026-04-19T07:43:50.654Z</time></trkpt><trkpt lat="43.667905" lon="11.3201133"><ele>172.8</ele><time>2026-04-19T07:43:51.643Z</time></trkpt><trkpt lat="43.6678117" lon="11.320125"><ele>171.4</ele><time>2026-04-19T07:43:52.646Z</time></trkpt><trkpt lat="43.6677183" lon="11.3201117"><ele>170.0</ele><time>2026-04-19T07:43:53.648Z</time></trkpt><trkpt lat="43.6676267" lon="11.320065"><ele>168.2857142857143</ele><time>2026-04-19T07:43:54.646Z</time></trkpt><trkpt lat="43.667555" lon="11.3200367"><ele>166.57142857142856</ele><time>2026-04-19T07:43:55.648Z</time></trkpt><trkpt lat="43.6674867" lon="11.3200017"><ele>164.85714285714286</ele><time>2026-04-19T07:43:56.649Z</time></trkpt><trkpt lat="43.6674133" lon="11.32002"><ele>163.14285714285717</ele><time>2026-04-19T07:43:57.65Z</time></trkpt><trkpt lat="43.66735" lon="11.3200583"><ele>161.42857142857144</ele><time>2026-04-19T07:43:58.651Z</time></trkpt><trkpt lat="43.6672883" lon="11.320105"><ele>159.71428571428572</ele><time>2026-04-19T07:43:59.651Z</time></trkpt><trkpt lat="43.6672333" lon="11.32018"><ele>158.0</ele><time>2026-04-19T07:44:00.652Z</time></trkpt><trkpt lat="43.6671767" lon="11.3202817"><ele>158.0</ele><time>2026-04-19T07:44:01.661Z</time></trkpt><trkpt lat="43.6671017" lon="11.32037"><ele>158.0</ele><time>2026-04-19T07:44:02.647Z</time></trkpt><trkpt lat="43.6670283" lon="11.3204617"><ele>158.0</ele><time>2026-04-19T07:44:03.648Z</time></trkpt><trkpt lat="43.66694" lon="11.3205517"><ele>158.0</ele><time>2026-04-19T07:44:04.646Z</time></trkpt><trkpt lat="43.6668483" lon="11.32062"><ele>158.0</ele><time>2026-04-19T07:44:05.648Z</time></trkpt><trkpt lat="43.6667683" lon="11.3206967"><ele>156.66666666666666</ele><time>2026-04-19T07:44:06.649Z</time></trkpt><trkpt lat="43.6666967" lon="11.3207867"><ele>155.33333333333331</ele><time>2026-04-19T07:44:07.649Z</time></trkpt><trkpt lat="43.66663" lon="11.320875"><ele>154.0</ele><time>2026-04-19T07:44:08.66Z</time></trkpt><trkpt lat="43.6665833" lon="11.3209567"><ele>152.66666666666666</ele><time>2026-04-19T07:44:09.652Z</time></trkpt><trkpt lat="43.6665517" lon="11.32105"><ele>151.33333333333334</ele><time>2026-04-19T07:44:10.65Z</time></trkpt><trkpt lat="43.6665583" lon="11.3211567"><ele>150.0</ele><time>2026-04-19T07:44:11.643Z</time></trkpt><trkpt lat="43.66655" lon="11.3212517"><ele>150.0</ele><time>2026-04-19T07:44:12.653Z</time></trkpt><trkpt lat="43.6665333" lon="11.3213617"><ele>150.0</ele><time>2026-04-19T07:44:13.656Z</time></trkpt><trkpt lat="43.6665017" lon="11.321495"><ele>150.0</ele><time>2026-04-19T07:44:15.654Z</time></trkpt><trkpt lat="43.6664783" lon="11.32139"><ele>150.0</ele><time>2026-04-19T07:44:20.648Z</time></trkpt><trkpt lat="43.6664783" lon="11.3212617"><ele>150.0</ele><time>2026-04-19T07:44:21.646Z</time></trkpt><trkpt lat="43.6664533" lon="11.321175"><ele>150.0</ele><time>2026-04-19T07:44:22.648Z</time></trkpt><trkpt lat="43.6664283" lon="11.3210633"><ele>150.0</ele><time>2026-04-19T07:44:23.659Z</time></trkpt><trkpt lat="43.6664" lon="11.3209167"><ele>150.0</ele><time>2026-04-19T07:44:24.65Z</time></trkpt><trkpt lat="43.6663717" lon="11.3207667"><ele>150.0</ele><time>2026-04-19T07:44:25.648Z</time></trkpt><trkpt lat="43.666365" lon="11.3204633"><ele>150.0</ele><time>2026-04-19T07:44:26.651Z</time></trkpt><trkpt lat="43.6663267" lon="11.32026"><ele>150.0</ele><time>2026-04-19T07:44:27.655Z</time></trkpt><trkpt lat="43.6662867" lon="11.3200367"><ele>150.0</ele><time>2026-04-19T07:44:28.645Z</time></trkpt><trkpt lat="43.6662433" lon="11.319825"><ele>150.0</ele><time>2026-04-19T07:44:29.653Z</time></trkpt><trkpt lat="43.6661967" lon="11.3195883"><ele>150.66666666666666</ele><time>2026-04-19T07:44:30.66Z</time></trkpt><trkpt lat="43.6661467" lon="11.319355"><ele>151.33333333333331</ele><time>2026-04-19T07:44:31.657Z</time></trkpt><trkpt lat="43.666095" lon="11.319115"><ele>152.0</ele><time>2026-04-19T07:44:32.647Z</time></trkpt><trkpt lat="43.6660433" lon="11.3188783"><ele>150.0</ele><time>2026-04-19T07:44:33.659Z</time></trkpt><trkpt lat="43.6659933" lon="11.3186333"><ele>148.0</ele><time>2026-04-19T07:44:34.649Z</time></trkpt><trkpt lat="43.66594" lon="11.31839"><ele>146.0</ele><time>2026-04-19T07:44:35.651Z</time></trkpt><trkpt lat="43.66589" lon="11.31814"><ele>146.33333333333331</ele><time>2026-04-19T07:44:36.648Z</time></trkpt><trkpt lat="43.665835" lon="11.3178883"><ele>146.66666666666666</ele><time>2026-04-19T07:44:37.65Z</time></trkpt><trkpt lat="43.6657783" lon="11.3176333"><ele>147.0</ele><time>2026-04-19T07:44:38.65Z</time></trkpt><trkpt lat="43.6657317" lon="11.31734"><ele>146.66666666666666</ele><time>2026-04-19T07:44:39.655Z</time></trkpt><trkpt lat="43.6656883" lon="11.3170833"><ele>146.33333333333331</ele><time>2026-04-19T07:44:40.653Z</time></trkpt><trkpt lat="43.66564" lon="11.31682"><ele>146.0</ele><time>2026-04-19T07:44:41.649Z</time></trkpt><trkpt lat="43.6655883" lon="11.3165517"><ele>146.0</ele><time>2026-04-19T07:44:42.653Z</time></trkpt><trkpt lat="43.6655283" lon="11.3163033"><ele>146.0</ele><time>2026-04-19T07:44:43.644Z</time></trkpt><trkpt lat="43.665475" lon="11.3160617"><ele>146.0</ele><time>2026-04-19T07:44:44.649Z</time></trkpt><trkpt lat="43.6654183" lon="11.3158267"><ele>146.0</ele><time>2026-04-19T07:44:45.65Z</time></trkpt><trkpt lat="43.6653683" lon="11.315595"><ele>146.0</ele><time>2026-04-19T07:44:46.647Z</time></trkpt><trkpt lat="43.66532" lon="11.3153733"><ele>146.0</ele><time>2026-04-19T07:44:47.654Z</time></trkpt><trkpt lat="43.665255" lon="11.3151533"><ele>144.33333333333331</ele><time>2026-04-19T07:44:48.653Z</time></trkpt><trkpt lat="43.665185" lon="11.3149433"><ele>142.66666666666666</ele><time>2026-04-19T07:44:49.65Z</time></trkpt><trkpt lat="43.6651" lon="11.314755"><ele>141.0</ele><time>2026-04-19T07:44:50.65Z</time></trkpt><trkpt lat="43.6649983" lon="11.3146167"><ele>140.75</ele><time>2026-04-19T07:44:51.652Z</time></trkpt><trkpt lat="43.66487" lon="11.314515"><ele>140.5</ele><time>2026-04-19T07:44:52.653Z</time></trkpt><trkpt lat="43.6647367" lon="11.3144417"><ele>140.25</ele><time>2026-04-19T07:44:53.648Z</time></trkpt><trkpt lat="43.6646" lon="11.3144167"><ele>140.0</ele><time>2026-04-19T07:44:54.648Z</time></trkpt><trkpt lat="43.6644767" lon="11.3143817"><ele>141.0</ele><time>2026-04-19T07:44:55.65Z</time></trkpt><trkpt lat="43.6643417" lon="11.3143517"><ele>142.0</ele><time>2026-04-19T07:44:56.656Z</time></trkpt><trkpt lat="43.6641917" lon="11.3143267"><ele>143.0</ele><time>2026-04-19T07:44:57.656Z</time></trkpt><trkpt lat="43.66403" lon="11.3143267"><ele>144.0</ele><time>2026-04-19T07:44:58.651Z</time></trkpt><trkpt lat="43.6638683" lon="11.3143233"><ele>144.0</ele><time>2026-04-19T07:44:59.654Z</time></trkpt><trkpt lat="43.6637083" lon="11.31435"><ele>144.0</ele><time>2026-04-19T07:45:00.646Z</time></trkpt><trkpt lat="43.6635517" lon="11.3144083"><ele>144.0</ele><time>2026-04-19T07:45:01.652Z</time></trkpt><trkpt lat="43.663405" lon="11.3144867"><ele>146.33333333333334</ele><time>2026-04-19T07:45:02.647Z</time></trkpt><trkpt lat="43.6632417" lon="11.3145933"><ele>148.66666666666669</ele><time>2026-04-19T07:45:03.65Z</time></trkpt><trkpt lat="43.6630817" lon="11.3146717"><ele>151.0</ele><time>2026-04-19T07:45:04.654Z</time></trkpt><trkpt lat="43.6629233" lon="11.314725"><ele>150.0</ele><time>2026-04-19T07:45:05.651Z</time></trkpt><trkpt lat="43.66276" lon="11.3147667"><ele>149.0</ele><time>2026-04-19T07:45:06.65Z</time></trkpt><trkpt lat="43.6625983" lon="11.31475"><ele>148.0</ele><time>2026-04-19T07:45:07.651Z</time></trkpt><trkpt lat="43.6624433" lon="11.314685"><ele>150.66666666666669</ele><time>2026-04-19T07:45:08.649Z</time></trkpt><trkpt lat="43.6622767" lon="11.3145583"><ele>153.33333333333334</ele><time>2026-04-19T07:45:09.649Z</time></trkpt><trkpt lat="43.66209" lon="11.3144167"><ele>156.0</ele><time>2026-04-19T07:45:10.654Z</time></trkpt><trkpt lat="43.6619083" lon="11.3142917"><ele>156.0</ele><time>2026-04-19T07:45:11.644Z</time></trkpt><trkpt lat="43.6617217" lon="11.31419"><ele>156.0</ele><time>2026-04-19T07:45:12.647Z</time></trkpt><trkpt lat="43.661535" lon="11.3140983"><ele>156.0</ele><time>2026-04-19T07:45:13.651Z</time></trkpt><trkpt lat="43.6613467" lon="11.3140017"><ele>156.0</ele><time>2026-04-19T07:45:14.659Z</time></trkpt><trkpt lat="43.66116" lon="11.3139133"><ele>156.0</ele><time>2026-04-19T07:45:15.648Z</time></trkpt><trkpt lat="43.6609683" lon="11.31384"><ele>156.0</ele><time>2026-04-19T07:45:16.647Z</time></trkpt><trkpt lat="43.6607817" lon="11.31379"><ele>162.0</ele><time>2026-04-19T07:45:17.65Z</time></trkpt><trkpt lat="43.660595" lon="11.31376"><ele>168.0</ele><time>2026-04-19T07:45:18.654Z</time></trkpt><trkpt lat="43.6604017" lon="11.3137433"><ele>174.0</ele><time>2026-04-19T07:45:19.651Z</time></trkpt><trkpt lat="43.6602217" lon="11.313735"><ele>174.0</ele><time>2026-04-19T07:45:20.653Z</time></trkpt><trkpt lat="43.6600483" lon="11.3137067"><ele>174.0</ele><time>2026-04-19T07:45:21.654Z</time></trkpt><trkpt lat="43.65989" lon="11.3136583"><ele>174.0</ele><time>2026-04-19T07:45:22.65Z</time></trkpt><trkpt lat="43.65972" lon="11.3135717"><ele>174.0</ele><time>2026-04-19T07:45:23.651Z</time></trkpt><trkpt lat="43.6595583" lon="11.31347"><ele>174.0</ele><time>2026-04-19T07:45:24.656Z</time></trkpt><trkpt lat="43.6593967" lon="11.31336"><ele>174.0</ele><time>2026-04-19T07:45:25.649Z</time></trkpt><trkpt lat="43.6592433" lon="11.3132267"><ele>176.0</ele><time>2026-04-19T07:45:26.648Z</time></trkpt><trkpt lat="43.6590983" lon="11.3130717"><ele>178.0</ele><time>2026-04-19T07:45:27.653Z</time></trkpt><trkpt lat="43.6589583" lon="11.3129"><ele>180.0</ele><time>2026-04-19T07:45:28.653Z</time></trkpt><trkpt lat="43.6588267" lon="11.312705"><ele>180.0</ele><time>2026-04-19T07:45:29.643Z</time></trkpt><trkpt lat="43.658695" lon="11.31251"><ele>180.0</ele><time>2026-04-19T07:45:30.643Z</time></trkpt><trkpt lat="43.65856" lon="11.3123083"><ele>180.0</ele><time>2026-04-19T07:45:31.646Z</time></trkpt><trkpt lat="43.6584283" lon="11.3121083"><ele>181.0</ele><time>2026-04-19T07:45:32.648Z</time></trkpt><trkpt lat="43.6582967" lon="11.3119083"><ele>182.0</ele><time>2026-04-19T07:45:33.652Z</time></trkpt><trkpt lat="43.6581667" lon="11.3117067"><ele>183.0</ele><time>2026-04-19T07:45:34.652Z</time></trkpt><trkpt lat="43.65805" lon="11.3115183"><ele>186.66666666666669</ele><time>2026-04-19T07:45:35.653Z</time></trkpt><trkpt lat="43.657955" lon="11.31132"><ele>190.33333333333334</ele><time>2026-04-19T07:45:36.649Z</time></trkpt><trkpt lat="43.6578883" lon="11.3111167"><ele>194.0</ele><time>2026-04-19T07:45:37.651Z</time></trkpt><trkpt lat="43.6578383" lon="11.3108917"><ele>194.0</ele><time>2026-04-19T07:45:38.646Z</time></trkpt><trkpt lat="43.6578" lon="11.310665"><ele>194.0</ele><time>2026-04-19T07:45:39.651Z</time></trkpt><trkpt lat="43.657755" lon="11.3104567"><ele>194.0</ele><time>2026-04-19T07:45:40.646Z</time></trkpt><trkpt lat="43.6576917" lon="11.3102617"><ele>194.0</ele><time>2026-04-19T07:45:41.651Z</time></trkpt><trkpt lat="43.6576217" lon="11.3100933"><ele>194.0</ele><time>2026-04-19T07:45:42.646Z</time></trkpt><trkpt lat="43.65752" lon="11.3099867"><ele>194.0</ele><time>2026-04-19T07:45:43.647Z</time></trkpt><trkpt lat="43.657395" lon="11.30992"><ele>194.0</ele><time>2026-04-19T07:45:44.645Z</time></trkpt><trkpt lat="43.6572333" lon="11.3098883"><ele>194.0</ele><time>2026-04-19T07:45:45.652Z</time></trkpt><trkpt lat="43.65708" lon="11.309825"><ele>194.0</ele><time>2026-04-19T07:45:46.652Z</time></trkpt><trkpt lat="43.6569167" lon="11.309735"><ele>194.0</ele><time>2026-04-19T07:45:47.655Z</time></trkpt><trkpt lat="43.6567683" lon="11.30962"><ele>197.33333333333334</ele><time>2026-04-19T07:45:48.649Z</time></trkpt><trkpt lat="43.6566233" lon="11.309505"><ele>200.66666666666669</ele><time>2026-04-19T07:45:49.65Z</time></trkpt><trkpt lat="43.6564617" lon="11.3093667"><ele>204.0</ele><time>2026-04-19T07:45:50.647Z</time></trkpt><trkpt lat="43.6562933" lon="11.309235"><ele>204.0</ele><time>2026-04-19T07:45:51.647Z</time></trkpt><trkpt lat="43.6561217" lon="11.30912"><ele>204.0</ele><time>2026-04-19T07:45:52.644Z</time></trkpt><trkpt lat="43.6559417" lon="11.3090183"><ele>204.0</ele><time>2026-04-19T07:45:53.649Z</time></trkpt><trkpt lat="43.65575" lon="11.3089233"><ele>206.0</ele><time>2026-04-19T07:45:54.651Z</time></trkpt><trkpt lat="43.655565" lon="11.308845"><ele>208.0</ele><time>2026-04-19T07:45:55.649Z</time></trkpt><trkpt lat="43.6553733" lon="11.308765"><ele>210.0</ele><time>2026-04-19T07:45:56.657Z</time></trkpt><trkpt lat="43.6551883" lon="11.3086833"><ele>210.0</ele><time>2026-04-19T07:45:57.65Z</time></trkpt><trkpt lat="43.6550083" lon="11.30861"><ele>210.0</ele><time>2026-04-19T07:45:58.657Z</time></trkpt><trkpt lat="43.6548283" lon="11.3085467"><ele>210.0</ele><time>2026-04-19T07:45:59.655Z</time></trkpt><trkpt lat="43.65465" lon="11.3084833"><ele>210.0</ele><time>2026-04-19T07:46:00.656Z</time></trkpt><trkpt lat="43.65447" lon="11.3084117"><ele>210.0</ele><time>2026-04-19T07:46:01.648Z</time></trkpt><trkpt lat="43.654285" lon="11.30834"><ele>210.0</ele><time>2026-04-19T07:46:02.646Z</time></trkpt><trkpt lat="43.6541" lon="11.3082717"><ele>209.66666666666669</ele><time>2026-04-19T07:46:03.647Z</time></trkpt><trkpt lat="43.653915" lon="11.3082117"><ele>209.33333333333334</ele><time>2026-04-19T07:46:04.65Z</time></trkpt><trkpt lat="43.6537317" lon="11.3081667"><ele>209.0</ele><time>2026-04-19T07:46:05.649Z</time></trkpt><trkpt lat="43.653565" lon="11.3081267"><ele>209.75</ele><time>2026-04-19T07:46:06.647Z</time></trkpt><trkpt lat="43.6534017" lon="11.30809"><ele>210.5</ele><time>2026-04-19T07:46:07.646Z</time></trkpt><trkpt lat="43.6532633" lon="11.3080683"><ele>211.25</ele><time>2026-04-19T07:46:08.648Z</time></trkpt><trkpt lat="43.6531483" lon="11.3080533"><ele>212.0</ele><time>2026-04-19T07:46:09.652Z</time></trkpt><trkpt lat="43.6530417" lon="11.3080317"><ele>212.16666666666669</ele><time>2026-04-19T07:46:10.645Z</time></trkpt><trkpt lat="43.6529583" lon="11.308005"><ele>212.33333333333334</ele><time>2026-04-19T07:46:11.648Z</time></trkpt><trkpt lat="43.6528767" lon="11.3079917"><ele>212.5</ele><time>2026-04-19T07:46:13.646Z</time></trkpt><trkpt lat="43.6527817" lon="11.30802"><ele>212.66666666666669</ele><time>2026-04-19T07:46:19.653Z</time></trkpt><trkpt lat="43.6527233" lon="11.3080533"><ele>212.83333333333334</ele><time>2026-04-19T07:46:20.652Z</time></trkpt><trkpt lat="43.6526433" lon="11.3080967"><ele>213.0</ele><time>2026-04-19T07:46:21.649Z</time></trkpt><trkpt lat="43.6525467" lon="11.3081317"><ele>213.16666666666666</ele><time>2026-04-19T07:46:22.649Z</time></trkpt><trkpt lat="43.6524667" lon="11.3081533"><ele>213.33333333333331</ele><time>2026-04-19T07:46:23.649Z</time></trkpt><trkpt lat="43.6523967" lon="11.30816"><ele>213.5</ele><time>2026-04-19T07:46:24.65Z</time></trkpt><trkpt lat="43.65229" lon="11.3081517"><ele>213.66666666666666</ele><time>2026-04-19T07:46:26.651Z</time></trkpt><trkpt lat="43.652215" lon="11.3081183"><ele>213.83333333333331</ele><time>2026-04-19T07:46:30.65Z</time></trkpt><trkpt lat="43.6521233" lon="11.3081683"><ele>214.0</ele><time>2026-04-19T07:46:33.649Z</time></trkpt><trkpt lat="43.6520217" lon="11.3082567"><ele>214.0</ele><time>2026-04-19T07:46:35.652Z</time></trkpt><trkpt lat="43.6519583" lon="11.3083383"><ele>214.0</ele><time>2026-04-19T07:46:36.651Z</time></trkpt><trkpt lat="43.6518833" lon="11.3084567"><ele>214.0</ele><time>2026-04-19T07:46:37.653Z</time></trkpt><trkpt lat="43.6517917" lon="11.3086"><ele>214.0</ele><time>2026-04-19T07:46:38.652Z</time></trkpt><trkpt lat="43.6516717" lon="11.3088"><ele>214.33333333333331</ele><time>2026-04-19T07:46:39.652Z</time></trkpt><trkpt lat="43.6515367" lon="11.3089917"><ele>214.66666666666669</ele><time>2026-04-19T07:46:40.653Z</time></trkpt><trkpt lat="43.6513933" lon="11.3091667"><ele>215.0</ele><time>2026-04-19T07:46:41.644Z</time></trkpt><trkpt lat="43.6512417" lon="11.3093383"><ele>216.0</ele><time>2026-04-19T07:46:42.645Z</time></trkpt><trkpt lat="43.6510883" lon="11.3094933"><ele>217.0</ele><time>2026-04-19T07:46:43.647Z</time></trkpt><trkpt lat="43.650925" lon="11.309645"><ele>218.0</ele><time>2026-04-19T07:46:44.65Z</time></trkpt><trkpt lat="43.6507567" lon="11.309795"><ele>218.66666666666669</ele><time>2026-04-19T07:46:45.661Z</time></trkpt><trkpt lat="43.6505883" lon="11.3099417"><ele>219.33333333333331</ele><time>2026-04-19T07:46:46.651Z</time></trkpt><trkpt lat="43.6504167" lon="11.3100833"><ele>220.0</ele><time>2026-04-19T07:46:47.652Z</time></trkpt><trkpt lat="43.6502483" lon="11.3102267"><ele>220.66666666666666</ele><time>2026-04-19T07:46:48.643Z</time></trkpt><trkpt lat="43.6500833" lon="11.3103717"><ele>221.33333333333331</ele><time>2026-04-19T07:46:49.643Z</time></trkpt><trkpt lat="43.6499217" lon="11.310515"><ele>222.0</ele><time>2026-04-19T07:46:50.652Z</time></trkpt><trkpt lat="43.649765" lon="11.3106533"><ele>223.33333333333331</ele><time>2026-04-19T07:46:51.647Z</time></trkpt><trkpt lat="43.6496017" lon="11.3107783"><ele>224.66666666666666</ele><time>2026-04-19T07:46:52.659Z</time></trkpt><trkpt lat="43.6494233" lon="11.3108767"><ele>226.0</ele><time>2026-04-19T07:46:53.65Z</time></trkpt><trkpt lat="43.6492467" lon="11.3109583"><ele>226.66666666666666</ele><time>2026-04-19T07:46:54.651Z</time></trkpt><trkpt lat="43.64907" lon="11.3110283"><ele>227.33333333333331</ele><time>2026-04-19T07:46:55.654Z</time></trkpt><trkpt lat="43.648885" lon="11.3110783"><ele>228.0</ele><time>2026-04-19T07:46:56.652Z</time></trkpt><trkpt lat="43.6486917" lon="11.3111267"><ele>229.33333333333331</ele><time>2026-04-19T07:46:57.649Z</time></trkpt><trkpt lat="43.6484983" lon="11.3111833"><ele>230.66666666666666</ele><time>2026-04-19T07:46:58.643Z</time></trkpt><trkpt lat="43.6483033" lon="11.311235"><ele>232.0</ele><time>2026-04-19T07:46:59.645Z</time></trkpt><trkpt lat="43.64811" lon="11.31128"><ele>232.0</ele><time>2026-04-19T07:47:00.644Z</time></trkpt><trkpt lat="43.6479183" lon="11.3113033"><ele>232.0</ele><time>2026-04-19T07:47:01.654Z</time></trkpt><trkpt lat="43.647715" lon="11.311345"><ele>232.0</ele><time>2026-04-19T07:47:02.65Z</time></trkpt><trkpt lat="43.6475167" lon="11.3113983"><ele>236.33333333333331</ele><time>2026-04-19T07:47:03.649Z</time></trkpt><trkpt lat="43.6473133" lon="11.311455"><ele>240.66666666666669</ele><time>2026-04-19T07:47:04.651Z</time></trkpt><trkpt lat="43.6471117" lon="11.311525"><ele>245.0</ele><time>2026-04-19T07:47:05.652Z</time></trkpt><trkpt lat="43.6469083" lon="11.3116017"><ele>245.0</ele><time>2026-04-19T07:47:06.649Z</time></trkpt><trkpt lat="43.6467017" lon="11.311675"><ele>245.0</ele><time>2026-04-19T07:47:07.651Z</time></trkpt><trkpt lat="43.646495" lon="11.311745"><ele>245.0</ele><time>2026-04-19T07:47:08.652Z</time></trkpt><trkpt lat="43.6462883" lon="11.311835"><ele>244.33333333333334</ele><time>2026-04-19T07:47:09.644Z</time></trkpt><trkpt lat="43.646085" lon="11.3119267"><ele>243.66666666666669</ele><time>2026-04-19T07:47:10.645Z</time></trkpt><trkpt lat="43.6458883" lon="11.3120183"><ele>243.0</ele><time>2026-04-19T07:47:11.648Z</time></trkpt><trkpt lat="43.6456983" lon="11.31211"><ele>243.0</ele><time>2026-04-19T07:47:12.65Z</time></trkpt><trkpt lat="43.645505" lon="11.3122017"><ele>243.0</ele><time>2026-04-19T07:47:13.652Z</time></trkpt><trkpt lat="43.6453017" lon="11.3122667"><ele>243.0</ele><time>2026-04-19T07:47:14.654Z</time></trkpt><trkpt lat="43.6450883" lon="11.312285"><ele>245.5</ele><time>2026-04-19T07:47:15.655Z</time></trkpt><trkpt lat="43.6448567" lon="11.3122917"><ele>248.0</ele><time>2026-04-19T07:47:16.648Z</time></trkpt><trkpt lat="43.6446383" lon="11.31233"><ele>249.66666666666669</ele><time>2026-04-19T07:47:17.644Z</time></trkpt><trkpt lat="43.644425" lon="11.31237"><ele>251.33333333333331</ele><time>2026-04-19T07:47:18.649Z</time></trkpt><trkpt lat="43.6442017" lon="11.3124083"><ele>253.0</ele><time>2026-04-19T07:47:19.65Z</time></trkpt><trkpt lat="43.6439817" lon="11.312445"><ele>253.0</ele><time>2026-04-19T07:47:20.648Z</time></trkpt><trkpt lat="43.6437717" lon="11.3124733"><ele>253.0</ele><time>2026-04-19T07:47:21.647Z</time></trkpt><trkpt lat="43.6435517" lon="11.3125017"><ele>253.0</ele><time>2026-04-19T07:47:22.647Z</time></trkpt><trkpt lat="43.64333" lon="11.31254"><ele>253.33333333333331</ele><time>2026-04-19T07:47:23.647Z</time></trkpt><trkpt lat="43.6431067" lon="11.312585"><ele>253.66666666666669</ele><time>2026-04-19T07:47:24.65Z</time></trkpt><trkpt lat="43.6428883" lon="11.31261"><ele>254.0</ele><time>2026-04-19T07:47:25.647Z</time></trkpt><trkpt lat="43.642665" lon="11.3126383"><ele>256.5</ele><time>2026-04-19T07:47:26.652Z</time></trkpt><trkpt lat="43.6424367" lon="11.312675"><ele>259.0</ele><time>2026-04-19T07:47:27.651Z</time></trkpt><trkpt lat="43.6422" lon="11.31271"><ele>259.0</ele><time>2026-04-19T07:47:28.648Z</time></trkpt><trkpt lat="43.6419683" lon="11.3127433"><ele>259.0</ele><time>2026-04-19T07:47:29.644Z</time></trkpt><trkpt lat="43.6417383" lon="11.3127867"><ele>261.3333333333333</ele><time>2026-04-19T07:47:30.647Z</time></trkpt><trkpt lat="43.641515" lon="11.3128283"><ele>263.6666666666667</ele><time>2026-04-19T07:47:31.648Z</time></trkpt><trkpt lat="43.6412983" lon="11.3128833"><ele>266.0</ele><time>2026-04-19T07:47:32.652Z</time></trkpt><trkpt lat="43.6410817" lon="11.3129417"><ele>267.33333333333337</ele><time>2026-04-19T07:47:33.652Z</time></trkpt><trkpt lat="43.6408667" lon="11.3130167"><ele>268.6666666666667</ele><time>2026-04-19T07:47:34.647Z</time></trkpt><trkpt lat="43.64066" lon="11.3131333"><ele>270.0</ele><time>2026-04-19T07:47:35.65Z</time></trkpt><trkpt lat="43.6404533" lon="11.31324"><ele>272.6666666666667</ele><time>2026-04-19T07:47:36.647Z</time></trkpt><trkpt lat="43.6402483" lon="11.31332"><ele>275.33333333333337</ele><time>2026-04-19T07:47:37.65Z</time></trkpt><trkpt lat="43.6400417" lon="11.31337"><ele>278.0</ele><time>2026-04-19T07:47:38.645Z</time></trkpt><trkpt lat="43.6398367" lon="11.3133983"><ele>278.0</ele><time>2026-04-19T07:47:39.646Z</time></trkpt><trkpt lat="43.6396317" lon="11.3134233"><ele>278.0</ele><time>2026-04-19T07:47:40.647Z</time></trkpt><trkpt lat="43.639435" lon="11.3134533"><ele>278.0</ele><time>2026-04-19T07:47:41.649Z</time></trkpt><trkpt lat="43.6392367" lon="11.3134817"><ele>277.6666666666667</ele><time>2026-04-19T07:47:42.649Z</time></trkpt><trkpt lat="43.6390467" lon="11.31352"><ele>277.3333333333333</ele><time>2026-04-19T07:47:43.649Z</time></trkpt><trkpt lat="43.6388667" lon="11.3135733"><ele>277.0</ele><time>2026-04-19T07:47:44.647Z</time></trkpt><trkpt lat="43.6386867" lon="11.3136383"><ele>275.3333333333333</ele><time>2026-04-19T07:47:45.651Z</time></trkpt><trkpt lat="43.6385083" lon="11.313735"><ele>273.6666666666667</ele><time>2026-04-19T07:47:46.655Z</time></trkpt><trkpt lat="43.638325" lon="11.3138267"><ele>272.0</ele><time>2026-04-19T07:47:47.651Z</time></trkpt><trkpt lat="43.6381467" lon="11.313905"><ele>275.6666666666667</ele><time>2026-04-19T07:47:48.655Z</time></trkpt><trkpt lat="43.6379717" lon="11.3139617"><ele>279.3333333333333</ele><time>2026-04-19T07:47:49.654Z</time></trkpt><trkpt lat="43.6377967" lon="11.3140033"><ele>283.0</ele><time>2026-04-19T07:47:50.647Z</time></trkpt><trkpt lat="43.6376217" lon="11.31404"><ele>284.66666666666663</ele><time>2026-04-19T07:47:51.648Z</time></trkpt><trkpt lat="43.6374583" lon="11.3140683"><ele>286.3333333333333</ele><time>2026-04-19T07:47:52.647Z</time></trkpt><trkpt lat="43.63729" lon="11.3140717"><ele>288.0</ele><time>2026-04-19T07:47:53.653Z</time></trkpt><trkpt lat="43.6371283" lon="11.3140683"><ele>290.6666666666667</ele><time>2026-04-19T07:47:54.649Z</time></trkpt><trkpt lat="43.636965" lon="11.3140367"><ele>293.33333333333337</ele><time>2026-04-19T07:47:55.647Z</time></trkpt><trkpt lat="43.636805" lon="11.3139833"><ele>296.0</ele><time>2026-04-19T07:47:56.652Z</time></trkpt><trkpt lat="43.636645" lon="11.3139083"><ele>294.0</ele><time>2026-04-19T07:47:57.644Z</time></trkpt><trkpt lat="43.6364867" lon="11.313825"><ele>292.0</ele><time>2026-04-19T07:47:58.643Z</time></trkpt><trkpt lat="43.6363267" lon="11.3137317"><ele>290.0</ele><time>2026-04-19T07:47:59.645Z</time></trkpt><trkpt lat="43.6361533" lon="11.3136433"><ele>293.33333333333337</ele><time>2026-04-19T07:48:00.647Z</time></trkpt><trkpt lat="43.6359817" lon="11.3135617"><ele>296.6666666666667</ele><time>2026-04-19T07:48:01.648Z</time></trkpt><trkpt lat="43.635805" lon="11.3134817"><ele>300.0</ele><time>2026-04-19T07:48:02.651Z</time></trkpt><trkpt lat="43.63562" lon="11.313425"><ele>300.0</ele><time>2026-04-19T07:48:03.65Z</time></trkpt><trkpt lat="43.6354417" lon="11.3133867"><ele>300.0</ele><time>2026-04-19T07:48:04.65Z</time></trkpt><trkpt lat="43.6352633" lon="11.313375"><ele>300.0</ele><time>2026-04-19T07:48:05.652Z</time></trkpt><trkpt lat="43.63508" lon="11.3133867"><ele>300.0</ele><time>2026-04-19T07:48:06.646Z</time></trkpt><trkpt lat="43.6349017" lon="11.3134233"><ele>300.0</ele><time>2026-04-19T07:48:07.652Z</time></trkpt><trkpt lat="43.634715" lon="11.313495"><ele>300.0</ele><time>2026-04-19T07:48:08.652Z</time></trkpt><trkpt lat="43.6345317" lon="11.313625"><ele>298.3333333333333</ele><time>2026-04-19T07:48:09.653Z</time></trkpt><trkpt lat="43.6343533" lon="11.3137467"><ele>296.66666666666663</ele><time>2026-04-19T07:48:10.647Z</time></trkpt><trkpt lat="43.6341583" lon="11.313825"><ele>295.0</ele><time>2026-04-19T07:48:11.649Z</time></trkpt><trkpt lat="43.63397" lon="11.3138817"><ele>295.0</ele><time>2026-04-19T07:48:12.646Z</time></trkpt><trkpt lat="43.6337983" lon="11.3138933"><ele>295.0</ele><time>2026-04-19T07:48:13.649Z</time></trkpt><trkpt lat="43.6336317" lon="11.3138733"><ele>295.0</ele><time>2026-04-19T07:48:14.651Z</time></trkpt><trkpt lat="43.6334667" lon="11.313835"><ele>297.66666666666663</ele><time>2026-04-19T07:48:15.652Z</time></trkpt><trkpt lat="43.63331" lon="11.3138333"><ele>300.3333333333333</ele><time>2026-04-19T07:48:16.649Z</time></trkpt><trkpt lat="43.633135" lon="11.3138483"><ele>303.0</ele><time>2026-04-19T07:48:17.656Z</time></trkpt><trkpt lat="43.6329617" lon="11.3138667"><ele>304.3333333333333</ele><time>2026-04-19T07:48:18.646Z</time></trkpt><trkpt lat="43.6327867" lon="11.3138767"><ele>305.66666666666663</ele><time>2026-04-19T07:48:19.651Z</time></trkpt><trkpt lat="43.6326017" lon="11.3138417"><ele>307.0</ele><time>2026-04-19T07:48:20.646Z</time></trkpt><trkpt lat="43.6324183" lon="11.3137517"><ele>307.0</ele><time>2026-04-19T07:48:21.651Z</time></trkpt><trkpt lat="43.6322467" lon="11.313625"><ele>307.0</ele><time>2026-04-19T07:48:22.653Z</time></trkpt><trkpt lat="43.6320583" lon="11.313495"><ele>307.0</ele><time>2026-04-19T07:48:23.652Z</time></trkpt><trkpt lat="43.6318633" lon="11.313385"><ele>306.66666666666663</ele><time>2026-04-19T07:48:24.653Z</time></trkpt><trkpt lat="43.6316617" lon="11.3132683"><ele>306.3333333333333</ele><time>2026-04-19T07:48:25.651Z</time></trkpt><trkpt lat="43.6314633" lon="11.3131483"><ele>306.0</ele><time>2026-04-19T07:48:26.65Z</time></trkpt><trkpt lat="43.6312817" lon="11.313015"><ele>311.0</ele><time>2026-04-19T07:48:27.655Z</time></trkpt><trkpt lat="43.6311167" lon="11.312875"><ele>316.0</ele><time>2026-04-19T07:48:28.646Z</time></trkpt><trkpt lat="43.63095" lon="11.3127383"><ele>321.0</ele><time>2026-04-19T07:48:29.654Z</time></trkpt><trkpt lat="43.6307833" lon="11.312605"><ele>321.0</ele><time>2026-04-19T07:48:30.65Z</time></trkpt><trkpt lat="43.630615" lon="11.3124817"><ele>321.0</ele><time>2026-04-19T07:48:31.65Z</time></trkpt><trkpt lat="43.6304283" lon="11.3123833"><ele>321.0</ele><time>2026-04-19T07:48:32.651Z</time></trkpt><trkpt lat="43.6302483" lon="11.3122883"><ele>321.6666666666667</ele><time>2026-04-19T07:48:33.652Z</time></trkpt><trkpt lat="43.6300817" lon="11.3121983"><ele>322.33333333333337</ele><time>2026-04-19T07:48:34.653Z</time></trkpt><trkpt lat="43.6299233" lon="11.3121133"><ele>323.0</ele><time>2026-04-19T07:48:35.654Z</time></trkpt><trkpt lat="43.62977" lon="11.3120183"><ele>323.0</ele><time>2026-04-19T07:48:36.648Z</time></trkpt><trkpt lat="43.629625" lon="11.3119233"><ele>323.0</ele><time>2026-04-19T07:48:37.644Z</time></trkpt><trkpt lat="43.6294883" lon="11.31182"><ele>323.0</ele><time>2026-04-19T07:48:38.658Z</time></trkpt><trkpt lat="43.6293583" lon="11.31172"><ele>327.0</ele><time>2026-04-19T07:48:39.646Z</time></trkpt><trkpt lat="43.6292317" lon="11.3116267"><ele>331.0</ele><time>2026-04-19T07:48:40.648Z</time></trkpt><trkpt lat="43.6291067" lon="11.311535"><ele>335.0</ele><time>2026-04-19T07:48:41.646Z</time></trkpt><trkpt lat="43.628985" lon="11.3114683"><ele>339.0</ele><time>2026-04-19T07:48:42.646Z</time></trkpt><trkpt lat="43.62886" lon="11.31142"><ele>339.0</ele><time>2026-04-19T07:48:43.648Z</time></trkpt><trkpt lat="43.6287433" lon="11.311385"><ele>339.0</ele><time>2026-04-19T07:48:44.654Z</time></trkpt><trkpt lat="43.6286617" lon="11.311385"><ele>339.0</ele><time>2026-04-19T07:48:45.653Z</time></trkpt><trkpt lat="43.6285783" lon="11.311375"><ele>339.0</ele><time>2026-04-19T07:48:46.651Z</time></trkpt><trkpt lat="43.6284967" lon="11.3114567"><ele>339.0</ele><time>2026-04-19T07:48:48.646Z</time></trkpt><trkpt lat="43.628455" lon="11.3116033"><ele>340.0</ele><time>2026-04-19T07:48:50.651Z</time></trkpt><trkpt lat="43.628435" lon="11.3116867"><ele>341.0</ele><time>2026-04-19T07:48:51.648Z</time></trkpt><trkpt lat="43.628415" lon="11.3118083"><ele>342.0</ele><time>2026-04-19T07:48:52.646Z</time></trkpt><trkpt lat="43.628395" lon="11.31194"><ele>343.0</ele><time>2026-04-19T07:48:53.65Z</time></trkpt><trkpt lat="43.6284517" lon="11.3120917"><ele>344.0</ele><time>2026-04-19T07:48:54.651Z</time></trkpt><trkpt lat="43.6284917" lon="11.31222"><ele>344.79999999999995</ele><time>2026-04-19T07:48:55.651Z</time></trkpt><trkpt lat="43.6284833" lon="11.3123367"><ele>345.59999999999997</ele><time>2026-04-19T07:48:56.651Z</time></trkpt><trkpt lat="43.62849" lon="11.3124533"><ele>346.4</ele><time>2026-04-19T07:48:57.648Z</time></trkpt><trkpt lat="43.62852" lon="11.3125733"><ele>347.2</ele><time>2026-04-19T07:48:58.645Z</time></trkpt><trkpt lat="43.6285583" lon="11.3127117"><ele>348.0</ele><time>2026-04-19T07:48:59.647Z</time></trkpt><trkpt lat="43.6286017" lon="11.3128517"><ele>346.75</ele><time>2026-04-19T07:49:00.648Z</time></trkpt><trkpt lat="43.6286583" lon="11.313"><ele>345.5</ele><time>2026-04-19T07:49:01.646Z</time></trkpt><trkpt lat="43.6287183" lon="11.3131517"><ele>344.25</ele><time>2026-04-19T07:49:02.648Z</time></trkpt><trkpt lat="43.6287867" lon="11.3133033"><ele>343.0</ele><time>2026-04-19T07:49:03.651Z</time></trkpt><trkpt lat="43.6288833" lon="11.3134917"><ele>346.75</ele><time>2026-04-19T07:49:04.651Z</time></trkpt><trkpt lat="43.628975" lon="11.31366"><ele>350.5</ele><time>2026-04-19T07:49:05.649Z</time></trkpt><trkpt lat="43.62904" lon="11.313815"><ele>354.25</ele><time>2026-04-19T07:49:06.651Z</time></trkpt><trkpt lat="43.6291083" lon="11.3139733"><ele>358.0</ele><time>2026-04-19T07:49:07.649Z</time></trkpt><trkpt lat="43.6291817" lon="11.31413"><ele>358.25</ele><time>2026-04-19T07:49:08.65Z</time></trkpt><trkpt lat="43.6292617" lon="11.3142833"><ele>358.5</ele><time>2026-04-19T07:49:09.648Z</time></trkpt><trkpt lat="43.6293467" lon="11.3144333"><ele>358.75</ele><time>2026-04-19T07:49:10.644Z</time></trkpt><trkpt lat="43.6294317" lon="11.314595"><ele>359.0</ele><time>2026-04-19T07:49:11.649Z</time></trkpt><trkpt lat="43.629515" lon="11.3147467"><ele>359.75</ele><time>2026-04-19T07:49:12.643Z</time></trkpt><trkpt lat="43.6296067" lon="11.3149033"><ele>360.5</ele><time>2026-04-19T07:49:13.654Z</time></trkpt><trkpt lat="43.6296967" lon="11.3150617"><ele>361.25</ele><time>2026-04-19T07:49:14.652Z</time></trkpt><trkpt lat="43.6298" lon="11.315225"><ele>362.0</ele><time>2026-04-19T07:49:15.647Z</time></trkpt><trkpt lat="43.6299033" lon="11.3153967"><ele>362.0</ele><time>2026-04-19T07:49:16.643Z</time></trkpt><trkpt lat="43.6299933" lon="11.3155533"><ele>362.0</ele><time>2026-04-19T07:49:17.65Z</time></trkpt><trkpt lat="43.6300867" lon="11.315705"><ele>362.0</ele><time>2026-04-19T07:49:18.649Z</time></trkpt><trkpt lat="43.6301483" lon="11.3158317"><ele>362.0</ele><time>2026-04-19T07:49:19.649Z</time></trkpt><trkpt lat="43.63024" lon="11.31599"><ele>362.75</ele><time>2026-04-19T07:49:20.649Z</time></trkpt><trkpt lat="43.6303283" lon="11.3161333"><ele>363.5</ele><time>2026-04-19T07:49:21.65Z</time></trkpt><trkpt lat="43.6304133" lon="11.3162583"><ele>364.25</ele><time>2026-04-19T07:49:22.651Z</time></trkpt><trkpt lat="43.630505" lon="11.3163817"><ele>365.0</ele><time>2026-04-19T07:49:23.656Z</time></trkpt><trkpt lat="43.630625" lon="11.3165017"><ele>365.2</ele><time>2026-04-19T07:49:24.648Z</time></trkpt><trkpt lat="43.630685" lon="11.3166267"><ele>365.4</ele><time>2026-04-19T07:49:25.647Z</time></trkpt><trkpt lat="43.6307283" lon="11.31672"><ele>365.6</ele><time>2026-04-19T07:49:26.649Z</time></trkpt><trkpt lat="43.6306467" lon="11.3168483"><ele>365.8</ele><time>2026-04-19T07:49:28.649Z</time></trkpt><trkpt lat="43.6305567" lon="11.3169233"><ele>366.0</ele><time>2026-04-19T07:49:29.648Z</time></trkpt><trkpt lat="43.630465" lon="11.3170533"><ele>366.0</ele><time>2026-04-19T07:49:31.647Z</time></trkpt><trkpt lat="43.630375" lon="11.317085"><ele>366.0</ele><time>2026-04-19T07:49:32.651Z</time></trkpt><trkpt lat="43.6302933" lon="11.3171"><ele>366.0</ele><time>2026-04-19T07:49:33.652Z</time></trkpt><trkpt lat="43.6302167" lon="11.317205"><ele>366.0</ele><time>2026-04-19T07:49:35.645Z</time></trkpt><trkpt lat="43.6301383" lon="11.3173067"><ele>366.0</ele><time>2026-04-19T07:49:37.652Z</time></trkpt><trkpt lat="43.6301083" lon="11.3174383"><ele>365.14285714285717</ele><time>2026-04-19T07:49:39.649Z</time></trkpt><trkpt lat="43.6300717" lon="11.31754"><ele>364.28571428571433</ele><time>2026-04-19T07:49:41.648Z</time></trkpt><trkpt lat="43.6300317" lon="11.3176117"><ele>363.42857142857144</ele><time>2026-04-19T07:49:42.65Z</time></trkpt><trkpt lat="43.6299733" lon="11.31768"><ele>362.57142857142856</ele><time>2026-04-19T07:49:43.649Z</time></trkpt><trkpt lat="43.6299133" lon="11.31773"><ele>361.7142857142857</ele><time>2026-04-19T07:49:44.651Z</time></trkpt><trkpt lat="43.62984" lon="11.3177617"><ele>360.85714285714283</ele><time>2026-04-19T07:49:45.649Z</time></trkpt><trkpt lat="43.6297733" lon="11.3177883"><ele>360.0</ele><time>2026-04-19T07:49:46.645Z</time></trkpt><trkpt lat="43.6297083" lon="11.317815"><ele>360.0</ele><time>2026-04-19T07:49:47.648Z</time></trkpt><trkpt lat="43.6296467" lon="11.317835"><ele>360.0</ele><time>2026-04-19T07:49:48.648Z</time></trkpt><trkpt lat="43.62953" lon="11.3178267"><ele>360.0</ele><time>2026-04-19T07:49:49.649Z</time></trkpt><trkpt lat="43.6294667" lon="11.3178633"><ele>360.0</ele><time>2026-04-19T07:49:50.649Z</time></trkpt><trkpt lat="43.6294033" lon="11.3179017"><ele>360.0</ele><time>2026-04-19T07:49:51.649Z</time></trkpt><trkpt lat="43.6293217" lon="11.3179383"><ele>360.0</ele><time>2026-04-19T07:49:52.653Z</time></trkpt><trkpt lat="43.62922" lon="11.3179767"><ele>359.1666666666667</ele><time>2026-04-19T07:49:53.65Z</time></trkpt><trkpt lat="43.62915" lon="11.31802"><ele>358.3333333333333</ele><time>2026-04-19T07:49:54.647Z</time></trkpt><trkpt lat="43.6290817" lon="11.318085"><ele>357.5</ele><time>2026-04-19T07:49:55.643Z</time></trkpt><trkpt lat="43.629" lon="11.318125"><ele>356.66666666666663</ele><time>2026-04-19T07:49:56.65Z</time></trkpt><trkpt lat="43.6289517" lon="11.3182017"><ele>355.8333333333333</ele><time>2026-04-19T07:49:57.65Z</time></trkpt><trkpt lat="43.6289167" lon="11.31829"><ele>355.0</ele><time>2026-04-19T07:49:58.647Z</time></trkpt><trkpt lat="43.6288983" lon="11.3183967"><ele>357.6</ele><time>2026-04-19T07:49:59.649Z</time></trkpt><trkpt lat="43.6288917" lon="11.3185033"><ele>360.2</ele><time>2026-04-19T07:50:00.648Z</time></trkpt><trkpt lat="43.6288933" lon="11.318655"><ele>362.79999999999995</ele><time>2026-04-19T07:50:01.654Z</time></trkpt><trkpt lat="43.6289667" lon="11.318815"><ele>365.4</ele><time>2026-04-19T07:50:02.645Z</time></trkpt><trkpt lat="43.6290317" lon="11.3189467"><ele>368.0</ele><time>2026-04-19T07:50:03.653Z</time></trkpt><trkpt lat="43.629095" lon="11.3191117"><ele>369.2</ele><time>2026-04-19T07:50:04.648Z</time></trkpt><trkpt lat="43.62913" lon="11.319285"><ele>370.4</ele><time>2026-04-19T07:50:05.65Z</time></trkpt><trkpt lat="43.62915" lon="11.3194183"><ele>371.59999999999997</ele><time>2026-04-19T07:50:06.644Z</time></trkpt><trkpt lat="43.62916" lon="11.319515"><ele>372.79999999999995</ele><time>2026-04-19T07:50:07.644Z</time></trkpt><trkpt lat="43.6291767" lon="11.3196267"><ele>374.0</ele><time>2026-04-19T07:50:08.647Z</time></trkpt><trkpt lat="43.6291817" lon="11.31973"><ele>375.75</ele><time>2026-04-19T07:50:09.647Z</time></trkpt><trkpt lat="43.6291533" lon="11.31989"><ele>377.5</ele><time>2026-04-19T07:50:11.652Z</time></trkpt><trkpt lat="43.6291333" lon="11.3200383"><ele>379.25</ele><time>2026-04-19T07:50:13.65Z</time></trkpt><trkpt lat="43.6290167" lon="11.3200767"><ele>381.0</ele><time>2026-04-19T07:50:14.649Z</time></trkpt><trkpt lat="43.6289233" lon="11.3201533"><ele>381.0</ele><time>2026-04-19T07:50:15.644Z</time></trkpt><trkpt lat="43.6288567" lon="11.320195"><ele>381.0</ele><time>2026-04-19T07:50:16.646Z</time></trkpt><trkpt lat="43.6286733" lon="11.320235"><ele>381.0</ele><time>2026-04-19T07:50:17.644Z</time></trkpt><trkpt lat="43.6285717" lon="11.3203033"><ele>381.0</ele><time>2026-04-19T07:50:18.648Z</time></trkpt><trkpt lat="43.6284733" lon="11.3203317"><ele>381.1666666666667</ele><time>2026-04-19T07:50:19.65Z</time></trkpt><trkpt lat="43.62841" lon="11.3203967"><ele>381.3333333333333</ele><time>2026-04-19T07:50:20.647Z</time></trkpt><trkpt lat="43.6283567" lon="11.3204767"><ele>381.5</ele><time>2026-04-19T07:50:21.647Z</time></trkpt><trkpt lat="43.62831" lon="11.320585"><ele>381.66666666666663</ele><time>2026-04-19T07:50:22.651Z</time></trkpt><trkpt lat="43.6282517" lon="11.3206783"><ele>381.8333333333333</ele><time>2026-04-19T07:50:23.647Z</time></trkpt><trkpt lat="43.628205" lon="11.320785"><ele>382.0</ele><time>2026-04-19T07:50:24.651Z</time></trkpt><trkpt lat="43.628175" lon="11.3209133"><ele>382.0</ele><time>2026-04-19T07:50:25.648Z</time></trkpt><trkpt lat="43.6281383" lon="11.3210317"><ele>382.0</ele><time>2026-04-19T07:50:26.646Z</time></trkpt><trkpt lat="43.6280583" lon="11.3211367"><ele>382.0</ele><time>2026-04-19T07:50:27.654Z</time></trkpt><trkpt lat="43.6280017" lon="11.3212333"><ele>382.0</ele><time>2026-04-19T07:50:28.645Z</time></trkpt><trkpt lat="43.62794" lon="11.3213217"><ele>382.0</ele><time>2026-04-19T07:50:29.65Z</time></trkpt><trkpt lat="43.627885" lon="11.321405"><ele>381.6</ele><time>2026-04-19T07:50:30.647Z</time></trkpt><trkpt lat="43.627835" lon="11.3214717"><ele>381.20000000000005</ele><time>2026-04-19T07:50:31.651Z</time></trkpt><trkpt lat="43.6277783" lon="11.3215217"><ele>380.8</ele><time>2026-04-19T07:50:32.646Z</time></trkpt><trkpt lat="43.6276767" lon="11.321375"><ele>380.4</ele><time>2026-04-19T07:50:34.644Z</time></trkpt><trkpt lat="43.6275683" lon="11.32132"><ele>380.0</ele><time>2026-04-19T07:50:36.646Z</time></trkpt><trkpt lat="43.6274967" lon="11.3213017"><ele>380.0</ele><time>2026-04-19T07:50:37.644Z</time></trkpt><trkpt lat="43.6274233" lon="11.3212933"><ele>380.0</ele><time>2026-04-19T07:50:38.646Z</time></trkpt><trkpt lat="43.627305" lon="11.32133"><ele>380.0</ele><time>2026-04-19T07:50:40.649Z</time></trkpt><trkpt lat="43.627245" lon="11.3213767"><ele>380.0</ele><time>2026-04-19T07:50:41.653Z</time></trkpt><trkpt lat="43.6272017" lon="11.3215283"><ele>380.0</ele><time>2026-04-19T07:50:43.648Z</time></trkpt><trkpt lat="43.6271267" lon="11.3216433"><ele>380.0</ele><time>2026-04-19T07:50:45.649Z</time></trkpt><trkpt lat="43.62708" lon="11.3217083"><ele>380.0</ele><time>2026-04-19T07:50:46.649Z</time></trkpt><trkpt lat="43.62699" lon="11.3217733"><ele>380.0</ele><time>2026-04-19T07:50:48.649Z</time></trkpt><trkpt lat="43.6269317" lon="11.3217383"><ele>380.0</ele><time>2026-04-19T07:50:50.65Z</time></trkpt><trkpt lat="43.6268467" lon="11.3216067"><ele>380.0</ele><time>2026-04-19T07:50:51.649Z</time></trkpt><trkpt lat="43.626765" lon="11.3215217"><ele>379.2</ele><time>2026-04-19T07:50:52.653Z</time></trkpt><trkpt lat="43.626705" lon="11.321475"><ele>378.4</ele><time>2026-04-19T07:50:53.652Z</time></trkpt><trkpt lat="43.6266183" lon="11.3213267"><ele>377.6</ele><time>2026-04-19T07:50:55.65Z</time></trkpt><trkpt lat="43.62655" lon="11.3212033"><ele>376.8</ele><time>2026-04-19T07:50:56.644Z</time></trkpt><trkpt lat="43.6264883" lon="11.3210867"><ele>376.0</ele><time>2026-04-19T07:50:57.646Z</time></trkpt><trkpt lat="43.62643" lon="11.320945"><ele>373.5</ele><time>2026-04-19T07:50:58.649Z</time></trkpt><trkpt lat="43.6263767" lon="11.3207817"><ele>371.0</ele><time>2026-04-19T07:50:59.648Z</time></trkpt><trkpt lat="43.6263267" lon="11.32061"><ele>368.5</ele><time>2026-04-19T07:51:00.651Z</time></trkpt><trkpt lat="43.6262667" lon="11.32045"><ele>366.0</ele><time>2026-04-19T07:51:01.648Z</time></trkpt><trkpt lat="43.6262067" lon="11.3202983"><ele>365.20000000000005</ele><time>2026-04-19T07:51:02.65Z</time></trkpt><trkpt lat="43.6261617" lon="11.3201517"><ele>364.40000000000003</ele><time>2026-04-19T07:51:03.653Z</time></trkpt><trkpt lat="43.62611" lon="11.3200183"><ele>363.6</ele><time>2026-04-19T07:51:04.648Z</time></trkpt><trkpt lat="43.6260567" lon="11.3199033"><ele>362.8</ele><time>2026-04-19T07:51:05.649Z</time></trkpt><trkpt lat="43.626015" lon="11.3197983"><ele>362.0</ele><time>2026-04-19T07:51:06.654Z</time></trkpt><trkpt lat="43.6259667" lon="11.319735"><ele>362.0</ele><time>2026-04-19T07:51:07.646Z</time></trkpt><trkpt lat="43.6259083" lon="11.3197017"><ele>362.0</ele><time>2026-04-19T07:51:08.651Z</time></trkpt><trkpt lat="43.6258067" lon="11.3196383"><ele>362.0</ele><time>2026-04-19T07:51:10.649Z</time></trkpt><trkpt lat="43.625705" lon="11.3196667"><ele>362.0</ele><time>2026-04-19T07:51:12.654Z</time></trkpt><trkpt lat="43.6256283" lon="11.3199167"><ele>362.0</ele><time>2026-04-19T07:51:14.644Z</time></trkpt><trkpt lat="43.625545" lon="11.320195"><ele>362.0</ele><time>2026-04-19T07:51:15.644Z</time></trkpt><trkpt lat="43.6254683" lon="11.3204433"><ele>362.0</ele><time>2026-04-19T07:51:16.646Z</time></trkpt><trkpt lat="43.6254133" lon="11.3206533"><ele>360.5</ele><time>2026-04-19T07:51:17.649Z</time></trkpt><trkpt lat="43.62536" lon="11.3208483"><ele>359.0</ele><time>2026-04-19T07:51:18.655Z</time></trkpt><trkpt lat="43.625295" lon="11.3210317"><ele>357.5</ele><time>2026-04-19T07:51:19.654Z</time></trkpt><trkpt lat="43.625215" lon="11.3212067"><ele>356.0</ele><time>2026-04-19T07:51:20.652Z</time></trkpt><trkpt lat="43.625145" lon="11.3213467"><ele>358.25</ele><time>2026-04-19T07:51:21.656Z</time></trkpt><trkpt lat="43.6251017" lon="11.321525"><ele>360.5</ele><time>2026-04-19T07:51:22.651Z</time></trkpt><trkpt lat="43.62509" lon="11.3217133"><ele>362.75</ele><time>2026-04-19T07:51:23.644Z</time></trkpt><trkpt lat="43.625085" lon="11.321875"><ele>365.0</ele><time>2026-04-19T07:51:24.645Z</time></trkpt><trkpt lat="43.6250817" lon="11.3220583"><ele>365.0</ele><time>2026-04-19T07:51:25.644Z</time></trkpt><trkpt lat="43.6250767" lon="11.322245"><ele>365.0</ele><time>2026-04-19T07:51:27.646Z</time></trkpt><trkpt lat="43.6250483" lon="11.322345"><ele>365.0</ele><time>2026-04-19T07:51:29.651Z</time></trkpt><trkpt lat="43.62496" lon="11.322295"><ele>365.0</ele><time>2026-04-19T07:51:32.647Z</time></trkpt><trkpt lat="43.624905" lon="11.3222333"><ele>365.0</ele><time>2026-04-19T07:51:33.649Z</time></trkpt><trkpt lat="43.624845" lon="11.3221217"><ele>365.0</ele><time>2026-04-19T07:51:34.643Z</time></trkpt><trkpt lat="43.6247517" lon="11.3219833"><ele>365.0</ele><time>2026-04-19T07:51:35.645Z</time></trkpt><trkpt lat="43.62469" lon="11.3216517"><ele>365.0</ele><time>2026-04-19T07:51:36.647Z</time></trkpt><trkpt lat="43.6246217" lon="11.321395"><ele>365.5</ele><time>2026-04-19T07:51:37.649Z</time></trkpt><trkpt lat="43.6245283" lon="11.3210883"><ele>366.0</ele><time>2026-04-19T07:51:38.646Z</time></trkpt><trkpt lat="43.6244483" lon="11.3207033"><ele>361.3333333333333</ele><time>2026-04-19T07:51:39.646Z</time></trkpt><trkpt lat="43.624365" lon="11.3203733"><ele>356.66666666666663</ele><time>2026-04-19T07:51:40.645Z</time></trkpt><trkpt lat="43.6243033" lon="11.3201933"><ele>352.0</ele><time>2026-04-19T07:51:41.648Z</time></trkpt><trkpt lat="43.624205" lon="11.319955"><ele>352.0</ele><time>2026-04-19T07:51:42.647Z</time></trkpt><trkpt lat="43.6241333" lon="11.3197717"><ele>352.0</ele><time>2026-04-19T07:51:43.644Z</time></trkpt><trkpt lat="43.6240933" lon="11.31963"><ele>352.0</ele><time>2026-04-19T07:51:44.647Z</time></trkpt><trkpt lat="43.624055" lon="11.31946"><ele>352.0</ele><time>2026-04-19T07:51:45.647Z</time></trkpt><trkpt lat="43.624005" lon="11.31932"><ele>349.0</ele><time>2026-04-19T07:51:46.646Z</time></trkpt><trkpt lat="43.623955" lon="11.3192183"><ele>346.0</ele><time>2026-04-19T07:51:47.648Z</time></trkpt><trkpt lat="43.6238833" lon="11.3191333"><ele>343.0</ele><time>2026-04-19T07:51:48.647Z</time></trkpt><trkpt lat="43.62381" lon="11.3190533"><ele>340.0</ele><time>2026-04-19T07:51:49.653Z</time></trkpt><trkpt lat="43.6237183" lon="11.3189983"><ele>337.0</ele><time>2026-04-19T07:51:50.65Z</time></trkpt><trkpt lat="43.62364" lon="11.3189333"><ele>333.8</ele><time>2026-04-19T07:51:51.651Z</time></trkpt><trkpt lat="43.6235667" lon="11.3188883"><ele>330.6</ele><time>2026-04-19T07:51:52.651Z</time></trkpt><trkpt lat="43.62344" lon="11.3188417"><ele>327.40000000000003</ele><time>2026-04-19T07:51:54.645Z</time></trkpt><trkpt lat="43.6233667" lon="11.3188183"><ele>324.20000000000005</ele><time>2026-04-19T07:51:55.651Z</time></trkpt><trkpt lat="43.6232517" lon="11.3188467"><ele>321.0</ele><time>2026-04-19T07:51:57.645Z</time></trkpt><trkpt lat="43.6231833" lon="11.3189133"><ele>321.0</ele><time>2026-04-19T07:51:58.643Z</time></trkpt><trkpt lat="43.6230983" lon="11.31896"><ele>321.0</ele><time>2026-04-19T07:51:59.646Z</time></trkpt><trkpt lat="43.6230083" lon="11.3190117"><ele>321.0</ele><time>2026-04-19T07:52:00.652Z</time></trkpt><trkpt lat="43.6229267" lon="11.319075"><ele>321.0</ele><time>2026-04-19T07:52:01.653Z</time></trkpt><trkpt lat="43.62286" lon="11.3191533"><ele>321.0</ele><time>2026-04-19T07:52:02.654Z</time></trkpt><trkpt lat="43.622795" lon="11.3191883"><ele>321.0</ele><time>2026-04-19T07:52:03.649Z</time></trkpt><trkpt lat="43.6227233" lon="11.319295"><ele>320.3333333333333</ele><time>2026-04-19T07:52:05.645Z</time></trkpt><trkpt lat="43.622625" lon="11.31932"><ele>319.6666666666667</ele><time>2026-04-19T07:52:07.65Z</time></trkpt><trkpt lat="43.622515" lon="11.3193667"><ele>319.0</ele><time>2026-04-19T07:52:09.652Z</time></trkpt><trkpt lat="43.62247" lon="11.3194317"><ele>318.33333333333337</ele><time>2026-04-19T07:52:10.648Z</time></trkpt><trkpt lat="43.622435" lon="11.31953"><ele>317.6666666666667</ele><time>2026-04-19T07:52:11.649Z</time></trkpt><trkpt lat="43.6224017" lon="11.3196217"><ele>317.0</ele><time>2026-04-19T07:52:12.653Z</time></trkpt><trkpt lat="43.6223267" lon="11.31981"><ele>320.33333333333337</ele><time>2026-04-19T07:52:13.647Z</time></trkpt><trkpt lat="43.6222717" lon="11.3199967"><ele>323.6666666666667</ele><time>2026-04-19T07:52:14.643Z</time></trkpt><trkpt lat="43.622195" lon="11.3202283"><ele>327.0</ele><time>2026-04-19T07:52:15.646Z</time></trkpt><trkpt lat="43.6221233" lon="11.3203917"><ele>329.25</ele><time>2026-04-19T07:52:16.643Z</time></trkpt><trkpt lat="43.6221433" lon="11.320685"><ele>331.5</ele><time>2026-04-19T07:52:17.65Z</time></trkpt><trkpt lat="43.6220983" lon="11.32084"><ele>333.75</ele><time>2026-04-19T07:52:18.649Z</time></trkpt><trkpt lat="43.62206" lon="11.3209817"><ele>336.0</ele><time>2026-04-19T07:52:19.651Z</time></trkpt><trkpt lat="43.6220017" lon="11.321105"><ele>335.8333333333333</ele><time>2026-04-19T07:52:20.652Z</time></trkpt><trkpt lat="43.62194" lon="11.3211983"><ele>335.6666666666667</ele><time>2026-04-19T07:52:21.649Z</time></trkpt><trkpt lat="43.6218833" lon="11.3212817"><ele>335.5</ele><time>2026-04-19T07:52:22.65Z</time></trkpt><trkpt lat="43.621825" lon="11.32134"><ele>335.33333333333337</ele><time>2026-04-19T07:52:23.656Z</time></trkpt><trkpt lat="43.621765" lon="11.32138"><ele>335.1666666666667</ele><time>2026-04-19T07:52:24.651Z</time></trkpt><trkpt lat="43.6216783" lon="11.3213917"><ele>335.0</ele><time>2026-04-19T07:52:26.644Z</time></trkpt><trkpt lat="43.6216117" lon="11.3212117"><ele>335.0</ele><time>2026-04-19T07:52:28.646Z</time></trkpt><trkpt lat="43.6215867" lon="11.3209617"><ele>335.0</ele><time>2026-04-19T07:52:29.648Z</time></trkpt><trkpt lat="43.6215333" lon="11.3208633"><ele>335.0</ele><time>2026-04-19T07:52:30.647Z</time></trkpt><trkpt lat="43.62146" lon="11.3207867"><ele>335.0</ele><time>2026-04-19T07:52:31.654Z</time></trkpt><trkpt lat="43.6213867" lon="11.320695"><ele>335.0</ele><time>2026-04-19T07:52:32.645Z</time></trkpt><trkpt lat="43.62131" lon="11.320615"><ele>335.0</ele><time>2026-04-19T07:52:33.65Z</time></trkpt><trkpt lat="43.6212317" lon="11.3205633"><ele>335.0</ele><time>2026-04-19T07:52:34.645Z</time></trkpt><trkpt lat="43.6211429" lon="11.3205352"><ele>335.0</ele><time>2026-04-19T07:52:35.645Z</time></trkpt><trkpt lat="43.6210284" lon="11.3205298"><ele>335.0</ele><time>2026-04-19T07:52:36.645Z</time></trkpt><trkpt lat="43.6209219" lon="11.3205922"><ele>338.75</ele><time>2026-04-19T07:52:37.646Z</time></trkpt><trkpt lat="43.6208192" lon="11.3206469"><ele>342.5</ele><time>2026-04-19T07:52:38.647Z</time></trkpt><trkpt lat="43.6207062" lon="11.3206998"><ele>346.25</ele><time>2026-04-19T07:52:39.653Z</time></trkpt><trkpt lat="43.6205972" lon="11.3207689"><ele>350.0</ele><time>2026-04-19T07:52:40.653Z</time></trkpt><trkpt lat="43.6204809" lon="11.320849"><ele>350.0</ele><time>2026-04-19T07:52:41.645Z</time></trkpt><trkpt lat="43.6203656" lon="11.3209276"><ele>350.0</ele><time>2026-04-19T07:52:42.65Z</time></trkpt><trkpt lat="43.6202703" lon="11.3210019"><ele>350.0</ele><time>2026-04-19T07:52:43.648Z</time></trkpt><trkpt lat="43.6201969" lon="11.3210566"><ele>350.0</ele><time>2026-04-19T07:52:44.644Z</time></trkpt><trkpt lat="43.6200667" lon="11.321125"><ele>351.8</ele><time>2026-04-19T07:52:46.646Z</time></trkpt><trkpt lat="43.6199683" lon="11.3211467"><ele>353.6</ele><time>2026-04-19T07:52:48.652Z</time></trkpt><trkpt lat="43.6199" lon="11.3211083"><ele>355.4</ele><time>2026-04-19T07:52:50.663Z</time></trkpt><trkpt lat="43.6198567" lon="11.32092"><ele>357.2</ele><time>2026-04-19T07:52:52.651Z</time></trkpt><trkpt lat="43.6198333" lon="11.3208083"><ele>359.0</ele><time>2026-04-19T07:52:53.652Z</time></trkpt><trkpt lat="43.6198017" lon="11.3207283"><ele>359.0</ele><time>2026-04-19T07:52:54.65Z</time></trkpt><trkpt lat="43.6197767" lon="11.3206333"><ele>359.0</ele><time>2026-04-19T07:52:55.643Z</time></trkpt><trkpt lat="43.6197483" lon="11.3205483"><ele>359.0</ele><time>2026-04-19T07:52:56.648Z</time></trkpt><trkpt lat="43.619695" lon="11.3204"><ele>359.0</ele><time>2026-04-19T07:52:58.651Z</time></trkpt><trkpt lat="43.6196517" lon="11.3203267"><ele>359.0</ele><time>2026-04-19T07:52:59.651Z</time></trkpt><trkpt lat="43.6196083" lon="11.3202583"><ele>359.0</ele><time>2026-04-19T07:53:00.651Z</time></trkpt><trkpt lat="43.6195583" lon="11.3201967"><ele>358.79999999999995</ele><time>2026-04-19T07:53:01.645Z</time></trkpt><trkpt lat="43.619505" lon="11.3201367"><ele>358.59999999999997</ele><time>2026-04-19T07:53:02.65Z</time></trkpt><trkpt lat="43.6194483" lon="11.32006"><ele>358.4</ele><time>2026-04-19T07:53:03.653Z</time></trkpt><trkpt lat="43.6193833" lon="11.319985"><ele>358.2</ele><time>2026-04-19T07:53:04.646Z</time></trkpt><trkpt lat="43.619325" lon="11.319885"><ele>358.0</ele><time>2026-04-19T07:53:05.649Z</time></trkpt><trkpt lat="43.619205" lon="11.3197517"><ele>357.79999999999995</ele><time>2026-04-19T07:53:06.648Z</time></trkpt><trkpt lat="43.6191283" lon="11.3196667"><ele>357.6</ele><time>2026-04-19T07:53:07.651Z</time></trkpt><trkpt lat="43.6190417" lon="11.3195817"><ele>357.4</ele><time>2026-04-19T07:53:08.647Z</time></trkpt><trkpt lat="43.6189617" lon="11.31949"><ele>357.20000000000005</ele><time>2026-04-19T07:53:09.646Z</time></trkpt><trkpt lat="43.618875" lon="11.3193917"><ele>357.0</ele><time>2026-04-19T07:53:10.647Z</time></trkpt><trkpt lat="43.618795" lon="11.319295"><ele>357.0</ele><time>2026-04-19T07:53:11.652Z</time></trkpt><trkpt lat="43.6187067" lon="11.31918"><ele>357.0</ele><time>2026-04-19T07:53:12.651Z</time></trkpt><trkpt lat="43.61861" lon="11.319055"><ele>357.0</ele><time>2026-04-19T07:53:13.643Z</time></trkpt><trkpt lat="43.6185217" lon="11.3189283"><ele>357.0</ele><time>2026-04-19T07:53:14.646Z</time></trkpt><trkpt lat="43.61843" lon="11.3187917"><ele>358.25</ele><time>2026-04-19T07:53:15.646Z</time></trkpt><trkpt lat="43.618345" lon="11.31866"><ele>359.5</ele><time>2026-04-19T07:53:16.648Z</time></trkpt><trkpt lat="43.6182567" lon="11.3185283"><ele>360.75</ele><time>2026-04-19T07:53:17.653Z</time></trkpt><trkpt lat="43.6181617" lon="11.3184233"><ele>362.0</ele><time>2026-04-19T07:53:18.648Z</time></trkpt><trkpt lat="43.6180483" lon="11.3183"><ele>362.0</ele><time>2026-04-19T07:53:19.646Z</time></trkpt><trkpt lat="43.6179133" lon="11.3182017"><ele>362.0</ele><time>2026-04-19T07:53:20.651Z</time></trkpt><trkpt lat="43.617785" lon="11.3180983"><ele>362.0</ele><time>2026-04-19T07:53:21.652Z</time></trkpt><trkpt lat="43.6176683" lon="11.318"><ele>362.0</ele><time>2026-04-19T07:53:22.647Z</time></trkpt><trkpt lat="43.617555" lon="11.3179167"><ele>361.75</ele><time>2026-04-19T07:53:23.651Z</time></trkpt><trkpt lat="43.6174483" lon="11.3178283"><ele>361.5</ele><time>2026-04-19T07:53:24.646Z</time></trkpt><trkpt lat="43.6173517" lon="11.3177433"><ele>361.25</ele><time>2026-04-19T07:53:25.654Z</time></trkpt><trkpt lat="43.6172517" lon="11.3176633"><ele>361.0</ele><time>2026-04-19T07:53:26.645Z</time></trkpt><trkpt lat="43.6171533" lon="11.3175767"><ele>361.0</ele><time>2026-04-19T07:53:27.65Z</time></trkpt><trkpt lat="43.61705" lon="11.3174917"><ele>361.0</ele><time>2026-04-19T07:53:28.653Z</time></trkpt><trkpt lat="43.61695" lon="11.3173933"><ele>361.0</ele><time>2026-04-19T07:53:29.651Z</time></trkpt><trkpt lat="43.61686" lon="11.3172883"><ele>361.0</ele><time>2026-04-19T07:53:30.648Z</time></trkpt><trkpt lat="43.6167683" lon="11.3171683"><ele>360.6</ele><time>2026-04-19T07:53:31.649Z</time></trkpt><trkpt lat="43.6166733" lon="11.317055"><ele>360.20000000000005</ele><time>2026-04-19T07:53:32.649Z</time></trkpt><trkpt lat="43.6165833" lon="11.3169717"><ele>359.79999999999995</ele><time>2026-04-19T07:53:33.653Z</time></trkpt><trkpt lat="43.6165033" lon="11.3168917"><ele>359.4</ele><time>2026-04-19T07:53:34.651Z</time></trkpt><trkpt lat="43.6164183" lon="11.31682"><ele>359.0</ele><time>2026-04-19T07:53:35.649Z</time></trkpt><trkpt lat="43.6163333" lon="11.3167383"><ele>359.0</ele><time>2026-04-19T07:53:36.647Z</time></trkpt><trkpt lat="43.61624" lon="11.3166633"><ele>359.0</ele><time>2026-04-19T07:53:37.648Z</time></trkpt><trkpt lat="43.6161533" lon="11.31659"><ele>359.0</ele><time>2026-04-19T07:53:38.65Z</time></trkpt><trkpt lat="43.6160567" lon="11.31652"><ele>359.0</ele><time>2026-04-19T07:53:39.648Z</time></trkpt><trkpt lat="43.6159367" lon="11.3164583"><ele>359.0</ele><time>2026-04-19T07:53:40.65Z</time></trkpt><trkpt lat="43.6158183" lon="11.3164117"><ele>358.75</ele><time>2026-04-19T07:53:41.653Z</time></trkpt><trkpt lat="43.6156933" lon="11.3163667"><ele>358.5</ele><time>2026-04-19T07:53:42.653Z</time></trkpt><trkpt lat="43.6155733" lon="11.3163317"><ele>358.25</ele><time>2026-04-19T07:53:43.646Z</time></trkpt><trkpt lat="43.6154433" lon="11.3163133"><ele>358.0</ele><time>2026-04-19T07:53:44.652Z</time></trkpt><trkpt lat="43.6153133" lon="11.3162933"><ele>355.5</ele><time>2026-04-19T07:53:45.654Z</time></trkpt><trkpt lat="43.6151867" lon="11.3162867"><ele>353.0</ele><time>2026-04-19T07:53:46.648Z</time></trkpt><trkpt lat="43.615075" lon="11.3162867"><ele>350.5</ele><time>2026-04-19T07:53:47.649Z</time></trkpt><trkpt lat="43.61496" lon="11.3162933"><ele>348.0</ele><time>2026-04-19T07:53:48.651Z</time></trkpt><trkpt lat="43.61484" lon="11.3162933"><ele>348.0</ele><time>2026-04-19T07:53:49.654Z</time></trkpt><trkpt lat="43.6147317" lon="11.316285"><ele>348.0</ele><time>2026-04-19T07:53:50.651Z</time></trkpt><trkpt lat="43.61462" lon="11.316285"><ele>348.0</ele><time>2026-04-19T07:53:51.654Z</time></trkpt><trkpt lat="43.61452" lon="11.3162817"><ele>348.0</ele><time>2026-04-19T07:53:52.65Z</time></trkpt><trkpt lat="43.6144317" lon="11.31628"><ele>348.0</ele><time>2026-04-19T07:53:53.651Z</time></trkpt><trkpt lat="43.6143583" lon="11.31629"><ele>345.2</ele><time>2026-04-19T07:53:54.645Z</time></trkpt><trkpt lat="43.6142467" lon="11.3163183"><ele>342.4</ele><time>2026-04-19T07:53:56.648Z</time></trkpt><trkpt lat="43.6141433" lon="11.3163367"><ele>339.59999999999997</ele><time>2026-04-19T07:53:58.65Z</time></trkpt><trkpt lat="43.614035" lon="11.3163467"><ele>336.79999999999995</ele><time>2026-04-19T07:54:00.65Z</time></trkpt><trkpt lat="43.6139617" lon="11.3163367"><ele>334.0</ele><time>2026-04-19T07:54:01.65Z</time></trkpt><trkpt lat="43.6138733" lon="11.3163183"><ele>334.0</ele><time>2026-04-19T07:54:02.653Z</time></trkpt><trkpt lat="43.6137767" lon="11.3162933"><ele>334.0</ele><time>2026-04-19T07:54:03.653Z</time></trkpt><trkpt lat="43.61367" lon="11.3162683"><ele>334.0</ele><time>2026-04-19T07:54:04.645Z</time></trkpt><trkpt lat="43.6135483" lon="11.3162383"><ele>334.0</ele><time>2026-04-19T07:54:05.652Z</time></trkpt><trkpt lat="43.613415" lon="11.3162"><ele>331.75</ele><time>2026-04-19T07:54:06.65Z</time></trkpt><trkpt lat="43.6132783" lon="11.3161533"><ele>329.5</ele><time>2026-04-19T07:54:07.652Z</time></trkpt><trkpt lat="43.6131383" lon="11.316105"><ele>327.25</ele><time>2026-04-19T07:54:08.65Z</time></trkpt><trkpt lat="43.612995" lon="11.3160583"><ele>325.0</ele><time>2026-04-19T07:54:09.651Z</time></trkpt><trkpt lat="43.612845" lon="11.3160117"><ele>323.5</ele><time>2026-04-19T07:54:10.654Z</time></trkpt><trkpt lat="43.6126967" lon="11.3159733"><ele>322.0</ele><time>2026-04-19T07:54:11.657Z</time></trkpt><trkpt lat="43.61256" lon="11.3159467"><ele>320.5</ele><time>2026-04-19T07:54:12.657Z</time></trkpt><trkpt lat="43.612435" lon="11.3159317"><ele>319.0</ele><time>2026-04-19T07:54:13.652Z</time></trkpt><trkpt lat="43.6123133" lon="11.3159083"><ele>319.0</ele><time>2026-04-19T07:54:14.655Z</time></trkpt><trkpt lat="43.6122117" lon="11.3158933"><ele>319.0</ele><time>2026-04-19T07:54:15.651Z</time></trkpt><trkpt lat="43.6121133" lon="11.31587"><ele>319.0</ele><time>2026-04-19T07:54:16.65Z</time></trkpt><trkpt lat="43.6120067" lon="11.3158167"><ele>319.0</ele><time>2026-04-19T07:54:17.648Z</time></trkpt><trkpt lat="43.61189" lon="11.3157417"><ele>319.0</ele><time>2026-04-19T07:54:18.652Z</time></trkpt><trkpt lat="43.6117567" lon="11.315665"><ele>318.0</ele><time>2026-04-19T07:54:19.645Z</time></trkpt><trkpt lat="43.611615" lon="11.3155883"><ele>317.0</ele><time>2026-04-19T07:54:20.649Z</time></trkpt><trkpt lat="43.61148" lon="11.3155183"><ele>316.0</ele><time>2026-04-19T07:54:21.65Z</time></trkpt><trkpt lat="43.6113517" lon="11.3154367"><ele>315.0</ele><time>2026-04-19T07:54:22.651Z</time></trkpt><trkpt lat="43.6112283" lon="11.3153417"><ele>312.0</ele><time>2026-04-19T07:54:23.644Z</time></trkpt><trkpt lat="43.611105" lon="11.3152283"><ele>309.0</ele><time>2026-04-19T07:54:24.651Z</time></trkpt><trkpt lat="43.61098" lon="11.3151117"><ele>306.0</ele><time>2026-04-19T07:54:25.646Z</time></trkpt><trkpt lat="43.6108533" lon="11.3149967"><ele>306.0</ele><time>2026-04-19T07:54:26.648Z</time></trkpt><trkpt lat="43.6107267" lon="11.31488"><ele>306.0</ele><time>2026-04-19T07:54:27.652Z</time></trkpt><trkpt lat="43.6106017" lon="11.314765"><ele>306.0</ele><time>2026-04-19T07:54:28.65Z</time></trkpt><trkpt lat="43.6104783" lon="11.3146467"><ele>303.0</ele><time>2026-04-19T07:54:29.649Z</time></trkpt><trkpt lat="43.6103617" lon="11.3145267"><ele>300.0</ele><time>2026-04-19T07:54:30.65Z</time></trkpt><trkpt lat="43.6102483" lon="11.3144017"><ele>297.0</ele><time>2026-04-19T07:54:31.645Z</time></trkpt><trkpt lat="43.6101333" lon="11.3142783"><ele>294.0</ele><time>2026-04-19T07:54:32.645Z</time></trkpt><trkpt lat="43.6100133" lon="11.314165"><ele>293.75</ele><time>2026-04-19T07:54:33.645Z</time></trkpt><trkpt lat="43.60989" lon="11.3140667"><ele>293.5</ele><time>2026-04-19T07:54:34.645Z</time></trkpt><trkpt lat="43.6097633" lon="11.3139833"><ele>293.25</ele><time>2026-04-19T07:54:35.646Z</time></trkpt><trkpt lat="43.6096333" lon="11.3139033"><ele>293.0</ele><time>2026-04-19T07:54:36.65Z</time></trkpt><trkpt lat="43.6094883" lon="11.3138017"><ele>290.0</ele><time>2026-04-19T07:54:37.651Z</time></trkpt><trkpt lat="43.60936" lon="11.3137217"><ele>287.0</ele><time>2026-04-19T07:54:38.648Z</time></trkpt><trkpt lat="43.60924" lon="11.3136483"><ele>284.0</ele><time>2026-04-19T07:54:39.646Z</time></trkpt><trkpt lat="43.60913" lon="11.3135733"><ele>281.0</ele><time>2026-04-19T07:54:40.646Z</time></trkpt><trkpt lat="43.6090183" lon="11.3134833"><ele>281.0</ele><time>2026-04-19T07:54:41.651Z</time></trkpt><trkpt lat="43.6089233" lon="11.3133583"><ele>281.0</ele><time>2026-04-19T07:54:42.649Z</time></trkpt><trkpt lat="43.60883" lon="11.31323"><ele>281.0</ele><time>2026-04-19T07:54:43.647Z</time></trkpt><trkpt lat="43.6087367" lon="11.31307"><ele>281.0</ele><time>2026-04-19T07:54:44.648Z</time></trkpt><trkpt lat="43.6086367" lon="11.312925"><ele>276.75</ele><time>2026-04-19T07:54:45.646Z</time></trkpt><trkpt lat="43.6085233" lon="11.3127817"><ele>272.5</ele><time>2026-04-19T07:54:46.648Z</time></trkpt><trkpt lat="43.6084233" lon="11.31266"><ele>268.25</ele><time>2026-04-19T07:54:47.648Z</time></trkpt><trkpt lat="43.608305" lon="11.3125317"><ele>264.0</ele><time>2026-04-19T07:54:48.648Z</time></trkpt><trkpt lat="43.6082033" lon="11.312395"><ele>263.6666666666667</ele><time>2026-04-19T07:54:49.65Z</time></trkpt><trkpt lat="43.6081133" lon="11.31222"><ele>263.33333333333337</ele><time>2026-04-19T07:54:50.652Z</time></trkpt><trkpt lat="43.6080267" lon="11.312035"><ele>263.0</ele><time>2026-04-19T07:54:51.651Z</time></trkpt><trkpt lat="43.6079583" lon="11.311835"><ele>263.0</ele><time>2026-04-19T07:54:52.651Z</time></trkpt><trkpt lat="43.6078617" lon="11.31164"><ele>263.0</ele><time>2026-04-19T07:54:53.647Z</time></trkpt><trkpt lat="43.6077833" lon="11.31145"><ele>263.0</ele><time>2026-04-19T07:54:54.647Z</time></trkpt><trkpt lat="43.6076867" lon="11.3112767"><ele>259.0</ele><time>2026-04-19T07:54:55.653Z</time></trkpt><trkpt lat="43.607605" lon="11.3110917"><ele>255.0</ele><time>2026-04-19T07:54:56.65Z</time></trkpt><trkpt lat="43.6075067" lon="11.31093"><ele>251.0</ele><time>2026-04-19T07:54:57.649Z</time></trkpt><trkpt lat="43.6073967" lon="11.3107867"><ele>251.0</ele><time>2026-04-19T07:54:58.647Z</time></trkpt><trkpt lat="43.60727" lon="11.3106333"><ele>251.0</ele><time>2026-04-19T07:54:59.651Z</time></trkpt><trkpt lat="43.6071317" lon="11.3104867"><ele>251.0</ele><time>2026-04-19T07:55:00.652Z</time></trkpt><trkpt lat="43.6070033" lon="11.310335"><ele>248.0</ele><time>2026-04-19T07:55:01.654Z</time></trkpt><trkpt lat="43.606885" lon="11.310185"><ele>245.0</ele><time>2026-04-19T07:55:02.647Z</time></trkpt><trkpt lat="43.606785" lon="11.3100433"><ele>242.0</ele><time>2026-04-19T07:55:03.653Z</time></trkpt><trkpt lat="43.6067" lon="11.3098867"><ele>239.0</ele><time>2026-04-19T07:55:04.644Z</time></trkpt><trkpt lat="43.6066017" lon="11.309715"><ele>236.0</ele><time>2026-04-19T07:55:05.647Z</time></trkpt><trkpt lat="43.6064967" lon="11.3095533"><ele>233.0</ele><time>2026-04-19T07:55:06.647Z</time></trkpt><trkpt lat="43.6063767" lon="11.3093967"><ele>230.0</ele><time>2026-04-19T07:55:07.645Z</time></trkpt><trkpt lat="43.6062483" lon="11.309255"><ele>229.66666666666669</ele><time>2026-04-19T07:55:08.652Z</time></trkpt><trkpt lat="43.60612" lon="11.3090967"><ele>229.33333333333331</ele><time>2026-04-19T07:55:09.65Z</time></trkpt><trkpt lat="43.6059917" lon="11.30894"><ele>229.0</ele><time>2026-04-19T07:55:10.643Z</time></trkpt><trkpt lat="43.6058733" lon="11.3087717"><ele>228.33333333333331</ele><time>2026-04-19T07:55:11.642Z</time></trkpt><trkpt lat="43.605755" lon="11.308615"><ele>227.66666666666669</ele><time>2026-04-19T07:55:12.647Z</time></trkpt><trkpt lat="43.6056233" lon="11.30846"><ele>227.0</ele><time>2026-04-19T07:55:13.648Z</time></trkpt><trkpt lat="43.6054917" lon="11.3083067"><ele>227.0</ele><time>2026-04-19T07:55:14.645Z</time></trkpt><trkpt lat="43.6053717" lon="11.3081617"><ele>227.0</ele><time>2026-04-19T07:55:15.648Z</time></trkpt><trkpt lat="43.6052617" lon="11.3080383"><ele>227.0</ele><time>2026-04-19T07:55:16.648Z</time></trkpt><trkpt lat="43.6051583" lon="11.3079317"><ele>227.0</ele><time>2026-04-19T07:55:17.649Z</time></trkpt><trkpt lat="43.6050583" lon="11.307835"><ele>226.39999999999998</ele><time>2026-04-19T07:55:18.651Z</time></trkpt><trkpt lat="43.6049717" lon="11.3077633"><ele>225.79999999999998</ele><time>2026-04-19T07:55:19.653Z</time></trkpt><trkpt lat="43.604905" lon="11.3077417"><ele>225.2</ele><time>2026-04-19T07:55:20.648Z</time></trkpt><trkpt lat="43.6048167" lon="11.3077433"><ele>224.6</ele><time>2026-04-19T07:55:21.644Z</time></trkpt><trkpt lat="43.6047267" lon="11.30776"><ele>224.0</ele><time>2026-04-19T07:55:22.642Z</time></trkpt><trkpt lat="43.6046133" lon="11.307755"><ele>224.00000000000003</ele><time>2026-04-19T07:55:23.645Z</time></trkpt><trkpt lat="43.6045283" lon="11.307775"><ele>224.0</ele><time>2026-04-19T07:55:24.648Z</time></trkpt><trkpt lat="43.6044317" lon="11.3077767"><ele>224.0</ele><time>2026-04-19T07:55:25.664Z</time></trkpt><trkpt lat="43.60434" lon="11.3077717"><ele>224.0</ele><time>2026-04-19T07:55:26.649Z</time></trkpt><trkpt lat="43.604265" lon="11.3077717"><ele>224.00000000000003</ele><time>2026-04-19T07:55:27.65Z</time></trkpt><trkpt lat="43.6041917" lon="11.3078583"><ele>224.0</ele><time>2026-04-19T07:55:29.651Z</time></trkpt><trkpt lat="43.6041233" lon="11.30801"><ele>222.66666666666669</ele><time>2026-04-19T07:55:31.644Z</time></trkpt><trkpt lat="43.6041383" lon="11.30812"><ele>221.33333333333334</ele><time>2026-04-19T07:55:32.645Z</time></trkpt><trkpt lat="43.604115" lon="11.3082633"><ele>220.0</ele><time>2026-04-19T07:55:34.648Z</time></trkpt><trkpt lat="43.6040917" lon="11.3083517"><ele>218.66666666666669</ele><time>2026-04-19T07:55:36.652Z</time></trkpt><trkpt lat="43.6040917" lon="11.3084517"><ele>217.33333333333334</ele><time>2026-04-19T07:55:38.652Z</time></trkpt><trkpt lat="43.60407" lon="11.3085917"><ele>216.0</ele><time>2026-04-19T07:55:40.642Z</time></trkpt><trkpt lat="43.60404" lon="11.3086817"><ele>216.0</ele><time>2026-04-19T07:55:41.652Z</time></trkpt><trkpt lat="43.604" lon="11.3087933"><ele>216.00000000000003</ele><time>2026-04-19T07:55:42.644Z</time></trkpt><trkpt lat="43.6039417" lon="11.3089283"><ele>216.00000000000003</ele><time>2026-04-19T07:55:43.653Z</time></trkpt><trkpt lat="43.6038733" lon="11.30905"><ele>216.0</ele><time>2026-04-19T07:55:44.65Z</time></trkpt><trkpt lat="43.6037867" lon="11.3091767"><ele>216.0</ele><time>2026-04-19T07:55:45.649Z</time></trkpt><trkpt lat="43.6036817" lon="11.3093083"><ele>215.0</ele><time>2026-04-19T07:55:46.645Z</time></trkpt><trkpt lat="43.6035567" lon="11.3094333"><ele>214.0</ele><time>2026-04-19T07:55:47.651Z</time></trkpt><trkpt lat="43.6034167" lon="11.3095433"><ele>213.0</ele><time>2026-04-19T07:55:48.648Z</time></trkpt><trkpt lat="43.6032833" lon="11.3096233"><ele>213.0</ele><time>2026-04-19T07:55:49.65Z</time></trkpt><trkpt lat="43.6031433" lon="11.309715"><ele>213.0</ele><time>2026-04-19T07:55:50.648Z</time></trkpt><trkpt lat="43.60299" lon="11.309775"><ele>213.0</ele><time>2026-04-19T07:55:51.647Z</time></trkpt><trkpt lat="43.6028633" lon="11.3098017"><ele>213.0</ele><time>2026-04-19T07:55:52.661Z</time></trkpt><trkpt lat="43.602725" lon="11.309795"><ele>213.2</ele><time>2026-04-19T07:55:53.645Z</time></trkpt><trkpt lat="43.602615" lon="11.3098033"><ele>213.4</ele><time>2026-04-19T07:55:54.648Z</time></trkpt><trkpt lat="43.6025183" lon="11.3097533"><ele>213.59999999999997</ele><time>2026-04-19T07:55:55.653Z</time></trkpt><trkpt lat="43.6024233" lon="11.3096983"><ele>213.79999999999998</ele><time>2026-04-19T07:55:56.651Z</time></trkpt><trkpt lat="43.6023367" lon="11.3096267"><ele>214.0</ele><time>2026-04-19T07:55:57.65Z</time></trkpt><trkpt lat="43.602265" lon="11.30953"><ele>213.6</ele><time>2026-04-19T07:55:58.647Z</time></trkpt><trkpt lat="43.60221" lon="11.3094383"><ele>213.2</ele><time>2026-04-19T07:55:59.651Z</time></trkpt><trkpt lat="43.60219" lon="11.3092883"><ele>212.79999999999998</ele><time>2026-04-19T07:56:00.644Z</time></trkpt><trkpt lat="43.6021717" lon="11.3091367"><ele>212.39999999999998</ele><time>2026-04-19T07:56:01.654Z</time></trkpt><trkpt lat="43.60216" lon="11.3089767"><ele>212.0</ele><time>2026-04-19T07:56:02.65Z</time></trkpt><trkpt lat="43.6021667" lon="11.3088267"><ele>211.8</ele><time>2026-04-19T07:56:03.647Z</time></trkpt><trkpt lat="43.6021433" lon="11.3086967"><ele>211.6</ele><time>2026-04-19T07:56:04.65Z</time></trkpt><trkpt lat="43.6021133" lon="11.3085517"><ele>211.4</ele><time>2026-04-19T07:56:05.648Z</time></trkpt><trkpt lat="43.6020883" lon="11.3084217"><ele>211.20000000000002</ele><time>2026-04-19T07:56:06.651Z</time></trkpt><trkpt lat="43.6020417" lon="11.3082933"><ele>211.0</ele><time>2026-04-19T07:56:07.651Z</time></trkpt><trkpt lat="43.6020017" lon="11.3081617"><ele>212.83333333333331</ele><time>2026-04-19T07:56:08.642Z</time></trkpt><trkpt lat="43.60197" lon="11.3080233"><ele>214.66666666666666</ele><time>2026-04-19T07:56:09.648Z</time></trkpt><trkpt lat="43.60194" lon="11.307895"><ele>216.5</ele><time>2026-04-19T07:56:10.645Z</time></trkpt><trkpt lat="43.601915" lon="11.30778"><ele>218.33333333333331</ele><time>2026-04-19T07:56:11.643Z</time></trkpt><trkpt lat="43.6018817" lon="11.30768"><ele>220.16666666666666</ele><time>2026-04-19T07:56:12.647Z</time></trkpt><trkpt lat="43.6018567" lon="11.3075917"><ele>222.0</ele><time>2026-04-19T07:56:13.646Z</time></trkpt><trkpt lat="43.6018117" lon="11.3075"><ele>222.0</ele><time>2026-04-19T07:56:14.648Z</time></trkpt><trkpt lat="43.6017267" lon="11.307355"><ele>222.0</ele><time>2026-04-19T07:56:16.653Z</time></trkpt><trkpt lat="43.6016617" lon="11.30718"><ele>222.0</ele><time>2026-04-19T07:56:18.646Z</time></trkpt><trkpt lat="43.6016083" lon="11.3070533"><ele>222.0</ele><time>2026-04-19T07:56:19.649Z</time></trkpt><trkpt lat="43.6015533" lon="11.3069283"><ele>221.2</ele><time>2026-04-19T07:56:20.643Z</time></trkpt><trkpt lat="43.601535" lon="11.30683"><ele>220.39999999999998</ele><time>2026-04-19T07:56:21.647Z</time></trkpt><trkpt lat="43.6015483" lon="11.3066433"><ele>219.60000000000002</ele><time>2026-04-19T07:56:23.649Z</time></trkpt><trkpt lat="43.601565" lon="11.306495"><ele>218.8</ele><time>2026-04-19T07:56:24.648Z</time></trkpt><trkpt lat="43.6015867" lon="11.3063633"><ele>218.0</ele><time>2026-04-19T07:56:25.647Z</time></trkpt><trkpt lat="43.6015917" lon="11.3062383"><ele>217.50000000000003</ele><time>2026-04-19T07:56:26.65Z</time></trkpt><trkpt lat="43.6015933" lon="11.3061133"><ele>217.0</ele><time>2026-04-19T07:56:27.652Z</time></trkpt><trkpt lat="43.6015917" lon="11.306"><ele>216.5</ele><time>2026-04-19T07:56:28.65Z</time></trkpt><trkpt lat="43.60158" lon="11.305905"><ele>216.0</ele><time>2026-04-19T07:56:29.643Z</time></trkpt><trkpt lat="43.601565" lon="11.3058033"><ele>215.50000000000003</ele><time>2026-04-19T07:56:30.648Z</time></trkpt><trkpt lat="43.601465" lon="11.3057017"><ele>215.0</ele><time>2026-04-19T07:56:32.644Z</time></trkpt><trkpt lat="43.6013933" lon="11.3056867"><ele>215.0</ele><time>2026-04-19T07:56:33.648Z</time></trkpt><trkpt lat="43.6012133" lon="11.3057933"><ele>215.0</ele><time>2026-04-19T07:56:34.65Z</time></trkpt><trkpt lat="43.601105" lon="11.3058033"><ele>215.0</ele><time>2026-04-19T07:56:35.649Z</time></trkpt><trkpt lat="43.600985" lon="11.30581"><ele>215.0</ele><time>2026-04-19T07:56:36.649Z</time></trkpt><trkpt lat="43.6008467" lon="11.3058117"><ele>217.75</ele><time>2026-04-19T07:56:37.653Z</time></trkpt><trkpt lat="43.60072" lon="11.3058133"><ele>220.5</ele><time>2026-04-19T07:56:38.649Z</time></trkpt><trkpt lat="43.6005783" lon="11.3058167"><ele>223.25</ele><time>2026-04-19T07:56:39.642Z</time></trkpt><trkpt lat="43.600435" lon="11.3058383"><ele>226.0</ele><time>2026-04-19T07:56:40.644Z</time></trkpt><trkpt lat="43.600305" lon="11.305845"><ele>228.0</ele><time>2026-04-19T07:56:41.646Z</time></trkpt><trkpt lat="43.600185" lon="11.30585"><ele>230.0</ele><time>2026-04-19T07:56:42.645Z</time></trkpt><trkpt lat="43.600065" lon="11.3058783"><ele>232.0</ele><time>2026-04-19T07:56:43.646Z</time></trkpt><trkpt lat="43.599955" lon="11.3059083"><ele>234.0</ele><time>2026-04-19T07:56:44.647Z</time></trkpt><trkpt lat="43.5998333" lon="11.3059367"><ele>234.0</ele><time>2026-04-19T07:56:45.648Z</time></trkpt><trkpt lat="43.59977" lon="11.3059967"><ele>233.99999999999997</ele><time>2026-04-19T07:56:46.648Z</time></trkpt><trkpt lat="43.5996883" lon="11.30614"><ele>233.99999999999997</ele><time>2026-04-19T07:56:48.649Z</time></trkpt><trkpt lat="43.599625" lon="11.3062883"><ele>234.0</ele><time>2026-04-19T07:56:50.645Z</time></trkpt><trkpt lat="43.599555" lon="11.3063717"><ele>234.0</ele><time>2026-04-19T07:56:51.649Z</time></trkpt><trkpt lat="43.5994817" lon="11.3064517"><ele>234.66666666666666</ele><time>2026-04-19T07:56:52.644Z</time></trkpt><trkpt lat="43.599395" lon="11.3065067"><ele>235.33333333333331</ele><time>2026-04-19T07:56:53.647Z</time></trkpt><trkpt lat="43.5993133" lon="11.3065483"><ele>236.0</ele><time>2026-04-19T07:56:54.648Z</time></trkpt><trkpt lat="43.599215" lon="11.3065867"><ele>236.66666666666666</ele><time>2026-04-19T07:56:55.651Z</time></trkpt><trkpt lat="43.59913" lon="11.3065967"><ele>237.33333333333331</ele><time>2026-04-19T07:56:56.651Z</time></trkpt><trkpt lat="43.5990683" lon="11.3066267"><ele>238.0</ele><time>2026-04-19T07:56:57.649Z</time></trkpt><trkpt lat="43.5989917" lon="11.3066683"><ele>237.99999999999997</ele><time>2026-04-19T07:56:58.649Z</time></trkpt><trkpt lat="43.5989017" lon="11.306715"><ele>238.0</ele><time>2026-04-19T07:56:59.65Z</time></trkpt><trkpt lat="43.598825" lon="11.3067767"><ele>238.0</ele><time>2026-04-19T07:57:00.653Z</time></trkpt><trkpt lat="43.5987683" lon="11.3068367"><ele>238.0</ele><time>2026-04-19T07:57:01.645Z</time></trkpt><trkpt lat="43.5987083" lon="11.3068967"><ele>237.99999999999997</ele><time>2026-04-19T07:57:02.65Z</time></trkpt><trkpt lat="43.598665" lon="11.30696"><ele>238.0</ele><time>2026-04-19T07:57:03.646Z</time></trkpt><trkpt lat="43.5986067" lon="11.3070867"><ele>239.2</ele><time>2026-04-19T07:57:05.643Z</time></trkpt><trkpt lat="43.5985783" lon="11.3072333"><ele>240.4</ele><time>2026-04-19T07:57:07.651Z</time></trkpt><trkpt lat="43.5985233" lon="11.3073617"><ele>241.59999999999997</ele><time>2026-04-19T07:57:09.649Z</time></trkpt><trkpt lat="43.59844" lon="11.3074733"><ele>242.79999999999998</ele><time>2026-04-19T07:57:11.647Z</time></trkpt><trkpt lat="43.5983917" lon="11.3075367"><ele>244.0</ele><time>2026-04-19T07:57:12.652Z</time></trkpt><trkpt lat="43.5983333" lon="11.30758"><ele>245.66666666666666</ele><time>2026-04-19T07:57:13.65Z</time></trkpt><trkpt lat="43.5982717" lon="11.307625"><ele>247.33333333333331</ele><time>2026-04-19T07:57:14.649Z</time></trkpt><trkpt lat="43.5981933" lon="11.307665"><ele>249.0</ele><time>2026-04-19T07:57:15.65Z</time></trkpt><trkpt lat="43.5981217" lon="11.3077067"><ele>250.66666666666669</ele><time>2026-04-19T07:57:16.65Z</time></trkpt><trkpt lat="43.5980417" lon="11.3077467"><ele>252.33333333333334</ele><time>2026-04-19T07:57:17.647Z</time></trkpt><trkpt lat="43.5979517" lon="11.3077867"><ele>254.0</ele><time>2026-04-19T07:57:18.649Z</time></trkpt><trkpt lat="43.5978583" lon="11.3078167"><ele>255.0</ele><time>2026-04-19T07:57:19.643Z</time></trkpt><trkpt lat="43.59777" lon="11.307845"><ele>255.99999999999997</ele><time>2026-04-19T07:57:20.645Z</time></trkpt><trkpt lat="43.5976833" lon="11.3078667"><ele>257.0</ele><time>2026-04-19T07:57:21.646Z</time></trkpt><trkpt lat="43.5975783" lon="11.3078783"><ele>258.0</ele><time>2026-04-19T07:57:22.649Z</time></trkpt><trkpt lat="43.5974767" lon="11.3078817"><ele>259.0</ele><time>2026-04-19T07:57:23.645Z</time></trkpt><trkpt lat="43.597375" lon="11.30789"><ele>259.0</ele><time>2026-04-19T07:57:24.65Z</time></trkpt><trkpt lat="43.5972817" lon="11.307915"><ele>259.0</ele><time>2026-04-19T07:57:25.651Z</time></trkpt><trkpt lat="43.59718" lon="11.3079383"><ele>259.0</ele><time>2026-04-19T07:57:26.649Z</time></trkpt><trkpt lat="43.5970683" lon="11.3079633"><ele>259.0</ele><time>2026-04-19T07:57:27.649Z</time></trkpt><trkpt lat="43.596955" lon="11.3079967"><ele>259.0</ele><time>2026-04-19T07:57:28.651Z</time></trkpt><trkpt lat="43.5968417" lon="11.30802"><ele>259.8</ele><time>2026-04-19T07:57:29.652Z</time></trkpt><trkpt lat="43.596735" lon="11.308045"><ele>260.59999999999997</ele><time>2026-04-19T07:57:30.645Z</time></trkpt><trkpt lat="43.5966317" lon="11.3080683"><ele>261.4</ele><time>2026-04-19T07:57:31.648Z</time></trkpt><trkpt lat="43.596535" lon="11.3080917"><ele>262.2</ele><time>2026-04-19T07:57:32.651Z</time></trkpt><trkpt lat="43.59644" lon="11.3081167"><ele>263.0</ele><time>2026-04-19T07:57:33.648Z</time></trkpt><trkpt lat="43.5963567" lon="11.3081367"><ele>263.33333333333337</ele><time>2026-04-19T07:57:34.651Z</time></trkpt><trkpt lat="43.5962817" lon="11.30816"><ele>263.6666666666667</ele><time>2026-04-19T07:57:35.652Z</time></trkpt><trkpt lat="43.5962067" lon="11.3081717"><ele>264.0</ele><time>2026-04-19T07:57:36.651Z</time></trkpt><trkpt lat="43.5961533" lon="11.3080783"><ele>264.3333333333333</ele><time>2026-04-19T07:57:38.651Z</time></trkpt><trkpt lat="43.596135" lon="11.3079917"><ele>264.66666666666663</ele><time>2026-04-19T07:57:40.645Z</time></trkpt><trkpt lat="43.596135" lon="11.30787"><ele>265.0</ele><time>2026-04-19T07:57:42.648Z</time></trkpt><trkpt lat="43.596125" lon="11.3077617"><ele>266.25</ele><time>2026-04-19T07:57:44.65Z</time></trkpt><trkpt lat="43.5960917" lon="11.3076567"><ele>267.5</ele><time>2026-04-19T07:57:46.649Z</time></trkpt><trkpt lat="43.5959483" lon="11.3076783"><ele>268.75</ele><time>2026-04-19T07:57:48.652Z</time></trkpt><trkpt lat="43.5958267" lon="11.3077283"><ele>270.0</ele><time>2026-04-19T07:57:49.644Z</time></trkpt><trkpt lat="43.5956583" lon="11.3078167"><ele>270.0</ele><time>2026-04-19T07:57:50.66Z</time></trkpt><trkpt lat="43.595535" lon="11.307835"><ele>270.0</ele><time>2026-04-19T07:57:51.66Z</time></trkpt><trkpt lat="43.5954217" lon="11.3078567"><ele>270.0</ele><time>2026-04-19T07:57:52.671Z</time></trkpt><trkpt lat="43.59531" lon="11.307915"><ele>270.0</ele><time>2026-04-19T07:57:53.668Z</time></trkpt><trkpt lat="43.5952317" lon="11.307955"><ele>270.0</ele><time>2026-04-19T07:57:54.657Z</time></trkpt><trkpt lat="43.5951583" lon="11.308"><ele>270.1666666666667</ele><time>2026-04-19T07:57:55.66Z</time></trkpt><trkpt lat="43.5951" lon="11.308065"><ele>270.3333333333333</ele><time>2026-04-19T07:57:56.655Z</time></trkpt><trkpt lat="43.59507" lon="11.3081417"><ele>270.5</ele><time>2026-04-19T07:57:57.649Z</time></trkpt><trkpt lat="43.5950417" lon="11.308225"><ele>270.66666666666663</ele><time>2026-04-19T07:57:58.649Z</time></trkpt><trkpt lat="43.5950233" lon="11.3083767"><ele>270.8333333333333</ele><time>2026-04-19T07:58:00.647Z</time></trkpt><trkpt lat="43.5949883" lon="11.3084867"><ele>271.0</ele><time>2026-04-19T07:58:02.648Z</time></trkpt><trkpt lat="43.5949067" lon="11.30854"><ele>270.5</ele><time>2026-04-19T07:58:04.65Z</time></trkpt><trkpt lat="43.5948467" lon="11.3085683"><ele>270.0</ele><time>2026-04-19T07:58:05.645Z</time></trkpt><trkpt lat="43.5947817" lon="11.30859"><ele>269.5</ele><time>2026-04-19T07:58:06.65Z</time></trkpt><trkpt lat="43.594705" lon="11.3086117"><ele>269.0</ele><time>2026-04-19T07:58:07.671Z</time></trkpt><trkpt lat="43.5946117" lon="11.30864"><ele>268.5</ele><time>2026-04-19T07:58:08.658Z</time></trkpt><trkpt lat="43.5945183" lon="11.30867"><ele>268.0</ele><time>2026-04-19T07:58:09.647Z</time></trkpt><trkpt lat="43.59444" lon="11.308695"><ele>267.0</ele><time>2026-04-19T07:58:10.651Z</time></trkpt><trkpt lat="43.5943767" lon="11.3087133"><ele>266.0</ele><time>2026-04-19T07:58:11.645Z</time></trkpt><trkpt lat="43.59428" lon="11.3087383"><ele>265.0</ele><time>2026-04-19T07:58:13.647Z</time></trkpt><trkpt lat="43.59421" lon="11.3086883"><ele>264.0</ele><time>2026-04-19T07:58:16.651Z</time></trkpt><trkpt lat="43.5942117" lon="11.3085833"><ele>263.0</ele><time>2026-04-19T07:58:19.647Z</time></trkpt><trkpt lat="43.5942167" lon="11.308475"><ele>262.0</ele><time>2026-04-19T07:58:21.645Z</time></trkpt><trkpt lat="43.59424" lon="11.3083067"><ele>262.0</ele><time>2026-04-19T07:58:23.647Z</time></trkpt><trkpt lat="43.59425" lon="11.3082083"><ele>262.0</ele><time>2026-04-19T07:58:24.649Z</time></trkpt><trkpt lat="43.5942567" lon="11.3081083"><ele>262.0</ele><time>2026-04-19T07:58:25.653Z</time></trkpt><trkpt lat="43.5942667" lon="11.308005"><ele>262.0</ele><time>2026-04-19T07:58:26.651Z</time></trkpt><trkpt lat="43.5942817" lon="11.3078833"><ele>262.0</ele><time>2026-04-19T07:58:27.647Z</time></trkpt><trkpt lat="43.594305" lon="11.307755"><ele>262.0</ele><time>2026-04-19T07:58:28.651Z</time></trkpt><trkpt lat="43.5943233" lon="11.307615"><ele>262.75</ele><time>2026-04-19T07:58:29.65Z</time></trkpt><trkpt lat="43.5943483" lon="11.3074633"><ele>263.5</ele><time>2026-04-19T07:58:30.649Z</time></trkpt><trkpt lat="43.5943733" lon="11.3073"><ele>264.25</ele><time>2026-04-19T07:58:31.648Z</time></trkpt><trkpt lat="43.5943983" lon="11.3071333"><ele>265.0</ele><time>2026-04-19T07:58:32.65Z</time></trkpt><trkpt lat="43.594415" lon="11.3069717"><ele>266.0</ele><time>2026-04-19T07:58:33.646Z</time></trkpt><trkpt lat="43.59443" lon="11.306805"><ele>267.0</ele><time>2026-04-19T07:58:34.654Z</time></trkpt><trkpt lat="43.5944417" lon="11.3066267"><ele>268.0</ele><time>2026-04-19T07:58:35.646Z</time></trkpt><trkpt lat="43.5944567" lon="11.30645"><ele>269.0</ele><time>2026-04-19T07:58:36.646Z</time></trkpt><trkpt lat="43.5944717" lon="11.3062617"><ele>269.0</ele><time>2026-04-19T07:58:37.655Z</time></trkpt><trkpt lat="43.5944883" lon="11.3060683"><ele>269.0</ele><time>2026-04-19T07:58:38.65Z</time></trkpt><trkpt lat="43.5944983" lon="11.3058683"><ele>269.0</ele><time>2026-04-19T07:58:39.644Z</time></trkpt><trkpt lat="43.5944983" lon="11.3056733"><ele>269.0</ele><time>2026-04-19T07:58:40.645Z</time></trkpt><trkpt lat="43.5944967" lon="11.3054783"><ele>270.0</ele><time>2026-04-19T07:58:41.645Z</time></trkpt><trkpt lat="43.5944933" lon="11.3052833"><ele>271.0</ele><time>2026-04-19T07:58:42.649Z</time></trkpt><trkpt lat="43.5944883" lon="11.3050917"><ele>272.0</ele><time>2026-04-19T07:58:43.649Z</time></trkpt><trkpt lat="43.5944817" lon="11.30491"><ele>273.0</ele><time>2026-04-19T07:58:44.651Z</time></trkpt><trkpt lat="43.5944767" lon="11.3047367"><ele>274.4</ele><time>2026-04-19T07:58:45.652Z</time></trkpt><trkpt lat="43.59447" lon="11.3045717"><ele>275.8</ele><time>2026-04-19T07:58:46.652Z</time></trkpt><trkpt lat="43.59447" lon="11.3044133"><ele>277.2</ele><time>2026-04-19T07:58:47.643Z</time></trkpt><trkpt lat="43.5944717" lon="11.30427"><ele>278.6</ele><time>2026-04-19T07:58:48.648Z</time></trkpt><trkpt lat="43.5944683" lon="11.30415"><ele>280.0</ele><time>2026-04-19T07:58:49.645Z</time></trkpt><trkpt lat="43.5944517" lon="11.304055"><ele>280.0</ele><time>2026-04-19T07:58:50.65Z</time></trkpt><trkpt lat="43.59439" lon="11.3039217"><ele>280.0</ele><time>2026-04-19T07:58:52.648Z</time></trkpt><trkpt lat="43.594305" lon="11.3038133"><ele>280.0</ele><time>2026-04-19T07:58:54.653Z</time></trkpt><trkpt lat="43.594255" lon="11.30375"><ele>280.0</ele><time>2026-04-19T07:58:55.652Z</time></trkpt><trkpt lat="43.5942083" lon="11.3036783"><ele>280.0</ele><time>2026-04-19T07:58:56.652Z</time></trkpt><trkpt lat="43.5941533" lon="11.303605"><ele>280.0</ele><time>2026-04-19T07:58:57.651Z</time></trkpt><trkpt lat="43.5941" lon="11.303525"><ele>281.4</ele><time>2026-04-19T07:58:58.656Z</time></trkpt><trkpt lat="43.594045" lon="11.3034417"><ele>282.8</ele><time>2026-04-19T07:58:59.649Z</time></trkpt><trkpt lat="43.5939817" lon="11.303345"><ele>284.2</ele><time>2026-04-19T07:59:00.65Z</time></trkpt><trkpt lat="43.5939133" lon="11.3032433"><ele>285.6</ele><time>2026-04-19T07:59:01.65Z</time></trkpt><trkpt lat="43.5938483" lon="11.3031483"><ele>287.0</ele><time>2026-04-19T07:59:02.648Z</time></trkpt><trkpt lat="43.5937817" lon="11.3030483"><ele>286.8</ele><time>2026-04-19T07:59:03.653Z</time></trkpt><trkpt lat="43.5937167" lon="11.302965"><ele>286.6</ele><time>2026-04-19T07:59:04.651Z</time></trkpt><trkpt lat="43.593645" lon="11.3028867"><ele>286.40000000000003</ele><time>2026-04-19T07:59:05.651Z</time></trkpt><trkpt lat="43.5935583" lon="11.30281"><ele>286.2</ele><time>2026-04-19T07:59:06.653Z</time></trkpt><trkpt lat="43.5934767" lon="11.302735"><ele>286.0</ele><time>2026-04-19T07:59:07.653Z</time></trkpt><trkpt lat="43.593405" lon="11.3026517"><ele>286.0</ele><time>2026-04-19T07:59:08.651Z</time></trkpt><trkpt lat="43.593335" lon="11.3025733"><ele>286.0</ele><time>2026-04-19T07:59:09.646Z</time></trkpt><trkpt lat="43.593255" lon="11.3024717"><ele>286.0</ele><time>2026-04-19T07:59:10.645Z</time></trkpt><trkpt lat="43.5931733" lon="11.3023683"><ele>286.0</ele><time>2026-04-19T07:59:11.644Z</time></trkpt><trkpt lat="43.5930933" lon="11.30227"><ele>286.0</ele><time>2026-04-19T07:59:12.647Z</time></trkpt><trkpt lat="43.5930067" lon="11.3021717"><ele>286.5</ele><time>2026-04-19T07:59:13.65Z</time></trkpt><trkpt lat="43.59291" lon="11.3020633"><ele>287.0</ele><time>2026-04-19T07:59:14.649Z</time></trkpt><trkpt lat="43.59282" lon="11.301955"><ele>287.5</ele><time>2026-04-19T07:59:15.65Z</time></trkpt><trkpt lat="43.5927383" lon="11.30184"><ele>288.0</ele><time>2026-04-19T07:59:16.654Z</time></trkpt><trkpt lat="43.592665" lon="11.3017267"><ele>288.0</ele><time>2026-04-19T07:59:17.649Z</time></trkpt><trkpt lat="43.5926117" lon="11.3016217"><ele>288.0</ele><time>2026-04-19T07:59:18.645Z</time></trkpt><trkpt lat="43.5925517" lon="11.301515"><ele>288.0</ele><time>2026-04-19T07:59:19.647Z</time></trkpt><trkpt lat="43.5924867" lon="11.301375"><ele>288.0</ele><time>2026-04-19T07:59:20.654Z</time></trkpt><trkpt lat="43.5924133" lon="11.30125"><ele>288.0</ele><time>2026-04-19T07:59:21.65Z</time></trkpt><trkpt lat="43.5923333" lon="11.3011233"><ele>291.0</ele><time>2026-04-19T07:59:22.648Z</time></trkpt><trkpt lat="43.5922567" lon="11.3009733"><ele>294.0</ele><time>2026-04-19T07:59:23.652Z</time></trkpt><trkpt lat="43.5921917" lon="11.300815"><ele>297.0</ele><time>2026-04-19T07:59:24.65Z</time></trkpt><trkpt lat="43.5921317" lon="11.3006517"><ele>300.0</ele><time>2026-04-19T07:59:25.652Z</time></trkpt><trkpt lat="43.5920783" lon="11.3005017"><ele>297.0</ele><time>2026-04-19T07:59:26.653Z</time></trkpt><trkpt lat="43.5920467" lon="11.300335"><ele>294.0</ele><time>2026-04-19T07:59:27.649Z</time></trkpt><trkpt lat="43.5920183" lon="11.3001983"><ele>291.0</ele><time>2026-04-19T07:59:28.641Z</time></trkpt><trkpt lat="43.5919867" lon="11.3000683"><ele>288.0</ele><time>2026-04-19T07:59:29.653Z</time></trkpt><trkpt lat="43.5919533" lon="11.2999433"><ele>285.0</ele><time>2026-04-19T07:59:30.646Z</time></trkpt><trkpt lat="43.59191" lon="11.2998417"><ele>285.0</ele><time>2026-04-19T07:59:31.649Z</time></trkpt><trkpt lat="43.59188" lon="11.2997517"><ele>285.0</ele><time>2026-04-19T07:59:32.652Z</time></trkpt><trkpt lat="43.5918533" lon="11.29967"><ele>285.0</ele><time>2026-04-19T07:59:33.651Z</time></trkpt><trkpt lat="43.5918283" lon="11.299585"><ele>285.0</ele><time>2026-04-19T07:59:34.651Z</time></trkpt><trkpt lat="43.5917983" lon="11.2994967"><ele>285.0</ele><time>2026-04-19T07:59:35.645Z</time></trkpt><trkpt lat="43.5917733" lon="11.299415"><ele>285.0</ele><time>2026-04-19T07:59:36.643Z</time></trkpt><trkpt lat="43.5917533" lon="11.29933"><ele>285.0</ele><time>2026-04-19T07:59:37.645Z</time></trkpt><trkpt lat="43.591735" lon="11.2992467"><ele>286.1428571428571</ele><time>2026-04-19T07:59:38.643Z</time></trkpt><trkpt lat="43.591715" lon="11.2991483"><ele>287.2857142857143</ele><time>2026-04-19T07:59:39.646Z</time></trkpt><trkpt lat="43.591695" lon="11.2990383"><ele>288.42857142857144</ele><time>2026-04-19T07:59:40.649Z</time></trkpt><trkpt lat="43.5916717" lon="11.298945"><ele>289.57142857142856</ele><time>2026-04-19T07:59:41.649Z</time></trkpt><trkpt lat="43.5916467" lon="11.2988467"><ele>290.7142857142857</ele><time>2026-04-19T07:59:42.645Z</time></trkpt><trkpt lat="43.59162" lon="11.2987517"><ele>291.85714285714283</ele><time>2026-04-19T07:59:43.646Z</time></trkpt><trkpt lat="43.5915917" lon="11.2986667"><ele>293.0</ele><time>2026-04-19T07:59:44.653Z</time></trkpt><trkpt lat="43.5915517" lon="11.2985"><ele>293.5</ele><time>2026-04-19T07:59:46.651Z</time></trkpt><trkpt lat="43.5915433" lon="11.2983683"><ele>294.0</ele><time>2026-04-19T07:59:48.646Z</time></trkpt><trkpt lat="43.5915217" lon="11.2982783"><ele>294.5</ele><time>2026-04-19T08:00:03.646Z</time></trkpt><trkpt lat="43.5914567" lon="11.2982567"><ele>295.0</ele><time>2026-04-19T08:00:05.651Z</time></trkpt><trkpt lat="43.59154" lon="11.2982917"><ele>295.5</ele><time>2026-04-19T08:01:25.649Z</time></trkpt><trkpt lat="43.5914617" lon="11.298325"><ele>296.0</ele><time>2026-04-19T08:01:55.645Z</time></trkpt><trkpt lat="43.5914167" lon="11.2983883"><ele>296.0</ele><time>2026-04-19T08:02:08.644Z</time></trkpt><trkpt lat="43.59138" lon="11.2983067"><ele>296.0</ele><time>2026-04-19T08:02:10.651Z</time></trkpt><trkpt lat="43.5913367" lon="11.29814"><ele>296.0</ele><time>2026-04-19T08:02:12.653Z</time></trkpt><trkpt lat="43.5913117" lon="11.2980117"><ele>296.0</ele><time>2026-04-19T08:02:13.652Z</time></trkpt><trkpt lat="43.5912983" lon="11.297885"><ele>296.0</ele><time>2026-04-19T08:02:14.65Z</time></trkpt><trkpt lat="43.5913017" lon="11.29774"><ele>295.0</ele><time>2026-04-19T08:02:15.65Z</time></trkpt><trkpt lat="43.5913083" lon="11.29758"><ele>294.0</ele><time>2026-04-19T08:02:16.647Z</time></trkpt><trkpt lat="43.5913217" lon="11.2974183"><ele>293.0</ele><time>2026-04-19T08:02:17.644Z</time></trkpt><trkpt lat="43.59134" lon="11.2972567"><ele>292.0</ele><time>2026-04-19T08:02:18.651Z</time></trkpt><trkpt lat="43.5913433" lon="11.297125"><ele>291.0</ele><time>2026-04-19T08:02:19.648Z</time></trkpt><trkpt lat="43.591345" lon="11.2970233"><ele>290.0</ele><time>2026-04-19T08:02:20.647Z</time></trkpt><trkpt lat="43.59133" lon="11.296905"><ele>289.0</ele><time>2026-04-19T08:02:22.648Z</time></trkpt><trkpt lat="43.5912683" lon="11.29674"><ele>288.0</ele><time>2026-04-19T08:02:24.652Z</time></trkpt><trkpt lat="43.591235" lon="11.2966267"><ele>287.0</ele><time>2026-04-19T08:02:25.652Z</time></trkpt><trkpt lat="43.591205" lon="11.296515"><ele>286.0</ele><time>2026-04-19T08:02:26.644Z</time></trkpt><trkpt lat="43.5911717" lon="11.2963933"><ele>286.0</ele><time>2026-04-19T08:02:27.649Z</time></trkpt><trkpt lat="43.5911367" lon="11.2962817"><ele>286.0</ele><time>2026-04-19T08:02:28.654Z</time></trkpt><trkpt lat="43.591095" lon="11.2961933"><ele>286.0</ele><time>2026-04-19T08:02:29.651Z</time></trkpt><trkpt lat="43.59105" lon="11.2961067"><ele>286.0</ele><time>2026-04-19T08:02:30.65Z</time></trkpt><trkpt lat="43.5910183" lon="11.29603"><ele>286.0</ele><time>2026-04-19T08:02:31.649Z</time></trkpt><trkpt lat="43.5910017" lon="11.295945"><ele>286.0</ele><time>2026-04-19T08:02:32.652Z</time></trkpt><trkpt lat="43.5910033" lon="11.2958017"><ele>286.0</ele><time>2026-04-19T08:02:34.652Z</time></trkpt><trkpt lat="43.5910567" lon="11.2957"><ele>286.0</ele><time>2026-04-19T08:02:36.646Z</time></trkpt><trkpt lat="43.5911067" lon="11.2956467"><ele>286.0</ele><time>2026-04-19T08:02:37.648Z</time></trkpt><trkpt lat="43.5911833" lon="11.2955833"><ele>286.0</ele><time>2026-04-19T08:02:38.646Z</time></trkpt><trkpt lat="43.5912383" lon="11.2955283"><ele>286.0</ele><time>2026-04-19T08:02:39.651Z</time></trkpt><trkpt lat="43.5913217" lon="11.2954317"><ele>286.0</ele><time>2026-04-19T08:02:41.645Z</time></trkpt><trkpt lat="43.5913733" lon="11.2953667"><ele>288.3333333333333</ele><time>2026-04-19T08:02:43.653Z</time></trkpt><trkpt lat="43.5912867" lon="11.2952917"><ele>290.66666666666663</ele><time>2026-04-19T08:02:46.651Z</time></trkpt><trkpt lat="43.591235" lon="11.29524"><ele>293.0</ele><time>2026-04-19T08:02:47.643Z</time></trkpt><trkpt lat="43.591185" lon="11.2951867"><ele>295.3333333333333</ele><time>2026-04-19T08:02:48.649Z</time></trkpt><trkpt lat="43.5910833" lon="11.2950817"><ele>297.6666666666667</ele><time>2026-04-19T08:02:50.651Z</time></trkpt><trkpt lat="43.59103" lon="11.295025"><ele>300.0</ele><time>2026-04-19T08:02:51.651Z</time></trkpt><trkpt lat="43.5909817" lon="11.2949683"><ele>300.4285714285714</ele><time>2026-04-19T08:02:52.648Z</time></trkpt><trkpt lat="43.59091" lon="11.294895"><ele>300.85714285714283</ele><time>2026-04-19T08:02:54.651Z</time></trkpt><trkpt lat="43.5908367" lon="11.2948917"><ele>301.2857142857143</ele><time>2026-04-19T08:02:57.648Z</time></trkpt><trkpt lat="43.59077" lon="11.2948933"><ele>301.71428571428567</ele><time>2026-04-19T08:03:00.651Z</time></trkpt><trkpt lat="43.590705" lon="11.2948267"><ele>302.1428571428571</ele><time>2026-04-19T08:03:03.65Z</time></trkpt><trkpt lat="43.5906467" lon="11.2947833"><ele>302.57142857142856</ele><time>2026-04-19T08:03:05.645Z</time></trkpt><trkpt lat="43.590585" lon="11.2948117"><ele>303.0</ele><time>2026-04-19T08:03:07.65Z</time></trkpt><trkpt lat="43.5906533" lon="11.294845"><ele>303.0</ele><time>2026-04-19T08:03:14.647Z</time></trkpt><trkpt lat="43.59072" lon="11.2948767"><ele>303.0</ele><time>2026-04-19T08:03:16.653Z</time></trkpt><trkpt lat="43.5906767" lon="11.2948083"><ele>303.0</ele><time>2026-04-19T08:03:22.646Z</time></trkpt><trkpt lat="43.5906167" lon="11.2947133"><ele>303.0</ele><time>2026-04-19T08:03:24.652Z</time></trkpt><trkpt lat="43.590605" lon="11.2945783"><ele>303.0</ele><time>2026-04-19T08:03:26.655Z</time></trkpt><trkpt lat="43.5906217" lon="11.2944033"><ele>304.5</ele><time>2026-04-19T08:03:28.646Z</time></trkpt><trkpt lat="43.590625" lon="11.2943017"><ele>306.0</ele><time>2026-04-19T08:03:29.65Z</time></trkpt><trkpt lat="43.5906217" lon="11.2941967"><ele>307.5</ele><time>2026-04-19T08:03:30.651Z</time></trkpt><trkpt lat="43.5906183" lon="11.2940817"><ele>309.0</ele><time>2026-04-19T08:03:31.654Z</time></trkpt><trkpt lat="43.5906167" lon="11.2939583"><ele>310.5</ele><time>2026-04-19T08:03:32.647Z</time></trkpt><trkpt lat="43.5906183" lon="11.2938383"><ele>312.0</ele><time>2026-04-19T08:03:33.652Z</time></trkpt><trkpt lat="43.59062" lon="11.29372"><ele>313.3333333333333</ele><time>2026-04-19T08:03:34.656Z</time></trkpt><trkpt lat="43.59062" lon="11.293605"><ele>314.6666666666667</ele><time>2026-04-19T08:03:35.652Z</time></trkpt><trkpt lat="43.59062" lon="11.2934883"><ele>316.0</ele><time>2026-04-19T08:03:36.65Z</time></trkpt><trkpt lat="43.59062" lon="11.29337"><ele>317.33333333333337</ele><time>2026-04-19T08:03:37.648Z</time></trkpt><trkpt lat="43.5906217" lon="11.2932517"><ele>318.6666666666667</ele><time>2026-04-19T08:03:38.648Z</time></trkpt><trkpt lat="43.590625" lon="11.2931433"><ele>320.0</ele><time>2026-04-19T08:03:39.65Z</time></trkpt><trkpt lat="43.59062" lon="11.2930483"><ele>323.2</ele><time>2026-04-19T08:03:40.652Z</time></trkpt><trkpt lat="43.59061" lon="11.2929517"><ele>326.4</ele><time>2026-04-19T08:03:41.654Z</time></trkpt><trkpt lat="43.5905717" lon="11.2927867"><ele>329.6</ele><time>2026-04-19T08:03:43.652Z</time></trkpt><trkpt lat="43.5904983" lon="11.2927083"><ele>332.8</ele><time>2026-04-19T08:03:45.648Z</time></trkpt><trkpt lat="43.5904333" lon="11.2925967"><ele>336.0</ele><time>2026-04-19T08:03:47.655Z</time></trkpt><trkpt lat="43.5903633" lon="11.2924933"><ele>337.8</ele><time>2026-04-19T08:03:49.648Z</time></trkpt><trkpt lat="43.590275" lon="11.2924133"><ele>339.6</ele><time>2026-04-19T08:03:51.655Z</time></trkpt><trkpt lat="43.5901883" lon="11.2923917"><ele>341.4</ele><time>2026-04-19T08:03:53.647Z</time></trkpt><trkpt lat="43.59009" lon="11.2923083"><ele>343.2</ele><time>2026-04-19T08:03:55.652Z</time></trkpt><trkpt lat="43.5899933" lon="11.2922083"><ele>345.0</ele><time>2026-04-19T08:03:57.648Z</time></trkpt><trkpt lat="43.5899167" lon="11.2921383"><ele>348.8333333333333</ele><time>2026-04-19T08:03:59.651Z</time></trkpt><trkpt lat="43.5898633" lon="11.292075"><ele>352.6666666666667</ele><time>2026-04-19T08:04:02.651Z</time></trkpt><trkpt lat="43.5897933" lon="11.2920317"><ele>356.5</ele><time>2026-04-19T08:04:07.65Z</time></trkpt><trkpt lat="43.589735" lon="11.2919833"><ele>360.33333333333337</ele><time>2026-04-19T08:04:09.649Z</time></trkpt><trkpt lat="43.5896983" lon="11.2918667"><ele>364.1666666666667</ele><time>2026-04-19T08:04:13.649Z</time></trkpt><trkpt lat="43.5896733" lon="11.29175"><ele>368.0</ele><time>2026-04-19T08:04:15.642Z</time></trkpt><trkpt lat="43.5896467" lon="11.29161"><ele>368.0</ele><time>2026-04-19T08:04:17.646Z</time></trkpt><trkpt lat="43.5895967" lon="11.2914833"><ele>368.0</ele><time>2026-04-19T08:04:19.649Z</time></trkpt><trkpt lat="43.5895567" lon="11.29135"><ele>368.0</ele><time>2026-04-19T08:04:21.651Z</time></trkpt><trkpt lat="43.58953" lon="11.29127"><ele>368.0</ele><time>2026-04-19T08:04:22.643Z</time></trkpt><trkpt lat="43.58947" lon="11.2910767"><ele>368.0</ele><time>2026-04-19T08:04:24.646Z</time></trkpt><trkpt lat="43.5894283" lon="11.2909717"><ele>368.4</ele><time>2026-04-19T08:04:25.647Z</time></trkpt><trkpt lat="43.5893817" lon="11.290825"><ele>368.79999999999995</ele><time>2026-04-19T08:04:26.647Z</time></trkpt><trkpt lat="43.5893333" lon="11.2906983"><ele>369.2</ele><time>2026-04-19T08:04:27.649Z</time></trkpt><trkpt lat="43.5892733" lon="11.2905767"><ele>369.6</ele><time>2026-04-19T08:04:28.651Z</time></trkpt><trkpt lat="43.58921" lon="11.2904583"><ele>370.0</ele><time>2026-04-19T08:04:29.65Z</time></trkpt><trkpt lat="43.589165" lon="11.2903433"><ele>373.66666666666663</ele><time>2026-04-19T08:04:30.651Z</time></trkpt><trkpt lat="43.5891" lon="11.2902433"><ele>377.3333333333333</ele><time>2026-04-19T08:04:31.643Z</time></trkpt><trkpt lat="43.589045" lon="11.2901467"><ele>381.0</ele><time>2026-04-19T08:04:32.656Z</time></trkpt><trkpt lat="43.5889967" lon="11.29006"><ele>384.66666666666663</ele><time>2026-04-19T08:04:33.645Z</time></trkpt><trkpt lat="43.588945" lon="11.2899817"><ele>388.3333333333333</ele><time>2026-04-19T08:04:34.645Z</time></trkpt><trkpt lat="43.5888917" lon="11.2898917"><ele>392.0</ele><time>2026-04-19T08:04:35.645Z</time></trkpt><trkpt lat="43.5888267" lon="11.2898267"><ele>391.99999999999994</ele><time>2026-04-19T08:04:36.648Z</time></trkpt><trkpt lat="43.5887717" lon="11.289765"><ele>392.0</ele><time>2026-04-19T08:04:37.648Z</time></trkpt><trkpt lat="43.5887183" lon="11.2896983"><ele>392.0</ele><time>2026-04-19T08:04:38.651Z</time></trkpt><trkpt lat="43.5886533" lon="11.2895583"><ele>392.0</ele><time>2026-04-19T08:04:40.653Z</time></trkpt><trkpt lat="43.5886183" lon="11.2894783"><ele>391.99999999999994</ele><time>2026-04-19T08:04:41.652Z</time></trkpt><trkpt lat="43.588585" lon="11.2893967"><ele>392.0</ele><time>2026-04-19T08:04:42.656Z</time></trkpt><trkpt lat="43.5885583" lon="11.2893033"><ele>391.66666666666663</ele><time>2026-04-19T08:04:43.648Z</time></trkpt><trkpt lat="43.5885333" lon="11.289205"><ele>391.3333333333333</ele><time>2026-04-19T08:04:44.648Z</time></trkpt><trkpt lat="43.5885217" lon="11.2890967"><ele>391.0</ele><time>2026-04-19T08:04:45.647Z</time></trkpt><trkpt lat="43.58851" lon="11.28899"><ele>390.66666666666663</ele><time>2026-04-19T08:04:46.646Z</time></trkpt><trkpt lat="43.5885117" lon="11.2888917"><ele>390.3333333333333</ele><time>2026-04-19T08:04:47.647Z</time></trkpt><trkpt lat="43.588515" lon="11.2888033"><ele>390.0</ele><time>2026-04-19T08:04:48.65Z</time></trkpt><trkpt lat="43.58854" lon="11.2886733"><ele>390.0</ele><time>2026-04-19T08:04:50.648Z</time></trkpt><trkpt lat="43.588545" lon="11.2885533"><ele>390.0</ele><time>2026-04-19T08:04:53.652Z</time></trkpt><trkpt lat="43.588515" lon="11.2884383"><ele>390.0</ele><time>2026-04-19T08:04:55.645Z</time></trkpt><trkpt lat="43.5884433" lon="11.2882817"><ele>390.0</ele><time>2026-04-19T08:04:57.649Z</time></trkpt><trkpt lat="43.5883817" lon="11.28818"><ele>390.0</ele><time>2026-04-19T08:04:58.658Z</time></trkpt><trkpt lat="43.5883017" lon="11.2880767"><ele>391.8</ele><time>2026-04-19T08:04:59.648Z</time></trkpt><trkpt lat="43.5882367" lon="11.2879767"><ele>393.6</ele><time>2026-04-19T08:05:00.648Z</time></trkpt><trkpt lat="43.58817" lon="11.2878867"><ele>395.4</ele><time>2026-04-19T08:05:01.651Z</time></trkpt><trkpt lat="43.5880883" lon="11.2878167"><ele>397.2</ele><time>2026-04-19T08:05:02.646Z</time></trkpt><trkpt lat="43.5880067" lon="11.2877833"><ele>399.0</ele><time>2026-04-19T08:05:03.642Z</time></trkpt><trkpt lat="43.5879183" lon="11.2877733"><ele>398.6</ele><time>2026-04-19T08:05:04.645Z</time></trkpt><trkpt lat="43.5878367" lon="11.2877933"><ele>398.2</ele><time>2026-04-19T08:05:05.648Z</time></trkpt><trkpt lat="43.5877617" lon="11.2878317"><ele>397.8</ele><time>2026-04-19T08:05:06.654Z</time></trkpt><trkpt lat="43.5876667" lon="11.2879017"><ele>397.40000000000003</ele><time>2026-04-19T08:05:07.646Z</time></trkpt><trkpt lat="43.58757" lon="11.2879883"><ele>397.0</ele><time>2026-04-19T08:05:08.65Z</time></trkpt><trkpt lat="43.5874767" lon="11.2880483"><ele>395.8</ele><time>2026-04-19T08:05:09.653Z</time></trkpt><trkpt lat="43.5873783" lon="11.288105"><ele>394.6</ele><time>2026-04-19T08:05:10.651Z</time></trkpt><trkpt lat="43.5872767" lon="11.2881583"><ele>393.40000000000003</ele><time>2026-04-19T08:05:11.641Z</time></trkpt><trkpt lat="43.5871817" lon="11.2882133"><ele>392.20000000000005</ele><time>2026-04-19T08:05:12.654Z</time></trkpt><trkpt lat="43.5870817" lon="11.2882617"><ele>391.0</ele><time>2026-04-19T08:05:13.655Z</time></trkpt><trkpt lat="43.5869817" lon="11.2883033"><ele>391.0</ele><time>2026-04-19T08:05:14.655Z</time></trkpt><trkpt lat="43.5868867" lon="11.28835"><ele>391.0</ele><time>2026-04-19T08:05:15.649Z</time></trkpt><trkpt lat="43.5867917" lon="11.2883917"><ele>391.0</ele><time>2026-04-19T08:05:16.659Z</time></trkpt><trkpt lat="43.5867033" lon="11.28844"><ele>391.0</ele><time>2026-04-19T08:05:17.652Z</time></trkpt><trkpt lat="43.5866233" lon="11.2884917"><ele>391.0</ele><time>2026-04-19T08:05:18.648Z</time></trkpt><trkpt lat="43.5865533" lon="11.2885467"><ele>391.00000000000006</ele><time>2026-04-19T08:05:19.655Z</time></trkpt><trkpt lat="43.586485" lon="11.288595"><ele>391.0</ele><time>2026-04-19T08:05:20.653Z</time></trkpt><trkpt lat="43.58642" lon="11.28863"><ele>391.0</ele><time>2026-04-19T08:05:21.65Z</time></trkpt><trkpt lat="43.5863417" lon="11.2886667"><ele>391.0</ele><time>2026-04-19T08:05:22.649Z</time></trkpt><trkpt lat="43.5862583" lon="11.2887017"><ele>391.00000000000006</ele><time>2026-04-19T08:05:23.654Z</time></trkpt><trkpt lat="43.58618" lon="11.2887233"><ele>391.0</ele><time>2026-04-19T08:05:24.65Z</time></trkpt><trkpt lat="43.58611" lon="11.2887417"><ele>391.6666666666667</ele><time>2026-04-19T08:05:25.653Z</time></trkpt><trkpt lat="43.586" lon="11.28872"><ele>392.33333333333337</ele><time>2026-04-19T08:05:27.65Z</time></trkpt><trkpt lat="43.58594" lon="11.2886917"><ele>393.0</ele><time>2026-04-19T08:05:28.648Z</time></trkpt><trkpt lat="43.5858717" lon="11.2886533"><ele>393.66666666666663</ele><time>2026-04-19T08:05:29.644Z</time></trkpt><trkpt lat="43.5858067" lon="11.2886167"><ele>394.3333333333333</ele><time>2026-04-19T08:05:30.649Z</time></trkpt><trkpt lat="43.5857367" lon="11.28857"><ele>395.0</ele><time>2026-04-19T08:05:31.643Z</time></trkpt><trkpt lat="43.5856667" lon="11.2885133"><ele>395.0</ele><time>2026-04-19T08:05:32.651Z</time></trkpt><trkpt lat="43.5855883" lon="11.28843"><ele>395.0</ele><time>2026-04-19T08:05:33.644Z</time></trkpt><trkpt lat="43.5855067" lon="11.2883417"><ele>395.0</ele><time>2026-04-19T08:05:34.65Z</time></trkpt><trkpt lat="43.5854267" lon="11.2882517"><ele>395.0</ele><time>2026-04-19T08:05:35.651Z</time></trkpt><trkpt lat="43.585345" lon="11.2881783"><ele>395.0</ele><time>2026-04-19T08:05:36.65Z</time></trkpt><trkpt lat="43.5852667" lon="11.2881233"><ele>395.2</ele><time>2026-04-19T08:05:37.648Z</time></trkpt><trkpt lat="43.58518" lon="11.2880817"><ele>395.4</ele><time>2026-04-19T08:05:38.651Z</time></trkpt><trkpt lat="43.5850883" lon="11.288055"><ele>395.6</ele><time>2026-04-19T08:05:39.649Z</time></trkpt><trkpt lat="43.5849933" lon="11.2880317"><ele>395.8</ele><time>2026-04-19T08:05:40.643Z</time></trkpt><trkpt lat="43.5848933" lon="11.2879983"><ele>396.0</ele><time>2026-04-19T08:05:41.65Z</time></trkpt><trkpt lat="43.5847783" lon="11.2879583"><ele>396.0</ele><time>2026-04-19T08:05:42.651Z</time></trkpt><trkpt lat="43.58467" lon="11.2879083"><ele>396.0</ele><time>2026-04-19T08:05:43.645Z</time></trkpt><trkpt lat="43.58457" lon="11.2878583"><ele>396.0</ele><time>2026-04-19T08:05:44.648Z</time></trkpt><trkpt lat="43.5844967" lon="11.287845"><ele>396.0</ele><time>2026-04-19T08:05:45.647Z</time></trkpt><trkpt lat="43.5844183" lon="11.287845"><ele>396.0</ele><time>2026-04-19T08:05:46.655Z</time></trkpt><trkpt lat="43.5843433" lon="11.28785"><ele>396.0</ele><time>2026-04-19T08:05:47.647Z</time></trkpt><trkpt lat="43.5842683" lon="11.2878883"><ele>395.8</ele><time>2026-04-19T08:05:48.652Z</time></trkpt><trkpt lat="43.584175" lon="11.2879233"><ele>395.6</ele><time>2026-04-19T08:05:49.643Z</time></trkpt><trkpt lat="43.5840783" lon="11.287965"><ele>395.4</ele><time>2026-04-19T08:05:50.653Z</time></trkpt><trkpt lat="43.5839817" lon="11.2880067"><ele>395.2</ele><time>2026-04-19T08:05:51.654Z</time></trkpt><trkpt lat="43.5838783" lon="11.2880333"><ele>395.0</ele><time>2026-04-19T08:05:52.652Z</time></trkpt><trkpt lat="43.5837783" lon="11.288045"><ele>397.4</ele><time>2026-04-19T08:05:53.646Z</time></trkpt><trkpt lat="43.5836767" lon="11.2880417"><ele>399.8</ele><time>2026-04-19T08:05:54.647Z</time></trkpt><trkpt lat="43.5835733" lon="11.2880333"><ele>402.20000000000005</ele><time>2026-04-19T08:05:55.651Z</time></trkpt><trkpt lat="43.5834733" lon="11.2880283"><ele>404.6</ele><time>2026-04-19T08:05:56.651Z</time></trkpt><trkpt lat="43.5833667" lon="11.2880367"><ele>407.0</ele><time>2026-04-19T08:05:57.652Z</time></trkpt><trkpt lat="43.583285" lon="11.2880483"><ele>406.99999999999994</ele><time>2026-04-19T08:05:58.653Z</time></trkpt><trkpt lat="43.583205" lon="11.2880667"><ele>407.0</ele><time>2026-04-19T08:05:59.653Z</time></trkpt><trkpt lat="43.5831417" lon="11.2881017"><ele>407.0</ele><time>2026-04-19T08:06:00.652Z</time></trkpt><trkpt lat="43.5830867" lon="11.2882567"><ele>407.0</ele><time>2026-04-19T08:06:02.646Z</time></trkpt><trkpt lat="43.5830683" lon="11.2883583"><ele>406.99999999999994</ele><time>2026-04-19T08:06:03.649Z</time></trkpt><trkpt lat="43.5830517" lon="11.28849"><ele>407.0</ele><time>2026-04-19T08:06:04.648Z</time></trkpt><trkpt lat="43.5830417" lon="11.2886433"><ele>404.8</ele><time>2026-04-19T08:06:05.647Z</time></trkpt><trkpt lat="43.5830467" lon="11.2887867"><ele>402.6</ele><time>2026-04-19T08:06:06.652Z</time></trkpt><trkpt lat="43.5830367" lon="11.288925"><ele>400.40000000000003</ele><time>2026-04-19T08:06:07.651Z</time></trkpt><trkpt lat="43.5830233" lon="11.28906"><ele>398.20000000000005</ele><time>2026-04-19T08:06:08.651Z</time></trkpt><trkpt lat="43.5830017" lon="11.2891717"><ele>396.0</ele><time>2026-04-19T08:06:09.651Z</time></trkpt><trkpt lat="43.5829817" lon="11.2892733"><ele>395.5</ele><time>2026-04-19T08:06:10.648Z</time></trkpt><trkpt lat="43.582965" lon="11.289375"><ele>395.0</ele><time>2026-04-19T08:06:11.646Z</time></trkpt><trkpt lat="43.582945" lon="11.2894833"><ele>394.5</ele><time>2026-04-19T08:06:12.652Z</time></trkpt><trkpt lat="43.5829283" lon="11.2895983"><ele>394.0</ele><time>2026-04-19T08:06:13.646Z</time></trkpt><trkpt lat="43.58291" lon="11.2897133"><ele>393.5</ele><time>2026-04-19T08:06:14.645Z</time></trkpt><trkpt lat="43.5828967" lon="11.2898433"><ele>393.0</ele><time>2026-04-19T08:06:15.649Z</time></trkpt><trkpt lat="43.58289" lon="11.28999"><ele>392.4</ele><time>2026-04-19T08:06:16.65Z</time></trkpt><trkpt lat="43.582895" lon="11.2901317"><ele>391.79999999999995</ele><time>2026-04-19T08:06:17.651Z</time></trkpt><trkpt lat="43.5828967" lon="11.2902767"><ele>391.2</ele><time>2026-04-19T08:06:18.651Z</time></trkpt><trkpt lat="43.5829083" lon="11.2904267"><ele>390.6</ele><time>2026-04-19T08:06:19.655Z</time></trkpt><trkpt lat="43.582915" lon="11.290575"><ele>390.0</ele><time>2026-04-19T08:06:20.651Z</time></trkpt><trkpt lat="43.58292" lon="11.29072"><ele>389.3333333333333</ele><time>2026-04-19T08:06:21.642Z</time></trkpt><trkpt lat="43.582925" lon="11.2908533"><ele>388.66666666666663</ele><time>2026-04-19T08:06:22.653Z</time></trkpt><trkpt lat="43.582915" lon="11.2909767"><ele>388.0</ele><time>2026-04-19T08:06:23.646Z</time></trkpt><trkpt lat="43.582905" lon="11.29109"><ele>387.3333333333333</ele><time>2026-04-19T08:06:24.655Z</time></trkpt><trkpt lat="43.5828867" lon="11.2911833"><ele>386.66666666666663</ele><time>2026-04-19T08:06:25.65Z</time></trkpt><trkpt lat="43.5828583" lon="11.29127"><ele>386.0</ele><time>2026-04-19T08:06:26.652Z</time></trkpt><trkpt lat="43.5828" lon="11.29134"><ele>388.99999999999994</ele><time>2026-04-19T08:06:28.649Z</time></trkpt><trkpt lat="43.5827417" lon="11.2912967"><ele>392.0</ele><time>2026-04-19T08:06:30.65Z</time></trkpt><trkpt lat="43.5827167" lon="11.2912033"><ele>395.0</ele><time>2026-04-19T08:06:32.652Z</time></trkpt><trkpt lat="43.582645" lon="11.291095"><ele>398.0</ele><time>2026-04-19T08:06:34.648Z</time></trkpt><trkpt lat="43.5825767" lon="11.2910033"><ele>400.99999999999994</ele><time>2026-04-19T08:06:36.651Z</time></trkpt><trkpt lat="43.5824967" lon="11.29093"><ele>404.0</ele><time>2026-04-19T08:06:38.653Z</time></trkpt><trkpt lat="43.5824167" lon="11.290885"><ele>404.0</ele><time>2026-04-19T08:06:40.656Z</time></trkpt><trkpt lat="43.5823" lon="11.290835"><ele>404.0</ele><time>2026-04-19T08:06:42.647Z</time></trkpt><trkpt lat="43.582165" lon="11.2908117"><ele>404.0</ele><time>2026-04-19T08:06:44.652Z</time></trkpt><trkpt lat="43.5821" lon="11.29082"><ele>404.0</ele><time>2026-04-19T08:06:45.65Z</time></trkpt><trkpt lat="43.5820367" lon="11.290825"><ele>404.0</ele><time>2026-04-19T08:06:46.65Z</time></trkpt><trkpt lat="43.581965" lon="11.290835"><ele>405.79999999999995</ele><time>2026-04-19T08:06:47.649Z</time></trkpt><trkpt lat="43.581885" lon="11.2908517"><ele>407.59999999999997</ele><time>2026-04-19T08:06:48.652Z</time></trkpt><trkpt lat="43.5817933" lon="11.2908667"><ele>409.4</ele><time>2026-04-19T08:06:49.651Z</time></trkpt><trkpt lat="43.58169" lon="11.2908983"><ele>411.2</ele><time>2026-04-19T08:06:50.651Z</time></trkpt><trkpt lat="43.5815733" lon="11.2909433"><ele>413.0</ele><time>2026-04-19T08:06:51.655Z</time></trkpt><trkpt lat="43.58146" lon="11.2910017"><ele>413.0</ele><time>2026-04-19T08:06:52.646Z</time></trkpt><trkpt lat="43.5813367" lon="11.2910683"><ele>413.0</ele><time>2026-04-19T08:06:53.649Z</time></trkpt><trkpt lat="43.5812" lon="11.29112"><ele>413.0</ele><time>2026-04-19T08:06:54.65Z</time></trkpt><trkpt lat="43.5810767" lon="11.2911883"><ele>413.0</ele><time>2026-04-19T08:06:55.649Z</time></trkpt><trkpt lat="43.5809667" lon="11.2912667"><ele>411.59999999999997</ele><time>2026-04-19T08:06:56.651Z</time></trkpt><trkpt lat="43.58089" lon="11.2913733"><ele>410.2</ele><time>2026-04-19T08:06:57.648Z</time></trkpt><trkpt lat="43.5808233" lon="11.2914767"><ele>408.8</ele><time>2026-04-19T08:06:58.65Z</time></trkpt><trkpt lat="43.5807533" lon="11.2915633"><ele>407.4</ele><time>2026-04-19T08:06:59.655Z</time></trkpt><trkpt lat="43.58068" lon="11.2916267"><ele>406.0</ele><time>2026-04-19T08:07:00.648Z</time></trkpt><trkpt lat="43.5806" lon="11.2916867"><ele>406.0</ele><time>2026-04-19T08:07:01.648Z</time></trkpt><trkpt lat="43.5805267" lon="11.29172"><ele>406.0</ele><time>2026-04-19T08:07:02.651Z</time></trkpt><trkpt lat="43.580435" lon="11.2917567"><ele>406.0</ele><time>2026-04-19T08:07:03.653Z</time></trkpt><trkpt lat="43.5803433" lon="11.29178"><ele>406.0</ele><time>2026-04-19T08:07:04.65Z</time></trkpt><trkpt lat="43.580255" lon="11.2917833"><ele>406.0</ele><time>2026-04-19T08:07:05.648Z</time></trkpt><trkpt lat="43.5801583" lon="11.2917717"><ele>405.83333333333337</ele><time>2026-04-19T08:07:06.653Z</time></trkpt><trkpt lat="43.58008" lon="11.2917983"><ele>405.6666666666667</ele><time>2026-04-19T08:07:07.652Z</time></trkpt><trkpt lat="43.5800233" lon="11.2918483"><ele>405.5</ele><time>2026-04-19T08:07:08.656Z</time></trkpt><trkpt lat="43.5799717" lon="11.291905"><ele>405.33333333333337</ele><time>2026-04-19T08:07:09.65Z</time></trkpt><trkpt lat="43.57993" lon="11.291985"><ele>405.1666666666667</ele><time>2026-04-19T08:07:10.651Z</time></trkpt><trkpt lat="43.5798967" lon="11.29208"><ele>405.0</ele><time>2026-04-19T08:07:11.653Z</time></trkpt><trkpt lat="43.5798817" lon="11.2922033"><ele>402.5</ele><time>2026-04-19T08:07:12.648Z</time></trkpt><trkpt lat="43.5798817" lon="11.2923767"><ele>400.0</ele><time>2026-04-19T08:07:13.652Z</time></trkpt><trkpt lat="43.5799017" lon="11.292565"><ele>397.5</ele><time>2026-04-19T08:07:14.647Z</time></trkpt><trkpt lat="43.5799217" lon="11.29274"><ele>395.0</ele><time>2026-04-19T08:07:15.647Z</time></trkpt><trkpt lat="43.5799167" lon="11.2929067"><ele>395.0</ele><time>2026-04-19T08:07:16.649Z</time></trkpt><trkpt lat="43.57989" lon="11.2930783"><ele>395.0</ele><time>2026-04-19T08:07:17.651Z</time></trkpt><trkpt lat="43.57985" lon="11.2932467"><ele>395.0</ele><time>2026-04-19T08:07:18.651Z</time></trkpt><trkpt lat="43.5798" lon="11.2934"><ele>395.0</ele><time>2026-04-19T08:07:19.652Z</time></trkpt><trkpt lat="43.5797433" lon="11.29353"><ele>394.5</ele><time>2026-04-19T08:07:20.652Z</time></trkpt><trkpt lat="43.57968" lon="11.2936433"><ele>394.0</ele><time>2026-04-19T08:07:21.645Z</time></trkpt><trkpt lat="43.5795983" lon="11.2937633"><ele>393.5</ele><time>2026-04-19T08:07:22.647Z</time></trkpt><trkpt lat="43.5795033" lon="11.2938633"><ele>393.0</ele><time>2026-04-19T08:07:23.646Z</time></trkpt><trkpt lat="43.5794" lon="11.2939317"><ele>393.0</ele><time>2026-04-19T08:07:24.649Z</time></trkpt><trkpt lat="43.5793067" lon="11.29398"><ele>393.0</ele><time>2026-04-19T08:07:25.651Z</time></trkpt><trkpt lat="43.5792267" lon="11.2940183"><ele>393.0</ele><time>2026-04-19T08:07:26.656Z</time></trkpt><trkpt lat="43.579165" lon="11.2940567"><ele>393.0</ele><time>2026-04-19T08:07:27.652Z</time></trkpt><trkpt lat="43.57911" lon="11.2939983"><ele>393.0</ele><time>2026-04-19T08:07:33.647Z</time></trkpt><trkpt lat="43.57902" lon="11.2939817"><ele>393.0</ele><time>2026-04-19T08:07:37.653Z</time></trkpt><trkpt lat="43.57895" lon="11.2939667"><ele>394.79999999999995</ele><time>2026-04-19T08:07:39.644Z</time></trkpt><trkpt lat="43.5788667" lon="11.2939133"><ele>396.6</ele><time>2026-04-19T08:07:41.65Z</time></trkpt><trkpt lat="43.578755" lon="11.2938083"><ele>398.4</ele><time>2026-04-19T08:07:43.651Z</time></trkpt><trkpt lat="43.5786917" lon="11.2937517"><ele>400.20000000000005</ele><time>2026-04-19T08:07:44.648Z</time></trkpt><trkpt lat="43.5786233" lon="11.29366"><ele>402.0</ele><time>2026-04-19T08:07:45.65Z</time></trkpt><trkpt lat="43.5785683" lon="11.293535"><ele>402.0</ele><time>2026-04-19T08:07:46.652Z</time></trkpt><trkpt lat="43.57849" lon="11.2933767"><ele>402.0</ele><time>2026-04-19T08:07:47.649Z</time></trkpt><trkpt lat="43.5783967" lon="11.2931667"><ele>402.0</ele><time>2026-04-19T08:07:48.653Z</time></trkpt><trkpt lat="43.57831" lon="11.29289"><ele>405.0</ele><time>2026-04-19T08:07:49.645Z</time></trkpt><trkpt lat="43.578235" lon="11.292655"><ele>408.0</ele><time>2026-04-19T08:07:50.646Z</time></trkpt><trkpt lat="43.5781633" lon="11.2924317"><ele>411.0</ele><time>2026-04-19T08:07:51.645Z</time></trkpt><trkpt lat="43.5780867" lon="11.2922183"><ele>415.0</ele><time>2026-04-19T08:07:52.649Z</time></trkpt><trkpt lat="43.5779883" lon="11.2919083"><ele>419.0</ele><time>2026-04-19T08:07:53.649Z</time></trkpt><trkpt lat="43.5778833" lon="11.2916867"><ele>423.0</ele><time>2026-04-19T08:07:54.647Z</time></trkpt><trkpt lat="43.577795" lon="11.291525"><ele>419.25</ele><time>2026-04-19T08:07:55.651Z</time></trkpt><trkpt lat="43.5777133" lon="11.2913683"><ele>415.5</ele><time>2026-04-19T08:07:56.649Z</time></trkpt><trkpt lat="43.5776367" lon="11.29122"><ele>411.75</ele><time>2026-04-19T08:07:57.652Z</time></trkpt><trkpt lat="43.577565" lon="11.2911033"><ele>408.0</ele><time>2026-04-19T08:07:58.648Z</time></trkpt><trkpt lat="43.5775033" lon="11.2909817"><ele>408.0</ele><time>2026-04-19T08:07:59.652Z</time></trkpt><trkpt lat="43.57743" lon="11.2908683"><ele>408.0</ele><time>2026-04-19T08:08:00.652Z</time></trkpt><trkpt lat="43.5773667" lon="11.2908067"><ele>408.0</ele><time>2026-04-19T08:08:01.644Z</time></trkpt><trkpt lat="43.5773067" lon="11.290765"><ele>408.0</ele><time>2026-04-19T08:08:02.645Z</time></trkpt><trkpt lat="43.57725" lon="11.2908333"><ele>408.0</ele><time>2026-04-19T08:08:03.65Z</time></trkpt><trkpt lat="43.5771967" lon="11.29091"><ele>408.0</ele><time>2026-04-19T08:08:04.648Z</time></trkpt><trkpt lat="43.57713" lon="11.2910333"><ele>408.0</ele><time>2026-04-19T08:08:05.651Z</time></trkpt><trkpt lat="43.5770483" lon="11.29112"><ele>408.0</ele><time>2026-04-19T08:08:06.649Z</time></trkpt><trkpt lat="43.5769567" lon="11.2911683"><ele>408.0</ele><time>2026-04-19T08:08:07.646Z</time></trkpt><trkpt lat="43.5768733" lon="11.2911783"><ele>408.0</ele><time>2026-04-19T08:08:08.654Z</time></trkpt><trkpt lat="43.5767733" lon="11.2911867"><ele>408.0</ele><time>2026-04-19T08:08:09.65Z</time></trkpt><trkpt lat="43.5766567" lon="11.2911883"><ele>409.0</ele><time>2026-04-19T08:08:10.647Z</time></trkpt><trkpt lat="43.576525" lon="11.291185"><ele>410.0</ele><time>2026-04-19T08:08:11.646Z</time></trkpt><trkpt lat="43.5764067" lon="11.2911817"><ele>411.0</ele><time>2026-04-19T08:08:12.644Z</time></trkpt><trkpt lat="43.57629" lon="11.2911517"><ele>412.0</ele><time>2026-04-19T08:08:13.647Z</time></trkpt><trkpt lat="43.5761783" lon="11.2911133"><ele>413.20000000000005</ele><time>2026-04-19T08:08:14.647Z</time></trkpt><trkpt lat="43.57608" lon="11.29106"><ele>414.4</ele><time>2026-04-19T08:08:15.652Z</time></trkpt><trkpt lat="43.575995" lon="11.2909833"><ele>415.6</ele><time>2026-04-19T08:08:16.651Z</time></trkpt><trkpt lat="43.57592" lon="11.2909083"><ele>416.79999999999995</ele><time>2026-04-19T08:08:17.648Z</time></trkpt><trkpt lat="43.57584" lon="11.290835"><ele>418.0</ele><time>2026-04-19T08:08:18.651Z</time></trkpt><trkpt lat="43.5757467" lon="11.2907917"><ele>418.0</ele><time>2026-04-19T08:08:19.648Z</time></trkpt><trkpt lat="43.575645" lon="11.2907583"><ele>418.0</ele><time>2026-04-19T08:08:20.644Z</time></trkpt><trkpt lat="43.5755467" lon="11.29074"><ele>418.0</ele><time>2026-04-19T08:08:21.648Z</time></trkpt><trkpt lat="43.5754467" lon="11.2907467"><ele>418.0</ele><time>2026-04-19T08:08:22.647Z</time></trkpt><trkpt lat="43.5753267" lon="11.2907717"><ele>418.0</ele><time>2026-04-19T08:08:23.648Z</time></trkpt><trkpt lat="43.5752083" lon="11.290825"><ele>418.4</ele><time>2026-04-19T08:08:24.651Z</time></trkpt><trkpt lat="43.575095" lon="11.2908867"><ele>418.79999999999995</ele><time>2026-04-19T08:08:25.65Z</time></trkpt><trkpt lat="43.574995" lon="11.2909367"><ele>419.2</ele><time>2026-04-19T08:08:26.651Z</time></trkpt><trkpt lat="43.5749033" lon="11.2909633"><ele>419.6</ele><time>2026-04-19T08:08:27.65Z</time></trkpt><trkpt lat="43.5748217" lon="11.2909733"><ele>420.0</ele><time>2026-04-19T08:08:28.648Z</time></trkpt><trkpt lat="43.574755" lon="11.290925"><ele>420.0</ele><time>2026-04-19T08:08:30.646Z</time></trkpt><trkpt lat="43.57472" lon="11.2907617"><ele>420.0</ele><time>2026-04-19T08:08:32.645Z</time></trkpt><trkpt lat="43.5747233" lon="11.290645"><ele>420.0</ele><time>2026-04-19T08:08:33.647Z</time></trkpt><trkpt lat="43.57471" lon="11.2905233"><ele>420.0</ele><time>2026-04-19T08:08:34.649Z</time></trkpt><trkpt lat="43.574695" lon="11.290385"><ele>420.0</ele><time>2026-04-19T08:08:35.648Z</time></trkpt><trkpt lat="43.5746633" lon="11.2902417"><ele>422.0</ele><time>2026-04-19T08:08:36.652Z</time></trkpt><trkpt lat="43.57459" lon="11.290095"><ele>424.0</ele><time>2026-04-19T08:08:37.652Z</time></trkpt><trkpt lat="43.5745033" lon="11.289965"><ele>426.0</ele><time>2026-04-19T08:08:38.652Z</time></trkpt><trkpt lat="43.574425" lon="11.2898567"><ele>428.0</ele><time>2026-04-19T08:08:39.65Z</time></trkpt><trkpt lat="43.5743467" lon="11.2897567"><ele>422.4</ele><time>2026-04-19T08:08:40.648Z</time></trkpt><trkpt lat="43.5742817" lon="11.2896733"><ele>416.79999999999995</ele><time>2026-04-19T08:08:41.649Z</time></trkpt><trkpt lat="43.5742283" lon="11.2895867"><ele>411.2</ele><time>2026-04-19T08:08:42.647Z</time></trkpt><trkpt lat="43.5741817" lon="11.289485"><ele>405.6</ele><time>2026-04-19T08:08:43.651Z</time></trkpt><trkpt lat="43.5741533" lon="11.2893617"><ele>400.0</ele><time>2026-04-19T08:08:44.648Z</time></trkpt><trkpt lat="43.5741467" lon="11.2892167"><ele>400.0</ele><time>2026-04-19T08:08:45.647Z</time></trkpt><trkpt lat="43.5741583" lon="11.2890583"><ele>400.0</ele><time>2026-04-19T08:08:46.647Z</time></trkpt><trkpt lat="43.5741767" lon="11.2889017"><ele>400.0</ele><time>2026-04-19T08:08:47.65Z</time></trkpt><trkpt lat="43.574185" lon="11.28876"><ele>400.0</ele><time>2026-04-19T08:08:48.65Z</time></trkpt><trkpt lat="43.5741983" lon="11.2886417"><ele>400.0</ele><time>2026-04-19T08:08:49.651Z</time></trkpt><trkpt lat="43.5741933" lon="11.2885167"><ele>399.2</ele><time>2026-04-19T08:08:50.648Z</time></trkpt><trkpt lat="43.5741867" lon="11.28839"><ele>398.4</ele><time>2026-04-19T08:08:51.646Z</time></trkpt><trkpt lat="43.574175" lon="11.2882633"><ele>397.6</ele><time>2026-04-19T08:08:52.648Z</time></trkpt><trkpt lat="43.5741267" lon="11.2881867"><ele>396.8</ele><time>2026-04-19T08:08:53.656Z</time></trkpt><trkpt lat="43.5740833" lon="11.28807"><ele>396.0</ele><time>2026-04-19T08:08:54.652Z</time></trkpt><trkpt lat="43.57401" lon="11.287965"><ele>396.0</ele><time>2026-04-19T08:08:55.648Z</time></trkpt><trkpt lat="43.5739217" lon="11.2878283"><ele>396.0</ele><time>2026-04-19T08:08:56.654Z</time></trkpt><trkpt lat="43.5738067" lon="11.287695"><ele>396.0</ele><time>2026-04-19T08:08:57.655Z</time></trkpt><trkpt lat="43.57367" lon="11.2875533"><ele>395.0</ele><time>2026-04-19T08:08:58.649Z</time></trkpt><trkpt lat="43.5735217" lon="11.2873833"><ele>394.0</ele><time>2026-04-19T08:08:59.651Z</time></trkpt><trkpt lat="43.5733883" lon="11.2872267"><ele>393.0</ele><time>2026-04-19T08:09:00.651Z</time></trkpt><trkpt lat="43.5732533" lon="11.287075"><ele>393.0</ele><time>2026-04-19T08:09:01.644Z</time></trkpt><trkpt lat="43.57312" lon="11.28692"><ele>393.0</ele><time>2026-04-19T08:09:02.649Z</time></trkpt><trkpt lat="43.5729933" lon="11.2867733"><ele>393.0</ele><time>2026-04-19T08:09:03.651Z</time></trkpt><trkpt lat="43.5728883" lon="11.2866483"><ele>392.0</ele><time>2026-04-19T08:09:04.651Z</time></trkpt><trkpt lat="43.5728017" lon="11.2865283"><ele>391.0</ele><time>2026-04-19T08:09:05.65Z</time></trkpt><trkpt lat="43.5727567" lon="11.286435"><ele>390.0</ele><time>2026-04-19T08:09:06.653Z</time></trkpt><trkpt lat="43.5727217" lon="11.2863333"><ele>389.0</ele><time>2026-04-19T08:09:07.653Z</time></trkpt><trkpt lat="43.5727133" lon="11.2862383"><ele>388.0</ele><time>2026-04-19T08:09:08.65Z</time></trkpt><trkpt lat="43.5726867" lon="11.2861367"><ele>387.0</ele><time>2026-04-19T08:09:09.645Z</time></trkpt><trkpt lat="43.5726333" lon="11.2860017"><ele>389.40000000000003</ele><time>2026-04-19T08:09:11.649Z</time></trkpt><trkpt lat="43.572545" lon="11.28593"><ele>391.8</ele><time>2026-04-19T08:09:13.651Z</time></trkpt><trkpt lat="43.5724817" lon="11.2859283"><ele>394.2</ele><time>2026-04-19T08:09:14.653Z</time></trkpt><trkpt lat="43.5724133" lon="11.28593"><ele>396.6</ele><time>2026-04-19T08:09:15.649Z</time></trkpt><trkpt lat="43.57232" lon="11.2859733"><ele>399.0</ele><time>2026-04-19T08:09:16.645Z</time></trkpt><trkpt lat="43.5722083" lon="11.286055"><ele>399.0</ele><time>2026-04-19T08:09:17.647Z</time></trkpt><trkpt lat="43.57211" lon="11.2861"><ele>399.0</ele><time>2026-04-19T08:09:18.65Z</time></trkpt><trkpt lat="43.5720183" lon="11.286135"><ele>399.0</ele><time>2026-04-19T08:09:19.652Z</time></trkpt><trkpt lat="43.57192" lon="11.2861617"><ele>399.0</ele><time>2026-04-19T08:09:20.647Z</time></trkpt><trkpt lat="43.57181" lon="11.2862017"><ele>399.0</ele><time>2026-04-19T08:09:21.65Z</time></trkpt><trkpt lat="43.5716767" lon="11.2862333"><ele>402.0</ele><time>2026-04-19T08:09:22.649Z</time></trkpt><trkpt lat="43.57155" lon="11.28624"><ele>405.0</ele><time>2026-04-19T08:09:23.647Z</time></trkpt><trkpt lat="43.571415" lon="11.2862283"><ele>408.0</ele><time>2026-04-19T08:09:24.651Z</time></trkpt><trkpt lat="43.5712883" lon="11.28619"><ele>411.0</ele><time>2026-04-19T08:09:25.647Z</time></trkpt><trkpt lat="43.5711717" lon="11.28614"><ele>411.0</ele><time>2026-04-19T08:09:26.655Z</time></trkpt><trkpt lat="43.57105" lon="11.2860683"><ele>411.0</ele><time>2026-04-19T08:09:27.654Z</time></trkpt><trkpt lat="43.5709117" lon="11.2859617"><ele>411.0</ele><time>2026-04-19T08:09:28.645Z</time></trkpt><trkpt lat="43.5707717" lon="11.2858667"><ele>411.0</ele><time>2026-04-19T08:09:29.647Z</time></trkpt><trkpt lat="43.570615" lon="11.28575"><ele>411.0</ele><time>2026-04-19T08:09:30.646Z</time></trkpt><trkpt lat="43.5704567" lon="11.2856267"><ele>411.0</ele><time>2026-04-19T08:09:31.646Z</time></trkpt><trkpt lat="43.5702883" lon="11.2855067"><ele>411.0</ele><time>2026-04-19T08:09:32.65Z</time></trkpt><trkpt lat="43.5701317" lon="11.2853733"><ele>414.66666666666663</ele><time>2026-04-19T08:09:33.65Z</time></trkpt><trkpt lat="43.5699767" lon="11.285255"><ele>418.3333333333333</ele><time>2026-04-19T08:09:34.654Z</time></trkpt><trkpt lat="43.5698383" lon="11.2851433"><ele>422.0</ele><time>2026-04-19T08:09:35.65Z</time></trkpt><trkpt lat="43.56971" lon="11.285045"><ele>422.0</ele><time>2026-04-19T08:09:36.651Z</time></trkpt><trkpt lat="43.5695767" lon="11.284975"><ele>422.0</ele><time>2026-04-19T08:09:37.648Z</time></trkpt><trkpt lat="43.5694633" lon="11.2849283"><ele>422.0</ele><time>2026-04-19T08:09:38.647Z</time></trkpt><trkpt lat="43.56939" lon="11.2848983"><ele>422.0</ele><time>2026-04-19T08:09:39.647Z</time></trkpt><trkpt lat="43.5693017" lon="11.2849267"><ele>422.0</ele><time>2026-04-19T08:09:41.647Z</time></trkpt><trkpt lat="43.5692617" lon="11.2850167"><ele>422.5</ele><time>2026-04-19T08:09:43.65Z</time></trkpt><trkpt lat="43.5692083" lon="11.2851667"><ele>423.0</ele><time>2026-04-19T08:09:45.649Z</time></trkpt><trkpt lat="43.5692133" lon="11.2852917"><ele>423.5</ele><time>2026-04-19T08:09:46.654Z</time></trkpt><trkpt lat="43.56923" lon="11.2854383"><ele>424.0</ele><time>2026-04-19T08:09:47.652Z</time></trkpt><trkpt lat="43.5692517" lon="11.2856383"><ele>424.0</ele><time>2026-04-19T08:09:48.649Z</time></trkpt><trkpt lat="43.56929" lon="11.2858717"><ele>424.0</ele><time>2026-04-19T08:09:49.655Z</time></trkpt><trkpt lat="43.5693067" lon="11.2860883"><ele>424.0</ele><time>2026-04-19T08:09:50.65Z</time></trkpt><trkpt lat="43.569305" lon="11.28629"><ele>425.5</ele><time>2026-04-19T08:09:51.649Z</time></trkpt><trkpt lat="43.5692883" lon="11.286475"><ele>427.0</ele><time>2026-04-19T08:09:52.65Z</time></trkpt><trkpt lat="43.5692617" lon="11.2866383"><ele>428.5</ele><time>2026-04-19T08:09:53.653Z</time></trkpt><trkpt lat="43.5692233" lon="11.2868117"><ele>430.0</ele><time>2026-04-19T08:09:54.651Z</time></trkpt><trkpt lat="43.569185" lon="11.2869633"><ele>430.0</ele><time>2026-04-19T08:09:55.65Z</time></trkpt><trkpt lat="43.5691483" lon="11.28711"><ele>430.0</ele><time>2026-04-19T08:09:56.646Z</time></trkpt><trkpt lat="43.56911" lon="11.2872467"><ele>430.0</ele><time>2026-04-19T08:09:57.65Z</time></trkpt><trkpt lat="43.5690683" lon="11.28738"><ele>430.0</ele><time>2026-04-19T08:09:58.651Z</time></trkpt><trkpt lat="43.5690033" lon="11.2874983"><ele>430.0</ele><time>2026-04-19T08:09:59.648Z</time></trkpt><trkpt lat="43.5688983" lon="11.2876683"><ele>430.33333333333337</ele><time>2026-04-19T08:10:00.646Z</time></trkpt><trkpt lat="43.56876" lon="11.2878233"><ele>430.66666666666663</ele><time>2026-04-19T08:10:01.651Z</time></trkpt><trkpt lat="43.5686383" lon="11.28797"><ele>431.0</ele><time>2026-04-19T08:10:02.649Z</time></trkpt><trkpt lat="43.5685183" lon="11.2881267"><ele>438.0</ele><time>2026-04-19T08:10:03.654Z</time></trkpt><trkpt lat="43.5683917" lon="11.28827"><ele>445.0</ele><time>2026-04-19T08:10:04.653Z</time></trkpt><trkpt lat="43.568285" lon="11.2884083"><ele>452.0</ele><time>2026-04-19T08:10:05.653Z</time></trkpt><trkpt lat="43.5681467" lon="11.28856"><ele>452.0</ele><time>2026-04-19T08:10:06.644Z</time></trkpt><trkpt lat="43.5680483" lon="11.2887183"><ele>452.0</ele><time>2026-04-19T08:10:07.644Z</time></trkpt><trkpt lat="43.5679483" lon="11.2889083"><ele>452.0</ele><time>2026-04-19T08:10:08.652Z</time></trkpt><trkpt lat="43.56784" lon="11.2891083"><ele>452.0</ele><time>2026-04-19T08:10:09.658Z</time></trkpt><trkpt lat="43.5677233" lon="11.2892783"><ele>452.0</ele><time>2026-04-19T08:10:10.649Z</time></trkpt><trkpt lat="43.5676233" lon="11.2894417"><ele>452.0</ele><time>2026-04-19T08:10:11.653Z</time></trkpt><trkpt lat="43.567525" lon="11.2896117"><ele>452.0</ele><time>2026-04-19T08:10:12.649Z</time></trkpt><trkpt lat="43.567415" lon="11.2897517"><ele>452.0</ele><time>2026-04-19T08:10:13.652Z</time></trkpt><trkpt lat="43.5673117" lon="11.2898783"><ele>452.0</ele><time>2026-04-19T08:10:14.653Z</time></trkpt><trkpt lat="43.567195" lon="11.2900067"><ele>452.0</ele><time>2026-04-19T08:10:15.652Z</time></trkpt><trkpt lat="43.56707" lon="11.2901217"><ele>452.5</ele><time>2026-04-19T08:10:16.644Z</time></trkpt><trkpt lat="43.56696" lon="11.2902133"><ele>453.0</ele><time>2026-04-19T08:10:17.649Z</time></trkpt><trkpt lat="43.5668133" lon="11.2901"><ele>453.5</ele><time>2026-04-19T08:10:18.644Z</time></trkpt><trkpt lat="43.5667217" lon="11.29013"><ele>454.0</ele><time>2026-04-19T08:10:19.654Z</time></trkpt><trkpt lat="43.56663" lon="11.2901533"><ele>454.00000000000006</ele><time>2026-04-19T08:10:20.65Z</time></trkpt><trkpt lat="43.566545" lon="11.2901583"><ele>454.0</ele><time>2026-04-19T08:10:21.648Z</time></trkpt><trkpt lat="43.566455" lon="11.2901533"><ele>454.0</ele><time>2026-04-19T08:10:22.652Z</time></trkpt><trkpt lat="43.5663717" lon="11.2901333"><ele>454.0</ele><time>2026-04-19T08:10:23.648Z</time></trkpt><trkpt lat="43.5662983" lon="11.2900933"><ele>454.00000000000006</ele><time>2026-04-19T08:10:24.653Z</time></trkpt><trkpt lat="43.56622" lon="11.29005"><ele>454.0</ele><time>2026-04-19T08:10:25.642Z</time></trkpt><trkpt lat="43.566125" lon="11.2899767"><ele>454.0</ele><time>2026-04-19T08:10:26.648Z</time></trkpt><trkpt lat="43.5660033" lon="11.28991"><ele>454.0</ele><time>2026-04-19T08:10:27.645Z</time></trkpt><trkpt lat="43.565875" lon="11.2898317"><ele>454.0</ele><time>2026-04-19T08:10:28.649Z</time></trkpt><trkpt lat="43.565745" lon="11.2897433"><ele>454.0</ele><time>2026-04-19T08:10:29.648Z</time></trkpt><trkpt lat="43.5656033" lon="11.2896517"><ele>454.0</ele><time>2026-04-19T08:10:30.647Z</time></trkpt><trkpt lat="43.5654617" lon="11.289555"><ele>454.0</ele><time>2026-04-19T08:10:31.652Z</time></trkpt><trkpt lat="43.565335" lon="11.289465"><ele>454.0</ele><time>2026-04-19T08:10:32.649Z</time></trkpt><trkpt lat="43.56521" lon="11.2893633"><ele>454.0</ele><time>2026-04-19T08:10:33.652Z</time></trkpt><trkpt lat="43.56509" lon="11.2892617"><ele>455.0</ele><time>2026-04-19T08:10:34.648Z</time></trkpt><trkpt lat="43.5649733" lon="11.28916"><ele>456.0</ele><time>2026-04-19T08:10:35.652Z</time></trkpt><trkpt lat="43.5648533" lon="11.28905"><ele>457.0</ele><time>2026-04-19T08:10:36.649Z</time></trkpt><trkpt lat="43.564735" lon="11.2889367"><ele>458.0</ele><time>2026-04-19T08:10:37.646Z</time></trkpt><trkpt lat="43.5646317" lon="11.2888133"><ele>456.25</ele><time>2026-04-19T08:10:38.646Z</time></trkpt><trkpt lat="43.5645283" lon="11.288705"><ele>454.5</ele><time>2026-04-19T08:10:39.643Z</time></trkpt><trkpt lat="43.5644167" lon="11.288585"><ele>452.75</ele><time>2026-04-19T08:10:40.646Z</time></trkpt><trkpt lat="43.564325" lon="11.2884533"><ele>451.0</ele><time>2026-04-19T08:10:41.651Z</time></trkpt><trkpt lat="43.56423" lon="11.2883"><ele>451.0</ele><time>2026-04-19T08:10:42.649Z</time></trkpt><trkpt lat="43.5641517" lon="11.288155"><ele>451.0</ele><time>2026-04-19T08:10:43.65Z</time></trkpt><trkpt lat="43.5640683" lon="11.2880067"><ele>451.0</ele><time>2026-04-19T08:10:44.649Z</time></trkpt><trkpt lat="43.5639917" lon="11.2878583"><ele>451.0</ele><time>2026-04-19T08:10:45.653Z</time></trkpt><trkpt lat="43.5639117" lon="11.2877267"><ele>449.75</ele><time>2026-04-19T08:10:46.647Z</time></trkpt><trkpt lat="43.5638217" lon="11.2875917"><ele>448.5</ele><time>2026-04-19T08:10:47.644Z</time></trkpt><trkpt lat="43.5637233" lon="11.2874717"><ele>447.25</ele><time>2026-04-19T08:10:48.654Z</time></trkpt><trkpt lat="43.5636117" lon="11.2873433"><ele>446.0</ele><time>2026-04-19T08:10:49.649Z</time></trkpt><trkpt lat="43.563495" lon="11.287265"><ele>445.4</ele><time>2026-04-19T08:10:50.661Z</time></trkpt><trkpt lat="43.5634067" lon="11.287215"><ele>444.8</ele><time>2026-04-19T08:10:51.652Z</time></trkpt><trkpt lat="43.5632967" lon="11.28719"><ele>444.19999999999993</ele><time>2026-04-19T08:10:52.649Z</time></trkpt><trkpt lat="43.563205" lon="11.28717"><ele>443.59999999999997</ele><time>2026-04-19T08:10:53.651Z</time></trkpt><trkpt lat="43.5631233" lon="11.2871583"><ele>443.0</ele><time>2026-04-19T08:10:54.647Z</time></trkpt><trkpt lat="43.5630417" lon="11.2871683"><ele>443.0</ele><time>2026-04-19T08:10:55.652Z</time></trkpt><trkpt lat="43.56296" lon="11.2871867"><ele>442.99999999999994</ele><time>2026-04-19T08:10:56.653Z</time></trkpt><trkpt lat="43.5628767" lon="11.2872383"><ele>442.99999999999994</ele><time>2026-04-19T08:10:57.653Z</time></trkpt><trkpt lat="43.5628133" lon="11.287315"><ele>443.0</ele><time>2026-04-19T08:10:58.651Z</time></trkpt><trkpt lat="43.5627333" lon="11.2873917"><ele>443.0</ele><time>2026-04-19T08:10:59.647Z</time></trkpt><trkpt lat="43.5626517" lon="11.2874567"><ele>443.66666666666663</ele><time>2026-04-19T08:11:00.648Z</time></trkpt><trkpt lat="43.562565" lon="11.2875167"><ele>444.3333333333333</ele><time>2026-04-19T08:11:01.648Z</time></trkpt><trkpt lat="43.56248" lon="11.2875567"><ele>445.0</ele><time>2026-04-19T08:11:02.65Z</time></trkpt><trkpt lat="43.562395" lon="11.28761"><ele>445.66666666666663</ele><time>2026-04-19T08:11:03.653Z</time></trkpt><trkpt lat="43.56231" lon="11.287655"><ele>446.3333333333333</ele><time>2026-04-19T08:11:04.648Z</time></trkpt><trkpt lat="43.5622433" lon="11.287695"><ele>447.0</ele><time>2026-04-19T08:11:05.644Z</time></trkpt><trkpt lat="43.5621367" lon="11.2877583"><ele>447.0</ele><time>2026-04-19T08:11:07.649Z</time></trkpt><trkpt lat="43.5620583" lon="11.2878033"><ele>447.0</ele><time>2026-04-19T08:11:09.647Z</time></trkpt><trkpt lat="43.5620217" lon="11.2879017"><ele>447.0</ele><time>2026-04-19T08:11:11.649Z</time></trkpt><trkpt lat="43.5620217" lon="11.28804"><ele>447.0</ele><time>2026-04-19T08:11:13.652Z</time></trkpt><trkpt lat="43.5620417" lon="11.2881617"><ele>447.0</ele><time>2026-04-19T08:11:15.655Z</time></trkpt><trkpt lat="43.5620667" lon="11.2882433"><ele>447.0</ele><time>2026-04-19T08:11:17.647Z</time></trkpt><trkpt lat="43.5621217" lon="11.28831"><ele>445.5</ele><time>2026-04-19T08:11:23.652Z</time></trkpt><trkpt lat="43.562205" lon="11.2882733"><ele>444.0</ele><time>2026-04-19T08:11:26.647Z</time></trkpt><trkpt lat="43.56231" lon="11.2882633"><ele>442.5</ele><time>2026-04-19T08:11:28.648Z</time></trkpt><trkpt lat="43.5623733" lon="11.28827"><ele>441.0</ele><time>2026-04-19T08:11:29.657Z</time></trkpt><trkpt lat="43.562445" lon="11.288275"><ele>439.5</ele><time>2026-04-19T08:11:30.648Z</time></trkpt><trkpt lat="43.562525" lon="11.2882783"><ele>438.0</ele><time>2026-04-19T08:11:31.649Z</time></trkpt><trkpt lat="43.5626083" lon="11.28828"><ele>438.0</ele><time>2026-04-19T08:11:32.649Z</time></trkpt><trkpt lat="43.5626967" lon="11.2882767"><ele>437.99999999999994</ele><time>2026-04-19T08:11:33.648Z</time></trkpt><trkpt lat="43.5627833" lon="11.2882767"><ele>437.99999999999994</ele><time>2026-04-19T08:11:34.652Z</time></trkpt><trkpt lat="43.562875" lon="11.2882817"><ele>438.0</ele><time>2026-04-19T08:11:35.653Z</time></trkpt><trkpt lat="43.5629733" lon="11.2882867"><ele>438.0</ele><time>2026-04-19T08:11:36.651Z</time></trkpt><trkpt lat="43.5630733" lon="11.2882917"><ele>438.6666666666667</ele><time>2026-04-19T08:11:37.651Z</time></trkpt><trkpt lat="43.56317" lon="11.2883"><ele>439.33333333333337</ele><time>2026-04-19T08:11:38.653Z</time></trkpt><trkpt lat="43.5632633" lon="11.2883117"><ele>440.0</ele><time>2026-04-19T08:11:39.654Z</time></trkpt><trkpt lat="43.563345" lon="11.28833"><ele>440.6666666666667</ele><time>2026-04-19T08:11:40.647Z</time></trkpt><trkpt lat="43.5634183" lon="11.2883583"><ele>441.33333333333337</ele><time>2026-04-19T08:11:41.647Z</time></trkpt><trkpt lat="43.563485" lon="11.288395"><ele>442.0</ele><time>2026-04-19T08:11:42.647Z</time></trkpt><trkpt lat="43.5635467" lon="11.2884467"><ele>442.00000000000006</ele><time>2026-04-19T08:11:43.652Z</time></trkpt><trkpt lat="43.5636" lon="11.2885117"><ele>442.0</ele><time>2026-04-19T08:11:44.652Z</time></trkpt><trkpt lat="43.5636483" lon="11.2885833"><ele>442.0</ele><time>2026-04-19T08:11:45.644Z</time></trkpt><trkpt lat="43.5636967" lon="11.2886583"><ele>442.0</ele><time>2026-04-19T08:11:46.649Z</time></trkpt><trkpt lat="43.5637417" lon="11.2887367"><ele>442.0</ele><time>2026-04-19T08:11:47.646Z</time></trkpt><trkpt lat="43.5637867" lon="11.2888133"><ele>442.00000000000006</ele><time>2026-04-19T08:11:48.647Z</time></trkpt><trkpt lat="43.5638333" lon="11.2889017"><ele>442.0</ele><time>2026-04-19T08:11:49.653Z</time></trkpt><trkpt lat="43.5638833" lon="11.2889933"><ele>443.50000000000006</ele><time>2026-04-19T08:11:50.649Z</time></trkpt><trkpt lat="43.563935" lon="11.2890833"><ele>445.0</ele><time>2026-04-19T08:11:51.656Z</time></trkpt><trkpt lat="43.563985" lon="11.28917"><ele>446.5</ele><time>2026-04-19T08:11:52.649Z</time></trkpt><trkpt lat="43.5640317" lon="11.289255"><ele>448.0</ele><time>2026-04-19T08:11:53.651Z</time></trkpt><trkpt lat="43.5640817" lon="11.2893433"><ele>449.50000000000006</ele><time>2026-04-19T08:11:54.653Z</time></trkpt><trkpt lat="43.5641367" lon="11.2894333"><ele>451.0</ele><time>2026-04-19T08:11:55.651Z</time></trkpt><trkpt lat="43.5641917" lon="11.289525"><ele>451.00000000000006</ele><time>2026-04-19T08:11:56.643Z</time></trkpt><trkpt lat="43.564245" lon="11.2896133"><ele>451.0</ele><time>2026-04-19T08:11:57.643Z</time></trkpt><trkpt lat="43.5643017" lon="11.2897033"><ele>451.0</ele><time>2026-04-19T08:11:58.654Z</time></trkpt><trkpt lat="43.56436" lon="11.289795"><ele>451.0</ele><time>2026-04-19T08:11:59.651Z</time></trkpt><trkpt lat="43.5644117" lon="11.2898817"><ele>451.00000000000006</ele><time>2026-04-19T08:12:00.649Z</time></trkpt><trkpt lat="43.5644583" lon="11.2899633"><ele>451.0</ele><time>2026-04-19T08:12:01.647Z</time></trkpt><trkpt lat="43.56451" lon="11.2900467"><ele>451.50000000000006</ele><time>2026-04-19T08:12:02.65Z</time></trkpt><trkpt lat="43.5645617" lon="11.2901267"><ele>452.0</ele><time>2026-04-19T08:12:03.653Z</time></trkpt><trkpt lat="43.5646067" lon="11.2902017"><ele>452.5</ele><time>2026-04-19T08:12:04.655Z</time></trkpt><trkpt lat="43.56468" lon="11.2903267"><ele>453.0</ele><time>2026-04-19T08:12:06.647Z</time></trkpt><trkpt lat="43.56474" lon="11.290425"><ele>453.50000000000006</ele><time>2026-04-19T08:12:08.652Z</time></trkpt><trkpt lat="43.5647817" lon="11.2904933"><ele>454.0</ele><time>2026-04-19T08:12:10.646Z</time></trkpt><trkpt lat="43.5647867" lon="11.2906067"><ele>454.00000000000006</ele><time>2026-04-19T08:12:13.652Z</time></trkpt><trkpt lat="43.5647483" lon="11.2906867"><ele>454.0</ele><time>2026-04-19T08:12:15.649Z</time></trkpt><trkpt lat="43.5646767" lon="11.29077"><ele>454.0</ele><time>2026-04-19T08:12:17.657Z</time></trkpt><trkpt lat="43.56462" lon="11.2908167"><ele>454.0</ele><time>2026-04-19T08:12:18.65Z</time></trkpt><trkpt lat="43.564555" lon="11.2908833"><ele>454.00000000000006</ele><time>2026-04-19T08:12:19.651Z</time></trkpt><trkpt lat="43.5644833" lon="11.29095"><ele>454.0</ele><time>2026-04-19T08:12:20.651Z</time></trkpt><trkpt lat="43.5644117" lon="11.2910233"><ele>454.33333333333337</ele><time>2026-04-19T08:12:21.651Z</time></trkpt><trkpt lat="43.5643417" lon="11.2911"><ele>454.6666666666667</ele><time>2026-04-19T08:12:22.645Z</time></trkpt><trkpt lat="43.5642767" lon="11.2911817"><ele>455.0</ele><time>2026-04-19T08:12:23.649Z</time></trkpt><trkpt lat="43.56422" lon="11.2912767"><ele>455.33333333333337</ele><time>2026-04-19T08:12:24.648Z</time></trkpt><trkpt lat="43.5641817" lon="11.2913683"><ele>455.6666666666667</ele><time>2026-04-19T08:12:25.652Z</time></trkpt><trkpt lat="43.5641683" lon="11.2914983"><ele>456.0</ele><time>2026-04-19T08:12:26.652Z</time></trkpt><trkpt lat="43.5641433" lon="11.291635"><ele>457.4</ele><time>2026-04-19T08:12:27.654Z</time></trkpt><trkpt lat="43.5641083" lon="11.2917667"><ele>458.8</ele><time>2026-04-19T08:12:28.647Z</time></trkpt><trkpt lat="43.5640833" lon="11.2918817"><ele>460.19999999999993</ele><time>2026-04-19T08:12:29.65Z</time></trkpt><trkpt lat="43.5640283" lon="11.2919683"><ele>461.59999999999997</ele><time>2026-04-19T08:12:30.669Z</time></trkpt><trkpt lat="43.5639517" lon="11.2920417"><ele>463.0</ele><time>2026-04-19T08:12:31.649Z</time></trkpt><trkpt lat="43.563835" lon="11.2920933"><ele>463.0</ele><time>2026-04-19T08:12:32.653Z</time></trkpt><trkpt lat="43.563715" lon="11.2921583"><ele>463.0</ele><time>2026-04-19T08:12:33.654Z</time></trkpt><trkpt lat="43.5635817" lon="11.2922317"><ele>463.0</ele><time>2026-04-19T08:12:34.658Z</time></trkpt><trkpt lat="43.5634483" lon="11.29232"><ele>463.0</ele><time>2026-04-19T08:12:35.654Z</time></trkpt><trkpt lat="43.563325" lon="11.2924267"><ele>467.33333333333337</ele><time>2026-04-19T08:12:36.654Z</time></trkpt><trkpt lat="43.5632083" lon="11.2925533"><ele>471.66666666666663</ele><time>2026-04-19T08:12:37.649Z</time></trkpt><trkpt lat="43.5630933" lon="11.2927"><ele>476.0</ele><time>2026-04-19T08:12:38.648Z</time></trkpt><trkpt lat="43.5629783" lon="11.2928633"><ele>476.0</ele><time>2026-04-19T08:12:39.647Z</time></trkpt><trkpt lat="43.56288" lon="11.2930383"><ele>476.0</ele><time>2026-04-19T08:12:40.648Z</time></trkpt><trkpt lat="43.5627917" lon="11.2932183"><ele>476.0</ele><time>2026-04-19T08:12:41.649Z</time></trkpt><trkpt lat="43.5627117" lon="11.29341"><ele>480.0</ele><time>2026-04-19T08:12:42.65Z</time></trkpt><trkpt lat="43.56264" lon="11.2936017"><ele>484.0</ele><time>2026-04-19T08:12:43.653Z</time></trkpt><trkpt lat="43.5625733" lon="11.2938017"><ele>488.0</ele><time>2026-04-19T08:12:44.649Z</time></trkpt><trkpt lat="43.5625117" lon="11.2940083"><ele>489.3333333333333</ele><time>2026-04-19T08:12:45.654Z</time></trkpt><trkpt lat="43.5624567" lon="11.2942183"><ele>490.66666666666663</ele><time>2026-04-19T08:12:46.655Z</time></trkpt><trkpt lat="43.5624083" lon="11.2944333"><ele>492.0</ele><time>2026-04-19T08:12:47.646Z</time></trkpt><trkpt lat="43.5623667" lon="11.2946467"><ele>492.75</ele><time>2026-04-19T08:12:48.658Z</time></trkpt><trkpt lat="43.56234" lon="11.2948533"><ele>493.5</ele><time>2026-04-19T08:12:49.65Z</time></trkpt><trkpt lat="43.5623183" lon="11.29505"><ele>494.25</ele><time>2026-04-19T08:12:50.652Z</time></trkpt><trkpt lat="43.562295" lon="11.2952317"><ele>495.0</ele><time>2026-04-19T08:12:51.652Z</time></trkpt><trkpt lat="43.5622633" lon="11.2953867"><ele>495.0</ele><time>2026-04-19T08:12:52.65Z</time></trkpt><trkpt lat="43.56223" lon="11.2955133"><ele>495.0</ele><time>2026-04-19T08:12:53.649Z</time></trkpt><trkpt lat="43.56216" lon="11.2955967"><ele>495.0</ele><time>2026-04-19T08:12:54.653Z</time></trkpt><trkpt lat="43.562065" lon="11.2956517"><ele>495.0</ele><time>2026-04-19T08:12:55.651Z</time></trkpt><trkpt lat="43.5619583" lon="11.2956933"><ele>495.0</ele><time>2026-04-19T08:12:56.653Z</time></trkpt><trkpt lat="43.5618467" lon="11.2957417"><ele>498.5</ele><time>2026-04-19T08:12:57.655Z</time></trkpt><trkpt lat="43.56173" lon="11.2958033"><ele>502.0</ele><time>2026-04-19T08:12:58.656Z</time></trkpt><trkpt lat="43.5616017" lon="11.2958933"><ele>505.5</ele><time>2026-04-19T08:12:59.65Z</time></trkpt><trkpt lat="43.5614667" lon="11.2959917"><ele>509.0</ele><time>2026-04-19T08:13:00.648Z</time></trkpt><trkpt lat="43.5613367" lon="11.2960917"><ele>505.66666666666663</ele><time>2026-04-19T08:13:01.659Z</time></trkpt><trkpt lat="43.5611917" lon="11.2962"><ele>502.33333333333337</ele><time>2026-04-19T08:13:02.653Z</time></trkpt><trkpt lat="43.5610317" lon="11.2963017"><ele>499.0</ele><time>2026-04-19T08:13:03.651Z</time></trkpt><trkpt lat="43.5608483" lon="11.2963933"><ele>499.6666666666667</ele><time>2026-04-19T08:13:04.651Z</time></trkpt><trkpt lat="43.56067" lon="11.2964783"><ele>500.33333333333337</ele><time>2026-04-19T08:13:05.658Z</time></trkpt><trkpt lat="43.5604967" lon="11.2965667"><ele>501.0</ele><time>2026-04-19T08:13:06.652Z</time></trkpt><trkpt lat="43.5603233" lon="11.2966583"><ele>501.0</ele><time>2026-04-19T08:13:07.654Z</time></trkpt><trkpt lat="43.560155" lon="11.296735"><ele>501.0</ele><time>2026-04-19T08:13:08.644Z</time></trkpt><trkpt lat="43.5599783" lon="11.2967967"><ele>501.0</ele><time>2026-04-19T08:13:09.648Z</time></trkpt><trkpt lat="43.5598017" lon="11.29685"><ele>501.0</ele><time>2026-04-19T08:13:10.647Z</time></trkpt><trkpt lat="43.5596217" lon="11.2968883"><ele>501.0</ele><time>2026-04-19T08:13:11.646Z</time></trkpt><trkpt lat="43.559445" lon="11.2969133"><ele>501.0</ele><time>2026-04-19T08:13:12.654Z</time></trkpt><trkpt lat="43.5592667" lon="11.2969433"><ele>501.33333333333337</ele><time>2026-04-19T08:13:13.653Z</time></trkpt><trkpt lat="43.559085" lon="11.296985"><ele>501.6666666666667</ele><time>2026-04-19T08:13:14.652Z</time></trkpt><trkpt lat="43.558895" lon="11.2970367"><ele>502.0</ele><time>2026-04-19T08:13:15.643Z</time></trkpt><trkpt lat="43.5586983" lon="11.2970833"><ele>502.0</ele><time>2026-04-19T08:13:16.648Z</time></trkpt><trkpt lat="43.5585017" lon="11.2971333"><ele>502.0</ele><time>2026-04-19T08:13:17.654Z</time></trkpt><trkpt lat="43.558305" lon="11.2972067"><ele>502.0</ele><time>2026-04-19T08:13:18.647Z</time></trkpt><trkpt lat="43.5581117" lon="11.2972867"><ele>501.0</ele><time>2026-04-19T08:13:19.649Z</time></trkpt><trkpt lat="43.55793" lon="11.297375"><ele>500.0</ele><time>2026-04-19T08:13:20.648Z</time></trkpt><trkpt lat="43.5577567" lon="11.297455"><ele>499.0</ele><time>2026-04-19T08:13:21.648Z</time></trkpt><trkpt lat="43.55759" lon="11.29751"><ele>499.0</ele><time>2026-04-19T08:13:22.65Z</time></trkpt><trkpt lat="43.5574467" lon="11.2975367"><ele>499.0</ele><time>2026-04-19T08:13:23.647Z</time></trkpt><trkpt lat="43.557315" lon="11.2975283"><ele>499.0</ele><time>2026-04-19T08:13:24.652Z</time></trkpt><trkpt lat="43.5571583" lon="11.2975167"><ele>499.0</ele><time>2026-04-19T08:13:25.652Z</time></trkpt><trkpt lat="43.5569933" lon="11.2975333"><ele>497.0</ele><time>2026-04-19T08:13:26.651Z</time></trkpt><trkpt lat="43.55683" lon="11.2975667"><ele>495.0</ele><time>2026-04-19T08:13:27.65Z</time></trkpt><trkpt lat="43.5566633" lon="11.29761"><ele>493.0</ele><time>2026-04-19T08:13:28.648Z</time></trkpt><trkpt lat="43.5564967" lon="11.2976467"><ele>493.0</ele><time>2026-04-19T08:13:29.651Z</time></trkpt><trkpt lat="43.5563383" lon="11.297685"><ele>493.0</ele><time>2026-04-19T08:13:30.646Z</time></trkpt><trkpt lat="43.5561833" lon="11.29772"><ele>493.0</ele><time>2026-04-19T08:13:31.661Z</time></trkpt><trkpt lat="43.556035" lon="11.2977517"><ele>491.5</ele><time>2026-04-19T08:13:32.654Z</time></trkpt><trkpt lat="43.5558917" lon="11.297785"><ele>490.0</ele><time>2026-04-19T08:13:33.66Z</time></trkpt><trkpt lat="43.5557517" lon="11.2978267"><ele>488.5</ele><time>2026-04-19T08:13:34.649Z</time></trkpt><trkpt lat="43.5556233" lon="11.2978667"><ele>487.0</ele><time>2026-04-19T08:13:35.648Z</time></trkpt><trkpt lat="43.5554883" lon="11.29791"><ele>485.0</ele><time>2026-04-19T08:13:36.652Z</time></trkpt><trkpt lat="43.555345" lon="11.2979417"><ele>483.0</ele><time>2026-04-19T08:13:37.646Z</time></trkpt><trkpt lat="43.5552017" lon="11.297975"><ele>481.0</ele><time>2026-04-19T08:13:38.645Z</time></trkpt><trkpt lat="43.5550383" lon="11.29801"><ele>481.0</ele><time>2026-04-19T08:13:39.65Z</time></trkpt><trkpt lat="43.5548817" lon="11.298065"><ele>481.0</ele><time>2026-04-19T08:13:40.654Z</time></trkpt><trkpt lat="43.5547317" lon="11.2981433"><ele>481.0</ele><time>2026-04-19T08:13:41.652Z</time></trkpt><trkpt lat="43.5545817" lon="11.29823"><ele>481.33333333333337</ele><time>2026-04-19T08:13:42.654Z</time></trkpt><trkpt lat="43.5544367" lon="11.2983433"><ele>481.66666666666663</ele><time>2026-04-19T08:13:43.652Z</time></trkpt><trkpt lat="43.5543083" lon="11.298485"><ele>482.0</ele><time>2026-04-19T08:13:44.653Z</time></trkpt><trkpt lat="43.55421" lon="11.29864"><ele>482.0</ele><time>2026-04-19T08:13:45.651Z</time></trkpt><trkpt lat="43.5540933" lon="11.2987717"><ele>482.0</ele><time>2026-04-19T08:13:46.645Z</time></trkpt><trkpt lat="43.5539767" lon="11.2988917"><ele>482.0</ele><time>2026-04-19T08:13:47.649Z</time></trkpt><trkpt lat="43.5538667" lon="11.29897"><ele>482.0</ele><time>2026-04-19T08:13:48.65Z</time></trkpt><trkpt lat="43.5537483" lon="11.2990333"><ele>485.5</ele><time>2026-04-19T08:13:49.649Z</time></trkpt><trkpt lat="43.5536233" lon="11.2990733"><ele>489.0</ele><time>2026-04-19T08:13:50.649Z</time></trkpt><trkpt lat="43.55349" lon="11.2991017"><ele>492.5</ele><time>2026-04-19T08:13:51.649Z</time></trkpt><trkpt lat="43.5533617" lon="11.2991467"><ele>496.0</ele><time>2026-04-19T08:13:52.652Z</time></trkpt><trkpt lat="43.55323" lon="11.2992233"><ele>496.0</ele><time>2026-04-19T08:13:53.654Z</time></trkpt><trkpt lat="43.5531083" lon="11.2993183"><ele>496.0</ele><time>2026-04-19T08:13:54.652Z</time></trkpt><trkpt lat="43.5529617" lon="11.2994067"><ele>496.0</ele><time>2026-04-19T08:13:55.649Z</time></trkpt><trkpt lat="43.55285" lon="11.2995383"><ele>496.0</ele><time>2026-04-19T08:13:56.646Z</time></trkpt><trkpt lat="43.552745" lon="11.299715"><ele>497.6666666666667</ele><time>2026-04-19T08:13:57.644Z</time></trkpt><trkpt lat="43.5526717" lon="11.2999417"><ele>499.33333333333337</ele><time>2026-04-19T08:13:58.655Z</time></trkpt><trkpt lat="43.5526133" lon="11.3001717"><ele>501.0</ele><time>2026-04-19T08:13:59.65Z</time></trkpt><trkpt lat="43.552535" lon="11.3003833"><ele>501.0</ele><time>2026-04-19T08:14:00.656Z</time></trkpt><trkpt lat="43.552455" lon="11.3005817"><ele>501.0</ele><time>2026-04-19T08:14:01.654Z</time></trkpt><trkpt lat="43.5523783" lon="11.30078"><ele>501.0</ele><time>2026-04-19T08:14:02.651Z</time></trkpt><trkpt lat="43.5523133" lon="11.30096"><ele>501.0</ele><time>2026-04-19T08:14:03.652Z</time></trkpt><trkpt lat="43.5522583" lon="11.3011417"><ele>501.0</ele><time>2026-04-19T08:14:04.656Z</time></trkpt><trkpt lat="43.5521983" lon="11.301335"><ele>501.0</ele><time>2026-04-19T08:14:05.65Z</time></trkpt><trkpt lat="43.55214" lon="11.30154"><ele>499.66666666666663</ele><time>2026-04-19T08:14:06.652Z</time></trkpt><trkpt lat="43.552065" lon="11.301765"><ele>498.3333333333333</ele><time>2026-04-19T08:14:07.651Z</time></trkpt><trkpt lat="43.55199" lon="11.302005"><ele>497.0</ele><time>2026-04-19T08:14:08.652Z</time></trkpt><trkpt lat="43.5519083" lon="11.3022433"><ele>498.3333333333333</ele><time>2026-04-19T08:14:09.66Z</time></trkpt><trkpt lat="43.5518183" lon="11.302465"><ele>499.66666666666663</ele><time>2026-04-19T08:14:10.647Z</time></trkpt><trkpt lat="43.55172" lon="11.302665"><ele>501.0</ele><time>2026-04-19T08:14:11.649Z</time></trkpt><trkpt lat="43.5516183" lon="11.3028583"><ele>501.0</ele><time>2026-04-19T08:14:12.65Z</time></trkpt><trkpt lat="43.5515133" lon="11.303035"><ele>501.0</ele><time>2026-04-19T08:14:13.652Z</time></trkpt><trkpt lat="43.5514017" lon="11.3031967"><ele>501.0</ele><time>2026-04-19T08:14:14.65Z</time></trkpt><trkpt lat="43.5512733" lon="11.30333"><ele>499.66666666666663</ele><time>2026-04-19T08:14:15.654Z</time></trkpt><trkpt lat="43.5511417" lon="11.30342"><ele>498.3333333333333</ele><time>2026-04-19T08:14:16.649Z</time></trkpt><trkpt lat="43.5510167" lon="11.3035283"><ele>497.0</ele><time>2026-04-19T08:14:17.647Z</time></trkpt><trkpt lat="43.5508833" lon="11.3036567"><ele>497.0</ele><time>2026-04-19T08:14:18.654Z</time></trkpt><trkpt lat="43.5507433" lon="11.3038117"><ele>497.0</ele><time>2026-04-19T08:14:19.651Z</time></trkpt><trkpt lat="43.5506217" lon="11.3039517"><ele>497.0</ele><time>2026-04-19T08:14:20.651Z</time></trkpt><trkpt lat="43.55051" lon="11.3040883"><ele>495.5</ele><time>2026-04-19T08:14:21.651Z</time></trkpt><trkpt lat="43.5504067" lon="11.3042067"><ele>494.0</ele><time>2026-04-19T08:14:22.655Z</time></trkpt><trkpt lat="43.5503183" lon="11.3043083"><ele>492.5</ele><time>2026-04-19T08:14:23.651Z</time></trkpt><trkpt lat="43.5502317" lon="11.3044133"><ele>491.0</ele><time>2026-04-19T08:14:24.653Z</time></trkpt><trkpt lat="43.550155" lon="11.3045133"><ele>491.0</ele><time>2026-04-19T08:14:25.647Z</time></trkpt><trkpt lat="43.5500783" lon="11.3046017"><ele>491.0</ele><time>2026-04-19T08:14:26.656Z</time></trkpt><trkpt lat="43.5499867" lon="11.3046867"><ele>491.0</ele><time>2026-04-19T08:14:27.649Z</time></trkpt><trkpt lat="43.54988" lon="11.3047867"><ele>491.0</ele><time>2026-04-19T08:14:28.654Z</time></trkpt><trkpt lat="43.549775" lon="11.3048867"><ele>488.25</ele><time>2026-04-19T08:14:29.649Z</time></trkpt><trkpt lat="43.54967" lon="11.304995"><ele>485.5</ele><time>2026-04-19T08:14:30.652Z</time></trkpt><trkpt lat="43.5495567" lon="11.305125"><ele>482.75</ele><time>2026-04-19T08:14:31.645Z</time></trkpt><trkpt lat="43.549435" lon="11.3052767"><ele>480.0</ele><time>2026-04-19T08:14:32.648Z</time></trkpt><trkpt lat="43.54932" lon="11.3054333"><ele>476.66666666666663</ele><time>2026-04-19T08:14:33.651Z</time></trkpt><trkpt lat="43.549205" lon="11.30559"><ele>473.3333333333333</ele><time>2026-04-19T08:14:34.652Z</time></trkpt><trkpt lat="43.549095" lon="11.3057433"><ele>470.0</ele><time>2026-04-19T08:14:35.644Z</time></trkpt><trkpt lat="43.5489883" lon="11.305895"><ele>470.0</ele><time>2026-04-19T08:14:36.66Z</time></trkpt><trkpt lat="43.548885" lon="11.3060467"><ele>470.0</ele><time>2026-04-19T08:14:37.647Z</time></trkpt><trkpt lat="43.5487817" lon="11.30619"><ele>470.0</ele><time>2026-04-19T08:14:38.648Z</time></trkpt><trkpt lat="43.54868" lon="11.3063267"><ele>470.0</ele><time>2026-04-19T08:14:39.649Z</time></trkpt><trkpt lat="43.54858" lon="11.3064533"><ele>471.0</ele><time>2026-04-19T08:14:40.649Z</time></trkpt><trkpt lat="43.5484817" lon="11.3065733"><ele>472.0</ele><time>2026-04-19T08:14:41.655Z</time></trkpt><trkpt lat="43.54838" lon="11.30668"><ele>473.0</ele><time>2026-04-19T08:14:42.651Z</time></trkpt><trkpt lat="43.54828" lon="11.30677"><ele>474.0</ele><time>2026-04-19T08:14:43.644Z</time></trkpt><trkpt lat="43.5481833" lon="11.3068517"><ele>474.0</ele><time>2026-04-19T08:14:44.646Z</time></trkpt><trkpt lat="43.5481" lon="11.306925"><ele>474.0</ele><time>2026-04-19T08:14:45.646Z</time></trkpt><trkpt lat="43.5480183" lon="11.3069817"><ele>474.0</ele><time>2026-04-19T08:14:46.648Z</time></trkpt><trkpt lat="43.54794" lon="11.3070133"><ele>474.0</ele><time>2026-04-19T08:14:47.653Z</time></trkpt><trkpt lat="43.54787" lon="11.307"><ele>474.0</ele><time>2026-04-19T08:14:48.649Z</time></trkpt><trkpt lat="43.547795" lon="11.3069933"><ele>474.0</ele><time>2026-04-19T08:14:49.649Z</time></trkpt><trkpt lat="43.5476917" lon="11.3069683"><ele>472.6</ele><time>2026-04-19T08:14:50.65Z</time></trkpt><trkpt lat="43.5475883" lon="11.306975"><ele>471.2</ele><time>2026-04-19T08:14:51.651Z</time></trkpt><trkpt lat="43.547485" lon="11.3069983"><ele>469.80000000000007</ele><time>2026-04-19T08:14:52.647Z</time></trkpt><trkpt lat="43.5473717" lon="11.3070383"><ele>468.40000000000003</ele><time>2026-04-19T08:14:53.646Z</time></trkpt><trkpt lat="43.547265" lon="11.3070867"><ele>467.0</ele><time>2026-04-19T08:14:54.647Z</time></trkpt><trkpt lat="43.5471417" lon="11.3071483"><ele>464.8</ele><time>2026-04-19T08:14:55.651Z</time></trkpt><trkpt lat="43.5470417" lon="11.30718"><ele>462.6</ele><time>2026-04-19T08:14:56.645Z</time></trkpt><trkpt lat="43.5469167" lon="11.3072333"><ele>460.40000000000003</ele><time>2026-04-19T08:14:57.646Z</time></trkpt><trkpt lat="43.5468283" lon="11.3073083"><ele>458.20000000000005</ele><time>2026-04-19T08:14:58.648Z</time></trkpt><trkpt lat="43.5467417" lon="11.3074067"><ele>456.0</ele><time>2026-04-19T08:14:59.647Z</time></trkpt><trkpt lat="43.54667" lon="11.3075333"><ele>456.0</ele><time>2026-04-19T08:15:00.647Z</time></trkpt><trkpt lat="43.5466017" lon="11.3076583"><ele>456.0</ele><time>2026-04-19T08:15:01.651Z</time></trkpt><trkpt lat="43.54652" lon="11.307775"><ele>456.0</ele><time>2026-04-19T08:15:02.654Z</time></trkpt><trkpt lat="43.5464333" lon="11.3078983"><ele>456.0</ele><time>2026-04-19T08:15:03.645Z</time></trkpt><trkpt lat="43.5463483" lon="11.3080283"><ele>457.66666666666663</ele><time>2026-04-19T08:15:04.653Z</time></trkpt><trkpt lat="43.5462417" lon="11.3081767"><ele>459.3333333333333</ele><time>2026-04-19T08:15:05.646Z</time></trkpt><trkpt lat="43.5461383" lon="11.308315"><ele>461.0</ele><time>2026-04-19T08:15:06.65Z</time></trkpt><trkpt lat="43.54602" lon="11.3084667"><ele>459.25</ele><time>2026-04-19T08:15:07.651Z</time></trkpt><trkpt lat="43.545915" lon="11.3086167"><ele>457.5</ele><time>2026-04-19T08:15:08.65Z</time></trkpt><trkpt lat="43.545835" lon="11.308775"><ele>455.75</ele><time>2026-04-19T08:15:09.651Z</time></trkpt><trkpt lat="43.5457583" lon="11.3089433"><ele>454.0</ele><time>2026-04-19T08:15:10.651Z</time></trkpt><trkpt lat="43.5456783" lon="11.3091133"><ele>454.0</ele><time>2026-04-19T08:15:11.653Z</time></trkpt><trkpt lat="43.5455883" lon="11.3092833"><ele>454.0</ele><time>2026-04-19T08:15:12.646Z</time></trkpt><trkpt lat="43.5455067" lon="11.3094483"><ele>454.0</ele><time>2026-04-19T08:15:13.657Z</time></trkpt><trkpt lat="43.54544" lon="11.3096"><ele>454.0</ele><time>2026-04-19T08:15:14.645Z</time></trkpt><trkpt lat="43.5453967" lon="11.309735"><ele>452.5</ele><time>2026-04-19T08:15:15.646Z</time></trkpt><trkpt lat="43.5453667" lon="11.309875"><ele>451.0</ele><time>2026-04-19T08:15:16.648Z</time></trkpt><trkpt lat="43.5453267" lon="11.31015"><ele>449.5</ele><time>2026-04-19T08:15:18.651Z</time></trkpt><trkpt lat="43.5453117" lon="11.3102633"><ele>448.0</ele><time>2026-04-19T08:15:19.652Z</time></trkpt><trkpt lat="43.545275" lon="11.310365"><ele>448.0</ele><time>2026-04-19T08:15:20.652Z</time></trkpt><trkpt lat="43.5452417" lon="11.310465"><ele>447.99999999999994</ele><time>2026-04-19T08:15:21.647Z</time></trkpt><trkpt lat="43.54521" lon="11.31057"><ele>447.99999999999994</ele><time>2026-04-19T08:15:22.65Z</time></trkpt><trkpt lat="43.5451783" lon="11.3106967"><ele>448.0</ele><time>2026-04-19T08:15:23.648Z</time></trkpt><trkpt lat="43.5451467" lon="11.310845"><ele>448.0</ele><time>2026-04-19T08:15:24.647Z</time></trkpt><trkpt lat="43.545115" lon="11.311"><ele>448.0</ele><time>2026-04-19T08:15:25.653Z</time></trkpt><trkpt lat="43.54509" lon="11.31115"><ele>447.99999999999994</ele><time>2026-04-19T08:15:26.652Z</time></trkpt><trkpt lat="43.545065" lon="11.3113033"><ele>447.99999999999994</ele><time>2026-04-19T08:15:27.65Z</time></trkpt><trkpt lat="43.5450367" lon="11.311445"><ele>448.0</ele><time>2026-04-19T08:15:28.652Z</time></trkpt><trkpt lat="43.5450017" lon="11.31158"><ele>448.0</ele><time>2026-04-19T08:15:29.649Z</time></trkpt><trkpt lat="43.5449633" lon="11.3117017"><ele>448.33333333333337</ele><time>2026-04-19T08:15:30.647Z</time></trkpt><trkpt lat="43.5449183" lon="11.31181"><ele>448.6666666666667</ele><time>2026-04-19T08:15:31.644Z</time></trkpt><trkpt lat="43.544865" lon="11.31191"><ele>449.0</ele><time>2026-04-19T08:15:32.653Z</time></trkpt><trkpt lat="43.5448117" lon="11.3119967"><ele>449.33333333333337</ele><time>2026-04-19T08:15:33.649Z</time></trkpt><trkpt lat="43.544755" lon="11.31207"><ele>449.6666666666667</ele><time>2026-04-19T08:15:34.65Z</time></trkpt><trkpt lat="43.5446867" lon="11.31215"><ele>450.0</ele><time>2026-04-19T08:15:35.648Z</time></trkpt><trkpt lat="43.5446117" lon="11.3122317"><ele>449.6</ele><time>2026-04-19T08:15:36.649Z</time></trkpt><trkpt lat="43.5445333" lon="11.3123167"><ele>449.2</ele><time>2026-04-19T08:15:37.651Z</time></trkpt><trkpt lat="43.5444633" lon="11.31239"><ele>448.79999999999995</ele><time>2026-04-19T08:15:38.651Z</time></trkpt><trkpt lat="43.5443967" lon="11.31246"><ele>448.4</ele><time>2026-04-19T08:15:39.65Z</time></trkpt><trkpt lat="43.54431" lon="11.3125483"><ele>448.0</ele><time>2026-04-19T08:15:40.653Z</time></trkpt><trkpt lat="43.5442183" lon="11.312645"><ele>448.0</ele><time>2026-04-19T08:15:41.652Z</time></trkpt><trkpt lat="43.5441283" lon="11.3127383"><ele>448.0</ele><time>2026-04-19T08:15:42.644Z</time></trkpt><trkpt lat="43.5440333" lon="11.312825"><ele>448.0</ele><time>2026-04-19T08:15:43.65Z</time></trkpt><trkpt lat="43.5439383" lon="11.3129233"><ele>448.0</ele><time>2026-04-19T08:15:44.653Z</time></trkpt><trkpt lat="43.5438567" lon="11.31303"><ele>449.0</ele><time>2026-04-19T08:15:45.648Z</time></trkpt><trkpt lat="43.54379" lon="11.313145"><ele>449.99999999999994</ele><time>2026-04-19T08:15:46.65Z</time></trkpt><trkpt lat="43.54373" lon="11.3132583"><ele>450.99999999999994</ele><time>2026-04-19T08:15:47.647Z</time></trkpt><trkpt lat="43.5436933" lon="11.3133767"><ele>452.0</ele><time>2026-04-19T08:15:48.651Z</time></trkpt><trkpt lat="43.5436783" lon="11.3135033"><ele>453.0</ele><time>2026-04-19T08:15:49.651Z</time></trkpt><trkpt lat="43.5436883" lon="11.313645"><ele>453.4</ele><time>2026-04-19T08:15:50.652Z</time></trkpt><trkpt lat="43.5437" lon="11.31379"><ele>453.79999999999995</ele><time>2026-04-19T08:15:51.652Z</time></trkpt><trkpt lat="43.5437617" lon="11.3139383"><ele>454.2</ele><time>2026-04-19T08:15:52.65Z</time></trkpt><trkpt lat="43.5438033" lon="11.3140633"><ele>454.6</ele><time>2026-04-19T08:15:53.65Z</time></trkpt><trkpt lat="43.5438017" lon="11.3141883"><ele>455.0</ele><time>2026-04-19T08:15:54.649Z</time></trkpt><trkpt lat="43.5438067" lon="11.3143067"><ele>455.0</ele><time>2026-04-19T08:15:55.648Z</time></trkpt><trkpt lat="43.5438017" lon="11.3144367"><ele>455.0</ele><time>2026-04-19T08:15:56.651Z</time></trkpt><trkpt lat="43.5437767" lon="11.31456"><ele>455.0</ele><time>2026-04-19T08:15:57.652Z</time></trkpt><trkpt lat="43.5437417" lon="11.31467"><ele>455.0</ele><time>2026-04-19T08:15:58.654Z</time></trkpt><trkpt lat="43.5436383" lon="11.3147817"><ele>455.0</ele><time>2026-04-19T08:15:59.654Z</time></trkpt><trkpt lat="43.5435283" lon="11.3148883"><ele>453.5</ele><time>2026-04-19T08:16:00.648Z</time></trkpt><trkpt lat="43.54343" lon="11.31499"><ele>452.0</ele><time>2026-04-19T08:16:01.653Z</time></trkpt><trkpt lat="43.5433283" lon="11.3150917"><ele>450.5</ele><time>2026-04-19T08:16:02.65Z</time></trkpt><trkpt lat="43.543215" lon="11.31519"><ele>449.0</ele><time>2026-04-19T08:16:03.65Z</time></trkpt><trkpt lat="43.5430833" lon="11.3152867"><ele>449.0</ele><time>2026-04-19T08:16:04.647Z</time></trkpt><trkpt lat="43.5429433" lon="11.3153617"><ele>449.0</ele><time>2026-04-19T08:16:05.655Z</time></trkpt><trkpt lat="43.5427967" lon="11.3154267"><ele>449.0</ele><time>2026-04-19T08:16:06.651Z</time></trkpt><trkpt lat="43.54266" lon="11.3154883"><ele>449.0</ele><time>2026-04-19T08:16:07.651Z</time></trkpt><trkpt lat="43.5425233" lon="11.3155517"><ele>450.0</ele><time>2026-04-19T08:16:08.652Z</time></trkpt><trkpt lat="43.542395" lon="11.3156117"><ele>451.0</ele><time>2026-04-19T08:16:09.658Z</time></trkpt><trkpt lat="43.5422683" lon="11.3156717"><ele>452.0</ele><time>2026-04-19T08:16:10.654Z</time></trkpt><trkpt lat="43.54215" lon="11.3157267"><ele>453.0</ele><time>2026-04-19T08:16:11.657Z</time></trkpt><trkpt lat="43.54203" lon="11.3157817"><ele>449.5</ele><time>2026-04-19T08:16:12.654Z</time></trkpt><trkpt lat="43.5419083" lon="11.3158233"><ele>446.0</ele><time>2026-04-19T08:16:13.658Z</time></trkpt><trkpt lat="43.54178" lon="11.31586"><ele>442.5</ele><time>2026-04-19T08:16:14.647Z</time></trkpt><trkpt lat="43.5416533" lon="11.3158733"><ele>439.0</ele><time>2026-04-19T08:16:15.651Z</time></trkpt><trkpt lat="43.5415217" lon="11.3158583"><ele>439.0</ele><time>2026-04-19T08:16:16.65Z</time></trkpt><trkpt lat="43.5413867" lon="11.3158317"><ele>439.0</ele><time>2026-04-19T08:16:17.651Z</time></trkpt><trkpt lat="43.5412517" lon="11.3158017"><ele>439.0</ele><time>2026-04-19T08:16:18.651Z</time></trkpt><trkpt lat="43.5411233" lon="11.315785"><ele>439.0</ele><time>2026-04-19T08:16:19.65Z</time></trkpt><trkpt lat="43.5410083" lon="11.31579"><ele>438.79999999999995</ele><time>2026-04-19T08:16:20.643Z</time></trkpt><trkpt lat="43.5408967" lon="11.31581"><ele>438.59999999999997</ele><time>2026-04-19T08:16:21.654Z</time></trkpt><trkpt lat="43.5407817" lon="11.3158467"><ele>438.4</ele><time>2026-04-19T08:16:22.647Z</time></trkpt><trkpt lat="43.5406783" lon="11.3159017"><ele>438.2</ele><time>2026-04-19T08:16:23.658Z</time></trkpt><trkpt lat="43.540585" lon="11.3159667"><ele>438.0</ele><time>2026-04-19T08:16:24.649Z</time></trkpt><trkpt lat="43.5404867" lon="11.3160483"><ele>438.0</ele><time>2026-04-19T08:16:25.648Z</time></trkpt><trkpt lat="43.5403967" lon="11.3161383"><ele>438.0</ele><time>2026-04-19T08:16:26.648Z</time></trkpt><trkpt lat="43.5402967" lon="11.3162517"><ele>438.0</ele><time>2026-04-19T08:16:27.649Z</time></trkpt><trkpt lat="43.5401733" lon="11.3163967"><ele>438.0</ele><time>2026-04-19T08:16:28.649Z</time></trkpt><trkpt lat="43.5400317" lon="11.3165183"><ele>439.25</ele><time>2026-04-19T08:16:29.652Z</time></trkpt><trkpt lat="43.5398917" lon="11.3166033"><ele>440.5</ele><time>2026-04-19T08:16:30.65Z</time></trkpt><trkpt lat="43.5397517" lon="11.3166783"><ele>441.75</ele><time>2026-04-19T08:16:31.644Z</time></trkpt><trkpt lat="43.5396233" lon="11.316725"><ele>443.0</ele><time>2026-04-19T08:16:32.653Z</time></trkpt><trkpt lat="43.5395067" lon="11.316775"><ele>443.0</ele><time>2026-04-19T08:16:33.649Z</time></trkpt><trkpt lat="43.5393983" lon="11.3168233"><ele>442.99999999999994</ele><time>2026-04-19T08:16:34.645Z</time></trkpt><trkpt lat="43.5393017" lon="11.31688"><ele>442.99999999999994</ele><time>2026-04-19T08:16:35.646Z</time></trkpt><trkpt lat="43.5392167" lon="11.3169267"><ele>443.0</ele><time>2026-04-19T08:16:36.649Z</time></trkpt><trkpt lat="43.539165" lon="11.3169867"><ele>443.0</ele><time>2026-04-19T08:16:37.649Z</time></trkpt><trkpt lat="43.5391133" lon="11.317055"><ele>443.0</ele><time>2026-04-19T08:16:38.646Z</time></trkpt><trkpt lat="43.53906" lon="11.3171883"><ele>442.99999999999994</ele><time>2026-04-19T08:16:40.65Z</time></trkpt><trkpt lat="43.5391033" lon="11.31731"><ele>442.99999999999994</ele><time>2026-04-19T08:16:42.654Z</time></trkpt><trkpt lat="43.5391933" lon="11.3173567"><ele>443.0</ele><time>2026-04-19T08:16:43.649Z</time></trkpt><trkpt lat="43.5393183" lon="11.3173917"><ele>443.0</ele><time>2026-04-19T08:16:44.646Z</time></trkpt><trkpt lat="43.539455" lon="11.31742"><ele>447.25</ele><time>2026-04-19T08:16:45.649Z</time></trkpt><trkpt lat="43.5396067" lon="11.31742"><ele>451.5</ele><time>2026-04-19T08:16:46.65Z</time></trkpt><trkpt lat="43.539745" lon="11.3174233"><ele>455.75</ele><time>2026-04-19T08:16:47.648Z</time></trkpt><trkpt lat="43.539875" lon="11.3174133"><ele>460.0</ele><time>2026-04-19T08:16:48.651Z</time></trkpt><trkpt lat="43.5400017" lon="11.317375"><ele>460.0</ele><time>2026-04-19T08:16:49.651Z</time></trkpt><trkpt lat="43.5401217" lon="11.317315"><ele>460.0</ele><time>2026-04-19T08:16:50.643Z</time></trkpt><trkpt lat="43.54024" lon="11.3172467"><ele>460.0</ele><time>2026-04-19T08:16:51.657Z</time></trkpt><trkpt lat="43.540365" lon="11.3171733"><ele>460.0</ele><time>2026-04-19T08:16:52.653Z</time></trkpt><trkpt lat="43.5404933" lon="11.3171017"><ele>458.25</ele><time>2026-04-19T08:16:53.657Z</time></trkpt><trkpt lat="43.5406283" lon="11.3170433"><ele>456.5</ele><time>2026-04-19T08:16:54.648Z</time></trkpt><trkpt lat="43.54077" lon="11.3170033"><ele>454.75</ele><time>2026-04-19T08:16:55.653Z</time></trkpt><trkpt lat="43.5409167" lon="11.3169917"><ele>453.0</ele><time>2026-04-19T08:16:56.651Z</time></trkpt><trkpt lat="43.54106" lon="11.3170017"><ele>453.0</ele><time>2026-04-19T08:16:57.653Z</time></trkpt><trkpt lat="43.541205" lon="11.317035"><ele>453.0</ele><time>2026-04-19T08:16:58.651Z</time></trkpt><trkpt lat="43.5413617" lon="11.3171"><ele>453.0</ele><time>2026-04-19T08:16:59.645Z</time></trkpt><trkpt lat="43.5415033" lon="11.3171517"><ele>453.5</ele><time>2026-04-19T08:17:00.654Z</time></trkpt><trkpt lat="43.5416433" lon="11.3172083"><ele>454.0</ele><time>2026-04-19T08:17:01.649Z</time></trkpt><trkpt lat="43.5417817" lon="11.3172583"><ele>454.5</ele><time>2026-04-19T08:17:02.647Z</time></trkpt><trkpt lat="43.5419083" lon="11.31729"><ele>455.0</ele><time>2026-04-19T08:17:03.646Z</time></trkpt><trkpt lat="43.5420283" lon="11.317305"><ele>457.8</ele><time>2026-04-19T08:17:04.648Z</time></trkpt><trkpt lat="43.542135" lon="11.3173033"><ele>460.6</ele><time>2026-04-19T08:17:05.651Z</time></trkpt><trkpt lat="43.5422367" lon="11.31729"><ele>463.4</ele><time>2026-04-19T08:17:06.652Z</time></trkpt><trkpt lat="43.54233" lon="11.3172633"><ele>466.2</ele><time>2026-04-19T08:17:07.648Z</time></trkpt><trkpt lat="43.542415" lon="11.317205"><ele>469.0</ele><time>2026-04-19T08:17:08.65Z</time></trkpt><trkpt lat="43.5424867" lon="11.3171217"><ele>469.0</ele><time>2026-04-19T08:17:09.652Z</time></trkpt><trkpt lat="43.54257" lon="11.3170067"><ele>469.0</ele><time>2026-04-19T08:17:10.65Z</time></trkpt><trkpt lat="43.542665" lon="11.3168967"><ele>469.0</ele><time>2026-04-19T08:17:11.654Z</time></trkpt><trkpt lat="43.542765" lon="11.3168133"><ele>469.0</ele><time>2026-04-19T08:17:12.645Z</time></trkpt><trkpt lat="43.54288" lon="11.3167383"><ele>472.0</ele><time>2026-04-19T08:17:13.646Z</time></trkpt><trkpt lat="43.5430083" lon="11.3166817"><ele>475.0</ele><time>2026-04-19T08:17:14.645Z</time></trkpt><trkpt lat="43.5431383" lon="11.31663"><ele>478.0</ele><time>2026-04-19T08:17:15.65Z</time></trkpt><trkpt lat="43.5432767" lon="11.3165867"><ele>481.0</ele><time>2026-04-19T08:17:16.652Z</time></trkpt><trkpt lat="43.5434183" lon="11.3165483"><ele>481.0</ele><time>2026-04-19T08:17:17.65Z</time></trkpt><trkpt lat="43.5435617" lon="11.3165017"><ele>481.0</ele><time>2026-04-19T08:17:18.654Z</time></trkpt><trkpt lat="43.5437017" lon="11.316455"><ele>481.0</ele><time>2026-04-19T08:17:19.656Z</time></trkpt><trkpt lat="43.543845" lon="11.316415"><ele>481.0</ele><time>2026-04-19T08:17:20.646Z</time></trkpt><trkpt lat="43.5439783" lon="11.3163667"><ele>478.25</ele><time>2026-04-19T08:17:21.653Z</time></trkpt><trkpt lat="43.5441083" lon="11.3163183"><ele>475.5</ele><time>2026-04-19T08:17:22.65Z</time></trkpt><trkpt lat="43.5442333" lon="11.3162767"><ele>472.75</ele><time>2026-04-19T08:17:23.649Z</time></trkpt><trkpt lat="43.5443567" lon="11.31625"><ele>470.0</ele><time>2026-04-19T08:17:24.648Z</time></trkpt><trkpt lat="43.5444633" lon="11.3162317"><ele>470.8333333333333</ele><time>2026-04-19T08:17:25.646Z</time></trkpt><trkpt lat="43.5445633" lon="11.3162317"><ele>471.66666666666663</ele><time>2026-04-19T08:17:26.653Z</time></trkpt><trkpt lat="43.5446267" lon="11.31623"><ele>472.5</ele><time>2026-04-19T08:17:27.652Z</time></trkpt><trkpt lat="43.5447217" lon="11.316215"><ele>473.33333333333337</ele><time>2026-04-19T08:17:29.651Z</time></trkpt><trkpt lat="43.5448" lon="11.3161917"><ele>474.1666666666667</ele><time>2026-04-19T08:17:31.645Z</time></trkpt><trkpt lat="43.544875" lon="11.3161533"><ele>475.0</ele><time>2026-04-19T08:17:33.654Z</time></trkpt><trkpt lat="43.5448517" lon="11.316065"><ele>475.0</ele><time>2026-04-19T08:17:36.651Z</time></trkpt><trkpt lat="43.5447833" lon="11.3161"><ele>475.0</ele><time>2026-04-19T08:17:39.653Z</time></trkpt><trkpt lat="43.5446683" lon="11.31614"><ele>475.0</ele><time>2026-04-19T08:17:41.643Z</time></trkpt><trkpt lat="43.5445817" lon="11.316165"><ele>475.0</ele><time>2026-04-19T08:17:42.652Z</time></trkpt><trkpt lat="43.544435" lon="11.3161967"><ele>475.0</ele><time>2026-04-19T08:17:43.648Z</time></trkpt><trkpt lat="43.54432" lon="11.316255"><ele>473.33333333333337</ele><time>2026-04-19T08:17:44.649Z</time></trkpt><trkpt lat="43.5441867" lon="11.3162917"><ele>471.66666666666663</ele><time>2026-04-19T08:17:45.651Z</time></trkpt><trkpt lat="43.5440183" lon="11.3163533"><ele>470.0</ele><time>2026-04-19T08:17:46.651Z</time></trkpt><trkpt lat="43.54385" lon="11.3163983"><ele>473.66666666666663</ele><time>2026-04-19T08:17:47.649Z</time></trkpt><trkpt lat="43.5436833" lon="11.316445"><ele>477.33333333333337</ele><time>2026-04-19T08:17:48.651Z</time></trkpt><trkpt lat="43.543505" lon="11.3164867"><ele>481.0</ele><time>2026-04-19T08:17:49.647Z</time></trkpt><trkpt lat="43.5433333" lon="11.316525"><ele>481.0</ele><time>2026-04-19T08:17:50.652Z</time></trkpt><trkpt lat="43.5431633" lon="11.316565"><ele>481.0</ele><time>2026-04-19T08:17:51.652Z</time></trkpt><trkpt lat="43.543005" lon="11.316595"><ele>481.0</ele><time>2026-04-19T08:17:52.643Z</time></trkpt><trkpt lat="43.5428467" lon="11.3166633"><ele>477.0</ele><time>2026-04-19T08:17:53.647Z</time></trkpt><trkpt lat="43.54269" lon="11.3167333"><ele>473.0</ele><time>2026-04-19T08:17:54.649Z</time></trkpt><trkpt lat="43.5425283" lon="11.3168067"><ele>469.0</ele><time>2026-04-19T08:17:55.646Z</time></trkpt><trkpt lat="43.5424083" lon="11.3169167"><ele>469.0</ele><time>2026-04-19T08:17:56.648Z</time></trkpt><trkpt lat="43.54227" lon="11.3170083"><ele>469.0</ele><time>2026-04-19T08:17:57.643Z</time></trkpt><trkpt lat="43.5421283" lon="11.3170717"><ele>469.0</ele><time>2026-04-19T08:17:58.651Z</time></trkpt><trkpt lat="43.5419917" lon="11.3171317"><ele>469.0</ele><time>2026-04-19T08:17:59.65Z</time></trkpt><trkpt lat="43.5418483" lon="11.31717"><ele>464.33333333333337</ele><time>2026-04-19T08:18:00.652Z</time></trkpt><trkpt lat="43.5417117" lon="11.31717"><ele>459.66666666666663</ele><time>2026-04-19T08:18:01.652Z</time></trkpt><trkpt lat="43.5415383" lon="11.31715"><ele>455.0</ele><time>2026-04-19T08:18:02.656Z</time></trkpt><trkpt lat="43.5413683" lon="11.3171417"><ele>454.3333333333333</ele><time>2026-04-19T08:18:03.648Z</time></trkpt><trkpt lat="43.5412067" lon="11.3171167"><ele>453.66666666666663</ele><time>2026-04-19T08:18:04.646Z</time></trkpt><trkpt lat="43.541045" lon="11.3170833"><ele>453.0</ele><time>2026-04-19T08:18:05.649Z</time></trkpt><trkpt lat="43.5408967" lon="11.317035"><ele>453.0</ele><time>2026-04-19T08:18:06.648Z</time></trkpt><trkpt lat="43.540765" lon="11.3169867"><ele>453.0</ele><time>2026-04-19T08:18:07.654Z</time></trkpt><trkpt lat="43.5406267" lon="11.3169617"><ele>453.0</ele><time>2026-04-19T08:18:08.653Z</time></trkpt><trkpt lat="43.5404783" lon="11.3169717"><ele>453.0</ele><time>2026-04-19T08:18:09.65Z</time></trkpt><trkpt lat="43.5403433" lon="11.3170083"><ele>451.59999999999997</ele><time>2026-04-19T08:18:10.649Z</time></trkpt><trkpt lat="43.5402317" lon="11.31707"><ele>450.19999999999993</ele><time>2026-04-19T08:18:11.655Z</time></trkpt><trkpt lat="43.5401317" lon="11.3171417"><ele>448.8</ele><time>2026-04-19T08:18:12.648Z</time></trkpt><trkpt lat="43.540045" lon="11.3172117"><ele>447.4</ele><time>2026-04-19T08:18:13.649Z</time></trkpt><trkpt lat="43.539975" lon="11.3172683"><ele>446.0</ele><time>2026-04-19T08:18:14.648Z</time></trkpt><trkpt lat="43.5399117" lon="11.317315"><ele>448.8</ele><time>2026-04-19T08:18:15.654Z</time></trkpt><trkpt lat="43.5398467" lon="11.3173633"><ele>451.6</ele><time>2026-04-19T08:18:16.652Z</time></trkpt><trkpt lat="43.5398183" lon="11.317445"><ele>454.4</ele><time>2026-04-19T08:18:18.654Z</time></trkpt><trkpt lat="43.5399433" lon="11.31751"><ele>457.2</ele><time>2026-04-19T08:18:20.651Z</time></trkpt><trkpt lat="43.5400517" lon="11.3175617"><ele>460.0</ele><time>2026-04-19T08:18:21.649Z</time></trkpt><trkpt lat="43.54016" lon="11.3176117"><ele>460.0</ele><time>2026-04-19T08:18:22.656Z</time></trkpt><trkpt lat="43.54026" lon="11.317655"><ele>460.0</ele><time>2026-04-19T08:18:23.658Z</time></trkpt><trkpt lat="43.5403717" lon="11.3176983"><ele>460.0</ele><time>2026-04-19T08:18:24.649Z</time></trkpt><trkpt lat="43.5404783" lon="11.3177317"><ele>460.0</ele><time>2026-04-19T08:18:25.649Z</time></trkpt><trkpt lat="43.54059" lon="11.3177567"><ele>460.0</ele><time>2026-04-19T08:18:26.649Z</time></trkpt><trkpt lat="43.5407083" lon="11.3177733"><ele>462.25</ele><time>2026-04-19T08:18:27.65Z</time></trkpt><trkpt lat="43.5408367" lon="11.3177817"><ele>464.5</ele><time>2026-04-19T08:18:28.641Z</time></trkpt><trkpt lat="43.54098" lon="11.317785"><ele>466.75</ele><time>2026-04-19T08:18:29.649Z</time></trkpt><trkpt lat="43.54112" lon="11.31779"><ele>469.0</ele><time>2026-04-19T08:18:30.653Z</time></trkpt><trkpt lat="43.5412533" lon="11.3178033"><ele>470.25</ele><time>2026-04-19T08:18:31.65Z</time></trkpt><trkpt lat="43.54139" lon="11.3178283"><ele>471.5</ele><time>2026-04-19T08:18:32.649Z</time></trkpt><trkpt lat="43.5415133" lon="11.3178783"><ele>472.75</ele><time>2026-04-19T08:18:33.652Z</time></trkpt><trkpt lat="43.5416367" lon="11.3179483"><ele>474.0</ele><time>2026-04-19T08:18:34.647Z</time></trkpt><trkpt lat="43.541765" lon="11.3180317"><ele>477.0</ele><time>2026-04-19T08:18:35.652Z</time></trkpt><trkpt lat="43.5418967" lon="11.3181117"><ele>480.0</ele><time>2026-04-19T08:18:36.648Z</time></trkpt><trkpt lat="43.5420217" lon="11.318175"><ele>483.0</ele><time>2026-04-19T08:18:37.649Z</time></trkpt><trkpt lat="43.5421433" lon="11.31822"><ele>486.0</ele><time>2026-04-19T08:18:38.652Z</time></trkpt><trkpt lat="43.5422617" lon="11.318245"><ele>486.4</ele><time>2026-04-19T08:18:39.652Z</time></trkpt><trkpt lat="43.542375" lon="11.3182667"><ele>486.8</ele><time>2026-04-19T08:18:40.646Z</time></trkpt><trkpt lat="43.5424817" lon="11.3182733"><ele>487.19999999999993</ele><time>2026-04-19T08:18:41.653Z</time></trkpt><trkpt lat="43.542575" lon="11.3182367"><ele>487.59999999999997</ele><time>2026-04-19T08:18:42.646Z</time></trkpt><trkpt lat="43.5426533" lon="11.3181533"><ele>488.0</ele><time>2026-04-19T08:18:43.651Z</time></trkpt><trkpt lat="43.5427467" lon="11.3180567"><ele>488.4</ele><time>2026-04-19T08:18:44.649Z</time></trkpt><trkpt lat="43.542845" lon="11.31798"><ele>488.79999999999995</ele><time>2026-04-19T08:18:45.649Z</time></trkpt><trkpt lat="43.5429467" lon="11.31792"><ele>489.2</ele><time>2026-04-19T08:18:46.648Z</time></trkpt><trkpt lat="43.5430417" lon="11.3178717"><ele>489.6</ele><time>2026-04-19T08:18:47.644Z</time></trkpt><trkpt lat="43.54315" lon="11.317835"><ele>490.0</ele><time>2026-04-19T08:18:48.645Z</time></trkpt><trkpt lat="43.5432483" lon="11.3178167"><ele>490.0</ele><time>2026-04-19T08:18:49.654Z</time></trkpt><trkpt lat="43.54333" lon="11.3178133"><ele>490.0</ele><time>2026-04-19T08:18:50.644Z</time></trkpt><trkpt lat="43.54341" lon="11.3178367"><ele>490.0</ele><time>2026-04-19T08:18:52.647Z</time></trkpt><trkpt lat="43.5434067" lon="11.317935"><ele>490.0</ele><time>2026-04-19T08:18:54.652Z</time></trkpt><trkpt lat="43.5433183" lon="11.31807"><ele>490.0</ele><time>2026-04-19T08:18:55.65Z</time></trkpt><trkpt lat="43.543185" lon="11.3182383"><ele>489.33333333333337</ele><time>2026-04-19T08:18:56.655Z</time></trkpt><trkpt lat="43.5430667" lon="11.3183883"><ele>488.66666666666663</ele><time>2026-04-19T08:18:57.652Z</time></trkpt><trkpt lat="43.542895" lon="11.3185767"><ele>488.0</ele><time>2026-04-19T08:18:58.652Z</time></trkpt><trkpt lat="43.54272" lon="11.3187617"><ele>489.0</ele><time>2026-04-19T08:18:59.646Z</time></trkpt><trkpt lat="43.5425217" lon="11.318945"><ele>490.0</ele><time>2026-04-19T08:19:00.644Z</time></trkpt><trkpt lat="43.5423333" lon="11.3191217"><ele>490.0</ele><time>2026-04-19T08:19:01.655Z</time></trkpt><trkpt lat="43.5421683" lon="11.319275"><ele>490.0</ele><time>2026-04-19T08:19:02.651Z</time></trkpt><trkpt lat="43.542" lon="11.3194333"><ele>490.0</ele><time>2026-04-19T08:19:03.65Z</time></trkpt><trkpt lat="43.5418317" lon="11.319595"><ele>491.6666666666667</ele><time>2026-04-19T08:19:04.647Z</time></trkpt><trkpt lat="43.5416717" lon="11.3197533"><ele>493.33333333333337</ele><time>2026-04-19T08:19:05.65Z</time></trkpt><trkpt lat="43.541525" lon="11.3199017"><ele>495.0</ele><time>2026-04-19T08:19:06.652Z</time></trkpt><trkpt lat="43.5413767" lon="11.3200417"><ele>495.0</ele><time>2026-04-19T08:19:07.655Z</time></trkpt><trkpt lat="43.5412317" lon="11.3201767"><ele>495.0</ele><time>2026-04-19T08:19:08.643Z</time></trkpt><trkpt lat="43.5410867" lon="11.3203217"><ele>495.0</ele><time>2026-04-19T08:19:09.654Z</time></trkpt><trkpt lat="43.540955" lon="11.3204767"><ele>498.33333333333337</ele><time>2026-04-19T08:19:10.647Z</time></trkpt><trkpt lat="43.5408483" lon="11.32065"><ele>501.6666666666667</ele><time>2026-04-19T08:19:11.653Z</time></trkpt><trkpt lat="43.5407567" lon="11.32084"><ele>505.0</ele><time>2026-04-19T08:19:12.65Z</time></trkpt><trkpt lat="43.5406783" lon="11.32104"><ele>505.0</ele><time>2026-04-19T08:19:13.65Z</time></trkpt><trkpt lat="43.5406017" lon="11.3212333"><ele>505.0</ele><time>2026-04-19T08:19:14.65Z</time></trkpt><trkpt lat="43.54053" lon="11.3214083"><ele>505.0</ele><time>2026-04-19T08:19:15.651Z</time></trkpt><trkpt lat="43.5404683" lon="11.3215667"><ele>505.0</ele><time>2026-04-19T08:19:16.651Z</time></trkpt><trkpt lat="43.5404133" lon="11.32171"><ele>506.8</ele><time>2026-04-19T08:19:17.651Z</time></trkpt><trkpt lat="43.5403633" lon="11.3218367"><ele>508.6</ele><time>2026-04-19T08:19:18.65Z</time></trkpt><trkpt lat="43.54031" lon="11.3219683"><ele>510.4</ele><time>2026-04-19T08:19:19.65Z</time></trkpt><trkpt lat="43.5402567" lon="11.3221083"><ele>512.2</ele><time>2026-04-19T08:19:20.648Z</time></trkpt><trkpt lat="43.5402083" lon="11.3222583"><ele>514.0</ele><time>2026-04-19T08:19:21.648Z</time></trkpt><trkpt lat="43.5401633" lon="11.3224033"><ele>514.0</ele><time>2026-04-19T08:19:22.648Z</time></trkpt><trkpt lat="43.5401167" lon="11.3225367"><ele>514.0</ele><time>2026-04-19T08:19:23.644Z</time></trkpt><trkpt lat="43.5400583" lon="11.3226517"><ele>514.0</ele><time>2026-04-19T08:19:24.646Z</time></trkpt><trkpt lat="43.54" lon="11.3227567"><ele>514.0</ele><time>2026-04-19T08:19:25.65Z</time></trkpt><trkpt lat="43.53994" lon="11.3228583"><ele>514.0</ele><time>2026-04-19T08:19:26.648Z</time></trkpt><trkpt lat="43.5398633" lon="11.3229683"><ele>510.75</ele><time>2026-04-19T08:19:27.653Z</time></trkpt><trkpt lat="43.5397883" lon="11.3230867"><ele>507.5</ele><time>2026-04-19T08:19:28.655Z</time></trkpt><trkpt lat="43.53972" lon="11.323215"><ele>504.25</ele><time>2026-04-19T08:19:29.644Z</time></trkpt><trkpt lat="43.5396483" lon="11.3233733"><ele>501.0</ele><time>2026-04-19T08:19:30.65Z</time></trkpt><trkpt lat="43.5395617" lon="11.3235533"><ele>501.66666666666663</ele><time>2026-04-19T08:19:31.648Z</time></trkpt><trkpt lat="43.5394683" lon="11.323755"><ele>502.3333333333333</ele><time>2026-04-19T08:19:32.648Z</time></trkpt><trkpt lat="43.539365" lon="11.32399"><ele>503.0</ele><time>2026-04-19T08:19:33.655Z</time></trkpt><trkpt lat="43.5392583" lon="11.32423"><ele>503.66666666666663</ele><time>2026-04-19T08:19:34.647Z</time></trkpt><trkpt lat="43.5391517" lon="11.3244617"><ele>504.33333333333337</ele><time>2026-04-19T08:19:35.646Z</time></trkpt><trkpt lat="43.539075" lon="11.324675"><ele>505.0</ele><time>2026-04-19T08:19:36.648Z</time></trkpt><trkpt lat="43.5389967" lon="11.3248883"><ele>506.33333333333337</ele><time>2026-04-19T08:19:37.653Z</time></trkpt><trkpt lat="43.538915" lon="11.32511"><ele>507.66666666666663</ele><time>2026-04-19T08:19:38.651Z</time></trkpt><trkpt lat="43.538835" lon="11.325335"><ele>509.0</ele><time>2026-04-19T08:19:39.643Z</time></trkpt><trkpt lat="43.5387667" lon="11.32556"><ele>507.0</ele><time>2026-04-19T08:19:40.647Z</time></trkpt><trkpt lat="43.5387133" lon="11.3257733"><ele>505.0</ele><time>2026-04-19T08:19:41.645Z</time></trkpt><trkpt lat="43.53868" lon="11.3259717"><ele>503.0</ele><time>2026-04-19T08:19:42.649Z</time></trkpt><trkpt lat="43.5386633" lon="11.3261617"><ele>503.0</ele><time>2026-04-19T08:19:43.648Z</time></trkpt><trkpt lat="43.5386583" lon="11.3263383"><ele>503.0</ele><time>2026-04-19T08:19:44.651Z</time></trkpt><trkpt lat="43.538685" lon="11.3265233"><ele>503.0</ele><time>2026-04-19T08:19:45.646Z</time></trkpt><trkpt lat="43.5387117" lon="11.32671"><ele>503.0</ele><time>2026-04-19T08:19:46.652Z</time></trkpt><trkpt lat="43.5387283" lon="11.3268983"><ele>505.0</ele><time>2026-04-19T08:19:47.651Z</time></trkpt><trkpt lat="43.5387283" lon="11.3270717"><ele>507.0</ele><time>2026-04-19T08:19:48.652Z</time></trkpt><trkpt lat="43.5387267" lon="11.3272633"><ele>509.0</ele><time>2026-04-19T08:19:49.654Z</time></trkpt><trkpt lat="43.53871" lon="11.3274617"><ele>511.0</ele><time>2026-04-19T08:19:50.655Z</time></trkpt><trkpt lat="43.538675" lon="11.327655"><ele>511.0</ele><time>2026-04-19T08:19:51.645Z</time></trkpt><trkpt lat="43.5386033" lon="11.3278567"><ele>511.0</ele><time>2026-04-19T08:19:52.649Z</time></trkpt><trkpt lat="43.5385167" lon="11.32803"><ele>511.0</ele><time>2026-04-19T08:19:53.648Z</time></trkpt><trkpt lat="43.5384217" lon="11.3281683"><ele>513.75</ele><time>2026-04-19T08:19:54.651Z</time></trkpt><trkpt lat="43.5383217" lon="11.3282933"><ele>516.5</ele><time>2026-04-19T08:19:55.65Z</time></trkpt><trkpt lat="43.5382383" lon="11.3284133"><ele>519.25</ele><time>2026-04-19T08:19:56.653Z</time></trkpt><trkpt lat="43.5381717" lon="11.3285317"><ele>522.0</ele><time>2026-04-19T08:19:57.652Z</time></trkpt><trkpt lat="43.5381217" lon="11.3286533"><ele>522.0</ele><time>2026-04-19T08:19:58.647Z</time></trkpt><trkpt lat="43.5380867" lon="11.328785"><ele>522.0</ele><time>2026-04-19T08:19:59.643Z</time></trkpt><trkpt lat="43.53805" lon="11.3289367"><ele>522.0</ele><time>2026-04-19T08:20:00.647Z</time></trkpt><trkpt lat="43.538015" lon="11.32911"><ele>522.0</ele><time>2026-04-19T08:20:01.648Z</time></trkpt><trkpt lat="43.5379917" lon="11.32931"><ele>523.0</ele><time>2026-04-19T08:20:02.65Z</time></trkpt><trkpt lat="43.537985" lon="11.329545"><ele>524.0</ele><time>2026-04-19T08:20:03.649Z</time></trkpt><trkpt lat="43.5379983" lon="11.3298067"><ele>525.0</ele><time>2026-04-19T08:20:04.648Z</time></trkpt><trkpt lat="43.5380283" lon="11.3301033"><ele>525.0</ele><time>2026-04-19T08:20:05.64Z</time></trkpt><trkpt lat="43.5380533" lon="11.330395"><ele>525.0</ele><time>2026-04-19T08:20:06.649Z</time></trkpt><trkpt lat="43.53807" lon="11.33066"><ele>525.0</ele><time>2026-04-19T08:20:07.646Z</time></trkpt><trkpt lat="43.538085" lon="11.3309317"><ele>522.6666666666666</ele><time>2026-04-19T08:20:08.656Z</time></trkpt><trkpt lat="43.5380917" lon="11.3311967"><ele>520.3333333333333</ele><time>2026-04-19T08:20:09.652Z</time></trkpt><trkpt lat="43.5380917" lon="11.33145"><ele>518.0</ele><time>2026-04-19T08:20:10.648Z</time></trkpt><trkpt lat="43.538065" lon="11.3316667"><ele>516.6666666666666</ele><time>2026-04-19T08:20:11.648Z</time></trkpt><trkpt lat="43.53802" lon="11.3318617"><ele>515.3333333333334</ele><time>2026-04-19T08:20:12.648Z</time></trkpt><trkpt lat="43.537965" lon="11.3320567"><ele>514.0</ele><time>2026-04-19T08:20:13.649Z</time></trkpt><trkpt lat="43.5378817" lon="11.3322367"><ele>512.3333333333334</ele><time>2026-04-19T08:20:14.651Z</time></trkpt><trkpt lat="43.537785" lon="11.33241"><ele>510.66666666666663</ele><time>2026-04-19T08:20:15.652Z</time></trkpt><trkpt lat="43.5376983" lon="11.3325917"><ele>509.0</ele><time>2026-04-19T08:20:16.649Z</time></trkpt><trkpt lat="43.5376183" lon="11.3327983"><ele>509.0</ele><time>2026-04-19T08:20:17.65Z</time></trkpt><trkpt lat="43.537545" lon="11.3330183"><ele>509.0</ele><time>2026-04-19T08:20:18.642Z</time></trkpt><trkpt lat="43.5374833" lon="11.3332367"><ele>509.0</ele><time>2026-04-19T08:20:19.642Z</time></trkpt><trkpt lat="43.5374267" lon="11.3334383"><ele>508.75</ele><time>2026-04-19T08:20:20.645Z</time></trkpt><trkpt lat="43.5374" lon="11.33362"><ele>508.5</ele><time>2026-04-19T08:20:21.646Z</time></trkpt><trkpt lat="43.5373933" lon="11.3337967"><ele>508.25</ele><time>2026-04-19T08:20:22.649Z</time></trkpt><trkpt lat="43.5373933" lon="11.333985"><ele>508.0</ele><time>2026-04-19T08:20:23.651Z</time></trkpt><trkpt lat="43.5373883" lon="11.3341883"><ele>508.5</ele><time>2026-04-19T08:20:24.65Z</time></trkpt><trkpt lat="43.53738" lon="11.3343983"><ele>509.0</ele><time>2026-04-19T08:20:25.646Z</time></trkpt><trkpt lat="43.5373583" lon="11.334605"><ele>509.5</ele><time>2026-04-19T08:20:26.652Z</time></trkpt><trkpt lat="43.5373217" lon="11.3347917"><ele>510.0</ele><time>2026-04-19T08:20:27.647Z</time></trkpt><trkpt lat="43.5372833" lon="11.3349733"><ele>511.5</ele><time>2026-04-19T08:20:28.647Z</time></trkpt><trkpt lat="43.5372367" lon="11.3351583"><ele>513.0</ele><time>2026-04-19T08:20:29.647Z</time></trkpt><trkpt lat="43.537185" lon="11.3353467"><ele>514.5</ele><time>2026-04-19T08:20:30.648Z</time></trkpt><trkpt lat="43.5371333" lon="11.3355183"><ele>516.0</ele><time>2026-04-19T08:20:31.649Z</time></trkpt><trkpt lat="43.5370733" lon="11.335675"><ele>519.0</ele><time>2026-04-19T08:20:32.652Z</time></trkpt><trkpt lat="43.5370067" lon="11.3358083"><ele>522.0</ele><time>2026-04-19T08:20:33.648Z</time></trkpt><trkpt lat="43.5369317" lon="11.335925"><ele>525.0</ele><time>2026-04-19T08:20:34.651Z</time></trkpt><trkpt lat="43.5368267" lon="11.3359933"><ele>528.0</ele><time>2026-04-19T08:20:35.651Z</time></trkpt><trkpt lat="43.5367133" lon="11.3360517"><ele>528.0</ele><time>2026-04-19T08:20:36.651Z</time></trkpt><trkpt lat="43.53658" lon="11.3360967"><ele>528.0</ele><time>2026-04-19T08:20:37.643Z</time></trkpt><trkpt lat="43.5364533" lon="11.336145"><ele>528.0</ele><time>2026-04-19T08:20:38.654Z</time></trkpt><trkpt lat="43.5363267" lon="11.3361767"><ele>528.0</ele><time>2026-04-19T08:20:39.646Z</time></trkpt><trkpt lat="43.5362017" lon="11.3361967"><ele>528.1999999999999</ele><time>2026-04-19T08:20:40.645Z</time></trkpt><trkpt lat="43.53609" lon="11.3362067"><ele>528.4</ele><time>2026-04-19T08:20:41.663Z</time></trkpt><trkpt lat="43.5359883" lon="11.3362117"><ele>528.5999999999999</ele><time>2026-04-19T08:20:42.649Z</time></trkpt><trkpt lat="43.535895" lon="11.336215"><ele>528.8</ele><time>2026-04-19T08:20:43.65Z</time></trkpt><trkpt lat="43.53582" lon="11.336225"><ele>529.0</ele><time>2026-04-19T08:20:44.651Z</time></trkpt><trkpt lat="43.5357483" lon="11.3362367"><ele>529.0</ele><time>2026-04-19T08:20:45.65Z</time></trkpt><trkpt lat="43.5356433" lon="11.3362783"><ele>529.0</ele><time>2026-04-19T08:20:47.651Z</time></trkpt><trkpt lat="43.5355917" lon="11.3363683"><ele>529.0</ele><time>2026-04-19T08:20:49.647Z</time></trkpt><trkpt lat="43.5356" lon="11.33647"><ele>529.0</ele><time>2026-04-19T08:20:50.642Z</time></trkpt><trkpt lat="43.5355817" lon="11.3365667"><ele>529.0</ele><time>2026-04-19T08:20:51.651Z</time></trkpt><trkpt lat="43.53555" lon="11.3366583"><ele>529.0</ele><time>2026-04-19T08:20:52.648Z</time></trkpt><trkpt lat="43.5355083" lon="11.33675"><ele>530.5</ele><time>2026-04-19T08:20:53.646Z</time></trkpt><trkpt lat="43.5354533" lon="11.3368333"><ele>532.0</ele><time>2026-04-19T08:20:54.652Z</time></trkpt><trkpt lat="43.53538" lon="11.3369167"><ele>533.5</ele><time>2026-04-19T08:20:55.648Z</time></trkpt><trkpt lat="43.53528" lon="11.337025"><ele>535.0</ele><time>2026-04-19T08:20:56.648Z</time></trkpt><trkpt lat="43.5351617" lon="11.3371483"><ele>543.0</ele><time>2026-04-19T08:20:57.651Z</time></trkpt><trkpt lat="43.535035" lon="11.3372617"><ele>551.0</ele><time>2026-04-19T08:20:58.643Z</time></trkpt><trkpt lat="43.5348933" lon="11.3373767"><ele>559.0</ele><time>2026-04-19T08:20:59.642Z</time></trkpt><trkpt lat="43.534765" lon="11.3374917"><ele>559.0</ele><time>2026-04-19T08:21:00.649Z</time></trkpt><trkpt lat="43.5346333" lon="11.337595"><ele>559.0</ele><time>2026-04-19T08:21:01.648Z</time></trkpt><trkpt lat="43.5345217" lon="11.3376783"><ele>559.0</ele><time>2026-04-19T08:21:02.649Z</time></trkpt><trkpt lat="43.53442" lon="11.3377583"><ele>559.0</ele><time>2026-04-19T08:21:03.654Z</time></trkpt><trkpt lat="43.5343367" lon="11.3378417"><ele>558.5</ele><time>2026-04-19T08:21:04.651Z</time></trkpt><trkpt lat="43.5343" lon="11.3379333"><ele>558.0</ele><time>2026-04-19T08:21:05.652Z</time></trkpt><trkpt lat="43.53427" lon="11.3380383"><ele>557.5</ele><time>2026-04-19T08:21:06.644Z</time></trkpt><trkpt lat="43.5342317" lon="11.3381417"><ele>557.0</ele><time>2026-04-19T08:21:07.646Z</time></trkpt><trkpt lat="43.5342317" lon="11.3382467"><ele>556.5</ele><time>2026-04-19T08:21:08.645Z</time></trkpt><trkpt lat="43.5342467" lon="11.3383517"><ele>556.0</ele><time>2026-04-19T08:21:09.647Z</time></trkpt><trkpt lat="43.5342733" lon="11.3384583"><ele>556.0</ele><time>2026-04-19T08:21:10.656Z</time></trkpt><trkpt lat="43.5343317" lon="11.3385783"><ele>556.0</ele><time>2026-04-19T08:21:11.649Z</time></trkpt><trkpt lat="43.5343833" lon="11.3387017"><ele>556.0</ele><time>2026-04-19T08:21:12.649Z</time></trkpt><trkpt lat="43.5344533" lon="11.33884"><ele>556.0</ele><time>2026-04-19T08:21:13.645Z</time></trkpt><trkpt lat="43.53453" lon="11.3389783"><ele>563.0</ele><time>2026-04-19T08:21:14.647Z</time></trkpt><trkpt lat="43.534595" lon="11.3391117"><ele>570.0</ele><time>2026-04-19T08:21:15.653Z</time></trkpt><trkpt lat="43.5346767" lon="11.3392583"><ele>577.0</ele><time>2026-04-19T08:21:16.653Z</time></trkpt><trkpt lat="43.534745" lon="11.3393933"><ele>584.0</ele><time>2026-04-19T08:21:17.654Z</time></trkpt><trkpt lat="43.5348183" lon="11.3395283"><ele>584.0</ele><time>2026-04-19T08:21:18.645Z</time></trkpt><trkpt lat="43.5348767" lon="11.3396417"><ele>584.0</ele><time>2026-04-19T08:21:19.647Z</time></trkpt><trkpt lat="43.5349417" lon="11.339755"><ele>584.0</ele><time>2026-04-19T08:21:20.647Z</time></trkpt><trkpt lat="43.5350067" lon="11.3398767"><ele>584.0</ele><time>2026-04-19T08:21:21.649Z</time></trkpt><trkpt lat="43.535075" lon="11.339995"><ele>584.0</ele><time>2026-04-19T08:21:22.652Z</time></trkpt><trkpt lat="43.5351533" lon="11.3401017"><ele>582.4</ele><time>2026-04-19T08:21:23.65Z</time></trkpt><trkpt lat="43.535235" lon="11.3401933"><ele>580.8</ele><time>2026-04-19T08:21:24.652Z</time></trkpt><trkpt lat="43.5353233" lon="11.340285"><ele>579.2</ele><time>2026-04-19T08:21:25.652Z</time></trkpt><trkpt lat="43.5354167" lon="11.3403583"><ele>577.6</ele><time>2026-04-19T08:21:26.653Z</time></trkpt><trkpt lat="43.5355133" lon="11.3404283"><ele>576.0</ele><time>2026-04-19T08:21:27.644Z</time></trkpt><trkpt lat="43.5356117" lon="11.3404883"><ele>578.2</ele><time>2026-04-19T08:21:28.647Z</time></trkpt><trkpt lat="43.53572" lon="11.3405483"><ele>580.4000000000001</ele><time>2026-04-19T08:21:29.645Z</time></trkpt><trkpt lat="43.53582" lon="11.3406117"><ele>582.6</ele><time>2026-04-19T08:21:30.645Z</time></trkpt><trkpt lat="43.535925" lon="11.3406717"><ele>584.8000000000001</ele><time>2026-04-19T08:21:31.65Z</time></trkpt><trkpt lat="43.5360183" lon="11.340735"><ele>587.0</ele><time>2026-04-19T08:21:32.647Z</time></trkpt><trkpt lat="43.536115" lon="11.340805"><ele>587.0</ele><time>2026-04-19T08:21:33.647Z</time></trkpt><trkpt lat="43.5362067" lon="11.3408883"><ele>587.0</ele><time>2026-04-19T08:21:34.647Z</time></trkpt><trkpt lat="43.5363067" lon="11.34098"><ele>587.0</ele><time>2026-04-19T08:21:35.649Z</time></trkpt><trkpt lat="43.53641" lon="11.3410633"><ele>587.0</ele><time>2026-04-19T08:21:36.653Z</time></trkpt><trkpt lat="43.5365217" lon="11.3411367"><ele>590.0</ele><time>2026-04-19T08:21:37.65Z</time></trkpt><trkpt lat="43.5366267" lon="11.3411967"><ele>593.0</ele><time>2026-04-19T08:21:38.648Z</time></trkpt><trkpt lat="43.5367433" lon="11.3412733"><ele>596.0</ele><time>2026-04-19T08:21:39.648Z</time></trkpt><trkpt lat="43.5368367" lon="11.3413417"><ele>599.0</ele><time>2026-04-19T08:21:40.655Z</time></trkpt><trkpt lat="43.536915" lon="11.3414167"><ele>602.0</ele><time>2026-04-19T08:21:41.649Z</time></trkpt><trkpt lat="43.536985" lon="11.3415"><ele>602.0</ele><time>2026-04-19T08:21:42.65Z</time></trkpt><trkpt lat="43.5370467" lon="11.341605"><ele>602.0</ele><time>2026-04-19T08:21:43.647Z</time></trkpt><trkpt lat="43.537075" lon="11.3417167"><ele>602.0</ele><time>2026-04-19T08:21:44.65Z</time></trkpt><trkpt lat="43.5370917" lon="11.3418433"><ele>602.0</ele><time>2026-04-19T08:21:45.652Z</time></trkpt><trkpt lat="43.53712" lon="11.3419867"><ele>602.0</ele><time>2026-04-19T08:21:46.65Z</time></trkpt><trkpt lat="43.5371317" lon="11.342155"><ele>609.0</ele><time>2026-04-19T08:21:47.652Z</time></trkpt><trkpt lat="43.5371267" lon="11.3423417"><ele>616.0</ele><time>2026-04-19T08:21:48.645Z</time></trkpt><trkpt lat="43.5371167" lon="11.3425183"><ele>623.0</ele><time>2026-04-19T08:21:49.649Z</time></trkpt><trkpt lat="43.53712" lon="11.3427017"><ele>630.0</ele><time>2026-04-19T08:21:50.649Z</time></trkpt><trkpt lat="43.5371267" lon="11.3428883"><ele>631.0</ele><time>2026-04-19T08:21:51.647Z</time></trkpt><trkpt lat="43.537125" lon="11.34306"><ele>632.0</ele><time>2026-04-19T08:21:52.651Z</time></trkpt><trkpt lat="43.53711" lon="11.3432383"><ele>633.0</ele><time>2026-04-19T08:21:53.651Z</time></trkpt><trkpt lat="43.5370767" lon="11.3434267"><ele>634.0</ele><time>2026-04-19T08:21:54.652Z</time></trkpt><trkpt lat="43.537025" lon="11.3436267"><ele>633.6666666666667</ele><time>2026-04-19T08:21:55.649Z</time></trkpt><trkpt lat="43.53696" lon="11.3438367"><ele>633.3333333333334</ele><time>2026-04-19T08:21:56.654Z</time></trkpt><trkpt lat="43.5368883" lon="11.344055"><ele>633.0</ele><time>2026-04-19T08:21:57.649Z</time></trkpt><trkpt lat="43.5368167" lon="11.3442833"><ele>633.0</ele><time>2026-04-19T08:21:58.645Z</time></trkpt><trkpt lat="43.5367417" lon="11.3445183"><ele>633.0</ele><time>2026-04-19T08:21:59.647Z</time></trkpt><trkpt lat="43.53667" lon="11.3447517"><ele>633.0</ele><time>2026-04-19T08:22:00.654Z</time></trkpt><trkpt lat="43.5365933" lon="11.344985"><ele>634.0</ele><time>2026-04-19T08:22:01.65Z</time></trkpt><trkpt lat="43.5365117" lon="11.3452217"><ele>635.0</ele><time>2026-04-19T08:22:02.645Z</time></trkpt><trkpt lat="43.5364317" lon="11.34546"><ele>636.0</ele><time>2026-04-19T08:22:03.646Z</time></trkpt><trkpt lat="43.5363517" lon="11.3456983"><ele>636.0</ele><time>2026-04-19T08:22:04.644Z</time></trkpt><trkpt lat="43.53627" lon="11.3459317"><ele>636.0</ele><time>2026-04-19T08:22:05.649Z</time></trkpt><trkpt lat="43.536195" lon="11.34616"><ele>636.0</ele><time>2026-04-19T08:22:06.651Z</time></trkpt><trkpt lat="43.5361283" lon="11.3463833"><ele>639.6666666666666</ele><time>2026-04-19T08:22:07.643Z</time></trkpt><trkpt lat="43.5360583" lon="11.3466"><ele>643.3333333333333</ele><time>2026-04-19T08:22:08.645Z</time></trkpt><trkpt lat="43.5359883" lon="11.3468067"><ele>647.0</ele><time>2026-04-19T08:22:09.654Z</time></trkpt><trkpt lat="43.5359267" lon="11.346985"><ele>647.0</ele><time>2026-04-19T08:22:10.65Z</time></trkpt><trkpt lat="43.535845" lon="11.3471267"><ele>647.0</ele><time>2026-04-19T08:22:11.653Z</time></trkpt><trkpt lat="43.5357467" lon="11.347265"><ele>647.0</ele><time>2026-04-19T08:22:12.651Z</time></trkpt><trkpt lat="43.535635" lon="11.3473917"><ele>647.0</ele><time>2026-04-19T08:22:13.655Z</time></trkpt><trkpt lat="43.5355267" lon="11.3475183"><ele>645.3333333333333</ele><time>2026-04-19T08:22:14.652Z</time></trkpt><trkpt lat="43.5353967" lon="11.347635"><ele>643.6666666666666</ele><time>2026-04-19T08:22:15.65Z</time></trkpt><trkpt lat="43.5352633" lon="11.3477467"><ele>642.0</ele><time>2026-04-19T08:22:16.652Z</time></trkpt><trkpt lat="43.5351067" lon="11.3478617"><ele>645.0</ele><time>2026-04-19T08:22:17.647Z</time></trkpt><trkpt lat="43.5349333" lon="11.3479883"><ele>648.0</ele><time>2026-04-19T08:22:18.648Z</time></trkpt><trkpt lat="43.5347517" lon="11.3481183"><ele>651.0</ele><time>2026-04-19T08:22:19.649Z</time></trkpt><trkpt lat="43.534555" lon="11.3482717"><ele>651.5</ele><time>2026-04-19T08:22:20.649Z</time></trkpt><trkpt lat="43.5343617" lon="11.3484217"><ele>652.0</ele><time>2026-04-19T08:22:21.649Z</time></trkpt><trkpt lat="43.53416" lon="11.348575"><ele>652.0</ele><time>2026-04-19T08:22:22.65Z</time></trkpt><trkpt lat="43.5339317" lon="11.3487267"><ele>652.0</ele><time>2026-04-19T08:22:23.649Z</time></trkpt><trkpt lat="43.5336933" lon="11.34889"><ele>655.5</ele><time>2026-04-19T08:22:24.649Z</time></trkpt><trkpt lat="43.5334633" lon="11.3490667"><ele>659.0</ele><time>2026-04-19T08:22:25.653Z</time></trkpt><trkpt lat="43.533245" lon="11.34923"><ele>659.0</ele><time>2026-04-19T08:22:26.645Z</time></trkpt><trkpt lat="43.5330233" lon="11.349395"><ele>659.0</ele><time>2026-04-19T08:22:27.652Z</time></trkpt><trkpt lat="43.53281" lon="11.3495567"><ele>662.5</ele><time>2026-04-19T08:22:28.648Z</time></trkpt><trkpt lat="43.5326033" lon="11.3497267"><ele>666.0</ele><time>2026-04-19T08:22:29.649Z</time></trkpt><trkpt lat="43.53241" lon="11.3498883"><ele>666.0</ele><time>2026-04-19T08:22:30.647Z</time></trkpt><trkpt lat="43.5322067" lon="11.3500267"><ele>666.0</ele><time>2026-04-19T08:22:31.649Z</time></trkpt><trkpt lat="43.5320283" lon="11.3501283"><ele>666.0</ele><time>2026-04-19T08:22:32.649Z</time></trkpt><trkpt lat="43.531845" lon="11.3502467"><ele>665.0</ele><time>2026-04-19T08:22:33.647Z</time></trkpt><trkpt lat="43.531715" lon="11.3503433"><ele>664.0</ele><time>2026-04-19T08:22:34.648Z</time></trkpt><trkpt lat="43.53158" lon="11.3504433"><ele>663.0</ele><time>2026-04-19T08:22:35.652Z</time></trkpt><trkpt lat="43.5315183" lon="11.3505633"><ele>662.0</ele><time>2026-04-19T08:22:36.651Z</time></trkpt><trkpt lat="43.5314983" lon="11.350695"><ele>662.0</ele><time>2026-04-19T08:22:37.65Z</time></trkpt><trkpt lat="43.5314817" lon="11.350845"><ele>662.0</ele><time>2026-04-19T08:22:38.648Z</time></trkpt><trkpt lat="43.531495" lon="11.351"><ele>662.0</ele><time>2026-04-19T08:22:39.645Z</time></trkpt><trkpt lat="43.53155" lon="11.3511967"><ele>662.0</ele><time>2026-04-19T08:22:40.648Z</time></trkpt><trkpt lat="43.5315467" lon="11.3514167"><ele>663.6666666666666</ele><time>2026-04-19T08:22:41.65Z</time></trkpt><trkpt lat="43.5315483" lon="11.3516683"><ele>665.3333333333334</ele><time>2026-04-19T08:22:42.654Z</time></trkpt><trkpt lat="43.5315633" lon="11.3519617"><ele>667.0</ele><time>2026-04-19T08:22:43.646Z</time></trkpt><trkpt lat="43.5315583" lon="11.35228"><ele>667.5</ele><time>2026-04-19T08:22:44.648Z</time></trkpt><trkpt lat="43.5315367" lon="11.3526367"><ele>668.0</ele><time>2026-04-19T08:22:45.643Z</time></trkpt><trkpt lat="43.5315183" lon="11.3529783"><ele>667.0</ele><time>2026-04-19T08:22:46.649Z</time></trkpt><trkpt lat="43.5314933" lon="11.3532817"><ele>666.0</ele><time>2026-04-19T08:22:47.656Z</time></trkpt><trkpt lat="43.53147" lon="11.3535533"><ele>665.0</ele><time>2026-04-19T08:22:48.649Z</time></trkpt><trkpt lat="43.5314483" lon="11.3537967"><ele>664.0</ele><time>2026-04-19T08:22:49.648Z</time></trkpt><trkpt lat="43.5314117" lon="11.354035"><ele>663.0</ele><time>2026-04-19T08:22:50.65Z</time></trkpt><trkpt lat="43.5313717" lon="11.3542833"><ele>662.0</ele><time>2026-04-19T08:22:51.65Z</time></trkpt><trkpt lat="43.531315" lon="11.3545417"><ele>662.0</ele><time>2026-04-19T08:22:52.65Z</time></trkpt><trkpt lat="43.5312417" lon="11.354805"><ele>662.0</ele><time>2026-04-19T08:22:53.652Z</time></trkpt><trkpt lat="43.5311667" lon="11.35506"><ele>662.0</ele><time>2026-04-19T08:22:54.65Z</time></trkpt><trkpt lat="43.5310917" lon="11.3552967"><ele>662.0</ele><time>2026-04-19T08:22:55.655Z</time></trkpt><trkpt lat="43.531025" lon="11.3555083"><ele>662.0</ele><time>2026-04-19T08:22:56.647Z</time></trkpt><trkpt lat="43.5309583" lon="11.3556883"><ele>662.0</ele><time>2026-04-19T08:22:57.647Z</time></trkpt><trkpt lat="43.5308867" lon="11.35585"><ele>662.4000000000001</ele><time>2026-04-19T08:22:58.645Z</time></trkpt><trkpt lat="43.5308217" lon="11.355945"><ele>662.8000000000001</ele><time>2026-04-19T08:22:59.647Z</time></trkpt><trkpt lat="43.53075" lon="11.3560183"><ele>663.2</ele><time>2026-04-19T08:23:00.652Z</time></trkpt><trkpt lat="43.5306433" lon="11.3560783"><ele>663.6</ele><time>2026-04-19T08:23:01.65Z</time></trkpt><trkpt lat="43.5305267" lon="11.3560667"><ele>664.0</ele><time>2026-04-19T08:23:02.651Z</time></trkpt><trkpt lat="43.53039" lon="11.3560033"><ele>664.6666666666667</ele><time>2026-04-19T08:23:03.652Z</time></trkpt><trkpt lat="43.5302367" lon="11.3559067"><ele>665.3333333333334</ele><time>2026-04-19T08:23:04.646Z</time></trkpt><trkpt lat="43.5300817" lon="11.3558133"><ele>666.0</ele><time>2026-04-19T08:23:05.65Z</time></trkpt><trkpt lat="43.5299167" lon="11.3557167"><ele>666.0</ele><time>2026-04-19T08:23:06.644Z</time></trkpt><trkpt lat="43.52974" lon="11.3556183"><ele>666.0</ele><time>2026-04-19T08:23:07.647Z</time></trkpt><trkpt lat="43.5295617" lon="11.3555517"><ele>666.0</ele><time>2026-04-19T08:23:08.646Z</time></trkpt><trkpt lat="43.529385" lon="11.3554867"><ele>662.6666666666666</ele><time>2026-04-19T08:23:09.649Z</time></trkpt><trkpt lat="43.5292233" lon="11.3554133"><ele>659.3333333333333</ele><time>2026-04-19T08:23:10.647Z</time></trkpt><trkpt lat="43.5290717" lon="11.355355"><ele>656.0</ele><time>2026-04-19T08:23:11.649Z</time></trkpt><trkpt lat="43.52893" lon="11.3553167"><ele>656.0</ele><time>2026-04-19T08:23:12.65Z</time></trkpt><trkpt lat="43.5288017" lon="11.3552917"><ele>656.0</ele><time>2026-04-19T08:23:13.646Z</time></trkpt><trkpt lat="43.5287133" lon="11.3553367"><ele>656.0</ele><time>2026-04-19T08:23:14.651Z</time></trkpt><trkpt lat="43.5286117" lon="11.3553633"><ele>656.0</ele><time>2026-04-19T08:23:15.656Z</time></trkpt><trkpt lat="43.5285267" lon="11.355415"><ele>656.0</ele><time>2026-04-19T08:23:16.645Z</time></trkpt><trkpt lat="43.52846" lon="11.3555033"><ele>657.5999999999999</ele><time>2026-04-19T08:23:17.647Z</time></trkpt><trkpt lat="43.5283817" lon="11.355565"><ele>659.2</ele><time>2026-04-19T08:23:18.647Z</time></trkpt><trkpt lat="43.5282883" lon="11.3556167"><ele>660.8</ele><time>2026-04-19T08:23:19.644Z</time></trkpt><trkpt lat="43.5281883" lon="11.3556767"><ele>662.4000000000001</ele><time>2026-04-19T08:23:20.646Z</time></trkpt><trkpt lat="43.5280833" lon="11.3557133"><ele>664.0</ele><time>2026-04-19T08:23:21.653Z</time></trkpt><trkpt lat="43.527985" lon="11.3557367"><ele>663.0</ele><time>2026-04-19T08:23:22.644Z</time></trkpt><trkpt lat="43.5278767" lon="11.3557483"><ele>662.0</ele><time>2026-04-19T08:23:23.657Z</time></trkpt><trkpt lat="43.527755" lon="11.3557483"><ele>661.0</ele><time>2026-04-19T08:23:24.654Z</time></trkpt><trkpt lat="43.5276233" lon="11.3557317"><ele>660.0</ele><time>2026-04-19T08:23:25.652Z</time></trkpt><trkpt lat="43.527495" lon="11.3557133"><ele>660.0</ele><time>2026-04-19T08:23:26.65Z</time></trkpt><trkpt lat="43.5273717" lon="11.3557"><ele>660.0</ele><time>2026-04-19T08:23:27.644Z</time></trkpt><trkpt lat="43.5272517" lon="11.3556967"><ele>660.0</ele><time>2026-04-19T08:23:28.647Z</time></trkpt><trkpt lat="43.5271417" lon="11.3557"><ele>660.0</ele><time>2026-04-19T08:23:29.649Z</time></trkpt><trkpt lat="43.527035" lon="11.3556967"><ele>660.25</ele><time>2026-04-19T08:23:30.649Z</time></trkpt><trkpt lat="43.5269267" lon="11.3556867"><ele>660.5</ele><time>2026-04-19T08:23:31.65Z</time></trkpt><trkpt lat="43.5268117" lon="11.3556617"><ele>660.75</ele><time>2026-04-19T08:23:32.648Z</time></trkpt><trkpt lat="43.5266967" lon="11.3556167"><ele>661.0</ele><time>2026-04-19T08:23:33.651Z</time></trkpt><trkpt lat="43.52656" lon="11.35556"><ele>655.6666666666667</ele><time>2026-04-19T08:23:34.65Z</time></trkpt><trkpt lat="43.5263967" lon="11.3554817"><ele>650.3333333333334</ele><time>2026-04-19T08:23:35.653Z</time></trkpt><trkpt lat="43.5262133" lon="11.355385"><ele>645.0</ele><time>2026-04-19T08:23:36.646Z</time></trkpt><trkpt lat="43.52604" lon="11.3552917"><ele>645.0</ele><time>2026-04-19T08:23:37.646Z</time></trkpt><trkpt lat="43.5258817" lon="11.3552083"><ele>645.0</ele><time>2026-04-19T08:23:38.65Z</time></trkpt><trkpt lat="43.52574" lon="11.35512"><ele>645.0</ele><time>2026-04-19T08:23:39.647Z</time></trkpt><trkpt lat="43.5256067" lon="11.35505"><ele>645.0</ele><time>2026-04-19T08:23:40.647Z</time></trkpt><trkpt lat="43.52546" lon="11.355015"><ele>645.0</ele><time>2026-04-19T08:23:41.649Z</time></trkpt><trkpt lat="43.5253083" lon="11.3549733"><ele>645.0</ele><time>2026-04-19T08:23:42.65Z</time></trkpt><trkpt lat="43.5251533" lon="11.35495"><ele>645.0</ele><time>2026-04-19T08:23:43.653Z</time></trkpt><trkpt lat="43.5249883" lon="11.3549233"><ele>645.0</ele><time>2026-04-19T08:23:44.652Z</time></trkpt><trkpt lat="43.5247867" lon="11.3548533"><ele>645.0</ele><time>2026-04-19T08:23:45.649Z</time></trkpt><trkpt lat="43.5246367" lon="11.3547933"><ele>646.25</ele><time>2026-04-19T08:23:46.645Z</time></trkpt><trkpt lat="43.5244867" lon="11.35472"><ele>647.5</ele><time>2026-04-19T08:23:47.652Z</time></trkpt><trkpt lat="43.5243667" lon="11.3546717"><ele>648.75</ele><time>2026-04-19T08:23:48.65Z</time></trkpt><trkpt lat="43.52425" lon="11.354605"><ele>650.0</ele><time>2026-04-19T08:23:49.649Z</time></trkpt><trkpt lat="43.524145" lon="11.354535"><ele>646.5</ele><time>2026-04-19T08:23:50.65Z</time></trkpt><trkpt lat="43.52405" lon="11.35444"><ele>643.0</ele><time>2026-04-19T08:23:51.652Z</time></trkpt><trkpt lat="43.5239683" lon="11.3543367"><ele>639.5</ele><time>2026-04-19T08:23:52.651Z</time></trkpt><trkpt lat="43.523925" lon="11.3541933"><ele>636.0</ele><time>2026-04-19T08:23:53.654Z</time></trkpt><trkpt lat="43.5239167" lon="11.3540283"><ele>636.0</ele><time>2026-04-19T08:23:54.651Z</time></trkpt><trkpt lat="43.523865" lon="11.353885"><ele>636.0</ele><time>2026-04-19T08:23:55.653Z</time></trkpt><trkpt lat="43.5238467" lon="11.3537783"><ele>636.0</ele><time>2026-04-19T08:23:56.646Z</time></trkpt><trkpt lat="43.5238117" lon="11.353695"><ele>636.0</ele><time>2026-04-19T08:23:57.645Z</time></trkpt><trkpt lat="43.5237517" lon="11.3535817"><ele>636.0</ele><time>2026-04-19T08:23:58.647Z</time></trkpt><trkpt lat="43.5236867" lon="11.3535033"><ele>632.6</ele><time>2026-04-19T08:23:59.649Z</time></trkpt><trkpt lat="43.523625" lon="11.3534783"><ele>629.2</ele><time>2026-04-19T08:24:00.649Z</time></trkpt><trkpt lat="43.5235517" lon="11.3534867"><ele>625.8</ele><time>2026-04-19T08:24:01.651Z</time></trkpt><trkpt lat="43.52345" lon="11.3535767"><ele>622.4</ele><time>2026-04-19T08:24:02.651Z</time></trkpt><trkpt lat="43.5233767" lon="11.35359"><ele>619.0</ele><time>2026-04-19T08:24:03.648Z</time></trkpt><trkpt lat="43.523275" lon="11.3536767"><ele>619.0</ele><time>2026-04-19T08:24:04.647Z</time></trkpt><trkpt lat="43.5231367" lon="11.3537617"><ele>619.0</ele><time>2026-04-19T08:24:05.65Z</time></trkpt><trkpt lat="43.5229983" lon="11.3538467"><ele>619.0</ele><time>2026-04-19T08:24:06.646Z</time></trkpt><trkpt lat="43.5227883" lon="11.3539683"><ele>623.0</ele><time>2026-04-19T08:24:07.648Z</time></trkpt><trkpt lat="43.522625" lon="11.354025"><ele>627.0</ele><time>2026-04-19T08:24:08.646Z</time></trkpt><trkpt lat="43.522465" lon="11.354035"><ele>631.0</ele><time>2026-04-19T08:24:09.647Z</time></trkpt><trkpt lat="43.5223083" lon="11.3539933"><ele>631.0</ele><time>2026-04-19T08:24:10.651Z</time></trkpt><trkpt lat="43.5221817" lon="11.3539683"><ele>631.0</ele><time>2026-04-19T08:24:11.646Z</time></trkpt><trkpt lat="43.5220783" lon="11.35393"><ele>631.0</ele><time>2026-04-19T08:24:12.652Z</time></trkpt><trkpt lat="43.5219733" lon="11.3538783"><ele>631.0</ele><time>2026-04-19T08:24:13.645Z</time></trkpt><trkpt lat="43.52186" lon="11.3538167"><ele>628.25</ele><time>2026-04-19T08:24:14.652Z</time></trkpt><trkpt lat="43.5217483" lon="11.353735"><ele>625.5</ele><time>2026-04-19T08:24:15.651Z</time></trkpt><trkpt lat="43.5216283" lon="11.3536333"><ele>622.75</ele><time>2026-04-19T08:24:16.651Z</time></trkpt><trkpt lat="43.5215033" lon="11.353525"><ele>620.0</ele><time>2026-04-19T08:24:17.648Z</time></trkpt><trkpt lat="43.521385" lon="11.3534117"><ele>620.0</ele><time>2026-04-19T08:24:18.649Z</time></trkpt><trkpt lat="43.5212533" lon="11.3533233"><ele>620.0</ele><time>2026-04-19T08:24:19.647Z</time></trkpt><trkpt lat="43.5210983" lon="11.3532083"><ele>620.0</ele><time>2026-04-19T08:24:20.651Z</time></trkpt><trkpt lat="43.5209467" lon="11.353095"><ele>619.6666666666666</ele><time>2026-04-19T08:24:21.648Z</time></trkpt><trkpt lat="43.5207933" lon="11.3529867"><ele>619.3333333333334</ele><time>2026-04-19T08:24:22.65Z</time></trkpt><trkpt lat="43.520635" lon="11.3529"><ele>619.0</ele><time>2026-04-19T08:24:23.645Z</time></trkpt><trkpt lat="43.52047" lon="11.352845"><ele>618.25</ele><time>2026-04-19T08:24:24.653Z</time></trkpt><trkpt lat="43.5203433" lon="11.35279"><ele>617.5</ele><time>2026-04-19T08:24:25.648Z</time></trkpt><trkpt lat="43.5202317" lon="11.3527317"><ele>616.75</ele><time>2026-04-19T08:24:26.649Z</time></trkpt><trkpt lat="43.5201383" lon="11.3526483"><ele>616.0</ele><time>2026-04-19T08:24:27.648Z</time></trkpt><trkpt lat="43.5200317" lon="11.352545"><ele>616.0</ele><time>2026-04-19T08:24:28.648Z</time></trkpt><trkpt lat="43.5199367" lon="11.3524133"><ele>616.0</ele><time>2026-04-19T08:24:29.648Z</time></trkpt><trkpt lat="43.5198283" lon="11.3522933"><ele>616.0</ele><time>2026-04-19T08:24:30.653Z</time></trkpt><trkpt lat="43.519725" lon="11.352175"><ele>616.0</ele><time>2026-04-19T08:24:31.65Z</time></trkpt><trkpt lat="43.5196167" lon="11.3520817"><ele>616.0</ele><time>2026-04-19T08:24:32.649Z</time></trkpt><trkpt lat="43.5195167" lon="11.35199"><ele>616.0</ele><time>2026-04-19T08:24:33.644Z</time></trkpt><trkpt lat="43.5194133" lon="11.3519117"><ele>616.0</ele><time>2026-04-19T08:24:34.645Z</time></trkpt><trkpt lat="43.519305" lon="11.351855"><ele>616.0</ele><time>2026-04-19T08:24:35.647Z</time></trkpt><trkpt lat="43.5191933" lon="11.3518283"><ele>616.0</ele><time>2026-04-19T08:24:36.647Z</time></trkpt><trkpt lat="43.51907" lon="11.35182"><ele>616.0</ele><time>2026-04-19T08:24:37.648Z</time></trkpt><trkpt lat="43.5189617" lon="11.351815"><ele>616.0</ele><time>2026-04-19T08:24:38.653Z</time></trkpt><trkpt lat="43.5188517" lon="11.3518117"><ele>616.0</ele><time>2026-04-19T08:24:39.649Z</time></trkpt><trkpt lat="43.518745" lon="11.35181"><ele>616.0</ele><time>2026-04-19T08:24:40.652Z</time></trkpt><trkpt lat="43.5186317" lon="11.351815"><ele>613.2</ele><time>2026-04-19T08:24:41.648Z</time></trkpt><trkpt lat="43.5185233" lon="11.3518283"><ele>610.4000000000001</ele><time>2026-04-19T08:24:42.653Z</time></trkpt><trkpt lat="43.5184117" lon="11.3518567"><ele>607.6</ele><time>2026-04-19T08:24:43.652Z</time></trkpt><trkpt lat="43.5183017" lon="11.3518867"><ele>604.8000000000001</ele><time>2026-04-19T08:24:44.646Z</time></trkpt><trkpt lat="43.5181917" lon="11.3519117"><ele>602.0</ele><time>2026-04-19T08:24:45.645Z</time></trkpt><trkpt lat="43.51808" lon="11.351925"><ele>602.0</ele><time>2026-04-19T08:24:46.648Z</time></trkpt><trkpt lat="43.5179733" lon="11.351945"><ele>602.0</ele><time>2026-04-19T08:24:47.646Z</time></trkpt><trkpt lat="43.5178683" lon="11.351975"><ele>602.0</ele><time>2026-04-19T08:24:48.648Z</time></trkpt><trkpt lat="43.5177633" lon="11.35201"><ele>602.0</ele><time>2026-04-19T08:24:49.65Z</time></trkpt><trkpt lat="43.5176633" lon="11.3520367"><ele>602.0</ele><time>2026-04-19T08:24:50.65Z</time></trkpt><trkpt lat="43.517555" lon="11.3520633"><ele>598.6</ele><time>2026-04-19T08:24:51.653Z</time></trkpt><trkpt lat="43.517445" lon="11.3520833"><ele>595.2</ele><time>2026-04-19T08:24:52.653Z</time></trkpt><trkpt lat="43.5173533" lon="11.3520817"><ele>591.8</ele><time>2026-04-19T08:24:53.649Z</time></trkpt><trkpt lat="43.5172817" lon="11.352075"><ele>588.4</ele><time>2026-04-19T08:24:54.645Z</time></trkpt><trkpt lat="43.51721" lon="11.3520683"><ele>585.0</ele><time>2026-04-19T08:24:55.644Z</time></trkpt><trkpt lat="43.5171067" lon="11.3520917"><ele>582.4</ele><time>2026-04-19T08:24:57.65Z</time></trkpt><trkpt lat="43.5170283" lon="11.352175"><ele>579.8</ele><time>2026-04-19T08:24:59.651Z</time></trkpt><trkpt lat="43.5169833" lon="11.352315"><ele>577.2</ele><time>2026-04-19T08:25:01.649Z</time></trkpt><trkpt lat="43.516975" lon="11.3524233"><ele>574.6</ele><time>2026-04-19T08:25:02.648Z</time></trkpt><trkpt lat="43.5169767" lon="11.3525667"><ele>572.0</ele><time>2026-04-19T08:25:03.651Z</time></trkpt><trkpt lat="43.517" lon="11.3527383"><ele>572.0</ele><time>2026-04-19T08:25:04.644Z</time></trkpt><trkpt lat="43.5170183" lon="11.3528867"><ele>572.0</ele><time>2026-04-19T08:25:05.646Z</time></trkpt><trkpt lat="43.5170283" lon="11.3530183"><ele>572.0</ele><time>2026-04-19T08:25:06.646Z</time></trkpt><trkpt lat="43.517045" lon="11.3531417"><ele>572.0</ele><time>2026-04-19T08:25:07.647Z</time></trkpt><trkpt lat="43.517045" lon="11.3532417"><ele>572.0</ele><time>2026-04-19T08:25:08.649Z</time></trkpt><trkpt lat="43.5170333" lon="11.35333"><ele>572.0</ele><time>2026-04-19T08:25:09.653Z</time></trkpt><trkpt lat="43.5169983" lon="11.3534683"><ele>570.75</ele><time>2026-04-19T08:25:11.649Z</time></trkpt><trkpt lat="43.516885" lon="11.353545"><ele>569.5</ele><time>2026-04-19T08:25:13.653Z</time></trkpt><trkpt lat="43.5167983" lon="11.3535783"><ele>568.25</ele><time>2026-04-19T08:25:14.643Z</time></trkpt><trkpt lat="43.51668" lon="11.3536083"><ele>567.0</ele><time>2026-04-19T08:25:15.647Z</time></trkpt><trkpt lat="43.516535" lon="11.3536317"><ele>567.0</ele><time>2026-04-19T08:25:16.649Z</time></trkpt><trkpt lat="43.5163917" lon="11.3536533"><ele>567.0</ele><time>2026-04-19T08:25:17.659Z</time></trkpt><trkpt lat="43.51626" lon="11.3536833"><ele>567.0</ele><time>2026-04-19T08:25:18.646Z</time></trkpt><trkpt lat="43.51613" lon="11.3537133"><ele>567.0</ele><time>2026-04-19T08:25:19.651Z</time></trkpt><trkpt lat="43.5159967" lon="11.353745"><ele>564.5</ele><time>2026-04-19T08:25:20.652Z</time></trkpt><trkpt lat="43.5158583" lon="11.3537833"><ele>562.0</ele><time>2026-04-19T08:25:21.651Z</time></trkpt><trkpt lat="43.5157217" lon="11.3538233"><ele>559.5</ele><time>2026-04-19T08:25:22.651Z</time></trkpt><trkpt lat="43.5155833" lon="11.3538583"><ele>557.0</ele><time>2026-04-19T08:25:23.642Z</time></trkpt><trkpt lat="43.51545" lon="11.3538967"><ele>554.75</ele><time>2026-04-19T08:25:24.645Z</time></trkpt><trkpt lat="43.515325" lon="11.3539283"><ele>552.5</ele><time>2026-04-19T08:25:25.644Z</time></trkpt><trkpt lat="43.5152117" lon="11.3539617"><ele>550.25</ele><time>2026-04-19T08:25:26.649Z</time></trkpt><trkpt lat="43.515095" lon="11.353995"><ele>548.0</ele><time>2026-04-19T08:25:27.647Z</time></trkpt><trkpt lat="43.5149933" lon="11.35403"><ele>548.0</ele><time>2026-04-19T08:25:28.649Z</time></trkpt><trkpt lat="43.5149017" lon="11.354065"><ele>548.0</ele><time>2026-04-19T08:25:29.648Z</time></trkpt><trkpt lat="43.5148117" lon="11.3540967"><ele>548.0</ele><time>2026-04-19T08:25:30.652Z</time></trkpt><trkpt lat="43.5147317" lon="11.3541233"><ele>548.0</ele><time>2026-04-19T08:25:31.648Z</time></trkpt><trkpt lat="43.51464" lon="11.3541417"><ele>548.0</ele><time>2026-04-19T08:25:32.649Z</time></trkpt><trkpt lat="43.5145333" lon="11.3541667"><ele>547.25</ele><time>2026-04-19T08:25:33.649Z</time></trkpt><trkpt lat="43.5144267" lon="11.354195"><ele>546.5</ele><time>2026-04-19T08:25:34.657Z</time></trkpt><trkpt lat="43.514295" lon="11.3542367"><ele>545.75</ele><time>2026-04-19T08:25:35.652Z</time></trkpt><trkpt lat="43.5141783" lon="11.3542767"><ele>545.0</ele><time>2026-04-19T08:25:36.648Z</time></trkpt><trkpt lat="43.5140683" lon="11.3543083"><ele>545.0</ele><time>2026-04-19T08:25:37.649Z</time></trkpt><trkpt lat="43.5139633" lon="11.35434"><ele>545.0</ele><time>2026-04-19T08:25:38.649Z</time></trkpt><trkpt lat="43.51387" lon="11.3543867"><ele>545.0</ele><time>2026-04-19T08:25:39.652Z</time></trkpt><trkpt lat="43.513785" lon="11.3544383"><ele>545.0</ele><time>2026-04-19T08:25:40.65Z</time></trkpt><trkpt lat="43.5137" lon="11.3544933"><ele>545.0</ele><time>2026-04-19T08:25:41.651Z</time></trkpt><trkpt lat="43.5136233" lon="11.3545567"><ele>546.3333333333333</ele><time>2026-04-19T08:25:42.65Z</time></trkpt><trkpt lat="43.5135633" lon="11.3546167"><ele>547.6666666666666</ele><time>2026-04-19T08:25:43.643Z</time></trkpt><trkpt lat="43.5134983" lon="11.35465"><ele>549.0</ele><time>2026-04-19T08:25:44.653Z</time></trkpt><trkpt lat="43.513425" lon="11.35467"><ele>550.3333333333334</ele><time>2026-04-19T08:25:45.647Z</time></trkpt><trkpt lat="43.51335" lon="11.35469"><ele>551.6666666666667</ele><time>2026-04-19T08:25:46.65Z</time></trkpt><trkpt lat="43.51326" lon="11.3547017"><ele>553.0</ele><time>2026-04-19T08:25:47.649Z</time></trkpt><trkpt lat="43.5131633" lon="11.3546983"><ele>553.0</ele><time>2026-04-19T08:25:48.649Z</time></trkpt><trkpt lat="43.513055" lon="11.354675"><ele>553.0</ele><time>2026-04-19T08:25:49.65Z</time></trkpt><trkpt lat="43.5129417" lon="11.3546383"><ele>553.0</ele><time>2026-04-19T08:25:50.647Z</time></trkpt><trkpt lat="43.5128433" lon="11.3546033"><ele>553.0</ele><time>2026-04-19T08:25:51.653Z</time></trkpt><trkpt lat="43.5127467" lon="11.3545467"><ele>553.0</ele><time>2026-04-19T08:25:52.644Z</time></trkpt><trkpt lat="43.5126567" lon="11.3544717"><ele>551.75</ele><time>2026-04-19T08:25:53.652Z</time></trkpt><trkpt lat="43.5125517" lon="11.3543967"><ele>550.5</ele><time>2026-04-19T08:25:54.652Z</time></trkpt><trkpt lat="43.5124367" lon="11.35434"><ele>549.25</ele><time>2026-04-19T08:25:55.654Z</time></trkpt><trkpt lat="43.5123367" lon="11.3543"><ele>548.0</ele><time>2026-04-19T08:25:56.648Z</time></trkpt><trkpt lat="43.512235" lon="11.3542583"><ele>548.0</ele><time>2026-04-19T08:25:57.652Z</time></trkpt><trkpt lat="43.5121433" lon="11.3542117"><ele>548.0</ele><time>2026-04-19T08:25:58.651Z</time></trkpt><trkpt lat="43.5120533" lon="11.35416"><ele>548.0</ele><time>2026-04-19T08:25:59.649Z</time></trkpt><trkpt lat="43.5119633" lon="11.3541183"><ele>548.0</ele><time>2026-04-19T08:26:00.651Z</time></trkpt><trkpt lat="43.5118733" lon="11.3540683"><ele>548.0</ele><time>2026-04-19T08:26:01.651Z</time></trkpt><trkpt lat="43.5117833" lon="11.35401"><ele>545.25</ele><time>2026-04-19T08:26:02.654Z</time></trkpt><trkpt lat="43.5116833" lon="11.3539383"><ele>542.5</ele><time>2026-04-19T08:26:03.645Z</time></trkpt><trkpt lat="43.5115767" lon="11.35386"><ele>539.75</ele><time>2026-04-19T08:26:04.649Z</time></trkpt><trkpt lat="43.5114733" lon="11.3537883"><ele>537.0</ele><time>2026-04-19T08:26:05.646Z</time></trkpt><trkpt lat="43.51137" lon="11.353715"><ele>536.25</ele><time>2026-04-19T08:26:06.65Z</time></trkpt><trkpt lat="43.5112667" lon="11.3536367"><ele>535.5</ele><time>2026-04-19T08:26:07.649Z</time></trkpt><trkpt lat="43.5111617" lon="11.353565"><ele>534.75</ele><time>2026-04-19T08:26:08.653Z</time></trkpt><trkpt lat="43.5110633" lon="11.3534933"><ele>534.0</ele><time>2026-04-19T08:26:09.651Z</time></trkpt><trkpt lat="43.5109683" lon="11.353415"><ele>533.8</ele><time>2026-04-19T08:26:10.654Z</time></trkpt><trkpt lat="43.5108717" lon="11.35334"><ele>533.5999999999999</ele><time>2026-04-19T08:26:11.653Z</time></trkpt><trkpt lat="43.510785" lon="11.35327"><ele>533.4</ele><time>2026-04-19T08:26:12.649Z</time></trkpt><trkpt lat="43.5107033" lon="11.3532133"><ele>533.1999999999999</ele><time>2026-04-19T08:26:13.645Z</time></trkpt><trkpt lat="43.510625" lon="11.3531817"><ele>533.0</ele><time>2026-04-19T08:26:14.653Z</time></trkpt><trkpt lat="43.510555" lon="11.35317"><ele>533.0</ele><time>2026-04-19T08:26:15.651Z</time></trkpt><trkpt lat="43.5104433" lon="11.3531633"><ele>533.0</ele><time>2026-04-19T08:26:17.649Z</time></trkpt><trkpt lat="43.5103567" lon="11.3532"><ele>533.0</ele><time>2026-04-19T08:26:19.65Z</time></trkpt><trkpt lat="43.510255" lon="11.35327"><ele>533.0</ele><time>2026-04-19T08:26:21.656Z</time></trkpt><trkpt lat="43.5101933" lon="11.3533217"><ele>533.0</ele><time>2026-04-19T08:26:22.651Z</time></trkpt><trkpt lat="43.5101317" lon="11.3533733"><ele>531.6666666666666</ele><time>2026-04-19T08:26:23.642Z</time></trkpt><trkpt lat="43.5100683" lon="11.35341"><ele>530.3333333333333</ele><time>2026-04-19T08:26:24.652Z</time></trkpt><trkpt lat="43.51" lon="11.3534433"><ele>529.0</ele><time>2026-04-19T08:26:25.647Z</time></trkpt><trkpt lat="43.509925" lon="11.3534667"><ele>527.6666666666666</ele><time>2026-04-19T08:26:26.647Z</time></trkpt><trkpt lat="43.5098533" lon="11.3534867"><ele>526.3333333333334</ele><time>2026-04-19T08:26:27.649Z</time></trkpt><trkpt lat="43.5097817" lon="11.3535083"><ele>525.0</ele><time>2026-04-19T08:26:28.651Z</time></trkpt><trkpt lat="43.5096983" lon="11.3535417"><ele>525.0</ele><time>2026-04-19T08:26:29.65Z</time></trkpt><trkpt lat="43.5096117" lon="11.3535833"><ele>525.0</ele><time>2026-04-19T08:26:30.649Z</time></trkpt><trkpt lat="43.50953" lon="11.3536233"><ele>525.0</ele><time>2026-04-19T08:26:31.648Z</time></trkpt><trkpt lat="43.5094533" lon="11.3536517"><ele>525.0</ele><time>2026-04-19T08:26:32.643Z</time></trkpt><trkpt lat="43.509365" lon="11.3536833"><ele>525.0</ele><time>2026-04-19T08:26:33.642Z</time></trkpt><trkpt lat="43.5092633" lon="11.3537117"><ele>522.0</ele><time>2026-04-19T08:26:34.648Z</time></trkpt><trkpt lat="43.50919" lon="11.3537167"><ele>519.0</ele><time>2026-04-19T08:26:35.647Z</time></trkpt><trkpt lat="43.5091233" lon="11.353705"><ele>516.0</ele><time>2026-04-19T08:26:36.65Z</time></trkpt><trkpt lat="43.5090133" lon="11.3536617"><ele>513.0</ele><time>2026-04-19T08:26:38.651Z</time></trkpt><trkpt lat="43.5089183" lon="11.3535933"><ele>510.0</ele><time>2026-04-19T08:26:40.648Z</time></trkpt><trkpt lat="43.5088033" lon="11.35351"><ele>508.0</ele><time>2026-04-19T08:26:42.65Z</time></trkpt><trkpt lat="43.50874" lon="11.35346"><ele>506.0</ele><time>2026-04-19T08:26:43.647Z</time></trkpt><trkpt lat="43.5086617" lon="11.3534083"><ele>504.0</ele><time>2026-04-19T08:26:44.647Z</time></trkpt><trkpt lat="43.5085883" lon="11.3533683"><ele>502.0</ele><time>2026-04-19T08:26:45.648Z</time></trkpt><trkpt lat="43.5085117" lon="11.3533483"><ele>500.0</ele><time>2026-04-19T08:26:46.649Z</time></trkpt><trkpt lat="43.5084333" lon="11.3533433"><ele>498.0</ele><time>2026-04-19T08:26:47.651Z</time></trkpt><trkpt lat="43.5083583" lon="11.3533517"><ele>498.0</ele><time>2026-04-19T08:26:48.652Z</time></trkpt><trkpt lat="43.508275" lon="11.3533517"><ele>497.99999999999994</ele><time>2026-04-19T08:26:49.654Z</time></trkpt><trkpt lat="43.5081883" lon="11.3533533"><ele>497.99999999999994</ele><time>2026-04-19T08:26:50.653Z</time></trkpt><trkpt lat="43.5080967" lon="11.3533517"><ele>498.0</ele><time>2026-04-19T08:26:51.659Z</time></trkpt><trkpt lat="43.508" lon="11.3533533"><ele>498.0</ele><time>2026-04-19T08:26:52.646Z</time></trkpt><trkpt lat="43.507905" lon="11.353345"><ele>497.3333333333333</ele><time>2026-04-19T08:26:53.654Z</time></trkpt><trkpt lat="43.5078167" lon="11.3533367"><ele>496.66666666666663</ele><time>2026-04-19T08:26:54.647Z</time></trkpt><trkpt lat="43.5077317" lon="11.3533183"><ele>496.0</ele><time>2026-04-19T08:26:55.647Z</time></trkpt><trkpt lat="43.507655" lon="11.353285"><ele>495.3333333333333</ele><time>2026-04-19T08:26:56.647Z</time></trkpt><trkpt lat="43.5075833" lon="11.35324"><ele>494.66666666666663</ele><time>2026-04-19T08:26:57.653Z</time></trkpt><trkpt lat="43.507515" lon="11.3531883"><ele>494.0</ele><time>2026-04-19T08:26:58.652Z</time></trkpt><trkpt lat="43.5074417" lon="11.3531367"><ele>493.99999999999994</ele><time>2026-04-19T08:26:59.651Z</time></trkpt><trkpt lat="43.5073567" lon="11.3530867"><ele>494.0</ele><time>2026-04-19T08:27:00.654Z</time></trkpt><trkpt lat="43.5072767" lon="11.3530517"><ele>494.0</ele><time>2026-04-19T08:27:01.652Z</time></trkpt><trkpt lat="43.5072017" lon="11.3530233"><ele>494.0</ele><time>2026-04-19T08:27:02.652Z</time></trkpt><trkpt lat="43.5071283" lon="11.3529817"><ele>493.99999999999994</ele><time>2026-04-19T08:27:03.652Z</time></trkpt><trkpt lat="43.507055" lon="11.3529267"><ele>494.0</ele><time>2026-04-19T08:27:04.646Z</time></trkpt><trkpt lat="43.5069733" lon="11.3528633"><ele>492.49999999999994</ele><time>2026-04-19T08:27:05.647Z</time></trkpt><trkpt lat="43.506895" lon="11.3527967"><ele>491.0</ele><time>2026-04-19T08:27:06.649Z</time></trkpt><trkpt lat="43.5068217" lon="11.3527283"><ele>489.5</ele><time>2026-04-19T08:27:07.652Z</time></trkpt><trkpt lat="43.5067417" lon="11.352675"><ele>488.0</ele><time>2026-04-19T08:27:08.653Z</time></trkpt><trkpt lat="43.506665" lon="11.3526283"><ele>486.49999999999994</ele><time>2026-04-19T08:27:09.649Z</time></trkpt><trkpt lat="43.5065917" lon="11.3525883"><ele>485.0</ele><time>2026-04-19T08:27:10.651Z</time></trkpt><trkpt lat="43.5065217" lon="11.3525483"><ele>485.00000000000006</ele><time>2026-04-19T08:27:11.654Z</time></trkpt><trkpt lat="43.5064567" lon="11.35252"><ele>485.0</ele><time>2026-04-19T08:27:12.652Z</time></trkpt><trkpt lat="43.5063933" lon="11.3525067"><ele>485.00000000000006</ele><time>2026-04-19T08:27:13.648Z</time></trkpt><trkpt lat="43.5063267" lon="11.3525033"><ele>485.00000000000006</ele><time>2026-04-19T08:27:14.646Z</time></trkpt><trkpt lat="43.5062517" lon="11.35252"><ele>485.0</ele><time>2026-04-19T08:27:15.645Z</time></trkpt><trkpt lat="43.506175" lon="11.3525517"><ele>485.00000000000006</ele><time>2026-04-19T08:27:16.647Z</time></trkpt><trkpt lat="43.5060967" lon="11.3525717"><ele>485.00000000000006</ele><time>2026-04-19T08:27:17.654Z</time></trkpt><trkpt lat="43.506015" lon="11.3525883"><ele>483.6</ele><time>2026-04-19T08:27:18.653Z</time></trkpt><trkpt lat="43.5059233" lon="11.3525933"><ele>482.2</ele><time>2026-04-19T08:27:19.65Z</time></trkpt><trkpt lat="43.50582" lon="11.3525717"><ele>480.79999999999995</ele><time>2026-04-19T08:27:20.652Z</time></trkpt><trkpt lat="43.5057133" lon="11.352535"><ele>479.4</ele><time>2026-04-19T08:27:21.653Z</time></trkpt><trkpt lat="43.505615" lon="11.352475"><ele>478.0</ele><time>2026-04-19T08:27:22.651Z</time></trkpt><trkpt lat="43.5055217" lon="11.3523967"><ele>478.0</ele><time>2026-04-19T08:27:23.654Z</time></trkpt><trkpt lat="43.505435" lon="11.3523267"><ele>477.99999999999994</ele><time>2026-04-19T08:27:24.649Z</time></trkpt><trkpt lat="43.50536" lon="11.352255"><ele>477.99999999999994</ele><time>2026-04-19T08:27:25.649Z</time></trkpt><trkpt lat="43.505295" lon="11.352175"><ele>478.0</ele><time>2026-04-19T08:27:26.649Z</time></trkpt><trkpt lat="43.5052333" lon="11.352085"><ele>478.0</ele><time>2026-04-19T08:27:27.652Z</time></trkpt><trkpt lat="43.5051783" lon="11.3519767"><ele>475.6666666666667</ele><time>2026-04-19T08:27:28.651Z</time></trkpt><trkpt lat="43.50513" lon="11.3518633"><ele>473.33333333333337</ele><time>2026-04-19T08:27:29.653Z</time></trkpt><trkpt lat="43.505075" lon="11.3517633"><ele>471.0</ele><time>2026-04-19T08:27:30.643Z</time></trkpt><trkpt lat="43.505025" lon="11.3516633"><ele>468.66666666666663</ele><time>2026-04-19T08:27:31.656Z</time></trkpt><trkpt lat="43.5049767" lon="11.351575"><ele>466.3333333333333</ele><time>2026-04-19T08:27:32.651Z</time></trkpt><trkpt lat="43.5049167" lon="11.35149"><ele>464.0</ele><time>2026-04-19T08:27:33.655Z</time></trkpt><trkpt lat="43.5048633" lon="11.351405"><ele>462.49999999999994</ele><time>2026-04-19T08:27:34.647Z</time></trkpt><trkpt lat="43.50481" lon="11.351325"><ele>461.0</ele><time>2026-04-19T08:27:35.656Z</time></trkpt><trkpt lat="43.5047567" lon="11.351235"><ele>459.5</ele><time>2026-04-19T08:27:36.648Z</time></trkpt><trkpt lat="43.5047067" lon="11.3511533"><ele>458.0</ele><time>2026-04-19T08:27:37.648Z</time></trkpt><trkpt lat="43.5046733" lon="11.351075"><ele>456.49999999999994</ele><time>2026-04-19T08:27:38.648Z</time></trkpt><trkpt lat="43.50462" lon="11.3510017"><ele>455.0</ele><time>2026-04-19T08:27:40.651Z</time></trkpt><trkpt lat="43.5045367" lon="11.3509783"><ele>454.4</ele><time>2026-04-19T08:27:43.652Z</time></trkpt><trkpt lat="43.5044717" lon="11.3509783"><ele>453.8</ele><time>2026-04-19T08:27:45.654Z</time></trkpt><trkpt lat="43.5043833" lon="11.3510517"><ele>453.20000000000005</ele><time>2026-04-19T08:27:47.647Z</time></trkpt><trkpt lat="43.504275" lon="11.351195"><ele>452.6</ele><time>2026-04-19T08:27:49.651Z</time></trkpt><trkpt lat="43.50421" lon="11.35132"><ele>452.0</ele><time>2026-04-19T08:27:50.654Z</time></trkpt><trkpt lat="43.50411" lon="11.3515017"><ele>452.0</ele><time>2026-04-19T08:27:51.65Z</time></trkpt><trkpt lat="43.5039967" lon="11.35167"><ele>452.0</ele><time>2026-04-19T08:27:52.647Z</time></trkpt><trkpt lat="43.50391" lon="11.3517817"><ele>452.0</ele><time>2026-04-19T08:27:53.644Z</time></trkpt><trkpt lat="43.5038417" lon="11.3518767"><ele>452.0</ele><time>2026-04-19T08:27:54.648Z</time></trkpt><trkpt lat="43.50375" lon="11.3519917"><ele>449.25</ele><time>2026-04-19T08:27:55.646Z</time></trkpt><trkpt lat="43.5036683" lon="11.3520917"><ele>446.5</ele><time>2026-04-19T08:27:56.649Z</time></trkpt><trkpt lat="43.503585" lon="11.3522"><ele>443.75</ele><time>2026-04-19T08:27:57.648Z</time></trkpt><trkpt lat="43.5035033" lon="11.35231"><ele>441.0</ele><time>2026-04-19T08:27:58.651Z</time></trkpt><trkpt lat="43.5034233" lon="11.3524267"><ele>441.0</ele><time>2026-04-19T08:27:59.646Z</time></trkpt><trkpt lat="43.5033667" lon="11.3525233"><ele>441.0</ele><time>2026-04-19T08:28:00.656Z</time></trkpt><trkpt lat="43.5033217" lon="11.3526033"><ele>441.0</ele><time>2026-04-19T08:28:01.647Z</time></trkpt><trkpt lat="43.50326" lon="11.3527"><ele>441.0</ele><time>2026-04-19T08:28:02.652Z</time></trkpt><trkpt lat="43.5032117" lon="11.352785"><ele>441.0</ele><time>2026-04-19T08:28:03.648Z</time></trkpt><trkpt lat="43.5031633" lon="11.35289"><ele>441.0</ele><time>2026-04-19T08:28:05.65Z</time></trkpt><trkpt lat="43.5031467" lon="11.352975"><ele>441.0</ele><time>2026-04-19T08:28:07.649Z</time></trkpt><trkpt lat="43.5031367" lon="11.3530867"><ele>441.0</ele><time>2026-04-19T08:28:09.645Z</time></trkpt><trkpt lat="43.5030933" lon="11.35318"><ele>441.0</ele><time>2026-04-19T08:28:11.65Z</time></trkpt><trkpt lat="43.503035" lon="11.3532283"><ele>441.0</ele><time>2026-04-19T08:28:13.654Z</time></trkpt><trkpt lat="43.502965" lon="11.3532383"><ele>441.0</ele><time>2026-04-19T08:28:14.647Z</time></trkpt><trkpt lat="43.502875" lon="11.3532367"><ele>441.0</ele><time>2026-04-19T08:28:15.649Z</time></trkpt><trkpt lat="43.5027717" lon="11.3532217"><ele>437.33333333333337</ele><time>2026-04-19T08:28:16.649Z</time></trkpt><trkpt lat="43.5026267" lon="11.353195"><ele>433.6666666666667</ele><time>2026-04-19T08:28:17.653Z</time></trkpt><trkpt lat="43.5024533" lon="11.3531433"><ele>430.0</ele><time>2026-04-19T08:28:18.651Z</time></trkpt><trkpt lat="43.5022933" lon="11.35311"><ele>430.0</ele><time>2026-04-19T08:28:19.653Z</time></trkpt><trkpt lat="43.5021367" lon="11.3530733"><ele>430.0</ele><time>2026-04-19T08:28:20.655Z</time></trkpt><trkpt lat="43.5019817" lon="11.3530367"><ele>430.0</ele><time>2026-04-19T08:28:21.652Z</time></trkpt><trkpt lat="43.50185" lon="11.3529983"><ele>429.00000000000006</ele><time>2026-04-19T08:28:22.652Z</time></trkpt><trkpt lat="43.5017367" lon="11.352955"><ele>428.0</ele><time>2026-04-19T08:28:23.654Z</time></trkpt><trkpt lat="43.5016467" lon="11.3529033"><ele>427.0</ele><time>2026-04-19T08:28:24.648Z</time></trkpt><trkpt lat="43.501585" lon="11.3528467"><ele>426.0</ele><time>2026-04-19T08:28:25.652Z</time></trkpt><trkpt lat="43.5015167" lon="11.3528067"><ele>425.00000000000006</ele><time>2026-04-19T08:28:26.652Z</time></trkpt><trkpt lat="43.50145" lon="11.3527783"><ele>424.0</ele><time>2026-04-19T08:28:27.65Z</time></trkpt><trkpt lat="43.5013833" lon="11.3527717"><ele>424.0</ele><time>2026-04-19T08:28:28.65Z</time></trkpt><trkpt lat="43.5013117" lon="11.35279"><ele>424.0</ele><time>2026-04-19T08:28:29.653Z</time></trkpt><trkpt lat="43.5012383" lon="11.352825"><ele>424.0</ele><time>2026-04-19T08:28:30.646Z</time></trkpt><trkpt lat="43.5011683" lon="11.35285"><ele>424.0</ele><time>2026-04-19T08:28:31.653Z</time></trkpt><trkpt lat="43.5010917" lon="11.352865"><ele>424.0</ele><time>2026-04-19T08:28:32.648Z</time></trkpt><trkpt lat="43.50102" lon="11.3528633"><ele>424.0</ele><time>2026-04-19T08:28:33.648Z</time></trkpt><trkpt lat="43.500945" lon="11.35285"><ele>424.0</ele><time>2026-04-19T08:28:34.645Z</time></trkpt><trkpt lat="43.50086" lon="11.3528417"><ele>424.0</ele><time>2026-04-19T08:28:35.648Z</time></trkpt><trkpt lat="43.5007733" lon="11.352825"><ele>424.0</ele><time>2026-04-19T08:28:36.652Z</time></trkpt><trkpt lat="43.5006717" lon="11.352795"><ele>424.0</ele><time>2026-04-19T08:28:37.652Z</time></trkpt><trkpt lat="43.500575" lon="11.352755"><ele>424.0</ele><time>2026-04-19T08:28:38.65Z</time></trkpt><trkpt lat="43.5004517" lon="11.3526983"><ele>424.0</ele><time>2026-04-19T08:28:39.652Z</time></trkpt><trkpt lat="43.50031" lon="11.3526383"><ele>423.5</ele><time>2026-04-19T08:28:40.65Z</time></trkpt><trkpt lat="43.5001783" lon="11.3525867"><ele>423.0</ele><time>2026-04-19T08:28:41.646Z</time></trkpt><trkpt lat="43.5000483" lon="11.3525467"><ele>422.5</ele><time>2026-04-19T08:28:42.646Z</time></trkpt><trkpt lat="43.499925" lon="11.3525033"><ele>422.0</ele><time>2026-04-19T08:28:43.647Z</time></trkpt><trkpt lat="43.4997567" lon="11.352455"><ele>422.0</ele><time>2026-04-19T08:28:44.65Z</time></trkpt><trkpt lat="43.4996217" lon="11.3523967"><ele>422.0</ele><time>2026-04-19T08:28:45.652Z</time></trkpt><trkpt lat="43.49949" lon="11.3523167"><ele>422.0</ele><time>2026-04-19T08:28:46.652Z</time></trkpt><trkpt lat="43.49935" lon="11.352215"><ele>422.0</ele><time>2026-04-19T08:28:47.648Z</time></trkpt><trkpt lat="43.4992117" lon="11.352115"><ele>420.75</ele><time>2026-04-19T08:28:48.653Z</time></trkpt><trkpt lat="43.4990833" lon="11.35203"><ele>419.5</ele><time>2026-04-19T08:28:49.65Z</time></trkpt><trkpt lat="43.4989467" lon="11.35195"><ele>418.25</ele><time>2026-04-19T08:28:50.651Z</time></trkpt><trkpt lat="43.4988183" lon="11.3518867"><ele>417.0</ele><time>2026-04-19T08:28:51.65Z</time></trkpt><trkpt lat="43.498685" lon="11.3518367"><ele>417.0</ele><time>2026-04-19T08:28:52.645Z</time></trkpt><trkpt lat="43.4985483" lon="11.3517933"><ele>417.0</ele><time>2026-04-19T08:28:53.649Z</time></trkpt><trkpt lat="43.4984067" lon="11.3517717"><ele>417.0</ele><time>2026-04-19T08:28:54.654Z</time></trkpt><trkpt lat="43.4982717" lon="11.35179"><ele>417.0</ele><time>2026-04-19T08:28:55.65Z</time></trkpt><trkpt lat="43.49813" lon="11.3518517"><ele>417.0</ele><time>2026-04-19T08:28:56.649Z</time></trkpt><trkpt lat="43.497995" lon="11.3519233"><ele>417.0</ele><time>2026-04-19T08:28:57.649Z</time></trkpt><trkpt lat="43.4978583" lon="11.3519733"><ele>417.0</ele><time>2026-04-19T08:28:58.653Z</time></trkpt><trkpt lat="43.4977283" lon="11.3520383"><ele>417.0</ele><time>2026-04-19T08:28:59.653Z</time></trkpt><trkpt lat="43.497595" lon="11.352115"><ele>415.0</ele><time>2026-04-19T08:29:00.647Z</time></trkpt><trkpt lat="43.4974667" lon="11.3522233"><ele>413.0</ele><time>2026-04-19T08:29:01.648Z</time></trkpt><trkpt lat="43.497335" lon="11.35231"><ele>411.0</ele><time>2026-04-19T08:29:02.649Z</time></trkpt><trkpt lat="43.4972067" lon="11.35242"><ele>409.0</ele><time>2026-04-19T08:29:03.649Z</time></trkpt><trkpt lat="43.4970767" lon="11.3525133"><ele>407.75</ele><time>2026-04-19T08:29:04.651Z</time></trkpt><trkpt lat="43.4969567" lon="11.3525917"><ele>406.5</ele><time>2026-04-19T08:29:05.648Z</time></trkpt><trkpt lat="43.4968367" lon="11.35266"><ele>405.25</ele><time>2026-04-19T08:29:06.654Z</time></trkpt><trkpt lat="43.49671" lon="11.352715"><ele>404.0</ele><time>2026-04-19T08:29:07.653Z</time></trkpt><trkpt lat="43.4965883" lon="11.3527567"><ele>404.0</ele><time>2026-04-19T08:29:08.647Z</time></trkpt><trkpt lat="43.4964783" lon="11.3527833"><ele>404.0</ele><time>2026-04-19T08:29:09.646Z</time></trkpt><trkpt lat="43.4963717" lon="11.352815"><ele>404.0</ele><time>2026-04-19T08:29:10.644Z</time></trkpt><trkpt lat="43.49628" lon="11.35284"><ele>404.0</ele><time>2026-04-19T08:29:11.652Z</time></trkpt><trkpt lat="43.4961933" lon="11.352875"><ele>404.0</ele><time>2026-04-19T08:29:12.648Z</time></trkpt><trkpt lat="43.4961267" lon="11.3528917"><ele>402.16666666666663</ele><time>2026-04-19T08:29:13.649Z</time></trkpt><trkpt lat="43.4960583" lon="11.352935"><ele>400.3333333333333</ele><time>2026-04-19T08:29:14.649Z</time></trkpt><trkpt lat="43.4959683" lon="11.3530467"><ele>398.5</ele><time>2026-04-19T08:29:16.646Z</time></trkpt><trkpt lat="43.4959283" lon="11.3531317"><ele>396.66666666666663</ele><time>2026-04-19T08:29:17.652Z</time></trkpt><trkpt lat="43.4958483" lon="11.3531917"><ele>394.8333333333333</ele><time>2026-04-19T08:29:18.649Z</time></trkpt><trkpt lat="43.495785" lon="11.3532483"><ele>393.0</ele><time>2026-04-19T08:29:19.652Z</time></trkpt><trkpt lat="43.4957" lon="11.3533183"><ele>392.0</ele><time>2026-04-19T08:29:21.651Z</time></trkpt><trkpt lat="43.49564" lon="11.3533683"><ele>391.0</ele><time>2026-04-19T08:29:22.645Z</time></trkpt><trkpt lat="43.495565" lon="11.3534167"><ele>390.0</ele><time>2026-04-19T08:29:23.657Z</time></trkpt><trkpt lat="43.4954767" lon="11.353435"><ele>389.0</ele><time>2026-04-19T08:29:24.651Z</time></trkpt><trkpt lat="43.4953667" lon="11.3534533"><ele>388.0</ele><time>2026-04-19T08:29:25.65Z</time></trkpt><trkpt lat="43.4952567" lon="11.353465"><ele>384.79999999999995</ele><time>2026-04-19T08:29:26.652Z</time></trkpt><trkpt lat="43.49514" lon="11.3534533"><ele>381.6</ele><time>2026-04-19T08:29:27.649Z</time></trkpt><trkpt lat="43.4950217" lon="11.3534667"><ele>378.4</ele><time>2026-04-19T08:29:28.649Z</time></trkpt><trkpt lat="43.4949233" lon="11.3534517"><ele>375.20000000000005</ele><time>2026-04-19T08:29:29.654Z</time></trkpt><trkpt lat="43.4948317" lon="11.3534283"><ele>372.0</ele><time>2026-04-19T08:29:30.649Z</time></trkpt><trkpt lat="43.4947383" lon="11.3534167"><ele>372.0</ele><time>2026-04-19T08:29:31.652Z</time></trkpt><trkpt lat="43.494645" lon="11.3534"><ele>372.0</ele><time>2026-04-19T08:29:32.648Z</time></trkpt><trkpt lat="43.494565" lon="11.3533683"><ele>372.0</ele><time>2026-04-19T08:29:33.649Z</time></trkpt><trkpt lat="43.494485" lon="11.353325"><ele>372.0</ele><time>2026-04-19T08:29:34.65Z</time></trkpt><trkpt lat="43.494425" lon="11.35326"><ele>372.0</ele><time>2026-04-19T08:29:35.652Z</time></trkpt><trkpt lat="43.49437" lon="11.3532167"><ele>372.0</ele><time>2026-04-19T08:29:36.653Z</time></trkpt><trkpt lat="43.4942567" lon="11.353155"><ele>369.0</ele><time>2026-04-19T08:29:38.651Z</time></trkpt><trkpt lat="43.494155" lon="11.3531917"><ele>366.0</ele><time>2026-04-19T08:29:40.653Z</time></trkpt><trkpt lat="43.494095" lon="11.35323"><ele>363.0</ele><time>2026-04-19T08:29:41.655Z</time></trkpt><trkpt lat="43.4940283" lon="11.3532617"><ele>360.0</ele><time>2026-04-19T08:29:42.651Z</time></trkpt><trkpt lat="43.49395" lon="11.3532983"><ele>357.0</ele><time>2026-04-19T08:29:43.655Z</time></trkpt><trkpt lat="43.4938867" lon="11.353315"><ele>354.0</ele><time>2026-04-19T08:29:44.65Z</time></trkpt><trkpt lat="43.4937517" lon="11.3533233"><ele>351.6666666666667</ele><time>2026-04-19T08:29:46.648Z</time></trkpt><trkpt lat="43.4936817" lon="11.3533"><ele>349.3333333333333</ele><time>2026-04-19T08:29:47.654Z</time></trkpt><trkpt lat="43.4936133" lon="11.3532517"><ele>347.0</ele><time>2026-04-19T08:29:48.654Z</time></trkpt><trkpt lat="43.4935467" lon="11.3531933"><ele>344.66666666666663</ele><time>2026-04-19T08:29:49.656Z</time></trkpt><trkpt lat="43.4934867" lon="11.35313"><ele>342.3333333333333</ele><time>2026-04-19T08:29:50.647Z</time></trkpt><trkpt lat="43.493415" lon="11.353065"><ele>340.0</ele><time>2026-04-19T08:29:51.646Z</time></trkpt><trkpt lat="43.4933417" lon="11.3530083"><ele>340.0</ele><time>2026-04-19T08:29:52.649Z</time></trkpt><trkpt lat="43.4932633" lon="11.3529433"><ele>340.0</ele><time>2026-04-19T08:29:53.656Z</time></trkpt><trkpt lat="43.4931617" lon="11.352905"><ele>340.0</ele><time>2026-04-19T08:29:54.65Z</time></trkpt><trkpt lat="43.49306" lon="11.3528617"><ele>340.0</ele><time>2026-04-19T08:29:55.651Z</time></trkpt><trkpt lat="43.4929467" lon="11.35282"><ele>340.0</ele><time>2026-04-19T08:29:56.655Z</time></trkpt><trkpt lat="43.4928367" lon="11.35278"><ele>338.16666666666663</ele><time>2026-04-19T08:29:57.652Z</time></trkpt><trkpt lat="43.4927333" lon="11.35276"><ele>336.3333333333333</ele><time>2026-04-19T08:29:58.654Z</time></trkpt><trkpt lat="43.4926417" lon="11.352745"><ele>334.5</ele><time>2026-04-19T08:29:59.653Z</time></trkpt><trkpt lat="43.4925617" lon="11.3527383"><ele>332.6666666666667</ele><time>2026-04-19T08:30:00.646Z</time></trkpt><trkpt lat="43.4924983" lon="11.3527417"><ele>330.83333333333337</ele><time>2026-04-19T08:30:01.655Z</time></trkpt><trkpt lat="43.492425" lon="11.35274"><ele>329.0</ele><time>2026-04-19T08:30:02.646Z</time></trkpt><trkpt lat="43.49236" lon="11.3527133"><ele>329.0</ele><time>2026-04-19T08:30:03.652Z</time></trkpt><trkpt lat="43.4922967" lon="11.3526667"><ele>329.0</ele><time>2026-04-19T08:30:04.649Z</time></trkpt><trkpt lat="43.49225" lon="11.3526033"><ele>329.0</ele><time>2026-04-19T08:30:05.653Z</time></trkpt><trkpt lat="43.492205" lon="11.3525367"><ele>329.0</ele><time>2026-04-19T08:30:06.651Z</time></trkpt><trkpt lat="43.492175" lon="11.3524583"><ele>329.0</ele><time>2026-04-19T08:30:07.652Z</time></trkpt><trkpt lat="43.4921317" lon="11.3523217"><ele>329.0</ele><time>2026-04-19T08:30:09.653Z</time></trkpt><trkpt lat="43.4920983" lon="11.3522233"><ele>328.6</ele><time>2026-04-19T08:30:11.648Z</time></trkpt><trkpt lat="43.492035" lon="11.3521517"><ele>328.2</ele><time>2026-04-19T08:30:14.651Z</time></trkpt><trkpt lat="43.491935" lon="11.3522333"><ele>327.8</ele><time>2026-04-19T08:30:17.651Z</time></trkpt><trkpt lat="43.4918633" lon="11.3523117"><ele>327.40000000000003</ele><time>2026-04-19T08:30:18.651Z</time></trkpt><trkpt lat="43.491795" lon="11.3523917"><ele>327.0</ele><time>2026-04-19T08:30:19.649Z</time></trkpt><trkpt lat="43.4917067" lon="11.352495"><ele>327.0</ele><time>2026-04-19T08:30:20.647Z</time></trkpt><trkpt lat="43.4916117" lon="11.3525833"><ele>327.0</ele><time>2026-04-19T08:30:21.645Z</time></trkpt><trkpt lat="43.491515" lon="11.3526433"><ele>327.0</ele><time>2026-04-19T08:30:22.646Z</time></trkpt><trkpt lat="43.49142" lon="11.352715"><ele>327.0</ele><time>2026-04-19T08:30:23.646Z</time></trkpt><trkpt lat="43.4913367" lon="11.352795"><ele>327.0</ele><time>2026-04-19T08:30:24.65Z</time></trkpt><trkpt lat="43.4912733" lon="11.3528867"><ele>327.75</ele><time>2026-04-19T08:30:25.65Z</time></trkpt><trkpt lat="43.491205" lon="11.353"><ele>328.5</ele><time>2026-04-19T08:30:26.647Z</time></trkpt><trkpt lat="43.491145" lon="11.3531733"><ele>329.25</ele><time>2026-04-19T08:30:27.657Z</time></trkpt><trkpt lat="43.4910867" lon="11.353355"><ele>330.0</ele><time>2026-04-19T08:30:28.647Z</time></trkpt><trkpt lat="43.49105" lon="11.3535367"><ele>330.6</ele><time>2026-04-19T08:30:29.653Z</time></trkpt><trkpt lat="43.4910183" lon="11.353705"><ele>331.2</ele><time>2026-04-19T08:30:30.647Z</time></trkpt><trkpt lat="43.4909867" lon="11.3538717"><ele>331.79999999999995</ele><time>2026-04-19T08:30:31.644Z</time></trkpt><trkpt lat="43.49096" lon="11.3540017"><ele>332.4</ele><time>2026-04-19T08:30:32.649Z</time></trkpt><trkpt lat="43.490945" lon="11.3540983"><ele>333.0</ele><time>2026-04-19T08:30:33.649Z</time></trkpt><trkpt lat="43.4909233" lon="11.354235"><ele>333.3333333333333</ele><time>2026-04-19T08:30:35.651Z</time></trkpt><trkpt lat="43.4909367" lon="11.3543633"><ele>333.6666666666667</ele><time>2026-04-19T08:30:38.645Z</time></trkpt><trkpt lat="43.4909567" lon="11.3544717"><ele>334.0</ele><time>2026-04-19T08:30:40.655Z</time></trkpt><trkpt lat="43.4909817" lon="11.3546233"><ele>334.33333333333337</ele><time>2026-04-19T08:30:42.647Z</time></trkpt><trkpt lat="43.4909717" lon="11.3547217"><ele>334.6666666666667</ele><time>2026-04-19T08:30:43.649Z</time></trkpt><trkpt lat="43.490955" lon="11.35481"><ele>335.0</ele><time>2026-04-19T08:30:44.653Z</time></trkpt><trkpt lat="43.4909317" lon="11.3549017"><ele>336.0</ele><time>2026-04-19T08:30:45.649Z</time></trkpt><trkpt lat="43.4908967" lon="11.3549983"><ele>337.0</ele><time>2026-04-19T08:30:46.655Z</time></trkpt><trkpt lat="43.490855" lon="11.35509"><ele>338.0</ele><time>2026-04-19T08:30:47.65Z</time></trkpt><trkpt lat="43.4907867" lon="11.355175"><ele>339.0</ele><time>2026-04-19T08:30:48.652Z</time></trkpt><trkpt lat="43.490715" lon="11.3552533"><ele>340.0</ele><time>2026-04-19T08:30:49.646Z</time></trkpt><trkpt lat="43.4906417" lon="11.3553167"><ele>341.0</ele><time>2026-04-19T08:30:50.653Z</time></trkpt><trkpt lat="43.4905467" lon="11.3553883"><ele>341.0</ele><time>2026-04-19T08:30:51.648Z</time></trkpt><trkpt lat="43.490445" lon="11.3554483"><ele>341.0</ele><time>2026-04-19T08:30:52.647Z</time></trkpt><trkpt lat="43.490355" lon="11.35552"><ele>341.0</ele><time>2026-04-19T08:30:53.65Z</time></trkpt><trkpt lat="43.4902567" lon="11.3555667"><ele>341.0</ele><time>2026-04-19T08:30:54.647Z</time></trkpt><trkpt lat="43.4901833" lon="11.3556283"><ele>341.0</ele><time>2026-04-19T08:30:55.65Z</time></trkpt><trkpt lat="43.490075" lon="11.3557033"><ele>343.0</ele><time>2026-04-19T08:30:56.652Z</time></trkpt><trkpt lat="43.4900117" lon="11.3557783"><ele>345.0</ele><time>2026-04-19T08:30:57.656Z</time></trkpt><trkpt lat="43.4899717" lon="11.3558483"><ele>347.0</ele><time>2026-04-19T08:30:58.65Z</time></trkpt><trkpt lat="43.4899567" lon="11.35598"><ele>349.0</ele><time>2026-04-19T08:31:00.649Z</time></trkpt><trkpt lat="43.4900483" lon="11.35609"><ele>351.0</ele><time>2026-04-19T08:31:02.649Z</time></trkpt><trkpt lat="43.4900633" lon="11.356175"><ele>353.0</ele><time>2026-04-19T08:31:03.652Z</time></trkpt><trkpt lat="43.490015" lon="11.356335"><ele>355.1666666666667</ele><time>2026-04-19T08:31:05.653Z</time></trkpt><trkpt lat="43.489955" lon="11.3564133"><ele>357.33333333333337</ele><time>2026-04-19T08:31:06.655Z</time></trkpt><trkpt lat="43.489895" lon="11.3564867"><ele>359.5</ele><time>2026-04-19T08:31:07.647Z</time></trkpt><trkpt lat="43.4898283" lon="11.3565633"><ele>361.6666666666667</ele><time>2026-04-19T08:31:08.65Z</time></trkpt><trkpt lat="43.4897533" lon="11.3566417"><ele>363.8333333333333</ele><time>2026-04-19T08:31:09.649Z</time></trkpt><trkpt lat="43.489675" lon="11.356715"><ele>366.0</ele><time>2026-04-19T08:31:10.647Z</time></trkpt><trkpt lat="43.4895967" lon="11.3567983"><ele>366.5</ele><time>2026-04-19T08:31:11.657Z</time></trkpt><trkpt lat="43.4895183" lon="11.356895"><ele>367.0</ele><time>2026-04-19T08:31:12.65Z</time></trkpt><trkpt lat="43.4894183" lon="11.3570083"><ele>367.5</ele><time>2026-04-19T08:31:13.652Z</time></trkpt><trkpt lat="43.4893217" lon="11.3571217"><ele>368.0</ele><time>2026-04-19T08:31:14.656Z</time></trkpt><trkpt lat="43.489255" lon="11.357255"><ele>370.5</ele><time>2026-04-19T08:31:15.652Z</time></trkpt><trkpt lat="43.4891917" lon="11.3574033"><ele>373.0</ele><time>2026-04-19T08:31:16.651Z</time></trkpt><trkpt lat="43.4891383" lon="11.35756"><ele>375.5</ele><time>2026-04-19T08:31:17.65Z</time></trkpt><trkpt lat="43.48909" lon="11.35773"><ele>378.0</ele><time>2026-04-19T08:31:18.652Z</time></trkpt><trkpt lat="43.4890483" lon="11.3579117"><ele>382.66666666666663</ele><time>2026-04-19T08:31:19.653Z</time></trkpt><trkpt lat="43.4890083" lon="11.3581067"><ele>387.3333333333333</ele><time>2026-04-19T08:31:20.648Z</time></trkpt><trkpt lat="43.488975" lon="11.3583233"><ele>392.0</ele><time>2026-04-19T08:31:21.65Z</time></trkpt><trkpt lat="43.488945" lon="11.35855"><ele>392.0</ele><time>2026-04-19T08:31:22.649Z</time></trkpt><trkpt lat="43.4889217" lon="11.35878"><ele>392.0</ele><time>2026-04-19T08:31:23.657Z</time></trkpt><trkpt lat="43.4888983" lon="11.359015"><ele>392.0</ele><time>2026-04-19T08:31:24.651Z</time></trkpt><trkpt lat="43.4888617" lon="11.359255"><ele>395.66666666666663</ele><time>2026-04-19T08:31:25.653Z</time></trkpt><trkpt lat="43.48881" lon="11.3594917"><ele>399.33333333333337</ele><time>2026-04-19T08:31:26.655Z</time></trkpt><trkpt lat="43.488735" lon="11.3597167"><ele>403.0</ele><time>2026-04-19T08:31:27.657Z</time></trkpt><trkpt lat="43.4886417" lon="11.359935"><ele>405.0</ele><time>2026-04-19T08:31:28.654Z</time></trkpt><trkpt lat="43.4885417" lon="11.3601583"><ele>407.0</ele><time>2026-04-19T08:31:29.65Z</time></trkpt><trkpt lat="43.488445" lon="11.3603767"><ele>409.0</ele><time>2026-04-19T08:31:30.651Z</time></trkpt><trkpt lat="43.488355" lon="11.360575"><ele>411.75</ele><time>2026-04-19T08:31:31.65Z</time></trkpt><trkpt lat="43.4882683" lon="11.360755"><ele>414.5</ele><time>2026-04-19T08:31:32.651Z</time></trkpt><trkpt lat="43.4881833" lon="11.36091"><ele>417.25</ele><time>2026-04-19T08:31:33.653Z</time></trkpt><trkpt lat="43.4881067" lon="11.3610483"><ele>420.0</ele><time>2026-04-19T08:31:34.65Z</time></trkpt><trkpt lat="43.4880367" lon="11.3611817"><ele>420.0</ele><time>2026-04-19T08:31:35.653Z</time></trkpt><trkpt lat="43.48798" lon="11.3612933"><ele>420.0</ele><time>2026-04-19T08:31:36.643Z</time></trkpt><trkpt lat="43.487955" lon="11.3614067"><ele>420.0</ele><time>2026-04-19T08:31:37.65Z</time></trkpt><trkpt lat="43.4879633" lon="11.36151"><ele>420.0</ele><time>2026-04-19T08:31:38.65Z</time></trkpt><trkpt lat="43.487995" lon="11.36162"><ele>420.0</ele><time>2026-04-19T08:31:39.647Z</time></trkpt><trkpt lat="43.4880333" lon="11.3616933"><ele>420.0</ele><time>2026-04-19T08:31:40.65Z</time></trkpt><trkpt lat="43.4880883" lon="11.36184"><ele>423.2</ele><time>2026-04-19T08:31:42.658Z</time></trkpt><trkpt lat="43.48809" lon="11.3619283"><ele>426.4</ele><time>2026-04-19T08:31:45.646Z</time></trkpt><trkpt lat="43.4880117" lon="11.3620183"><ele>429.6</ele><time>2026-04-19T08:31:47.651Z</time></trkpt><trkpt lat="43.4879367" lon="11.36218"><ele>432.8</ele><time>2026-04-19T08:31:49.645Z</time></trkpt><trkpt lat="43.48789" lon="11.3622917"><ele>436.0</ele><time>2026-04-19T08:31:50.649Z</time></trkpt><trkpt lat="43.4878367" lon="11.36242"><ele>438.25</ele><time>2026-04-19T08:31:51.65Z</time></trkpt><trkpt lat="43.4877817" lon="11.362565"><ele>440.5</ele><time>2026-04-19T08:31:52.652Z</time></trkpt><trkpt lat="43.48774" lon="11.36271"><ele>442.75</ele><time>2026-04-19T08:31:53.651Z</time></trkpt><trkpt lat="43.4877" lon="11.3628583"><ele>445.0</ele><time>2026-04-19T08:31:54.652Z</time></trkpt><trkpt lat="43.48765" lon="11.3630033"><ele>446.5</ele><time>2026-04-19T08:31:55.652Z</time></trkpt><trkpt lat="43.48758" lon="11.3631283"><ele>448.0</ele><time>2026-04-19T08:31:56.652Z</time></trkpt><trkpt lat="43.487485" lon="11.36324"><ele>449.5</ele><time>2026-04-19T08:31:57.654Z</time></trkpt><trkpt lat="43.4873733" lon="11.3633467"><ele>451.0</ele><time>2026-04-19T08:31:58.657Z</time></trkpt><trkpt lat="43.4872433" lon="11.363465"><ele>451.0</ele><time>2026-04-19T08:31:59.653Z</time></trkpt><trkpt lat="43.48712" lon="11.3635867"><ele>451.0</ele><time>2026-04-19T08:32:00.661Z</time></trkpt><trkpt lat="43.48699" lon="11.3637083"><ele>451.0</ele><time>2026-04-19T08:32:01.657Z</time></trkpt><trkpt lat="43.4868533" lon="11.3638283"><ele>456.0</ele><time>2026-04-19T08:32:02.651Z</time></trkpt><trkpt lat="43.486725" lon="11.3639583"><ele>461.0</ele><time>2026-04-19T08:32:03.652Z</time></trkpt><trkpt lat="43.48661" lon="11.364095"><ele>466.0</ele><time>2026-04-19T08:32:04.651Z</time></trkpt><trkpt lat="43.4865083" lon="11.36424"><ele>466.0</ele><time>2026-04-19T08:32:05.653Z</time></trkpt><trkpt lat="43.4864183" lon="11.3643983"><ele>466.0</ele><time>2026-04-19T08:32:06.649Z</time></trkpt><trkpt lat="43.4863233" lon="11.3645533"><ele>466.0</ele><time>2026-04-19T08:32:07.655Z</time></trkpt><trkpt lat="43.4862233" lon="11.3647017"><ele>466.0</ele><time>2026-04-19T08:32:08.644Z</time></trkpt><trkpt lat="43.4861233" lon="11.3648633"><ele>471.25</ele><time>2026-04-19T08:32:09.653Z</time></trkpt><trkpt lat="43.48603" lon="11.3650317"><ele>476.5</ele><time>2026-04-19T08:32:10.649Z</time></trkpt><trkpt lat="43.4859333" lon="11.3651917"><ele>481.75</ele><time>2026-04-19T08:32:11.65Z</time></trkpt><trkpt lat="43.4858333" lon="11.365335"><ele>487.0</ele><time>2026-04-19T08:32:12.651Z</time></trkpt><trkpt lat="43.4857217" lon="11.3654617"><ele>484.0</ele><time>2026-04-19T08:32:13.649Z</time></trkpt><trkpt lat="43.4856" lon="11.36557"><ele>481.0</ele><time>2026-04-19T08:32:14.648Z</time></trkpt><trkpt lat="43.4854717" lon="11.365685"><ele>478.0</ele><time>2026-04-19T08:32:15.652Z</time></trkpt><trkpt lat="43.4853317" lon="11.3658067"><ele>482.5</ele><time>2026-04-19T08:32:16.644Z</time></trkpt><trkpt lat="43.4852033" lon="11.3659283"><ele>487.0</ele><time>2026-04-19T08:32:17.651Z</time></trkpt><trkpt lat="43.4850817" lon="11.366045"><ele>491.5</ele><time>2026-04-19T08:32:18.653Z</time></trkpt><trkpt lat="43.4849683" lon="11.3661583"><ele>496.0</ele><time>2026-04-19T08:32:19.647Z</time></trkpt><trkpt lat="43.4848617" lon="11.36626"><ele>496.0</ele><time>2026-04-19T08:32:20.649Z</time></trkpt><trkpt lat="43.4847633" lon="11.3663567"><ele>496.0</ele><time>2026-04-19T08:32:21.65Z</time></trkpt><trkpt lat="43.484665" lon="11.366435"><ele>496.0</ele><time>2026-04-19T08:32:22.65Z</time></trkpt><trkpt lat="43.4845717" lon="11.3664967"><ele>496.0</ele><time>2026-04-19T08:32:23.651Z</time></trkpt><trkpt lat="43.4844917" lon="11.3665483"><ele>496.0</ele><time>2026-04-19T08:32:24.651Z</time></trkpt><trkpt lat="43.4844267" lon="11.366605"><ele>495.83333333333337</ele><time>2026-04-19T08:32:25.648Z</time></trkpt><trkpt lat="43.48437" lon="11.36668"><ele>495.6666666666667</ele><time>2026-04-19T08:32:26.654Z</time></trkpt><trkpt lat="43.48432" lon="11.366755"><ele>495.5</ele><time>2026-04-19T08:32:27.656Z</time></trkpt><trkpt lat="43.4842583" lon="11.3668533"><ele>495.33333333333337</ele><time>2026-04-19T08:32:29.656Z</time></trkpt><trkpt lat="43.48431" lon="11.3669517"><ele>495.1666666666667</ele><time>2026-04-19T08:32:38.649Z</time></trkpt><trkpt lat="43.4843417" lon="11.3670633"><ele>495.0</ele><time>2026-04-19T08:32:40.642Z</time></trkpt><trkpt lat="43.48441" lon="11.3672267"><ele>494.75</ele><time>2026-04-19T08:32:42.651Z</time></trkpt><trkpt lat="43.4844433" lon="11.3673567"><ele>494.5</ele><time>2026-04-19T08:32:43.648Z</time></trkpt><trkpt lat="43.4844717" lon="11.3675083"><ele>494.25</ele><time>2026-04-19T08:32:44.651Z</time></trkpt><trkpt lat="43.4845033" lon="11.3676817"><ele>494.0</ele><time>2026-04-19T08:32:45.65Z</time></trkpt><trkpt lat="43.4845283" lon="11.3678583"><ele>493.5</ele><time>2026-04-19T08:32:46.644Z</time></trkpt><trkpt lat="43.48455" lon="11.36804"><ele>493.0</ele><time>2026-04-19T08:32:47.647Z</time></trkpt><trkpt lat="43.48457" lon="11.3682033"><ele>492.5</ele><time>2026-04-19T08:32:48.645Z</time></trkpt><trkpt lat="43.4845867" lon="11.3683633"><ele>492.0</ele><time>2026-04-19T08:32:49.659Z</time></trkpt><trkpt lat="43.484605" lon="11.3685233"><ele>494.0</ele><time>2026-04-19T08:32:50.648Z</time></trkpt><trkpt lat="43.4846317" lon="11.3686683"><ele>496.00000000000006</ele><time>2026-04-19T08:32:51.65Z</time></trkpt><trkpt lat="43.4846583" lon="11.3688217"><ele>498.00000000000006</ele><time>2026-04-19T08:32:52.649Z</time></trkpt><trkpt lat="43.4846833" lon="11.3689683"><ele>500.0</ele><time>2026-04-19T08:32:53.652Z</time></trkpt><trkpt lat="43.4847233" lon="11.3691183"><ele>502.0</ele><time>2026-04-19T08:32:54.649Z</time></trkpt><trkpt lat="43.4847683" lon="11.36926"><ele>503.25</ele><time>2026-04-19T08:32:55.653Z</time></trkpt><trkpt lat="43.484825" lon="11.3693967"><ele>504.5</ele><time>2026-04-19T08:32:56.646Z</time></trkpt><trkpt lat="43.4849" lon="11.3695183"><ele>505.75</ele><time>2026-04-19T08:32:57.647Z</time></trkpt><trkpt lat="43.485" lon="11.3696133"><ele>507.0</ele><time>2026-04-19T08:32:58.647Z</time></trkpt><trkpt lat="43.48511" lon="11.3696983"><ele>508.25</ele><time>2026-04-19T08:32:59.649Z</time></trkpt><trkpt lat="43.4852133" lon="11.3697733"><ele>509.5</ele><time>2026-04-19T08:33:00.65Z</time></trkpt><trkpt lat="43.4853267" lon="11.3698333"><ele>510.75</ele><time>2026-04-19T08:33:01.653Z</time></trkpt><trkpt lat="43.4854417" lon="11.3698817"><ele>512.0</ele><time>2026-04-19T08:33:02.652Z</time></trkpt><trkpt lat="43.4855467" lon="11.3699433"><ele>512.0</ele><time>2026-04-19T08:33:03.651Z</time></trkpt><trkpt lat="43.4856467" lon="11.370015"><ele>512.0</ele><time>2026-04-19T08:33:04.649Z</time></trkpt><trkpt lat="43.4857433" lon="11.3700867"><ele>512.0</ele><time>2026-04-19T08:33:05.646Z</time></trkpt><trkpt lat="43.4858267" lon="11.3701883"><ele>512.0</ele><time>2026-04-19T08:33:06.65Z</time></trkpt><trkpt lat="43.4858983" lon="11.3702883"><ele>512.0</ele><time>2026-04-19T08:33:07.652Z</time></trkpt><trkpt lat="43.48596" lon="11.3704017"><ele>512.0</ele><time>2026-04-19T08:33:08.648Z</time></trkpt><trkpt lat="43.4860183" lon="11.3705183"><ele>512.0</ele><time>2026-04-19T08:33:09.65Z</time></trkpt><trkpt lat="43.4860783" lon="11.3706467"><ele>512.0</ele><time>2026-04-19T08:33:10.65Z</time></trkpt><trkpt lat="43.4861233" lon="11.3708033"><ele>512.0</ele><time>2026-04-19T08:33:11.643Z</time></trkpt><trkpt lat="43.4861633" lon="11.37097"><ele>513.75</ele><time>2026-04-19T08:33:12.645Z</time></trkpt><trkpt lat="43.486195" lon="11.3711567"><ele>515.5</ele><time>2026-04-19T08:33:13.65Z</time></trkpt><trkpt lat="43.486225" lon="11.3713317"><ele>517.25</ele><time>2026-04-19T08:33:14.653Z</time></trkpt><trkpt lat="43.4862417" lon="11.3715017"><ele>519.0</ele><time>2026-04-19T08:33:15.649Z</time></trkpt><trkpt lat="43.4862583" lon="11.37166"><ele>518.2</ele><time>2026-04-19T08:33:16.645Z</time></trkpt><trkpt lat="43.486275" lon="11.3718017"><ele>517.4</ele><time>2026-04-19T08:33:17.65Z</time></trkpt><trkpt lat="43.4862867" lon="11.3719517"><ele>516.6</ele><time>2026-04-19T08:33:18.651Z</time></trkpt><trkpt lat="43.4862967" lon="11.372095"><ele>515.8</ele><time>2026-04-19T08:33:19.649Z</time></trkpt><trkpt lat="43.4863117" lon="11.372235"><ele>515.0</ele><time>2026-04-19T08:33:20.648Z</time></trkpt><trkpt lat="43.48633" lon="11.3723733"><ele>515.0</ele><time>2026-04-19T08:33:21.651Z</time></trkpt><trkpt lat="43.48635" lon="11.3725117"><ele>515.0</ele><time>2026-04-19T08:33:22.647Z</time></trkpt><trkpt lat="43.4863683" lon="11.3726317"><ele>515.0</ele><time>2026-04-19T08:33:23.652Z</time></trkpt><trkpt lat="43.4863867" lon="11.3727383"><ele>515.0</ele><time>2026-04-19T08:33:24.641Z</time></trkpt><trkpt lat="43.48639" lon="11.3728433"><ele>515.0</ele><time>2026-04-19T08:33:25.645Z</time></trkpt><trkpt lat="43.486385" lon="11.3729517"><ele>515.0</ele><time>2026-04-19T08:33:26.642Z</time></trkpt><trkpt lat="43.4863933" lon="11.373085"><ele>518.0</ele><time>2026-04-19T08:33:28.647Z</time></trkpt><trkpt lat="43.486335" lon="11.373045"><ele>521.0</ele><time>2026-04-19T08:42:37.646Z</time></trkpt><trkpt lat="43.4863017" lon="11.3731833"><ele>524.0</ele><time>2026-04-19T08:44:08.649Z</time></trkpt><trkpt lat="43.4862883" lon="11.3733167"><ele>527.0</ele><time>2026-04-19T08:44:10.65Z</time></trkpt><trkpt lat="43.4862683" lon="11.37351"><ele>530.0</ele><time>2026-04-19T08:44:12.652Z</time></trkpt><trkpt lat="43.4862717" lon="11.37364"><ele>528.2</ele><time>2026-04-19T08:44:13.653Z</time></trkpt><trkpt lat="43.4862567" lon="11.3737683"><ele>526.4</ele><time>2026-04-19T08:44:14.652Z</time></trkpt><trkpt lat="43.4862433" lon="11.3738933"><ele>524.6</ele><time>2026-04-19T08:44:15.652Z</time></trkpt><trkpt lat="43.4862167" lon="11.374035"><ele>522.8</ele><time>2026-04-19T08:44:16.65Z</time></trkpt><trkpt lat="43.4861983" lon="11.3741717"><ele>521.0</ele><time>2026-04-19T08:44:17.646Z</time></trkpt><trkpt lat="43.4861933" lon="11.3743083"><ele>521.0</ele><time>2026-04-19T08:44:18.649Z</time></trkpt><trkpt lat="43.4862" lon="11.374455"><ele>521.0</ele><time>2026-04-19T08:44:19.647Z</time></trkpt><trkpt lat="43.4862333" lon="11.3746083"><ele>521.0</ele><time>2026-04-19T08:44:20.646Z</time></trkpt><trkpt lat="43.4862633" lon="11.374745"><ele>521.0</ele><time>2026-04-19T08:44:21.648Z</time></trkpt><trkpt lat="43.486295" lon="11.374875"><ele>521.0</ele><time>2026-04-19T08:44:22.649Z</time></trkpt><trkpt lat="43.4863183" lon="11.37499"><ele>520.5</ele><time>2026-04-19T08:44:23.648Z</time></trkpt><trkpt lat="43.4863417" lon="11.3750867"><ele>520.0</ele><time>2026-04-19T08:44:24.648Z</time></trkpt><trkpt lat="43.48643" lon="11.3751533"><ele>519.5</ele><time>2026-04-19T08:44:26.644Z</time></trkpt><trkpt lat="43.48637" lon="11.3751067"><ele>519.0</ele><time>2026-04-19T08:44:46.654Z</time></trkpt><trkpt lat="43.4862983" lon="11.375"><ele>518.5</ele><time>2026-04-19T08:44:48.649Z</time></trkpt><trkpt lat="43.4862183" lon="11.374925"><ele>518.0</ele><time>2026-04-19T08:44:50.651Z</time></trkpt><trkpt lat="43.4861183" lon="11.3748383"><ele>518.0</ele><time>2026-04-19T08:44:52.649Z</time></trkpt><trkpt lat="43.4860617" lon="11.374775"><ele>518.0</ele><time>2026-04-19T08:44:53.654Z</time></trkpt><trkpt lat="43.48601" lon="11.37472"><ele>518.0</ele><time>2026-04-19T08:44:54.654Z</time></trkpt><trkpt lat="43.4859017" lon="11.3745883"><ele>518.0</ele><time>2026-04-19T08:44:56.653Z</time></trkpt><trkpt lat="43.4858567" lon="11.37449"><ele>518.0</ele><time>2026-04-19T08:44:57.653Z</time></trkpt><trkpt lat="43.4858" lon="11.37442"><ele>518.0</ele><time>2026-04-19T08:44:58.652Z</time></trkpt><trkpt lat="43.4857283" lon="11.37438"><ele>518.5</ele><time>2026-04-19T08:44:59.648Z</time></trkpt><trkpt lat="43.48566" lon="11.374355"><ele>519.0</ele><time>2026-04-19T08:45:00.651Z</time></trkpt><trkpt lat="43.4855917" lon="11.3743567"><ele>519.5</ele><time>2026-04-19T08:45:01.653Z</time></trkpt><trkpt lat="43.48551" lon="11.3743883"><ele>520.0</ele><time>2026-04-19T08:45:02.651Z</time></trkpt><trkpt lat="43.4854267" lon="11.3744517"><ele>520.5</ele><time>2026-04-19T08:45:03.654Z</time></trkpt><trkpt lat="43.48536" lon="11.3745467"><ele>521.0</ele><time>2026-04-19T08:45:04.652Z</time></trkpt><trkpt lat="43.4853183" lon="11.3746983"><ele>517.0</ele><time>2026-04-19T08:45:05.65Z</time></trkpt><trkpt lat="43.4853033" lon="11.374835"><ele>513.0</ele><time>2026-04-19T08:45:06.655Z</time></trkpt><trkpt lat="43.4852983" lon="11.3749717"><ele>509.0</ele><time>2026-04-19T08:45:07.648Z</time></trkpt><trkpt lat="43.4853083" lon="11.375105"><ele>505.0</ele><time>2026-04-19T08:45:08.653Z</time></trkpt><trkpt lat="43.48534" lon="11.375235"><ele>501.0</ele><time>2026-04-19T08:45:09.648Z</time></trkpt><trkpt lat="43.48539" lon="11.3753617"><ele>501.8</ele><time>2026-04-19T08:45:10.651Z</time></trkpt><trkpt lat="43.4854417" lon="11.3754867"><ele>502.6</ele><time>2026-04-19T08:45:11.65Z</time></trkpt><trkpt lat="43.4854867" lon="11.3756083"><ele>503.4</ele><time>2026-04-19T08:45:12.655Z</time></trkpt><trkpt lat="43.485535" lon="11.3757367"><ele>504.2</ele><time>2026-04-19T08:45:13.65Z</time></trkpt><trkpt lat="43.48558" lon="11.3758867"><ele>505.0</ele><time>2026-04-19T08:45:14.655Z</time></trkpt><trkpt lat="43.485625" lon="11.376045"><ele>505.0</ele><time>2026-04-19T08:45:15.644Z</time></trkpt><trkpt lat="43.48566" lon="11.3762167"><ele>505.0</ele><time>2026-04-19T08:45:16.645Z</time></trkpt><trkpt lat="43.4856833" lon="11.3763867"><ele>505.0</ele><time>2026-04-19T08:45:17.646Z</time></trkpt><trkpt lat="43.485655" lon="11.37656"><ele>505.0</ele><time>2026-04-19T08:45:18.647Z</time></trkpt><trkpt lat="43.48561" lon="11.3767017"><ele>503.0</ele><time>2026-04-19T08:45:19.649Z</time></trkpt><trkpt lat="43.48557" lon="11.37681"><ele>501.0</ele><time>2026-04-19T08:45:20.65Z</time></trkpt><trkpt lat="43.4855117" lon="11.376895"><ele>499.0</ele><time>2026-04-19T08:45:21.654Z</time></trkpt><trkpt lat="43.48545" lon="11.3769867"><ele>497.0</ele><time>2026-04-19T08:45:22.651Z</time></trkpt><trkpt lat="43.4853133" lon="11.3770033"><ele>495.0</ele><time>2026-04-19T08:45:23.648Z</time></trkpt><trkpt lat="43.4851567" lon="11.3770183"><ele>492.75</ele><time>2026-04-19T08:45:24.653Z</time></trkpt><trkpt lat="43.48506" lon="11.3770583"><ele>490.5</ele><time>2026-04-19T08:45:25.646Z</time></trkpt><trkpt lat="43.4849067" lon="11.3770817"><ele>488.25</ele><time>2026-04-19T08:45:26.647Z</time></trkpt><trkpt lat="43.4847433" lon="11.3771167"><ele>486.0</ele><time>2026-04-19T08:45:27.648Z</time></trkpt><trkpt lat="43.4846183" lon="11.37716"><ele>483.0</ele><time>2026-04-19T08:45:28.647Z</time></trkpt><trkpt lat="43.4844817" lon="11.377215"><ele>480.0</ele><time>2026-04-19T08:45:29.648Z</time></trkpt><trkpt lat="43.4843383" lon="11.3772817"><ele>477.0</ele><time>2026-04-19T08:45:30.65Z</time></trkpt><trkpt lat="43.4841833" lon="11.3773667"><ele>477.0</ele><time>2026-04-19T08:45:31.649Z</time></trkpt><trkpt lat="43.48405" lon="11.3774483"><ele>477.0</ele><time>2026-04-19T08:45:32.652Z</time></trkpt><trkpt lat="43.4839317" lon="11.3775367"><ele>477.0</ele><time>2026-04-19T08:45:33.643Z</time></trkpt><trkpt lat="43.4838467" lon="11.37766"><ele>477.0</ele><time>2026-04-19T08:45:34.643Z</time></trkpt><trkpt lat="43.4837483" lon="11.3778233"><ele>474.75</ele><time>2026-04-19T08:45:35.645Z</time></trkpt><trkpt lat="43.4836867" lon="11.3779833"><ele>472.5</ele><time>2026-04-19T08:45:36.646Z</time></trkpt><trkpt lat="43.4836133" lon="11.3781167"><ele>470.25</ele><time>2026-04-19T08:45:37.645Z</time></trkpt><trkpt lat="43.4835383" lon="11.3782217"><ele>468.0</ele><time>2026-04-19T08:45:38.651Z</time></trkpt><trkpt lat="43.4834617" lon="11.3783067"><ele>468.0</ele><time>2026-04-19T08:45:39.648Z</time></trkpt><trkpt lat="43.4833833" lon="11.378385"><ele>467.99999999999994</ele><time>2026-04-19T08:45:40.644Z</time></trkpt><trkpt lat="43.4833183" lon="11.3784317"><ele>467.99999999999994</ele><time>2026-04-19T08:45:41.652Z</time></trkpt><trkpt lat="43.48319" lon="11.3784017"><ele>468.0</ele><time>2026-04-19T08:45:43.651Z</time></trkpt><trkpt lat="43.4830967" lon="11.3784067"><ele>468.0</ele><time>2026-04-19T08:45:44.652Z</time></trkpt><trkpt lat="43.4830117" lon="11.3784083"><ele>466.5</ele><time>2026-04-19T08:45:45.649Z</time></trkpt><trkpt lat="43.4829233" lon="11.3784267"><ele>465.0</ele><time>2026-04-19T08:45:46.651Z</time></trkpt><trkpt lat="43.4828333" lon="11.378455"><ele>463.5</ele><time>2026-04-19T08:45:47.653Z</time></trkpt><trkpt lat="43.4827433" lon="11.3784933"><ele>462.0</ele><time>2026-04-19T08:45:48.65Z</time></trkpt><trkpt lat="43.4826617" lon="11.3785283"><ele>460.5</ele><time>2026-04-19T08:45:49.651Z</time></trkpt><trkpt lat="43.482585" lon="11.3785467"><ele>459.0</ele><time>2026-04-19T08:45:50.652Z</time></trkpt><trkpt lat="43.4825083" lon="11.3785467"><ele>459.0</ele><time>2026-04-19T08:45:51.65Z</time></trkpt><trkpt lat="43.4824383" lon="11.3785317"><ele>459.0</ele><time>2026-04-19T08:45:52.651Z</time></trkpt><trkpt lat="43.4823317" lon="11.3785033"><ele>459.0</ele><time>2026-04-19T08:45:54.654Z</time></trkpt><trkpt lat="43.482255" lon="11.3784667"><ele>459.0</ele><time>2026-04-19T08:45:56.653Z</time></trkpt><trkpt lat="43.4822017" lon="11.3785233"><ele>459.0</ele><time>2026-04-19T08:46:03.656Z</time></trkpt><trkpt lat="43.4820867" lon="11.3784533"><ele>456.1666666666667</ele><time>2026-04-19T08:46:05.644Z</time></trkpt><trkpt lat="43.4820217" lon="11.3784283"><ele>453.33333333333337</ele><time>2026-04-19T08:46:06.646Z</time></trkpt><trkpt lat="43.4819067" lon="11.37841"><ele>450.5</ele><time>2026-04-19T08:46:08.648Z</time></trkpt><trkpt lat="43.4817883" lon="11.37838"><ele>447.6666666666667</ele><time>2026-04-19T08:46:10.65Z</time></trkpt><trkpt lat="43.48172" lon="11.37835"><ele>444.83333333333337</ele><time>2026-04-19T08:46:11.648Z</time></trkpt><trkpt lat="43.481655" lon="11.378325"><ele>442.0</ele><time>2026-04-19T08:46:12.654Z</time></trkpt><trkpt lat="43.4815883" lon="11.378295"><ele>442.00000000000006</ele><time>2026-04-19T08:46:13.644Z</time></trkpt><trkpt lat="43.4815233" lon="11.3782617"><ele>442.0</ele><time>2026-04-19T08:46:14.66Z</time></trkpt><trkpt lat="43.4814517" lon="11.3782133"><ele>442.0</ele><time>2026-04-19T08:46:15.645Z</time></trkpt><trkpt lat="43.4813833" lon="11.3781667"><ele>442.0</ele><time>2026-04-19T08:46:16.649Z</time></trkpt><trkpt lat="43.48132" lon="11.378115"><ele>442.0</ele><time>2026-04-19T08:46:17.656Z</time></trkpt><trkpt lat="43.48126" lon="11.3780683"><ele>442.00000000000006</ele><time>2026-04-19T08:46:18.649Z</time></trkpt><trkpt lat="43.4811967" lon="11.378025"><ele>442.0</ele><time>2026-04-19T08:46:19.65Z</time></trkpt><trkpt lat="43.481125" lon="11.3779983"><ele>439.6666666666667</ele><time>2026-04-19T08:46:20.65Z</time></trkpt><trkpt lat="43.4810467" lon="11.37797"><ele>437.33333333333337</ele><time>2026-04-19T08:46:21.652Z</time></trkpt><trkpt lat="43.4809633" lon="11.37795"><ele>435.0</ele><time>2026-04-19T08:46:22.651Z</time></trkpt><trkpt lat="43.48088" lon="11.3779483"><ele>432.66666666666663</ele><time>2026-04-19T08:46:23.648Z</time></trkpt><trkpt lat="43.4808133" lon="11.3779467"><ele>430.3333333333333</ele><time>2026-04-19T08:46:24.646Z</time></trkpt><trkpt lat="43.4807083" lon="11.3779483"><ele>428.0</ele><time>2026-04-19T08:46:26.649Z</time></trkpt><trkpt lat="43.4806167" lon="11.3779167"><ele>428.00000000000006</ele><time>2026-04-19T08:46:28.65Z</time></trkpt><trkpt lat="43.48056" lon="11.3778567"><ele>428.0</ele><time>2026-04-19T08:46:30.649Z</time></trkpt><trkpt lat="43.4805433" lon="11.3777717"><ele>428.0</ele><time>2026-04-19T08:46:32.653Z</time></trkpt><trkpt lat="43.4804917" lon="11.3777217"><ele>428.0</ele><time>2026-04-19T08:46:35.659Z</time></trkpt><trkpt lat="43.48043" lon="11.377765"><ele>428.0</ele><time>2026-04-19T08:46:37.654Z</time></trkpt><trkpt lat="43.480345" lon="11.377845"><ele>428.00000000000006</ele><time>2026-04-19T08:46:39.647Z</time></trkpt><trkpt lat="43.4802883" lon="11.3778883"><ele>428.0</ele><time>2026-04-19T08:46:40.65Z</time></trkpt><trkpt lat="43.4802183" lon="11.377935"><ele>426.49999999999994</ele><time>2026-04-19T08:46:41.656Z</time></trkpt><trkpt lat="43.48016" lon="11.37797"><ele>425.0</ele><time>2026-04-19T08:46:42.649Z</time></trkpt><trkpt lat="43.4800933" lon="11.3779883"><ele>423.5</ele><time>2026-04-19T08:46:43.647Z</time></trkpt><trkpt lat="43.480025" lon="11.377995"><ele>422.0</ele><time>2026-04-19T08:46:44.651Z</time></trkpt><trkpt lat="43.4799033" lon="11.3779617"><ele>420.49999999999994</ele><time>2026-04-19T08:46:46.657Z</time></trkpt><trkpt lat="43.47984" lon="11.3779367"><ele>419.0</ele><time>2026-04-19T08:46:47.65Z</time></trkpt><trkpt lat="43.479775" lon="11.3779033"><ele>418.99999999999994</ele><time>2026-04-19T08:46:48.648Z</time></trkpt><trkpt lat="43.4797033" lon="11.3778733"><ele>419.0</ele><time>2026-04-19T08:46:49.652Z</time></trkpt><trkpt lat="43.4796417" lon="11.3778267"><ele>419.0</ele><time>2026-04-19T08:46:50.647Z</time></trkpt><trkpt lat="43.4795833" lon="11.3777683"><ele>419.0</ele><time>2026-04-19T08:46:51.661Z</time></trkpt><trkpt lat="43.4795267" lon="11.3777067"><ele>419.0</ele><time>2026-04-19T08:46:52.651Z</time></trkpt><trkpt lat="43.4794717" lon="11.3776267"><ele>418.99999999999994</ele><time>2026-04-19T08:46:53.643Z</time></trkpt><trkpt lat="43.479425" lon="11.3775383"><ele>419.0</ele><time>2026-04-19T08:46:54.657Z</time></trkpt><trkpt lat="43.4793817" lon="11.37745"><ele>418.66666666666663</ele><time>2026-04-19T08:46:55.646Z</time></trkpt><trkpt lat="43.4793483" lon="11.3773683"><ele>418.3333333333333</ele><time>2026-04-19T08:46:56.649Z</time></trkpt><trkpt lat="43.4793217" lon="11.3772167"><ele>418.0</ele><time>2026-04-19T08:46:58.652Z</time></trkpt><trkpt lat="43.4792867" lon="11.377055"><ele>417.66666666666663</ele><time>2026-04-19T08:47:00.652Z</time></trkpt><trkpt lat="43.47926" lon="11.3769717"><ele>417.3333333333333</ele><time>2026-04-19T08:47:01.65Z</time></trkpt><trkpt lat="43.479225" lon="11.3768867"><ele>417.0</ele><time>2026-04-19T08:47:02.645Z</time></trkpt><trkpt lat="43.479165" lon="11.3768067"><ele>417.0</ele><time>2026-04-19T08:47:03.65Z</time></trkpt><trkpt lat="43.4790983" lon="11.37674"><ele>417.0</ele><time>2026-04-19T08:47:04.655Z</time></trkpt><trkpt lat="43.4790133" lon="11.3766567"><ele>417.0</ele><time>2026-04-19T08:47:05.649Z</time></trkpt><trkpt lat="43.47891" lon="11.3765767"><ele>417.0</ele><time>2026-04-19T08:47:06.648Z</time></trkpt><trkpt lat="43.4788117" lon="11.3764733"><ele>417.0</ele><time>2026-04-19T08:47:07.645Z</time></trkpt><trkpt lat="43.4787033" lon="11.3763767"><ele>416.6</ele><time>2026-04-19T08:47:08.65Z</time></trkpt><trkpt lat="43.47861" lon="11.3763"><ele>416.20000000000005</ele><time>2026-04-19T08:47:09.65Z</time></trkpt><trkpt lat="43.4785133" lon="11.3762267"><ele>415.8</ele><time>2026-04-19T08:47:10.653Z</time></trkpt><trkpt lat="43.478415" lon="11.3761583"><ele>415.4</ele><time>2026-04-19T08:47:11.651Z</time></trkpt><trkpt lat="43.47831" lon="11.376105"><ele>415.0</ele><time>2026-04-19T08:47:12.653Z</time></trkpt><trkpt lat="43.4781983" lon="11.37609"><ele>415.0</ele><time>2026-04-19T08:47:13.655Z</time></trkpt><trkpt lat="43.4780767" lon="11.376115"><ele>415.0</ele><time>2026-04-19T08:47:14.644Z</time></trkpt><trkpt lat="43.477965" lon="11.3761567"><ele>415.0</ele><time>2026-04-19T08:47:15.649Z</time></trkpt><trkpt lat="43.4778567" lon="11.3761867"><ele>415.0</ele><time>2026-04-19T08:47:16.646Z</time></trkpt><trkpt lat="43.4777583" lon="11.3761967"><ele>415.0</ele><time>2026-04-19T08:47:17.648Z</time></trkpt><trkpt lat="43.477665" lon="11.3762183"><ele>413.2</ele><time>2026-04-19T08:47:18.655Z</time></trkpt><trkpt lat="43.477575" lon="11.3762333"><ele>411.4</ele><time>2026-04-19T08:47:19.65Z</time></trkpt><trkpt lat="43.477495" lon="11.37626"><ele>409.6</ele><time>2026-04-19T08:47:20.655Z</time></trkpt><trkpt lat="43.4774067" lon="11.37628"><ele>407.8</ele><time>2026-04-19T08:47:21.655Z</time></trkpt><trkpt lat="43.477305" lon="11.3762833"><ele>406.0</ele><time>2026-04-19T08:47:23.653Z</time></trkpt><trkpt lat="43.4772183" lon="11.3762667"><ele>406.0</ele><time>2026-04-19T08:47:25.654Z</time></trkpt><trkpt lat="43.4771333" lon="11.376185"><ele>406.0</ele><time>2026-04-19T08:47:27.645Z</time></trkpt><trkpt lat="43.4770817" lon="11.37612"><ele>406.0</ele><time>2026-04-19T08:47:28.649Z</time></trkpt><trkpt lat="43.477" lon="11.3760317"><ele>406.0</ele><time>2026-04-19T08:47:29.644Z</time></trkpt><trkpt lat="43.4769283" lon="11.3759467"><ele>406.0</ele><time>2026-04-19T08:47:30.649Z</time></trkpt><trkpt lat="43.4768483" lon="11.3758733"><ele>405.20000000000005</ele><time>2026-04-19T08:47:31.648Z</time></trkpt><trkpt lat="43.476775" lon="11.3758133"><ele>404.40000000000003</ele><time>2026-04-19T08:47:32.652Z</time></trkpt><trkpt lat="43.4766883" lon="11.3757667"><ele>403.6</ele><time>2026-04-19T08:47:33.652Z</time></trkpt><trkpt lat="43.4765983" lon="11.3756967"><ele>402.8</ele><time>2026-04-19T08:47:34.645Z</time></trkpt><trkpt lat="43.4765117" lon="11.37561"><ele>402.0</ele><time>2026-04-19T08:47:35.644Z</time></trkpt><trkpt lat="43.4763917" lon="11.3755217"><ele>403.66666666666663</ele><time>2026-04-19T08:47:36.647Z</time></trkpt><trkpt lat="43.4762667" lon="11.3754233"><ele>405.3333333333333</ele><time>2026-04-19T08:47:37.652Z</time></trkpt><trkpt lat="43.4761333" lon="11.3753283"><ele>407.0</ele><time>2026-04-19T08:47:38.651Z</time></trkpt><trkpt lat="43.4759967" lon="11.375225"><ele>407.0</ele><time>2026-04-19T08:47:39.652Z</time></trkpt><trkpt lat="43.4758633" lon="11.37514"><ele>407.0</ele><time>2026-04-19T08:47:40.655Z</time></trkpt><trkpt lat="43.4757283" lon="11.37507"><ele>407.0</ele><time>2026-04-19T08:47:41.654Z</time></trkpt><trkpt lat="43.4755833" lon="11.375025"><ele>407.0</ele><time>2026-04-19T08:47:42.651Z</time></trkpt><trkpt lat="43.475455" lon="11.374975"><ele>405.5</ele><time>2026-04-19T08:47:43.644Z</time></trkpt><trkpt lat="43.475335" lon="11.3749233"><ele>404.0</ele><time>2026-04-19T08:47:44.648Z</time></trkpt><trkpt lat="43.4752233" lon="11.3748817"><ele>402.5</ele><time>2026-04-19T08:47:45.649Z</time></trkpt><trkpt lat="43.4751183" lon="11.3748467"><ele>401.0</ele><time>2026-04-19T08:47:46.65Z</time></trkpt><trkpt lat="43.475" lon="11.37482"><ele>401.0</ele><time>2026-04-19T08:47:47.653Z</time></trkpt><trkpt lat="43.4749033" lon="11.37481"><ele>401.0</ele><time>2026-04-19T08:47:48.653Z</time></trkpt><trkpt lat="43.4748283" lon="11.3748267"><ele>401.0</ele><time>2026-04-19T08:47:49.651Z</time></trkpt><trkpt lat="43.4747333" lon="11.3748283"><ele>401.0</ele><time>2026-04-19T08:47:50.65Z</time></trkpt><trkpt lat="43.47462" lon="11.37483"><ele>401.0</ele><time>2026-04-19T08:47:51.652Z</time></trkpt><trkpt lat="43.474495" lon="11.3748217"><ele>400.25</ele><time>2026-04-19T08:47:52.643Z</time></trkpt><trkpt lat="43.4743667" lon="11.3748167"><ele>399.5</ele><time>2026-04-19T08:47:53.645Z</time></trkpt><trkpt lat="43.474255" lon="11.3748"><ele>398.75</ele><time>2026-04-19T08:47:54.653Z</time></trkpt><trkpt lat="43.4741367" lon="11.3747867"><ele>398.0</ele><time>2026-04-19T08:47:55.656Z</time></trkpt><trkpt lat="43.4740467" lon="11.3747733"><ele>398.0</ele><time>2026-04-19T08:47:56.656Z</time></trkpt><trkpt lat="43.4739533" lon="11.3747667"><ele>398.0</ele><time>2026-04-19T08:47:57.651Z</time></trkpt><trkpt lat="43.4738633" lon="11.3747767"><ele>398.0</ele><time>2026-04-19T08:47:58.652Z</time></trkpt><trkpt lat="43.47377" lon="11.3748283"><ele>398.0</ele><time>2026-04-19T08:47:59.65Z</time></trkpt><trkpt lat="43.473675" lon="11.3748667"><ele>398.0</ele><time>2026-04-19T08:48:00.65Z</time></trkpt><trkpt lat="43.4735817" lon="11.3749017"><ele>397.99999999999994</ele><time>2026-04-19T08:48:01.652Z</time></trkpt><trkpt lat="43.4735" lon="11.374935"><ele>398.0</ele><time>2026-04-19T08:48:02.643Z</time></trkpt><trkpt lat="43.4734167" lon="11.3749633"><ele>398.0</ele><time>2026-04-19T08:48:03.652Z</time></trkpt><trkpt lat="43.4733333" lon="11.3749833"><ele>398.0</ele><time>2026-04-19T08:48:04.65Z</time></trkpt><trkpt lat="43.4732483" lon="11.374995"><ele>397.99999999999994</ele><time>2026-04-19T08:48:05.656Z</time></trkpt><trkpt lat="43.4731617" lon="11.3749783"><ele>398.0</ele><time>2026-04-19T08:48:06.645Z</time></trkpt><trkpt lat="43.4730533" lon="11.3749367"><ele>399.25</ele><time>2026-04-19T08:48:07.646Z</time></trkpt><trkpt lat="43.47293" lon="11.3748767"><ele>400.5</ele><time>2026-04-19T08:48:08.651Z</time></trkpt><trkpt lat="43.4727983" lon="11.3747983"><ele>401.75</ele><time>2026-04-19T08:48:09.65Z</time></trkpt><trkpt lat="43.4726567" lon="11.3746933"><ele>403.0</ele><time>2026-04-19T08:48:10.648Z</time></trkpt><trkpt lat="43.47252" lon="11.37458"><ele>403.0</ele><time>2026-04-19T08:48:11.653Z</time></trkpt><trkpt lat="43.4723817" lon="11.374475"><ele>403.0</ele><time>2026-04-19T08:48:12.646Z</time></trkpt><trkpt lat="43.47225" lon="11.37437"><ele>403.0</ele><time>2026-04-19T08:48:13.654Z</time></trkpt><trkpt lat="43.4721283" lon="11.3742917"><ele>403.0</ele><time>2026-04-19T08:48:14.646Z</time></trkpt><trkpt lat="43.472025" lon="11.374235"><ele>402.00000000000006</ele><time>2026-04-19T08:48:15.651Z</time></trkpt><trkpt lat="43.471935" lon="11.3741783"><ele>401.0</ele><time>2026-04-19T08:48:16.649Z</time></trkpt><trkpt lat="43.47185" lon="11.3741267"><ele>400.0</ele><time>2026-04-19T08:48:17.649Z</time></trkpt><trkpt lat="43.47177" lon="11.37408"><ele>399.0</ele><time>2026-04-19T08:48:18.651Z</time></trkpt><trkpt lat="43.4717067" lon="11.3740433"><ele>398.00000000000006</ele><time>2026-04-19T08:48:19.653Z</time></trkpt><trkpt lat="43.47162" lon="11.3739983"><ele>397.0</ele><time>2026-04-19T08:48:21.652Z</time></trkpt><trkpt lat="43.47148" lon="11.37403"><ele>397.0</ele><time>2026-04-19T08:48:23.654Z</time></trkpt><trkpt lat="43.4713883" lon="11.3740683"><ele>397.0</ele><time>2026-04-19T08:48:24.65Z</time></trkpt><trkpt lat="43.4712717" lon="11.3741167"><ele>397.0</ele><time>2026-04-19T08:48:25.649Z</time></trkpt><trkpt lat="43.4711383" lon="11.374155"><ele>397.0</ele><time>2026-04-19T08:48:26.65Z</time></trkpt><trkpt lat="43.4710067" lon="11.37419"><ele>396.33333333333337</ele><time>2026-04-19T08:48:27.65Z</time></trkpt><trkpt lat="43.4708617" lon="11.3742183"><ele>395.66666666666663</ele><time>2026-04-19T08:48:28.65Z</time></trkpt><trkpt lat="43.4707067" lon="11.374235"><ele>395.0</ele><time>2026-04-19T08:48:29.652Z</time></trkpt><trkpt lat="43.4705483" lon="11.37424"><ele>394.0</ele><time>2026-04-19T08:48:30.654Z</time></trkpt><trkpt lat="43.4703783" lon="11.37423"><ele>393.0</ele><time>2026-04-19T08:48:31.656Z</time></trkpt><trkpt lat="43.4702083" lon="11.3742217"><ele>392.0</ele><time>2026-04-19T08:48:32.657Z</time></trkpt><trkpt lat="43.4700267" lon="11.3742117"><ele>392.0</ele><time>2026-04-19T08:48:33.652Z</time></trkpt><trkpt lat="43.4698433" lon="11.3742067"><ele>392.0</ele><time>2026-04-19T08:48:34.655Z</time></trkpt><trkpt lat="43.4696583" lon="11.3742"><ele>392.0</ele><time>2026-04-19T08:48:35.646Z</time></trkpt><trkpt lat="43.46948" lon="11.3742017"><ele>389.66666666666663</ele><time>2026-04-19T08:48:36.649Z</time></trkpt><trkpt lat="43.4693133" lon="11.3742033"><ele>387.33333333333337</ele><time>2026-04-19T08:48:37.651Z</time></trkpt><trkpt lat="43.4691633" lon="11.3742033"><ele>385.0</ele><time>2026-04-19T08:48:38.653Z</time></trkpt><trkpt lat="43.4690167" lon="11.3741783"><ele>385.0</ele><time>2026-04-19T08:48:39.654Z</time></trkpt><trkpt lat="43.4688683" lon="11.3741333"><ele>385.0</ele><time>2026-04-19T08:48:40.652Z</time></trkpt><trkpt lat="43.4687333" lon="11.37407"><ele>385.0</ele><time>2026-04-19T08:48:41.65Z</time></trkpt><trkpt lat="43.468615" lon="11.3739667"><ele>385.0</ele><time>2026-04-19T08:48:42.646Z</time></trkpt><trkpt lat="43.468505" lon="11.3738417"><ele>384.5</ele><time>2026-04-19T08:48:43.647Z</time></trkpt><trkpt lat="43.4683917" lon="11.3737267"><ele>384.0</ele><time>2026-04-19T08:48:44.649Z</time></trkpt><trkpt lat="43.468265" lon="11.3736267"><ele>383.5</ele><time>2026-04-19T08:48:45.649Z</time></trkpt><trkpt lat="43.4681417" lon="11.3735383"><ele>383.0</ele><time>2026-04-19T08:48:46.647Z</time></trkpt><trkpt lat="43.4680317" lon="11.3733917"><ele>381.79999999999995</ele><time>2026-04-19T08:48:47.65Z</time></trkpt><trkpt lat="43.4679317" lon="11.3733217"><ele>380.6</ele><time>2026-04-19T08:48:48.654Z</time></trkpt><trkpt lat="43.46783" lon="11.37325"><ele>379.4</ele><time>2026-04-19T08:48:49.651Z</time></trkpt><trkpt lat="43.4677583" lon="11.3731817"><ele>378.20000000000005</ele><time>2026-04-19T08:48:50.654Z</time></trkpt><trkpt lat="43.4677083" lon="11.373095"><ele>377.0</ele><time>2026-04-19T08:48:51.643Z</time></trkpt><trkpt lat="43.4676717" lon="11.3730067"><ele>376.8</ele><time>2026-04-19T08:48:52.645Z</time></trkpt><trkpt lat="43.4676867" lon="11.37286"><ele>376.6</ele><time>2026-04-19T08:48:53.647Z</time></trkpt><trkpt lat="43.4676517" lon="11.3727617"><ele>376.40000000000003</ele><time>2026-04-19T08:48:54.646Z</time></trkpt><trkpt lat="43.467595" lon="11.3726683"><ele>376.20000000000005</ele><time>2026-04-19T08:48:55.647Z</time></trkpt><trkpt lat="43.4675567" lon="11.3725467"><ele>376.0</ele><time>2026-04-19T08:48:56.651Z</time></trkpt><trkpt lat="43.4675167" lon="11.3724133"><ele>376.0</ele><time>2026-04-19T08:48:57.653Z</time></trkpt><trkpt lat="43.4674783" lon="11.3722683"><ele>376.0</ele><time>2026-04-19T08:48:58.652Z</time></trkpt><trkpt lat="43.467435" lon="11.372105"><ele>376.0</ele><time>2026-04-19T08:48:59.654Z</time></trkpt><trkpt lat="43.467375" lon="11.3719633"><ele>376.0</ele><time>2026-04-19T08:49:00.655Z</time></trkpt><trkpt lat="43.4673083" lon="11.37183"><ele>376.0</ele><time>2026-04-19T08:49:01.65Z</time></trkpt><trkpt lat="43.46722" lon="11.37171"><ele>376.0</ele><time>2026-04-19T08:49:02.653Z</time></trkpt><trkpt lat="43.46712" lon="11.3715783"><ele>376.0</ele><time>2026-04-19T08:49:03.658Z</time></trkpt><trkpt lat="43.4670083" lon="11.3714717"><ele>376.0</ele><time>2026-04-19T08:49:04.65Z</time></trkpt><trkpt lat="43.4668917" lon="11.37137"><ele>376.75</ele><time>2026-04-19T08:49:05.65Z</time></trkpt><trkpt lat="43.4667783" lon="11.371255"><ele>377.5</ele><time>2026-04-19T08:49:06.651Z</time></trkpt><trkpt lat="43.4666767" lon="11.3711317"><ele>378.25</ele><time>2026-04-19T08:49:07.651Z</time></trkpt><trkpt lat="43.4665733" lon="11.3709867"><ele>379.0</ele><time>2026-04-19T08:49:08.651Z</time></trkpt><trkpt lat="43.4664633" lon="11.3708267"><ele>379.0</ele><time>2026-04-19T08:49:09.649Z</time></trkpt><trkpt lat="43.4663567" lon="11.370645"><ele>379.0</ele><time>2026-04-19T08:49:10.645Z</time></trkpt><trkpt lat="43.46624" lon="11.3704683"><ele>379.0</ele><time>2026-04-19T08:49:11.652Z</time></trkpt><trkpt lat="43.4661283" lon="11.37028"><ele>378.0</ele><time>2026-04-19T08:49:12.653Z</time></trkpt><trkpt lat="43.4660217" lon="11.3700683"><ele>377.0</ele><time>2026-04-19T08:49:13.647Z</time></trkpt><trkpt lat="43.4659433" lon="11.3698383"><ele>376.0</ele><time>2026-04-19T08:49:14.654Z</time></trkpt><trkpt lat="43.4658817" lon="11.3695733"><ele>375.3333333333333</ele><time>2026-04-19T08:49:15.651Z</time></trkpt><trkpt lat="43.4658217" lon="11.3693233"><ele>374.6666666666667</ele><time>2026-04-19T08:49:16.652Z</time></trkpt><trkpt lat="43.4657967" lon="11.3690683"><ele>374.0</ele><time>2026-04-19T08:49:17.652Z</time></trkpt><trkpt lat="43.4657717" lon="11.3688233"><ele>374.0</ele><time>2026-04-19T08:49:18.655Z</time></trkpt><trkpt lat="43.465735" lon="11.368615"><ele>374.0</ele><time>2026-04-19T08:49:19.654Z</time></trkpt><trkpt lat="43.46571" lon="11.3683933"><ele>374.0</ele><time>2026-04-19T08:49:20.653Z</time></trkpt><trkpt lat="43.4657" lon="11.3681583"><ele>373.0</ele><time>2026-04-19T08:49:21.655Z</time></trkpt><trkpt lat="43.4657117" lon="11.36792"><ele>372.0</ele><time>2026-04-19T08:49:22.645Z</time></trkpt><trkpt lat="43.4657617" lon="11.3676517"><ele>371.0</ele><time>2026-04-19T08:49:23.649Z</time></trkpt><trkpt lat="43.46583" lon="11.3673567"><ele>370.0</ele><time>2026-04-19T08:49:24.645Z</time></trkpt><trkpt lat="43.4659017" lon="11.367055"><ele>369.0</ele><time>2026-04-19T08:49:25.651Z</time></trkpt><trkpt lat="43.4659917" lon="11.3667167"><ele>369.0</ele><time>2026-04-19T08:49:26.651Z</time></trkpt><trkpt lat="43.4660733" lon="11.3663733"><ele>369.0</ele><time>2026-04-19T08:49:27.654Z</time></trkpt><trkpt lat="43.4661533" lon="11.3660283"><ele>368.5</ele><time>2026-04-19T08:49:28.652Z</time></trkpt><trkpt lat="43.466225" lon="11.365695"><ele>368.0</ele><time>2026-04-19T08:49:29.659Z</time></trkpt><trkpt lat="43.4663" lon="11.36536"><ele>369.0</ele><time>2026-04-19T08:49:30.656Z</time></trkpt><trkpt lat="43.4663717" lon="11.3650333"><ele>370.0</ele><time>2026-04-19T08:49:31.655Z</time></trkpt><trkpt lat="43.4664467" lon="11.36471"><ele>369.5</ele><time>2026-04-19T08:49:32.66Z</time></trkpt><trkpt lat="43.4665183" lon="11.3643967"><ele>369.0</ele><time>2026-04-19T08:49:33.648Z</time></trkpt><trkpt lat="43.4665883" lon="11.364105"><ele>368.0</ele><time>2026-04-19T08:49:34.646Z</time></trkpt><trkpt lat="43.4666583" lon="11.3638333"><ele>367.0</ele><time>2026-04-19T08:49:35.66Z</time></trkpt><trkpt lat="43.4667217" lon="11.363595"><ele>366.0</ele><time>2026-04-19T08:49:36.652Z</time></trkpt><trkpt lat="43.466785" lon="11.3633917"><ele>366.0</ele><time>2026-04-19T08:49:37.64Z</time></trkpt><trkpt lat="43.4668267" lon="11.3632217"><ele>366.0</ele><time>2026-04-19T08:49:38.651Z</time></trkpt><trkpt lat="43.4668567" lon="11.3630717"><ele>366.0</ele><time>2026-04-19T08:49:39.651Z</time></trkpt><trkpt lat="43.4668767" lon="11.3629383"><ele>366.0</ele><time>2026-04-19T08:49:40.65Z</time></trkpt><trkpt lat="43.4668833" lon="11.36281"><ele>366.0</ele><time>2026-04-19T08:49:41.651Z</time></trkpt><trkpt lat="43.4668767" lon="11.362685"><ele>366.75</ele><time>2026-04-19T08:49:42.663Z</time></trkpt><trkpt lat="43.4668633" lon="11.3625517"><ele>367.5</ele><time>2026-04-19T08:49:43.648Z</time></trkpt><trkpt lat="43.4668067" lon="11.3624233"><ele>368.25</ele><time>2026-04-19T08:49:44.645Z</time></trkpt><trkpt lat="43.4667267" lon="11.362245"><ele>369.0</ele><time>2026-04-19T08:49:45.645Z</time></trkpt><trkpt lat="43.466615" lon="11.362025"><ele>373.3333333333333</ele><time>2026-04-19T08:49:46.65Z</time></trkpt><trkpt lat="43.466535" lon="11.3618267"><ele>377.66666666666663</ele><time>2026-04-19T08:49:47.652Z</time></trkpt><trkpt lat="43.4664667" lon="11.3616317"><ele>382.0</ele><time>2026-04-19T08:49:48.653Z</time></trkpt><trkpt lat="43.4664017" lon="11.3614567"><ele>384.5</ele><time>2026-04-19T08:49:49.654Z</time></trkpt><trkpt lat="43.4663417" lon="11.3612933"><ele>387.0</ele><time>2026-04-19T08:49:50.652Z</time></trkpt><trkpt lat="43.4662783" lon="11.3611467"><ele>389.5</ele><time>2026-04-19T08:49:51.654Z</time></trkpt><trkpt lat="43.4662" lon="11.3610217"><ele>392.0</ele><time>2026-04-19T08:49:52.654Z</time></trkpt><trkpt lat="43.4660933" lon="11.3609017"><ele>384.66666666666663</ele><time>2026-04-19T08:49:53.649Z</time></trkpt><trkpt lat="43.465975" lon="11.3607883"><ele>377.3333333333333</ele><time>2026-04-19T08:49:54.653Z</time></trkpt><trkpt lat="43.4657883" lon="11.3607"><ele>370.0</ele><time>2026-04-19T08:49:55.652Z</time></trkpt><trkpt lat="43.4656867" lon="11.36057"><ele>370.5</ele><time>2026-04-19T08:49:56.648Z</time></trkpt><trkpt lat="43.46559" lon="11.3604233"><ele>371.0</ele><time>2026-04-19T08:49:57.654Z</time></trkpt><trkpt lat="43.46549" lon="11.3602783"><ele>371.5</ele><time>2026-04-19T08:49:58.643Z</time></trkpt><trkpt lat="43.46538" lon="11.3601467"><ele>372.0</ele><time>2026-04-19T08:49:59.654Z</time></trkpt><trkpt lat="43.4652717" lon="11.36"><ele>370.25</ele><time>2026-04-19T08:50:00.653Z</time></trkpt><trkpt lat="43.4651767" lon="11.3598517"><ele>368.5</ele><time>2026-04-19T08:50:01.652Z</time></trkpt><trkpt lat="43.4650867" lon="11.3597067"><ele>366.75</ele><time>2026-04-19T08:50:02.646Z</time></trkpt><trkpt lat="43.4650167" lon="11.3595467"><ele>365.0</ele><time>2026-04-19T08:50:03.65Z</time></trkpt><trkpt lat="43.4649433" lon="11.3593783"><ele>365.0</ele><time>2026-04-19T08:50:04.647Z</time></trkpt><trkpt lat="43.4648867" lon="11.3591717"><ele>365.0</ele><time>2026-04-19T08:50:05.647Z</time></trkpt><trkpt lat="43.4648317" lon="11.3589333"><ele>365.0</ele><time>2026-04-19T08:50:06.652Z</time></trkpt><trkpt lat="43.4647743" lon="11.3586967"><ele>364.33333333333337</ele><time>2026-04-19T08:50:07.653Z</time></trkpt><trkpt lat="43.4647164" lon="11.3584615"><ele>363.6666666666667</ele><time>2026-04-19T08:50:08.652Z</time></trkpt><trkpt lat="43.4646569" lon="11.3582421"><ele>363.0</ele><time>2026-04-19T08:50:09.651Z</time></trkpt><trkpt lat="43.4645907" lon="11.35804"><ele>363.3333333333333</ele><time>2026-04-19T08:50:10.651Z</time></trkpt><trkpt lat="43.4645186" lon="11.357852"><ele>363.66666666666663</ele><time>2026-04-19T08:50:11.645Z</time></trkpt><trkpt lat="43.4644467" lon="11.3576658"><ele>364.0</ele><time>2026-04-19T08:50:12.644Z</time></trkpt><trkpt lat="43.4643765" lon="11.3574888"><ele>364.0</ele><time>2026-04-19T08:50:13.649Z</time></trkpt><trkpt lat="43.464294" lon="11.3573232"><ele>364.0</ele><time>2026-04-19T08:50:14.645Z</time></trkpt><trkpt lat="43.4642026" lon="11.3571647"><ele>364.0</ele><time>2026-04-19T08:50:15.651Z</time></trkpt><trkpt lat="43.4641047" lon="11.3570216"><ele>364.0</ele><time>2026-04-19T08:50:16.651Z</time></trkpt><trkpt lat="43.4639934" lon="11.3569126"><ele>365.0</ele><time>2026-04-19T08:50:17.664Z</time></trkpt><trkpt lat="43.4638668" lon="11.3568575"><ele>366.0</ele><time>2026-04-19T08:50:18.649Z</time></trkpt><trkpt lat="43.4637103" lon="11.3568484"><ele>367.0</ele><time>2026-04-19T08:50:19.652Z</time></trkpt><trkpt lat="43.4635542" lon="11.356866"><ele>368.0</ele><time>2026-04-19T08:50:20.648Z</time></trkpt><trkpt lat="43.4634008" lon="11.3568891"><ele>368.0</ele><time>2026-04-19T08:50:21.645Z</time></trkpt><trkpt lat="43.4632595" lon="11.3569213"><ele>368.0</ele><time>2026-04-19T08:50:22.657Z</time></trkpt><trkpt lat="43.4631373" lon="11.3569359"><ele>368.0</ele><time>2026-04-19T08:50:23.648Z</time></trkpt><trkpt lat="43.4630191" lon="11.3569301"><ele>368.0</ele><time>2026-04-19T08:50:24.652Z</time></trkpt><trkpt lat="43.4629061" lon="11.3569088"><ele>364.75</ele><time>2026-04-19T08:50:25.652Z</time></trkpt><trkpt lat="43.4627792" lon="11.3568807"><ele>361.5</ele><time>2026-04-19T08:50:26.649Z</time></trkpt><trkpt lat="43.4626658" lon="11.3568207"><ele>358.25</ele><time>2026-04-19T08:50:27.65Z</time></trkpt><trkpt lat="43.4625562" lon="11.3567392"><ele>355.0</ele><time>2026-04-19T08:50:28.651Z</time></trkpt><trkpt lat="43.4624403" lon="11.3566118"><ele>355.0</ele><time>2026-04-19T08:50:29.651Z</time></trkpt><trkpt lat="43.4623072" lon="11.356456"><ele>355.0</ele><time>2026-04-19T08:50:30.655Z</time></trkpt><trkpt lat="43.4621486" lon="11.3562836"><ele>355.0</ele><time>2026-04-19T08:50:31.645Z</time></trkpt><trkpt lat="43.4619544" lon="11.3560887"><ele>355.5</ele><time>2026-04-19T08:50:32.645Z</time></trkpt><trkpt lat="43.4617599" lon="11.3559036"><ele>356.0</ele><time>2026-04-19T08:50:33.647Z</time></trkpt><trkpt lat="43.4615795" lon="11.3557443"><ele>356.0</ele><time>2026-04-19T08:50:34.65Z</time></trkpt><trkpt lat="43.461415" lon="11.3556083"><ele>356.0</ele><time>2026-04-19T08:50:35.651Z</time></trkpt><trkpt lat="43.46127" lon="11.3554867"><ele>356.0</ele><time>2026-04-19T08:50:36.649Z</time></trkpt><trkpt lat="43.4611567" lon="11.355435"><ele>360.25</ele><time>2026-04-19T08:50:37.652Z</time></trkpt><trkpt lat="43.4610433" lon="11.3554183"><ele>364.5</ele><time>2026-04-19T08:50:38.65Z</time></trkpt><trkpt lat="43.4609083" lon="11.3554683"><ele>368.75</ele><time>2026-04-19T08:50:39.643Z</time></trkpt><trkpt lat="43.4607917" lon="11.3554767"><ele>373.0</ele><time>2026-04-19T08:50:40.657Z</time></trkpt><trkpt lat="43.4606467" lon="11.3554983"><ele>373.0</ele><time>2026-04-19T08:50:41.647Z</time></trkpt><trkpt lat="43.4604833" lon="11.355495"><ele>373.0</ele><time>2026-04-19T08:50:42.651Z</time></trkpt><trkpt lat="43.46035" lon="11.3554783"><ele>373.0</ele><time>2026-04-19T08:50:43.657Z</time></trkpt><trkpt lat="43.46022" lon="11.3554817"><ele>373.0</ele><time>2026-04-19T08:50:44.654Z</time></trkpt><trkpt lat="43.460085" lon="11.3554933"><ele>371.5</ele><time>2026-04-19T08:50:45.649Z</time></trkpt><trkpt lat="43.4599467" lon="11.3555333"><ele>370.0</ele><time>2026-04-19T08:50:46.653Z</time></trkpt><trkpt lat="43.4598" lon="11.3555633"><ele>368.5</ele><time>2026-04-19T08:50:47.648Z</time></trkpt><trkpt lat="43.4596533" lon="11.3555767"><ele>367.0</ele><time>2026-04-19T08:50:48.653Z</time></trkpt><trkpt lat="43.459505" lon="11.355585"><ele>364.25</ele><time>2026-04-19T08:50:49.647Z</time></trkpt><trkpt lat="43.4593583" lon="11.355575"><ele>361.5</ele><time>2026-04-19T08:50:50.645Z</time></trkpt><trkpt lat="43.4592133" lon="11.3555367"><ele>358.75</ele><time>2026-04-19T08:50:51.645Z</time></trkpt><trkpt lat="43.45907" lon="11.355485"><ele>356.0</ele><time>2026-04-19T08:50:52.647Z</time></trkpt><trkpt lat="43.458925" lon="11.3554117"><ele>354.0</ele><time>2026-04-19T08:50:53.646Z</time></trkpt><trkpt lat="43.4587717" lon="11.355315"><ele>352.0</ele><time>2026-04-19T08:50:54.657Z</time></trkpt><trkpt lat="43.4586083" lon="11.3551983"><ele>350.0</ele><time>2026-04-19T08:50:55.646Z</time></trkpt><trkpt lat="43.4584567" lon="11.35507"><ele>350.0</ele><time>2026-04-19T08:50:56.649Z</time></trkpt><trkpt lat="43.4583183" lon="11.354935"><ele>350.0</ele><time>2026-04-19T08:50:57.652Z</time></trkpt><trkpt lat="43.4581917" lon="11.3548233"><ele>350.0</ele><time>2026-04-19T08:50:58.653Z</time></trkpt><trkpt lat="43.4580633" lon="11.35472"><ele>351.6666666666667</ele><time>2026-04-19T08:50:59.643Z</time></trkpt><trkpt lat="43.45793" lon="11.3546217"><ele>353.3333333333333</ele><time>2026-04-19T08:51:00.645Z</time></trkpt><trkpt lat="43.457775" lon="11.35455"><ele>355.0</ele><time>2026-04-19T08:51:01.647Z</time></trkpt><trkpt lat="43.4575867" lon="11.3544833"><ele>355.0</ele><time>2026-04-19T08:51:02.648Z</time></trkpt><trkpt lat="43.4573983" lon="11.3544033"><ele>355.0</ele><time>2026-04-19T08:51:03.649Z</time></trkpt><trkpt lat="43.45721" lon="11.3543267"><ele>355.0</ele><time>2026-04-19T08:51:04.651Z</time></trkpt><trkpt lat="43.45702" lon="11.354265"><ele>352.0</ele><time>2026-04-19T08:51:05.647Z</time></trkpt><trkpt lat="43.4568067" lon="11.354235"><ele>349.0</ele><time>2026-04-19T08:51:06.65Z</time></trkpt><trkpt lat="43.45659" lon="11.3541983"><ele>346.0</ele><time>2026-04-19T08:51:07.654Z</time></trkpt><trkpt lat="43.456385" lon="11.3541567"><ele>345.66666666666663</ele><time>2026-04-19T08:51:08.648Z</time></trkpt><trkpt lat="43.4561683" lon="11.3541083"><ele>345.3333333333333</ele><time>2026-04-19T08:51:09.656Z</time></trkpt><trkpt lat="43.4559617" lon="11.35408"><ele>345.0</ele><time>2026-04-19T08:51:10.651Z</time></trkpt><trkpt lat="43.4557533" lon="11.3540517"><ele>345.0</ele><time>2026-04-19T08:51:11.656Z</time></trkpt><trkpt lat="43.4555733" lon="11.35402"><ele>345.0</ele><time>2026-04-19T08:51:12.656Z</time></trkpt><trkpt lat="43.4554083" lon="11.3539933"><ele>345.0</ele><time>2026-04-19T08:51:13.651Z</time></trkpt><trkpt lat="43.4552617" lon="11.3539667"><ele>344.5</ele><time>2026-04-19T08:51:14.649Z</time></trkpt><trkpt lat="43.4551367" lon="11.3539667"><ele>344.0</ele><time>2026-04-19T08:51:15.651Z</time></trkpt><trkpt lat="43.4550067" lon="11.3539967"><ele>343.5</ele><time>2026-04-19T08:51:16.653Z</time></trkpt><trkpt lat="43.45487" lon="11.3540417"><ele>343.0</ele><time>2026-04-19T08:51:17.648Z</time></trkpt><trkpt lat="43.4547317" lon="11.35411"><ele>341.25</ele><time>2026-04-19T08:51:18.654Z</time></trkpt><trkpt lat="43.4546" lon="11.3541933"><ele>339.5</ele><time>2026-04-19T08:51:19.657Z</time></trkpt><trkpt lat="43.4544667" lon="11.3542867"><ele>337.75</ele><time>2026-04-19T08:51:20.652Z</time></trkpt><trkpt lat="43.454345" lon="11.3543717"><ele>336.0</ele><time>2026-04-19T08:51:21.652Z</time></trkpt><trkpt lat="43.4542333" lon="11.3544317"><ele>336.0</ele><time>2026-04-19T08:51:22.648Z</time></trkpt><trkpt lat="43.4541083" lon="11.3544817"><ele>336.0</ele><time>2026-04-19T08:51:23.648Z</time></trkpt><trkpt lat="43.454015" lon="11.3544967"><ele>336.0</ele><time>2026-04-19T08:51:24.646Z</time></trkpt><trkpt lat="43.4539067" lon="11.3545133"><ele>336.0</ele><time>2026-04-19T08:51:25.649Z</time></trkpt><trkpt lat="43.4538183" lon="11.3545117"><ele>336.0</ele><time>2026-04-19T08:51:26.651Z</time></trkpt><trkpt lat="43.45372" lon="11.354545"><ele>336.6</ele><time>2026-04-19T08:51:27.643Z</time></trkpt><trkpt lat="43.45362" lon="11.3546"><ele>337.20000000000005</ele><time>2026-04-19T08:51:28.654Z</time></trkpt><trkpt lat="43.45353" lon="11.35465"><ele>337.79999999999995</ele><time>2026-04-19T08:51:29.648Z</time></trkpt><trkpt lat="43.4534433" lon="11.35469"><ele>338.4</ele><time>2026-04-19T08:51:30.645Z</time></trkpt><trkpt lat="43.4533133" lon="11.3547583"><ele>339.0</ele><time>2026-04-19T08:51:31.647Z</time></trkpt><trkpt lat="43.4531767" lon="11.3548233"><ele>339.0</ele><time>2026-04-19T08:51:32.656Z</time></trkpt><trkpt lat="43.4530033" lon="11.3549067"><ele>339.0</ele><time>2026-04-19T08:51:33.647Z</time></trkpt><trkpt lat="43.452825" lon="11.35499"><ele>339.0</ele><time>2026-04-19T08:51:34.65Z</time></trkpt><trkpt lat="43.452645" lon="11.3550833"><ele>340.0</ele><time>2026-04-19T08:51:35.653Z</time></trkpt><trkpt lat="43.4524617" lon="11.355165"><ele>341.0</ele><time>2026-04-19T08:51:36.656Z</time></trkpt><trkpt lat="43.4522783" lon="11.35525"><ele>342.0</ele><time>2026-04-19T08:51:37.653Z</time></trkpt><trkpt lat="43.4521183" lon="11.3553217"><ele>344.3333333333333</ele><time>2026-04-19T08:51:38.655Z</time></trkpt><trkpt lat="43.45196" lon="11.3553667"><ele>346.66666666666663</ele><time>2026-04-19T08:51:39.656Z</time></trkpt><trkpt lat="43.4518017" lon="11.355405"><ele>349.0</ele><time>2026-04-19T08:51:40.652Z</time></trkpt><trkpt lat="43.45165" lon="11.35544"><ele>349.0</ele><time>2026-04-19T08:51:41.648Z</time></trkpt><trkpt lat="43.4514967" lon="11.3554933"><ele>349.0</ele><time>2026-04-19T08:51:42.651Z</time></trkpt><trkpt lat="43.45135" lon="11.3555533"><ele>349.0</ele><time>2026-04-19T08:51:43.648Z</time></trkpt><trkpt lat="43.45121" lon="11.35562"><ele>348.5</ele><time>2026-04-19T08:51:44.652Z</time></trkpt><trkpt lat="43.451065" lon="11.3556833"><ele>348.0</ele><time>2026-04-19T08:51:45.649Z</time></trkpt><trkpt lat="43.45093" lon="11.3557683"><ele>347.5</ele><time>2026-04-19T08:51:46.65Z</time></trkpt><trkpt lat="43.4508083" lon="11.3558683"><ele>347.0</ele><time>2026-04-19T08:51:47.641Z</time></trkpt><trkpt lat="43.450705" lon="11.3559767"><ele>347.0</ele><time>2026-04-19T08:51:48.654Z</time></trkpt><trkpt lat="43.4506033" lon="11.3560883"><ele>347.0</ele><time>2026-04-19T08:51:49.645Z</time></trkpt><trkpt lat="43.450505" lon="11.3562117"><ele>347.0</ele><time>2026-04-19T08:51:50.649Z</time></trkpt><trkpt lat="43.4503833" lon="11.35636"><ele>347.0</ele><time>2026-04-19T08:51:51.652Z</time></trkpt><trkpt lat="43.4502533" lon="11.356495"><ele>345.25</ele><time>2026-04-19T08:51:52.647Z</time></trkpt><trkpt lat="43.450135" lon="11.3566183"><ele>343.5</ele><time>2026-04-19T08:51:53.653Z</time></trkpt><trkpt lat="43.45004" lon="11.3567117"><ele>341.75</ele><time>2026-04-19T08:51:54.654Z</time></trkpt><trkpt lat="43.44994" lon="11.3568017"><ele>340.0</ele><time>2026-04-19T08:51:55.65Z</time></trkpt><trkpt lat="43.4498283" lon="11.3568833"><ele>340.0</ele><time>2026-04-19T08:51:56.651Z</time></trkpt><trkpt lat="43.4496983" lon="11.3569567"><ele>340.0</ele><time>2026-04-19T08:51:57.653Z</time></trkpt><trkpt lat="43.4495433" lon="11.3569733"><ele>340.0</ele><time>2026-04-19T08:51:58.654Z</time></trkpt><trkpt lat="43.4493933" lon="11.3569633"><ele>340.0</ele><time>2026-04-19T08:51:59.653Z</time></trkpt><trkpt lat="43.4492533" lon="11.356925"><ele>337.3333333333333</ele><time>2026-04-19T08:52:00.648Z</time></trkpt><trkpt lat="43.449105" lon="11.3568683"><ele>334.6666666666667</ele><time>2026-04-19T08:52:01.646Z</time></trkpt><trkpt lat="43.448965" lon="11.3567617"><ele>332.0</ele><time>2026-04-19T08:52:02.649Z</time></trkpt><trkpt lat="43.4488217" lon="11.3566433"><ele>330.6666666666667</ele><time>2026-04-19T08:52:03.647Z</time></trkpt><trkpt lat="43.44866" lon="11.3565267"><ele>329.3333333333333</ele><time>2026-04-19T08:52:04.649Z</time></trkpt><trkpt lat="43.4484867" lon="11.35638"><ele>328.0</ele><time>2026-04-19T08:52:05.649Z</time></trkpt><trkpt lat="43.44832" lon="11.3562433"><ele>329.0</ele><time>2026-04-19T08:52:06.649Z</time></trkpt><trkpt lat="43.4481417" lon="11.3560983"><ele>330.0</ele><time>2026-04-19T08:52:07.654Z</time></trkpt><trkpt lat="43.447965" lon="11.355995"><ele>331.0</ele><time>2026-04-19T08:52:08.658Z</time></trkpt><trkpt lat="43.4478117" lon="11.3558717"><ele>331.0</ele><time>2026-04-19T08:52:09.644Z</time></trkpt><trkpt lat="43.44765" lon="11.35578"><ele>331.0</ele><time>2026-04-19T08:52:10.655Z</time></trkpt><trkpt lat="43.4474867" lon="11.3556917"><ele>331.0</ele><time>2026-04-19T08:52:11.655Z</time></trkpt><trkpt lat="43.447315" lon="11.3556167"><ele>331.0</ele><time>2026-04-19T08:52:12.649Z</time></trkpt><trkpt lat="43.4471383" lon="11.3555383"><ele>331.0</ele><time>2026-04-19T08:52:13.657Z</time></trkpt><trkpt lat="43.4469483" lon="11.35546"><ele>331.0</ele><time>2026-04-19T08:52:14.65Z</time></trkpt><trkpt lat="43.4467433" lon="11.3554067"><ele>331.3333333333333</ele><time>2026-04-19T08:52:15.646Z</time></trkpt><trkpt lat="43.446525" lon="11.3553683"><ele>331.6666666666667</ele><time>2026-04-19T08:52:16.651Z</time></trkpt><trkpt lat="43.4463217" lon="11.355335"><ele>332.0</ele><time>2026-04-19T08:52:17.65Z</time></trkpt><trkpt lat="43.4461283" lon="11.35529"><ele>332.0</ele><time>2026-04-19T08:52:18.654Z</time></trkpt><trkpt lat="43.4459433" lon="11.3552483"><ele>332.0</ele><time>2026-04-19T08:52:19.646Z</time></trkpt><trkpt lat="43.4457817" lon="11.355215"><ele>332.0</ele><time>2026-04-19T08:52:20.646Z</time></trkpt><trkpt lat="43.4456333" lon="11.3551783"><ele>332.0</ele><time>2026-04-19T08:52:21.646Z</time></trkpt><trkpt lat="43.4455" lon="11.35511"><ele>332.0</ele><time>2026-04-19T08:52:22.649Z</time></trkpt><trkpt lat="43.445365" lon="11.355025"><ele>332.0</ele><time>2026-04-19T08:52:23.65Z</time></trkpt><trkpt lat="43.44524" lon="11.3549067"><ele>332.0</ele><time>2026-04-19T08:52:24.653Z</time></trkpt><trkpt lat="43.44513" lon="11.3547667"><ele>331.0</ele><time>2026-04-19T08:52:25.654Z</time></trkpt><trkpt lat="43.44503" lon="11.3546133"><ele>330.0</ele><time>2026-04-19T08:52:26.654Z</time></trkpt><trkpt lat="43.44495" lon="11.3544633"><ele>329.0</ele><time>2026-04-19T08:52:27.651Z</time></trkpt><trkpt lat="43.4448867" lon="11.354315"><ele>328.0</ele><time>2026-04-19T08:52:28.649Z</time></trkpt><trkpt lat="43.4448483" lon="11.3541533"><ele>328.0</ele><time>2026-04-19T08:52:29.653Z</time></trkpt><trkpt lat="43.444805" lon="11.3540217"><ele>328.0</ele><time>2026-04-19T08:52:30.655Z</time></trkpt><trkpt lat="43.4447617" lon="11.353905"><ele>328.0</ele><time>2026-04-19T08:52:31.647Z</time></trkpt><trkpt lat="43.4447417" lon="11.35382"><ele>328.0</ele><time>2026-04-19T08:52:32.646Z</time></trkpt><trkpt lat="43.4447017" lon="11.353725"><ele>328.0</ele><time>2026-04-19T08:52:33.653Z</time></trkpt><trkpt lat="43.44462" lon="11.3536567"><ele>328.0</ele><time>2026-04-19T08:52:35.651Z</time></trkpt><trkpt lat="43.4445333" lon="11.353715"><ele>327.2</ele><time>2026-04-19T08:52:37.652Z</time></trkpt><trkpt lat="43.4444717" lon="11.3537733"><ele>326.4</ele><time>2026-04-19T08:52:38.657Z</time></trkpt><trkpt lat="43.444405" lon="11.3538117"><ele>325.59999999999997</ele><time>2026-04-19T08:52:39.653Z</time></trkpt><trkpt lat="43.444335" lon="11.35385"><ele>324.79999999999995</ele><time>2026-04-19T08:52:40.652Z</time></trkpt><trkpt lat="43.444235" lon="11.353925"><ele>324.0</ele><time>2026-04-19T08:52:41.649Z</time></trkpt><trkpt lat="43.4441133" lon="11.3540033"><ele>324.0</ele><time>2026-04-19T08:52:42.648Z</time></trkpt><trkpt lat="43.4439667" lon="11.3541067"><ele>324.0</ele><time>2026-04-19T08:52:43.653Z</time></trkpt><trkpt lat="43.4437767" lon="11.3542367"><ele>324.0</ele><time>2026-04-19T08:52:44.651Z</time></trkpt><trkpt lat="43.4436233" lon="11.3543267"><ele>327.3333333333333</ele><time>2026-04-19T08:52:45.651Z</time></trkpt><trkpt lat="43.4434533" lon="11.35443"><ele>330.66666666666663</ele><time>2026-04-19T08:52:46.652Z</time></trkpt><trkpt lat="43.4432683" lon="11.3545433"><ele>334.0</ele><time>2026-04-19T08:52:47.653Z</time></trkpt><trkpt lat="43.4430733" lon="11.3546783"><ele>334.66666666666663</ele><time>2026-04-19T08:52:48.652Z</time></trkpt><trkpt lat="43.4429117" lon="11.3548083"><ele>335.3333333333333</ele><time>2026-04-19T08:52:49.648Z</time></trkpt><trkpt lat="43.442735" lon="11.35495"><ele>336.0</ele><time>2026-04-19T08:52:50.649Z</time></trkpt><trkpt lat="43.4425617" lon="11.355075"><ele>336.0</ele><time>2026-04-19T08:52:51.65Z</time></trkpt><trkpt lat="43.4423583" lon="11.3552017"><ele>336.0</ele><time>2026-04-19T08:52:52.649Z</time></trkpt><trkpt lat="43.44219" lon="11.3552967"><ele>336.0</ele><time>2026-04-19T08:52:53.654Z</time></trkpt><trkpt lat="43.4420067" lon="11.355375"><ele>337.75</ele><time>2026-04-19T08:52:54.654Z</time></trkpt><trkpt lat="43.4418483" lon="11.3554283"><ele>339.5</ele><time>2026-04-19T08:52:55.65Z</time></trkpt><trkpt lat="43.441715" lon="11.355495"><ele>341.25</ele><time>2026-04-19T08:52:56.654Z</time></trkpt><trkpt lat="43.4415817" lon="11.3555667"><ele>343.0</ele><time>2026-04-19T08:52:57.65Z</time></trkpt><trkpt lat="43.4414567" lon="11.3556583"><ele>343.0</ele><time>2026-04-19T08:52:58.653Z</time></trkpt><trkpt lat="43.4413667" lon="11.355765"><ele>343.0</ele><time>2026-04-19T08:52:59.651Z</time></trkpt><trkpt lat="43.4412667" lon="11.3558533"><ele>343.0</ele><time>2026-04-19T08:53:00.659Z</time></trkpt><trkpt lat="43.44117" lon="11.35592"><ele>343.0</ele><time>2026-04-19T08:53:01.647Z</time></trkpt><trkpt lat="43.441075" lon="11.35596"><ele>343.0</ele><time>2026-04-19T08:53:02.652Z</time></trkpt><trkpt lat="43.4409983" lon="11.35596"><ele>344.79999999999995</ele><time>2026-04-19T08:53:03.65Z</time></trkpt><trkpt lat="43.44089" lon="11.3559317"><ele>346.6</ele><time>2026-04-19T08:53:05.654Z</time></trkpt><trkpt lat="43.44087" lon="11.3558267"><ele>348.4</ele><time>2026-04-19T08:53:07.656Z</time></trkpt><trkpt lat="43.4408917" lon="11.355675"><ele>350.20000000000005</ele><time>2026-04-19T08:53:09.646Z</time></trkpt><trkpt lat="43.4409283" lon="11.35555"><ele>352.0</ele><time>2026-04-19T08:53:10.65Z</time></trkpt><trkpt lat="43.44096" lon="11.3554167"><ele>352.25</ele><time>2026-04-19T08:53:11.648Z</time></trkpt><trkpt lat="43.44099" lon="11.355255"><ele>352.5</ele><time>2026-04-19T08:53:12.647Z</time></trkpt><trkpt lat="43.4410117" lon="11.3550467"><ele>352.75</ele><time>2026-04-19T08:53:13.646Z</time></trkpt><trkpt lat="43.440995" lon="11.3548217"><ele>353.0</ele><time>2026-04-19T08:53:14.649Z</time></trkpt><trkpt lat="43.4409633" lon="11.3545867"><ele>353.6666666666667</ele><time>2026-04-19T08:53:15.653Z</time></trkpt><trkpt lat="43.44092" lon="11.3543417"><ele>354.3333333333333</ele><time>2026-04-19T08:53:16.652Z</time></trkpt><trkpt lat="43.44088" lon="11.354105"><ele>355.0</ele><time>2026-04-19T08:53:17.649Z</time></trkpt><trkpt lat="43.4408533" lon="11.35386"><ele>357.0</ele><time>2026-04-19T08:53:18.651Z</time></trkpt><trkpt lat="43.4408117" lon="11.353605"><ele>359.0</ele><time>2026-04-19T08:53:19.651Z</time></trkpt><trkpt lat="43.4407733" lon="11.3533383"><ele>361.0</ele><time>2026-04-19T08:53:20.652Z</time></trkpt><trkpt lat="43.4407383" lon="11.3530683"><ele>363.0</ele><time>2026-04-19T08:53:21.649Z</time></trkpt><trkpt lat="43.440705" lon="11.352795"><ele>365.0</ele><time>2026-04-19T08:53:22.649Z</time></trkpt><trkpt lat="43.440665" lon="11.3525417"><ele>367.0</ele><time>2026-04-19T08:53:23.652Z</time></trkpt><trkpt lat="43.4406233" lon="11.3523017"><ele>369.0</ele><time>2026-04-19T08:53:24.654Z</time></trkpt><trkpt lat="43.4405867" lon="11.352075"><ele>371.0</ele><time>2026-04-19T08:53:25.655Z</time></trkpt><trkpt lat="43.4405617" lon="11.351865"><ele>373.0</ele><time>2026-04-19T08:53:26.648Z</time></trkpt><trkpt lat="43.4405383" lon="11.3516817"><ele>373.0</ele><time>2026-04-19T08:53:27.657Z</time></trkpt><trkpt lat="43.4405067" lon="11.35153"><ele>373.0</ele><time>2026-04-19T08:53:28.65Z</time></trkpt><trkpt lat="43.4404467" lon="11.3513833"><ele>373.0</ele><time>2026-04-19T08:53:29.648Z</time></trkpt><trkpt lat="43.4404117" lon="11.351195"><ele>373.0</ele><time>2026-04-19T08:53:30.655Z</time></trkpt><trkpt lat="43.4403683" lon="11.3510033"><ele>373.0</ele><time>2026-04-19T08:53:31.659Z</time></trkpt><trkpt lat="43.44032" lon="11.3508217"><ele>373.0</ele><time>2026-04-19T08:53:32.65Z</time></trkpt><trkpt lat="43.4402867" lon="11.350655"><ele>373.0</ele><time>2026-04-19T08:53:33.653Z</time></trkpt><trkpt lat="43.4402333" lon="11.350495"><ele>373.0</ele><time>2026-04-19T08:53:34.648Z</time></trkpt><trkpt lat="43.4401667" lon="11.3503517"><ele>373.75</ele><time>2026-04-19T08:53:35.649Z</time></trkpt><trkpt lat="43.4400883" lon="11.3502283"><ele>374.5</ele><time>2026-04-19T08:53:36.644Z</time></trkpt><trkpt lat="43.43999" lon="11.3501067"><ele>375.25</ele><time>2026-04-19T08:53:37.655Z</time></trkpt><trkpt lat="43.4398717" lon="11.3500017"><ele>376.0</ele><time>2026-04-19T08:53:38.657Z</time></trkpt><trkpt lat="43.439735" lon="11.349925"><ele>376.3333333333333</ele><time>2026-04-19T08:53:39.646Z</time></trkpt><trkpt lat="43.4395567" lon="11.34988"><ele>376.6666666666667</ele><time>2026-04-19T08:53:40.647Z</time></trkpt><trkpt lat="43.4393667" lon="11.3498467"><ele>377.0</ele><time>2026-04-19T08:53:41.651Z</time></trkpt><trkpt lat="43.43919" lon="11.3498033"><ele>377.0</ele><time>2026-04-19T08:53:42.649Z</time></trkpt><trkpt lat="43.4390117" lon="11.34978"><ele>377.0</ele><time>2026-04-19T08:53:43.652Z</time></trkpt><trkpt lat="43.43884" lon="11.34977"><ele>377.0</ele><time>2026-04-19T08:53:44.651Z</time></trkpt><trkpt lat="43.438695" lon="11.3497283"><ele>379.33333333333337</ele><time>2026-04-19T08:53:45.657Z</time></trkpt><trkpt lat="43.43855" lon="11.3496667"><ele>381.6666666666667</ele><time>2026-04-19T08:53:46.651Z</time></trkpt><trkpt lat="43.43841" lon="11.3495883"><ele>384.0</ele><time>2026-04-19T08:53:47.646Z</time></trkpt><trkpt lat="43.4382767" lon="11.34949"><ele>384.0</ele><time>2026-04-19T08:53:48.651Z</time></trkpt><trkpt lat="43.4381583" lon="11.3493583"><ele>384.0</ele><time>2026-04-19T08:53:49.648Z</time></trkpt><trkpt lat="43.43805" lon="11.3492033"><ele>384.0</ele><time>2026-04-19T08:53:50.648Z</time></trkpt><trkpt lat="43.4379483" lon="11.3490383"><ele>381.6666666666667</ele><time>2026-04-19T08:53:51.659Z</time></trkpt><trkpt lat="43.43788" lon="11.34882"><ele>379.33333333333337</ele><time>2026-04-19T08:53:52.651Z</time></trkpt><trkpt lat="43.4378067" lon="11.3486317"><ele>377.0</ele><time>2026-04-19T08:53:53.647Z</time></trkpt><trkpt lat="43.43773" lon="11.348465"><ele>377.0</ele><time>2026-04-19T08:53:54.653Z</time></trkpt><trkpt lat="43.4376417" lon="11.3483233"><ele>377.0</ele><time>2026-04-19T08:53:55.652Z</time></trkpt><trkpt lat="43.4375617" lon="11.3482317"><ele>377.0</ele><time>2026-04-19T08:53:56.658Z</time></trkpt><trkpt lat="43.43747" lon="11.34817"><ele>377.0</ele><time>2026-04-19T08:53:57.645Z</time></trkpt><trkpt lat="43.4373733" lon="11.3482033"><ele>377.0</ele><time>2026-04-19T08:53:58.653Z</time></trkpt><trkpt lat="43.4372867" lon="11.3483183"><ele>377.0</ele><time>2026-04-19T08:53:59.649Z</time></trkpt><trkpt lat="43.437215" lon="11.3484983"><ele>377.0</ele><time>2026-04-19T08:54:00.651Z</time></trkpt><trkpt lat="43.4371633" lon="11.3486833"><ele>377.0</ele><time>2026-04-19T08:54:01.647Z</time></trkpt><trkpt lat="43.4371433" lon="11.3488667"><ele>377.0</ele><time>2026-04-19T08:54:02.651Z</time></trkpt><trkpt lat="43.4371033" lon="11.3490267"><ele>376.20000000000005</ele><time>2026-04-19T08:54:03.654Z</time></trkpt><trkpt lat="43.4370467" lon="11.3491717"><ele>375.4</ele><time>2026-04-19T08:54:04.652Z</time></trkpt><trkpt lat="43.4369867" lon="11.3492833"><ele>374.6</ele><time>2026-04-19T08:54:05.65Z</time></trkpt><trkpt lat="43.4369117" lon="11.3493683"><ele>373.79999999999995</ele><time>2026-04-19T08:54:06.65Z</time></trkpt><trkpt lat="43.436825" lon="11.3494117"><ele>373.0</ele><time>2026-04-19T08:54:07.652Z</time></trkpt><trkpt lat="43.4367467" lon="11.34943"><ele>373.0</ele><time>2026-04-19T08:54:08.653Z</time></trkpt><trkpt lat="43.436655" lon="11.3494083"><ele>373.0</ele><time>2026-04-19T08:54:09.651Z</time></trkpt><trkpt lat="43.4365717" lon="11.3493333"><ele>373.0</ele><time>2026-04-19T08:54:10.651Z</time></trkpt><trkpt lat="43.43645" lon="11.34922"><ele>373.0</ele><time>2026-04-19T08:54:11.647Z</time></trkpt><trkpt lat="43.4363183" lon="11.3491"><ele>372.25</ele><time>2026-04-19T08:54:12.649Z</time></trkpt><trkpt lat="43.4361933" lon="11.348995"><ele>371.5</ele><time>2026-04-19T08:54:13.651Z</time></trkpt><trkpt lat="43.4360717" lon="11.3489083"><ele>370.75</ele><time>2026-04-19T08:54:14.645Z</time></trkpt><trkpt lat="43.4359517" lon="11.3488467"><ele>370.0</ele><time>2026-04-19T08:54:15.649Z</time></trkpt><trkpt lat="43.4358333" lon="11.3488183"><ele>372.6</ele><time>2026-04-19T08:54:16.653Z</time></trkpt><trkpt lat="43.4357117" lon="11.3487783"><ele>375.2</ele><time>2026-04-19T08:54:17.645Z</time></trkpt><trkpt lat="43.4355967" lon="11.34878"><ele>377.79999999999995</ele><time>2026-04-19T08:54:18.647Z</time></trkpt><trkpt lat="43.435505" lon="11.3487883"><ele>380.4</ele><time>2026-04-19T08:54:19.647Z</time></trkpt><trkpt lat="43.4354267" lon="11.34881"><ele>383.0</ele><time>2026-04-19T08:54:20.658Z</time></trkpt><trkpt lat="43.43535" lon="11.3488283"><ele>383.1666666666667</ele><time>2026-04-19T08:54:21.653Z</time></trkpt><trkpt lat="43.4352767" lon="11.348835"><ele>383.33333333333337</ele><time>2026-04-19T08:54:22.652Z</time></trkpt><trkpt lat="43.4351833" lon="11.3488317"><ele>383.5</ele><time>2026-04-19T08:54:23.65Z</time></trkpt><trkpt lat="43.4350917" lon="11.3488083"><ele>383.6666666666667</ele><time>2026-04-19T08:54:24.658Z</time></trkpt><trkpt lat="43.4350067" lon="11.3487717"><ele>383.8333333333333</ele><time>2026-04-19T08:54:25.653Z</time></trkpt><trkpt lat="43.434925" lon="11.3487333"><ele>384.0</ele><time>2026-04-19T08:54:26.651Z</time></trkpt><trkpt lat="43.43484" lon="11.348715"><ele>384.0</ele><time>2026-04-19T08:54:27.652Z</time></trkpt><trkpt lat="43.4347567" lon="11.3487033"><ele>384.0</ele><time>2026-04-19T08:54:28.648Z</time></trkpt><trkpt lat="43.434675" lon="11.3486983"><ele>384.0</ele><time>2026-04-19T08:54:29.649Z</time></trkpt><trkpt lat="43.434605" lon="11.3487117"><ele>384.0</ele><time>2026-04-19T08:54:30.658Z</time></trkpt><trkpt lat="43.434545" lon="11.3487517"><ele>384.0</ele><time>2026-04-19T08:54:31.651Z</time></trkpt><trkpt lat="43.4344917" lon="11.34883"><ele>384.0</ele><time>2026-04-19T08:54:32.653Z</time></trkpt><trkpt lat="43.43445" lon="11.3489767"><ele>386.66666666666663</ele><time>2026-04-19T08:54:33.652Z</time></trkpt><trkpt lat="43.434425" lon="11.3491783"><ele>389.3333333333333</ele><time>2026-04-19T08:54:34.653Z</time></trkpt><trkpt lat="43.434375" lon="11.3493933"><ele>392.0</ele><time>2026-04-19T08:54:35.651Z</time></trkpt><trkpt lat="43.434315" lon="11.34959"><ele>388.66666666666663</ele><time>2026-04-19T08:54:36.657Z</time></trkpt><trkpt lat="43.43424" lon="11.3497817"><ele>385.3333333333333</ele><time>2026-04-19T08:54:37.646Z</time></trkpt><trkpt lat="43.434145" lon="11.3499567"><ele>382.0</ele><time>2026-04-19T08:54:38.65Z</time></trkpt><trkpt lat="43.43404" lon="11.35012"><ele>382.0</ele><time>2026-04-19T08:54:39.646Z</time></trkpt><trkpt lat="43.433905" lon="11.3502967"><ele>382.0</ele><time>2026-04-19T08:54:40.647Z</time></trkpt><trkpt lat="43.4337417" lon="11.350505"><ele>382.0</ele><time>2026-04-19T08:54:41.652Z</time></trkpt><trkpt lat="43.4335783" lon="11.350695"><ele>381.66666666666663</ele><time>2026-04-19T08:54:42.649Z</time></trkpt><trkpt lat="43.4334183" lon="11.3508667"><ele>381.3333333333333</ele><time>2026-04-19T08:54:43.66Z</time></trkpt><trkpt lat="43.433245" lon="11.3510417"><ele>381.0</ele><time>2026-04-19T08:54:44.647Z</time></trkpt><trkpt lat="43.4330617" lon="11.3512133"><ele>384.0</ele><time>2026-04-19T08:54:45.65Z</time></trkpt><trkpt lat="43.4328967" lon="11.3513633"><ele>387.0</ele><time>2026-04-19T08:54:46.655Z</time></trkpt><trkpt lat="43.43273" lon="11.3514983"><ele>390.0</ele><time>2026-04-19T08:54:47.646Z</time></trkpt><trkpt lat="43.4325683" lon="11.3516067"><ele>390.0</ele><time>2026-04-19T08:54:48.653Z</time></trkpt><trkpt lat="43.43241" lon="11.3516633"><ele>390.0</ele><time>2026-04-19T08:54:49.655Z</time></trkpt><trkpt lat="43.4322633" lon="11.3516917"><ele>390.0</ele><time>2026-04-19T08:54:50.652Z</time></trkpt><trkpt lat="43.432115" lon="11.3516683"><ele>392.25</ele><time>2026-04-19T08:54:51.651Z</time></trkpt><trkpt lat="43.4319717" lon="11.3516467"><ele>394.5</ele><time>2026-04-19T08:54:52.655Z</time></trkpt><trkpt lat="43.43186" lon="11.3515867"><ele>396.75</ele><time>2026-04-19T08:54:53.649Z</time></trkpt><trkpt lat="43.4317417" lon="11.351515"><ele>399.0</ele><time>2026-04-19T08:54:54.651Z</time></trkpt><trkpt lat="43.4316233" lon="11.3514483"><ele>398.25</ele><time>2026-04-19T08:54:55.651Z</time></trkpt><trkpt lat="43.4315117" lon="11.3513417"><ele>397.5</ele><time>2026-04-19T08:54:56.652Z</time></trkpt><trkpt lat="43.4314383" lon="11.3512167"><ele>396.75</ele><time>2026-04-19T08:54:57.646Z</time></trkpt><trkpt lat="43.4313883" lon="11.3510783"><ele>396.0</ele><time>2026-04-19T08:54:58.648Z</time></trkpt><trkpt lat="43.4313533" lon="11.3509567"><ele>393.20000000000005</ele><time>2026-04-19T08:54:59.649Z</time></trkpt><trkpt lat="43.4312933" lon="11.3508617"><ele>390.40000000000003</ele><time>2026-04-19T08:55:00.659Z</time></trkpt><trkpt lat="43.4312267" lon="11.3508033"><ele>387.6</ele><time>2026-04-19T08:55:01.646Z</time></trkpt><trkpt lat="43.4311533" lon="11.3507683"><ele>384.8</ele><time>2026-04-19T08:55:02.65Z</time></trkpt><trkpt lat="43.431065" lon="11.350775"><ele>382.0</ele><time>2026-04-19T08:55:03.652Z</time></trkpt><trkpt lat="43.4309517" lon="11.3508067"><ele>382.0</ele><time>2026-04-19T08:55:04.654Z</time></trkpt><trkpt lat="43.4308083" lon="11.3508467"><ele>382.0</ele><time>2026-04-19T08:55:05.649Z</time></trkpt><trkpt lat="43.4306533" lon="11.3508683"><ele>382.0</ele><time>2026-04-19T08:55:06.651Z</time></trkpt><trkpt lat="43.4304933" lon="11.3508683"><ele>381.0</ele><time>2026-04-19T08:55:07.655Z</time></trkpt><trkpt lat="43.4303117" lon="11.3508633"><ele>380.0</ele><time>2026-04-19T08:55:08.648Z</time></trkpt><trkpt lat="43.4301383" lon="11.3508667"><ele>379.0</ele><time>2026-04-19T08:55:09.65Z</time></trkpt><trkpt lat="43.429985" lon="11.3508767"><ele>379.0</ele><time>2026-04-19T08:55:10.647Z</time></trkpt><trkpt lat="43.42983" lon="11.3508867"><ele>379.0</ele><time>2026-04-19T08:55:11.658Z</time></trkpt><trkpt lat="43.4296817" lon="11.350885"><ele>379.0</ele><time>2026-04-19T08:55:12.653Z</time></trkpt><trkpt lat="43.429525" lon="11.350845"><ele>378.5</ele><time>2026-04-19T08:55:13.655Z</time></trkpt><trkpt lat="43.4293767" lon="11.3507733"><ele>378.0</ele><time>2026-04-19T08:55:14.653Z</time></trkpt><trkpt lat="43.429245" lon="11.3506917"><ele>377.5</ele><time>2026-04-19T08:55:15.649Z</time></trkpt><trkpt lat="43.4291283" lon="11.350605"><ele>377.0</ele><time>2026-04-19T08:55:16.647Z</time></trkpt><trkpt lat="43.4290183" lon="11.350525"><ele>377.0</ele><time>2026-04-19T08:55:17.645Z</time></trkpt><trkpt lat="43.4289217" lon="11.35045"><ele>377.0</ele><time>2026-04-19T08:55:18.654Z</time></trkpt><trkpt lat="43.4288283" lon="11.3503717"><ele>377.0</ele><time>2026-04-19T08:55:19.652Z</time></trkpt><trkpt lat="43.4287333" lon="11.3502933"><ele>377.0</ele><time>2026-04-19T08:55:20.648Z</time></trkpt><trkpt lat="43.428635" lon="11.3502167"><ele>377.0</ele><time>2026-04-19T08:55:21.651Z</time></trkpt><trkpt lat="43.4285383" lon="11.3501467"><ele>377.0</ele><time>2026-04-19T08:55:22.653Z</time></trkpt><trkpt lat="43.4284367" lon="11.3500817"><ele>377.0</ele><time>2026-04-19T08:55:23.655Z</time></trkpt><trkpt lat="43.42834" lon="11.35004"><ele>377.0</ele><time>2026-04-19T08:55:24.656Z</time></trkpt><trkpt lat="43.4282383" lon="11.3500183"><ele>377.0</ele><time>2026-04-19T08:55:25.651Z</time></trkpt><trkpt lat="43.428135" lon="11.3500083"><ele>377.0</ele><time>2026-04-19T08:55:26.65Z</time></trkpt><trkpt lat="43.428035" lon="11.3500183"><ele>377.25</ele><time>2026-04-19T08:55:27.653Z</time></trkpt><trkpt lat="43.4279183" lon="11.3500517"><ele>377.5</ele><time>2026-04-19T08:55:28.647Z</time></trkpt><trkpt lat="43.4277833" lon="11.3501117"><ele>377.75</ele><time>2026-04-19T08:55:29.653Z</time></trkpt><trkpt lat="43.4276383" lon="11.3501817"><ele>378.0</ele><time>2026-04-19T08:55:30.649Z</time></trkpt><trkpt lat="43.4274817" lon="11.3502517"><ele>378.0</ele><time>2026-04-19T08:55:31.651Z</time></trkpt><trkpt lat="43.4273217" lon="11.350315"><ele>378.0</ele><time>2026-04-19T08:55:32.651Z</time></trkpt><trkpt lat="43.4271783" lon="11.3503767"><ele>378.0</ele><time>2026-04-19T08:55:33.648Z</time></trkpt><trkpt lat="43.4270517" lon="11.3504267"><ele>378.0</ele><time>2026-04-19T08:55:34.671Z</time></trkpt><trkpt lat="43.4269433" lon="11.350485"><ele>382.0</ele><time>2026-04-19T08:55:35.658Z</time></trkpt><trkpt lat="43.4268467" lon="11.350555"><ele>386.0</ele><time>2026-04-19T08:55:36.651Z</time></trkpt><trkpt lat="43.4267533" lon="11.350645"><ele>390.0</ele><time>2026-04-19T08:55:37.651Z</time></trkpt><trkpt lat="43.426665" lon="11.350755"><ele>394.0</ele><time>2026-04-19T08:55:38.649Z</time></trkpt><trkpt lat="43.4266083" lon="11.3509233"><ele>394.0</ele><time>2026-04-19T08:55:39.65Z</time></trkpt><trkpt lat="43.4265467" lon="11.3511333"><ele>394.0</ele><time>2026-04-19T08:55:40.665Z</time></trkpt><trkpt lat="43.4264717" lon="11.3513283"><ele>394.0</ele><time>2026-04-19T08:55:41.651Z</time></trkpt><trkpt lat="43.4264" lon="11.3514983"><ele>398.0</ele><time>2026-04-19T08:55:42.652Z</time></trkpt><trkpt lat="43.4262983" lon="11.3516667"><ele>402.0</ele><time>2026-04-19T08:55:43.653Z</time></trkpt><trkpt lat="43.4261933" lon="11.351825"><ele>406.0</ele><time>2026-04-19T08:55:44.653Z</time></trkpt><trkpt lat="43.426095" lon="11.3519633"><ele>406.0</ele><time>2026-04-19T08:55:45.649Z</time></trkpt><trkpt lat="43.4259983" lon="11.3520817"><ele>406.0</ele><time>2026-04-19T08:55:46.651Z</time></trkpt><trkpt lat="43.4259033" lon="11.3522117"><ele>406.0</ele><time>2026-04-19T08:55:47.646Z</time></trkpt><trkpt lat="43.4257983" lon="11.3523633"><ele>406.0</ele><time>2026-04-19T08:55:48.663Z</time></trkpt><trkpt lat="43.4257217" lon="11.3525033"><ele>404.75</ele><time>2026-04-19T08:55:49.648Z</time></trkpt><trkpt lat="43.425655" lon="11.35266"><ele>403.5</ele><time>2026-04-19T08:55:50.658Z</time></trkpt><trkpt lat="43.4256067" lon="11.3528433"><ele>402.25</ele><time>2026-04-19T08:55:51.652Z</time></trkpt><trkpt lat="43.42559" lon="11.3530367"><ele>401.0</ele><time>2026-04-19T08:55:52.65Z</time></trkpt><trkpt lat="43.4255583" lon="11.3532183"><ele>400.5</ele><time>2026-04-19T08:55:53.651Z</time></trkpt><trkpt lat="43.4255517" lon="11.353395"><ele>400.0</ele><time>2026-04-19T08:55:54.648Z</time></trkpt><trkpt lat="43.425535" lon="11.353555"><ele>399.5</ele><time>2026-04-19T08:55:55.653Z</time></trkpt><trkpt lat="43.4255517" lon="11.35371"><ele>399.0</ele><time>2026-04-19T08:55:56.652Z</time></trkpt><trkpt lat="43.4255333" lon="11.3538633"><ele>400.6</ele><time>2026-04-19T08:55:57.646Z</time></trkpt><trkpt lat="43.425525" lon="11.354015"><ele>402.2</ele><time>2026-04-19T08:55:58.656Z</time></trkpt><trkpt lat="43.4254983" lon="11.3541633"><ele>403.8</ele><time>2026-04-19T08:55:59.657Z</time></trkpt><trkpt lat="43.42546" lon="11.35432"><ele>405.40000000000003</ele><time>2026-04-19T08:56:00.652Z</time></trkpt><trkpt lat="43.4254183" lon="11.354455"><ele>407.0</ele><time>2026-04-19T08:56:01.651Z</time></trkpt><trkpt lat="43.4253667" lon="11.3545817"><ele>410.40000000000003</ele><time>2026-04-19T08:56:02.645Z</time></trkpt><trkpt lat="43.4252983" lon="11.3547183"><ele>413.8</ele><time>2026-04-19T08:56:03.651Z</time></trkpt><trkpt lat="43.425225" lon="11.35478"><ele>417.2</ele><time>2026-04-19T08:56:04.654Z</time></trkpt><trkpt lat="43.4251333" lon="11.3548183"><ele>420.6</ele><time>2026-04-19T08:56:05.655Z</time></trkpt><trkpt lat="43.4250317" lon="11.3548417"><ele>424.0</ele><time>2026-04-19T08:56:06.645Z</time></trkpt><trkpt lat="43.424985" lon="11.3549317"><ele>424.0</ele><time>2026-04-19T08:56:07.653Z</time></trkpt><trkpt lat="43.4248767" lon="11.3550133"><ele>424.0</ele><time>2026-04-19T08:56:09.651Z</time></trkpt><trkpt lat="43.4248183" lon="11.3550467"><ele>424.0</ele><time>2026-04-19T08:56:10.647Z</time></trkpt><trkpt lat="43.4246767" lon="11.3550283"><ele>424.0</ele><time>2026-04-19T08:56:12.652Z</time></trkpt><trkpt lat="43.4246067" lon="11.354995"><ele>424.0</ele><time>2026-04-19T08:56:13.65Z</time></trkpt><trkpt lat="43.4245167" lon="11.3549517"><ele>423.0</ele><time>2026-04-19T08:56:14.65Z</time></trkpt><trkpt lat="43.4244333" lon="11.354905"><ele>422.0</ele><time>2026-04-19T08:56:15.649Z</time></trkpt><trkpt lat="43.4243417" lon="11.3548467"><ele>421.0</ele><time>2026-04-19T08:56:16.658Z</time></trkpt><trkpt lat="43.424255" lon="11.3547933"><ele>420.0</ele><time>2026-04-19T08:56:17.65Z</time></trkpt><trkpt lat="43.42417" lon="11.3547383"><ele>419.0</ele><time>2026-04-19T08:56:18.649Z</time></trkpt><trkpt lat="43.4240867" lon="11.3546733"><ele>419.79999999999995</ele><time>2026-04-19T08:56:19.652Z</time></trkpt><trkpt lat="43.4240067" lon="11.3545833"><ele>420.59999999999997</ele><time>2026-04-19T08:56:20.652Z</time></trkpt><trkpt lat="43.4239233" lon="11.35449"><ele>421.4</ele><time>2026-04-19T08:56:21.649Z</time></trkpt><trkpt lat="43.4238417" lon="11.3543917"><ele>422.2</ele><time>2026-04-19T08:56:22.652Z</time></trkpt><trkpt lat="43.4237767" lon="11.354285"><ele>423.0</ele><time>2026-04-19T08:56:23.653Z</time></trkpt><trkpt lat="43.4237167" lon="11.3542017"><ele>423.0</ele><time>2026-04-19T08:56:24.648Z</time></trkpt><trkpt lat="43.4236817" lon="11.3541033"><ele>423.0</ele><time>2026-04-19T08:56:25.652Z</time></trkpt><trkpt lat="43.4236583" lon="11.3540017"><ele>423.0</ele><time>2026-04-19T08:56:26.653Z</time></trkpt><trkpt lat="43.42365" lon="11.35388"><ele>423.0</ele><time>2026-04-19T08:56:27.649Z</time></trkpt><trkpt lat="43.4236683" lon="11.35374"><ele>423.0</ele><time>2026-04-19T08:56:28.65Z</time></trkpt><trkpt lat="43.4236783" lon="11.3535967"><ele>425.0</ele><time>2026-04-19T08:56:29.657Z</time></trkpt><trkpt lat="43.42368" lon="11.35345"><ele>427.0</ele><time>2026-04-19T08:56:30.654Z</time></trkpt><trkpt lat="43.42368" lon="11.3533033"><ele>428.99999999999994</ele><time>2026-04-19T08:56:31.646Z</time></trkpt><trkpt lat="43.4236883" lon="11.35315"><ele>431.0</ele><time>2026-04-19T08:56:32.649Z</time></trkpt><trkpt lat="43.423695" lon="11.3529967"><ele>433.0</ele><time>2026-04-19T08:56:33.648Z</time></trkpt><trkpt lat="43.4236917" lon="11.3528433"><ele>435.5</ele><time>2026-04-19T08:56:34.652Z</time></trkpt><trkpt lat="43.42369" lon="11.352685"><ele>438.0</ele><time>2026-04-19T08:56:35.653Z</time></trkpt><trkpt lat="43.423685" lon="11.3525233"><ele>440.5</ele><time>2026-04-19T08:56:36.654Z</time></trkpt><trkpt lat="43.4236767" lon="11.35237"><ele>443.0</ele><time>2026-04-19T08:56:37.647Z</time></trkpt><trkpt lat="43.4236733" lon="11.3522217"><ele>444.25</ele><time>2026-04-19T08:56:38.652Z</time></trkpt><trkpt lat="43.4236933" lon="11.35207"><ele>445.5</ele><time>2026-04-19T08:56:39.652Z</time></trkpt><trkpt lat="43.4237383" lon="11.3519183"><ele>446.75</ele><time>2026-04-19T08:56:40.658Z</time></trkpt><trkpt lat="43.4237817" lon="11.3517483"><ele>448.0</ele><time>2026-04-19T08:56:41.649Z</time></trkpt><trkpt lat="43.4238167" lon="11.3515767"><ele>449.0</ele><time>2026-04-19T08:56:42.653Z</time></trkpt><trkpt lat="43.4238517" lon="11.351395"><ele>450.0</ele><time>2026-04-19T08:56:43.651Z</time></trkpt><trkpt lat="43.4238817" lon="11.351205"><ele>451.0</ele><time>2026-04-19T08:56:44.654Z</time></trkpt><trkpt lat="43.4239083" lon="11.35101"><ele>452.0</ele><time>2026-04-19T08:56:45.648Z</time></trkpt><trkpt lat="43.4239283" lon="11.3508333"><ele>452.20000000000005</ele><time>2026-04-19T08:56:46.648Z</time></trkpt><trkpt lat="43.4239467" lon="11.3506683"><ele>452.40000000000003</ele><time>2026-04-19T08:56:47.654Z</time></trkpt><trkpt lat="43.4239617" lon="11.3505167"><ele>452.59999999999997</ele><time>2026-04-19T08:56:48.651Z</time></trkpt><trkpt lat="43.42397" lon="11.350385"><ele>452.79999999999995</ele><time>2026-04-19T08:56:49.65Z</time></trkpt><trkpt lat="43.423975" lon="11.350265"><ele>453.0</ele><time>2026-04-19T08:56:50.651Z</time></trkpt><trkpt lat="43.42396" lon="11.3501583"><ele>454.8333333333333</ele><time>2026-04-19T08:56:51.656Z</time></trkpt><trkpt lat="43.4238533" lon="11.35008"><ele>456.66666666666663</ele><time>2026-04-19T08:56:53.654Z</time></trkpt><trkpt lat="43.42379" lon="11.3500767"><ele>458.5</ele><time>2026-04-19T08:56:54.654Z</time></trkpt><trkpt lat="43.4237133" lon="11.3501133"><ele>460.3333333333333</ele><time>2026-04-19T08:56:55.656Z</time></trkpt><trkpt lat="43.423645" lon="11.3501417"><ele>462.16666666666663</ele><time>2026-04-19T08:56:56.649Z</time></trkpt><trkpt lat="43.4235783" lon="11.350175"><ele>464.0</ele><time>2026-04-19T08:56:57.649Z</time></trkpt><trkpt lat="43.4235067" lon="11.3502117"><ele>463.3333333333333</ele><time>2026-04-19T08:56:58.648Z</time></trkpt><trkpt lat="43.42344" lon="11.3502533"><ele>462.66666666666663</ele><time>2026-04-19T08:56:59.651Z</time></trkpt><trkpt lat="43.4233767" lon="11.3503167"><ele>462.0</ele><time>2026-04-19T08:57:00.65Z</time></trkpt><trkpt lat="43.4233" lon="11.3503883"><ele>461.33333333333337</ele><time>2026-04-19T08:57:01.652Z</time></trkpt><trkpt lat="43.423225" lon="11.3504583"><ele>460.6666666666667</ele><time>2026-04-19T08:57:02.653Z</time></trkpt><trkpt lat="43.4231483" lon="11.3505117"><ele>460.0</ele><time>2026-04-19T08:57:03.657Z</time></trkpt><trkpt lat="43.4230717" lon="11.3505683"><ele>460.00000000000006</ele><time>2026-04-19T08:57:04.653Z</time></trkpt><trkpt lat="43.4230067" lon="11.3506117"><ele>460.0</ele><time>2026-04-19T08:57:05.65Z</time></trkpt><trkpt lat="43.4229467" lon="11.3506433"><ele>460.0</ele><time>2026-04-19T08:57:06.653Z</time></trkpt><trkpt lat="43.422865" lon="11.35061"><ele>460.0</ele><time>2026-04-19T08:57:08.65Z</time></trkpt><trkpt lat="43.4228217" lon="11.3505133"><ele>460.00000000000006</ele><time>2026-04-19T08:57:10.664Z</time></trkpt><trkpt lat="43.4227567" lon="11.3503933"><ele>460.0</ele><time>2026-04-19T08:57:12.654Z</time></trkpt><trkpt lat="43.42264" lon="11.350295"><ele>466.0</ele><time>2026-04-19T08:57:14.655Z</time></trkpt><trkpt lat="43.4225717" lon="11.3502333"><ele>472.0</ele><time>2026-04-19T08:57:15.653Z</time></trkpt><trkpt lat="43.422465" lon="11.3501433"><ele>478.0</ele><time>2026-04-19T08:57:16.655Z</time></trkpt><trkpt lat="43.4223517" lon="11.35003"><ele>484.0</ele><time>2026-04-19T08:57:17.646Z</time></trkpt><trkpt lat="43.4222383" lon="11.3499183"><ele>483.33333333333337</ele><time>2026-04-19T08:57:18.648Z</time></trkpt><trkpt lat="43.4220733" lon="11.34971"><ele>482.66666666666663</ele><time>2026-04-19T08:57:19.652Z</time></trkpt><trkpt lat="43.4219533" lon="11.3496067"><ele>482.0</ele><time>2026-04-19T08:57:20.655Z</time></trkpt><trkpt lat="43.4218133" lon="11.3495083"><ele>486.0</ele><time>2026-04-19T08:57:21.649Z</time></trkpt><trkpt lat="43.4216883" lon="11.349455"><ele>490.0</ele><time>2026-04-19T08:57:22.647Z</time></trkpt><trkpt lat="43.42149" lon="11.3493683"><ele>494.0</ele><time>2026-04-19T08:57:23.652Z</time></trkpt><trkpt lat="43.4214083" lon="11.3493"><ele>498.0</ele><time>2026-04-19T08:57:24.653Z</time></trkpt><trkpt lat="43.4213317" lon="11.3492383"><ele>495.75</ele><time>2026-04-19T08:57:25.657Z</time></trkpt><trkpt lat="43.4212633" lon="11.3491533"><ele>493.5</ele><time>2026-04-19T08:57:26.647Z</time></trkpt><trkpt lat="43.421205" lon="11.3490283"><ele>491.25</ele><time>2026-04-19T08:57:27.659Z</time></trkpt><trkpt lat="43.4211867" lon="11.3488817"><ele>489.0</ele><time>2026-04-19T08:57:28.647Z</time></trkpt><trkpt lat="43.42119" lon="11.34868"><ele>489.0</ele><time>2026-04-19T08:57:29.65Z</time></trkpt><trkpt lat="43.4212067" lon="11.3484733"><ele>489.0</ele><time>2026-04-19T08:57:30.651Z</time></trkpt><trkpt lat="43.421255" lon="11.3482433"><ele>489.0</ele><time>2026-04-19T08:57:31.651Z</time></trkpt><trkpt lat="43.4212983" lon="11.34803"><ele>491.4</ele><time>2026-04-19T08:57:32.65Z</time></trkpt><trkpt lat="43.4213367" lon="11.3478517"><ele>493.79999999999995</ele><time>2026-04-19T08:57:33.653Z</time></trkpt><trkpt lat="43.421355" lon="11.34771"><ele>496.20000000000005</ele><time>2026-04-19T08:57:34.656Z</time></trkpt><trkpt lat="43.4213617" lon="11.3475783"><ele>498.6</ele><time>2026-04-19T08:57:35.649Z</time></trkpt><trkpt lat="43.421355" lon="11.34745"><ele>501.0</ele><time>2026-04-19T08:57:36.654Z</time></trkpt><trkpt lat="43.4213267" lon="11.34734"><ele>501.0</ele><time>2026-04-19T08:57:37.65Z</time></trkpt><trkpt lat="43.4212817" lon="11.3472467"><ele>501.0</ele><time>2026-04-19T08:57:38.651Z</time></trkpt><trkpt lat="43.4212183" lon="11.347175"><ele>501.0</ele><time>2026-04-19T08:57:39.653Z</time></trkpt><trkpt lat="43.42111" lon="11.347165"><ele>501.0</ele><time>2026-04-19T08:57:40.651Z</time></trkpt><trkpt lat="43.4210083" lon="11.347145"><ele>501.0</ele><time>2026-04-19T08:57:41.654Z</time></trkpt><trkpt lat="43.42088" lon="11.3471417"><ele>502.5</ele><time>2026-04-19T08:57:42.652Z</time></trkpt><trkpt lat="43.4207517" lon="11.3471433"><ele>504.0</ele><time>2026-04-19T08:57:43.655Z</time></trkpt><trkpt lat="43.4206583" lon="11.3471117"><ele>505.5</ele><time>2026-04-19T08:57:44.655Z</time></trkpt><trkpt lat="43.42054" lon="11.3470733"><ele>507.0</ele><time>2026-04-19T08:57:45.656Z</time></trkpt><trkpt lat="43.4204217" lon="11.347015"><ele>507.0</ele><time>2026-04-19T08:57:46.646Z</time></trkpt><trkpt lat="43.42029" lon="11.34695"><ele>507.0</ele><time>2026-04-19T08:57:47.649Z</time></trkpt><trkpt lat="43.4201483" lon="11.3469083"><ele>507.0</ele><time>2026-04-19T08:57:48.652Z</time></trkpt><trkpt lat="43.4199983" lon="11.3469017"><ele>507.0</ele><time>2026-04-19T08:57:49.651Z</time></trkpt><trkpt lat="43.419855" lon="11.346905"><ele>507.0</ele><time>2026-04-19T08:57:50.662Z</time></trkpt><trkpt lat="43.41971" lon="11.3469083"><ele>507.0</ele><time>2026-04-19T08:57:51.652Z</time></trkpt><trkpt lat="43.4195633" lon="11.346895"><ele>507.0</ele><time>2026-04-19T08:57:52.653Z</time></trkpt><trkpt lat="43.4194167" lon="11.346855"><ele>507.0</ele><time>2026-04-19T08:57:53.652Z</time></trkpt><trkpt lat="43.4192733" lon="11.346795"><ele>505.5</ele><time>2026-04-19T08:57:54.652Z</time></trkpt><trkpt lat="43.4191317" lon="11.3467117"><ele>504.0</ele><time>2026-04-19T08:57:55.649Z</time></trkpt><trkpt lat="43.4190067" lon="11.3466117"><ele>502.5</ele><time>2026-04-19T08:57:56.65Z</time></trkpt><trkpt lat="43.41889" lon="11.3465333"><ele>501.0</ele><time>2026-04-19T08:57:57.653Z</time></trkpt><trkpt lat="43.41877" lon="11.3464783"><ele>500.5</ele><time>2026-04-19T08:57:58.651Z</time></trkpt><trkpt lat="43.4186383" lon="11.3464433"><ele>500.0</ele><time>2026-04-19T08:57:59.652Z</time></trkpt><trkpt lat="43.4185117" lon="11.3464233"><ele>499.5</ele><time>2026-04-19T08:58:00.653Z</time></trkpt><trkpt lat="43.4183783" lon="11.3464367"><ele>499.0</ele><time>2026-04-19T08:58:01.663Z</time></trkpt><trkpt lat="43.4182283" lon="11.346485"><ele>499.0</ele><time>2026-04-19T08:58:02.655Z</time></trkpt><trkpt lat="43.4180867" lon="11.34655"><ele>499.0</ele><time>2026-04-19T08:58:03.655Z</time></trkpt><trkpt lat="43.417935" lon="11.34663"><ele>499.0</ele><time>2026-04-19T08:58:04.655Z</time></trkpt><trkpt lat="43.4177783" lon="11.3467317"><ele>503.0</ele><time>2026-04-19T08:58:05.649Z</time></trkpt><trkpt lat="43.41763" lon="11.3468483"><ele>507.0</ele><time>2026-04-19T08:58:06.653Z</time></trkpt><trkpt lat="43.4174933" lon="11.346985"><ele>511.0</ele><time>2026-04-19T08:58:07.653Z</time></trkpt><trkpt lat="43.4173717" lon="11.3471233"><ele>511.0</ele><time>2026-04-19T08:58:08.649Z</time></trkpt><trkpt lat="43.417265" lon="11.34726"><ele>511.0</ele><time>2026-04-19T08:58:09.65Z</time></trkpt><trkpt lat="43.417175" lon="11.3474017"><ele>511.0</ele><time>2026-04-19T08:58:10.654Z</time></trkpt><trkpt lat="43.4171067" lon="11.3475533"><ele>511.0</ele><time>2026-04-19T08:58:11.654Z</time></trkpt><trkpt lat="43.4170633" lon="11.3477117"><ele>511.0</ele><time>2026-04-19T08:58:12.651Z</time></trkpt><trkpt lat="43.4170583" lon="11.3478917"><ele>511.0</ele><time>2026-04-19T08:58:13.652Z</time></trkpt><trkpt lat="43.4170883" lon="11.3480867"><ele>511.0</ele><time>2026-04-19T08:58:14.652Z</time></trkpt><trkpt lat="43.417125" lon="11.3482567"><ele>511.0</ele><time>2026-04-19T08:58:15.646Z</time></trkpt><trkpt lat="43.41715" lon="11.34842"><ele>509.8</ele><time>2026-04-19T08:58:16.65Z</time></trkpt><trkpt lat="43.4171533" lon="11.348555"><ele>508.6</ele><time>2026-04-19T08:58:17.653Z</time></trkpt><trkpt lat="43.4171333" lon="11.34868"><ele>507.4</ele><time>2026-04-19T08:58:18.652Z</time></trkpt><trkpt lat="43.4170767" lon="11.3487717"><ele>506.2</ele><time>2026-04-19T08:58:19.65Z</time></trkpt><trkpt lat="43.416985" lon="11.3488417"><ele>505.0</ele><time>2026-04-19T08:58:20.652Z</time></trkpt><trkpt lat="43.41685" lon="11.34887"><ele>502.0</ele><time>2026-04-19T08:58:21.654Z</time></trkpt><trkpt lat="43.4167067" lon="11.3488917"><ele>499.0</ele><time>2026-04-19T08:58:22.653Z</time></trkpt><trkpt lat="43.4165317" lon="11.3488833"><ele>496.0</ele><time>2026-04-19T08:58:23.65Z</time></trkpt><trkpt lat="43.4163583" lon="11.34889"><ele>494.0</ele><time>2026-04-19T08:58:24.653Z</time></trkpt><trkpt lat="43.4161883" lon="11.3489033"><ele>492.0</ele><time>2026-04-19T08:58:25.647Z</time></trkpt><trkpt lat="43.41603" lon="11.3489217"><ele>490.0</ele><time>2026-04-19T08:58:26.657Z</time></trkpt><trkpt lat="43.41587" lon="11.3489283"><ele>490.0</ele><time>2026-04-19T08:58:27.645Z</time></trkpt><trkpt lat="43.4157167" lon="11.348915"><ele>490.0</ele><time>2026-04-19T08:58:28.651Z</time></trkpt><trkpt lat="43.4155633" lon="11.34888"><ele>490.0</ele><time>2026-04-19T08:58:29.651Z</time></trkpt><trkpt lat="43.41542" lon="11.3488333"><ele>494.0</ele><time>2026-04-19T08:58:30.653Z</time></trkpt><trkpt lat="43.4152717" lon="11.348805"><ele>498.0</ele><time>2026-04-19T08:58:31.651Z</time></trkpt><trkpt lat="43.41512" lon="11.3487967"><ele>502.0</ele><time>2026-04-19T08:58:32.647Z</time></trkpt><trkpt lat="43.4149717" lon="11.3488167"><ele>501.25</ele><time>2026-04-19T08:58:33.649Z</time></trkpt><trkpt lat="43.41483" lon="11.3488767"><ele>500.5</ele><time>2026-04-19T08:58:34.653Z</time></trkpt><trkpt lat="43.4147117" lon="11.3489833"><ele>499.75</ele><time>2026-04-19T08:58:35.651Z</time></trkpt><trkpt lat="43.4146217" lon="11.3491183"><ele>499.0</ele><time>2026-04-19T08:58:36.647Z</time></trkpt><trkpt lat="43.41457" lon="11.3493067"><ele>499.0</ele><time>2026-04-19T08:58:37.649Z</time></trkpt><trkpt lat="43.41453" lon="11.3495283"><ele>499.0</ele><time>2026-04-19T08:58:38.651Z</time></trkpt><trkpt lat="43.4145317" lon="11.3497783"><ele>499.0</ele><time>2026-04-19T08:58:39.651Z</time></trkpt><trkpt lat="43.414535" lon="11.34999"><ele>497.75</ele><time>2026-04-19T08:58:40.656Z</time></trkpt><trkpt lat="43.414535" lon="11.3502083"><ele>496.5</ele><time>2026-04-19T08:58:41.655Z</time></trkpt><trkpt lat="43.41451" lon="11.3503683"><ele>495.25</ele><time>2026-04-19T08:58:42.656Z</time></trkpt><trkpt lat="43.4144867" lon="11.350505"><ele>494.0</ele><time>2026-04-19T08:58:43.647Z</time></trkpt><trkpt lat="43.4144517" lon="11.3506133"><ele>491.4</ele><time>2026-04-19T08:58:44.651Z</time></trkpt><trkpt lat="43.4143567" lon="11.3507233"><ele>488.79999999999995</ele><time>2026-04-19T08:58:46.648Z</time></trkpt><trkpt lat="43.4142983" lon="11.3507717"><ele>486.20000000000005</ele><time>2026-04-19T08:58:47.65Z</time></trkpt><trkpt lat="43.4142167" lon="11.3507617"><ele>483.6</ele><time>2026-04-19T08:58:48.65Z</time></trkpt><trkpt lat="43.41408" lon="11.3507067"><ele>481.0</ele><time>2026-04-19T08:58:49.655Z</time></trkpt><trkpt lat="43.4139767" lon="11.35073"><ele>481.0</ele><time>2026-04-19T08:58:50.652Z</time></trkpt><trkpt lat="43.413855" lon="11.35079"><ele>481.0</ele><time>2026-04-19T08:58:51.653Z</time></trkpt><trkpt lat="43.41373" lon="11.3508883"><ele>481.0</ele><time>2026-04-19T08:58:52.644Z</time></trkpt><trkpt lat="43.4135933" lon="11.3510067"><ele>481.0</ele><time>2026-04-19T08:58:53.652Z</time></trkpt><trkpt lat="43.4134183" lon="11.3511383"><ele>480.6666666666667</ele><time>2026-04-19T08:58:54.656Z</time></trkpt><trkpt lat="43.41328" lon="11.3512883"><ele>480.33333333333337</ele><time>2026-04-19T08:58:55.666Z</time></trkpt><trkpt lat="43.4131483" lon="11.3514383"><ele>480.0</ele><time>2026-04-19T08:58:56.652Z</time></trkpt><trkpt lat="43.4130233" lon="11.351595"><ele>477.33333333333337</ele><time>2026-04-19T08:58:57.65Z</time></trkpt><trkpt lat="43.4128817" lon="11.3517333"><ele>474.6666666666667</ele><time>2026-04-19T08:58:58.651Z</time></trkpt><trkpt lat="43.4127367" lon="11.3518283"><ele>472.0</ele><time>2026-04-19T08:58:59.647Z</time></trkpt><trkpt lat="43.4125617" lon="11.351885"><ele>472.0</ele><time>2026-04-19T08:59:00.658Z</time></trkpt><trkpt lat="43.4123667" lon="11.3519233"><ele>472.0</ele><time>2026-04-19T08:59:01.654Z</time></trkpt><trkpt lat="43.4121483" lon="11.351935"><ele>472.0</ele><time>2026-04-19T08:59:02.654Z</time></trkpt><trkpt lat="43.411925" lon="11.3519517"><ele>470.33333333333337</ele><time>2026-04-19T08:59:03.656Z</time></trkpt><trkpt lat="43.411735" lon="11.352"><ele>468.66666666666663</ele><time>2026-04-19T08:59:04.657Z</time></trkpt><trkpt lat="43.4115367" lon="11.3520417"><ele>467.0</ele><time>2026-04-19T08:59:05.647Z</time></trkpt><trkpt lat="43.4113417" lon="11.3520883"><ele>468.3333333333333</ele><time>2026-04-19T08:59:06.649Z</time></trkpt><trkpt lat="43.4111467" lon="11.3521383"><ele>469.66666666666663</ele><time>2026-04-19T08:59:07.65Z</time></trkpt><trkpt lat="43.4109567" lon="11.35218"><ele>471.0</ele><time>2026-04-19T08:59:08.65Z</time></trkpt><trkpt lat="43.4107783" lon="11.352225"><ele>470.33333333333337</ele><time>2026-04-19T08:59:09.653Z</time></trkpt><trkpt lat="43.4106183" lon="11.352265"><ele>469.6666666666667</ele><time>2026-04-19T08:59:10.65Z</time></trkpt><trkpt lat="43.41046" lon="11.3522983"><ele>469.0</ele><time>2026-04-19T08:59:11.654Z</time></trkpt><trkpt lat="43.4103133" lon="11.352325"><ele>469.00000000000006</ele><time>2026-04-19T08:59:12.645Z</time></trkpt><trkpt lat="43.4101967" lon="11.3523567"><ele>469.0</ele><time>2026-04-19T08:59:13.648Z</time></trkpt><trkpt lat="43.4101217" lon="11.3523733"><ele>469.0</ele><time>2026-04-19T08:59:14.655Z</time></trkpt><trkpt lat="43.4100633" lon="11.3524417"><ele>469.0</ele><time>2026-04-19T08:59:15.648Z</time></trkpt><trkpt lat="43.41001" lon="11.3525067"><ele>469.00000000000006</ele><time>2026-04-19T08:59:16.651Z</time></trkpt><trkpt lat="43.409945" lon="11.3525667"><ele>469.0</ele><time>2026-04-19T08:59:17.648Z</time></trkpt><trkpt lat="43.409885" lon="11.3526317"><ele>469.0</ele><time>2026-04-19T08:59:18.655Z</time></trkpt><trkpt lat="43.4098267" lon="11.3527133"><ele>469.0</ele><time>2026-04-19T08:59:19.652Z</time></trkpt><trkpt lat="43.40976" lon="11.3528233"><ele>469.0</ele><time>2026-04-19T08:59:20.654Z</time></trkpt><trkpt lat="43.4097183" lon="11.3529617"><ele>469.0</ele><time>2026-04-19T08:59:21.655Z</time></trkpt><trkpt lat="43.4096983" lon="11.3530933"><ele>469.0</ele><time>2026-04-19T08:59:22.656Z</time></trkpt><trkpt lat="43.409675" lon="11.3532117"><ele>468.79999999999995</ele><time>2026-04-19T08:59:23.656Z</time></trkpt><trkpt lat="43.40964" lon="11.3533083"><ele>468.59999999999997</ele><time>2026-04-19T08:59:24.655Z</time></trkpt><trkpt lat="43.4096" lon="11.3534017"><ele>468.4</ele><time>2026-04-19T08:59:25.653Z</time></trkpt><trkpt lat="43.4095417" lon="11.3534483"><ele>468.2</ele><time>2026-04-19T08:59:26.65Z</time></trkpt><trkpt lat="43.4094167" lon="11.3534283"><ele>468.0</ele><time>2026-04-19T08:59:28.651Z</time></trkpt><trkpt lat="43.40932" lon="11.3533883"><ele>468.0</ele><time>2026-04-19T08:59:29.651Z</time></trkpt><trkpt lat="43.409185" lon="11.353365"><ele>468.0</ele><time>2026-04-19T08:59:30.651Z</time></trkpt><trkpt lat="43.4090683" lon="11.3533633"><ele>468.0</ele><time>2026-04-19T08:59:31.656Z</time></trkpt><trkpt lat="43.408955" lon="11.3533817"><ele>468.0</ele><time>2026-04-19T08:59:32.646Z</time></trkpt><trkpt lat="43.408845" lon="11.3533917"><ele>468.79999999999995</ele><time>2026-04-19T08:59:33.647Z</time></trkpt><trkpt lat="43.408775" lon="11.3534417"><ele>469.59999999999997</ele><time>2026-04-19T08:59:34.647Z</time></trkpt><trkpt lat="43.4087083" lon="11.3535217"><ele>470.40000000000003</ele><time>2026-04-19T08:59:35.648Z</time></trkpt><trkpt lat="43.4086617" lon="11.3536267"><ele>471.20000000000005</ele><time>2026-04-19T08:59:36.652Z</time></trkpt><trkpt lat="43.408625" lon="11.3537633"><ele>472.0</ele><time>2026-04-19T08:59:37.647Z</time></trkpt><trkpt lat="43.4085833" lon="11.35391"><ele>472.00000000000006</ele><time>2026-04-19T08:59:38.652Z</time></trkpt><trkpt lat="43.4085317" lon="11.3540217"><ele>472.0</ele><time>2026-04-19T08:59:39.655Z</time></trkpt><trkpt lat="43.408475" lon="11.3541133"><ele>472.0</ele><time>2026-04-19T08:59:40.654Z</time></trkpt><trkpt lat="43.40841" lon="11.354185"><ele>472.0</ele><time>2026-04-19T08:59:41.654Z</time></trkpt><trkpt lat="43.4083283" lon="11.3542233"><ele>472.00000000000006</ele><time>2026-04-19T08:59:42.646Z</time></trkpt><trkpt lat="43.4082517" lon="11.3542233"><ele>472.0</ele><time>2026-04-19T08:59:43.647Z</time></trkpt><trkpt lat="43.4081733" lon="11.3541983"><ele>472.0</ele><time>2026-04-19T08:59:44.647Z</time></trkpt><trkpt lat="43.4080867" lon="11.3541567"><ele>472.00000000000006</ele><time>2026-04-19T08:59:45.649Z</time></trkpt><trkpt lat="43.40798" lon="11.3541017"><ele>472.00000000000006</ele><time>2026-04-19T08:59:46.649Z</time></trkpt><trkpt lat="43.407875" lon="11.354075"><ele>472.0</ele><time>2026-04-19T08:59:47.662Z</time></trkpt><trkpt lat="43.4077717" lon="11.3540583"><ele>472.0</ele><time>2026-04-19T08:59:48.654Z</time></trkpt><trkpt lat="43.4076633" lon="11.3540483"><ele>471.0</ele><time>2026-04-19T08:59:49.652Z</time></trkpt><trkpt lat="43.4075983" lon="11.3540783"><ele>470.0</ele><time>2026-04-19T08:59:50.65Z</time></trkpt><trkpt lat="43.4075367" lon="11.3541417"><ele>469.0</ele><time>2026-04-19T08:59:51.656Z</time></trkpt><trkpt lat="43.4074917" lon="11.354235"><ele>468.0</ele><time>2026-04-19T08:59:52.657Z</time></trkpt><trkpt lat="43.4074583" lon="11.3543367"><ele>467.0</ele><time>2026-04-19T08:59:53.646Z</time></trkpt><trkpt lat="43.407415" lon="11.3544067"><ele>466.0</ele><time>2026-04-19T08:59:54.652Z</time></trkpt><trkpt lat="43.4073583" lon="11.35445"><ele>465.0</ele><time>2026-04-19T08:59:55.651Z</time></trkpt><trkpt lat="43.4072383" lon="11.3544617"><ele>463.0</ele><time>2026-04-19T08:59:57.653Z</time></trkpt><trkpt lat="43.4071517" lon="11.3544617"><ele>461.0</ele><time>2026-04-19T08:59:58.652Z</time></trkpt><trkpt lat="43.407055" lon="11.3544717"><ele>459.0</ele><time>2026-04-19T08:59:59.654Z</time></trkpt><trkpt lat="43.406955" lon="11.35451"><ele>457.0</ele><time>2026-04-19T09:00:00.65Z</time></trkpt><trkpt lat="43.4068533" lon="11.3545733"><ele>455.0</ele><time>2026-04-19T09:00:01.652Z</time></trkpt><trkpt lat="43.4067517" lon="11.3546533"><ele>456.4</ele><time>2026-04-19T09:00:02.654Z</time></trkpt><trkpt lat="43.4066767" lon="11.3547583"><ele>457.8</ele><time>2026-04-19T09:00:03.649Z</time></trkpt><trkpt lat="43.40661" lon="11.3548617"><ele>459.20000000000005</ele><time>2026-04-19T09:00:04.65Z</time></trkpt><trkpt lat="43.4065633" lon="11.3549633"><ele>460.6</ele><time>2026-04-19T09:00:05.652Z</time></trkpt><trkpt lat="43.4065417" lon="11.3550817"><ele>462.0</ele><time>2026-04-19T09:00:06.651Z</time></trkpt><trkpt lat="43.4065417" lon="11.3552267"><ele>462.0</ele><time>2026-04-19T09:00:07.652Z</time></trkpt><trkpt lat="43.4065633" lon="11.3553883"><ele>462.0</ele><time>2026-04-19T09:00:08.648Z</time></trkpt><trkpt lat="43.4065917" lon="11.3555533"><ele>462.0</ele><time>2026-04-19T09:00:09.651Z</time></trkpt><trkpt lat="43.4066133" lon="11.3557033"><ele>462.0</ele><time>2026-04-19T09:00:10.653Z</time></trkpt><trkpt lat="43.4066183" lon="11.3558383"><ele>462.20000000000005</ele><time>2026-04-19T09:00:11.652Z</time></trkpt><trkpt lat="43.4066133" lon="11.3559517"><ele>462.40000000000003</ele><time>2026-04-19T09:00:12.65Z</time></trkpt><trkpt lat="43.4066017" lon="11.3560517"><ele>462.59999999999997</ele><time>2026-04-19T09:00:13.653Z</time></trkpt><trkpt lat="43.40656" lon="11.3561183"><ele>462.79999999999995</ele><time>2026-04-19T09:00:14.653Z</time></trkpt><trkpt lat="43.40641" lon="11.3561367"><ele>463.0</ele><time>2026-04-19T09:00:16.649Z</time></trkpt><trkpt lat="43.4063183" lon="11.3560783"><ele>463.0</ele><time>2026-04-19T09:00:17.652Z</time></trkpt><trkpt lat="43.4062233" lon="11.356005"><ele>463.0</ele><time>2026-04-19T09:00:18.653Z</time></trkpt><trkpt lat="43.406075" lon="11.3558483"><ele>463.0</ele><time>2026-04-19T09:00:19.646Z</time></trkpt><trkpt lat="43.4058983" lon="11.3556917"><ele>463.0</ele><time>2026-04-19T09:00:20.655Z</time></trkpt><trkpt lat="43.405765" lon="11.3556033"><ele>463.0</ele><time>2026-04-19T09:00:21.645Z</time></trkpt><trkpt lat="43.4056533" lon="11.3555267"><ele>463.0</ele><time>2026-04-19T09:00:22.655Z</time></trkpt><trkpt lat="43.40555" lon="11.355495"><ele>463.0</ele><time>2026-04-19T09:00:23.646Z</time></trkpt><trkpt lat="43.405445" lon="11.3554917"><ele>461.83333333333337</ele><time>2026-04-19T09:00:24.657Z</time></trkpt><trkpt lat="43.4053467" lon="11.3555217"><ele>460.6666666666667</ele><time>2026-04-19T09:00:25.653Z</time></trkpt><trkpt lat="43.4052733" lon="11.3555783"><ele>459.5</ele><time>2026-04-19T09:00:26.647Z</time></trkpt><trkpt lat="43.405205" lon="11.3556283"><ele>458.33333333333337</ele><time>2026-04-19T09:00:27.651Z</time></trkpt><trkpt lat="43.4051533" lon="11.3557183"><ele>457.1666666666667</ele><time>2026-04-19T09:00:28.644Z</time></trkpt><trkpt lat="43.4050817" lon="11.35577"><ele>456.0</ele><time>2026-04-19T09:00:29.657Z</time></trkpt><trkpt lat="43.4050033" lon="11.355845"><ele>456.0</ele><time>2026-04-19T09:00:30.654Z</time></trkpt><trkpt lat="43.4048967" lon="11.3559233"><ele>456.0</ele><time>2026-04-19T09:00:32.652Z</time></trkpt><trkpt lat="43.404815" lon="11.3559283"><ele>456.0</ele><time>2026-04-19T09:00:33.648Z</time></trkpt><trkpt lat="43.4047133" lon="11.3559033"><ele>456.0</ele><time>2026-04-19T09:00:34.651Z</time></trkpt><trkpt lat="43.4045833" lon="11.3558233"><ele>456.0</ele><time>2026-04-19T09:00:35.652Z</time></trkpt><trkpt lat="43.4044517" lon="11.3557633"><ele>455.0</ele><time>2026-04-19T09:00:36.652Z</time></trkpt><trkpt lat="43.40431" lon="11.3556983"><ele>454.0</ele><time>2026-04-19T09:00:37.652Z</time></trkpt><trkpt lat="43.4041983" lon="11.3556717"><ele>453.0</ele><time>2026-04-19T09:00:38.654Z</time></trkpt><trkpt lat="43.4040817" lon="11.3556483"><ele>452.0</ele><time>2026-04-19T09:00:39.652Z</time></trkpt><trkpt lat="43.4039533" lon="11.355615"><ele>452.0</ele><time>2026-04-19T09:00:40.652Z</time></trkpt><trkpt lat="43.40385" lon="11.355625"><ele>452.00000000000006</ele><time>2026-04-19T09:00:41.645Z</time></trkpt><trkpt lat="43.4037417" lon="11.355665"><ele>452.00000000000006</ele><time>2026-04-19T09:00:42.648Z</time></trkpt><trkpt lat="43.4036483" lon="11.3557133"><ele>452.0</ele><time>2026-04-19T09:00:43.647Z</time></trkpt><trkpt lat="43.4035833" lon="11.3557767"><ele>452.0</ele><time>2026-04-19T09:00:44.651Z</time></trkpt><trkpt lat="43.4035433" lon="11.3558567"><ele>451.16666666666663</ele><time>2026-04-19T09:00:45.652Z</time></trkpt><trkpt lat="43.4035118" lon="11.3559389"><ele>450.3333333333333</ele><time>2026-04-19T09:00:46.647Z</time></trkpt><trkpt lat="43.4034947" lon="11.3560359"><ele>449.5</ele><time>2026-04-19T09:00:47.652Z</time></trkpt><trkpt lat="43.4034865" lon="11.3561458"><ele>448.66666666666663</ele><time>2026-04-19T09:00:48.651Z</time></trkpt><trkpt lat="43.4035107" lon="11.3562755"><ele>447.8333333333333</ele><time>2026-04-19T09:00:49.651Z</time></trkpt><trkpt lat="43.4035652" lon="11.356425"><ele>447.0</ele><time>2026-04-19T09:00:50.656Z</time></trkpt><trkpt lat="43.4036381" lon="11.3566117"><ele>447.0</ele><time>2026-04-19T09:00:51.644Z</time></trkpt><trkpt lat="43.4036779" lon="11.3567682"><ele>447.00000000000006</ele><time>2026-04-19T09:00:52.647Z</time></trkpt><trkpt lat="43.4036961" lon="11.3569068"><ele>447.00000000000006</ele><time>2026-04-19T09:00:53.657Z</time></trkpt><trkpt lat="43.4036971" lon="11.3570332"><ele>447.0</ele><time>2026-04-19T09:00:54.65Z</time></trkpt><trkpt lat="43.4036845" lon="11.3571395"><ele>447.0</ele><time>2026-04-19T09:00:55.658Z</time></trkpt><trkpt lat="43.4036028" lon="11.3572987"><ele>448.25</ele><time>2026-04-19T09:00:57.645Z</time></trkpt><trkpt lat="43.4035154" lon="11.3573573"><ele>449.5</ele><time>2026-04-19T09:00:58.649Z</time></trkpt><trkpt lat="43.4034022" lon="11.3573742"><ele>450.75</ele><time>2026-04-19T09:00:59.653Z</time></trkpt><trkpt lat="43.4032571" lon="11.3573592"><ele>452.0</ele><time>2026-04-19T09:01:00.654Z</time></trkpt><trkpt lat="43.4031091" lon="11.3573276"><ele>450.20000000000005</ele><time>2026-04-19T09:01:01.652Z</time></trkpt><trkpt lat="43.4029848" lon="11.3573412"><ele>448.40000000000003</ele><time>2026-04-19T09:01:02.655Z</time></trkpt><trkpt lat="43.4028701" lon="11.3573724"><ele>446.59999999999997</ele><time>2026-04-19T09:01:03.649Z</time></trkpt><trkpt lat="43.4027717" lon="11.3574283"><ele>444.79999999999995</ele><time>2026-04-19T09:01:04.651Z</time></trkpt><trkpt lat="43.4026817" lon="11.35749"><ele>443.0</ele><time>2026-04-19T09:01:05.658Z</time></trkpt><trkpt lat="43.4026117" lon="11.35756"><ele>443.0</ele><time>2026-04-19T09:01:06.65Z</time></trkpt><trkpt lat="43.4025683" lon="11.3576533"><ele>442.99999999999994</ele><time>2026-04-19T09:01:07.648Z</time></trkpt><trkpt lat="43.4025417" lon="11.3577717"><ele>442.99999999999994</ele><time>2026-04-19T09:01:08.647Z</time></trkpt><trkpt lat="43.4025417" lon="11.357905"><ele>443.0</ele><time>2026-04-19T09:01:09.654Z</time></trkpt><trkpt lat="43.4025917" lon="11.3580933"><ele>443.0</ele><time>2026-04-19T09:01:10.647Z</time></trkpt><trkpt lat="43.4026233" lon="11.3582333"><ele>442.75</ele><time>2026-04-19T09:01:11.646Z</time></trkpt><trkpt lat="43.4026517" lon="11.35839"><ele>442.5</ele><time>2026-04-19T09:01:12.647Z</time></trkpt><trkpt lat="43.4027183" lon="11.3585517"><ele>442.25</ele><time>2026-04-19T09:01:13.645Z</time></trkpt><trkpt lat="43.40278" lon="11.358745"><ele>442.0</ele><time>2026-04-19T09:01:14.649Z</time></trkpt><trkpt lat="43.402855" lon="11.3589217"><ele>442.75</ele><time>2026-04-19T09:01:15.651Z</time></trkpt><trkpt lat="43.4029233" lon="11.3590933"><ele>443.5</ele><time>2026-04-19T09:01:16.651Z</time></trkpt><trkpt lat="43.4029883" lon="11.3592267"><ele>444.25</ele><time>2026-04-19T09:01:17.648Z</time></trkpt><trkpt lat="43.4030433" lon="11.359355"><ele>445.0</ele><time>2026-04-19T09:01:18.656Z</time></trkpt><trkpt lat="43.4031067" lon="11.35947"><ele>445.0</ele><time>2026-04-19T09:01:19.657Z</time></trkpt><trkpt lat="43.40318" lon="11.359565"><ele>445.0</ele><time>2026-04-19T09:01:20.655Z</time></trkpt><trkpt lat="43.40323" lon="11.35966"><ele>445.0</ele><time>2026-04-19T09:01:21.659Z</time></trkpt><trkpt lat="43.4032933" lon="11.3597633"><ele>445.0</ele><time>2026-04-19T09:01:22.656Z</time></trkpt><trkpt lat="43.4033317" lon="11.3598767"><ele>445.0</ele><time>2026-04-19T09:01:23.647Z</time></trkpt><trkpt lat="43.4033717" lon="11.3599967"><ele>445.2</ele><time>2026-04-19T09:01:24.656Z</time></trkpt><trkpt lat="43.403405" lon="11.3601217"><ele>445.4</ele><time>2026-04-19T09:01:25.654Z</time></trkpt><trkpt lat="43.4034367" lon="11.3602617"><ele>445.6</ele><time>2026-04-19T09:01:26.652Z</time></trkpt><trkpt lat="43.4034567" lon="11.3604167"><ele>445.8</ele><time>2026-04-19T09:01:27.655Z</time></trkpt><trkpt lat="43.4034833" lon="11.360565"><ele>446.0</ele><time>2026-04-19T09:01:28.654Z</time></trkpt><trkpt lat="43.403495" lon="11.3607117"><ele>446.0</ele><time>2026-04-19T09:01:29.656Z</time></trkpt><trkpt lat="43.40348" lon="11.3608417"><ele>446.0</ele><time>2026-04-19T09:01:30.657Z</time></trkpt><trkpt lat="43.4034567" lon="11.3609567"><ele>446.0</ele><time>2026-04-19T09:01:31.653Z</time></trkpt><trkpt lat="43.4034067" lon="11.3610567"><ele>446.0</ele><time>2026-04-19T09:01:32.659Z</time></trkpt><trkpt lat="43.4033367" lon="11.3611583"><ele>446.0</ele><time>2026-04-19T09:01:33.655Z</time></trkpt><trkpt lat="43.403135" lon="11.361145"><ele>444.3333333333333</ele><time>2026-04-19T09:01:34.658Z</time></trkpt><trkpt lat="43.4029667" lon="11.3611267"><ele>442.66666666666663</ele><time>2026-04-19T09:01:35.65Z</time></trkpt><trkpt lat="43.4027917" lon="11.361085"><ele>441.0</ele><time>2026-04-19T09:01:36.651Z</time></trkpt><trkpt lat="43.4026267" lon="11.36103"><ele>441.0</ele><time>2026-04-19T09:01:37.653Z</time></trkpt><trkpt lat="43.4024783" lon="11.36099"><ele>441.0</ele><time>2026-04-19T09:01:38.664Z</time></trkpt><trkpt lat="43.4023467" lon="11.3609883"><ele>441.0</ele><time>2026-04-19T09:01:39.655Z</time></trkpt><trkpt lat="43.4022167" lon="11.36099"><ele>441.0</ele><time>2026-04-19T09:01:40.654Z</time></trkpt><trkpt lat="43.4020983" lon="11.3610367"><ele>442.0</ele><time>2026-04-19T09:01:41.654Z</time></trkpt><trkpt lat="43.4019617" lon="11.3611133"><ele>443.0</ele><time>2026-04-19T09:01:42.655Z</time></trkpt><trkpt lat="43.4018267" lon="11.3612283"><ele>444.0</ele><time>2026-04-19T09:01:43.655Z</time></trkpt><trkpt lat="43.4016867" lon="11.3613767"><ele>444.0</ele><time>2026-04-19T09:01:44.65Z</time></trkpt><trkpt lat="43.4015583" lon="11.3615183"><ele>444.0</ele><time>2026-04-19T09:01:45.649Z</time></trkpt><trkpt lat="43.4014417" lon="11.3616467"><ele>444.0</ele><time>2026-04-19T09:01:46.655Z</time></trkpt><trkpt lat="43.4013417" lon="11.3617733"><ele>442.0</ele><time>2026-04-19T09:01:47.657Z</time></trkpt><trkpt lat="43.4012517" lon="11.3619033"><ele>440.0</ele><time>2026-04-19T09:01:48.656Z</time></trkpt><trkpt lat="43.4011883" lon="11.3620167"><ele>438.0</ele><time>2026-04-19T09:01:49.645Z</time></trkpt><trkpt lat="43.4011217" lon="11.3621233"><ele>436.0</ele><time>2026-04-19T09:01:50.652Z</time></trkpt><trkpt lat="43.401085" lon="11.3622117"><ele>434.0</ele><time>2026-04-19T09:01:51.652Z</time></trkpt><trkpt lat="43.4010783" lon="11.3623067"><ele>434.0</ele><time>2026-04-19T09:01:52.653Z</time></trkpt><trkpt lat="43.401085" lon="11.3624333"><ele>434.0</ele><time>2026-04-19T09:01:53.647Z</time></trkpt><trkpt lat="43.4011667" lon="11.3626533"><ele>434.0</ele><time>2026-04-19T09:01:54.65Z</time></trkpt><trkpt lat="43.4011517" lon="11.362815"><ele>434.0</ele><time>2026-04-19T09:01:55.659Z</time></trkpt><trkpt lat="43.4011467" lon="11.3629717"><ele>435.2</ele><time>2026-04-19T09:01:56.654Z</time></trkpt><trkpt lat="43.4011367" lon="11.363115"><ele>436.4</ele><time>2026-04-19T09:01:57.653Z</time></trkpt><trkpt lat="43.401105" lon="11.3632383"><ele>437.6</ele><time>2026-04-19T09:01:58.651Z</time></trkpt><trkpt lat="43.4010317" lon="11.3633417"><ele>438.8</ele><time>2026-04-19T09:01:59.654Z</time></trkpt><trkpt lat="43.4009283" lon="11.3634133"><ele>440.0</ele><time>2026-04-19T09:02:00.653Z</time></trkpt><trkpt lat="43.4008533" lon="11.3635083"><ele>440.0</ele><time>2026-04-19T09:02:01.655Z</time></trkpt><trkpt lat="43.400785" lon="11.3636267"><ele>440.0</ele><time>2026-04-19T09:02:02.655Z</time></trkpt><trkpt lat="43.400745" lon="11.36376"><ele>440.0</ele><time>2026-04-19T09:02:03.653Z</time></trkpt><trkpt lat="43.4007217" lon="11.363895"><ele>440.0</ele><time>2026-04-19T09:02:04.653Z</time></trkpt><trkpt lat="43.400715" lon="11.3640267"><ele>440.0</ele><time>2026-04-19T09:02:05.652Z</time></trkpt><trkpt lat="43.4007367" lon="11.3641733"><ele>440.0</ele><time>2026-04-19T09:02:06.654Z</time></trkpt><trkpt lat="43.4007683" lon="11.3643333"><ele>440.0</ele><time>2026-04-19T09:02:07.651Z</time></trkpt><trkpt lat="43.4008117" lon="11.3644883"><ele>440.0</ele><time>2026-04-19T09:02:08.643Z</time></trkpt><trkpt lat="43.40088" lon="11.36468"><ele>440.0</ele><time>2026-04-19T09:02:09.645Z</time></trkpt><trkpt lat="43.400915" lon="11.3648667"><ele>440.0</ele><time>2026-04-19T09:02:10.647Z</time></trkpt><trkpt lat="43.400945" lon="11.3650483"><ele>440.0</ele><time>2026-04-19T09:02:11.656Z</time></trkpt><trkpt lat="43.400985" lon="11.3652217"><ele>440.0</ele><time>2026-04-19T09:02:12.647Z</time></trkpt><trkpt lat="43.4010217" lon="11.3654"><ele>440.0</ele><time>2026-04-19T09:02:13.656Z</time></trkpt><trkpt lat="43.40106" lon="11.3655983"><ele>440.3333333333333</ele><time>2026-04-19T09:02:14.651Z</time></trkpt><trkpt lat="43.4011017" lon="11.365815"><ele>440.66666666666663</ele><time>2026-04-19T09:02:15.649Z</time></trkpt><trkpt lat="43.40114" lon="11.3660367"><ele>441.0</ele><time>2026-04-19T09:02:16.647Z</time></trkpt><trkpt lat="43.401185" lon="11.3662467"><ele>440.0</ele><time>2026-04-19T09:02:17.661Z</time></trkpt><trkpt lat="43.4012417" lon="11.3664517"><ele>439.0</ele><time>2026-04-19T09:02:18.651Z</time></trkpt><trkpt lat="43.4013117" lon="11.3666533"><ele>438.0</ele><time>2026-04-19T09:02:19.651Z</time></trkpt><trkpt lat="43.4013883" lon="11.3668567"><ele>437.0</ele><time>2026-04-19T09:02:20.652Z</time></trkpt><trkpt lat="43.4014617" lon="11.3670617"><ele>436.0</ele><time>2026-04-19T09:02:21.647Z</time></trkpt><trkpt lat="43.4015217" lon="11.36728"><ele>435.0</ele><time>2026-04-19T09:02:22.648Z</time></trkpt><trkpt lat="43.4015717" lon="11.3675067"><ele>434.66666666666663</ele><time>2026-04-19T09:02:23.645Z</time></trkpt><trkpt lat="43.4016167" lon="11.3677417"><ele>434.3333333333333</ele><time>2026-04-19T09:02:24.652Z</time></trkpt><trkpt lat="43.4016517" lon="11.3679933"><ele>434.0</ele><time>2026-04-19T09:02:25.655Z</time></trkpt><trkpt lat="43.4016783" lon="11.3682567"><ele>433.3333333333333</ele><time>2026-04-19T09:02:26.654Z</time></trkpt><trkpt lat="43.401705" lon="11.368515"><ele>432.66666666666663</ele><time>2026-04-19T09:02:27.652Z</time></trkpt><trkpt lat="43.40172" lon="11.3687633"><ele>432.0</ele><time>2026-04-19T09:02:28.658Z</time></trkpt><trkpt lat="43.4017183" lon="11.3690083"><ele>431.33333333333337</ele><time>2026-04-19T09:02:29.65Z</time></trkpt><trkpt lat="43.4016983" lon="11.36927"><ele>430.6666666666667</ele><time>2026-04-19T09:02:30.66Z</time></trkpt><trkpt lat="43.4016533" lon="11.36954"><ele>430.0</ele><time>2026-04-19T09:02:31.649Z</time></trkpt><trkpt lat="43.4015883" lon="11.3698117"><ele>429.6666666666667</ele><time>2026-04-19T09:02:32.656Z</time></trkpt><trkpt lat="43.4015217" lon="11.37007"><ele>429.33333333333337</ele><time>2026-04-19T09:02:33.652Z</time></trkpt><trkpt lat="43.40145" lon="11.37031"><ele>429.0</ele><time>2026-04-19T09:02:34.651Z</time></trkpt><trkpt lat="43.4013933" lon="11.3705417"><ele>428.66666666666663</ele><time>2026-04-19T09:02:35.654Z</time></trkpt><trkpt lat="43.40135" lon="11.370755"><ele>428.3333333333333</ele><time>2026-04-19T09:02:36.656Z</time></trkpt><trkpt lat="43.4013183" lon="11.3709683"><ele>428.0</ele><time>2026-04-19T09:02:37.652Z</time></trkpt><trkpt lat="43.401305" lon="11.3711917"><ele>430.0</ele><time>2026-04-19T09:02:38.653Z</time></trkpt><trkpt lat="43.4013117" lon="11.37142"><ele>432.0</ele><time>2026-04-19T09:02:39.647Z</time></trkpt><trkpt lat="43.401315" lon="11.371645"><ele>434.0</ele><time>2026-04-19T09:02:40.653Z</time></trkpt><trkpt lat="43.4013283" lon="11.3718683"><ele>434.0</ele><time>2026-04-19T09:02:41.659Z</time></trkpt><trkpt lat="43.4013417" lon="11.3720783"><ele>434.0</ele><time>2026-04-19T09:02:42.654Z</time></trkpt><trkpt lat="43.4013383" lon="11.3722767"><ele>434.0</ele><time>2026-04-19T09:02:43.649Z</time></trkpt><trkpt lat="43.4013183" lon="11.372445"><ele>434.0</ele><time>2026-04-19T09:02:44.653Z</time></trkpt><trkpt lat="43.40128" lon="11.3726233"><ele>434.5</ele><time>2026-04-19T09:02:45.652Z</time></trkpt><trkpt lat="43.4012317" lon="11.3727967"><ele>435.0</ele><time>2026-04-19T09:02:46.652Z</time></trkpt><trkpt lat="43.4011517" lon="11.372945"><ele>435.5</ele><time>2026-04-19T09:02:47.649Z</time></trkpt><trkpt lat="43.4010383" lon="11.373075"><ele>436.0</ele><time>2026-04-19T09:02:48.651Z</time></trkpt><trkpt lat="43.40092" lon="11.3732033"><ele>436.0</ele><time>2026-04-19T09:02:49.646Z</time></trkpt><trkpt lat="43.4008267" lon="11.3733467"><ele>436.0</ele><time>2026-04-19T09:02:50.644Z</time></trkpt><trkpt lat="43.4007417" lon="11.3735017"><ele>436.0</ele><time>2026-04-19T09:02:51.649Z</time></trkpt><trkpt lat="43.4006683" lon="11.373675"><ele>436.0</ele><time>2026-04-19T09:02:52.651Z</time></trkpt><trkpt lat="43.4006217" lon="11.3738683"><ele>436.0</ele><time>2026-04-19T09:02:53.654Z</time></trkpt><trkpt lat="43.4005533" lon="11.37405"><ele>436.0</ele><time>2026-04-19T09:02:54.653Z</time></trkpt><trkpt lat="43.40049" lon="11.3742283"><ele>436.0</ele><time>2026-04-19T09:02:55.651Z</time></trkpt><trkpt lat="43.4004083" lon="11.3744017"><ele>436.0</ele><time>2026-04-19T09:02:56.655Z</time></trkpt><trkpt lat="43.4003033" lon="11.3745883"><ele>436.0</ele><time>2026-04-19T09:02:57.652Z</time></trkpt><trkpt lat="43.40018" lon="11.3747917"><ele>436.0</ele><time>2026-04-19T09:02:58.643Z</time></trkpt><trkpt lat="43.400055" lon="11.3750017"><ele>436.0</ele><time>2026-04-19T09:02:59.645Z</time></trkpt><trkpt lat="43.3999317" lon="11.3752133"><ele>436.0</ele><time>2026-04-19T09:03:00.656Z</time></trkpt><trkpt lat="43.3998217" lon="11.3754117"><ele>436.0</ele><time>2026-04-19T09:03:01.645Z</time></trkpt><trkpt lat="43.3997333" lon="11.3755733"><ele>436.0</ele><time>2026-04-19T09:03:02.651Z</time></trkpt><trkpt lat="43.3996217" lon="11.375735"><ele>434.0</ele><time>2026-04-19T09:03:03.654Z</time></trkpt><trkpt lat="43.3995117" lon="11.375885"><ele>432.0</ele><time>2026-04-19T09:03:04.652Z</time></trkpt><trkpt lat="43.3993983" lon="11.3760133"><ele>430.0</ele><time>2026-04-19T09:03:05.646Z</time></trkpt><trkpt lat="43.3993067" lon="11.3760883"><ele>428.0</ele><time>2026-04-19T09:03:06.653Z</time></trkpt><trkpt lat="43.3991783" lon="11.376185"><ele>428.0</ele><time>2026-04-19T09:03:07.648Z</time></trkpt><trkpt lat="43.39904" lon="11.3762733"><ele>428.0</ele><time>2026-04-19T09:03:08.643Z</time></trkpt><trkpt lat="43.3988767" lon="11.3763767"><ele>428.0</ele><time>2026-04-19T09:03:09.644Z</time></trkpt><trkpt lat="43.39868" lon="11.3764783"><ele>425.66666666666663</ele><time>2026-04-19T09:03:10.648Z</time></trkpt><trkpt lat="43.3985033" lon="11.3766033"><ele>423.33333333333337</ele><time>2026-04-19T09:03:11.649Z</time></trkpt><trkpt lat="43.3983283" lon="11.3767433"><ele>421.0</ele><time>2026-04-19T09:03:12.648Z</time></trkpt><trkpt lat="43.3981433" lon="11.3769133"><ele>420.33333333333337</ele><time>2026-04-19T09:03:13.651Z</time></trkpt><trkpt lat="43.3979767" lon="11.3770867"><ele>419.66666666666663</ele><time>2026-04-19T09:03:14.655Z</time></trkpt><trkpt lat="43.39784" lon="11.37725"><ele>419.0</ele><time>2026-04-19T09:03:15.652Z</time></trkpt><trkpt lat="43.397705" lon="11.377425"><ele>419.0</ele><time>2026-04-19T09:03:16.651Z</time></trkpt><trkpt lat="43.397575" lon="11.37762"><ele>419.0</ele><time>2026-04-19T09:03:17.649Z</time></trkpt><trkpt lat="43.397455" lon="11.3778217"><ele>419.0</ele><time>2026-04-19T09:03:18.656Z</time></trkpt><trkpt lat="43.39734" lon="11.3780183"><ele>418.66666666666663</ele><time>2026-04-19T09:03:19.647Z</time></trkpt><trkpt lat="43.39723" lon="11.37821"><ele>418.33333333333337</ele><time>2026-04-19T09:03:20.65Z</time></trkpt><trkpt lat="43.3971233" lon="11.3783833"><ele>418.0</ele><time>2026-04-19T09:03:21.648Z</time></trkpt><trkpt lat="43.3970333" lon="11.3785533"><ele>418.0</ele><time>2026-04-19T09:03:22.65Z</time></trkpt><trkpt lat="43.3969483" lon="11.3787367"><ele>418.0</ele><time>2026-04-19T09:03:23.652Z</time></trkpt><trkpt lat="43.39686" lon="11.37894"><ele>418.0</ele><time>2026-04-19T09:03:24.655Z</time></trkpt><trkpt lat="43.396775" lon="11.3792"><ele>416.0</ele><time>2026-04-19T09:03:25.652Z</time></trkpt><trkpt lat="43.396715" lon="11.3795033"><ele>414.0</ele><time>2026-04-19T09:03:26.648Z</time></trkpt><trkpt lat="43.3966583" lon="11.379825"><ele>412.33333333333337</ele><time>2026-04-19T09:03:27.651Z</time></trkpt><trkpt lat="43.3966033" lon="11.3801117"><ele>410.6666666666667</ele><time>2026-04-19T09:03:28.651Z</time></trkpt><trkpt lat="43.3965367" lon="11.3803817"><ele>409.0</ele><time>2026-04-19T09:03:29.656Z</time></trkpt><trkpt lat="43.3964733" lon="11.380615"><ele>409.0</ele><time>2026-04-19T09:03:30.65Z</time></trkpt><trkpt lat="43.3963967" lon="11.3808067"><ele>409.0</ele><time>2026-04-19T09:03:31.65Z</time></trkpt><trkpt lat="43.3963083" lon="11.3809567"><ele>409.0</ele><time>2026-04-19T09:03:32.657Z</time></trkpt><trkpt lat="43.3962" lon="11.3810717"><ele>409.0</ele><time>2026-04-19T09:03:33.652Z</time></trkpt><trkpt lat="43.3960767" lon="11.381155"><ele>410.0</ele><time>2026-04-19T09:03:34.653Z</time></trkpt><trkpt lat="43.39593" lon="11.3811917"><ele>411.0</ele><time>2026-04-19T09:03:35.653Z</time></trkpt><trkpt lat="43.3957467" lon="11.381165"><ele>412.0</ele><time>2026-04-19T09:03:36.651Z</time></trkpt><trkpt lat="43.39555" lon="11.38109"><ele>413.33333333333337</ele><time>2026-04-19T09:03:37.65Z</time></trkpt><trkpt lat="43.3953633" lon="11.381045"><ele>414.66666666666663</ele><time>2026-04-19T09:03:38.656Z</time></trkpt><trkpt lat="43.3951833" lon="11.38102"><ele>416.0</ele><time>2026-04-19T09:03:39.652Z</time></trkpt><trkpt lat="43.395" lon="11.3810067"><ele>416.0</ele><time>2026-04-19T09:03:40.65Z</time></trkpt><trkpt lat="43.3948233" lon="11.3810067"><ele>416.0</ele><time>2026-04-19T09:03:41.652Z</time></trkpt><trkpt lat="43.3946417" lon="11.3810267"><ele>416.0</ele><time>2026-04-19T09:03:42.655Z</time></trkpt><trkpt lat="43.3944617" lon="11.3810633"><ele>415.66666666666663</ele><time>2026-04-19T09:03:43.651Z</time></trkpt><trkpt lat="43.394285" lon="11.381115"><ele>415.33333333333337</ele><time>2026-04-19T09:03:44.653Z</time></trkpt><trkpt lat="43.3941083" lon="11.3811783"><ele>415.0</ele><time>2026-04-19T09:03:45.653Z</time></trkpt><trkpt lat="43.3939383" lon="11.3812567"><ele>417.0</ele><time>2026-04-19T09:03:46.651Z</time></trkpt><trkpt lat="43.3937717" lon="11.38134"><ele>419.0</ele><time>2026-04-19T09:03:47.654Z</time></trkpt><trkpt lat="43.393615" lon="11.3814367"><ele>421.0</ele><time>2026-04-19T09:03:48.653Z</time></trkpt><trkpt lat="43.393465" lon="11.3815383"><ele>421.0</ele><time>2026-04-19T09:03:49.65Z</time></trkpt><trkpt lat="43.39332" lon="11.38165"><ele>421.0</ele><time>2026-04-19T09:03:50.649Z</time></trkpt><trkpt lat="43.3931783" lon="11.381765"><ele>421.0</ele><time>2026-04-19T09:03:51.655Z</time></trkpt><trkpt lat="43.3930383" lon="11.381885"><ele>422.33333333333337</ele><time>2026-04-19T09:03:52.654Z</time></trkpt><trkpt lat="43.3928967" lon="11.3820017"><ele>423.66666666666663</ele><time>2026-04-19T09:03:53.651Z</time></trkpt><trkpt lat="43.3927567" lon="11.3821167"><ele>425.0</ele><time>2026-04-19T09:03:54.651Z</time></trkpt><trkpt lat="43.3926233" lon="11.382235"><ele>425.0</ele><time>2026-04-19T09:03:55.653Z</time></trkpt><trkpt lat="43.3924933" lon="11.38235"><ele>425.0</ele><time>2026-04-19T09:03:56.656Z</time></trkpt><trkpt lat="43.3923717" lon="11.38248"><ele>425.0</ele><time>2026-04-19T09:03:57.653Z</time></trkpt><trkpt lat="43.3922467" lon="11.3826183"><ele>425.0</ele><time>2026-04-19T09:03:58.651Z</time></trkpt><trkpt lat="43.3921283" lon="11.38276"><ele>425.0</ele><time>2026-04-19T09:03:59.649Z</time></trkpt><trkpt lat="43.3920283" lon="11.3829217"><ele>425.0</ele><time>2026-04-19T09:04:00.649Z</time></trkpt><trkpt lat="43.391955" lon="11.3831"><ele>425.3333333333333</ele><time>2026-04-19T09:04:01.65Z</time></trkpt><trkpt lat="43.3919" lon="11.38328"><ele>425.66666666666663</ele><time>2026-04-19T09:04:02.645Z</time></trkpt><trkpt lat="43.39186" lon="11.38348"><ele>426.0</ele><time>2026-04-19T09:04:03.652Z</time></trkpt><trkpt lat="43.3918233" lon="11.3836967"><ele>425.75</ele><time>2026-04-19T09:04:04.655Z</time></trkpt><trkpt lat="43.3917883" lon="11.3838967"><ele>425.5</ele><time>2026-04-19T09:04:05.653Z</time></trkpt><trkpt lat="43.3917283" lon="11.3840817"><ele>425.25</ele><time>2026-04-19T09:04:06.65Z</time></trkpt><trkpt lat="43.391655" lon="11.384265"><ele>425.0</ele><time>2026-04-19T09:04:07.648Z</time></trkpt><trkpt lat="43.3915667" lon="11.3844333"><ele>425.0</ele><time>2026-04-19T09:04:08.651Z</time></trkpt><trkpt lat="43.3914517" lon="11.384575"><ele>425.0</ele><time>2026-04-19T09:04:09.646Z</time></trkpt><trkpt lat="43.3913133" lon="11.3846983"><ele>425.0</ele><time>2026-04-19T09:04:10.647Z</time></trkpt><trkpt lat="43.3911667" lon="11.38481"><ele>424.75</ele><time>2026-04-19T09:04:11.648Z</time></trkpt><trkpt lat="43.3910367" lon="11.3849117"><ele>424.5</ele><time>2026-04-19T09:04:12.65Z</time></trkpt><trkpt lat="43.3909083" lon="11.3850083"><ele>424.25</ele><time>2026-04-19T09:04:13.651Z</time></trkpt><trkpt lat="43.3907733" lon="11.385105"><ele>424.0</ele><time>2026-04-19T09:04:14.656Z</time></trkpt><trkpt lat="43.390635" lon="11.38521"><ele>423.6666666666667</ele><time>2026-04-19T09:04:15.651Z</time></trkpt><trkpt lat="43.3904933" lon="11.3853067"><ele>423.33333333333337</ele><time>2026-04-19T09:04:16.655Z</time></trkpt><trkpt lat="43.3903517" lon="11.3854"><ele>423.0</ele><time>2026-04-19T09:04:17.645Z</time></trkpt><trkpt lat="43.3902183" lon="11.38549"><ele>422.79999999999995</ele><time>2026-04-19T09:04:18.654Z</time></trkpt><trkpt lat="43.3901017" lon="11.385565"><ele>422.6</ele><time>2026-04-19T09:04:19.648Z</time></trkpt><trkpt lat="43.39" lon="11.3856333"><ele>422.4</ele><time>2026-04-19T09:04:20.654Z</time></trkpt><trkpt lat="43.389915" lon="11.3857"><ele>422.20000000000005</ele><time>2026-04-19T09:04:21.649Z</time></trkpt><trkpt lat="43.3898433" lon="11.3857717"><ele>422.0</ele><time>2026-04-19T09:04:22.652Z</time></trkpt><trkpt lat="43.38978" lon="11.3858567"><ele>422.0</ele><time>2026-04-19T09:04:23.659Z</time></trkpt><trkpt lat="43.38973" lon="11.385945"><ele>422.0</ele><time>2026-04-19T09:04:24.651Z</time></trkpt><trkpt lat="43.3896867" lon="11.38606"><ele>422.0</ele><time>2026-04-19T09:04:25.647Z</time></trkpt><trkpt lat="43.3896467" lon="11.38618"><ele>422.0</ele><time>2026-04-19T09:04:26.646Z</time></trkpt><trkpt lat="43.38961" lon="11.38632"><ele>422.0</ele><time>2026-04-19T09:04:27.653Z</time></trkpt><trkpt lat="43.38956" lon="11.386455"><ele>422.75</ele><time>2026-04-19T09:04:28.646Z</time></trkpt><trkpt lat="43.3894917" lon="11.3866033"><ele>423.5</ele><time>2026-04-19T09:04:29.653Z</time></trkpt><trkpt lat="43.3894267" lon="11.3867617"><ele>424.25</ele><time>2026-04-19T09:04:30.648Z</time></trkpt><trkpt lat="43.3893583" lon="11.3869283"><ele>425.0</ele><time>2026-04-19T09:04:31.648Z</time></trkpt><trkpt lat="43.389285" lon="11.3871033"><ele>424.0</ele><time>2026-04-19T09:04:32.652Z</time></trkpt><trkpt lat="43.3892017" lon="11.387295"><ele>423.0</ele><time>2026-04-19T09:04:33.648Z</time></trkpt><trkpt lat="43.3891117" lon="11.38751"><ele>422.0</ele><time>2026-04-19T09:04:34.652Z</time></trkpt><trkpt lat="43.389015" lon="11.3877533"><ele>422.0</ele><time>2026-04-19T09:04:35.652Z</time></trkpt><trkpt lat="43.38891" lon="11.3880083"><ele>422.0</ele><time>2026-04-19T09:04:36.649Z</time></trkpt><trkpt lat="43.3888033" lon="11.38826"><ele>422.0</ele><time>2026-04-19T09:04:37.667Z</time></trkpt><trkpt lat="43.38869" lon="11.3885117"><ele>423.66666666666663</ele><time>2026-04-19T09:04:38.651Z</time></trkpt><trkpt lat="43.38858" lon="11.3887583"><ele>425.33333333333337</ele><time>2026-04-19T09:04:39.651Z</time></trkpt><trkpt lat="43.3884717" lon="11.3890017"><ele>427.0</ele><time>2026-04-19T09:04:40.648Z</time></trkpt><trkpt lat="43.3883683" lon="11.3892467"><ele>427.0</ele><time>2026-04-19T09:04:41.649Z</time></trkpt><trkpt lat="43.3882717" lon="11.3894967"><ele>427.0</ele><time>2026-04-19T09:04:42.65Z</time></trkpt><trkpt lat="43.38819" lon="11.3897533"><ele>427.0</ele><time>2026-04-19T09:04:43.652Z</time></trkpt><trkpt lat="43.3881333" lon="11.3899983"><ele>427.33333333333337</ele><time>2026-04-19T09:04:44.651Z</time></trkpt><trkpt lat="43.3880883" lon="11.3902217"><ele>427.66666666666663</ele><time>2026-04-19T09:04:45.654Z</time></trkpt><trkpt lat="43.3880483" lon="11.3904133"><ele>428.0</ele><time>2026-04-19T09:04:46.655Z</time></trkpt><trkpt lat="43.3879933" lon="11.3905883"><ele>430.66666666666663</ele><time>2026-04-19T09:04:47.655Z</time></trkpt><trkpt lat="43.387915" lon="11.3907383"><ele>433.33333333333337</ele><time>2026-04-19T09:04:48.647Z</time></trkpt><trkpt lat="43.38781" lon="11.390895"><ele>436.0</ele><time>2026-04-19T09:04:49.646Z</time></trkpt><trkpt lat="43.3876983" lon="11.391065"><ele>436.0</ele><time>2026-04-19T09:04:50.646Z</time></trkpt><trkpt lat="43.387575" lon="11.39125"><ele>436.0</ele><time>2026-04-19T09:04:51.65Z</time></trkpt><trkpt lat="43.3874433" lon="11.3914433"><ele>436.0</ele><time>2026-04-19T09:04:52.654Z</time></trkpt><trkpt lat="43.3873167" lon="11.39163"><ele>435.33333333333337</ele><time>2026-04-19T09:04:53.65Z</time></trkpt><trkpt lat="43.3872" lon="11.3918117"><ele>434.66666666666663</ele><time>2026-04-19T09:04:54.657Z</time></trkpt><trkpt lat="43.38709" lon="11.3919767"><ele>434.0</ele><time>2026-04-19T09:04:55.655Z</time></trkpt><trkpt lat="43.386985" lon="11.39212"><ele>433.4</ele><time>2026-04-19T09:04:56.65Z</time></trkpt><trkpt lat="43.3868967" lon="11.3922383"><ele>432.79999999999995</ele><time>2026-04-19T09:04:57.651Z</time></trkpt><trkpt lat="43.386815" lon="11.3923383"><ele>432.20000000000005</ele><time>2026-04-19T09:04:58.65Z</time></trkpt><trkpt lat="43.3867333" lon="11.3924283"><ele>431.6</ele><time>2026-04-19T09:04:59.649Z</time></trkpt><trkpt lat="43.3866517" lon="11.3925067"><ele>431.0</ele><time>2026-04-19T09:05:00.65Z</time></trkpt><trkpt lat="43.3865717" lon="11.3925733"><ele>431.0</ele><time>2026-04-19T09:05:01.652Z</time></trkpt><trkpt lat="43.38649" lon="11.392635"><ele>431.0</ele><time>2026-04-19T09:05:02.65Z</time></trkpt><trkpt lat="43.386405" lon="11.39271"><ele>431.0</ele><time>2026-04-19T09:05:03.654Z</time></trkpt><trkpt lat="43.3863217" lon="11.392795"><ele>431.0</ele><time>2026-04-19T09:05:04.652Z</time></trkpt><trkpt lat="43.3862367" lon="11.3928967"><ele>431.0</ele><time>2026-04-19T09:05:05.655Z</time></trkpt><trkpt lat="43.3861517" lon="11.3930117"><ele>430.25</ele><time>2026-04-19T09:05:06.646Z</time></trkpt><trkpt lat="43.38606" lon="11.3931433"><ele>429.5</ele><time>2026-04-19T09:05:07.651Z</time></trkpt><trkpt lat="43.3859617" lon="11.3932917"><ele>428.75</ele><time>2026-04-19T09:05:08.646Z</time></trkpt><trkpt lat="43.385855" lon="11.39345"><ele>428.0</ele><time>2026-04-19T09:05:09.649Z</time></trkpt><trkpt lat="43.3857467" lon="11.3936183"><ele>428.0</ele><time>2026-04-19T09:05:10.649Z</time></trkpt><trkpt lat="43.3856367" lon="11.393785"><ele>428.0</ele><time>2026-04-19T09:05:11.652Z</time></trkpt><trkpt lat="43.3855217" lon="11.3939483"><ele>428.0</ele><time>2026-04-19T09:05:12.652Z</time></trkpt><trkpt lat="43.38541" lon="11.394105"><ele>427.25</ele><time>2026-04-19T09:05:13.653Z</time></trkpt><trkpt lat="43.3853067" lon="11.39425"><ele>426.5</ele><time>2026-04-19T09:05:14.651Z</time></trkpt><trkpt lat="43.3852083" lon="11.394385"><ele>425.75</ele><time>2026-04-19T09:05:15.662Z</time></trkpt><trkpt lat="43.3851183" lon="11.3945117"><ele>425.0</ele><time>2026-04-19T09:05:16.654Z</time></trkpt><trkpt lat="43.3850367" lon="11.3946367"><ele>424.6</ele><time>2026-04-19T09:05:17.65Z</time></trkpt><trkpt lat="43.3849633" lon="11.3947417"><ele>424.2</ele><time>2026-04-19T09:05:18.647Z</time></trkpt><trkpt lat="43.3848967" lon="11.394835"><ele>423.79999999999995</ele><time>2026-04-19T09:05:19.646Z</time></trkpt><trkpt lat="43.3848317" lon="11.3949267"><ele>423.4</ele><time>2026-04-19T09:05:20.647Z</time></trkpt><trkpt lat="43.3847717" lon="11.39501"><ele>423.0</ele><time>2026-04-19T09:05:21.65Z</time></trkpt><trkpt lat="43.38471" lon="11.3950917"><ele>421.59999999999997</ele><time>2026-04-19T09:05:22.652Z</time></trkpt><trkpt lat="43.3846383" lon="11.3951717"><ele>420.2</ele><time>2026-04-19T09:05:23.65Z</time></trkpt><trkpt lat="43.3845567" lon="11.3952483"><ele>418.8</ele><time>2026-04-19T09:05:24.656Z</time></trkpt><trkpt lat="43.384465" lon="11.3953167"><ele>417.4</ele><time>2026-04-19T09:05:25.65Z</time></trkpt><trkpt lat="43.3843667" lon="11.3953733"><ele>416.0</ele><time>2026-04-19T09:05:26.647Z</time></trkpt><trkpt lat="43.3842617" lon="11.3954167"><ele>416.0</ele><time>2026-04-19T09:05:27.647Z</time></trkpt><trkpt lat="43.3841533" lon="11.395455"><ele>416.0</ele><time>2026-04-19T09:05:28.656Z</time></trkpt><trkpt lat="43.38404" lon="11.3954983"><ele>416.0</ele><time>2026-04-19T09:05:29.648Z</time></trkpt><trkpt lat="43.38392" lon="11.3955467"><ele>416.0</ele><time>2026-04-19T09:05:30.654Z</time></trkpt><trkpt lat="43.3838033" lon="11.395595"><ele>416.5</ele><time>2026-04-19T09:05:31.649Z</time></trkpt><trkpt lat="43.383685" lon="11.39564"><ele>417.0</ele><time>2026-04-19T09:05:32.66Z</time></trkpt><trkpt lat="43.383565" lon="11.395685"><ele>417.5</ele><time>2026-04-19T09:05:33.653Z</time></trkpt><trkpt lat="43.3834383" lon="11.3957333"><ele>418.0</ele><time>2026-04-19T09:05:34.652Z</time></trkpt><trkpt lat="43.3833117" lon="11.3957817"><ele>418.0</ele><time>2026-04-19T09:05:35.653Z</time></trkpt><trkpt lat="43.3831733" lon="11.3958333"><ele>418.0</ele><time>2026-04-19T09:05:36.65Z</time></trkpt><trkpt lat="43.3830233" lon="11.3958867"><ele>418.0</ele><time>2026-04-19T09:05:37.644Z</time></trkpt><trkpt lat="43.38287" lon="11.3959417"><ele>417.0</ele><time>2026-04-19T09:05:38.646Z</time></trkpt><trkpt lat="43.38272" lon="11.3959867"><ele>416.0</ele><time>2026-04-19T09:05:39.645Z</time></trkpt><trkpt lat="43.3825767" lon="11.3960233"><ele>415.0</ele><time>2026-04-19T09:05:40.652Z</time></trkpt><trkpt lat="43.3824483" lon="11.396055"><ele>414.0</ele><time>2026-04-19T09:05:41.65Z</time></trkpt><trkpt lat="43.382335" lon="11.3960817"><ele>414.0</ele><time>2026-04-19T09:05:42.651Z</time></trkpt><trkpt lat="43.3822333" lon="11.39611"><ele>414.0</ele><time>2026-04-19T09:05:43.65Z</time></trkpt><trkpt lat="43.38214" lon="11.3961383"><ele>414.0</ele><time>2026-04-19T09:05:44.653Z</time></trkpt><trkpt lat="43.3820533" lon="11.39616"><ele>414.0</ele><time>2026-04-19T09:05:45.652Z</time></trkpt><trkpt lat="43.381965" lon="11.3961783"><ele>414.0</ele><time>2026-04-19T09:05:46.651Z</time></trkpt><trkpt lat="43.3818717" lon="11.3961967"><ele>413.2</ele><time>2026-04-19T09:05:47.652Z</time></trkpt><trkpt lat="43.3817783" lon="11.3962133"><ele>412.4</ele><time>2026-04-19T09:05:48.649Z</time></trkpt><trkpt lat="43.3816817" lon="11.3962283"><ele>411.6</ele><time>2026-04-19T09:05:49.645Z</time></trkpt><trkpt lat="43.381575" lon="11.39624"><ele>410.8</ele><time>2026-04-19T09:05:50.648Z</time></trkpt><trkpt lat="43.38146" lon="11.3962433"><ele>410.0</ele><time>2026-04-19T09:05:51.65Z</time></trkpt><trkpt lat="43.381335" lon="11.3962467"><ele>409.5</ele><time>2026-04-19T09:05:52.653Z</time></trkpt><trkpt lat="43.3812017" lon="11.3962483"><ele>409.0</ele><time>2026-04-19T09:05:53.644Z</time></trkpt><trkpt lat="43.3810617" lon="11.396245"><ele>408.5</ele><time>2026-04-19T09:05:54.655Z</time></trkpt><trkpt lat="43.3809117" lon="11.3962467"><ele>408.0</ele><time>2026-04-19T09:05:55.652Z</time></trkpt><trkpt lat="43.3807617" lon="11.39626"><ele>408.0</ele><time>2026-04-19T09:05:56.659Z</time></trkpt><trkpt lat="43.3806083" lon="11.3962883"><ele>408.0</ele><time>2026-04-19T09:05:57.654Z</time></trkpt><trkpt lat="43.3804417" lon="11.396325"><ele>408.0</ele><time>2026-04-19T09:05:58.653Z</time></trkpt><trkpt lat="43.380265" lon="11.3963667"><ele>406.66666666666663</ele><time>2026-04-19T09:05:59.647Z</time></trkpt><trkpt lat="43.3800817" lon="11.3964067"><ele>405.3333333333333</ele><time>2026-04-19T09:06:00.65Z</time></trkpt><trkpt lat="43.3798967" lon="11.39645"><ele>404.0</ele><time>2026-04-19T09:06:01.651Z</time></trkpt><trkpt lat="43.3797117" lon="11.3964917"><ele>402.66666666666663</ele><time>2026-04-19T09:06:02.65Z</time></trkpt><trkpt lat="43.3795283" lon="11.3965417"><ele>401.33333333333337</ele><time>2026-04-19T09:06:03.648Z</time></trkpt><trkpt lat="43.37934" lon="11.3966"><ele>400.0</ele><time>2026-04-19T09:06:04.649Z</time></trkpt><trkpt lat="43.3791483" lon="11.396665"><ele>400.0</ele><time>2026-04-19T09:06:05.644Z</time></trkpt><trkpt lat="43.3789583" lon="11.3967267"><ele>400.0</ele><time>2026-04-19T09:06:06.658Z</time></trkpt><trkpt lat="43.37877" lon="11.3967883"><ele>400.0</ele><time>2026-04-19T09:06:07.649Z</time></trkpt><trkpt lat="43.3785767" lon="11.39685"><ele>398.0</ele><time>2026-04-19T09:06:08.645Z</time></trkpt><trkpt lat="43.3783883" lon="11.3969167"><ele>396.0</ele><time>2026-04-19T09:06:09.657Z</time></trkpt><trkpt lat="43.3782083" lon="11.3969767"><ele>394.0</ele><time>2026-04-19T09:06:10.652Z</time></trkpt><trkpt lat="43.3780383" lon="11.3970333"><ele>392.33333333333337</ele><time>2026-04-19T09:06:11.647Z</time></trkpt><trkpt lat="43.3778767" lon="11.39707"><ele>390.66666666666663</ele><time>2026-04-19T09:06:12.656Z</time></trkpt><trkpt lat="43.377715" lon="11.397105"><ele>389.0</ele><time>2026-04-19T09:06:13.656Z</time></trkpt><trkpt lat="43.3775567" lon="11.3971517"><ele>388.3333333333333</ele><time>2026-04-19T09:06:14.655Z</time></trkpt><trkpt lat="43.3774033" lon="11.3972167"><ele>387.66666666666663</ele><time>2026-04-19T09:06:15.653Z</time></trkpt><trkpt lat="43.3772483" lon="11.3973167"><ele>387.0</ele><time>2026-04-19T09:06:16.653Z</time></trkpt><trkpt lat="43.3771033" lon="11.3974433"><ele>387.0</ele><time>2026-04-19T09:06:17.658Z</time></trkpt><trkpt lat="43.3769683" lon="11.3975867"><ele>387.0</ele><time>2026-04-19T09:06:18.649Z</time></trkpt><trkpt lat="43.3768333" lon="11.397735"><ele>387.0</ele><time>2026-04-19T09:06:19.654Z</time></trkpt><trkpt lat="43.3766933" lon="11.3978817"><ele>385.6666666666667</ele><time>2026-04-19T09:06:20.656Z</time></trkpt><trkpt lat="43.3765367" lon="11.3980083"><ele>384.33333333333337</ele><time>2026-04-19T09:06:21.652Z</time></trkpt><trkpt lat="43.3763667" lon="11.3981067"><ele>383.0</ele><time>2026-04-19T09:06:22.649Z</time></trkpt><trkpt lat="43.3761917" lon="11.3981817"><ele>383.0</ele><time>2026-04-19T09:06:23.652Z</time></trkpt><trkpt lat="43.37602" lon="11.398245"><ele>383.0</ele><time>2026-04-19T09:06:24.654Z</time></trkpt><trkpt lat="43.375855" lon="11.3983033"><ele>383.0</ele><time>2026-04-19T09:06:25.658Z</time></trkpt><trkpt lat="43.3756933" lon="11.398365"><ele>383.0</ele><time>2026-04-19T09:06:26.654Z</time></trkpt><trkpt lat="43.3755333" lon="11.39844"><ele>383.0</ele><time>2026-04-19T09:06:27.658Z</time></trkpt><trkpt lat="43.375375" lon="11.3985267"><ele>383.0</ele><time>2026-04-19T09:06:28.656Z</time></trkpt><trkpt lat="43.3752217" lon="11.39863"><ele>383.0</ele><time>2026-04-19T09:06:29.651Z</time></trkpt><trkpt lat="43.3750767" lon="11.3987567"><ele>383.0</ele><time>2026-04-19T09:06:30.662Z</time></trkpt><trkpt lat="43.3749267" lon="11.398915"><ele>383.0</ele><time>2026-04-19T09:06:31.655Z</time></trkpt><trkpt lat="43.374765" lon="11.3990983"><ele>383.6666666666667</ele><time>2026-04-19T09:06:32.654Z</time></trkpt><trkpt lat="43.374605" lon="11.3992883"><ele>384.33333333333337</ele><time>2026-04-19T09:06:33.65Z</time></trkpt><trkpt lat="43.3744483" lon="11.399465"><ele>385.0</ele><time>2026-04-19T09:06:34.65Z</time></trkpt><trkpt lat="43.3742933" lon="11.39962"><ele>384.33333333333337</ele><time>2026-04-19T09:06:35.657Z</time></trkpt><trkpt lat="43.3741367" lon="11.3997517"><ele>383.6666666666667</ele><time>2026-04-19T09:06:36.647Z</time></trkpt><trkpt lat="43.3739683" lon="11.39986"><ele>383.0</ele><time>2026-04-19T09:06:37.652Z</time></trkpt><trkpt lat="43.3737867" lon="11.399955"><ele>383.0</ele><time>2026-04-19T09:06:38.649Z</time></trkpt><trkpt lat="43.3735933" lon="11.4000433"><ele>383.0</ele><time>2026-04-19T09:06:39.651Z</time></trkpt><trkpt lat="43.3734117" lon="11.4001317"><ele>383.0</ele><time>2026-04-19T09:06:40.656Z</time></trkpt><trkpt lat="43.3732317" lon="11.400225"><ele>383.0</ele><time>2026-04-19T09:06:41.65Z</time></trkpt><trkpt lat="43.3730533" lon="11.4003383"><ele>383.0</ele><time>2026-04-19T09:06:42.655Z</time></trkpt><trkpt lat="43.3728933" lon="11.4004867"><ele>383.0</ele><time>2026-04-19T09:06:43.651Z</time></trkpt><trkpt lat="43.3727467" lon="11.4006567"><ele>384.0</ele><time>2026-04-19T09:06:44.654Z</time></trkpt><trkpt lat="43.3726083" lon="11.4008217"><ele>385.0</ele><time>2026-04-19T09:06:45.654Z</time></trkpt><trkpt lat="43.372475" lon="11.4009783"><ele>386.0</ele><time>2026-04-19T09:06:46.647Z</time></trkpt><trkpt lat="43.372345" lon="11.4011217"><ele>386.0</ele><time>2026-04-19T09:06:47.655Z</time></trkpt><trkpt lat="43.3722267" lon="11.4012417"><ele>386.0</ele><time>2026-04-19T09:06:48.655Z</time></trkpt><trkpt lat="43.3721183" lon="11.4013467"><ele>386.0</ele><time>2026-04-19T09:06:49.658Z</time></trkpt><trkpt lat="43.37201" lon="11.40144"><ele>386.0</ele><time>2026-04-19T09:06:50.646Z</time></trkpt><trkpt lat="43.3719067" lon="11.4015483"><ele>384.75</ele><time>2026-04-19T09:06:51.651Z</time></trkpt><trkpt lat="43.3718083" lon="11.4016633"><ele>383.5</ele><time>2026-04-19T09:06:52.65Z</time></trkpt><trkpt lat="43.37173" lon="11.4018033"><ele>382.25</ele><time>2026-04-19T09:06:53.646Z</time></trkpt><trkpt lat="43.3716783" lon="11.40195"><ele>381.0</ele><time>2026-04-19T09:06:54.654Z</time></trkpt><trkpt lat="43.3716367" lon="11.4021083"><ele>380.5</ele><time>2026-04-19T09:06:55.649Z</time></trkpt><trkpt lat="43.3716267" lon="11.4022583"><ele>380.0</ele><time>2026-04-19T09:06:56.655Z</time></trkpt><trkpt lat="43.3716033" lon="11.4024083"><ele>379.5</ele><time>2026-04-19T09:06:57.647Z</time></trkpt><trkpt lat="43.371555" lon="11.4025633"><ele>379.0</ele><time>2026-04-19T09:06:58.646Z</time></trkpt><trkpt lat="43.37151" lon="11.4027183"><ele>379.0</ele><time>2026-04-19T09:06:59.65Z</time></trkpt><trkpt lat="43.37146" lon="11.4028817"><ele>379.0</ele><time>2026-04-19T09:07:00.649Z</time></trkpt><trkpt lat="43.3714017" lon="11.4030583"><ele>379.0</ele><time>2026-04-19T09:07:01.649Z</time></trkpt><trkpt lat="43.37134" lon="11.4032367"><ele>379.0</ele><time>2026-04-19T09:07:02.652Z</time></trkpt><trkpt lat="43.3712783" lon="11.4034167"><ele>376.25</ele><time>2026-04-19T09:07:03.657Z</time></trkpt><trkpt lat="43.3712083" lon="11.4035967"><ele>373.5</ele><time>2026-04-19T09:07:04.653Z</time></trkpt><trkpt lat="43.371135" lon="11.40378"><ele>370.75</ele><time>2026-04-19T09:07:05.654Z</time></trkpt><trkpt lat="43.3710683" lon="11.4039533"><ele>368.0</ele><time>2026-04-19T09:07:06.648Z</time></trkpt><trkpt lat="43.3710033" lon="11.4041133"><ele>367.5</ele><time>2026-04-19T09:07:07.647Z</time></trkpt><trkpt lat="43.3709317" lon="11.4042617"><ele>367.0</ele><time>2026-04-19T09:07:08.648Z</time></trkpt><trkpt lat="43.37085" lon="11.404385"><ele>366.5</ele><time>2026-04-19T09:07:09.65Z</time></trkpt><trkpt lat="43.3707533" lon="11.4044783"><ele>366.0</ele><time>2026-04-19T09:07:10.653Z</time></trkpt><trkpt lat="43.3706333" lon="11.404555"><ele>364.3333333333333</ele><time>2026-04-19T09:07:11.654Z</time></trkpt><trkpt lat="43.370495" lon="11.404585"><ele>362.66666666666663</ele><time>2026-04-19T09:07:12.654Z</time></trkpt><trkpt lat="43.3703367" lon="11.4045967"><ele>361.0</ele><time>2026-04-19T09:07:13.653Z</time></trkpt><trkpt lat="43.3701617" lon="11.4045683"><ele>361.0</ele><time>2026-04-19T09:07:14.655Z</time></trkpt><trkpt lat="43.3699617" lon="11.4045333"><ele>361.0</ele><time>2026-04-19T09:07:15.653Z</time></trkpt><trkpt lat="43.3697717" lon="11.4045017"><ele>361.0</ele><time>2026-04-19T09:07:16.656Z</time></trkpt><trkpt lat="43.369585" lon="11.404475"><ele>359.0</ele><time>2026-04-19T09:07:17.648Z</time></trkpt><trkpt lat="43.3693883" lon="11.4044667"><ele>357.0</ele><time>2026-04-19T09:07:18.651Z</time></trkpt><trkpt lat="43.36918" lon="11.4044717"><ele>355.0</ele><time>2026-04-19T09:07:19.65Z</time></trkpt><trkpt lat="43.36897" lon="11.4044767"><ele>354.0</ele><time>2026-04-19T09:07:20.652Z</time></trkpt><trkpt lat="43.3687683" lon="11.4044783"><ele>353.0</ele><time>2026-04-19T09:07:21.649Z</time></trkpt><trkpt lat="43.36858" lon="11.4044633"><ele>352.0</ele><time>2026-04-19T09:07:22.646Z</time></trkpt><trkpt lat="43.3683917" lon="11.4044267"><ele>352.0</ele><time>2026-04-19T09:07:23.653Z</time></trkpt><trkpt lat="43.368205" lon="11.404395"><ele>352.0</ele><time>2026-04-19T09:07:24.652Z</time></trkpt><trkpt lat="43.3680217" lon="11.4043683"><ele>352.0</ele><time>2026-04-19T09:07:25.648Z</time></trkpt><trkpt lat="43.3678417" lon="11.4043417"><ele>351.0</ele><time>2026-04-19T09:07:26.649Z</time></trkpt><trkpt lat="43.3676667" lon="11.4043117"><ele>350.0</ele><time>2026-04-19T09:07:27.654Z</time></trkpt><trkpt lat="43.367505" lon="11.40428"><ele>349.0</ele><time>2026-04-19T09:07:28.648Z</time></trkpt><trkpt lat="43.3673633" lon="11.4042567"><ele>349.0</ele><time>2026-04-19T09:07:29.648Z</time></trkpt><trkpt lat="43.3672517" lon="11.4042433"><ele>349.0</ele><time>2026-04-19T09:07:30.652Z</time></trkpt><trkpt lat="43.367155" lon="11.4042367"><ele>349.0</ele><time>2026-04-19T09:07:31.65Z</time></trkpt><trkpt lat="43.3670633" lon="11.4042483"><ele>349.0</ele><time>2026-04-19T09:07:32.656Z</time></trkpt><trkpt lat="43.36697" lon="11.4042767"><ele>349.0</ele><time>2026-04-19T09:07:33.655Z</time></trkpt><trkpt lat="43.3668783" lon="11.404315"><ele>349.0</ele><time>2026-04-19T09:07:34.646Z</time></trkpt><trkpt lat="43.3667917" lon="11.4043633"><ele>349.0</ele><time>2026-04-19T09:07:35.656Z</time></trkpt><trkpt lat="43.366715" lon="11.4044317"><ele>349.0</ele><time>2026-04-19T09:07:36.655Z</time></trkpt><trkpt lat="43.3666517" lon="11.40452"><ele>349.0</ele><time>2026-04-19T09:07:37.656Z</time></trkpt><trkpt lat="43.3665867" lon="11.40461"><ele>349.0</ele><time>2026-04-19T09:07:38.646Z</time></trkpt><trkpt lat="43.3665217" lon="11.4047083"><ele>348.75</ele><time>2026-04-19T09:07:39.661Z</time></trkpt><trkpt lat="43.3664567" lon="11.404825"><ele>348.5</ele><time>2026-04-19T09:07:40.657Z</time></trkpt><trkpt lat="43.366395" lon="11.4049633"><ele>348.25</ele><time>2026-04-19T09:07:41.653Z</time></trkpt><trkpt lat="43.3663283" lon="11.4051183"><ele>348.0</ele><time>2026-04-19T09:07:42.654Z</time></trkpt><trkpt lat="43.3662717" lon="11.40528"><ele>348.0</ele><time>2026-04-19T09:07:43.648Z</time></trkpt><trkpt lat="43.3662083" lon="11.4054467"><ele>348.0</ele><time>2026-04-19T09:07:44.655Z</time></trkpt><trkpt lat="43.36614" lon="11.4056133"><ele>348.0</ele><time>2026-04-19T09:07:45.655Z</time></trkpt><trkpt lat="43.3660733" lon="11.4057717"><ele>348.0</ele><time>2026-04-19T09:07:46.65Z</time></trkpt><trkpt lat="43.3660167" lon="11.4059183"><ele>347.3333333333333</ele><time>2026-04-19T09:07:47.652Z</time></trkpt><trkpt lat="43.3659683" lon="11.4060417"><ele>346.6666666666667</ele><time>2026-04-19T09:07:48.649Z</time></trkpt><trkpt lat="43.3659217" lon="11.40613"><ele>346.0</ele><time>2026-04-19T09:07:49.652Z</time></trkpt><trkpt lat="43.3658667" lon="11.40621"><ele>345.33333333333337</ele><time>2026-04-19T09:07:50.649Z</time></trkpt><trkpt lat="43.365805" lon="11.4062817"><ele>344.6666666666667</ele><time>2026-04-19T09:07:51.653Z</time></trkpt><trkpt lat="43.36572" lon="11.4063383"><ele>344.0</ele><time>2026-04-19T09:07:52.653Z</time></trkpt><trkpt lat="43.365615" lon="11.4063867"><ele>342.75</ele><time>2026-04-19T09:07:53.651Z</time></trkpt><trkpt lat="43.3655017" lon="11.4064367"><ele>341.5</ele><time>2026-04-19T09:07:54.654Z</time></trkpt><trkpt lat="43.36539" lon="11.4064817"><ele>340.25</ele><time>2026-04-19T09:07:55.658Z</time></trkpt><trkpt lat="43.3652717" lon="11.4064983"><ele>339.0</ele><time>2026-04-19T09:07:56.646Z</time></trkpt><trkpt lat="43.36516" lon="11.4065217"><ele>339.0</ele><time>2026-04-19T09:07:57.651Z</time></trkpt><trkpt lat="43.365055" lon="11.4065367"><ele>339.0</ele><time>2026-04-19T09:07:58.658Z</time></trkpt><trkpt lat="43.3649483" lon="11.4065367"><ele>339.0</ele><time>2026-04-19T09:07:59.653Z</time></trkpt><trkpt lat="43.3648483" lon="11.4065117"><ele>339.0</ele><time>2026-04-19T09:08:00.652Z</time></trkpt><trkpt lat="43.3647683" lon="11.4064533"><ele>339.0</ele><time>2026-04-19T09:08:01.651Z</time></trkpt><trkpt lat="43.3646817" lon="11.4063867"><ele>337.0</ele><time>2026-04-19T09:08:02.65Z</time></trkpt><trkpt lat="43.3646233" lon="11.4063017"><ele>335.0</ele><time>2026-04-19T09:08:03.658Z</time></trkpt><trkpt lat="43.3645483" lon="11.4062567"><ele>333.0</ele><time>2026-04-19T09:08:04.652Z</time></trkpt><trkpt lat="43.3644633" lon="11.4062317"><ele>331.0</ele><time>2026-04-19T09:08:05.647Z</time></trkpt><trkpt lat="43.3643683" lon="11.4062217"><ele>329.0</ele><time>2026-04-19T09:08:06.649Z</time></trkpt><trkpt lat="43.364255" lon="11.4062183"><ele>329.0</ele><time>2026-04-19T09:08:07.647Z</time></trkpt><trkpt lat="43.364125" lon="11.4062533"><ele>329.0</ele><time>2026-04-19T09:08:08.651Z</time></trkpt><trkpt lat="43.3639733" lon="11.40633"><ele>329.0</ele><time>2026-04-19T09:08:09.647Z</time></trkpt><trkpt lat="43.3638083" lon="11.4064367"><ele>325.6666666666667</ele><time>2026-04-19T09:08:10.65Z</time></trkpt><trkpt lat="43.3636267" lon="11.40656"><ele>322.3333333333333</ele><time>2026-04-19T09:08:11.656Z</time></trkpt><trkpt lat="43.3634517" lon="11.406675"><ele>319.0</ele><time>2026-04-19T09:08:12.653Z</time></trkpt><trkpt lat="43.363285" lon="11.4067833"><ele>319.0</ele><time>2026-04-19T09:08:13.657Z</time></trkpt><trkpt lat="43.3631183" lon="11.4068883"><ele>319.0</ele><time>2026-04-19T09:08:14.654Z</time></trkpt><trkpt lat="43.3629483" lon="11.4069867"><ele>319.0</ele><time>2026-04-19T09:08:15.657Z</time></trkpt><trkpt lat="43.3627767" lon="11.407075"><ele>317.3333333333333</ele><time>2026-04-19T09:08:16.655Z</time></trkpt><trkpt lat="43.3626" lon="11.407155"><ele>315.6666666666667</ele><time>2026-04-19T09:08:17.651Z</time></trkpt><trkpt lat="43.3624183" lon="11.407225"><ele>314.0</ele><time>2026-04-19T09:08:18.652Z</time></trkpt><trkpt lat="43.3622317" lon="11.4072917"><ele>311.33333333333337</ele><time>2026-04-19T09:08:19.654Z</time></trkpt><trkpt lat="43.3620467" lon="11.407345"><ele>308.6666666666667</ele><time>2026-04-19T09:08:20.659Z</time></trkpt><trkpt lat="43.3618633" lon="11.407395"><ele>306.0</ele><time>2026-04-19T09:08:21.648Z</time></trkpt><trkpt lat="43.3616833" lon="11.40744"><ele>306.0</ele><time>2026-04-19T09:08:22.654Z</time></trkpt><trkpt lat="43.3614983" lon="11.4074817"><ele>306.0</ele><time>2026-04-19T09:08:23.645Z</time></trkpt><trkpt lat="43.3613183" lon="11.4075117"><ele>306.0</ele><time>2026-04-19T09:08:24.653Z</time></trkpt><trkpt lat="43.3611333" lon="11.4075333"><ele>303.3333333333333</ele><time>2026-04-19T09:08:25.657Z</time></trkpt><trkpt lat="43.360945" lon="11.4075467"><ele>300.66666666666663</ele><time>2026-04-19T09:08:26.654Z</time></trkpt><trkpt lat="43.3607533" lon="11.4075467"><ele>298.0</ele><time>2026-04-19T09:08:27.657Z</time></trkpt><trkpt lat="43.3605633" lon="11.4075283"><ele>297.0</ele><time>2026-04-19T09:08:28.648Z</time></trkpt><trkpt lat="43.360385" lon="11.407495"><ele>296.0</ele><time>2026-04-19T09:08:29.658Z</time></trkpt><trkpt lat="43.3602117" lon="11.4074567"><ele>295.0</ele><time>2026-04-19T09:08:30.654Z</time></trkpt><trkpt lat="43.360055" lon="11.4074167"><ele>295.0</ele><time>2026-04-19T09:08:31.661Z</time></trkpt><trkpt lat="43.3599217" lon="11.4073817"><ele>295.0</ele><time>2026-04-19T09:08:32.654Z</time></trkpt><trkpt lat="43.3598033" lon="11.4073683"><ele>295.0</ele><time>2026-04-19T09:08:33.652Z</time></trkpt><trkpt lat="43.35969" lon="11.4073833"><ele>295.0</ele><time>2026-04-19T09:08:34.652Z</time></trkpt><trkpt lat="43.35959" lon="11.4074283"><ele>295.2</ele><time>2026-04-19T09:08:35.656Z</time></trkpt><trkpt lat="43.359515" lon="11.407525"><ele>295.4</ele><time>2026-04-19T09:08:36.65Z</time></trkpt><trkpt lat="43.359465" lon="11.4076483"><ele>295.6</ele><time>2026-04-19T09:08:37.651Z</time></trkpt><trkpt lat="43.3594367" lon="11.4077867"><ele>295.8</ele><time>2026-04-19T09:08:38.648Z</time></trkpt><trkpt lat="43.3594217" lon="11.407925"><ele>296.0</ele><time>2026-04-19T09:08:39.659Z</time></trkpt><trkpt lat="43.3594283" lon="11.40807"><ele>294.6</ele><time>2026-04-19T09:08:40.66Z</time></trkpt><trkpt lat="43.359445" lon="11.4082067"><ele>293.20000000000005</ele><time>2026-04-19T09:08:41.651Z</time></trkpt><trkpt lat="43.3594717" lon="11.4083517"><ele>291.79999999999995</ele><time>2026-04-19T09:08:42.648Z</time></trkpt><trkpt lat="43.35952" lon="11.40848"><ele>290.4</ele><time>2026-04-19T09:08:43.657Z</time></trkpt><trkpt lat="43.3595967" lon="11.4086"><ele>289.0</ele><time>2026-04-19T09:08:44.652Z</time></trkpt><trkpt lat="43.3596983" lon="11.40874"><ele>286.0</ele><time>2026-04-19T09:08:45.655Z</time></trkpt><trkpt lat="43.3598267" lon="11.4088517"><ele>283.0</ele><time>2026-04-19T09:08:46.651Z</time></trkpt><trkpt lat="43.35997" lon="11.40895"><ele>280.0</ele><time>2026-04-19T09:08:47.649Z</time></trkpt><trkpt lat="43.3601117" lon="11.4090483"><ele>280.0</ele><time>2026-04-19T09:08:48.657Z</time></trkpt><trkpt lat="43.360245" lon="11.4091667"><ele>280.0</ele><time>2026-04-19T09:08:49.652Z</time></trkpt><trkpt lat="43.36037" lon="11.4093233"><ele>280.0</ele><time>2026-04-19T09:08:50.649Z</time></trkpt><trkpt lat="43.3604817" lon="11.4094867"><ele>280.3333333333333</ele><time>2026-04-19T09:08:51.652Z</time></trkpt><trkpt lat="43.3605783" lon="11.409655"><ele>280.6666666666667</ele><time>2026-04-19T09:08:52.649Z</time></trkpt><trkpt lat="43.3606583" lon="11.409835"><ele>281.0</ele><time>2026-04-19T09:08:53.651Z</time></trkpt><trkpt lat="43.3607417" lon="11.4100033"><ele>281.0</ele><time>2026-04-19T09:08:54.653Z</time></trkpt><trkpt lat="43.3608083" lon="11.4101733"><ele>281.0</ele><time>2026-04-19T09:08:55.653Z</time></trkpt><trkpt lat="43.3608633" lon="11.41034"><ele>281.0</ele><time>2026-04-19T09:08:56.645Z</time></trkpt><trkpt lat="43.360895" lon="11.4104917"><ele>281.0</ele><time>2026-04-19T09:08:57.65Z</time></trkpt><trkpt lat="43.3608767" lon="11.4106283"><ele>280.40000000000003</ele><time>2026-04-19T09:08:58.649Z</time></trkpt><trkpt lat="43.3608583" lon="11.4107683"><ele>279.8</ele><time>2026-04-19T09:08:59.658Z</time></trkpt><trkpt lat="43.36081" lon="11.4108683"><ele>279.20000000000005</ele><time>2026-04-19T09:09:00.651Z</time></trkpt><trkpt lat="43.3607167" lon="11.41094"><ele>278.6</ele><time>2026-04-19T09:09:01.652Z</time></trkpt><trkpt lat="43.3605733" lon="11.4109617"><ele>278.0</ele><time>2026-04-19T09:09:02.655Z</time></trkpt><trkpt lat="43.3604267" lon="11.410965"><ele>276.0</ele><time>2026-04-19T09:09:03.652Z</time></trkpt><trkpt lat="43.360225" lon="11.4110217"><ele>274.0</ele><time>2026-04-19T09:09:04.653Z</time></trkpt><trkpt lat="43.3601517" lon="11.4111233"><ele>272.0</ele><time>2026-04-19T09:09:05.648Z</time></trkpt><trkpt lat="43.36008" lon="11.4112083"><ele>270.0</ele><time>2026-04-19T09:09:06.646Z</time></trkpt><trkpt lat="43.3600083" lon="11.4112883"><ele>270.0</ele><time>2026-04-19T09:09:07.65Z</time></trkpt><trkpt lat="43.35995" lon="11.41139"><ele>270.0</ele><time>2026-04-19T09:09:08.652Z</time></trkpt><trkpt lat="43.3599217" lon="11.4115133"><ele>270.0</ele><time>2026-04-19T09:09:09.654Z</time></trkpt><trkpt lat="43.359935" lon="11.4116567"><ele>270.0</ele><time>2026-04-19T09:09:10.652Z</time></trkpt><trkpt lat="43.3599133" lon="11.4117933"><ele>270.0</ele><time>2026-04-19T09:09:11.651Z</time></trkpt><trkpt lat="43.3598933" lon="11.411905"><ele>270.0</ele><time>2026-04-19T09:09:12.644Z</time></trkpt><trkpt lat="43.3598633" lon="11.411995"><ele>270.0</ele><time>2026-04-19T09:09:13.646Z</time></trkpt><trkpt lat="43.3598167" lon="11.412105"><ele>270.0</ele><time>2026-04-19T09:09:15.648Z</time></trkpt><trkpt lat="43.359725" lon="11.4120833"><ele>270.0</ele><time>2026-04-19T09:09:17.654Z</time></trkpt><trkpt lat="43.35961" lon="11.4119183"><ele>270.0</ele><time>2026-04-19T09:09:19.649Z</time></trkpt><trkpt lat="43.359525" lon="11.4117517"><ele>268.5</ele><time>2026-04-19T09:09:20.654Z</time></trkpt><trkpt lat="43.3594467" lon="11.411555"><ele>267.0</ele><time>2026-04-19T09:09:21.652Z</time></trkpt><trkpt lat="43.35937" lon="11.411405"><ele>265.5</ele><time>2026-04-19T09:09:22.646Z</time></trkpt><trkpt lat="43.3593033" lon="11.4112833"><ele>264.0</ele><time>2026-04-19T09:09:23.654Z</time></trkpt><trkpt lat="43.3592517" lon="11.41117"><ele>264.0</ele><time>2026-04-19T09:09:24.65Z</time></trkpt><trkpt lat="43.359185" lon="11.4110967"><ele>264.0</ele><time>2026-04-19T09:09:25.647Z</time></trkpt><trkpt lat="43.3591117" lon="11.4110417"><ele>264.0</ele><time>2026-04-19T09:09:26.65Z</time></trkpt><trkpt lat="43.35905" lon="11.4110233"><ele>264.0</ele><time>2026-04-19T09:09:27.65Z</time></trkpt><trkpt lat="43.35895" lon="11.41109"><ele>264.0</ele><time>2026-04-19T09:09:29.65Z</time></trkpt><trkpt lat="43.3589517" lon="11.4112183"><ele>264.0</ele><time>2026-04-19T09:09:30.649Z</time></trkpt><trkpt lat="43.35894" lon="11.4114317"><ele>262.5</ele><time>2026-04-19T09:09:31.65Z</time></trkpt><trkpt lat="43.3589317" lon="11.4115433"><ele>261.0</ele><time>2026-04-19T09:09:32.654Z</time></trkpt><trkpt lat="43.3589233" lon="11.4117567"><ele>259.5</ele><time>2026-04-19T09:09:33.654Z</time></trkpt><trkpt lat="43.358875" lon="11.4119617"><ele>258.0</ele><time>2026-04-19T09:09:34.648Z</time></trkpt><trkpt lat="43.3587983" lon="11.4121517"><ele>255.25</ele><time>2026-04-19T09:09:35.649Z</time></trkpt><trkpt lat="43.3587133" lon="11.41229"><ele>252.5</ele><time>2026-04-19T09:09:36.645Z</time></trkpt><trkpt lat="43.35863" lon="11.4124067"><ele>249.75</ele><time>2026-04-19T09:09:38.653Z</time></trkpt><trkpt lat="43.3585167" lon="11.4124583"><ele>247.0</ele><time>2026-04-19T09:09:39.655Z</time></trkpt><trkpt lat="43.3583867" lon="11.4124767"><ele>247.0</ele><time>2026-04-19T09:09:40.651Z</time></trkpt><trkpt lat="43.3581533" lon="11.41242"><ele>247.0</ele><time>2026-04-19T09:09:41.655Z</time></trkpt><trkpt lat="43.3579517" lon="11.4124083"><ele>247.0</ele><time>2026-04-19T09:09:42.652Z</time></trkpt><trkpt lat="43.35778" lon="11.4123983"><ele>245.75</ele><time>2026-04-19T09:09:43.652Z</time></trkpt><trkpt lat="43.3576467" lon="11.4124017"><ele>244.5</ele><time>2026-04-19T09:09:44.647Z</time></trkpt><trkpt lat="43.35752" lon="11.4124133"><ele>243.25</ele><time>2026-04-19T09:09:45.649Z</time></trkpt><trkpt lat="43.35739" lon="11.4124083"><ele>242.0</ele><time>2026-04-19T09:09:46.652Z</time></trkpt><trkpt lat="43.3572683" lon="11.4124333"><ele>240.75</ele><time>2026-04-19T09:09:47.658Z</time></trkpt><trkpt lat="43.3571617" lon="11.412495"><ele>239.5</ele><time>2026-04-19T09:09:48.647Z</time></trkpt><trkpt lat="43.3570633" lon="11.4126233"><ele>238.25</ele><time>2026-04-19T09:09:49.65Z</time></trkpt><trkpt lat="43.35697" lon="11.4127733"><ele>237.0</ele><time>2026-04-19T09:09:50.653Z</time></trkpt><trkpt lat="43.3568683" lon="11.41298"><ele>236.0</ele><time>2026-04-19T09:09:51.655Z</time></trkpt><trkpt lat="43.35679" lon="11.4132183"><ele>235.0</ele><time>2026-04-19T09:09:52.652Z</time></trkpt><trkpt lat="43.3567283" lon="11.41349"><ele>234.0</ele><time>2026-04-19T09:09:53.648Z</time></trkpt><trkpt lat="43.3566867" lon="11.4137817"><ele>233.0</ele><time>2026-04-19T09:09:54.651Z</time></trkpt><trkpt lat="43.3566467" lon="11.4140517"><ele>232.0</ele><time>2026-04-19T09:09:55.647Z</time></trkpt><trkpt lat="43.3566033" lon="11.4143017"><ele>231.0</ele><time>2026-04-19T09:09:56.65Z</time></trkpt><trkpt lat="43.3565567" lon="11.4145283"><ele>229.66666666666669</ele><time>2026-04-19T09:09:57.652Z</time></trkpt><trkpt lat="43.3565133" lon="11.4147417"><ele>228.33333333333334</ele><time>2026-04-19T09:09:58.652Z</time></trkpt><trkpt lat="43.3564733" lon="11.4149467"><ele>227.0</ele><time>2026-04-19T09:09:59.657Z</time></trkpt><trkpt lat="43.3564367" lon="11.4151483"><ele>227.0</ele><time>2026-04-19T09:10:00.648Z</time></trkpt><trkpt lat="43.3563983" lon="11.4153433"><ele>227.0</ele><time>2026-04-19T09:10:01.649Z</time></trkpt><trkpt lat="43.3563617" lon="11.4155117"><ele>227.0</ele><time>2026-04-19T09:10:02.655Z</time></trkpt><trkpt lat="43.3563283" lon="11.4156617"><ele>227.0</ele><time>2026-04-19T09:10:03.644Z</time></trkpt><trkpt lat="43.3562867" lon="11.4157883"><ele>226.0</ele><time>2026-04-19T09:10:04.646Z</time></trkpt><trkpt lat="43.3562283" lon="11.41588"><ele>225.0</ele><time>2026-04-19T09:10:05.647Z</time></trkpt><trkpt lat="43.35615" lon="11.415955"><ele>224.0</ele><time>2026-04-19T09:10:06.655Z</time></trkpt><trkpt lat="43.3560483" lon="11.4160017"><ele>223.0</ele><time>2026-04-19T09:10:07.653Z</time></trkpt><trkpt lat="43.3559283" lon="11.41605"><ele>222.0</ele><time>2026-04-19T09:10:08.652Z</time></trkpt><trkpt lat="43.3557983" lon="11.41611"><ele>222.0</ele><time>2026-04-19T09:10:09.649Z</time></trkpt><trkpt lat="43.35566" lon="11.4161883"><ele>222.0</ele><time>2026-04-19T09:10:10.65Z</time></trkpt><trkpt lat="43.3555283" lon="11.4162633"><ele>222.0</ele><time>2026-04-19T09:10:11.652Z</time></trkpt><trkpt lat="43.3553933" lon="11.4163233"><ele>222.0</ele><time>2026-04-19T09:10:12.656Z</time></trkpt><trkpt lat="43.3552667" lon="11.4163683"><ele>221.33333333333331</ele><time>2026-04-19T09:10:13.657Z</time></trkpt><trkpt lat="43.3551183" lon="11.4163817"><ele>220.66666666666666</ele><time>2026-04-19T09:10:14.65Z</time></trkpt><trkpt lat="43.35496" lon="11.416355"><ele>220.0</ele><time>2026-04-19T09:10:15.652Z</time></trkpt><trkpt lat="43.354775" lon="11.4163083"><ele>221.66666666666666</ele><time>2026-04-19T09:10:16.649Z</time></trkpt><trkpt lat="43.3545883" lon="11.4162717"><ele>223.33333333333331</ele><time>2026-04-19T09:10:17.657Z</time></trkpt><trkpt lat="43.3544217" lon="11.416245"><ele>225.0</ele><time>2026-04-19T09:10:18.653Z</time></trkpt><trkpt lat="43.354255" lon="11.4162117"><ele>225.0</ele><time>2026-04-19T09:10:19.651Z</time></trkpt><trkpt lat="43.3540917" lon="11.4161833"><ele>225.0</ele><time>2026-04-19T09:10:20.651Z</time></trkpt><trkpt lat="43.3539233" lon="11.416155"><ele>225.0</ele><time>2026-04-19T09:10:21.654Z</time></trkpt><trkpt lat="43.3537567" lon="11.416125"><ele>224.33333333333331</ele><time>2026-04-19T09:10:22.65Z</time></trkpt><trkpt lat="43.353595" lon="11.41609"><ele>223.66666666666666</ele><time>2026-04-19T09:10:23.648Z</time></trkpt><trkpt lat="43.3534317" lon="11.4160467"><ele>223.0</ele><time>2026-04-19T09:10:24.654Z</time></trkpt><trkpt lat="43.3532717" lon="11.4159983"><ele>223.0</ele><time>2026-04-19T09:10:25.65Z</time></trkpt><trkpt lat="43.35311" lon="11.4159533"><ele>223.0</ele><time>2026-04-19T09:10:26.651Z</time></trkpt><trkpt lat="43.3529533" lon="11.415905"><ele>223.0</ele><time>2026-04-19T09:10:27.649Z</time></trkpt><trkpt lat="43.3527967" lon="11.4158567"><ele>223.0</ele><time>2026-04-19T09:10:28.651Z</time></trkpt><trkpt lat="43.3526333" lon="11.4158017"><ele>223.0</ele><time>2026-04-19T09:10:29.652Z</time></trkpt><trkpt lat="43.3524767" lon="11.415755"><ele>223.0</ele><time>2026-04-19T09:10:30.649Z</time></trkpt><trkpt lat="43.35234" lon="11.415705"><ele>223.0</ele><time>2026-04-19T09:10:31.648Z</time></trkpt><trkpt lat="43.3522233" lon="11.4156567"><ele>223.0</ele><time>2026-04-19T09:10:32.645Z</time></trkpt><trkpt lat="43.3521333" lon="11.4156233"><ele>223.0</ele><time>2026-04-19T09:10:33.651Z</time></trkpt><trkpt lat="43.3520467" lon="11.4155917"><ele>223.0</ele><time>2026-04-19T09:10:34.654Z</time></trkpt><trkpt lat="43.3519733" lon="11.4155617"><ele>223.0</ele><time>2026-04-19T09:10:35.651Z</time></trkpt><trkpt lat="43.35188" lon="11.4155433"><ele>222.60000000000002</ele><time>2026-04-19T09:10:37.648Z</time></trkpt><trkpt lat="43.35182" lon="11.4155867"><ele>222.20000000000002</ele><time>2026-04-19T09:10:42.652Z</time></trkpt><trkpt lat="43.3517817" lon="11.4155"><ele>221.8</ele><time>2026-04-19T09:13:25.654Z</time></trkpt><trkpt lat="43.3516817" lon="11.4154717"><ele>221.4</ele><time>2026-04-19T09:13:27.647Z</time></trkpt><trkpt lat="43.3515783" lon="11.4154533"><ele>221.0</ele><time>2026-04-19T09:13:28.644Z</time></trkpt><trkpt lat="43.351455" lon="11.4154317"><ele>220.75</ele><time>2026-04-19T09:13:29.655Z</time></trkpt><trkpt lat="43.3513133" lon="11.4154"><ele>220.5</ele><time>2026-04-19T09:13:30.651Z</time></trkpt><trkpt lat="43.3511833" lon="11.415375"><ele>220.25</ele><time>2026-04-19T09:13:31.653Z</time></trkpt><trkpt lat="43.3510467" lon="11.4153483"><ele>220.0</ele><time>2026-04-19T09:13:32.656Z</time></trkpt><trkpt lat="43.3509117" lon="11.4153267"><ele>220.0</ele><time>2026-04-19T09:13:33.654Z</time></trkpt><trkpt lat="43.3507667" lon="11.415295"><ele>220.0</ele><time>2026-04-19T09:13:34.647Z</time></trkpt><trkpt lat="43.35062" lon="11.4152517"><ele>220.0</ele><time>2026-04-19T09:13:35.652Z</time></trkpt><trkpt lat="43.3504717" lon="11.4151883"><ele>222.0</ele><time>2026-04-19T09:13:36.652Z</time></trkpt><trkpt lat="43.3503233" lon="11.4151083"><ele>224.0</ele><time>2026-04-19T09:13:37.647Z</time></trkpt><trkpt lat="43.3501717" lon="11.4150067"><ele>226.0</ele><time>2026-04-19T09:13:38.651Z</time></trkpt><trkpt lat="43.3500233" lon="11.4148933"><ele>226.0</ele><time>2026-04-19T09:13:39.645Z</time></trkpt><trkpt lat="43.3498867" lon="11.4147483"><ele>226.0</ele><time>2026-04-19T09:13:40.653Z</time></trkpt><trkpt lat="43.34976" lon="11.4145617"><ele>226.0</ele><time>2026-04-19T09:13:41.653Z</time></trkpt><trkpt lat="43.3496433" lon="11.4143567"><ele>226.33333333333331</ele><time>2026-04-19T09:13:42.646Z</time></trkpt><trkpt lat="43.349535" lon="11.4141167"><ele>226.66666666666669</ele><time>2026-04-19T09:13:43.646Z</time></trkpt><trkpt lat="43.34944" lon="11.4138667"><ele>227.0</ele><time>2026-04-19T09:13:44.652Z</time></trkpt><trkpt lat="43.3493483" lon="11.413645"><ele>227.0</ele><time>2026-04-19T09:13:45.65Z</time></trkpt><trkpt lat="43.349245" lon="11.41344"><ele>227.0</ele><time>2026-04-19T09:13:46.651Z</time></trkpt><trkpt lat="43.34914" lon="11.413225"><ele>227.0</ele><time>2026-04-19T09:13:47.653Z</time></trkpt><trkpt lat="43.3490233" lon="11.4130183"><ele>226.33333333333334</ele><time>2026-04-19T09:13:48.654Z</time></trkpt><trkpt lat="43.34891" lon="11.4128083"><ele>225.66666666666669</ele><time>2026-04-19T09:13:49.647Z</time></trkpt><trkpt lat="43.3488067" lon="11.4125917"><ele>225.0</ele><time>2026-04-19T09:13:50.647Z</time></trkpt><trkpt lat="43.3487167" lon="11.4123767"><ele>226.75</ele><time>2026-04-19T09:13:51.649Z</time></trkpt><trkpt lat="43.3486567" lon="11.41217"><ele>228.5</ele><time>2026-04-19T09:13:52.646Z</time></trkpt><trkpt lat="43.348605" lon="11.4119783"><ele>230.25</ele><time>2026-04-19T09:13:53.649Z</time></trkpt><trkpt lat="43.34856" lon="11.4118083"><ele>232.0</ele><time>2026-04-19T09:13:54.653Z</time></trkpt><trkpt lat="43.3485233" lon="11.4116683"><ele>231.99999999999997</ele><time>2026-04-19T09:13:55.65Z</time></trkpt><trkpt lat="43.3484783" lon="11.4115783"><ele>232.0</ele><time>2026-04-19T09:13:57.654Z</time></trkpt><trkpt lat="43.3484633" lon="11.411665"><ele>232.0</ele><time>2026-04-19T09:13:59.648Z</time></trkpt><trkpt lat="43.3484267" lon="11.41175"><ele>232.0</ele><time>2026-04-19T09:14:00.647Z</time></trkpt><trkpt lat="43.34836" lon="11.4118617"><ele>231.99999999999997</ele><time>2026-04-19T09:14:01.66Z</time></trkpt><trkpt lat="43.3482717" lon="11.4119783"><ele>232.0</ele><time>2026-04-19T09:14:02.647Z</time></trkpt><trkpt lat="43.3481633" lon="11.4121017"><ele>232.0</ele><time>2026-04-19T09:14:03.651Z</time></trkpt><trkpt lat="43.3480633" lon="11.4122067"><ele>232.0</ele><time>2026-04-19T09:14:04.651Z</time></trkpt><trkpt lat="43.3479467" lon="11.4123183"><ele>232.0</ele><time>2026-04-19T09:14:05.65Z</time></trkpt><trkpt lat="43.34782" lon="11.412445"><ele>232.0</ele><time>2026-04-19T09:14:06.655Z</time></trkpt><trkpt lat="43.3476933" lon="11.412565"><ele>234.33333333333331</ele><time>2026-04-19T09:14:07.653Z</time></trkpt><trkpt lat="43.347565" lon="11.4126917"><ele>236.66666666666669</ele><time>2026-04-19T09:14:08.656Z</time></trkpt><trkpt lat="43.3474333" lon="11.412815"><ele>239.0</ele><time>2026-04-19T09:14:09.654Z</time></trkpt><trkpt lat="43.347305" lon="11.4129383"><ele>239.25</ele><time>2026-04-19T09:14:10.653Z</time></trkpt><trkpt lat="43.3471833" lon="11.4130583"><ele>239.5</ele><time>2026-04-19T09:14:11.646Z</time></trkpt><trkpt lat="43.347065" lon="11.41318"><ele>239.75</ele><time>2026-04-19T09:14:12.653Z</time></trkpt><trkpt lat="43.3469483" lon="11.4133"><ele>240.0</ele><time>2026-04-19T09:14:13.653Z</time></trkpt><trkpt lat="43.3468267" lon="11.413415"><ele>240.0</ele><time>2026-04-19T09:14:14.652Z</time></trkpt><trkpt lat="43.3467133" lon="11.4135117"><ele>240.0</ele><time>2026-04-19T09:14:15.654Z</time></trkpt><trkpt lat="43.34659" lon="11.4135867"><ele>240.0</ele><time>2026-04-19T09:14:16.655Z</time></trkpt><trkpt lat="43.3464617" lon="11.4136767"><ele>240.0</ele><time>2026-04-19T09:14:17.653Z</time></trkpt><trkpt lat="43.3463317" lon="11.4137617"><ele>238.0</ele><time>2026-04-19T09:14:18.655Z</time></trkpt><trkpt lat="43.3461967" lon="11.41386"><ele>236.0</ele><time>2026-04-19T09:14:19.646Z</time></trkpt><trkpt lat="43.3460617" lon="11.41396"><ele>234.0</ele><time>2026-04-19T09:14:20.656Z</time></trkpt><trkpt lat="43.3459283" lon="11.4140567"><ele>234.0</ele><time>2026-04-19T09:14:21.659Z</time></trkpt><trkpt lat="43.34579" lon="11.4141533"><ele>234.0</ele><time>2026-04-19T09:14:22.651Z</time></trkpt><trkpt lat="43.34565" lon="11.414255"><ele>234.0</ele><time>2026-04-19T09:14:23.65Z</time></trkpt><trkpt lat="43.345505" lon="11.4143617"><ele>233.33333333333331</ele><time>2026-04-19T09:14:24.649Z</time></trkpt><trkpt lat="43.3453583" lon="11.4144733"><ele>232.66666666666666</ele><time>2026-04-19T09:14:25.652Z</time></trkpt><trkpt lat="43.3452117" lon="11.4145817"><ele>232.0</ele><time>2026-04-19T09:14:26.649Z</time></trkpt><trkpt lat="43.345065" lon="11.4146867"><ele>232.0</ele><time>2026-04-19T09:14:27.652Z</time></trkpt><trkpt lat="43.3449167" lon="11.4148"><ele>232.0</ele><time>2026-04-19T09:14:28.659Z</time></trkpt><trkpt lat="43.3447683" lon="11.4149133"><ele>232.0</ele><time>2026-04-19T09:14:29.646Z</time></trkpt><trkpt lat="43.34462" lon="11.415025"><ele>233.0</ele><time>2026-04-19T09:14:30.656Z</time></trkpt><trkpt lat="43.3444717" lon="11.4151333"><ele>234.0</ele><time>2026-04-19T09:14:31.649Z</time></trkpt><trkpt lat="43.3443183" lon="11.4152433"><ele>235.0</ele><time>2026-04-19T09:14:32.65Z</time></trkpt><trkpt lat="43.3441567" lon="11.4153533"><ele>235.0</ele><time>2026-04-19T09:14:33.649Z</time></trkpt><trkpt lat="43.34399" lon="11.4154633"><ele>235.0</ele><time>2026-04-19T09:14:34.655Z</time></trkpt><trkpt lat="43.3438267" lon="11.4155733"><ele>235.0</ele><time>2026-04-19T09:14:35.655Z</time></trkpt><trkpt lat="43.3436633" lon="11.4156833"><ele>233.33333333333331</ele><time>2026-04-19T09:14:36.654Z</time></trkpt><trkpt lat="43.3435" lon="11.4157917"><ele>231.66666666666669</ele><time>2026-04-19T09:14:37.653Z</time></trkpt><trkpt lat="43.3433283" lon="11.415905"><ele>230.0</ele><time>2026-04-19T09:14:38.658Z</time></trkpt><trkpt lat="43.3431533" lon="11.4160233"><ele>229.33333333333334</ele><time>2026-04-19T09:14:39.656Z</time></trkpt><trkpt lat="43.3429817" lon="11.4161417"><ele>228.66666666666669</ele><time>2026-04-19T09:14:40.654Z</time></trkpt><trkpt lat="43.3428133" lon="11.4162567"><ele>228.0</ele><time>2026-04-19T09:14:41.65Z</time></trkpt><trkpt lat="43.342645" lon="11.41637"><ele>228.0</ele><time>2026-04-19T09:14:42.647Z</time></trkpt><trkpt lat="43.3424767" lon="11.41649"><ele>228.0</ele><time>2026-04-19T09:14:43.647Z</time></trkpt><trkpt lat="43.3423117" lon="11.4166067"><ele>228.0</ele><time>2026-04-19T09:14:44.651Z</time></trkpt><trkpt lat="43.3421517" lon="11.4167183"><ele>229.66666666666669</ele><time>2026-04-19T09:14:45.657Z</time></trkpt><trkpt lat="43.3419883" lon="11.4168317"><ele>231.33333333333334</ele><time>2026-04-19T09:14:46.652Z</time></trkpt><trkpt lat="43.341825" lon="11.4169467"><ele>233.0</ele><time>2026-04-19T09:14:47.657Z</time></trkpt><trkpt lat="43.3416633" lon="11.417065"><ele>230.66666666666669</ele><time>2026-04-19T09:14:48.646Z</time></trkpt><trkpt lat="43.3415033" lon="11.4171833"><ele>228.33333333333331</ele><time>2026-04-19T09:14:49.657Z</time></trkpt><trkpt lat="43.3413483" lon="11.417295"><ele>226.0</ele><time>2026-04-19T09:14:50.646Z</time></trkpt><trkpt lat="43.341195" lon="11.4174033"><ele>226.0</ele><time>2026-04-19T09:14:51.647Z</time></trkpt><trkpt lat="43.3410433" lon="11.4175133"><ele>226.0</ele><time>2026-04-19T09:14:52.649Z</time></trkpt><trkpt lat="43.34089" lon="11.4176233"><ele>226.0</ele><time>2026-04-19T09:14:53.65Z</time></trkpt><trkpt lat="43.3407367" lon="11.4177333"><ele>226.0</ele><time>2026-04-19T09:14:54.659Z</time></trkpt><trkpt lat="43.340585" lon="11.4178417"><ele>226.0</ele><time>2026-04-19T09:14:55.65Z</time></trkpt><trkpt lat="43.3404383" lon="11.417945"><ele>226.0</ele><time>2026-04-19T09:14:56.655Z</time></trkpt><trkpt lat="43.3403033" lon="11.4180433"><ele>225.75</ele><time>2026-04-19T09:14:57.644Z</time></trkpt><trkpt lat="43.3401767" lon="11.4181367"><ele>225.5</ele><time>2026-04-19T09:14:58.647Z</time></trkpt><trkpt lat="43.3400583" lon="11.4182267"><ele>225.25</ele><time>2026-04-19T09:14:59.652Z</time></trkpt><trkpt lat="43.3399483" lon="11.4183117"><ele>225.0</ele><time>2026-04-19T09:15:00.661Z</time></trkpt><trkpt lat="43.3398533" lon="11.418395"><ele>225.0</ele><time>2026-04-19T09:15:01.649Z</time></trkpt><trkpt lat="43.3397733" lon="11.4185"><ele>225.0</ele><time>2026-04-19T09:15:02.65Z</time></trkpt><trkpt lat="43.33971" lon="11.4186267"><ele>225.0</ele><time>2026-04-19T09:15:03.652Z</time></trkpt><trkpt lat="43.3396617" lon="11.4187867"><ele>225.0</ele><time>2026-04-19T09:15:04.652Z</time></trkpt><trkpt lat="43.3396283" lon="11.4189833"><ele>224.75</ele><time>2026-04-19T09:15:05.652Z</time></trkpt><trkpt lat="43.339595" lon="11.41919"><ele>224.5</ele><time>2026-04-19T09:15:06.653Z</time></trkpt><trkpt lat="43.33957" lon="11.4193883"><ele>224.25</ele><time>2026-04-19T09:15:07.652Z</time></trkpt><trkpt lat="43.3395333" lon="11.41956"><ele>224.0</ele><time>2026-04-19T09:15:08.645Z</time></trkpt><trkpt lat="43.339495" lon="11.4197167"><ele>223.6</ele><time>2026-04-19T09:15:09.647Z</time></trkpt><trkpt lat="43.339455" lon="11.4198567"><ele>223.2</ele><time>2026-04-19T09:15:10.647Z</time></trkpt><trkpt lat="43.339415" lon="11.4199733"><ele>222.79999999999998</ele><time>2026-04-19T09:15:11.652Z</time></trkpt><trkpt lat="43.3393833" lon="11.4200717"><ele>222.39999999999998</ele><time>2026-04-19T09:15:12.65Z</time></trkpt><trkpt lat="43.339395" lon="11.4202267"><ele>222.0</ele><time>2026-04-19T09:15:14.654Z</time></trkpt><trkpt lat="43.3394683" lon="11.4203617"><ele>222.0</ele><time>2026-04-19T09:15:16.655Z</time></trkpt><trkpt lat="43.3395083" lon="11.4204433"><ele>222.0</ele><time>2026-04-19T09:15:17.653Z</time></trkpt><trkpt lat="43.3395583" lon="11.4205283"><ele>222.0</ele><time>2026-04-19T09:15:18.654Z</time></trkpt><trkpt lat="43.339595" lon="11.42062"><ele>222.0</ele><time>2026-04-19T09:15:19.655Z</time></trkpt><trkpt lat="43.3396" lon="11.4207217"><ele>222.0</ele><time>2026-04-19T09:15:20.654Z</time></trkpt><trkpt lat="43.3395933" lon="11.4208517"><ele>222.0</ele><time>2026-04-19T09:15:21.65Z</time></trkpt><trkpt lat="43.3395517" lon="11.4209967"><ele>220.5</ele><time>2026-04-19T09:15:22.653Z</time></trkpt><trkpt lat="43.3394867" lon="11.4211367"><ele>219.0</ele><time>2026-04-19T09:15:23.651Z</time></trkpt><trkpt lat="43.3394217" lon="11.4212767"><ele>217.5</ele><time>2026-04-19T09:15:24.65Z</time></trkpt><trkpt lat="43.33937" lon="11.4214267"><ele>216.0</ele><time>2026-04-19T09:15:25.65Z</time></trkpt><trkpt lat="43.3393233" lon="11.42159"><ele>213.0</ele><time>2026-04-19T09:15:26.654Z</time></trkpt><trkpt lat="43.3392783" lon="11.4217767"><ele>210.0</ele><time>2026-04-19T09:15:27.658Z</time></trkpt><trkpt lat="43.33924" lon="11.4219783"><ele>207.0</ele><time>2026-04-19T09:15:28.649Z</time></trkpt><trkpt lat="43.3392167" lon="11.42224"><ele>205.0</ele><time>2026-04-19T09:15:29.656Z</time></trkpt><trkpt lat="43.33919" lon="11.4225617"><ele>203.0</ele><time>2026-04-19T09:15:30.649Z</time></trkpt><trkpt lat="43.3391583" lon="11.42288"><ele>203.0</ele><time>2026-04-19T09:15:31.66Z</time></trkpt><trkpt lat="43.3391267" lon="11.4231933"><ele>203.0</ele><time>2026-04-19T09:15:32.651Z</time></trkpt><trkpt lat="43.339095" lon="11.423505"><ele>203.0</ele><time>2026-04-19T09:15:33.65Z</time></trkpt><trkpt lat="43.339055" lon="11.4238117"><ele>203.0</ele><time>2026-04-19T09:15:34.653Z</time></trkpt><trkpt lat="43.3390083" lon="11.424115"><ele>203.0</ele><time>2026-04-19T09:15:35.655Z</time></trkpt><trkpt lat="43.3389617" lon="11.4244217"><ele>203.0</ele><time>2026-04-19T09:15:36.654Z</time></trkpt><trkpt lat="43.3389167" lon="11.4247283"><ele>203.0</ele><time>2026-04-19T09:15:37.655Z</time></trkpt><trkpt lat="43.3388717" lon="11.425025"><ele>203.0</ele><time>2026-04-19T09:15:38.656Z</time></trkpt><trkpt lat="43.33882" lon="11.4253117"><ele>203.0</ele><time>2026-04-19T09:15:39.65Z</time></trkpt><trkpt lat="43.3387683" lon="11.425585"><ele>203.33333333333334</ele><time>2026-04-19T09:15:40.649Z</time></trkpt><trkpt lat="43.33872" lon="11.425835"><ele>203.66666666666669</ele><time>2026-04-19T09:15:41.649Z</time></trkpt><trkpt lat="43.3386667" lon="11.4260633"><ele>204.0</ele><time>2026-04-19T09:15:42.65Z</time></trkpt><trkpt lat="43.3386217" lon="11.42626"><ele>204.0</ele><time>2026-04-19T09:15:43.654Z</time></trkpt><trkpt lat="43.3385933" lon="11.4264333"><ele>204.0</ele><time>2026-04-19T09:15:44.653Z</time></trkpt><trkpt lat="43.3385783" lon="11.426575"><ele>204.0</ele><time>2026-04-19T09:15:45.648Z</time></trkpt><trkpt lat="43.3385717" lon="11.426665"><ele>204.0</ele><time>2026-04-19T09:15:46.652Z</time></trkpt><trkpt lat="43.3385083" lon="11.42676"><ele>204.0</ele><time>2026-04-19T09:15:48.646Z</time></trkpt><trkpt lat="43.3384283" lon="11.42678"><ele>204.0</ele><time>2026-04-19T09:15:49.65Z</time></trkpt><trkpt lat="43.3383267" lon="11.4267683"><ele>204.0</ele><time>2026-04-19T09:15:50.649Z</time></trkpt><trkpt lat="43.338195" lon="11.4267067"><ele>204.0</ele><time>2026-04-19T09:15:51.65Z</time></trkpt><trkpt lat="43.3380783" lon="11.426635"><ele>204.0</ele><time>2026-04-19T09:15:52.652Z</time></trkpt><trkpt lat="43.337985" lon="11.426575"><ele>204.25</ele><time>2026-04-19T09:15:53.647Z</time></trkpt><trkpt lat="43.3379" lon="11.4265017"><ele>204.5</ele><time>2026-04-19T09:15:54.652Z</time></trkpt><trkpt lat="43.3378333" lon="11.4264083"><ele>204.75</ele><time>2026-04-19T09:15:55.656Z</time></trkpt><trkpt lat="43.3376983" lon="11.4262083"><ele>205.0</ele><time>2026-04-19T09:15:56.652Z</time></trkpt><trkpt lat="43.3375017" lon="11.4259417"><ele>205.0</ele><time>2026-04-19T09:15:57.656Z</time></trkpt><trkpt lat="43.3373283" lon="11.4257267"><ele>205.0</ele><time>2026-04-19T09:15:58.652Z</time></trkpt><trkpt lat="43.3371517" lon="11.4255167"><ele>203.0</ele><time>2026-04-19T09:15:59.648Z</time></trkpt><trkpt lat="43.3369683" lon="11.4253183"><ele>201.0</ele><time>2026-04-19T09:16:00.653Z</time></trkpt><trkpt lat="43.3367933" lon="11.4251283"><ele>201.0</ele><time>2026-04-19T09:16:01.649Z</time></trkpt><trkpt lat="43.3366217" lon="11.4249417"><ele>201.0</ele><time>2026-04-19T09:16:02.647Z</time></trkpt><trkpt lat="43.3364567" lon="11.424765"><ele>201.0</ele><time>2026-04-19T09:16:03.654Z</time></trkpt><trkpt lat="43.3362817" lon="11.4245933"><ele>200.33333333333331</ele><time>2026-04-19T09:16:04.654Z</time></trkpt><trkpt lat="43.336095" lon="11.42442"><ele>199.66666666666666</ele><time>2026-04-19T09:16:05.656Z</time></trkpt><trkpt lat="43.33591" lon="11.4242567"><ele>199.0</ele><time>2026-04-19T09:16:06.656Z</time></trkpt><trkpt lat="43.3357233" lon="11.42409"><ele>198.66666666666666</ele><time>2026-04-19T09:16:07.652Z</time></trkpt><trkpt lat="43.3355333" lon="11.4239267"><ele>198.33333333333331</ele><time>2026-04-19T09:16:08.65Z</time></trkpt><trkpt lat="43.3353617" lon="11.4237533"><ele>198.0</ele><time>2026-04-19T09:16:09.648Z</time></trkpt><trkpt lat="43.3351933" lon="11.42357"><ele>198.0</ele><time>2026-04-19T09:16:10.65Z</time></trkpt><trkpt lat="43.3350383" lon="11.423375"><ele>198.0</ele><time>2026-04-19T09:16:11.651Z</time></trkpt><trkpt lat="43.3348883" lon="11.42318"><ele>198.0</ele><time>2026-04-19T09:16:12.652Z</time></trkpt><trkpt lat="43.3347333" lon="11.4229867"><ele>198.0</ele><time>2026-04-19T09:16:13.654Z</time></trkpt><trkpt lat="43.3345583" lon="11.4228033"><ele>198.0</ele><time>2026-04-19T09:16:14.653Z</time></trkpt><trkpt lat="43.33436" lon="11.4226333"><ele>198.0</ele><time>2026-04-19T09:16:15.649Z</time></trkpt><trkpt lat="43.334165" lon="11.4224683"><ele>198.0</ele><time>2026-04-19T09:16:16.651Z</time></trkpt><trkpt lat="43.3339783" lon="11.422315"><ele>198.0</ele><time>2026-04-19T09:16:17.647Z</time></trkpt><trkpt lat="43.3337967" lon="11.422175"><ele>198.0</ele><time>2026-04-19T09:16:18.657Z</time></trkpt><trkpt lat="43.3336183" lon="11.4220617"><ele>198.0</ele><time>2026-04-19T09:16:19.645Z</time></trkpt><trkpt lat="43.3334317" lon="11.42197"><ele>198.0</ele><time>2026-04-19T09:16:20.653Z</time></trkpt><trkpt lat="43.3332417" lon="11.4218983"><ele>197.66666666666669</ele><time>2026-04-19T09:16:21.651Z</time></trkpt><trkpt lat="43.3330517" lon="11.4218433"><ele>197.33333333333334</ele><time>2026-04-19T09:16:22.649Z</time></trkpt><trkpt lat="43.3328633" lon="11.421795"><ele>197.0</ele><time>2026-04-19T09:16:23.651Z</time></trkpt><trkpt lat="43.3326867" lon="11.4217583"><ele>197.0</ele><time>2026-04-19T09:16:24.655Z</time></trkpt><trkpt lat="43.3325117" lon="11.421735"><ele>197.0</ele><time>2026-04-19T09:16:25.645Z</time></trkpt><trkpt lat="43.332325" lon="11.421725"><ele>197.0</ele><time>2026-04-19T09:16:26.65Z</time></trkpt><trkpt lat="43.3321267" lon="11.4217283"><ele>197.33333333333334</ele><time>2026-04-19T09:16:27.657Z</time></trkpt><trkpt lat="43.3319083" lon="11.421755"><ele>197.66666666666669</ele><time>2026-04-19T09:16:28.653Z</time></trkpt><trkpt lat="43.3316867" lon="11.4217983"><ele>198.0</ele><time>2026-04-19T09:16:29.653Z</time></trkpt><trkpt lat="43.3314633" lon="11.421845"><ele>197.33333333333331</ele><time>2026-04-19T09:16:30.649Z</time></trkpt><trkpt lat="43.33124" lon="11.42189"><ele>196.66666666666666</ele><time>2026-04-19T09:16:31.647Z</time></trkpt><trkpt lat="43.33102" lon="11.4219417"><ele>196.0</ele><time>2026-04-19T09:16:32.648Z</time></trkpt><trkpt lat="43.3308033" lon="11.4219917"><ele>196.0</ele><time>2026-04-19T09:16:33.646Z</time></trkpt><trkpt lat="43.33059" lon="11.4220283"><ele>196.0</ele><time>2026-04-19T09:16:34.647Z</time></trkpt><trkpt lat="43.3303817" lon="11.4220517"><ele>196.0</ele><time>2026-04-19T09:16:35.653Z</time></trkpt><trkpt lat="43.33017" lon="11.42206"><ele>196.33333333333331</ele><time>2026-04-19T09:16:36.654Z</time></trkpt><trkpt lat="43.3299633" lon="11.42206"><ele>196.66666666666669</ele><time>2026-04-19T09:16:37.649Z</time></trkpt><trkpt lat="43.32976" lon="11.42205"><ele>197.0</ele><time>2026-04-19T09:16:38.656Z</time></trkpt><trkpt lat="43.32956" lon="11.42204"><ele>197.33333333333334</ele><time>2026-04-19T09:16:39.649Z</time></trkpt><trkpt lat="43.3293667" lon="11.422035"><ele>197.66666666666669</ele><time>2026-04-19T09:16:40.649Z</time></trkpt><trkpt lat="43.32918" lon="11.42204"><ele>198.0</ele><time>2026-04-19T09:16:41.651Z</time></trkpt><trkpt lat="43.328995" lon="11.422065"><ele>197.33333333333331</ele><time>2026-04-19T09:16:42.653Z</time></trkpt><trkpt lat="43.3288133" lon="11.4221167"><ele>196.66666666666666</ele><time>2026-04-19T09:16:43.652Z</time></trkpt><trkpt lat="43.3286317" lon="11.4222017"><ele>196.0</ele><time>2026-04-19T09:16:44.655Z</time></trkpt><trkpt lat="43.3284417" lon="11.4222983"><ele>196.0</ele><time>2026-04-19T09:16:45.649Z</time></trkpt><trkpt lat="43.32826" lon="11.4224033"><ele>196.0</ele><time>2026-04-19T09:16:46.65Z</time></trkpt><trkpt lat="43.32808" lon="11.42251"><ele>196.0</ele><time>2026-04-19T09:16:47.656Z</time></trkpt><trkpt lat="43.3279133" lon="11.4226083"><ele>196.66666666666666</ele><time>2026-04-19T09:16:48.66Z</time></trkpt><trkpt lat="43.3277433" lon="11.4227083"><ele>197.33333333333331</ele><time>2026-04-19T09:16:49.65Z</time></trkpt><trkpt lat="43.3275733" lon="11.4228"><ele>198.0</ele><time>2026-04-19T09:16:50.652Z</time></trkpt><trkpt lat="43.3274" lon="11.4228833"><ele>198.33333333333331</ele><time>2026-04-19T09:16:51.654Z</time></trkpt><trkpt lat="43.3272233" lon="11.4229667"><ele>198.66666666666666</ele><time>2026-04-19T09:16:52.655Z</time></trkpt><trkpt lat="43.3270467" lon="11.42304"><ele>199.0</ele><time>2026-04-19T09:16:53.65Z</time></trkpt><trkpt lat="43.3268733" lon="11.423105"><ele>198.0</ele><time>2026-04-19T09:16:54.656Z</time></trkpt><trkpt lat="43.3267067" lon="11.4231617"><ele>197.0</ele><time>2026-04-19T09:16:55.655Z</time></trkpt><trkpt lat="43.3265517" lon="11.4232183"><ele>196.0</ele><time>2026-04-19T09:16:56.65Z</time></trkpt><trkpt lat="43.326415" lon="11.4232683"><ele>195.8</ele><time>2026-04-19T09:16:57.652Z</time></trkpt><trkpt lat="43.3262917" lon="11.4233033"><ele>195.60000000000002</ele><time>2026-04-19T09:16:58.646Z</time></trkpt><trkpt lat="43.3261833" lon="11.4233217"><ele>195.4</ele><time>2026-04-19T09:16:59.649Z</time></trkpt><trkpt lat="43.3261" lon="11.4233117"><ele>195.2</ele><time>2026-04-19T09:17:00.648Z</time></trkpt><trkpt lat="43.3260333" lon="11.4232833"><ele>195.0</ele><time>2026-04-19T09:17:01.651Z</time></trkpt><trkpt lat="43.3259583" lon="11.4231383"><ele>195.0</ele><time>2026-04-19T09:17:03.65Z</time></trkpt><trkpt lat="43.325925" lon="11.4230483"><ele>195.0</ele><time>2026-04-19T09:17:04.648Z</time></trkpt><trkpt lat="43.3259067" lon="11.4229267"><ele>195.0</ele><time>2026-04-19T09:17:05.645Z</time></trkpt><trkpt lat="43.3259083" lon="11.42278"><ele>195.0</ele><time>2026-04-19T09:17:06.645Z</time></trkpt><trkpt lat="43.325945" lon="11.4225717"><ele>195.0</ele><time>2026-04-19T09:17:07.649Z</time></trkpt><trkpt lat="43.3259467" lon="11.42241"><ele>195.6</ele><time>2026-04-19T09:17:08.649Z</time></trkpt><trkpt lat="43.3259217" lon="11.4222717"><ele>196.2</ele><time>2026-04-19T09:17:09.648Z</time></trkpt><trkpt lat="43.3258967" lon="11.4221317"><ele>196.8</ele><time>2026-04-19T09:17:10.65Z</time></trkpt><trkpt lat="43.3258717" lon="11.4220133"><ele>197.4</ele><time>2026-04-19T09:17:11.652Z</time></trkpt><trkpt lat="43.3258467" lon="11.42191"><ele>198.0</ele><time>2026-04-19T09:17:12.649Z</time></trkpt><trkpt lat="43.3258383" lon="11.4218083"><ele>199.0</ele><time>2026-04-19T09:17:13.648Z</time></trkpt><trkpt lat="43.3258283" lon="11.4217083"><ele>200.0</ele><time>2026-04-19T09:17:14.654Z</time></trkpt><trkpt lat="43.3258167" lon="11.4215933"><ele>201.0</ele><time>2026-04-19T09:17:15.654Z</time></trkpt><trkpt lat="43.32581" lon="11.421465"><ele>202.0</ele><time>2026-04-19T09:17:16.651Z</time></trkpt><trkpt lat="43.3258083" lon="11.4213183"><ele>203.0</ele><time>2026-04-19T09:17:17.652Z</time></trkpt><trkpt lat="43.3257883" lon="11.421155"><ele>204.0</ele><time>2026-04-19T09:17:18.649Z</time></trkpt><trkpt lat="43.3257633" lon="11.42098"><ele>205.0</ele><time>2026-04-19T09:17:19.649Z</time></trkpt><trkpt lat="43.325745" lon="11.4207883"><ele>206.0</ele><time>2026-04-19T09:17:20.651Z</time></trkpt><trkpt lat="43.32572" lon="11.4206017"><ele>207.0</ele><time>2026-04-19T09:17:21.652Z</time></trkpt><trkpt lat="43.325705" lon="11.420425"><ele>208.2</ele><time>2026-04-19T09:17:22.653Z</time></trkpt><trkpt lat="43.3256967" lon="11.4202633"><ele>209.39999999999998</ele><time>2026-04-19T09:17:23.651Z</time></trkpt><trkpt lat="43.3256967" lon="11.4201183"><ele>210.60000000000002</ele><time>2026-04-19T09:17:24.648Z</time></trkpt><trkpt lat="43.32569" lon="11.4200033"><ele>211.8</ele><time>2026-04-19T09:17:25.655Z</time></trkpt><trkpt lat="43.3256867" lon="11.419895"><ele>213.0</ele><time>2026-04-19T09:17:26.654Z</time></trkpt><trkpt lat="43.32566" lon="11.419745"><ele>213.0</ele><time>2026-04-19T09:17:28.648Z</time></trkpt><trkpt lat="43.325555" lon="11.4197167"><ele>213.0</ele><time>2026-04-19T09:17:30.653Z</time></trkpt><trkpt lat="43.32542" lon="11.419695"><ele>213.0</ele><time>2026-04-19T09:17:32.652Z</time></trkpt><trkpt lat="43.3253583" lon="11.4196567"><ele>213.0</ele><time>2026-04-19T09:17:33.646Z</time></trkpt><trkpt lat="43.3252867" lon="11.4196117"><ele>213.0</ele><time>2026-04-19T09:17:34.657Z</time></trkpt><trkpt lat="43.3252183" lon="11.41956"><ele>214.66666666666666</ele><time>2026-04-19T09:17:35.653Z</time></trkpt><trkpt lat="43.32515" lon="11.4194983"><ele>216.33333333333331</ele><time>2026-04-19T09:17:36.649Z</time></trkpt><trkpt lat="43.3250833" lon="11.41942"><ele>218.0</ele><time>2026-04-19T09:17:37.647Z</time></trkpt><trkpt lat="43.3250217" lon="11.4193383"><ele>219.66666666666666</ele><time>2026-04-19T09:17:38.659Z</time></trkpt><trkpt lat="43.3249583" lon="11.4192533"><ele>221.33333333333331</ele><time>2026-04-19T09:17:39.65Z</time></trkpt><trkpt lat="43.3248933" lon="11.4191617"><ele>223.0</ele><time>2026-04-19T09:17:40.656Z</time></trkpt><trkpt lat="43.324825" lon="11.4190733"><ele>223.0</ele><time>2026-04-19T09:17:41.65Z</time></trkpt><trkpt lat="43.3247567" lon="11.4189883"><ele>223.0</ele><time>2026-04-19T09:17:42.65Z</time></trkpt><trkpt lat="43.324685" lon="11.4188967"><ele>223.0</ele><time>2026-04-19T09:17:43.649Z</time></trkpt><trkpt lat="43.3246217" lon="11.4187917"><ele>223.0</ele><time>2026-04-19T09:17:44.652Z</time></trkpt><trkpt lat="43.3245683" lon="11.41868"><ele>223.0</ele><time>2026-04-19T09:17:45.656Z</time></trkpt><trkpt lat="43.32452" lon="11.4185617"><ele>224.2</ele><time>2026-04-19T09:17:46.646Z</time></trkpt><trkpt lat="43.3244767" lon="11.4184383"><ele>225.4</ele><time>2026-04-19T09:17:47.649Z</time></trkpt><trkpt lat="43.3244383" lon="11.41831"><ele>226.59999999999997</ele><time>2026-04-19T09:17:48.651Z</time></trkpt><trkpt lat="43.3244033" lon="11.41818"><ele>227.79999999999998</ele><time>2026-04-19T09:17:49.648Z</time></trkpt><trkpt lat="43.324365" lon="11.418055"><ele>229.0</ele><time>2026-04-19T09:17:50.653Z</time></trkpt><trkpt lat="43.3243233" lon="11.417935"><ele>230.79999999999998</ele><time>2026-04-19T09:17:51.65Z</time></trkpt><trkpt lat="43.3242717" lon="11.4178217"><ele>232.59999999999997</ele><time>2026-04-19T09:17:52.654Z</time></trkpt><trkpt lat="43.32421" lon="11.4177183"><ele>234.4</ele><time>2026-04-19T09:17:53.653Z</time></trkpt><trkpt lat="43.32415" lon="11.41763"><ele>236.2</ele><time>2026-04-19T09:17:54.648Z</time></trkpt><trkpt lat="43.3240883" lon="11.417535"><ele>238.0</ele><time>2026-04-19T09:17:55.651Z</time></trkpt><trkpt lat="43.3240317" lon="11.417445"><ele>237.99999999999997</ele><time>2026-04-19T09:17:56.645Z</time></trkpt><trkpt lat="43.3239783" lon="11.4173383"><ele>238.0</ele><time>2026-04-19T09:17:57.647Z</time></trkpt><trkpt lat="43.32394" lon="11.41723"><ele>238.0</ele><time>2026-04-19T09:17:58.649Z</time></trkpt><trkpt lat="43.3239133" lon="11.4171233"><ele>238.0</ele><time>2026-04-19T09:17:59.65Z</time></trkpt><trkpt lat="43.3239083" lon="11.4170117"><ele>237.99999999999997</ele><time>2026-04-19T09:18:00.651Z</time></trkpt><trkpt lat="43.323905" lon="11.4169033"><ele>238.0</ele><time>2026-04-19T09:18:01.65Z</time></trkpt><trkpt lat="43.3238967" lon="11.4167967"><ele>239.33333333333331</ele><time>2026-04-19T09:18:02.652Z</time></trkpt><trkpt lat="43.3238883" lon="11.4167"><ele>240.66666666666666</ele><time>2026-04-19T09:18:03.653Z</time></trkpt><trkpt lat="43.323875" lon="11.4165583"><ele>242.0</ele><time>2026-04-19T09:18:05.647Z</time></trkpt><trkpt lat="43.3238317" lon="11.4164933"><ele>243.33333333333331</ele><time>2026-04-19T09:18:07.651Z</time></trkpt><trkpt lat="43.32375" lon="11.4164783"><ele>244.66666666666666</ele><time>2026-04-19T09:18:09.65Z</time></trkpt><trkpt lat="43.3236717" lon="11.4165083"><ele>246.0</ele><time>2026-04-19T09:18:11.65Z</time></trkpt><trkpt lat="43.3236267" lon="11.4165733"><ele>246.0</ele><time>2026-04-19T09:18:14.65Z</time></trkpt><trkpt lat="43.32361" lon="11.4164667"><ele>246.0</ele><time>2026-04-19T09:18:21.647Z</time></trkpt><trkpt lat="43.3236133" lon="11.416345"><ele>246.0</ele><time>2026-04-19T09:18:24.652Z</time></trkpt><trkpt lat="43.3236033" lon="11.416235"><ele>246.0</ele><time>2026-04-19T09:18:27.648Z</time></trkpt><trkpt lat="43.3235467" lon="11.4161717"><ele>246.0</ele><time>2026-04-19T09:18:30.649Z</time></trkpt><trkpt lat="43.3234933" lon="11.41612"><ele>246.0</ele><time>2026-04-19T09:18:34.649Z</time></trkpt><trkpt lat="43.3233933" lon="11.416145"><ele>245.5</ele><time>2026-04-19T09:18:37.653Z</time></trkpt><trkpt lat="43.323265" lon="11.4162"><ele>245.0</ele><time>2026-04-19T09:18:39.655Z</time></trkpt><trkpt lat="43.3231633" lon="11.4162267"><ele>244.5</ele><time>2026-04-19T09:18:40.649Z</time></trkpt><trkpt lat="43.3230517" lon="11.4162583"><ele>244.0</ele><time>2026-04-19T09:18:41.65Z</time></trkpt><trkpt lat="43.322955" lon="11.4162783"><ele>243.99999999999997</ele><time>2026-04-19T09:18:42.654Z</time></trkpt><trkpt lat="43.32286" lon="11.4162883"><ele>244.0</ele><time>2026-04-19T09:18:43.646Z</time></trkpt><trkpt lat="43.322775" lon="11.41629"><ele>244.0</ele><time>2026-04-19T09:18:44.647Z</time></trkpt><trkpt lat="43.3226983" lon="11.4162767"><ele>244.0</ele><time>2026-04-19T09:18:45.647Z</time></trkpt><trkpt lat="43.3226317" lon="11.416245"><ele>243.99999999999997</ele><time>2026-04-19T09:18:46.643Z</time></trkpt><trkpt lat="43.32256" lon="11.4162017"><ele>244.0</ele><time>2026-04-19T09:18:47.651Z</time></trkpt><trkpt lat="43.3224817" lon="11.4161467"><ele>244.0</ele><time>2026-04-19T09:18:48.659Z</time></trkpt><trkpt lat="43.32239" lon="11.4160767"><ele>244.0</ele><time>2026-04-19T09:18:49.649Z</time></trkpt><trkpt lat="43.3222883" lon="11.416"><ele>244.0</ele><time>2026-04-19T09:18:50.649Z</time></trkpt><trkpt lat="43.3221817" lon="11.4159117"><ele>244.0</ele><time>2026-04-19T09:18:51.651Z</time></trkpt><trkpt lat="43.3220733" lon="11.41581"><ele>244.0</ele><time>2026-04-19T09:18:52.648Z</time></trkpt><trkpt lat="43.3219683" lon="11.4156967"><ele>244.0</ele><time>2026-04-19T09:18:53.65Z</time></trkpt><trkpt lat="43.3218667" lon="11.4155783"><ele>244.0</ele><time>2026-04-19T09:18:54.646Z</time></trkpt><trkpt lat="43.32177" lon="11.415465"><ele>244.0</ele><time>2026-04-19T09:18:55.645Z</time></trkpt><trkpt lat="43.3216767" lon="11.41536"><ele>242.75</ele><time>2026-04-19T09:18:56.649Z</time></trkpt><trkpt lat="43.3215783" lon="11.4152567"><ele>241.5</ele><time>2026-04-19T09:18:57.659Z</time></trkpt><trkpt lat="43.3214817" lon="11.4151567"><ele>240.25</ele><time>2026-04-19T09:18:58.647Z</time></trkpt><trkpt lat="43.321385" lon="11.4150767"><ele>239.0</ele><time>2026-04-19T09:18:59.651Z</time></trkpt><trkpt lat="43.3212683" lon="11.4150067"><ele>239.0</ele><time>2026-04-19T09:19:00.653Z</time></trkpt><trkpt lat="43.3211533" lon="11.414955"><ele>238.99999999999997</ele><time>2026-04-19T09:19:01.652Z</time></trkpt><trkpt lat="43.3210433" lon="11.41492"><ele>238.99999999999997</ele><time>2026-04-19T09:19:02.651Z</time></trkpt><trkpt lat="43.3209467" lon="11.414885"><ele>239.0</ele><time>2026-04-19T09:19:03.646Z</time></trkpt><trkpt lat="43.32086" lon="11.4148683"><ele>239.0</ele><time>2026-04-19T09:19:04.645Z</time></trkpt><trkpt lat="43.320785" lon="11.4148633"><ele>239.0</ele><time>2026-04-19T09:19:05.648Z</time></trkpt><trkpt lat="43.3207167" lon="11.4148533"><ele>238.99999999999997</ele><time>2026-04-19T09:19:06.653Z</time></trkpt><trkpt lat="43.3205983" lon="11.4148183"><ele>238.99999999999997</ele><time>2026-04-19T09:19:08.651Z</time></trkpt><trkpt lat="43.3204917" lon="11.4147767"><ele>239.0</ele><time>2026-04-19T09:19:10.647Z</time></trkpt><trkpt lat="43.3203883" lon="11.4147317"><ele>239.0</ele><time>2026-04-19T09:19:12.651Z</time></trkpt><trkpt lat="43.320285" lon="11.4147017"><ele>237.6</ele><time>2026-04-19T09:19:14.654Z</time></trkpt><trkpt lat="43.3201883" lon="11.414705"><ele>236.2</ele><time>2026-04-19T09:19:16.649Z</time></trkpt><trkpt lat="43.3200967" lon="11.414745"><ele>234.79999999999998</ele><time>2026-04-19T09:19:18.657Z</time></trkpt><trkpt lat="43.320015" lon="11.41481"><ele>233.39999999999998</ele><time>2026-04-19T09:19:20.646Z</time></trkpt><trkpt lat="43.3199283" lon="11.414895"><ele>232.0</ele><time>2026-04-19T09:19:22.663Z</time></trkpt><trkpt lat="43.3198417" lon="11.4149817"><ele>232.0</ele><time>2026-04-19T09:19:24.657Z</time></trkpt><trkpt lat="43.3197583" lon="11.41506"><ele>232.0</ele><time>2026-04-19T09:19:26.655Z</time></trkpt><trkpt lat="43.3196683" lon="11.4151317"><ele>232.0</ele><time>2026-04-19T09:19:28.648Z</time></trkpt><trkpt lat="43.319555" lon="11.415185"><ele>232.0</ele><time>2026-04-19T09:19:30.652Z</time></trkpt><trkpt lat="43.3194867" lon="11.4152033"><ele>232.0</ele><time>2026-04-19T09:19:31.654Z</time></trkpt><trkpt lat="43.3194017" lon="11.4152133"><ele>230.6</ele><time>2026-04-19T09:19:32.653Z</time></trkpt><trkpt lat="43.3193117" lon="11.4152133"><ele>229.2</ele><time>2026-04-19T09:19:33.651Z</time></trkpt><trkpt lat="43.31922" lon="11.4151967"><ele>227.8</ele><time>2026-04-19T09:19:34.655Z</time></trkpt><trkpt lat="43.3191267" lon="11.41517"><ele>226.4</ele><time>2026-04-19T09:19:35.644Z</time></trkpt><trkpt lat="43.3190267" lon="11.4151283"><ele>225.0</ele><time>2026-04-19T09:19:36.647Z</time></trkpt><trkpt lat="43.3189317" lon="11.4150767"><ele>223.6</ele><time>2026-04-19T09:19:37.646Z</time></trkpt><trkpt lat="43.31884" lon="11.4150183"><ele>222.2</ele><time>2026-04-19T09:19:38.65Z</time></trkpt><trkpt lat="43.3187467" lon="11.4149567"><ele>220.8</ele><time>2026-04-19T09:19:39.645Z</time></trkpt><trkpt lat="43.318655" lon="11.4148983"><ele>219.4</ele><time>2026-04-19T09:19:40.648Z</time></trkpt><trkpt lat="43.3185633" lon="11.41485"><ele>218.0</ele><time>2026-04-19T09:19:41.653Z</time></trkpt><trkpt lat="43.3184667" lon="11.4148133"><ele>218.0</ele><time>2026-04-19T09:19:42.649Z</time></trkpt><trkpt lat="43.31837" lon="11.4147867"><ele>218.0</ele><time>2026-04-19T09:19:43.65Z</time></trkpt><trkpt lat="43.3182717" lon="11.4147733"><ele>218.0</ele><time>2026-04-19T09:19:44.649Z</time></trkpt><trkpt lat="43.3181617" lon="11.4147767"><ele>218.0</ele><time>2026-04-19T09:19:45.648Z</time></trkpt><trkpt lat="43.31805" lon="11.4147933"><ele>218.0</ele><time>2026-04-19T09:19:46.644Z</time></trkpt><trkpt lat="43.3179267" lon="11.4148117"><ele>215.25</ele><time>2026-04-19T09:19:47.648Z</time></trkpt><trkpt lat="43.3177917" lon="11.4148333"><ele>212.5</ele><time>2026-04-19T09:19:48.653Z</time></trkpt><trkpt lat="43.31765" lon="11.4148483"><ele>209.75</ele><time>2026-04-19T09:19:49.653Z</time></trkpt><trkpt lat="43.3175" lon="11.4148533"><ele>207.0</ele><time>2026-04-19T09:19:50.653Z</time></trkpt><trkpt lat="43.3173433" lon="11.4148483"><ele>203.33333333333331</ele><time>2026-04-19T09:19:51.651Z</time></trkpt><trkpt lat="43.3171883" lon="11.41484"><ele>199.66666666666666</ele><time>2026-04-19T09:19:52.646Z</time></trkpt><trkpt lat="43.3170317" lon="11.4148317"><ele>196.0</ele><time>2026-04-19T09:19:53.651Z</time></trkpt><trkpt lat="43.3168783" lon="11.4148267"><ele>196.0</ele><time>2026-04-19T09:19:54.656Z</time></trkpt><trkpt lat="43.3167317" lon="11.4148267"><ele>196.0</ele><time>2026-04-19T09:19:55.651Z</time></trkpt><trkpt lat="43.31659" lon="11.4148283"><ele>196.0</ele><time>2026-04-19T09:19:56.649Z</time></trkpt><trkpt lat="43.3164567" lon="11.4148467"><ele>196.0</ele><time>2026-04-19T09:19:57.666Z</time></trkpt><trkpt lat="43.31633" lon="11.41488"><ele>195.5</ele><time>2026-04-19T09:19:58.65Z</time></trkpt><trkpt lat="43.3162117" lon="11.4149367"><ele>195.0</ele><time>2026-04-19T09:19:59.647Z</time></trkpt><trkpt lat="43.3161067" lon="11.4150117"><ele>194.5</ele><time>2026-04-19T09:20:00.65Z</time></trkpt><trkpt lat="43.3160067" lon="11.41507"><ele>194.0</ele><time>2026-04-19T09:20:01.651Z</time></trkpt><trkpt lat="43.3159083" lon="11.41511"><ele>194.00000000000003</ele><time>2026-04-19T09:20:02.653Z</time></trkpt><trkpt lat="43.3158183" lon="11.4151317"><ele>194.0</ele><time>2026-04-19T09:20:03.647Z</time></trkpt><trkpt lat="43.3157317" lon="11.415135"><ele>194.0</ele><time>2026-04-19T09:20:04.645Z</time></trkpt><trkpt lat="43.3156633" lon="11.41509"><ele>194.0</ele><time>2026-04-19T09:20:05.654Z</time></trkpt><trkpt lat="43.3155967" lon="11.4150033"><ele>194.00000000000003</ele><time>2026-04-19T09:20:06.647Z</time></trkpt><trkpt lat="43.3155517" lon="11.414875"><ele>194.0</ele><time>2026-04-19T09:20:07.649Z</time></trkpt><trkpt lat="43.3154883" lon="11.4147317"><ele>194.75</ele><time>2026-04-19T09:20:08.651Z</time></trkpt><trkpt lat="43.315415" lon="11.4146133"><ele>195.5</ele><time>2026-04-19T09:20:09.648Z</time></trkpt><trkpt lat="43.3153267" lon="11.4144933"><ele>196.25</ele><time>2026-04-19T09:20:10.65Z</time></trkpt><trkpt lat="43.31521" lon="11.4143617"><ele>197.0</ele><time>2026-04-19T09:20:11.657Z</time></trkpt><trkpt lat="43.3151017" lon="11.4142433"><ele>197.0</ele><time>2026-04-19T09:20:12.653Z</time></trkpt><trkpt lat="43.3149917" lon="11.4141217"><ele>197.0</ele><time>2026-04-19T09:20:13.649Z</time></trkpt><trkpt lat="43.31489" lon="11.4139983"><ele>197.0</ele><time>2026-04-19T09:20:14.647Z</time></trkpt><trkpt lat="43.314805" lon="11.4138817"><ele>197.0</ele><time>2026-04-19T09:20:15.657Z</time></trkpt><trkpt lat="43.3147283" lon="11.41376"><ele>197.5</ele><time>2026-04-19T09:20:16.649Z</time></trkpt><trkpt lat="43.3146567" lon="11.413635"><ele>198.0</ele><time>2026-04-19T09:20:17.65Z</time></trkpt><trkpt lat="43.314595" lon="11.413495"><ele>198.5</ele><time>2026-04-19T09:20:18.65Z</time></trkpt><trkpt lat="43.3145333" lon="11.41334"><ele>199.0</ele><time>2026-04-19T09:20:19.655Z</time></trkpt><trkpt lat="43.31447" lon="11.4131833"><ele>199.0</ele><time>2026-04-19T09:20:20.653Z</time></trkpt><trkpt lat="43.3143933" lon="11.4130333"><ele>199.0</ele><time>2026-04-19T09:20:21.652Z</time></trkpt><trkpt lat="43.3143117" lon="11.412875"><ele>199.0</ele><time>2026-04-19T09:20:22.654Z</time></trkpt><trkpt lat="43.3142167" lon="11.4127217"><ele>199.0</ele><time>2026-04-19T09:20:23.647Z</time></trkpt><trkpt lat="43.3141267" lon="11.4125783"><ele>199.0</ele><time>2026-04-19T09:20:24.65Z</time></trkpt><trkpt lat="43.3140433" lon="11.412455"><ele>199.0</ele><time>2026-04-19T09:20:25.649Z</time></trkpt><trkpt lat="43.313965" lon="11.4123533"><ele>199.0</ele><time>2026-04-19T09:20:26.649Z</time></trkpt><trkpt lat="43.3138983" lon="11.412275"><ele>199.0</ele><time>2026-04-19T09:20:27.652Z</time></trkpt><trkpt lat="43.3138167" lon="11.4122167"><ele>199.0</ele><time>2026-04-19T09:20:29.652Z</time></trkpt><trkpt lat="43.313735" lon="11.4121017"><ele>198.33333333333331</ele><time>2026-04-19T09:20:31.659Z</time></trkpt><trkpt lat="43.3136917" lon="11.412025"><ele>197.66666666666666</ele><time>2026-04-19T09:20:32.649Z</time></trkpt><trkpt lat="43.31365" lon="11.4119433"><ele>197.0</ele><time>2026-04-19T09:20:33.652Z</time></trkpt><trkpt lat="43.3136267" lon="11.4118533"><ele>196.33333333333331</ele><time>2026-04-19T09:20:34.651Z</time></trkpt><trkpt lat="43.313625" lon="11.4117233"><ele>195.66666666666666</ele><time>2026-04-19T09:20:35.649Z</time></trkpt><trkpt lat="43.3136167" lon="11.4115767"><ele>195.0</ele><time>2026-04-19T09:20:36.651Z</time></trkpt><trkpt lat="43.3136083" lon="11.4114333"><ele>195.0</ele><time>2026-04-19T09:20:37.649Z</time></trkpt><trkpt lat="43.3135867" lon="11.4112967"><ele>195.0</ele><time>2026-04-19T09:20:38.65Z</time></trkpt><trkpt lat="43.3135733" lon="11.4111333"><ele>195.0</ele><time>2026-04-19T09:20:39.651Z</time></trkpt><trkpt lat="43.3135383" lon="11.4109633"><ele>195.0</ele><time>2026-04-19T09:20:40.649Z</time></trkpt><trkpt lat="43.3134883" lon="11.4107867"><ele>195.0</ele><time>2026-04-19T09:20:41.648Z</time></trkpt><trkpt lat="43.3134467" lon="11.4106083"><ele>195.0</ele><time>2026-04-19T09:20:42.653Z</time></trkpt><trkpt lat="43.3134067" lon="11.4104267"><ele>195.0</ele><time>2026-04-19T09:20:43.646Z</time></trkpt><trkpt lat="43.313355" lon="11.4102383"><ele>195.0</ele><time>2026-04-19T09:20:44.659Z</time></trkpt><trkpt lat="43.3133033" lon="11.4100433"><ele>195.0</ele><time>2026-04-19T09:20:45.648Z</time></trkpt><trkpt lat="43.3132583" lon="11.4098383"><ele>195.0</ele><time>2026-04-19T09:20:46.65Z</time></trkpt><trkpt lat="43.31321" lon="11.4096433"><ele>195.0</ele><time>2026-04-19T09:20:47.649Z</time></trkpt><trkpt lat="43.3131667" lon="11.409435"><ele>195.66666666666669</ele><time>2026-04-19T09:20:48.651Z</time></trkpt><trkpt lat="43.313105" lon="11.4092367"><ele>196.33333333333334</ele><time>2026-04-19T09:20:49.65Z</time></trkpt><trkpt lat="43.3130333" lon="11.4090533"><ele>197.0</ele><time>2026-04-19T09:20:50.652Z</time></trkpt><trkpt lat="43.3129567" lon="11.4088833"><ele>199.5</ele><time>2026-04-19T09:20:51.649Z</time></trkpt><trkpt lat="43.3128567" lon="11.4087433"><ele>202.0</ele><time>2026-04-19T09:20:52.653Z</time></trkpt><trkpt lat="43.3127817" lon="11.4085867"><ele>204.5</ele><time>2026-04-19T09:20:53.649Z</time></trkpt><trkpt lat="43.3126883" lon="11.4084533"><ele>207.0</ele><time>2026-04-19T09:20:54.651Z</time></trkpt><trkpt lat="43.31256" lon="11.408315"><ele>207.0</ele><time>2026-04-19T09:20:55.646Z</time></trkpt><trkpt lat="43.312445" lon="11.40818"><ele>207.0</ele><time>2026-04-19T09:20:56.647Z</time></trkpt><trkpt lat="43.3123333" lon="11.40804"><ele>207.0</ele><time>2026-04-19T09:20:57.644Z</time></trkpt><trkpt lat="43.3122167" lon="11.4078867"><ele>211.33333333333331</ele><time>2026-04-19T09:20:58.648Z</time></trkpt><trkpt lat="43.3120917" lon="11.4077217"><ele>215.66666666666666</ele><time>2026-04-19T09:20:59.651Z</time></trkpt><trkpt lat="43.3119717" lon="11.407555"><ele>220.0</ele><time>2026-04-19T09:21:00.649Z</time></trkpt><trkpt lat="43.31185" lon="11.407385"><ele>220.0</ele><time>2026-04-19T09:21:01.645Z</time></trkpt><trkpt lat="43.3117117" lon="11.4072233"><ele>220.0</ele><time>2026-04-19T09:21:02.653Z</time></trkpt><trkpt lat="43.3115683" lon="11.40706"><ele>220.0</ele><time>2026-04-19T09:21:03.645Z</time></trkpt><trkpt lat="43.311415" lon="11.4069"><ele>221.33333333333331</ele><time>2026-04-19T09:21:04.657Z</time></trkpt><trkpt lat="43.3112683" lon="11.4067283"><ele>222.66666666666669</ele><time>2026-04-19T09:21:05.643Z</time></trkpt><trkpt lat="43.3111317" lon="11.40656"><ele>224.0</ele><time>2026-04-19T09:21:06.649Z</time></trkpt><trkpt lat="43.311005" lon="11.406385"><ele>224.66666666666669</ele><time>2026-04-19T09:21:07.65Z</time></trkpt><trkpt lat="43.3108883" lon="11.4061967"><ele>225.33333333333331</ele><time>2026-04-19T09:21:08.655Z</time></trkpt><trkpt lat="43.3107783" lon="11.4059983"><ele>226.0</ele><time>2026-04-19T09:21:09.651Z</time></trkpt><trkpt lat="43.3106733" lon="11.4057867"><ele>226.0</ele><time>2026-04-19T09:21:10.649Z</time></trkpt><trkpt lat="43.310575" lon="11.40555"><ele>226.0</ele><time>2026-04-19T09:21:11.654Z</time></trkpt><trkpt lat="43.310495" lon="11.4053083"><ele>226.0</ele><time>2026-04-19T09:21:12.644Z</time></trkpt><trkpt lat="43.31043" lon="11.4050717"><ele>226.5</ele><time>2026-04-19T09:21:13.654Z</time></trkpt><trkpt lat="43.3103833" lon="11.4048817"><ele>227.0</ele><time>2026-04-19T09:21:14.646Z</time></trkpt><trkpt lat="43.3103333" lon="11.40471"><ele>227.5</ele><time>2026-04-19T09:21:15.648Z</time></trkpt><trkpt lat="43.3102817" lon="11.4045667"><ele>228.0</ele><time>2026-04-19T09:21:16.646Z</time></trkpt><trkpt lat="43.3102217" lon="11.404445"><ele>228.25</ele><time>2026-04-19T09:21:17.653Z</time></trkpt><trkpt lat="43.3101483" lon="11.40433"><ele>228.5</ele><time>2026-04-19T09:21:18.654Z</time></trkpt><trkpt lat="43.310055" lon="11.4042267"><ele>228.75</ele><time>2026-04-19T09:21:19.655Z</time></trkpt><trkpt lat="43.30994" lon="11.4041283"><ele>229.0</ele><time>2026-04-19T09:21:20.646Z</time></trkpt><trkpt lat="43.3098183" lon="11.4040317"><ele>228.5</ele><time>2026-04-19T09:21:21.652Z</time></trkpt><trkpt lat="43.30969" lon="11.40394"><ele>228.0</ele><time>2026-04-19T09:21:22.655Z</time></trkpt><trkpt lat="43.30956" lon="11.4038467"><ele>227.5</ele><time>2026-04-19T09:21:23.649Z</time></trkpt><trkpt lat="43.3094317" lon="11.403755"><ele>227.0</ele><time>2026-04-19T09:21:24.65Z</time></trkpt><trkpt lat="43.30931" lon="11.4036533"><ele>227.0</ele><time>2026-04-19T09:21:25.658Z</time></trkpt><trkpt lat="43.30919" lon="11.4035417"><ele>227.0</ele><time>2026-04-19T09:21:26.656Z</time></trkpt><trkpt lat="43.3090783" lon="11.4034333"><ele>227.0</ele><time>2026-04-19T09:21:27.651Z</time></trkpt><trkpt lat="43.3089583" lon="11.403335"><ele>227.0</ele><time>2026-04-19T09:21:28.654Z</time></trkpt><trkpt lat="43.3088583" lon="11.4032383"><ele>227.0</ele><time>2026-04-19T09:21:29.647Z</time></trkpt><trkpt lat="43.3087683" lon="11.4031467"><ele>227.0</ele><time>2026-04-19T09:21:30.654Z</time></trkpt><trkpt lat="43.3086867" lon="11.40306"><ele>227.0</ele><time>2026-04-19T09:21:31.654Z</time></trkpt><trkpt lat="43.3086067" lon="11.4029883"><ele>227.0</ele><time>2026-04-19T09:21:32.657Z</time></trkpt><trkpt lat="43.3085233" lon="11.4029417"><ele>227.0</ele><time>2026-04-19T09:21:33.654Z</time></trkpt><trkpt lat="43.3084433" lon="11.4029067"><ele>227.0</ele><time>2026-04-19T09:21:34.654Z</time></trkpt><trkpt lat="43.3083633" lon="11.4028883"><ele>227.0</ele><time>2026-04-19T09:21:35.652Z</time></trkpt><trkpt lat="43.30827" lon="11.4028767"><ele>227.0</ele><time>2026-04-19T09:21:36.653Z</time></trkpt><trkpt lat="43.308165" lon="11.40287"><ele>227.0</ele><time>2026-04-19T09:21:37.651Z</time></trkpt><trkpt lat="43.3079967" lon="11.4029283"><ele>227.0</ele><time>2026-04-19T09:21:38.653Z</time></trkpt><trkpt lat="43.3078467" lon="11.4029633"><ele>227.0</ele><time>2026-04-19T09:21:39.655Z</time></trkpt><trkpt lat="43.3076983" lon="11.4029917"><ele>227.0</ele><time>2026-04-19T09:21:40.645Z</time></trkpt><trkpt lat="43.3075683" lon="11.40301"><ele>227.0</ele><time>2026-04-19T09:21:41.655Z</time></trkpt><trkpt lat="43.30744" lon="11.4030233"><ele>226.5</ele><time>2026-04-19T09:21:42.657Z</time></trkpt><trkpt lat="43.3073067" lon="11.4030367"><ele>226.0</ele><time>2026-04-19T09:21:43.649Z</time></trkpt><trkpt lat="43.3071817" lon="11.4030417"><ele>225.5</ele><time>2026-04-19T09:21:44.65Z</time></trkpt><trkpt lat="43.30706" lon="11.40305"><ele>225.0</ele><time>2026-04-19T09:21:45.651Z</time></trkpt><trkpt lat="43.3069467" lon="11.4030533"><ele>225.0</ele><time>2026-04-19T09:21:46.651Z</time></trkpt><trkpt lat="43.3068333" lon="11.4030767"><ele>225.0</ele><time>2026-04-19T09:21:47.656Z</time></trkpt><trkpt lat="43.3067217" lon="11.403105"><ele>225.0</ele><time>2026-04-19T09:21:48.652Z</time></trkpt><trkpt lat="43.3066117" lon="11.403145"><ele>225.0</ele><time>2026-04-19T09:21:49.651Z</time></trkpt><trkpt lat="43.3065083" lon="11.40317"><ele>225.0</ele><time>2026-04-19T09:21:50.655Z</time></trkpt><trkpt lat="43.3064117" lon="11.40317"><ele>224.8</ele><time>2026-04-19T09:21:51.65Z</time></trkpt><trkpt lat="43.3063083" lon="11.4031667"><ele>224.6</ele><time>2026-04-19T09:21:52.653Z</time></trkpt><trkpt lat="43.3062083" lon="11.4031683"><ele>224.39999999999998</ele><time>2026-04-19T09:21:53.648Z</time></trkpt><trkpt lat="43.3061083" lon="11.40317"><ele>224.2</ele><time>2026-04-19T09:21:54.65Z</time></trkpt><trkpt lat="43.3060033" lon="11.4031617"><ele>224.0</ele><time>2026-04-19T09:21:55.65Z</time></trkpt><trkpt lat="43.3059" lon="11.4031567"><ele>224.0</ele><time>2026-04-19T09:21:56.649Z</time></trkpt><trkpt lat="43.3057983" lon="11.4031533"><ele>223.99999999999997</ele><time>2026-04-19T09:21:57.651Z</time></trkpt><trkpt lat="43.305705" lon="11.4031567"><ele>223.99999999999997</ele><time>2026-04-19T09:21:58.653Z</time></trkpt><trkpt lat="43.3056133" lon="11.403145"><ele>224.0</ele><time>2026-04-19T09:21:59.653Z</time></trkpt><trkpt lat="43.3055267" lon="11.403125"><ele>224.0</ele><time>2026-04-19T09:22:00.647Z</time></trkpt><trkpt lat="43.3054317" lon="11.4031017"><ele>224.0</ele><time>2026-04-19T09:22:01.651Z</time></trkpt><trkpt lat="43.30533" lon="11.4030483"><ele>223.99999999999997</ele><time>2026-04-19T09:22:02.656Z</time></trkpt><trkpt lat="43.30524" lon="11.402965"><ele>223.99999999999997</ele><time>2026-04-19T09:22:03.648Z</time></trkpt><trkpt lat="43.3051517" lon="11.4028833"><ele>224.0</ele><time>2026-04-19T09:22:04.656Z</time></trkpt><trkpt lat="43.30507" lon="11.4028267"><ele>224.0</ele><time>2026-04-19T09:22:05.651Z</time></trkpt><trkpt lat="43.304975" lon="11.4027567"><ele>224.00000000000003</ele><time>2026-04-19T09:22:06.652Z</time></trkpt><trkpt lat="43.3049067" lon="11.4026983"><ele>224.0</ele><time>2026-04-19T09:22:07.65Z</time></trkpt><trkpt lat="43.3048283" lon="11.4026417"><ele>224.0</ele><time>2026-04-19T09:22:08.654Z</time></trkpt><trkpt lat="43.3047367" lon="11.4026"><ele>224.0</ele><time>2026-04-19T09:22:09.647Z</time></trkpt><trkpt lat="43.3046633" lon="11.4025533"><ele>224.00000000000003</ele><time>2026-04-19T09:22:10.651Z</time></trkpt><trkpt lat="43.3045783" lon="11.40254"><ele>224.0</ele><time>2026-04-19T09:22:11.658Z</time></trkpt><trkpt lat="43.3044767" lon="11.4025217"><ele>223.5</ele><time>2026-04-19T09:22:12.645Z</time></trkpt><trkpt lat="43.3043583" lon="11.40251"><ele>223.0</ele><time>2026-04-19T09:22:13.651Z</time></trkpt><trkpt lat="43.3042283" lon="11.4025"><ele>222.5</ele><time>2026-04-19T09:22:14.65Z</time></trkpt><trkpt lat="43.3041067" lon="11.4024833"><ele>222.0</ele><time>2026-04-19T09:22:15.652Z</time></trkpt><trkpt lat="43.30398" lon="11.402465"><ele>222.25</ele><time>2026-04-19T09:22:16.647Z</time></trkpt><trkpt lat="43.3038583" lon="11.402435"><ele>222.5</ele><time>2026-04-19T09:22:17.658Z</time></trkpt><trkpt lat="43.303745" lon="11.4023983"><ele>222.75</ele><time>2026-04-19T09:22:18.651Z</time></trkpt><trkpt lat="43.3036367" lon="11.4023417"><ele>223.0</ele><time>2026-04-19T09:22:19.642Z</time></trkpt><trkpt lat="43.303525" lon="11.402275"><ele>223.0</ele><time>2026-04-19T09:22:20.655Z</time></trkpt><trkpt lat="43.3034183" lon="11.40221"><ele>223.0</ele><time>2026-04-19T09:22:21.658Z</time></trkpt><trkpt lat="43.30332" lon="11.4021467"><ele>223.0</ele><time>2026-04-19T09:22:22.648Z</time></trkpt><trkpt lat="43.3032283" lon="11.402085"><ele>223.0</ele><time>2026-04-19T09:22:23.645Z</time></trkpt><trkpt lat="43.3031333" lon="11.40203"><ele>223.0</ele><time>2026-04-19T09:22:24.647Z</time></trkpt><trkpt lat="43.3030467" lon="11.4019667"><ele>221.49999999999997</ele><time>2026-04-19T09:22:25.647Z</time></trkpt><trkpt lat="43.3029517" lon="11.401915"><ele>220.0</ele><time>2026-04-19T09:22:26.652Z</time></trkpt><trkpt lat="43.302865" lon="11.4018617"><ele>218.5</ele><time>2026-04-19T09:22:27.653Z</time></trkpt><trkpt lat="43.3027767" lon="11.4018233"><ele>217.0</ele><time>2026-04-19T09:22:28.648Z</time></trkpt><trkpt lat="43.302705" lon="11.4018217"><ele>215.49999999999997</ele><time>2026-04-19T09:22:29.653Z</time></trkpt><trkpt lat="43.3026217" lon="11.4018333"><ele>214.0</ele><time>2026-04-19T09:22:30.652Z</time></trkpt><trkpt lat="43.3025367" lon="11.4018517"><ele>214.0</ele><time>2026-04-19T09:22:31.656Z</time></trkpt><trkpt lat="43.3024483" lon="11.4019217"><ele>214.0</ele><time>2026-04-19T09:22:32.648Z</time></trkpt><trkpt lat="43.302345" lon="11.4020183"><ele>214.0</ele><time>2026-04-19T09:22:33.649Z</time></trkpt><trkpt lat="43.3022183" lon="11.40218"><ele>214.0</ele><time>2026-04-19T09:22:34.652Z</time></trkpt><trkpt lat="43.302095" lon="11.4023383"><ele>211.5</ele><time>2026-04-19T09:22:35.648Z</time></trkpt><trkpt lat="43.3019767" lon="11.40247"><ele>209.0</ele><time>2026-04-19T09:22:36.646Z</time></trkpt><trkpt lat="43.3018633" lon="11.40258"><ele>206.5</ele><time>2026-04-19T09:22:37.652Z</time></trkpt><trkpt lat="43.301755" lon="11.4026817"><ele>204.0</ele><time>2026-04-19T09:22:38.654Z</time></trkpt><trkpt lat="43.30164" lon="11.4027733"><ele>204.0</ele><time>2026-04-19T09:22:39.653Z</time></trkpt><trkpt lat="43.3015233" lon="11.4028467"><ele>204.0</ele><time>2026-04-19T09:22:40.656Z</time></trkpt><trkpt lat="43.3014183" lon="11.402905"><ele>204.0</ele><time>2026-04-19T09:22:41.658Z</time></trkpt><trkpt lat="43.3013033" lon="11.402955"><ele>204.0</ele><time>2026-04-19T09:22:42.647Z</time></trkpt><trkpt lat="43.301185" lon="11.4029967"><ele>202.2</ele><time>2026-04-19T09:22:43.649Z</time></trkpt><trkpt lat="43.3010733" lon="11.4030267"><ele>200.39999999999998</ele><time>2026-04-19T09:22:44.65Z</time></trkpt><trkpt lat="43.300965" lon="11.403045"><ele>198.6</ele><time>2026-04-19T09:22:45.653Z</time></trkpt><trkpt lat="43.30086" lon="11.4030467"><ele>196.8</ele><time>2026-04-19T09:22:46.65Z</time></trkpt><trkpt lat="43.3007583" lon="11.4030383"><ele>195.0</ele><time>2026-04-19T09:22:47.657Z</time></trkpt><trkpt lat="43.3006583" lon="11.4030183"><ele>192.25</ele><time>2026-04-19T09:22:48.65Z</time></trkpt><trkpt lat="43.3005533" lon="11.402995"><ele>189.5</ele><time>2026-04-19T09:22:49.649Z</time></trkpt><trkpt lat="43.3004467" lon="11.40297"><ele>186.75</ele><time>2026-04-19T09:22:50.644Z</time></trkpt><trkpt lat="43.3003317" lon="11.4029417"><ele>184.0</ele><time>2026-04-19T09:22:51.645Z</time></trkpt><trkpt lat="43.3002133" lon="11.402915"><ele>184.0</ele><time>2026-04-19T09:22:52.646Z</time></trkpt><trkpt lat="43.3000933" lon="11.4028917"><ele>184.0</ele><time>2026-04-19T09:22:53.649Z</time></trkpt><trkpt lat="43.2999717" lon="11.4028667"><ele>184.0</ele><time>2026-04-19T09:22:54.651Z</time></trkpt><trkpt lat="43.2998433" lon="11.40285"><ele>184.0</ele><time>2026-04-19T09:22:55.649Z</time></trkpt><trkpt lat="43.2997133" lon="11.4028567"><ele>183.75</ele><time>2026-04-19T09:22:56.652Z</time></trkpt><trkpt lat="43.299575" lon="11.4028767"><ele>183.5</ele><time>2026-04-19T09:22:57.653Z</time></trkpt><trkpt lat="43.2994467" lon="11.4029033"><ele>183.25</ele><time>2026-04-19T09:22:58.647Z</time></trkpt><trkpt lat="43.2993167" lon="11.4029283"><ele>183.0</ele><time>2026-04-19T09:22:59.645Z</time></trkpt><trkpt lat="43.2991883" lon="11.402965"><ele>183.0</ele><time>2026-04-19T09:23:00.653Z</time></trkpt><trkpt lat="43.2990583" lon="11.403"><ele>183.0</ele><time>2026-04-19T09:23:01.65Z</time></trkpt><trkpt lat="43.2989267" lon="11.4030383"><ele>183.0</ele><time>2026-04-19T09:23:02.651Z</time></trkpt><trkpt lat="43.2987967" lon="11.40307"><ele>183.0</ele><time>2026-04-19T09:23:03.646Z</time></trkpt><trkpt lat="43.29867" lon="11.4030933"><ele>183.2</ele><time>2026-04-19T09:23:04.65Z</time></trkpt><trkpt lat="43.2985667" lon="11.4030983"><ele>183.4</ele><time>2026-04-19T09:23:05.649Z</time></trkpt><trkpt lat="43.2984783" lon="11.4030717"><ele>183.6</ele><time>2026-04-19T09:23:06.652Z</time></trkpt><trkpt lat="43.29839" lon="11.4030367"><ele>183.79999999999998</ele><time>2026-04-19T09:23:07.651Z</time></trkpt><trkpt lat="43.2983067" lon="11.4029967"><ele>184.0</ele><time>2026-04-19T09:23:08.65Z</time></trkpt><trkpt lat="43.2982117" lon="11.4029817"><ele>184.0</ele><time>2026-04-19T09:23:09.655Z</time></trkpt><trkpt lat="43.2981117" lon="11.4029583"><ele>184.0</ele><time>2026-04-19T09:23:10.647Z</time></trkpt><trkpt lat="43.2980083" lon="11.4029283"><ele>184.0</ele><time>2026-04-19T09:23:11.664Z</time></trkpt><trkpt lat="43.2978867" lon="11.4028867"><ele>184.0</ele><time>2026-04-19T09:23:12.647Z</time></trkpt><trkpt lat="43.2977417" lon="11.4028417"><ele>183.0</ele><time>2026-04-19T09:23:13.65Z</time></trkpt><trkpt lat="43.2976033" lon="11.4028217"><ele>182.0</ele><time>2026-04-19T09:23:14.651Z</time></trkpt><trkpt lat="43.297445" lon="11.4028017"><ele>181.0</ele><time>2026-04-19T09:23:15.66Z</time></trkpt><trkpt lat="43.2972783" lon="11.4027883"><ele>182.0</ele><time>2026-04-19T09:23:16.653Z</time></trkpt><trkpt lat="43.29711" lon="11.402775"><ele>183.0</ele><time>2026-04-19T09:23:17.651Z</time></trkpt><trkpt lat="43.2969433" lon="11.4027683"><ele>184.0</ele><time>2026-04-19T09:23:18.662Z</time></trkpt><trkpt lat="43.29678" lon="11.4027617"><ele>184.0</ele><time>2026-04-19T09:23:19.676Z</time></trkpt><trkpt lat="43.29662" lon="11.4027483"><ele>184.0</ele><time>2026-04-19T09:23:20.65Z</time></trkpt><trkpt lat="43.2964667" lon="11.40273"><ele>184.0</ele><time>2026-04-19T09:23:21.65Z</time></trkpt><trkpt lat="43.2963267" lon="11.40269"><ele>183.25</ele><time>2026-04-19T09:23:22.65Z</time></trkpt><trkpt lat="43.2962017" lon="11.4026317"><ele>182.5</ele><time>2026-04-19T09:23:23.65Z</time></trkpt><trkpt lat="43.2960917" lon="11.40255"><ele>181.75</ele><time>2026-04-19T09:23:24.648Z</time></trkpt><trkpt lat="43.2960183" lon="11.4024467"><ele>181.0</ele><time>2026-04-19T09:23:25.644Z</time></trkpt><trkpt lat="43.2959767" lon="11.4023183"><ele>181.0</ele><time>2026-04-19T09:23:26.654Z</time></trkpt><trkpt lat="43.29595" lon="11.4021733"><ele>181.0</ele><time>2026-04-19T09:23:27.649Z</time></trkpt><trkpt lat="43.2959083" lon="11.4020433"><ele>181.0</ele><time>2026-04-19T09:23:28.644Z</time></trkpt><trkpt lat="43.2958683" lon="11.4019133"><ele>181.0</ele><time>2026-04-19T09:23:29.648Z</time></trkpt><trkpt lat="43.295805" lon="11.4018233"><ele>181.0</ele><time>2026-04-19T09:23:30.648Z</time></trkpt><trkpt lat="43.2957267" lon="11.4017933"><ele>180.4</ele><time>2026-04-19T09:23:32.648Z</time></trkpt><trkpt lat="43.2957017" lon="11.4018733"><ele>179.8</ele><time>2026-04-19T09:23:33.649Z</time></trkpt><trkpt lat="43.2956817" lon="11.401995"><ele>179.20000000000002</ele><time>2026-04-19T09:23:34.648Z</time></trkpt><trkpt lat="43.29562" lon="11.4021483"><ele>178.60000000000002</ele><time>2026-04-19T09:23:35.651Z</time></trkpt><trkpt lat="43.2955667" lon="11.40227"><ele>178.0</ele><time>2026-04-19T09:23:36.65Z</time></trkpt><trkpt lat="43.2955" lon="11.4023783"><ele>178.0</ele><time>2026-04-19T09:23:37.653Z</time></trkpt><trkpt lat="43.295425" lon="11.4024883"><ele>178.0</ele><time>2026-04-19T09:23:38.653Z</time></trkpt><trkpt lat="43.295345" lon="11.40259"><ele>178.0</ele><time>2026-04-19T09:23:39.645Z</time></trkpt><trkpt lat="43.2952683" lon="11.40269"><ele>178.0</ele><time>2026-04-19T09:23:40.646Z</time></trkpt><trkpt lat="43.2951867" lon="11.4028"><ele>178.0</ele><time>2026-04-19T09:23:41.647Z</time></trkpt><trkpt lat="43.2951067" lon="11.4029067"><ele>178.2</ele><time>2026-04-19T09:23:42.648Z</time></trkpt><trkpt lat="43.2950317" lon="11.40301"><ele>178.4</ele><time>2026-04-19T09:23:43.648Z</time></trkpt><trkpt lat="43.29497" lon="11.4031167"><ele>178.6</ele><time>2026-04-19T09:23:44.654Z</time></trkpt><trkpt lat="43.2949217" lon="11.40324"><ele>178.79999999999998</ele><time>2026-04-19T09:23:45.652Z</time></trkpt><trkpt lat="43.2948983" lon="11.40336"><ele>179.0</ele><time>2026-04-19T09:23:46.648Z</time></trkpt><trkpt lat="43.2948783" lon="11.4034917"><ele>179.0</ele><time>2026-04-19T09:23:47.653Z</time></trkpt><trkpt lat="43.2948767" lon="11.4036183"><ele>179.0</ele><time>2026-04-19T09:23:48.645Z</time></trkpt><trkpt lat="43.2948967" lon="11.4037233"><ele>179.0</ele><time>2026-04-19T09:23:49.651Z</time></trkpt><trkpt lat="43.29492" lon="11.4038217"><ele>179.0</ele><time>2026-04-19T09:23:50.655Z</time></trkpt><trkpt lat="43.2949267" lon="11.4039383"><ele>179.0</ele><time>2026-04-19T09:23:52.646Z</time></trkpt><trkpt lat="43.294855" lon="11.4037033"><ele>179.00000000000003</ele><time>2026-04-19T09:23:58.651Z</time></trkpt><trkpt lat="43.2948367" lon="11.4036033"><ele>179.0</ele><time>2026-04-19T09:23:59.657Z</time></trkpt><trkpt lat="43.2948317" lon="11.4034917"><ele>179.0</ele><time>2026-04-19T09:24:00.653Z</time></trkpt><trkpt lat="43.294835" lon="11.403395"><ele>179.0</ele><time>2026-04-19T09:24:01.646Z</time></trkpt><trkpt lat="43.2948483" lon="11.403295"><ele>179.0</ele><time>2026-04-19T09:24:02.651Z</time></trkpt><trkpt lat="43.2948717" lon="11.4032"><ele>179.00000000000003</ele><time>2026-04-19T09:24:03.653Z</time></trkpt><trkpt lat="43.2949" lon="11.4031083"><ele>179.0</ele><time>2026-04-19T09:24:04.647Z</time></trkpt><trkpt lat="43.294925" lon="11.4030117"><ele>178.83333333333331</ele><time>2026-04-19T09:24:05.65Z</time></trkpt><trkpt lat="43.29494" lon="11.402905"><ele>178.66666666666666</ele><time>2026-04-19T09:24:06.648Z</time></trkpt><trkpt lat="43.294945" lon="11.402795"><ele>178.5</ele><time>2026-04-19T09:24:07.65Z</time></trkpt><trkpt lat="43.294945" lon="11.4026833"><ele>178.33333333333334</ele><time>2026-04-19T09:24:08.648Z</time></trkpt><trkpt lat="43.2949133" lon="11.40258"><ele>178.16666666666669</ele><time>2026-04-19T09:24:09.656Z</time></trkpt><trkpt lat="43.2948517" lon="11.4024917"><ele>178.0</ele><time>2026-04-19T09:24:10.65Z</time></trkpt><trkpt lat="43.29475" lon="11.402405"><ele>178.33333333333334</ele><time>2026-04-19T09:24:11.655Z</time></trkpt><trkpt lat="43.2946083" lon="11.40229"><ele>178.66666666666666</ele><time>2026-04-19T09:24:12.651Z</time></trkpt><trkpt lat="43.294435" lon="11.40217"><ele>179.0</ele><time>2026-04-19T09:24:13.652Z</time></trkpt><trkpt lat="43.294245" lon="11.40204"><ele>179.0</ele><time>2026-04-19T09:24:14.652Z</time></trkpt><trkpt lat="43.29405" lon="11.40189"><ele>179.0</ele><time>2026-04-19T09:24:15.652Z</time></trkpt><trkpt lat="43.293895" lon="11.4017517"><ele>179.0</ele><time>2026-04-19T09:24:16.644Z</time></trkpt><trkpt lat="43.293745" lon="11.401605"><ele>179.0</ele><time>2026-04-19T09:24:17.643Z</time></trkpt><trkpt lat="43.2936067" lon="11.4014417"><ele>179.0</ele><time>2026-04-19T09:24:18.654Z</time></trkpt><trkpt lat="43.293485" lon="11.4012917"><ele>179.0</ele><time>2026-04-19T09:24:19.645Z</time></trkpt><trkpt lat="43.2933817" lon="11.4011483"><ele>179.0</ele><time>2026-04-19T09:24:20.651Z</time></trkpt><trkpt lat="43.29328" lon="11.4010033"><ele>179.0</ele><time>2026-04-19T09:24:21.648Z</time></trkpt><trkpt lat="43.2931783" lon="11.4008433"><ele>179.0</ele><time>2026-04-19T09:24:22.659Z</time></trkpt><trkpt lat="43.2930783" lon="11.4007217"><ele>179.0</ele><time>2026-04-19T09:24:23.655Z</time></trkpt><trkpt lat="43.2929917" lon="11.400615"><ele>179.0</ele><time>2026-04-19T09:24:24.65Z</time></trkpt><trkpt lat="43.292905" lon="11.40052"><ele>179.0</ele><time>2026-04-19T09:24:25.653Z</time></trkpt><trkpt lat="43.2928167" lon="11.4004417"><ele>179.0</ele><time>2026-04-19T09:24:26.653Z</time></trkpt><trkpt lat="43.292725" lon="11.400365"><ele>179.0</ele><time>2026-04-19T09:24:27.651Z</time></trkpt><trkpt lat="43.2926167" lon="11.4003167"><ele>179.0</ele><time>2026-04-19T09:24:28.644Z</time></trkpt><trkpt lat="43.29251" lon="11.400295"><ele>179.0</ele><time>2026-04-19T09:24:29.655Z</time></trkpt><trkpt lat="43.2924017" lon="11.4002583"><ele>179.0</ele><time>2026-04-19T09:24:30.653Z</time></trkpt><trkpt lat="43.2923083" lon="11.4002133"><ele>179.0</ele><time>2026-04-19T09:24:31.652Z</time></trkpt><trkpt lat="43.29221" lon="11.400145"><ele>179.0</ele><time>2026-04-19T09:24:32.65Z</time></trkpt><trkpt lat="43.292105" lon="11.4000567"><ele>179.0</ele><time>2026-04-19T09:24:33.651Z</time></trkpt><trkpt lat="43.2920067" lon="11.399955"><ele>178.75</ele><time>2026-04-19T09:24:34.654Z</time></trkpt><trkpt lat="43.2919067" lon="11.3998467"><ele>178.5</ele><time>2026-04-19T09:24:35.65Z</time></trkpt><trkpt lat="43.2918083" lon="11.399725"><ele>178.25</ele><time>2026-04-19T09:24:36.649Z</time></trkpt><trkpt lat="43.2917133" lon="11.3996233"><ele>178.0</ele><time>2026-04-19T09:24:37.653Z</time></trkpt><trkpt lat="43.291625" lon="11.3995533"><ele>177.66666666666669</ele><time>2026-04-19T09:24:38.65Z</time></trkpt><trkpt lat="43.29156" lon="11.3994917"><ele>177.33333333333334</ele><time>2026-04-19T09:24:39.652Z</time></trkpt><trkpt lat="43.291485" lon="11.3994233"><ele>177.0</ele><time>2026-04-19T09:24:41.649Z</time></trkpt><trkpt lat="43.2914817" lon="11.3995117"><ele>176.66666666666666</ele><time>2026-04-19T09:26:51.653Z</time></trkpt><trkpt lat="43.2915617" lon="11.3995533"><ele>176.33333333333331</ele><time>2026-04-19T09:28:03.649Z</time></trkpt><trkpt lat="43.2916483" lon="11.3995933"><ele>176.0</ele><time>2026-04-19T09:28:06.657Z</time></trkpt><trkpt lat="43.29172" lon="11.3996517"><ele>176.33333333333331</ele><time>2026-04-19T09:28:08.649Z</time></trkpt><trkpt lat="43.2918017" lon="11.3997333"><ele>176.66666666666666</ele><time>2026-04-19T09:28:10.649Z</time></trkpt><trkpt lat="43.291895" lon="11.3998317"><ele>177.0</ele><time>2026-04-19T09:28:12.649Z</time></trkpt><trkpt lat="43.2919483" lon="11.3998883"><ele>177.33333333333334</ele><time>2026-04-19T09:28:13.646Z</time></trkpt><trkpt lat="43.29201" lon="11.39995"><ele>177.66666666666669</ele><time>2026-04-19T09:28:14.65Z</time></trkpt><trkpt lat="43.2920767" lon="11.40002"><ele>178.0</ele><time>2026-04-19T09:28:15.65Z</time></trkpt><trkpt lat="43.2921517" lon="11.4000917"><ele>178.0</ele><time>2026-04-19T09:28:16.646Z</time></trkpt><trkpt lat="43.2922317" lon="11.40017"><ele>178.0</ele><time>2026-04-19T09:28:17.647Z</time></trkpt><trkpt lat="43.2923067" lon="11.400245"><ele>178.0</ele><time>2026-04-19T09:28:18.66Z</time></trkpt><trkpt lat="43.292495" lon="11.400415"><ele>178.0</ele><time>2026-04-19T09:28:21.647Z</time></trkpt><trkpt lat="43.2925767" lon="11.4004567"><ele>178.2</ele><time>2026-04-19T09:28:22.652Z</time></trkpt><trkpt lat="43.292655" lon="11.400485"><ele>178.4</ele><time>2026-04-19T09:28:23.655Z</time></trkpt><trkpt lat="43.292735" lon="11.400505"><ele>178.6</ele><time>2026-04-19T09:28:24.645Z</time></trkpt><trkpt lat="43.292815" lon="11.4005467"><ele>178.79999999999998</ele><time>2026-04-19T09:28:25.657Z</time></trkpt><trkpt lat="43.2928983" lon="11.4006183"><ele>179.0</ele><time>2026-04-19T09:28:26.646Z</time></trkpt><trkpt lat="43.292985" lon="11.4007133"><ele>179.0</ele><time>2026-04-19T09:28:27.656Z</time></trkpt><trkpt lat="43.29308" lon="11.4008283"><ele>179.0</ele><time>2026-04-19T09:28:28.646Z</time></trkpt><trkpt lat="43.293175" lon="11.4009583"><ele>179.0</ele><time>2026-04-19T09:28:29.65Z</time></trkpt><trkpt lat="43.2932783" lon="11.4010967"><ele>179.0</ele><time>2026-04-19T09:28:30.655Z</time></trkpt><trkpt lat="43.2933867" lon="11.4012383"><ele>178.66666666666666</ele><time>2026-04-19T09:28:31.652Z</time></trkpt><trkpt lat="43.2934967" lon="11.4013783"><ele>178.33333333333334</ele><time>2026-04-19T09:28:32.654Z</time></trkpt><trkpt lat="43.2936133" lon="11.4015133"><ele>178.0</ele><time>2026-04-19T09:28:33.656Z</time></trkpt><trkpt lat="43.29374" lon="11.4016433"><ele>178.0</ele><time>2026-04-19T09:28:34.658Z</time></trkpt><trkpt lat="43.2938767" lon="11.401775"><ele>178.0</ele><time>2026-04-19T09:28:35.656Z</time></trkpt><trkpt lat="43.2940033" lon="11.4019067"><ele>178.0</ele><time>2026-04-19T09:28:36.659Z</time></trkpt><trkpt lat="43.2941433" lon="11.4020367"><ele>178.66666666666669</ele><time>2026-04-19T09:28:37.649Z</time></trkpt><trkpt lat="43.2942867" lon="11.4021667"><ele>179.33333333333334</ele><time>2026-04-19T09:28:38.657Z</time></trkpt><trkpt lat="43.2944217" lon="11.4022933"><ele>180.0</ele><time>2026-04-19T09:28:39.651Z</time></trkpt><trkpt lat="43.2945517" lon="11.4024133"><ele>180.0</ele><time>2026-04-19T09:28:40.652Z</time></trkpt><trkpt lat="43.2946683" lon="11.4025233"><ele>180.0</ele><time>2026-04-19T09:28:41.65Z</time></trkpt><trkpt lat="43.2947733" lon="11.4026283"><ele>180.0</ele><time>2026-04-19T09:28:42.651Z</time></trkpt><trkpt lat="43.2948583" lon="11.4027183"><ele>180.0</ele><time>2026-04-19T09:28:43.643Z</time></trkpt><trkpt lat="43.2949233" lon="11.4028"><ele>179.85714285714286</ele><time>2026-04-19T09:28:44.661Z</time></trkpt><trkpt lat="43.2949767" lon="11.4028783"><ele>179.71428571428572</ele><time>2026-04-19T09:28:45.657Z</time></trkpt><trkpt lat="43.2949967" lon="11.4029617"><ele>179.57142857142858</ele><time>2026-04-19T09:28:46.659Z</time></trkpt><trkpt lat="43.29501" lon="11.4030617"><ele>179.42857142857144</ele><time>2026-04-19T09:28:47.653Z</time></trkpt><trkpt lat="43.2950017" lon="11.4031533"><ele>179.28571428571428</ele><time>2026-04-19T09:28:48.649Z</time></trkpt><trkpt lat="43.2949683" lon="11.4032533"><ele>179.14285714285717</ele><time>2026-04-19T09:28:49.651Z</time></trkpt><trkpt lat="43.2949533" lon="11.403355"><ele>179.0</ele><time>2026-04-19T09:28:50.652Z</time></trkpt><trkpt lat="43.294945" lon="11.40347"><ele>179.00000000000003</ele><time>2026-04-19T09:28:51.653Z</time></trkpt><trkpt lat="43.2949533" lon="11.403585"><ele>179.0</ele><time>2026-04-19T09:28:52.65Z</time></trkpt><trkpt lat="43.2949517" lon="11.403695"><ele>179.0</ele><time>2026-04-19T09:28:53.652Z</time></trkpt><trkpt lat="43.2949467" lon="11.4038017"><ele>179.0</ele><time>2026-04-19T09:28:54.65Z</time></trkpt><trkpt lat="43.2949683" lon="11.4038867"><ele>179.0</ele><time>2026-04-19T09:28:55.646Z</time></trkpt><trkpt lat="43.294995" lon="11.4039667"><ele>179.00000000000003</ele><time>2026-04-19T09:28:56.656Z</time></trkpt><trkpt lat="43.2950317" lon="11.4040567"><ele>179.0</ele><time>2026-04-19T09:28:57.653Z</time></trkpt><trkpt lat="43.29508" lon="11.4041533"><ele>179.2</ele><time>2026-04-19T09:28:58.653Z</time></trkpt><trkpt lat="43.2951383" lon="11.4042633"><ele>179.39999999999998</ele><time>2026-04-19T09:28:59.658Z</time></trkpt><trkpt lat="43.2952" lon="11.4043867"><ele>179.6</ele><time>2026-04-19T09:29:00.653Z</time></trkpt><trkpt lat="43.2952583" lon="11.4045233"><ele>179.8</ele><time>2026-04-19T09:29:01.651Z</time></trkpt><trkpt lat="43.2953317" lon="11.40466"><ele>180.0</ele><time>2026-04-19T09:29:02.654Z</time></trkpt><trkpt lat="43.2954067" lon="11.4048017"><ele>180.0</ele><time>2026-04-19T09:29:03.649Z</time></trkpt><trkpt lat="43.2954767" lon="11.4049483"><ele>180.0</ele><time>2026-04-19T09:29:04.648Z</time></trkpt><trkpt lat="43.2955483" lon="11.4051"><ele>180.0</ele><time>2026-04-19T09:29:05.653Z</time></trkpt><trkpt lat="43.2956167" lon="11.405255"><ele>180.0</ele><time>2026-04-19T09:29:06.655Z</time></trkpt><trkpt lat="43.2956783" lon="11.4054017"><ele>180.4</ele><time>2026-04-19T09:29:07.646Z</time></trkpt><trkpt lat="43.2957333" lon="11.4055467"><ele>180.8</ele><time>2026-04-19T09:29:08.645Z</time></trkpt><trkpt lat="43.29578" lon="11.40569"><ele>181.2</ele><time>2026-04-19T09:29:09.649Z</time></trkpt><trkpt lat="43.2958183" lon="11.4058267"><ele>181.6</ele><time>2026-04-19T09:29:10.649Z</time></trkpt><trkpt lat="43.2958417" lon="11.4059583"><ele>182.0</ele><time>2026-04-19T09:29:11.657Z</time></trkpt><trkpt lat="43.2958617" lon="11.4060933"><ele>182.0</ele><time>2026-04-19T09:29:12.654Z</time></trkpt><trkpt lat="43.2958833" lon="11.406235"><ele>182.0</ele><time>2026-04-19T09:29:13.652Z</time></trkpt><trkpt lat="43.295905" lon="11.406375"><ele>182.0</ele><time>2026-04-19T09:29:14.644Z</time></trkpt><trkpt lat="43.2959233" lon="11.4065133"><ele>182.0</ele><time>2026-04-19T09:29:15.644Z</time></trkpt><trkpt lat="43.2959333" lon="11.4066367"><ele>182.0</ele><time>2026-04-19T09:29:16.646Z</time></trkpt><trkpt lat="43.29593" lon="11.4067567"><ele>182.5</ele><time>2026-04-19T09:29:17.649Z</time></trkpt><trkpt lat="43.2959167" lon="11.4068783"><ele>183.0</ele><time>2026-04-19T09:29:18.65Z</time></trkpt><trkpt lat="43.2958767" lon="11.4070117"><ele>183.5</ele><time>2026-04-19T09:29:19.647Z</time></trkpt><trkpt lat="43.29581" lon="11.4071633"><ele>184.0</ele><time>2026-04-19T09:29:20.653Z</time></trkpt><trkpt lat="43.295735" lon="11.4073067"><ele>184.2</ele><time>2026-04-19T09:29:21.65Z</time></trkpt><trkpt lat="43.29566" lon="11.4074467"><ele>184.39999999999998</ele><time>2026-04-19T09:29:22.651Z</time></trkpt><trkpt lat="43.2955967" lon="11.4075733"><ele>184.6</ele><time>2026-04-19T09:29:23.65Z</time></trkpt><trkpt lat="43.2955483" lon="11.407695"><ele>184.8</ele><time>2026-04-19T09:29:24.654Z</time></trkpt><trkpt lat="43.29548" lon="11.4078117"><ele>185.0</ele><time>2026-04-19T09:29:25.654Z</time></trkpt><trkpt lat="43.2954133" lon="11.4079233"><ele>185.4</ele><time>2026-04-19T09:29:26.652Z</time></trkpt><trkpt lat="43.29535" lon="11.4080267"><ele>185.8</ele><time>2026-04-19T09:29:27.648Z</time></trkpt><trkpt lat="43.2952983" lon="11.4081267"><ele>186.2</ele><time>2026-04-19T09:29:28.656Z</time></trkpt><trkpt lat="43.29525" lon="11.4082333"><ele>186.6</ele><time>2026-04-19T09:29:29.652Z</time></trkpt><trkpt lat="43.2952017" lon="11.4083367"><ele>187.0</ele><time>2026-04-19T09:29:30.654Z</time></trkpt><trkpt lat="43.29515" lon="11.4084533"><ele>187.0</ele><time>2026-04-19T09:29:31.651Z</time></trkpt><trkpt lat="43.2951033" lon="11.4085633"><ele>187.0</ele><time>2026-04-19T09:29:32.655Z</time></trkpt><trkpt lat="43.2950567" lon="11.4086783"><ele>187.0</ele><time>2026-04-19T09:29:33.653Z</time></trkpt><trkpt lat="43.2950117" lon="11.4088017"><ele>187.0</ele><time>2026-04-19T09:29:34.655Z</time></trkpt><trkpt lat="43.2949567" lon="11.40893"><ele>187.0</ele><time>2026-04-19T09:29:35.656Z</time></trkpt><trkpt lat="43.29491" lon="11.40906"><ele>187.2</ele><time>2026-04-19T09:29:36.647Z</time></trkpt><trkpt lat="43.2948667" lon="11.40918"><ele>187.39999999999998</ele><time>2026-04-19T09:29:37.652Z</time></trkpt><trkpt lat="43.29483" lon="11.4092967"><ele>187.60000000000002</ele><time>2026-04-19T09:29:38.651Z</time></trkpt><trkpt lat="43.2947817" lon="11.4094117"><ele>187.8</ele><time>2026-04-19T09:29:39.652Z</time></trkpt><trkpt lat="43.2947283" lon="11.409525"><ele>188.0</ele><time>2026-04-19T09:29:40.649Z</time></trkpt><trkpt lat="43.2946717" lon="11.40965"><ele>188.25</ele><time>2026-04-19T09:29:41.651Z</time></trkpt><trkpt lat="43.2946017" lon="11.409785"><ele>188.5</ele><time>2026-04-19T09:29:42.652Z</time></trkpt><trkpt lat="43.29455" lon="11.4099183"><ele>188.75</ele><time>2026-04-19T09:29:43.653Z</time></trkpt><trkpt lat="43.2944967" lon="11.4100517"><ele>189.0</ele><time>2026-04-19T09:29:44.656Z</time></trkpt><trkpt lat="43.2943967" lon="11.41021"><ele>189.0</ele><time>2026-04-19T09:29:45.654Z</time></trkpt><trkpt lat="43.2943383" lon="11.4103533"><ele>189.0</ele><time>2026-04-19T09:29:46.648Z</time></trkpt><trkpt lat="43.294275" lon="11.4104967"><ele>189.0</ele><time>2026-04-19T09:29:47.649Z</time></trkpt><trkpt lat="43.29422" lon="11.4106317"><ele>189.0</ele><time>2026-04-19T09:29:48.652Z</time></trkpt><trkpt lat="43.294165" lon="11.4107633"><ele>189.2</ele><time>2026-04-19T09:29:49.65Z</time></trkpt><trkpt lat="43.294115" lon="11.4108767"><ele>189.39999999999998</ele><time>2026-04-19T09:29:50.648Z</time></trkpt><trkpt lat="43.29406" lon="11.410975"><ele>189.6</ele><time>2026-04-19T09:29:51.655Z</time></trkpt><trkpt lat="43.29399" lon="11.4110767"><ele>189.8</ele><time>2026-04-19T09:29:52.654Z</time></trkpt><trkpt lat="43.2939267" lon="11.4111867"><ele>190.0</ele><time>2026-04-19T09:29:53.655Z</time></trkpt><trkpt lat="43.2938617" lon="11.4113183"><ele>190.5</ele><time>2026-04-19T09:29:54.651Z</time></trkpt><trkpt lat="43.2937783" lon="11.41147"><ele>191.0</ele><time>2026-04-19T09:29:55.65Z</time></trkpt><trkpt lat="43.2936967" lon="11.41162"><ele>191.5</ele><time>2026-04-19T09:29:56.648Z</time></trkpt><trkpt lat="43.2936317" lon="11.4117683"><ele>192.0</ele><time>2026-04-19T09:29:57.648Z</time></trkpt><trkpt lat="43.29356" lon="11.4119267"><ele>192.0</ele><time>2026-04-19T09:29:58.655Z</time></trkpt><trkpt lat="43.29348" lon="11.4120917"><ele>192.0</ele><time>2026-04-19T09:29:59.655Z</time></trkpt><trkpt lat="43.2934133" lon="11.4122567"><ele>192.0</ele><time>2026-04-19T09:30:00.656Z</time></trkpt><trkpt lat="43.29334" lon="11.4124317"><ele>192.0</ele><time>2026-04-19T09:30:01.653Z</time></trkpt><trkpt lat="43.2932733" lon="11.4126067"><ele>192.75</ele><time>2026-04-19T09:30:02.653Z</time></trkpt><trkpt lat="43.2932083" lon="11.4127867"><ele>193.5</ele><time>2026-04-19T09:30:03.644Z</time></trkpt><trkpt lat="43.29314" lon="11.4129633"><ele>194.25</ele><time>2026-04-19T09:30:04.646Z</time></trkpt><trkpt lat="43.2930717" lon="11.41314"><ele>195.0</ele><time>2026-04-19T09:30:05.643Z</time></trkpt><trkpt lat="43.2929917" lon="11.4133233"><ele>196.5</ele><time>2026-04-19T09:30:06.655Z</time></trkpt><trkpt lat="43.2929233" lon="11.4134967"><ele>198.0</ele><time>2026-04-19T09:30:07.651Z</time></trkpt><trkpt lat="43.2928633" lon="11.4136617"><ele>199.5</ele><time>2026-04-19T09:30:08.648Z</time></trkpt><trkpt lat="43.2928067" lon="11.413825"><ele>201.0</ele><time>2026-04-19T09:30:09.648Z</time></trkpt><trkpt lat="43.2927533" lon="11.4139833"><ele>202.25</ele><time>2026-04-19T09:30:10.653Z</time></trkpt><trkpt lat="43.2927" lon="11.4141483"><ele>203.5</ele><time>2026-04-19T09:30:11.65Z</time></trkpt><trkpt lat="43.2926483" lon="11.4143117"><ele>204.75</ele><time>2026-04-19T09:30:12.652Z</time></trkpt><trkpt lat="43.2926017" lon="11.4144767"><ele>206.0</ele><time>2026-04-19T09:30:13.647Z</time></trkpt><trkpt lat="43.29255" lon="11.4146533"><ele>207.25</ele><time>2026-04-19T09:30:14.652Z</time></trkpt><trkpt lat="43.2925033" lon="11.4148283"><ele>208.5</ele><time>2026-04-19T09:30:15.643Z</time></trkpt><trkpt lat="43.2924583" lon="11.414995"><ele>209.75</ele><time>2026-04-19T09:30:16.647Z</time></trkpt><trkpt lat="43.29242" lon="11.4151483"><ele>211.0</ele><time>2026-04-19T09:30:17.648Z</time></trkpt><trkpt lat="43.292385" lon="11.415265"><ele>210.99999999999997</ele><time>2026-04-19T09:30:18.653Z</time></trkpt><trkpt lat="43.2923483" lon="11.4153667"><ele>211.0</ele><time>2026-04-19T09:30:19.65Z</time></trkpt><trkpt lat="43.2923067" lon="11.4154433"><ele>211.0</ele><time>2026-04-19T09:30:20.657Z</time></trkpt><trkpt lat="43.2922117" lon="11.41547"><ele>211.0</ele><time>2026-04-19T09:30:22.643Z</time></trkpt><trkpt lat="43.2921733" lon="11.415395"><ele>210.99999999999997</ele><time>2026-04-19T09:30:23.643Z</time></trkpt><trkpt lat="43.2921133" lon="11.4153133"><ele>211.0</ele><time>2026-04-19T09:30:24.644Z</time></trkpt><trkpt lat="43.2920417" lon="11.41525"><ele>212.25</ele><time>2026-04-19T09:30:25.649Z</time></trkpt><trkpt lat="43.2919617" lon="11.415205"><ele>213.5</ele><time>2026-04-19T09:30:26.646Z</time></trkpt><trkpt lat="43.29187" lon="11.4151467"><ele>214.75</ele><time>2026-04-19T09:30:27.646Z</time></trkpt><trkpt lat="43.2917533" lon="11.4150633"><ele>216.0</ele><time>2026-04-19T09:30:28.649Z</time></trkpt><trkpt lat="43.2916217" lon="11.4149633"><ele>216.0</ele><time>2026-04-19T09:30:29.651Z</time></trkpt><trkpt lat="43.291495" lon="11.41486"><ele>216.0</ele><time>2026-04-19T09:30:30.652Z</time></trkpt><trkpt lat="43.291375" lon="11.414745"><ele>216.0</ele><time>2026-04-19T09:30:31.653Z</time></trkpt><trkpt lat="43.2912633" lon="11.4146183"><ele>216.0</ele><time>2026-04-19T09:30:32.65Z</time></trkpt><trkpt lat="43.2911683" lon="11.41449"><ele>217.4</ele><time>2026-04-19T09:30:33.644Z</time></trkpt><trkpt lat="43.2910933" lon="11.41436"><ele>218.8</ele><time>2026-04-19T09:30:34.648Z</time></trkpt><trkpt lat="43.2910333" lon="11.414235"><ele>220.20000000000002</ele><time>2026-04-19T09:30:35.645Z</time></trkpt><trkpt lat="43.2909867" lon="11.4141317"><ele>221.60000000000002</ele><time>2026-04-19T09:30:36.646Z</time></trkpt><trkpt lat="43.2909667" lon="11.41404"><ele>223.0</ele><time>2026-04-19T09:30:37.648Z</time></trkpt><trkpt lat="43.290945" lon="11.413935"><ele>222.99999999999997</ele><time>2026-04-19T09:30:38.646Z</time></trkpt><trkpt lat="43.2909317" lon="11.4138467"><ele>223.0</ele><time>2026-04-19T09:30:39.653Z</time></trkpt><trkpt lat="43.290905" lon="11.4137067"><ele>223.0</ele><time>2026-04-19T09:30:41.65Z</time></trkpt><trkpt lat="43.2908933" lon="11.4136183"><ele>223.0</ele><time>2026-04-19T09:30:43.652Z</time></trkpt><trkpt lat="43.290935" lon="11.4136917"><ele>222.99999999999997</ele><time>2026-04-19T09:30:57.649Z</time></trkpt><trkpt lat="43.2909783" lon="11.4138083"><ele>223.0</ele><time>2026-04-19T09:31:00.649Z</time></trkpt><trkpt lat="43.290945" lon="11.4138817"><ele>222.99999999999997</ele><time>2026-04-19T09:31:04.646Z</time></trkpt><trkpt lat="43.29087" lon="11.41385"><ele>223.0</ele><time>2026-04-19T09:31:06.645Z</time></trkpt><trkpt lat="43.290785" lon="11.41381"><ele>223.0</ele><time>2026-04-19T09:31:08.654Z</time></trkpt><trkpt lat="43.2907033" lon="11.4137133"><ele>223.0</ele><time>2026-04-19T09:31:10.648Z</time></trkpt><trkpt lat="43.2906517" lon="11.413655"><ele>222.99999999999997</ele><time>2026-04-19T09:31:11.65Z</time></trkpt><trkpt lat="43.2905983" lon="11.4135933"><ele>223.0</ele><time>2026-04-19T09:31:12.649Z</time></trkpt><trkpt lat="43.2905467" lon="11.4135233"><ele>222.49999999999997</ele><time>2026-04-19T09:31:13.652Z</time></trkpt><trkpt lat="43.2904917" lon="11.4134517"><ele>222.0</ele><time>2026-04-19T09:31:14.651Z</time></trkpt><trkpt lat="43.2904367" lon="11.4133767"><ele>221.5</ele><time>2026-04-19T09:31:15.648Z</time></trkpt><trkpt lat="43.2903833" lon="11.4132917"><ele>221.0</ele><time>2026-04-19T09:31:16.646Z</time></trkpt><trkpt lat="43.2903417" lon="11.4131967"><ele>220.49999999999997</ele><time>2026-04-19T09:31:17.648Z</time></trkpt><trkpt lat="43.2903017" lon="11.413095"><ele>220.0</ele><time>2026-04-19T09:31:18.648Z</time></trkpt><trkpt lat="43.2902617" lon="11.412985"><ele>219.99999999999997</ele><time>2026-04-19T09:31:19.647Z</time></trkpt><trkpt lat="43.2902283" lon="11.4128783"><ele>220.0</ele><time>2026-04-19T09:31:20.649Z</time></trkpt><trkpt lat="43.2901933" lon="11.412775"><ele>220.0</ele><time>2026-04-19T09:31:21.65Z</time></trkpt><trkpt lat="43.2901517" lon="11.41267"><ele>220.0</ele><time>2026-04-19T09:31:22.643Z</time></trkpt><trkpt lat="43.2901133" lon="11.41256"><ele>219.99999999999997</ele><time>2026-04-19T09:31:23.643Z</time></trkpt><trkpt lat="43.2900783" lon="11.4124517"><ele>220.0</ele><time>2026-04-19T09:31:24.647Z</time></trkpt><trkpt lat="43.29005" lon="11.4123433"><ele>219.99999999999997</ele><time>2026-04-19T09:31:25.646Z</time></trkpt><trkpt lat="43.2900317" lon="11.4122317"><ele>220.0</ele><time>2026-04-19T09:31:26.653Z</time></trkpt><trkpt lat="43.2900267" lon="11.412115"><ele>220.0</ele><time>2026-04-19T09:31:27.651Z</time></trkpt><trkpt lat="43.2900283" lon="11.411995"><ele>220.0</ele><time>2026-04-19T09:31:28.649Z</time></trkpt><trkpt lat="43.290025" lon="11.4118767"><ele>219.99999999999997</ele><time>2026-04-19T09:31:29.647Z</time></trkpt><trkpt lat="43.2900167" lon="11.41177"><ele>220.0</ele><time>2026-04-19T09:31:30.653Z</time></trkpt><trkpt lat="43.29" lon="11.4116617"><ele>219.99999999999997</ele><time>2026-04-19T09:31:31.647Z</time></trkpt><trkpt lat="43.2899667" lon="11.4115633"><ele>220.0</ele><time>2026-04-19T09:31:32.645Z</time></trkpt><trkpt lat="43.2899283" lon="11.4114633"><ele>220.0</ele><time>2026-04-19T09:31:33.644Z</time></trkpt><trkpt lat="43.2898933" lon="11.4113567"><ele>220.0</ele><time>2026-04-19T09:31:34.652Z</time></trkpt><trkpt lat="43.289865" lon="11.4112683"><ele>219.99999999999997</ele><time>2026-04-19T09:31:35.647Z</time></trkpt><trkpt lat="43.289835" lon="11.4111233"><ele>220.0</ele><time>2026-04-19T09:31:37.646Z</time></trkpt><trkpt lat="43.2897967" lon="11.4110267"><ele>219.0</ele><time>2026-04-19T09:31:39.653Z</time></trkpt><trkpt lat="43.2897033" lon="11.41093"><ele>218.0</ele><time>2026-04-19T09:31:41.646Z</time></trkpt><trkpt lat="43.2896417" lon="11.4108917"><ele>217.0</ele><time>2026-04-19T09:31:42.649Z</time></trkpt><trkpt lat="43.2895233" lon="11.4108183"><ele>216.0</ele><time>2026-04-19T09:31:44.648Z</time></trkpt><trkpt lat="43.2894617" lon="11.4107817"><ele>215.0</ele><time>2026-04-19T09:31:45.651Z</time></trkpt><trkpt lat="43.2893533" lon="11.4107183"><ele>215.00000000000003</ele><time>2026-04-19T09:31:47.657Z</time></trkpt><trkpt lat="43.2892967" lon="11.4106767"><ele>215.0</ele><time>2026-04-19T09:31:48.649Z</time></trkpt><trkpt lat="43.28923" lon="11.410625"><ele>215.0</ele><time>2026-04-19T09:31:49.649Z</time></trkpt><trkpt lat="43.2891567" lon="11.4105717"><ele>215.0</ele><time>2026-04-19T09:31:50.651Z</time></trkpt><trkpt lat="43.28908" lon="11.41052"><ele>215.00000000000003</ele><time>2026-04-19T09:31:51.649Z</time></trkpt><trkpt lat="43.288995" lon="11.4104717"><ele>215.0</ele><time>2026-04-19T09:31:52.642Z</time></trkpt><trkpt lat="43.2889017" lon="11.4104233"><ele>216.4</ele><time>2026-04-19T09:31:53.645Z</time></trkpt><trkpt lat="43.2888083" lon="11.4103833"><ele>217.8</ele><time>2026-04-19T09:31:54.654Z</time></trkpt><trkpt lat="43.2887133" lon="11.41034"><ele>219.2</ele><time>2026-04-19T09:31:55.647Z</time></trkpt><trkpt lat="43.28862" lon="11.410295"><ele>220.6</ele><time>2026-04-19T09:31:56.649Z</time></trkpt><trkpt lat="43.2885317" lon="11.4102483"><ele>222.0</ele><time>2026-04-19T09:31:57.65Z</time></trkpt><trkpt lat="43.2884517" lon="11.4102033"><ele>222.0</ele><time>2026-04-19T09:31:58.647Z</time></trkpt><trkpt lat="43.2883767" lon="11.41016"><ele>222.0</ele><time>2026-04-19T09:31:59.656Z</time></trkpt><trkpt lat="43.2883033" lon="11.4101217"><ele>222.0</ele><time>2026-04-19T09:32:00.659Z</time></trkpt><trkpt lat="43.2882333" lon="11.4100833"><ele>222.0</ele><time>2026-04-19T09:32:01.645Z</time></trkpt><trkpt lat="43.28816" lon="11.4100467"><ele>222.0</ele><time>2026-04-19T09:32:02.652Z</time></trkpt><trkpt lat="43.2880783" lon="11.4100067"><ele>222.0</ele><time>2026-04-19T09:32:03.645Z</time></trkpt><trkpt lat="43.2879883" lon="11.4099667"><ele>223.39999999999998</ele><time>2026-04-19T09:32:04.651Z</time></trkpt><trkpt lat="43.2878967" lon="11.4099383"><ele>224.79999999999998</ele><time>2026-04-19T09:32:05.652Z</time></trkpt><trkpt lat="43.2878017" lon="11.4099017"><ele>226.2</ele><time>2026-04-19T09:32:06.652Z</time></trkpt><trkpt lat="43.28771" lon="11.4098583"><ele>227.6</ele><time>2026-04-19T09:32:07.646Z</time></trkpt><trkpt lat="43.28762" lon="11.409815"><ele>229.0</ele><time>2026-04-19T09:32:08.65Z</time></trkpt><trkpt lat="43.28753" lon="11.4097717"><ele>228.99999999999997</ele><time>2026-04-19T09:32:09.651Z</time></trkpt><trkpt lat="43.2874433" lon="11.4097267"><ele>229.0</ele><time>2026-04-19T09:32:10.652Z</time></trkpt><trkpt lat="43.28736" lon="11.4096817"><ele>229.0</ele><time>2026-04-19T09:32:11.644Z</time></trkpt><trkpt lat="43.2872833" lon="11.4096233"><ele>229.0</ele><time>2026-04-19T09:32:12.648Z</time></trkpt><trkpt lat="43.287215" lon="11.4095517"><ele>228.99999999999997</ele><time>2026-04-19T09:32:13.647Z</time></trkpt><trkpt lat="43.2871483" lon="11.4094667"><ele>229.0</ele><time>2026-04-19T09:32:14.647Z</time></trkpt><trkpt lat="43.2870867" lon="11.4093733"><ele>229.6</ele><time>2026-04-19T09:32:15.657Z</time></trkpt><trkpt lat="43.28703" lon="11.4092733"><ele>230.2</ele><time>2026-04-19T09:32:16.648Z</time></trkpt><trkpt lat="43.2869717" lon="11.4091667"><ele>230.79999999999998</ele><time>2026-04-19T09:32:17.648Z</time></trkpt><trkpt lat="43.286915" lon="11.4090567"><ele>231.39999999999998</ele><time>2026-04-19T09:32:18.651Z</time></trkpt><trkpt lat="43.2868533" lon="11.4089433"><ele>232.0</ele><time>2026-04-19T09:32:19.647Z</time></trkpt><trkpt lat="43.28679" lon="11.4088317"><ele>233.0</ele><time>2026-04-19T09:32:20.654Z</time></trkpt><trkpt lat="43.2867317" lon="11.40873"><ele>234.0</ele><time>2026-04-19T09:32:21.65Z</time></trkpt><trkpt lat="43.2866783" lon="11.408625"><ele>235.0</ele><time>2026-04-19T09:32:22.649Z</time></trkpt><trkpt lat="43.2866267" lon="11.4085133"><ele>236.0</ele><time>2026-04-19T09:32:23.651Z</time></trkpt><trkpt lat="43.286575" lon="11.4084"><ele>237.0</ele><time>2026-04-19T09:32:24.656Z</time></trkpt><trkpt lat="43.286525" lon="11.4082883"><ele>237.0</ele><time>2026-04-19T09:32:25.648Z</time></trkpt><trkpt lat="43.2864767" lon="11.4081767"><ele>237.0</ele><time>2026-04-19T09:32:26.657Z</time></trkpt><trkpt lat="43.2864283" lon="11.40806"><ele>237.0</ele><time>2026-04-19T09:32:27.651Z</time></trkpt><trkpt lat="43.2863817" lon="11.40795"><ele>237.0</ele><time>2026-04-19T09:32:28.653Z</time></trkpt><trkpt lat="43.2863383" lon="11.407845"><ele>237.0</ele><time>2026-04-19T09:32:29.649Z</time></trkpt><trkpt lat="43.286295" lon="11.4077433"><ele>236.83333333333334</ele><time>2026-04-19T09:32:30.652Z</time></trkpt><trkpt lat="43.28626" lon="11.4076433"><ele>236.66666666666669</ele><time>2026-04-19T09:32:31.653Z</time></trkpt><trkpt lat="43.28622" lon="11.4075483"><ele>236.5</ele><time>2026-04-19T09:32:32.651Z</time></trkpt><trkpt lat="43.2861767" lon="11.407445"><ele>236.33333333333334</ele><time>2026-04-19T09:32:33.652Z</time></trkpt><trkpt lat="43.2861383" lon="11.4073333"><ele>236.16666666666669</ele><time>2026-04-19T09:32:34.646Z</time></trkpt><trkpt lat="43.2861017" lon="11.407215"><ele>236.0</ele><time>2026-04-19T09:32:35.649Z</time></trkpt><trkpt lat="43.2860617" lon="11.4070983"><ele>236.00000000000003</ele><time>2026-04-19T09:32:36.647Z</time></trkpt><trkpt lat="43.2860183" lon="11.4069867"><ele>236.0</ele><time>2026-04-19T09:32:37.653Z</time></trkpt><trkpt lat="43.2859683" lon="11.40688"><ele>236.0</ele><time>2026-04-19T09:32:38.647Z</time></trkpt><trkpt lat="43.285915" lon="11.4067867"><ele>236.0</ele><time>2026-04-19T09:32:39.644Z</time></trkpt><trkpt lat="43.2858567" lon="11.4067067"><ele>236.00000000000003</ele><time>2026-04-19T09:32:40.643Z</time></trkpt><trkpt lat="43.2858" lon="11.4066567"><ele>236.0</ele><time>2026-04-19T09:32:41.643Z</time></trkpt><trkpt lat="43.2856867" lon="11.4066483"><ele>236.0</ele><time>2026-04-19T09:32:43.655Z</time></trkpt><trkpt lat="43.2855967" lon="11.40676"><ele>236.00000000000003</ele><time>2026-04-19T09:32:45.65Z</time></trkpt><trkpt lat="43.2855717" lon="11.406845"><ele>236.00000000000003</ele><time>2026-04-19T09:32:46.646Z</time></trkpt><trkpt lat="43.2855517" lon="11.4069283"><ele>236.0</ele><time>2026-04-19T09:32:47.652Z</time></trkpt><trkpt lat="43.28553" lon="11.4070667"><ele>236.0</ele><time>2026-04-19T09:32:49.65Z</time></trkpt><trkpt lat="43.2855067" lon="11.4071933"><ele>233.83333333333334</ele><time>2026-04-19T09:32:51.641Z</time></trkpt><trkpt lat="43.2854767" lon="11.4073283"><ele>231.66666666666669</ele><time>2026-04-19T09:32:53.651Z</time></trkpt><trkpt lat="43.2854283" lon="11.4074733"><ele>229.5</ele><time>2026-04-19T09:32:55.649Z</time></trkpt><trkpt lat="43.2854033" lon="11.4075583"><ele>227.33333333333331</ele><time>2026-04-19T09:32:56.647Z</time></trkpt><trkpt lat="43.28538" lon="11.4076433"><ele>225.16666666666666</ele><time>2026-04-19T09:32:57.654Z</time></trkpt><trkpt lat="43.2853583" lon="11.407725"><ele>223.0</ele><time>2026-04-19T09:32:58.65Z</time></trkpt><trkpt lat="43.2853317" lon="11.40781"><ele>222.99999999999997</ele><time>2026-04-19T09:32:59.649Z</time></trkpt><trkpt lat="43.2853017" lon="11.4079017"><ele>223.0</ele><time>2026-04-19T09:33:00.65Z</time></trkpt><trkpt lat="43.28527" lon="11.4079933"><ele>223.0</ele><time>2026-04-19T09:33:01.651Z</time></trkpt><trkpt lat="43.2852217" lon="11.4080733"><ele>223.0</ele><time>2026-04-19T09:33:02.648Z</time></trkpt><trkpt lat="43.285155" lon="11.4081517"><ele>222.99999999999997</ele><time>2026-04-19T09:33:03.647Z</time></trkpt><trkpt lat="43.2850767" lon="11.4082267"><ele>223.0</ele><time>2026-04-19T09:33:04.657Z</time></trkpt><trkpt lat="43.2849967" lon="11.408295"><ele>222.75</ele><time>2026-04-19T09:33:05.65Z</time></trkpt><trkpt lat="43.2849067" lon="11.40837"><ele>222.5</ele><time>2026-04-19T09:33:06.65Z</time></trkpt><trkpt lat="43.28481" lon="11.4084433"><ele>222.25</ele><time>2026-04-19T09:33:07.652Z</time></trkpt><trkpt lat="43.2847017" lon="11.408515"><ele>222.0</ele><time>2026-04-19T09:33:08.648Z</time></trkpt><trkpt lat="43.284595" lon="11.4085717"><ele>222.39999999999998</ele><time>2026-04-19T09:33:09.656Z</time></trkpt><trkpt lat="43.2844933" lon="11.408615"><ele>222.79999999999998</ele><time>2026-04-19T09:33:10.651Z</time></trkpt><trkpt lat="43.2844067" lon="11.4086517"><ele>223.2</ele><time>2026-04-19T09:33:11.651Z</time></trkpt><trkpt lat="43.2843367" lon="11.4086833"><ele>223.6</ele><time>2026-04-19T09:33:12.647Z</time></trkpt><trkpt lat="43.2842567" lon="11.4087367"><ele>224.0</ele><time>2026-04-19T09:33:13.645Z</time></trkpt><trkpt lat="43.28417" lon="11.4088017"><ele>223.6</ele><time>2026-04-19T09:33:14.651Z</time></trkpt><trkpt lat="43.2840767" lon="11.40887"><ele>223.2</ele><time>2026-04-19T09:33:15.652Z</time></trkpt><trkpt lat="43.2839767" lon="11.4089333"><ele>222.79999999999998</ele><time>2026-04-19T09:33:16.647Z</time></trkpt><trkpt lat="43.2838833" lon="11.4089883"><ele>222.39999999999998</ele><time>2026-04-19T09:33:17.654Z</time></trkpt><trkpt lat="43.2837783" lon="11.4090433"><ele>222.0</ele><time>2026-04-19T09:33:18.653Z</time></trkpt><trkpt lat="43.2836717" lon="11.4091"><ele>223.5</ele><time>2026-04-19T09:33:19.656Z</time></trkpt><trkpt lat="43.283565" lon="11.40916"><ele>225.0</ele><time>2026-04-19T09:33:20.643Z</time></trkpt><trkpt lat="43.283455" lon="11.4092183"><ele>226.5</ele><time>2026-04-19T09:33:21.653Z</time></trkpt><trkpt lat="43.2833367" lon="11.4092783"><ele>228.0</ele><time>2026-04-19T09:33:22.648Z</time></trkpt><trkpt lat="43.2832067" lon="11.4093417"><ele>226.75</ele><time>2026-04-19T09:33:23.649Z</time></trkpt><trkpt lat="43.2830817" lon="11.4094083"><ele>225.5</ele><time>2026-04-19T09:33:24.647Z</time></trkpt><trkpt lat="43.2829583" lon="11.40948"><ele>224.25</ele><time>2026-04-19T09:33:25.646Z</time></trkpt><trkpt lat="43.282835" lon="11.40955"><ele>223.0</ele><time>2026-04-19T09:33:26.65Z</time></trkpt><trkpt lat="43.2827067" lon="11.4096117"><ele>223.0</ele><time>2026-04-19T09:33:27.646Z</time></trkpt><trkpt lat="43.2825883" lon="11.4096733"><ele>223.0</ele><time>2026-04-19T09:33:28.649Z</time></trkpt><trkpt lat="43.28248" lon="11.4097367"><ele>223.0</ele><time>2026-04-19T09:33:29.651Z</time></trkpt><trkpt lat="43.282375" lon="11.40979"><ele>223.0</ele><time>2026-04-19T09:33:30.647Z</time></trkpt><trkpt lat="43.28227" lon="11.4098283"><ele>224.16666666666666</ele><time>2026-04-19T09:33:31.651Z</time></trkpt><trkpt lat="43.282165" lon="11.409855"><ele>225.33333333333331</ele><time>2026-04-19T09:33:32.648Z</time></trkpt><trkpt lat="43.2820733" lon="11.40987"><ele>226.5</ele><time>2026-04-19T09:33:33.649Z</time></trkpt><trkpt lat="43.2820017" lon="11.4098717"><ele>227.66666666666669</ele><time>2026-04-19T09:33:34.644Z</time></trkpt><trkpt lat="43.2819517" lon="11.40978"><ele>228.83333333333334</ele><time>2026-04-19T09:33:37.649Z</time></trkpt><trkpt lat="43.2818917" lon="11.4096983"><ele>230.0</ele><time>2026-04-19T09:33:40.652Z</time></trkpt><trkpt lat="43.2818333" lon="11.4096067"><ele>230.0</ele><time>2026-04-19T09:33:42.645Z</time></trkpt><trkpt lat="43.2817683" lon="11.4094467"><ele>230.0</ele><time>2026-04-19T09:33:44.649Z</time></trkpt><trkpt lat="43.2817317" lon="11.4093517"><ele>230.0</ele><time>2026-04-19T09:33:45.648Z</time></trkpt><trkpt lat="43.28169" lon="11.4092533"><ele>230.0</ele><time>2026-04-19T09:33:46.647Z</time></trkpt><trkpt lat="43.28164" lon="11.4091617"><ele>230.0</ele><time>2026-04-19T09:33:47.648Z</time></trkpt><trkpt lat="43.2815867" lon="11.4090783"><ele>230.00000000000003</ele><time>2026-04-19T09:33:48.65Z</time></trkpt><trkpt lat="43.28154" lon="11.40899"><ele>230.0</ele><time>2026-04-19T09:33:49.649Z</time></trkpt><trkpt lat="43.281485" lon="11.4089217"><ele>230.0</ele><time>2026-04-19T09:33:50.654Z</time></trkpt><trkpt lat="43.2814317" lon="11.408855"><ele>230.0</ele><time>2026-04-19T09:33:51.644Z</time></trkpt><trkpt lat="43.2813617" lon="11.4088017"><ele>230.00000000000003</ele><time>2026-04-19T09:33:52.65Z</time></trkpt><trkpt lat="43.28129" lon="11.4087433"><ele>230.0</ele><time>2026-04-19T09:33:53.644Z</time></trkpt><trkpt lat="43.2812217" lon="11.4086733"><ele>229.6</ele><time>2026-04-19T09:33:54.648Z</time></trkpt><trkpt lat="43.2811433" lon="11.408595"><ele>229.2</ele><time>2026-04-19T09:33:55.651Z</time></trkpt><trkpt lat="43.2810767" lon="11.4084983"><ele>228.8</ele><time>2026-04-19T09:33:56.649Z</time></trkpt><trkpt lat="43.2810017" lon="11.4084017"><ele>228.4</ele><time>2026-04-19T09:33:57.648Z</time></trkpt><trkpt lat="43.280915" lon="11.4083033"><ele>228.0</ele><time>2026-04-19T09:33:58.653Z</time></trkpt><trkpt lat="43.2808183" lon="11.4082067"><ele>228.0</ele><time>2026-04-19T09:33:59.649Z</time></trkpt><trkpt lat="43.280715" lon="11.408105"><ele>228.0</ele><time>2026-04-19T09:34:00.653Z</time></trkpt><trkpt lat="43.280615" lon="11.4080133"><ele>228.0</ele><time>2026-04-19T09:34:01.645Z</time></trkpt><trkpt lat="43.2805067" lon="11.4079367"><ele>228.0</ele><time>2026-04-19T09:34:02.654Z</time></trkpt><trkpt lat="43.2803967" lon="11.407875"><ele>228.25</ele><time>2026-04-19T09:34:03.648Z</time></trkpt><trkpt lat="43.2802783" lon="11.4078183"><ele>228.5</ele><time>2026-04-19T09:34:04.648Z</time></trkpt><trkpt lat="43.2801533" lon="11.40775"><ele>228.75</ele><time>2026-04-19T09:34:05.651Z</time></trkpt><trkpt lat="43.2800333" lon="11.4076767"><ele>229.0</ele><time>2026-04-19T09:34:06.652Z</time></trkpt><trkpt lat="43.279915" lon="11.407595"><ele>229.0</ele><time>2026-04-19T09:34:07.653Z</time></trkpt><trkpt lat="43.2798033" lon="11.40752"><ele>228.99999999999997</ele><time>2026-04-19T09:34:08.653Z</time></trkpt><trkpt lat="43.279705" lon="11.40745"><ele>228.99999999999997</ele><time>2026-04-19T09:34:09.649Z</time></trkpt><trkpt lat="43.27961" lon="11.407385"><ele>229.0</ele><time>2026-04-19T09:34:10.646Z</time></trkpt><trkpt lat="43.2795133" lon="11.4073183"><ele>229.0</ele><time>2026-04-19T09:34:11.65Z</time></trkpt><trkpt lat="43.2794233" lon="11.407255"><ele>230.39999999999998</ele><time>2026-04-19T09:34:12.645Z</time></trkpt><trkpt lat="43.2793367" lon="11.4071917"><ele>231.79999999999998</ele><time>2026-04-19T09:34:13.647Z</time></trkpt><trkpt lat="43.279245" lon="11.407145"><ele>233.20000000000002</ele><time>2026-04-19T09:34:14.648Z</time></trkpt><trkpt lat="43.2791433" lon="11.4071067"><ele>234.60000000000002</ele><time>2026-04-19T09:34:15.655Z</time></trkpt><trkpt lat="43.2790317" lon="11.40707"><ele>236.0</ele><time>2026-04-19T09:34:16.649Z</time></trkpt><trkpt lat="43.278925" lon="11.4070317"><ele>236.33333333333334</ele><time>2026-04-19T09:34:17.651Z</time></trkpt><trkpt lat="43.2788233" lon="11.4069933"><ele>236.66666666666669</ele><time>2026-04-19T09:34:18.65Z</time></trkpt><trkpt lat="43.2787333" lon="11.406955"><ele>237.0</ele><time>2026-04-19T09:34:19.653Z</time></trkpt><trkpt lat="43.27865" lon="11.406915"><ele>237.33333333333331</ele><time>2026-04-19T09:34:20.65Z</time></trkpt><trkpt lat="43.278575" lon="11.4068783"><ele>237.66666666666666</ele><time>2026-04-19T09:34:21.653Z</time></trkpt><trkpt lat="43.278505" lon="11.406855"><ele>238.0</ele><time>2026-04-19T09:34:22.647Z</time></trkpt><trkpt lat="43.278435" lon="11.406845"><ele>238.0</ele><time>2026-04-19T09:34:23.651Z</time></trkpt><trkpt lat="43.2783583" lon="11.4068533"><ele>238.0</ele><time>2026-04-19T09:34:24.647Z</time></trkpt><trkpt lat="43.2782633" lon="11.4068917"><ele>238.0</ele><time>2026-04-19T09:34:25.647Z</time></trkpt><trkpt lat="43.2781567" lon="11.4069333"><ele>238.0</ele><time>2026-04-19T09:34:26.65Z</time></trkpt><trkpt lat="43.27804" lon="11.4069683"><ele>238.0</ele><time>2026-04-19T09:34:27.65Z</time></trkpt><trkpt lat="43.277925" lon="11.4069867"><ele>237.4</ele><time>2026-04-19T09:34:28.651Z</time></trkpt><trkpt lat="43.2778167" lon="11.407"><ele>236.8</ele><time>2026-04-19T09:34:29.655Z</time></trkpt><trkpt lat="43.2777133" lon="11.4070183"><ele>236.2</ele><time>2026-04-19T09:34:30.648Z</time></trkpt><trkpt lat="43.277615" lon="11.4070383"><ele>235.6</ele><time>2026-04-19T09:34:31.649Z</time></trkpt><trkpt lat="43.2775083" lon="11.40706"><ele>235.0</ele><time>2026-04-19T09:34:32.65Z</time></trkpt><trkpt lat="43.27739" lon="11.4070783"><ele>235.0</ele><time>2026-04-19T09:34:33.646Z</time></trkpt><trkpt lat="43.2772783" lon="11.407075"><ele>235.0</ele><time>2026-04-19T09:34:34.654Z</time></trkpt><trkpt lat="43.2771533" lon="11.4070517"><ele>235.0</ele><time>2026-04-19T09:34:35.65Z</time></trkpt><trkpt lat="43.2770317" lon="11.4070183"><ele>235.0</ele><time>2026-04-19T09:34:36.651Z</time></trkpt><trkpt lat="43.2768983" lon="11.40697"><ele>234.25</ele><time>2026-04-19T09:34:37.649Z</time></trkpt><trkpt lat="43.27677" lon="11.4069233"><ele>233.5</ele><time>2026-04-19T09:34:38.645Z</time></trkpt><trkpt lat="43.276645" lon="11.4068833"><ele>232.75</ele><time>2026-04-19T09:34:39.65Z</time></trkpt><trkpt lat="43.2765233" lon="11.4068483"><ele>232.0</ele><time>2026-04-19T09:34:40.647Z</time></trkpt><trkpt lat="43.276395" lon="11.406815"><ele>231.75</ele><time>2026-04-19T09:34:41.655Z</time></trkpt><trkpt lat="43.2762633" lon="11.4067767"><ele>231.5</ele><time>2026-04-19T09:34:42.643Z</time></trkpt><trkpt lat="43.27613" lon="11.4067317"><ele>231.25</ele><time>2026-04-19T09:34:43.648Z</time></trkpt><trkpt lat="43.275985" lon="11.4066767"><ele>231.0</ele><time>2026-04-19T09:34:44.648Z</time></trkpt><trkpt lat="43.275825" lon="11.4066217"><ele>231.0</ele><time>2026-04-19T09:34:45.652Z</time></trkpt><trkpt lat="43.2756683" lon="11.40656"><ele>231.0</ele><time>2026-04-19T09:34:46.647Z</time></trkpt><trkpt lat="43.27552" lon="11.40649"><ele>231.0</ele><time>2026-04-19T09:34:47.653Z</time></trkpt><trkpt lat="43.2753783" lon="11.406415"><ele>231.0</ele><time>2026-04-19T09:34:48.652Z</time></trkpt><trkpt lat="43.2752383" lon="11.4063417"><ele>231.0</ele><time>2026-04-19T09:34:49.653Z</time></trkpt><trkpt lat="43.2751117" lon="11.40626"><ele>231.0</ele><time>2026-04-19T09:34:50.644Z</time></trkpt><trkpt lat="43.2749883" lon="11.4061733"><ele>231.0</ele><time>2026-04-19T09:34:51.655Z</time></trkpt><trkpt lat="43.27488" lon="11.40609"><ele>232.0</ele><time>2026-04-19T09:34:52.645Z</time></trkpt><trkpt lat="43.2747983" lon="11.4060083"><ele>233.00000000000003</ele><time>2026-04-19T09:34:53.646Z</time></trkpt><trkpt lat="43.2747283" lon="11.4059233"><ele>234.00000000000003</ele><time>2026-04-19T09:34:54.648Z</time></trkpt><trkpt lat="43.2746883" lon="11.405815"><ele>235.0</ele><time>2026-04-19T09:34:55.645Z</time></trkpt><trkpt lat="43.2746867" lon="11.40567"><ele>236.0</ele><time>2026-04-19T09:34:56.654Z</time></trkpt><trkpt lat="43.2746783" lon="11.405525"><ele>236.8</ele><time>2026-04-19T09:34:57.653Z</time></trkpt><trkpt lat="43.2746467" lon="11.4053983"><ele>237.60000000000002</ele><time>2026-04-19T09:34:58.643Z</time></trkpt><trkpt lat="43.2746183" lon="11.4052733"><ele>238.4</ele><time>2026-04-19T09:34:59.645Z</time></trkpt><trkpt lat="43.2745817" lon="11.4051483"><ele>239.2</ele><time>2026-04-19T09:35:00.653Z</time></trkpt><trkpt lat="43.2745317" lon="11.4050233"><ele>240.0</ele><time>2026-04-19T09:35:01.653Z</time></trkpt><trkpt lat="43.27444" lon="11.4048883"><ele>240.0</ele><time>2026-04-19T09:35:02.648Z</time></trkpt><trkpt lat="43.2743417" lon="11.40479"><ele>240.0</ele><time>2026-04-19T09:35:03.65Z</time></trkpt><trkpt lat="43.274265" lon="11.4046783"><ele>240.0</ele><time>2026-04-19T09:35:04.648Z</time></trkpt><trkpt lat="43.2741933" lon="11.4045483"><ele>240.0</ele><time>2026-04-19T09:35:05.656Z</time></trkpt><trkpt lat="43.2741217" lon="11.40439"><ele>238.0</ele><time>2026-04-19T09:35:06.649Z</time></trkpt><trkpt lat="43.2740483" lon="11.4042083"><ele>236.0</ele><time>2026-04-19T09:35:07.643Z</time></trkpt><trkpt lat="43.273995" lon="11.4040333"><ele>234.0</ele><time>2026-04-19T09:35:08.644Z</time></trkpt><trkpt lat="43.2739417" lon="11.4038433"><ele>232.0</ele><time>2026-04-19T09:35:09.645Z</time></trkpt><trkpt lat="43.2738783" lon="11.4036583"><ele>230.66666666666666</ele><time>2026-04-19T09:35:10.648Z</time></trkpt><trkpt lat="43.273815" lon="11.403455"><ele>229.33333333333331</ele><time>2026-04-19T09:35:11.656Z</time></trkpt><trkpt lat="43.27376" lon="11.4032483"><ele>228.0</ele><time>2026-04-19T09:35:12.657Z</time></trkpt><trkpt lat="43.2737083" lon="11.4030217"><ele>228.66666666666669</ele><time>2026-04-19T09:35:13.654Z</time></trkpt><trkpt lat="43.2736617" lon="11.4028017"><ele>229.33333333333334</ele><time>2026-04-19T09:35:14.651Z</time></trkpt><trkpt lat="43.2736067" lon="11.402595"><ele>230.0</ele><time>2026-04-19T09:35:15.648Z</time></trkpt><trkpt lat="43.273565" lon="11.4024033"><ele>230.0</ele><time>2026-04-19T09:35:16.649Z</time></trkpt><trkpt lat="43.273525" lon="11.4022183"><ele>230.0</ele><time>2026-04-19T09:35:17.647Z</time></trkpt><trkpt lat="43.27348" lon="11.402045"><ele>230.0</ele><time>2026-04-19T09:35:18.649Z</time></trkpt><trkpt lat="43.2734217" lon="11.4018717"><ele>230.0</ele><time>2026-04-19T09:35:19.653Z</time></trkpt><trkpt lat="43.2733467" lon="11.4017"><ele>230.33333333333334</ele><time>2026-04-19T09:35:20.647Z</time></trkpt><trkpt lat="43.2732567" lon="11.4015383"><ele>230.66666666666669</ele><time>2026-04-19T09:35:21.653Z</time></trkpt><trkpt lat="43.273145" lon="11.4013917"><ele>231.0</ele><time>2026-04-19T09:35:22.653Z</time></trkpt><trkpt lat="43.2730083" lon="11.401265"><ele>231.66666666666669</ele><time>2026-04-19T09:35:23.653Z</time></trkpt><trkpt lat="43.272865" lon="11.4011517"><ele>232.33333333333334</ele><time>2026-04-19T09:35:24.651Z</time></trkpt><trkpt lat="43.27272" lon="11.4010533"><ele>233.0</ele><time>2026-04-19T09:35:25.646Z</time></trkpt><trkpt lat="43.27258" lon="11.40097"><ele>233.0</ele><time>2026-04-19T09:35:26.641Z</time></trkpt><trkpt lat="43.2724417" lon="11.4009117"><ele>233.0</ele><time>2026-04-19T09:35:27.647Z</time></trkpt><trkpt lat="43.272285" lon="11.4008583"><ele>233.0</ele><time>2026-04-19T09:35:28.645Z</time></trkpt><trkpt lat="43.2721117" lon="11.4008083"><ele>231.66666666666669</ele><time>2026-04-19T09:35:29.647Z</time></trkpt><trkpt lat="43.2719183" lon="11.4007633"><ele>230.33333333333331</ele><time>2026-04-19T09:35:30.657Z</time></trkpt><trkpt lat="43.2717217" lon="11.4007333"><ele>229.0</ele><time>2026-04-19T09:35:31.648Z</time></trkpt><trkpt lat="43.2715133" lon="11.40072"><ele>227.33333333333331</ele><time>2026-04-19T09:35:32.647Z</time></trkpt><trkpt lat="43.2712967" lon="11.4007333"><ele>225.66666666666669</ele><time>2026-04-19T09:35:33.65Z</time></trkpt><trkpt lat="43.2710817" lon="11.4007567"><ele>224.0</ele><time>2026-04-19T09:35:34.651Z</time></trkpt><trkpt lat="43.270875" lon="11.4007783"><ele>224.0</ele><time>2026-04-19T09:35:35.654Z</time></trkpt><trkpt lat="43.27069" lon="11.4008"><ele>224.0</ele><time>2026-04-19T09:35:36.649Z</time></trkpt><trkpt lat="43.2705183" lon="11.4008083"><ele>224.0</ele><time>2026-04-19T09:35:37.643Z</time></trkpt><trkpt lat="43.270345" lon="11.4008017"><ele>224.66666666666669</ele><time>2026-04-19T09:35:38.648Z</time></trkpt><trkpt lat="43.2701717" lon="11.40075"><ele>225.33333333333331</ele><time>2026-04-19T09:35:39.648Z</time></trkpt><trkpt lat="43.2699767" lon="11.400675"><ele>226.0</ele><time>2026-04-19T09:35:40.651Z</time></trkpt><trkpt lat="43.2697867" lon="11.4006067"><ele>226.66666666666666</ele><time>2026-04-19T09:35:41.649Z</time></trkpt><trkpt lat="43.269605" lon="11.4005367"><ele>227.33333333333331</ele><time>2026-04-19T09:35:42.649Z</time></trkpt><trkpt lat="43.2694433" lon="11.4004583"><ele>228.0</ele><time>2026-04-19T09:35:43.65Z</time></trkpt><trkpt lat="43.269295" lon="11.400355"><ele>229.66666666666669</ele><time>2026-04-19T09:35:44.647Z</time></trkpt><trkpt lat="43.2691633" lon="11.40021"><ele>231.33333333333334</ele><time>2026-04-19T09:35:45.648Z</time></trkpt><trkpt lat="43.26905" lon="11.4000517"><ele>233.0</ele><time>2026-04-19T09:35:46.651Z</time></trkpt><trkpt lat="43.2689667" lon="11.3998933"><ele>231.75</ele><time>2026-04-19T09:35:47.647Z</time></trkpt><trkpt lat="43.2689367" lon="11.39972"><ele>230.5</ele><time>2026-04-19T09:35:48.655Z</time></trkpt><trkpt lat="43.2689133" lon="11.399545"><ele>229.25</ele><time>2026-04-19T09:35:49.645Z</time></trkpt><trkpt lat="43.2689133" lon="11.3993367"><ele>228.0</ele><time>2026-04-19T09:35:50.649Z</time></trkpt><trkpt lat="43.2688967" lon="11.3991283"><ele>228.0</ele><time>2026-04-19T09:35:51.644Z</time></trkpt><trkpt lat="43.268875" lon="11.39891"><ele>228.0</ele><time>2026-04-19T09:35:52.645Z</time></trkpt><trkpt lat="43.2688617" lon="11.39868"><ele>228.0</ele><time>2026-04-19T09:35:53.65Z</time></trkpt><trkpt lat="43.2688333" lon="11.3984433"><ele>228.33333333333331</ele><time>2026-04-19T09:35:54.658Z</time></trkpt><trkpt lat="43.2687967" lon="11.3982033"><ele>228.66666666666666</ele><time>2026-04-19T09:35:55.656Z</time></trkpt><trkpt lat="43.2687667" lon="11.3979667"><ele>229.0</ele><time>2026-04-19T09:35:56.655Z</time></trkpt><trkpt lat="43.2687417" lon="11.3977333"><ele>229.0</ele><time>2026-04-19T09:35:57.656Z</time></trkpt><trkpt lat="43.2687033" lon="11.3975117"><ele>229.0</ele><time>2026-04-19T09:35:58.647Z</time></trkpt><trkpt lat="43.268665" lon="11.3973083"><ele>229.0</ele><time>2026-04-19T09:35:59.644Z</time></trkpt><trkpt lat="43.2686183" lon="11.3971233"><ele>229.5</ele><time>2026-04-19T09:36:00.649Z</time></trkpt><trkpt lat="43.268555" lon="11.3969633"><ele>230.0</ele><time>2026-04-19T09:36:01.649Z</time></trkpt><trkpt lat="43.268465" lon="11.39681"><ele>230.5</ele><time>2026-04-19T09:36:02.654Z</time></trkpt><trkpt lat="43.26837" lon="11.396685"><ele>231.0</ele><time>2026-04-19T09:36:03.653Z</time></trkpt><trkpt lat="43.2682817" lon="11.39655"><ele>231.0</ele><time>2026-04-19T09:36:04.648Z</time></trkpt><trkpt lat="43.2681933" lon="11.3963817"><ele>231.0</ele><time>2026-04-19T09:36:05.656Z</time></trkpt><trkpt lat="43.2681183" lon="11.3962"><ele>231.0</ele><time>2026-04-19T09:36:06.656Z</time></trkpt><trkpt lat="43.2680433" lon="11.396"><ele>230.25</ele><time>2026-04-19T09:36:07.653Z</time></trkpt><trkpt lat="43.26798" lon="11.3958"><ele>229.5</ele><time>2026-04-19T09:36:08.657Z</time></trkpt><trkpt lat="43.2679317" lon="11.3956133"><ele>228.75</ele><time>2026-04-19T09:36:09.645Z</time></trkpt><trkpt lat="43.2678967" lon="11.3954283"><ele>228.0</ele><time>2026-04-19T09:36:10.649Z</time></trkpt><trkpt lat="43.26787" lon="11.3952317"><ele>227.0</ele><time>2026-04-19T09:36:11.662Z</time></trkpt><trkpt lat="43.267855" lon="11.3950117"><ele>226.0</ele><time>2026-04-19T09:36:12.65Z</time></trkpt><trkpt lat="43.26785" lon="11.394775"><ele>225.0</ele><time>2026-04-19T09:36:13.65Z</time></trkpt><trkpt lat="43.2678417" lon="11.3945533"><ele>223.33333333333331</ele><time>2026-04-19T09:36:14.654Z</time></trkpt><trkpt lat="43.2678267" lon="11.3943383"><ele>221.66666666666666</ele><time>2026-04-19T09:36:15.651Z</time></trkpt><trkpt lat="43.2678083" lon="11.3941233"><ele>220.0</ele><time>2026-04-19T09:36:16.664Z</time></trkpt><trkpt lat="43.267785" lon="11.3939017"><ele>219.0</ele><time>2026-04-19T09:36:17.643Z</time></trkpt><trkpt lat="43.267755" lon="11.3936833"><ele>218.0</ele><time>2026-04-19T09:36:18.645Z</time></trkpt><trkpt lat="43.2677117" lon="11.39346"><ele>217.0</ele><time>2026-04-19T09:36:19.645Z</time></trkpt><trkpt lat="43.26766" lon="11.3932367"><ele>217.0</ele><time>2026-04-19T09:36:20.648Z</time></trkpt><trkpt lat="43.2676067" lon="11.3930233"><ele>217.0</ele><time>2026-04-19T09:36:21.651Z</time></trkpt><trkpt lat="43.2675517" lon="11.3928083"><ele>217.0</ele><time>2026-04-19T09:36:22.644Z</time></trkpt><trkpt lat="43.2675033" lon="11.3925933"><ele>217.33333333333331</ele><time>2026-04-19T09:36:23.648Z</time></trkpt><trkpt lat="43.2674517" lon="11.392385"><ele>217.66666666666669</ele><time>2026-04-19T09:36:24.653Z</time></trkpt><trkpt lat="43.2673917" lon="11.3921933"><ele>218.0</ele><time>2026-04-19T09:36:25.649Z</time></trkpt><trkpt lat="43.26733" lon="11.39201"><ele>215.5</ele><time>2026-04-19T09:36:26.656Z</time></trkpt><trkpt lat="43.267275" lon="11.39183"><ele>213.0</ele><time>2026-04-19T09:36:27.65Z</time></trkpt><trkpt lat="43.2672333" lon="11.3916533"><ele>210.5</ele><time>2026-04-19T09:36:28.649Z</time></trkpt><trkpt lat="43.2672017" lon="11.3914733"><ele>208.0</ele><time>2026-04-19T09:36:29.648Z</time></trkpt><trkpt lat="43.2671833" lon="11.3913"><ele>207.75</ele><time>2026-04-19T09:36:30.648Z</time></trkpt><trkpt lat="43.26717" lon="11.391135"><ele>207.5</ele><time>2026-04-19T09:36:31.655Z</time></trkpt><trkpt lat="43.26715" lon="11.390975"><ele>207.25</ele><time>2026-04-19T09:36:32.651Z</time></trkpt><trkpt lat="43.2671167" lon="11.3908217"><ele>207.0</ele><time>2026-04-19T09:36:33.651Z</time></trkpt><trkpt lat="43.2670533" lon="11.3906817"><ele>207.0</ele><time>2026-04-19T09:36:34.652Z</time></trkpt><trkpt lat="43.266965" lon="11.3905567"><ele>207.0</ele><time>2026-04-19T09:36:35.653Z</time></trkpt><trkpt lat="43.2668633" lon="11.3904367"><ele>207.0</ele><time>2026-04-19T09:36:36.652Z</time></trkpt><trkpt lat="43.26677" lon="11.3903083"><ele>207.0</ele><time>2026-04-19T09:36:37.651Z</time></trkpt><trkpt lat="43.2666767" lon="11.3901683"><ele>206.25</ele><time>2026-04-19T09:36:38.647Z</time></trkpt><trkpt lat="43.266585" lon="11.3900283"><ele>205.5</ele><time>2026-04-19T09:36:39.648Z</time></trkpt><trkpt lat="43.2665" lon="11.3898917"><ele>204.75</ele><time>2026-04-19T09:36:40.653Z</time></trkpt><trkpt lat="43.2664183" lon="11.3897517"><ele>204.0</ele><time>2026-04-19T09:36:41.646Z</time></trkpt><trkpt lat="43.2663383" lon="11.38961"><ele>202.5</ele><time>2026-04-19T09:36:42.646Z</time></trkpt><trkpt lat="43.2662617" lon="11.389475"><ele>201.0</ele><time>2026-04-19T09:36:43.654Z</time></trkpt><trkpt lat="43.2661867" lon="11.38935"><ele>199.5</ele><time>2026-04-19T09:36:44.653Z</time></trkpt><trkpt lat="43.2661133" lon="11.3892333"><ele>198.0</ele><time>2026-04-19T09:36:45.642Z</time></trkpt><trkpt lat="43.2660367" lon="11.3891183"><ele>198.0</ele><time>2026-04-19T09:36:46.644Z</time></trkpt><trkpt lat="43.265955" lon="11.3889983"><ele>198.0</ele><time>2026-04-19T09:36:47.645Z</time></trkpt><trkpt lat="43.2658717" lon="11.3888767"><ele>198.0</ele><time>2026-04-19T09:36:48.647Z</time></trkpt><trkpt lat="43.2657817" lon="11.3887683"><ele>198.0</ele><time>2026-04-19T09:36:49.646Z</time></trkpt><trkpt lat="43.2656933" lon="11.3886633"><ele>197.25</ele><time>2026-04-19T09:36:50.648Z</time></trkpt><trkpt lat="43.2655983" lon="11.3885567"><ele>196.5</ele><time>2026-04-19T09:36:51.659Z</time></trkpt><trkpt lat="43.2654983" lon="11.3884517"><ele>195.75</ele><time>2026-04-19T09:36:52.649Z</time></trkpt><trkpt lat="43.26539" lon="11.38835"><ele>195.0</ele><time>2026-04-19T09:36:53.654Z</time></trkpt><trkpt lat="43.26529" lon="11.3882567"><ele>195.0</ele><time>2026-04-19T09:36:54.655Z</time></trkpt><trkpt lat="43.2651967" lon="11.388185"><ele>195.0</ele><time>2026-04-19T09:36:55.658Z</time></trkpt><trkpt lat="43.2650983" lon="11.38811"><ele>195.0</ele><time>2026-04-19T09:36:56.658Z</time></trkpt><trkpt lat="43.2650017" lon="11.3880467"><ele>195.0</ele><time>2026-04-19T09:36:57.644Z</time></trkpt><trkpt lat="43.2649017" lon="11.3880017"><ele>195.0</ele><time>2026-04-19T09:36:58.647Z</time></trkpt><trkpt lat="43.2648017" lon="11.3879733"><ele>196.4</ele><time>2026-04-19T09:36:59.645Z</time></trkpt><trkpt lat="43.2647017" lon="11.3879467"><ele>197.8</ele><time>2026-04-19T09:37:00.648Z</time></trkpt><trkpt lat="43.2646" lon="11.3879133"><ele>199.2</ele><time>2026-04-19T09:37:01.654Z</time></trkpt><trkpt lat="43.2645017" lon="11.38787"><ele>200.6</ele><time>2026-04-19T09:37:02.646Z</time></trkpt><trkpt lat="43.2644033" lon="11.3878167"><ele>202.0</ele><time>2026-04-19T09:37:03.644Z</time></trkpt><trkpt lat="43.2643133" lon="11.38775"><ele>202.0</ele><time>2026-04-19T09:37:04.654Z</time></trkpt><trkpt lat="43.26422" lon="11.3876833"><ele>202.0</ele><time>2026-04-19T09:37:05.651Z</time></trkpt><trkpt lat="43.2641283" lon="11.3876083"><ele>202.0</ele><time>2026-04-19T09:37:06.645Z</time></trkpt><trkpt lat="43.2640433" lon="11.387515"><ele>202.0</ele><time>2026-04-19T09:37:07.643Z</time></trkpt><trkpt lat="43.2639733" lon="11.3874133"><ele>202.0</ele><time>2026-04-19T09:37:08.647Z</time></trkpt><trkpt lat="43.2639317" lon="11.3873067"><ele>201.83333333333331</ele><time>2026-04-19T09:37:09.645Z</time></trkpt><trkpt lat="43.2639067" lon="11.3871867"><ele>201.66666666666666</ele><time>2026-04-19T09:37:10.647Z</time></trkpt><trkpt lat="43.2639733" lon="11.3870883"><ele>201.5</ele><time>2026-04-19T09:37:11.65Z</time></trkpt><trkpt lat="43.2640083" lon="11.3870083"><ele>201.33333333333331</ele><time>2026-04-19T09:37:12.651Z</time></trkpt><trkpt lat="43.2640783" lon="11.3869283"><ele>201.16666666666666</ele><time>2026-04-19T09:37:13.651Z</time></trkpt><trkpt lat="43.2641267" lon="11.3868233"><ele>201.0</ele><time>2026-04-19T09:37:14.649Z</time></trkpt><trkpt lat="43.2641617" lon="11.386715"><ele>201.0</ele><time>2026-04-19T09:37:15.651Z</time></trkpt><trkpt lat="43.264155" lon="11.3866067"><ele>201.0</ele><time>2026-04-19T09:37:16.645Z</time></trkpt><trkpt lat="43.26416" lon="11.3864583"><ele>201.0</ele><time>2026-04-19T09:37:17.648Z</time></trkpt><trkpt lat="43.2641383" lon="11.38633"><ele>201.0</ele><time>2026-04-19T09:37:18.647Z</time></trkpt><trkpt lat="43.2641117" lon="11.38618"><ele>201.0</ele><time>2026-04-19T09:37:19.65Z</time></trkpt><trkpt lat="43.2640833" lon="11.38604"><ele>201.60000000000002</ele><time>2026-04-19T09:37:20.656Z</time></trkpt><trkpt lat="43.2640417" lon="11.385905"><ele>202.2</ele><time>2026-04-19T09:37:21.65Z</time></trkpt><trkpt lat="43.2639967" lon="11.3857717"><ele>202.8</ele><time>2026-04-19T09:37:22.649Z</time></trkpt><trkpt lat="43.2639433" lon="11.3856317"><ele>203.39999999999998</ele><time>2026-04-19T09:37:23.646Z</time></trkpt><trkpt lat="43.263875" lon="11.3855"><ele>204.0</ele><time>2026-04-19T09:37:24.653Z</time></trkpt><trkpt lat="43.26382" lon="11.38535"><ele>200.25</ele><time>2026-04-19T09:37:25.655Z</time></trkpt><trkpt lat="43.2637683" lon="11.3852"><ele>196.5</ele><time>2026-04-19T09:37:26.654Z</time></trkpt><trkpt lat="43.2637017" lon="11.3850567"><ele>192.75</ele><time>2026-04-19T09:37:27.647Z</time></trkpt><trkpt lat="43.2636267" lon="11.3849217"><ele>189.0</ele><time>2026-04-19T09:37:28.646Z</time></trkpt><trkpt lat="43.26355" lon="11.3847983"><ele>185.0</ele><time>2026-04-19T09:37:29.647Z</time></trkpt><trkpt lat="43.2634733" lon="11.3846717"><ele>181.0</ele><time>2026-04-19T09:37:30.648Z</time></trkpt><trkpt lat="43.2633833" lon="11.3845467"><ele>177.0</ele><time>2026-04-19T09:37:31.648Z</time></trkpt><trkpt lat="43.2632917" lon="11.38443"><ele>173.0</ele><time>2026-04-19T09:37:32.652Z</time></trkpt><trkpt lat="43.2631883" lon="11.38433"><ele>172.75</ele><time>2026-04-19T09:37:33.65Z</time></trkpt><trkpt lat="43.263105" lon="11.384215"><ele>172.5</ele><time>2026-04-19T09:37:34.648Z</time></trkpt><trkpt lat="43.2630067" lon="11.3841083"><ele>172.25</ele><time>2026-04-19T09:37:35.651Z</time></trkpt><trkpt lat="43.2629017" lon="11.3839883"><ele>172.0</ele><time>2026-04-19T09:37:36.651Z</time></trkpt><trkpt lat="43.262805" lon="11.383865"><ele>171.25</ele><time>2026-04-19T09:37:37.646Z</time></trkpt><trkpt lat="43.2627167" lon="11.38375"><ele>170.5</ele><time>2026-04-19T09:37:38.648Z</time></trkpt><trkpt lat="43.262635" lon="11.38363"><ele>169.75</ele><time>2026-04-19T09:37:39.647Z</time></trkpt><trkpt lat="43.2625483" lon="11.3834983"><ele>169.0</ele><time>2026-04-19T09:37:40.661Z</time></trkpt><trkpt lat="43.2624733" lon="11.3833633"><ele>169.0</ele><time>2026-04-19T09:37:41.651Z</time></trkpt><trkpt lat="43.2624" lon="11.3832133"><ele>169.0</ele><time>2026-04-19T09:37:42.653Z</time></trkpt><trkpt lat="43.2623783" lon="11.38308"><ele>169.0</ele><time>2026-04-19T09:37:43.654Z</time></trkpt><trkpt lat="43.2623967" lon="11.3828733"><ele>169.0</ele><time>2026-04-19T09:37:44.649Z</time></trkpt><trkpt lat="43.2623983" lon="11.3827267"><ele>168.25</ele><time>2026-04-19T09:37:45.652Z</time></trkpt><trkpt lat="43.2624133" lon="11.38255"><ele>167.5</ele><time>2026-04-19T09:37:46.657Z</time></trkpt><trkpt lat="43.262435" lon="11.382365"><ele>166.75</ele><time>2026-04-19T09:37:47.645Z</time></trkpt><trkpt lat="43.262455" lon="11.3821867"><ele>166.0</ele><time>2026-04-19T09:37:48.65Z</time></trkpt><trkpt lat="43.262465" lon="11.3820067"><ele>166.0</ele><time>2026-04-19T09:37:49.648Z</time></trkpt><trkpt lat="43.2624867" lon="11.3818217"><ele>166.0</ele><time>2026-04-19T09:37:50.652Z</time></trkpt><trkpt lat="43.2625067" lon="11.3816433"><ele>166.0</ele><time>2026-04-19T09:37:51.65Z</time></trkpt><trkpt lat="43.2625083" lon="11.3814833"><ele>166.0</ele><time>2026-04-19T09:37:52.649Z</time></trkpt><trkpt lat="43.262505" lon="11.3813233"><ele>166.0</ele><time>2026-04-19T09:37:53.651Z</time></trkpt><trkpt lat="43.2624933" lon="11.38116"><ele>166.0</ele><time>2026-04-19T09:37:54.648Z</time></trkpt><trkpt lat="43.2624683" lon="11.3809967"><ele>166.0</ele><time>2026-04-19T09:37:55.652Z</time></trkpt><trkpt lat="43.2624233" lon="11.3808233"><ele>166.0</ele><time>2026-04-19T09:37:56.654Z</time></trkpt><trkpt lat="43.2623733" lon="11.3806483"><ele>166.0</ele><time>2026-04-19T09:37:57.643Z</time></trkpt><trkpt lat="43.2623167" lon="11.3804817"><ele>166.0</ele><time>2026-04-19T09:37:58.648Z</time></trkpt><trkpt lat="43.262265" lon="11.3803233"><ele>166.0</ele><time>2026-04-19T09:37:59.652Z</time></trkpt><trkpt lat="43.262225" lon="11.3801783"><ele>166.0</ele><time>2026-04-19T09:38:00.652Z</time></trkpt><trkpt lat="43.2621917" lon="11.3800467"><ele>166.66666666666669</ele><time>2026-04-19T09:38:01.654Z</time></trkpt><trkpt lat="43.2621683" lon="11.3799183"><ele>167.33333333333334</ele><time>2026-04-19T09:38:02.654Z</time></trkpt><trkpt lat="43.2621583" lon="11.3798"><ele>168.0</ele><time>2026-04-19T09:38:03.649Z</time></trkpt><trkpt lat="43.262155" lon="11.3796883"><ele>168.66666666666666</ele><time>2026-04-19T09:38:04.651Z</time></trkpt><trkpt lat="43.2621433" lon="11.379595"><ele>169.33333333333331</ele><time>2026-04-19T09:38:05.643Z</time></trkpt><trkpt lat="43.2620917" lon="11.3794533"><ele>170.0</ele><time>2026-04-19T09:38:07.647Z</time></trkpt><trkpt lat="43.2619933" lon="11.3794067"><ele>170.0</ele><time>2026-04-19T09:38:09.649Z</time></trkpt><trkpt lat="43.2619167" lon="11.3794067"><ele>170.0</ele><time>2026-04-19T09:38:10.649Z</time></trkpt><trkpt lat="43.2618117" lon="11.3794367"><ele>170.0</ele><time>2026-04-19T09:38:11.652Z</time></trkpt><trkpt lat="43.261705" lon="11.379455"><ele>170.0</ele><time>2026-04-19T09:38:12.65Z</time></trkpt><trkpt lat="43.2615867" lon="11.3794883"><ele>170.0</ele><time>2026-04-19T09:38:13.649Z</time></trkpt><trkpt lat="43.2614633" lon="11.37953"><ele>170.5</ele><time>2026-04-19T09:38:14.653Z</time></trkpt><trkpt lat="43.2613383" lon="11.3795717"><ele>171.0</ele><time>2026-04-19T09:38:15.644Z</time></trkpt><trkpt lat="43.26121" lon="11.3796167"><ele>171.5</ele><time>2026-04-19T09:38:16.647Z</time></trkpt><trkpt lat="43.2610767" lon="11.37967"><ele>172.0</ele><time>2026-04-19T09:38:17.648Z</time></trkpt><trkpt lat="43.2609467" lon="11.3797217"><ele>172.0</ele><time>2026-04-19T09:38:18.647Z</time></trkpt><trkpt lat="43.2608217" lon="11.3797717"><ele>172.0</ele><time>2026-04-19T09:38:19.65Z</time></trkpt><trkpt lat="43.2607067" lon="11.3798083"><ele>172.0</ele><time>2026-04-19T09:38:20.647Z</time></trkpt><trkpt lat="43.2605933" lon="11.3798317"><ele>172.0</ele><time>2026-04-19T09:38:21.652Z</time></trkpt><trkpt lat="43.2604817" lon="11.3798317"><ele>171.75</ele><time>2026-04-19T09:38:22.651Z</time></trkpt><trkpt lat="43.2603733" lon="11.3797983"><ele>171.5</ele><time>2026-04-19T09:38:23.653Z</time></trkpt><trkpt lat="43.260255" lon="11.3797533"><ele>171.25</ele><time>2026-04-19T09:38:24.647Z</time></trkpt><trkpt lat="43.260145" lon="11.37971"><ele>171.0</ele><time>2026-04-19T09:38:25.643Z</time></trkpt><trkpt lat="43.260035" lon="11.379685"><ele>171.16666666666666</ele><time>2026-04-19T09:38:26.647Z</time></trkpt><trkpt lat="43.259935" lon="11.37966"><ele>171.33333333333334</ele><time>2026-04-19T09:38:27.649Z</time></trkpt><trkpt lat="43.2598367" lon="11.3796367"><ele>171.5</ele><time>2026-04-19T09:38:28.647Z</time></trkpt><trkpt lat="43.2597633" lon="11.3795917"><ele>171.66666666666669</ele><time>2026-04-19T09:38:29.648Z</time></trkpt><trkpt lat="43.2596867" lon="11.37954"><ele>171.83333333333334</ele><time>2026-04-19T09:38:30.651Z</time></trkpt><trkpt lat="43.2596283" lon="11.3794667"><ele>172.0</ele><time>2026-04-19T09:38:31.652Z</time></trkpt><trkpt lat="43.25958" lon="11.3793567"><ele>172.16666666666669</ele><time>2026-04-19T09:38:32.653Z</time></trkpt><trkpt lat="43.2595467" lon="11.3792317"><ele>172.33333333333334</ele><time>2026-04-19T09:38:33.649Z</time></trkpt><trkpt lat="43.2595283" lon="11.379105"><ele>172.5</ele><time>2026-04-19T09:38:34.643Z</time></trkpt><trkpt lat="43.2595033" lon="11.378995"><ele>172.66666666666666</ele><time>2026-04-19T09:38:35.651Z</time></trkpt><trkpt lat="43.2594817" lon="11.3788867"><ele>172.83333333333331</ele><time>2026-04-19T09:38:36.646Z</time></trkpt><trkpt lat="43.2594783" lon="11.3787683"><ele>173.0</ele><time>2026-04-19T09:38:38.648Z</time></trkpt><trkpt lat="43.2595233" lon="11.3786383"><ele>173.2</ele><time>2026-04-19T09:38:40.652Z</time></trkpt><trkpt lat="43.2595667" lon="11.37855"><ele>173.4</ele><time>2026-04-19T09:38:41.654Z</time></trkpt><trkpt lat="43.2596217" lon="11.378445"><ele>173.6</ele><time>2026-04-19T09:38:42.65Z</time></trkpt><trkpt lat="43.2596933" lon="11.3783183"><ele>173.79999999999998</ele><time>2026-04-19T09:38:43.652Z</time></trkpt><trkpt lat="43.25976" lon="11.3781817"><ele>174.0</ele><time>2026-04-19T09:38:44.654Z</time></trkpt><trkpt lat="43.259815" lon="11.37804"><ele>173.75</ele><time>2026-04-19T09:38:45.655Z</time></trkpt><trkpt lat="43.2598633" lon="11.3778883"><ele>173.5</ele><time>2026-04-19T09:38:46.645Z</time></trkpt><trkpt lat="43.2598983" lon="11.3777217"><ele>173.25</ele><time>2026-04-19T09:38:47.645Z</time></trkpt><trkpt lat="43.2599233" lon="11.37755"><ele>173.0</ele><time>2026-04-19T09:38:48.647Z</time></trkpt><trkpt lat="43.2599517" lon="11.37737"><ele>173.0</ele><time>2026-04-19T09:38:49.649Z</time></trkpt><trkpt lat="43.25997" lon="11.377195"><ele>173.0</ele><time>2026-04-19T09:38:50.647Z</time></trkpt><trkpt lat="43.2600033" lon="11.37702"><ele>173.0</ele><time>2026-04-19T09:38:51.649Z</time></trkpt><trkpt lat="43.2600267" lon="11.37686"><ele>173.0</ele><time>2026-04-19T09:38:52.651Z</time></trkpt><trkpt lat="43.26005" lon="11.3767167"><ele>173.0</ele><time>2026-04-19T09:38:53.654Z</time></trkpt><trkpt lat="43.2600667" lon="11.376585"><ele>173.0</ele><time>2026-04-19T09:38:54.657Z</time></trkpt><trkpt lat="43.2600783" lon="11.3764533"><ele>173.0</ele><time>2026-04-19T09:38:55.647Z</time></trkpt><trkpt lat="43.260095" lon="11.3763117"><ele>173.0</ele><time>2026-04-19T09:38:56.651Z</time></trkpt><trkpt lat="43.2601167" lon="11.3761683"><ele>173.0</ele><time>2026-04-19T09:38:57.656Z</time></trkpt><trkpt lat="43.2601483" lon="11.37602"><ele>173.5</ele><time>2026-04-19T09:38:58.645Z</time></trkpt><trkpt lat="43.26019" lon="11.37587"><ele>174.0</ele><time>2026-04-19T09:38:59.647Z</time></trkpt><trkpt lat="43.2602417" lon="11.375725"><ele>174.5</ele><time>2026-04-19T09:39:00.655Z</time></trkpt><trkpt lat="43.26031" lon="11.3755867"><ele>175.0</ele><time>2026-04-19T09:39:01.651Z</time></trkpt><trkpt lat="43.26039" lon="11.375485"><ele>175.0</ele><time>2026-04-19T09:39:02.649Z</time></trkpt><trkpt lat="43.2604967" lon="11.3753717"><ele>175.0</ele><time>2026-04-19T09:39:03.651Z</time></trkpt><trkpt lat="43.2606067" lon="11.3752517"><ele>175.0</ele><time>2026-04-19T09:39:04.644Z</time></trkpt><trkpt lat="43.26072" lon="11.375125"><ele>175.0</ele><time>2026-04-19T09:39:05.652Z</time></trkpt><trkpt lat="43.2608267" lon="11.3749983"><ele>175.0</ele><time>2026-04-19T09:39:06.65Z</time></trkpt><trkpt lat="43.260935" lon="11.3748667"><ele>175.0</ele><time>2026-04-19T09:39:07.65Z</time></trkpt><trkpt lat="43.2610467" lon="11.374745"><ele>175.0</ele><time>2026-04-19T09:39:08.653Z</time></trkpt><trkpt lat="43.261155" lon="11.3746233"><ele>175.0</ele><time>2026-04-19T09:39:09.652Z</time></trkpt><trkpt lat="43.2612567" lon="11.3745117"><ele>175.25</ele><time>2026-04-19T09:39:10.649Z</time></trkpt><trkpt lat="43.26136" lon="11.3743967"><ele>175.5</ele><time>2026-04-19T09:39:11.65Z</time></trkpt><trkpt lat="43.2614633" lon="11.3742833"><ele>175.75</ele><time>2026-04-19T09:39:12.648Z</time></trkpt><trkpt lat="43.2615733" lon="11.3741717"><ele>176.0</ele><time>2026-04-19T09:39:13.654Z</time></trkpt><trkpt lat="43.2616717" lon="11.37407"><ele>176.20000000000002</ele><time>2026-04-19T09:39:14.649Z</time></trkpt><trkpt lat="43.2617517" lon="11.373975"><ele>176.4</ele><time>2026-04-19T09:39:15.646Z</time></trkpt><trkpt lat="43.26183" lon="11.3738833"><ele>176.6</ele><time>2026-04-19T09:39:16.648Z</time></trkpt><trkpt lat="43.26191" lon="11.3738017"><ele>176.8</ele><time>2026-04-19T09:39:17.647Z</time></trkpt><trkpt lat="43.2619817" lon="11.3737383"><ele>177.0</ele><time>2026-04-19T09:39:18.649Z</time></trkpt><trkpt lat="43.2620617" lon="11.3736867"><ele>177.16666666666666</ele><time>2026-04-19T09:39:19.649Z</time></trkpt><trkpt lat="43.2621517" lon="11.3736517"><ele>177.33333333333334</ele><time>2026-04-19T09:39:20.652Z</time></trkpt><trkpt lat="43.26224" lon="11.3736083"><ele>177.5</ele><time>2026-04-19T09:39:21.652Z</time></trkpt><trkpt lat="43.2623067" lon="11.3735567"><ele>177.66666666666669</ele><time>2026-04-19T09:39:22.649Z</time></trkpt><trkpt lat="43.2623683" lon="11.3734933"><ele>177.83333333333334</ele><time>2026-04-19T09:39:23.654Z</time></trkpt><trkpt lat="43.2624183" lon="11.3734183"><ele>178.0</ele><time>2026-04-19T09:39:24.655Z</time></trkpt><trkpt lat="43.2624617" lon="11.37332"><ele>178.8</ele><time>2026-04-19T09:39:25.649Z</time></trkpt><trkpt lat="43.262515" lon="11.3732067"><ele>179.60000000000002</ele><time>2026-04-19T09:39:26.656Z</time></trkpt><trkpt lat="43.2625833" lon="11.37308"><ele>180.39999999999998</ele><time>2026-04-19T09:39:27.654Z</time></trkpt><trkpt lat="43.2626583" lon="11.3729583"><ele>181.2</ele><time>2026-04-19T09:39:28.65Z</time></trkpt><trkpt lat="43.2627433" lon="11.3728417"><ele>182.0</ele><time>2026-04-19T09:39:29.65Z</time></trkpt><trkpt lat="43.262835" lon="11.37272"><ele>182.75</ele><time>2026-04-19T09:39:30.649Z</time></trkpt><trkpt lat="43.2629333" lon="11.372595"><ele>183.5</ele><time>2026-04-19T09:39:31.642Z</time></trkpt><trkpt lat="43.2630333" lon="11.3724733"><ele>184.25</ele><time>2026-04-19T09:39:32.654Z</time></trkpt><trkpt lat="43.2631367" lon="11.3723483"><ele>185.0</ele><time>2026-04-19T09:39:33.651Z</time></trkpt><trkpt lat="43.2632317" lon="11.37222"><ele>187.25</ele><time>2026-04-19T09:39:34.648Z</time></trkpt><trkpt lat="43.2633283" lon="11.37208"><ele>189.5</ele><time>2026-04-19T09:39:35.644Z</time></trkpt><trkpt lat="43.263415" lon="11.37193"><ele>191.75</ele><time>2026-04-19T09:39:36.646Z</time></trkpt><trkpt lat="43.2634917" lon="11.3717733"><ele>194.0</ele><time>2026-04-19T09:39:37.65Z</time></trkpt><trkpt lat="43.26355" lon="11.3716033"><ele>194.0</ele><time>2026-04-19T09:39:38.65Z</time></trkpt><trkpt lat="43.2635967" lon="11.3714333"><ele>194.0</ele><time>2026-04-19T09:39:39.65Z</time></trkpt><trkpt lat="43.2636267" lon="11.3712567"><ele>194.0</ele><time>2026-04-19T09:39:40.653Z</time></trkpt><trkpt lat="43.26364" lon="11.3710783"><ele>194.0</ele><time>2026-04-19T09:39:41.65Z</time></trkpt><trkpt lat="43.2636467" lon="11.3708883"><ele>195.0</ele><time>2026-04-19T09:39:42.656Z</time></trkpt><trkpt lat="43.2636467" lon="11.370705"><ele>196.0</ele><time>2026-04-19T09:39:43.655Z</time></trkpt><trkpt lat="43.2636417" lon="11.37052"><ele>197.0</ele><time>2026-04-19T09:39:44.644Z</time></trkpt><trkpt lat="43.2636333" lon="11.3703233"><ele>198.0</ele><time>2026-04-19T09:39:45.65Z</time></trkpt><trkpt lat="43.263615" lon="11.3701383"><ele>198.0</ele><time>2026-04-19T09:39:46.651Z</time></trkpt><trkpt lat="43.2636" lon="11.3699483"><ele>198.0</ele><time>2026-04-19T09:39:47.65Z</time></trkpt><trkpt lat="43.2635833" lon="11.369755"><ele>198.0</ele><time>2026-04-19T09:39:48.648Z</time></trkpt><trkpt lat="43.2635717" lon="11.3695567"><ele>198.0</ele><time>2026-04-19T09:39:49.653Z</time></trkpt><trkpt lat="43.263555" lon="11.3693633"><ele>197.75</ele><time>2026-04-19T09:39:50.652Z</time></trkpt><trkpt lat="43.2635383" lon="11.3691667"><ele>197.5</ele><time>2026-04-19T09:39:51.65Z</time></trkpt><trkpt lat="43.26353" lon="11.3689617"><ele>197.25</ele><time>2026-04-19T09:39:52.652Z</time></trkpt><trkpt lat="43.26352" lon="11.36876"><ele>197.0</ele><time>2026-04-19T09:39:53.649Z</time></trkpt><trkpt lat="43.2635117" lon="11.368555"><ele>197.75</ele><time>2026-04-19T09:39:54.653Z</time></trkpt><trkpt lat="43.2635033" lon="11.3683533"><ele>198.5</ele><time>2026-04-19T09:39:55.648Z</time></trkpt><trkpt lat="43.2635" lon="11.3681517"><ele>199.25</ele><time>2026-04-19T09:39:56.647Z</time></trkpt><trkpt lat="43.263505" lon="11.367955"><ele>200.0</ele><time>2026-04-19T09:39:57.654Z</time></trkpt><trkpt lat="43.2635233" lon="11.3677517"><ele>200.0</ele><time>2026-04-19T09:39:58.648Z</time></trkpt><trkpt lat="43.2635567" lon="11.3675617"><ele>200.0</ele><time>2026-04-19T09:39:59.654Z</time></trkpt><trkpt lat="43.2636067" lon="11.36738"><ele>200.0</ele><time>2026-04-19T09:40:00.648Z</time></trkpt><trkpt lat="43.2636733" lon="11.3671983"><ele>200.0</ele><time>2026-04-19T09:40:01.652Z</time></trkpt><trkpt lat="43.2637617" lon="11.3670217"><ele>198.66666666666669</ele><time>2026-04-19T09:40:02.648Z</time></trkpt><trkpt lat="43.2638617" lon="11.3668517"><ele>197.33333333333331</ele><time>2026-04-19T09:40:03.647Z</time></trkpt><trkpt lat="43.2639767" lon="11.3667017"><ele>196.0</ele><time>2026-04-19T09:40:04.651Z</time></trkpt><trkpt lat="43.2641083" lon="11.3665933"><ele>199.66666666666666</ele><time>2026-04-19T09:40:05.648Z</time></trkpt><trkpt lat="43.2642567" lon="11.3665217"><ele>203.33333333333331</ele><time>2026-04-19T09:40:06.649Z</time></trkpt><trkpt lat="43.2644217" lon="11.3664767"><ele>207.0</ele><time>2026-04-19T09:40:07.648Z</time></trkpt><trkpt lat="43.2645867" lon="11.3664533"><ele>207.0</ele><time>2026-04-19T09:40:08.649Z</time></trkpt><trkpt lat="43.264755" lon="11.3664533"><ele>207.0</ele><time>2026-04-19T09:40:09.65Z</time></trkpt><trkpt lat="43.26493" lon="11.3664733"><ele>207.0</ele><time>2026-04-19T09:40:10.65Z</time></trkpt><trkpt lat="43.2650883" lon="11.3664817"><ele>208.25</ele><time>2026-04-19T09:40:11.644Z</time></trkpt><trkpt lat="43.2652383" lon="11.3664917"><ele>209.5</ele><time>2026-04-19T09:40:12.651Z</time></trkpt><trkpt lat="43.2653867" lon="11.3664883"><ele>210.75</ele><time>2026-04-19T09:40:13.65Z</time></trkpt><trkpt lat="43.2655317" lon="11.3664817"><ele>212.0</ele><time>2026-04-19T09:40:14.646Z</time></trkpt><trkpt lat="43.2656767" lon="11.366465"><ele>212.0</ele><time>2026-04-19T09:40:15.645Z</time></trkpt><trkpt lat="43.2658217" lon="11.3664367"><ele>212.0</ele><time>2026-04-19T09:40:16.649Z</time></trkpt><trkpt lat="43.2659717" lon="11.3664033"><ele>212.0</ele><time>2026-04-19T09:40:17.651Z</time></trkpt><trkpt lat="43.2661167" lon="11.366355"><ele>212.0</ele><time>2026-04-19T09:40:18.655Z</time></trkpt><trkpt lat="43.2662667" lon="11.3663033"><ele>212.0</ele><time>2026-04-19T09:40:19.651Z</time></trkpt><trkpt lat="43.2664217" lon="11.36625"><ele>212.0</ele><time>2026-04-19T09:40:20.648Z</time></trkpt><trkpt lat="43.2665667" lon="11.36619"><ele>212.0</ele><time>2026-04-19T09:40:21.657Z</time></trkpt><trkpt lat="43.26671" lon="11.3661317"><ele>213.25</ele><time>2026-04-19T09:40:22.646Z</time></trkpt><trkpt lat="43.26685" lon="11.366075"><ele>214.5</ele><time>2026-04-19T09:40:23.655Z</time></trkpt><trkpt lat="43.266985" lon="11.3660117"><ele>215.75</ele><time>2026-04-19T09:40:24.647Z</time></trkpt><trkpt lat="43.2671117" lon="11.3659417"><ele>217.0</ele><time>2026-04-19T09:40:25.648Z</time></trkpt><trkpt lat="43.2672267" lon="11.3658583"><ele>216.75</ele><time>2026-04-19T09:40:26.648Z</time></trkpt><trkpt lat="43.267335" lon="11.3657667"><ele>216.5</ele><time>2026-04-19T09:40:27.649Z</time></trkpt><trkpt lat="43.2674383" lon="11.3656633"><ele>216.25</ele><time>2026-04-19T09:40:28.647Z</time></trkpt><trkpt lat="43.26754" lon="11.3655517"><ele>216.0</ele><time>2026-04-19T09:40:29.648Z</time></trkpt><trkpt lat="43.2676383" lon="11.36543"><ele>215.0</ele><time>2026-04-19T09:40:30.648Z</time></trkpt><trkpt lat="43.2677383" lon="11.3652967"><ele>214.0</ele><time>2026-04-19T09:40:31.651Z</time></trkpt><trkpt lat="43.267835" lon="11.36515"><ele>213.0</ele><time>2026-04-19T09:40:32.651Z</time></trkpt><trkpt lat="43.2679333" lon="11.3649917"><ele>212.0</ele><time>2026-04-19T09:40:33.65Z</time></trkpt><trkpt lat="43.26803" lon="11.3648283"><ele>213.0</ele><time>2026-04-19T09:40:34.651Z</time></trkpt><trkpt lat="43.2681283" lon="11.3646617"><ele>214.0</ele><time>2026-04-19T09:40:35.646Z</time></trkpt><trkpt lat="43.2682283" lon="11.3644933"><ele>215.0</ele><time>2026-04-19T09:40:36.649Z</time></trkpt><trkpt lat="43.2683267" lon="11.3643217"><ele>215.0</ele><time>2026-04-19T09:40:37.651Z</time></trkpt><trkpt lat="43.2684283" lon="11.3641517"><ele>215.0</ele><time>2026-04-19T09:40:38.645Z</time></trkpt><trkpt lat="43.2685317" lon="11.3639867"><ele>215.0</ele><time>2026-04-19T09:40:39.65Z</time></trkpt><trkpt lat="43.26863" lon="11.3638317"><ele>215.5</ele><time>2026-04-19T09:40:40.647Z</time></trkpt><trkpt lat="43.2687283" lon="11.3636783"><ele>216.0</ele><time>2026-04-19T09:40:41.656Z</time></trkpt><trkpt lat="43.268825" lon="11.3635317"><ele>216.5</ele><time>2026-04-19T09:40:42.65Z</time></trkpt><trkpt lat="43.26892" lon="11.3633933"><ele>217.0</ele><time>2026-04-19T09:40:43.656Z</time></trkpt><trkpt lat="43.2690167" lon="11.3632617"><ele>217.0</ele><time>2026-04-19T09:40:44.647Z</time></trkpt><trkpt lat="43.2691083" lon="11.36314"><ele>217.0</ele><time>2026-04-19T09:40:45.651Z</time></trkpt><trkpt lat="43.26919" lon="11.36303"><ele>217.0</ele><time>2026-04-19T09:40:46.647Z</time></trkpt><trkpt lat="43.2692733" lon="11.3629167"><ele>217.0</ele><time>2026-04-19T09:40:47.65Z</time></trkpt><trkpt lat="43.26936" lon="11.3628"><ele>217.5</ele><time>2026-04-19T09:40:48.651Z</time></trkpt><trkpt lat="43.2694467" lon="11.362685"><ele>218.0</ele><time>2026-04-19T09:40:49.654Z</time></trkpt><trkpt lat="43.269535" lon="11.362565"><ele>218.5</ele><time>2026-04-19T09:40:50.656Z</time></trkpt><trkpt lat="43.2696267" lon="11.3624383"><ele>219.0</ele><time>2026-04-19T09:40:51.65Z</time></trkpt><trkpt lat="43.2697217" lon="11.362305"><ele>220.75</ele><time>2026-04-19T09:40:52.654Z</time></trkpt><trkpt lat="43.269815" lon="11.3621683"><ele>222.5</ele><time>2026-04-19T09:40:53.646Z</time></trkpt><trkpt lat="43.26991" lon="11.3620267"><ele>224.25</ele><time>2026-04-19T09:40:54.648Z</time></trkpt><trkpt lat="43.269995" lon="11.3618833"><ele>226.0</ele><time>2026-04-19T09:40:55.657Z</time></trkpt><trkpt lat="43.2700733" lon="11.36172"><ele>226.0</ele><time>2026-04-19T09:40:56.648Z</time></trkpt><trkpt lat="43.2701433" lon="11.3615483"><ele>226.0</ele><time>2026-04-19T09:40:57.655Z</time></trkpt><trkpt lat="43.2701983" lon="11.3613717"><ele>226.0</ele><time>2026-04-19T09:40:58.651Z</time></trkpt><trkpt lat="43.270245" lon="11.36119"><ele>226.0</ele><time>2026-04-19T09:40:59.649Z</time></trkpt><trkpt lat="43.2702917" lon="11.3610033"><ele>225.5</ele><time>2026-04-19T09:41:00.652Z</time></trkpt><trkpt lat="43.270345" lon="11.3608117"><ele>225.0</ele><time>2026-04-19T09:41:01.654Z</time></trkpt><trkpt lat="43.2703933" lon="11.3606217"><ele>224.5</ele><time>2026-04-19T09:41:02.658Z</time></trkpt><trkpt lat="43.2704417" lon="11.3604367"><ele>224.0</ele><time>2026-04-19T09:41:03.646Z</time></trkpt><trkpt lat="43.2704883" lon="11.3602583"><ele>223.75</ele><time>2026-04-19T09:41:04.644Z</time></trkpt><trkpt lat="43.2705383" lon="11.3600767"><ele>223.5</ele><time>2026-04-19T09:41:05.652Z</time></trkpt><trkpt lat="43.2705967" lon="11.3599"><ele>223.25</ele><time>2026-04-19T09:41:06.649Z</time></trkpt><trkpt lat="43.2706483" lon="11.3597333"><ele>223.0</ele><time>2026-04-19T09:41:07.649Z</time></trkpt><trkpt lat="43.2707033" lon="11.35956"><ele>223.5</ele><time>2026-04-19T09:41:08.65Z</time></trkpt><trkpt lat="43.2707517" lon="11.35939"><ele>224.0</ele><time>2026-04-19T09:41:09.671Z</time></trkpt><trkpt lat="43.2708017" lon="11.3592167"><ele>224.5</ele><time>2026-04-19T09:41:10.652Z</time></trkpt><trkpt lat="43.2708483" lon="11.3590483"><ele>225.0</ele><time>2026-04-19T09:41:11.643Z</time></trkpt><trkpt lat="43.2709017" lon="11.3588833"><ele>225.5</ele><time>2026-04-19T09:41:12.655Z</time></trkpt><trkpt lat="43.2709533" lon="11.3587117"><ele>226.0</ele><time>2026-04-19T09:41:13.648Z</time></trkpt><trkpt lat="43.2710267" lon="11.358535"><ele>226.5</ele><time>2026-04-19T09:41:14.647Z</time></trkpt><trkpt lat="43.2711117" lon="11.358375"><ele>227.0</ele><time>2026-04-19T09:41:15.644Z</time></trkpt><trkpt lat="43.2712117" lon="11.358225"><ele>227.0</ele><time>2026-04-19T09:41:16.649Z</time></trkpt><trkpt lat="43.27132" lon="11.35808"><ele>227.0</ele><time>2026-04-19T09:41:17.65Z</time></trkpt><trkpt lat="43.2714333" lon="11.357945"><ele>227.0</ele><time>2026-04-19T09:41:18.651Z</time></trkpt><trkpt lat="43.2715467" lon="11.357815"><ele>227.0</ele><time>2026-04-19T09:41:19.646Z</time></trkpt><trkpt lat="43.271655" lon="11.3576967"><ele>226.33333333333334</ele><time>2026-04-19T09:41:20.653Z</time></trkpt><trkpt lat="43.27175" lon="11.3575917"><ele>225.66666666666669</ele><time>2026-04-19T09:41:21.642Z</time></trkpt><trkpt lat="43.271825" lon="11.3575017"><ele>225.0</ele><time>2026-04-19T09:41:22.644Z</time></trkpt><trkpt lat="43.2718783" lon="11.3574283"><ele>224.33333333333331</ele><time>2026-04-19T09:41:23.647Z</time></trkpt><trkpt lat="43.2719167" lon="11.35735"><ele>223.66666666666666</ele><time>2026-04-19T09:41:24.647Z</time></trkpt><trkpt lat="43.2719483" lon="11.3572567"><ele>223.0</ele><time>2026-04-19T09:41:25.648Z</time></trkpt><trkpt lat="43.271965" lon="11.357165"><ele>223.0</ele><time>2026-04-19T09:41:26.649Z</time></trkpt><trkpt lat="43.2719783" lon="11.3570633"><ele>223.0</ele><time>2026-04-19T09:41:27.648Z</time></trkpt><trkpt lat="43.2719883" lon="11.35695"><ele>223.0</ele><time>2026-04-19T09:41:28.647Z</time></trkpt><trkpt lat="43.2719167" lon="11.35686"><ele>223.0</ele><time>2026-04-19T09:41:29.646Z</time></trkpt><trkpt lat="43.2718567" lon="11.3567467"><ele>223.0</ele><time>2026-04-19T09:41:30.652Z</time></trkpt><trkpt lat="43.2717217" lon="11.3566767"><ele>223.0</ele><time>2026-04-19T09:41:31.653Z</time></trkpt><trkpt lat="43.27154" lon="11.3566317"><ele>223.0</ele><time>2026-04-19T09:41:32.656Z</time></trkpt><trkpt lat="43.27136" lon="11.356575"><ele>223.0</ele><time>2026-04-19T09:41:33.654Z</time></trkpt><trkpt lat="43.2711983" lon="11.3565167"><ele>222.75</ele><time>2026-04-19T09:41:34.647Z</time></trkpt><trkpt lat="43.2710617" lon="11.3564483"><ele>222.5</ele><time>2026-04-19T09:41:35.651Z</time></trkpt><trkpt lat="43.27095" lon="11.3563767"><ele>222.25</ele><time>2026-04-19T09:41:36.649Z</time></trkpt><trkpt lat="43.2708533" lon="11.3563033"><ele>222.0</ele><time>2026-04-19T09:41:37.652Z</time></trkpt><trkpt lat="43.2707617" lon="11.35622"><ele>220.0</ele><time>2026-04-19T09:41:38.65Z</time></trkpt><trkpt lat="43.2706633" lon="11.3561417"><ele>218.0</ele><time>2026-04-19T09:41:39.651Z</time></trkpt><trkpt lat="43.270565" lon="11.3560683"><ele>216.0</ele><time>2026-04-19T09:41:40.653Z</time></trkpt><trkpt lat="43.2704733" lon="11.356"><ele>214.0</ele><time>2026-04-19T09:41:41.649Z</time></trkpt><trkpt lat="43.270375" lon="11.3559417"><ele>212.0</ele><time>2026-04-19T09:41:42.647Z</time></trkpt><trkpt lat="43.270275" lon="11.3559"><ele>211.5</ele><time>2026-04-19T09:41:43.648Z</time></trkpt><trkpt lat="43.27017" lon="11.3558683"><ele>211.0</ele><time>2026-04-19T09:41:44.645Z</time></trkpt><trkpt lat="43.2700517" lon="11.3558483"><ele>210.5</ele><time>2026-04-19T09:41:45.651Z</time></trkpt><trkpt lat="43.2699317" lon="11.35584"><ele>210.0</ele><time>2026-04-19T09:41:46.647Z</time></trkpt><trkpt lat="43.2697983" lon="11.3558733"><ele>206.0</ele><time>2026-04-19T09:41:47.649Z</time></trkpt><trkpt lat="43.2696583" lon="11.355945"><ele>202.0</ele><time>2026-04-19T09:41:48.649Z</time></trkpt><trkpt lat="43.2694933" lon="11.356085"><ele>198.0</ele><time>2026-04-19T09:41:49.653Z</time></trkpt><trkpt lat="43.26935" lon="11.35621"><ele>198.0</ele><time>2026-04-19T09:41:50.665Z</time></trkpt><trkpt lat="43.269215" lon="11.3563683"><ele>198.0</ele><time>2026-04-19T09:41:51.656Z</time></trkpt><trkpt lat="43.2690933" lon="11.356575"><ele>198.0</ele><time>2026-04-19T09:41:52.645Z</time></trkpt><trkpt lat="43.2690017" lon="11.3567733"><ele>195.0</ele><time>2026-04-19T09:41:53.645Z</time></trkpt><trkpt lat="43.2689183" lon="11.3569933"><ele>192.0</ele><time>2026-04-19T09:41:54.652Z</time></trkpt><trkpt lat="43.26886" lon="11.3572417"><ele>189.0</ele><time>2026-04-19T09:41:55.653Z</time></trkpt><trkpt lat="43.2688283" lon="11.3574883"><ele>189.0</ele><time>2026-04-19T09:41:56.65Z</time></trkpt><trkpt lat="43.2688367" lon="11.3577733"><ele>189.0</ele><time>2026-04-19T09:41:57.653Z</time></trkpt><trkpt lat="43.2688367" lon="11.35803"><ele>189.0</ele><time>2026-04-19T09:41:58.646Z</time></trkpt><trkpt lat="43.2688283" lon="11.3583"><ele>189.0</ele><time>2026-04-19T09:41:59.653Z</time></trkpt><trkpt lat="43.2688033" lon="11.35855"><ele>189.0</ele><time>2026-04-19T09:42:00.655Z</time></trkpt><trkpt lat="43.268765" lon="11.3587833"><ele>189.0</ele><time>2026-04-19T09:42:01.651Z</time></trkpt><trkpt lat="43.2687067" lon="11.3590033"><ele>189.33333333333334</ele><time>2026-04-19T09:42:02.648Z</time></trkpt><trkpt lat="43.268635" lon="11.3592033"><ele>189.66666666666669</ele><time>2026-04-19T09:42:03.648Z</time></trkpt><trkpt lat="43.2685333" lon="11.3593567"><ele>190.0</ele><time>2026-04-19T09:42:04.649Z</time></trkpt><trkpt lat="43.2683983" lon="11.3594833"><ele>190.0</ele><time>2026-04-19T09:42:05.646Z</time></trkpt><trkpt lat="43.2682467" lon="11.3595767"><ele>190.0</ele><time>2026-04-19T09:42:06.649Z</time></trkpt><trkpt lat="43.2680733" lon="11.3596317"><ele>190.0</ele><time>2026-04-19T09:42:07.645Z</time></trkpt><trkpt lat="43.26787" lon="11.3596133"><ele>188.66666666666669</ele><time>2026-04-19T09:42:08.643Z</time></trkpt><trkpt lat="43.2676683" lon="11.3595583"><ele>187.33333333333334</ele><time>2026-04-19T09:42:09.65Z</time></trkpt><trkpt lat="43.2674733" lon="11.3594717"><ele>186.0</ele><time>2026-04-19T09:42:10.641Z</time></trkpt><trkpt lat="43.2672633" lon="11.3593467"><ele>185.66666666666666</ele><time>2026-04-19T09:42:11.644Z</time></trkpt><trkpt lat="43.2670667" lon="11.359235"><ele>185.33333333333331</ele><time>2026-04-19T09:42:12.645Z</time></trkpt><trkpt lat="43.26686" lon="11.359115"><ele>185.0</ele><time>2026-04-19T09:42:13.652Z</time></trkpt><trkpt lat="43.2666667" lon="11.3590083"><ele>185.0</ele><time>2026-04-19T09:42:14.649Z</time></trkpt><trkpt lat="43.2664717" lon="11.3589133"><ele>185.0</ele><time>2026-04-19T09:42:15.648Z</time></trkpt><trkpt lat="43.2662733" lon="11.3588167"><ele>185.0</ele><time>2026-04-19T09:42:16.648Z</time></trkpt><trkpt lat="43.26607" lon="11.3587267"><ele>185.0</ele><time>2026-04-19T09:42:17.652Z</time></trkpt><trkpt lat="43.2658633" lon="11.35864"><ele>185.0</ele><time>2026-04-19T09:42:18.654Z</time></trkpt><trkpt lat="43.2656683" lon="11.35855"><ele>185.0</ele><time>2026-04-19T09:42:19.653Z</time></trkpt><trkpt lat="43.265485" lon="11.3584533"><ele>184.66666666666666</ele><time>2026-04-19T09:42:20.652Z</time></trkpt><trkpt lat="43.2653167" lon="11.35836"><ele>184.33333333333334</ele><time>2026-04-19T09:42:21.642Z</time></trkpt><trkpt lat="43.2651617" lon="11.3582767"><ele>184.0</ele><time>2026-04-19T09:42:22.641Z</time></trkpt><trkpt lat="43.265025" lon="11.3582217"><ele>184.0</ele><time>2026-04-19T09:42:23.646Z</time></trkpt><trkpt lat="43.2649167" lon="11.358185"><ele>184.0</ele><time>2026-04-19T09:42:24.651Z</time></trkpt><trkpt lat="43.264805" lon="11.3581867"><ele>184.0</ele><time>2026-04-19T09:42:25.654Z</time></trkpt><trkpt lat="43.264705" lon="11.3582583"><ele>184.0</ele><time>2026-04-19T09:42:26.65Z</time></trkpt><trkpt lat="43.2646167" lon="11.35834"><ele>184.0</ele><time>2026-04-19T09:42:27.652Z</time></trkpt><trkpt lat="43.264535" lon="11.358485"><ele>184.0</ele><time>2026-04-19T09:42:28.648Z</time></trkpt><trkpt lat="43.2644583" lon="11.3586467"><ele>184.0</ele><time>2026-04-19T09:42:29.651Z</time></trkpt><trkpt lat="43.2643883" lon="11.3587883"><ele>184.0</ele><time>2026-04-19T09:42:30.657Z</time></trkpt><trkpt lat="43.2643083" lon="11.358915"><ele>184.0</ele><time>2026-04-19T09:42:31.65Z</time></trkpt><trkpt lat="43.264215" lon="11.3590367"><ele>184.0</ele><time>2026-04-19T09:42:32.655Z</time></trkpt><trkpt lat="43.2640983" lon="11.35915"><ele>184.0</ele><time>2026-04-19T09:42:33.647Z</time></trkpt><trkpt lat="43.2639533" lon="11.35925"><ele>184.0</ele><time>2026-04-19T09:42:34.648Z</time></trkpt><trkpt lat="43.2638" lon="11.3593467"><ele>183.66666666666669</ele><time>2026-04-19T09:42:35.649Z</time></trkpt><trkpt lat="43.263635" lon="11.3594867"><ele>183.33333333333334</ele><time>2026-04-19T09:42:36.652Z</time></trkpt><trkpt lat="43.2634617" lon="11.3596483"><ele>183.0</ele><time>2026-04-19T09:42:37.655Z</time></trkpt><trkpt lat="43.2632667" lon="11.3598367"><ele>184.5</ele><time>2026-04-19T09:42:38.651Z</time></trkpt><trkpt lat="43.2630833" lon="11.3600333"><ele>186.0</ele><time>2026-04-19T09:42:39.648Z</time></trkpt><trkpt lat="43.2628867" lon="11.3602567"><ele>186.0</ele><time>2026-04-19T09:42:40.644Z</time></trkpt><trkpt lat="43.262695" lon="11.360475"><ele>186.0</ele><time>2026-04-19T09:42:41.654Z</time></trkpt><trkpt lat="43.2625167" lon="11.36069"><ele>185.0</ele><time>2026-04-19T09:42:42.645Z</time></trkpt><trkpt lat="43.262355" lon="11.3609017"><ele>184.0</ele><time>2026-04-19T09:42:43.653Z</time></trkpt><trkpt lat="43.26219" lon="11.3611033"><ele>183.0</ele><time>2026-04-19T09:42:44.649Z</time></trkpt><trkpt lat="43.2620183" lon="11.3612933"><ele>182.66666666666666</ele><time>2026-04-19T09:42:45.649Z</time></trkpt><trkpt lat="43.26184" lon="11.3614633"><ele>182.33333333333331</ele><time>2026-04-19T09:42:46.653Z</time></trkpt><trkpt lat="43.2616783" lon="11.3615983"><ele>182.0</ele><time>2026-04-19T09:42:47.652Z</time></trkpt><trkpt lat="43.2615283" lon="11.3617167"><ele>182.0</ele><time>2026-04-19T09:42:48.654Z</time></trkpt><trkpt lat="43.261385" lon="11.3618183"><ele>182.0</ele><time>2026-04-19T09:42:49.654Z</time></trkpt><trkpt lat="43.2612417" lon="11.3619133"><ele>182.0</ele><time>2026-04-19T09:42:50.654Z</time></trkpt><trkpt lat="43.2610933" lon="11.3619917"><ele>182.0</ele><time>2026-04-19T09:42:51.654Z</time></trkpt><trkpt lat="43.2609317" lon="11.3620417"><ele>182.0</ele><time>2026-04-19T09:42:52.651Z</time></trkpt><trkpt lat="43.2607633" lon="11.362055"><ele>182.0</ele><time>2026-04-19T09:42:53.644Z</time></trkpt><trkpt lat="43.2605817" lon="11.3620417"><ele>183.5</ele><time>2026-04-19T09:42:54.647Z</time></trkpt><trkpt lat="43.2603683" lon="11.3620017"><ele>185.0</ele><time>2026-04-19T09:42:55.649Z</time></trkpt><trkpt lat="43.2601267" lon="11.36195"><ele>185.0</ele><time>2026-04-19T09:42:56.652Z</time></trkpt><trkpt lat="43.2598783" lon="11.361865"><ele>185.0</ele><time>2026-04-19T09:42:57.652Z</time></trkpt><trkpt lat="43.2596483" lon="11.3617667"><ele>189.0</ele><time>2026-04-19T09:42:58.65Z</time></trkpt><trkpt lat="43.259405" lon="11.361665"><ele>193.0</ele><time>2026-04-19T09:42:59.651Z</time></trkpt><trkpt lat="43.2591733" lon="11.3615633"><ele>193.0</ele><time>2026-04-19T09:43:00.655Z</time></trkpt><trkpt lat="43.2589567" lon="11.36145"><ele>193.0</ele><time>2026-04-19T09:43:01.654Z</time></trkpt><trkpt lat="43.2587483" lon="11.3613133"><ele>193.66666666666666</ele><time>2026-04-19T09:43:02.65Z</time></trkpt><trkpt lat="43.2585583" lon="11.3611633"><ele>194.33333333333331</ele><time>2026-04-19T09:43:03.651Z</time></trkpt><trkpt lat="43.2583867" lon="11.3609783"><ele>195.0</ele><time>2026-04-19T09:43:04.647Z</time></trkpt><trkpt lat="43.25822" lon="11.3607917"><ele>195.0</ele><time>2026-04-19T09:43:05.647Z</time></trkpt><trkpt lat="43.258055" lon="11.3606233"><ele>195.0</ele><time>2026-04-19T09:43:06.655Z</time></trkpt><trkpt lat="43.2578967" lon="11.36048"><ele>195.0</ele><time>2026-04-19T09:43:07.652Z</time></trkpt><trkpt lat="43.2577267" lon="11.3603567"><ele>195.0</ele><time>2026-04-19T09:43:08.647Z</time></trkpt><trkpt lat="43.2575417" lon="11.36025"><ele>195.0</ele><time>2026-04-19T09:43:09.648Z</time></trkpt><trkpt lat="43.2573533" lon="11.3601667"><ele>195.0</ele><time>2026-04-19T09:43:10.643Z</time></trkpt><trkpt lat="43.2571667" lon="11.3600983"><ele>196.33333333333331</ele><time>2026-04-19T09:43:11.648Z</time></trkpt><trkpt lat="43.256975" lon="11.3600517"><ele>197.66666666666666</ele><time>2026-04-19T09:43:12.653Z</time></trkpt><trkpt lat="43.2567767" lon="11.3600333"><ele>199.0</ele><time>2026-04-19T09:43:13.646Z</time></trkpt><trkpt lat="43.2565783" lon="11.3600483"><ele>200.33333333333331</ele><time>2026-04-19T09:43:14.65Z</time></trkpt><trkpt lat="43.2563817" lon="11.360085"><ele>201.66666666666669</ele><time>2026-04-19T09:43:15.649Z</time></trkpt><trkpt lat="43.256185" lon="11.3601317"><ele>203.0</ele><time>2026-04-19T09:43:16.652Z</time></trkpt><trkpt lat="43.256" lon="11.3602117"><ele>203.0</ele><time>2026-04-19T09:43:17.651Z</time></trkpt><trkpt lat="43.2558233" lon="11.36034"><ele>203.0</ele><time>2026-04-19T09:43:18.654Z</time></trkpt><trkpt lat="43.255665" lon="11.3604883"><ele>203.0</ele><time>2026-04-19T09:43:19.653Z</time></trkpt><trkpt lat="43.25549" lon="11.3606233"><ele>206.66666666666669</ele><time>2026-04-19T09:43:20.643Z</time></trkpt><trkpt lat="43.2553233" lon="11.360775"><ele>210.33333333333331</ele><time>2026-04-19T09:43:21.654Z</time></trkpt><trkpt lat="43.2551533" lon="11.36095"><ele>214.0</ele><time>2026-04-19T09:43:22.644Z</time></trkpt><trkpt lat="43.2549933" lon="11.361175"><ele>214.0</ele><time>2026-04-19T09:43:23.648Z</time></trkpt><trkpt lat="43.2548667" lon="11.36143"><ele>214.0</ele><time>2026-04-19T09:43:24.651Z</time></trkpt><trkpt lat="43.2547433" lon="11.361655"><ele>214.0</ele><time>2026-04-19T09:43:25.649Z</time></trkpt><trkpt lat="43.2546183" lon="11.361865"><ele>216.0</ele><time>2026-04-19T09:43:26.65Z</time></trkpt><trkpt lat="43.25449" lon="11.36206"><ele>218.0</ele><time>2026-04-19T09:43:27.649Z</time></trkpt><trkpt lat="43.254355" lon="11.3622317"><ele>220.0</ele><time>2026-04-19T09:43:28.649Z</time></trkpt><trkpt lat="43.2542117" lon="11.36237"><ele>220.0</ele><time>2026-04-19T09:43:29.653Z</time></trkpt><trkpt lat="43.2540617" lon="11.36247"><ele>220.0</ele><time>2026-04-19T09:43:30.644Z</time></trkpt><trkpt lat="43.2539083" lon="11.362515"><ele>220.0</ele><time>2026-04-19T09:43:31.652Z</time></trkpt><trkpt lat="43.2537783" lon="11.3625233"><ele>221.66666666666666</ele><time>2026-04-19T09:43:32.646Z</time></trkpt><trkpt lat="43.25361" lon="11.3625567"><ele>223.33333333333331</ele><time>2026-04-19T09:43:33.655Z</time></trkpt><trkpt lat="43.2534367" lon="11.3626"><ele>225.0</ele><time>2026-04-19T09:43:34.649Z</time></trkpt><trkpt lat="43.2532483" lon="11.362655"><ele>226.0</ele><time>2026-04-19T09:43:35.649Z</time></trkpt><trkpt lat="43.2530683" lon="11.362725"><ele>227.0</ele><time>2026-04-19T09:43:36.649Z</time></trkpt><trkpt lat="43.2529167" lon="11.3628"><ele>228.0</ele><time>2026-04-19T09:43:37.652Z</time></trkpt><trkpt lat="43.25281" lon="11.3628533"><ele>228.0</ele><time>2026-04-19T09:43:38.651Z</time></trkpt><trkpt lat="43.25274" lon="11.3628933"><ele>228.0</ele><time>2026-04-19T09:43:39.643Z</time></trkpt><trkpt lat="43.252645" lon="11.36294"><ele>228.0</ele><time>2026-04-19T09:43:41.646Z</time></trkpt><trkpt lat="43.2525667" lon="11.362985"><ele>228.0</ele><time>2026-04-19T09:43:43.65Z</time></trkpt><trkpt lat="43.25246" lon="11.3630683"><ele>228.0</ele><time>2026-04-19T09:43:45.648Z</time></trkpt><trkpt lat="43.2523933" lon="11.36313"><ele>228.83333333333334</ele><time>2026-04-19T09:43:46.65Z</time></trkpt><trkpt lat="43.252325" lon="11.3631983"><ele>229.66666666666669</ele><time>2026-04-19T09:43:47.648Z</time></trkpt><trkpt lat="43.2522567" lon="11.3632717"><ele>230.5</ele><time>2026-04-19T09:43:48.656Z</time></trkpt><trkpt lat="43.2521917" lon="11.363335"><ele>231.33333333333334</ele><time>2026-04-19T09:43:49.644Z</time></trkpt><trkpt lat="43.2521417" lon="11.363395"><ele>232.16666666666669</ele><time>2026-04-19T09:43:50.65Z</time></trkpt><trkpt lat="43.252095" lon="11.3634667"><ele>233.0</ele><time>2026-04-19T09:43:52.644Z</time></trkpt><trkpt lat="43.2521617" lon="11.3634167"><ele>233.0</ele><time>2026-04-19T09:43:58.643Z</time></trkpt><trkpt lat="43.2522433" lon="11.3633067"><ele>233.0</ele><time>2026-04-19T09:44:00.65Z</time></trkpt><trkpt lat="43.25231" lon="11.3632217"><ele>233.0</ele><time>2026-04-19T09:44:01.655Z</time></trkpt><trkpt lat="43.2524067" lon="11.3631317"><ele>233.0</ele><time>2026-04-19T09:44:02.651Z</time></trkpt><trkpt lat="43.252495" lon="11.363055"><ele>233.0</ele><time>2026-04-19T09:44:03.649Z</time></trkpt><trkpt lat="43.25259" lon="11.3629867"><ele>232.16666666666669</ele><time>2026-04-19T09:44:04.647Z</time></trkpt><trkpt lat="43.2526683" lon="11.3629317"><ele>231.33333333333334</ele><time>2026-04-19T09:44:05.649Z</time></trkpt><trkpt lat="43.2527467" lon="11.36288"><ele>230.5</ele><time>2026-04-19T09:44:06.651Z</time></trkpt><trkpt lat="43.2528333" lon="11.36281"><ele>229.66666666666669</ele><time>2026-04-19T09:44:08.653Z</time></trkpt><trkpt lat="43.25285" lon="11.362725"><ele>228.83333333333334</ele><time>2026-04-19T09:44:10.64Z</time></trkpt><trkpt lat="43.252835" lon="11.3626183"><ele>228.0</ele><time>2026-04-19T09:44:12.658Z</time></trkpt><trkpt lat="43.2527533" lon="11.3624883"><ele>228.0</ele><time>2026-04-19T09:44:14.662Z</time></trkpt><trkpt lat="43.252685" lon="11.362405"><ele>228.0</ele><time>2026-04-19T09:44:15.649Z</time></trkpt><trkpt lat="43.2526067" lon="11.362305"><ele>228.0</ele><time>2026-04-19T09:44:16.647Z</time></trkpt><trkpt lat="43.2525133" lon="11.3621633"><ele>228.0</ele><time>2026-04-19T09:44:17.653Z</time></trkpt><trkpt lat="43.2524283" lon="11.3620283"><ele>227.0</ele><time>2026-04-19T09:44:18.642Z</time></trkpt><trkpt lat="43.25234" lon="11.3619067"><ele>226.0</ele><time>2026-04-19T09:44:19.649Z</time></trkpt><trkpt lat="43.25223" lon="11.361775"><ele>225.0</ele><time>2026-04-19T09:44:20.644Z</time></trkpt><trkpt lat="43.2521067" lon="11.3616417"><ele>224.0</ele><time>2026-04-19T09:44:21.645Z</time></trkpt><trkpt lat="43.2519767" lon="11.3615017"><ele>222.66666666666669</ele><time>2026-04-19T09:44:22.662Z</time></trkpt><trkpt lat="43.25186" lon="11.3613617"><ele>221.33333333333331</ele><time>2026-04-19T09:44:23.647Z</time></trkpt><trkpt lat="43.25175" lon="11.36121"><ele>220.0</ele><time>2026-04-19T09:44:24.648Z</time></trkpt><trkpt lat="43.2516367" lon="11.361045"><ele>220.0</ele><time>2026-04-19T09:44:25.646Z</time></trkpt><trkpt lat="43.251525" lon="11.360875"><ele>220.0</ele><time>2026-04-19T09:44:26.647Z</time></trkpt><trkpt lat="43.251415" lon="11.360705"><ele>220.0</ele><time>2026-04-19T09:44:27.654Z</time></trkpt><trkpt lat="43.2513" lon="11.3605317"><ele>218.66666666666666</ele><time>2026-04-19T09:44:28.651Z</time></trkpt><trkpt lat="43.2511883" lon="11.3603583"><ele>217.33333333333331</ele><time>2026-04-19T09:44:29.642Z</time></trkpt><trkpt lat="43.25108" lon="11.36019"><ele>216.0</ele><time>2026-04-19T09:44:30.652Z</time></trkpt><trkpt lat="43.250975" lon="11.3600233"><ele>216.0</ele><time>2026-04-19T09:44:31.647Z</time></trkpt><trkpt lat="43.2508733" lon="11.35987"><ele>216.0</ele><time>2026-04-19T09:44:32.652Z</time></trkpt><trkpt lat="43.250785" lon="11.3597283"><ele>216.0</ele><time>2026-04-19T09:44:33.647Z</time></trkpt><trkpt lat="43.2507217" lon="11.359595"><ele>216.0</ele><time>2026-04-19T09:44:34.65Z</time></trkpt><trkpt lat="43.250665" lon="11.35947"><ele>216.66666666666666</ele><time>2026-04-19T09:44:35.648Z</time></trkpt><trkpt lat="43.2506217" lon="11.3593617"><ele>217.33333333333331</ele><time>2026-04-19T09:44:36.653Z</time></trkpt><trkpt lat="43.2505883" lon="11.3592583"><ele>218.0</ele><time>2026-04-19T09:44:37.652Z</time></trkpt><trkpt lat="43.2505567" lon="11.3591633"><ele>218.66666666666666</ele><time>2026-04-19T09:44:38.659Z</time></trkpt><trkpt lat="43.2505317" lon="11.359075"><ele>219.33333333333331</ele><time>2026-04-19T09:44:39.643Z</time></trkpt><trkpt lat="43.2505033" lon="11.3589267"><ele>220.0</ele><time>2026-04-19T09:44:41.643Z</time></trkpt><trkpt lat="43.25045" lon="11.3587983"><ele>219.99999999999997</ele><time>2026-04-19T09:44:43.65Z</time></trkpt><trkpt lat="43.2503817" lon="11.3587017"><ele>220.0</ele><time>2026-04-19T09:44:45.649Z</time></trkpt><trkpt lat="43.250295" lon="11.358665"><ele>220.0</ele><time>2026-04-19T09:44:47.649Z</time></trkpt><trkpt lat="43.2501783" lon="11.358645"><ele>220.0</ele><time>2026-04-19T09:44:49.645Z</time></trkpt><trkpt lat="43.250115" lon="11.3586333"><ele>219.99999999999997</ele><time>2026-04-19T09:44:50.657Z</time></trkpt><trkpt lat="43.2500517" lon="11.3586067"><ele>220.0</ele><time>2026-04-19T09:44:51.649Z</time></trkpt><trkpt lat="43.249985" lon="11.358585"><ele>219.99999999999997</ele><time>2026-04-19T09:44:52.644Z</time></trkpt><trkpt lat="43.2499183" lon="11.35856"><ele>220.0</ele><time>2026-04-19T09:44:53.651Z</time></trkpt><trkpt lat="43.249855" lon="11.3585233"><ele>220.0</ele><time>2026-04-19T09:44:54.655Z</time></trkpt><trkpt lat="43.2497917" lon="11.3584783"><ele>220.0</ele><time>2026-04-19T09:44:55.656Z</time></trkpt><trkpt lat="43.2497283" lon="11.3584267"><ele>220.0</ele><time>2026-04-19T09:44:56.649Z</time></trkpt><trkpt lat="43.24967" lon="11.3583633"><ele>219.99999999999997</ele><time>2026-04-19T09:44:57.657Z</time></trkpt><trkpt lat="43.2496083" lon="11.3582983"><ele>220.0</ele><time>2026-04-19T09:44:58.646Z</time></trkpt><trkpt lat="43.2495467" lon="11.3582283"><ele>217.33333333333331</ele><time>2026-04-19T09:44:59.643Z</time></trkpt><trkpt lat="43.2494833" lon="11.358165"><ele>214.66666666666666</ele><time>2026-04-19T09:45:00.656Z</time></trkpt><trkpt lat="43.2494117" lon="11.3580933"><ele>212.0</ele><time>2026-04-19T09:45:01.649Z</time></trkpt><trkpt lat="43.24934" lon="11.3580183"><ele>209.33333333333331</ele><time>2026-04-19T09:45:02.653Z</time></trkpt><trkpt lat="43.2492817" lon="11.357935"><ele>206.66666666666666</ele><time>2026-04-19T09:45:03.647Z</time></trkpt><trkpt lat="43.249235" lon="11.35785"><ele>204.0</ele><time>2026-04-19T09:45:04.647Z</time></trkpt><trkpt lat="43.2491983" lon="11.3577533"><ele>204.0</ele><time>2026-04-19T09:45:05.645Z</time></trkpt><trkpt lat="43.2491733" lon="11.3576367"><ele>204.0</ele><time>2026-04-19T09:45:06.649Z</time></trkpt><trkpt lat="43.2491617" lon="11.3575017"><ele>204.0</ele><time>2026-04-19T09:45:07.65Z</time></trkpt><trkpt lat="43.2491633" lon="11.3573617"><ele>204.0</ele><time>2026-04-19T09:45:08.653Z</time></trkpt><trkpt lat="43.2491733" lon="11.3572283"><ele>204.0</ele><time>2026-04-19T09:45:09.651Z</time></trkpt><trkpt lat="43.249185" lon="11.3570833"><ele>203.66666666666666</ele><time>2026-04-19T09:45:10.654Z</time></trkpt><trkpt lat="43.249195" lon="11.3569483"><ele>203.33333333333331</ele><time>2026-04-19T09:45:11.648Z</time></trkpt><trkpt lat="43.2492" lon="11.3568283"><ele>203.0</ele><time>2026-04-19T09:45:12.643Z</time></trkpt><trkpt lat="43.249215" lon="11.3567167"><ele>202.66666666666666</ele><time>2026-04-19T09:45:13.646Z</time></trkpt><trkpt lat="43.2492283" lon="11.356625"><ele>202.33333333333331</ele><time>2026-04-19T09:45:14.651Z</time></trkpt><trkpt lat="43.2492583" lon="11.3565117"><ele>202.0</ele><time>2026-04-19T09:45:16.653Z</time></trkpt><trkpt lat="43.2492967" lon="11.35642"><ele>200.75</ele><time>2026-04-19T09:45:53.647Z</time></trkpt><trkpt lat="43.24931" lon="11.3562967"><ele>199.5</ele><time>2026-04-19T09:45:56.651Z</time></trkpt><trkpt lat="43.24932" lon="11.3561133"><ele>198.25</ele><time>2026-04-19T09:45:58.646Z</time></trkpt><trkpt lat="43.249335" lon="11.3559467"><ele>197.0</ele><time>2026-04-19T09:45:59.646Z</time></trkpt><trkpt lat="43.2493567" lon="11.3557667"><ele>197.0</ele><time>2026-04-19T09:46:00.649Z</time></trkpt><trkpt lat="43.2493767" lon="11.3555917"><ele>197.0</ele><time>2026-04-19T09:46:01.652Z</time></trkpt><trkpt lat="43.24939" lon="11.355425"><ele>197.0</ele><time>2026-04-19T09:46:02.646Z</time></trkpt><trkpt lat="43.2494067" lon="11.3552617"><ele>197.0</ele><time>2026-04-19T09:46:03.651Z</time></trkpt><trkpt lat="43.2494233" lon="11.3551117"><ele>195.83333333333334</ele><time>2026-04-19T09:46:04.647Z</time></trkpt><trkpt lat="43.2494433" lon="11.3549683"><ele>194.66666666666669</ele><time>2026-04-19T09:46:05.649Z</time></trkpt><trkpt lat="43.2494667" lon="11.3548483"><ele>193.5</ele><time>2026-04-19T09:46:06.651Z</time></trkpt><trkpt lat="43.24949" lon="11.3547617"><ele>192.33333333333334</ele><time>2026-04-19T09:46:07.651Z</time></trkpt><trkpt lat="43.2495217" lon="11.35466"><ele>191.16666666666669</ele><time>2026-04-19T09:46:09.644Z</time></trkpt><trkpt lat="43.249515" lon="11.3545617"><ele>190.0</ele><time>2026-04-19T09:46:13.649Z</time></trkpt><trkpt lat="43.2495167" lon="11.3544317"><ele>190.0</ele><time>2026-04-19T09:46:15.654Z</time></trkpt><trkpt lat="43.2495283" lon="11.3543267"><ele>190.0</ele><time>2026-04-19T09:46:16.651Z</time></trkpt><trkpt lat="43.2495533" lon="11.354175"><ele>190.0</ele><time>2026-04-19T09:46:17.651Z</time></trkpt><trkpt lat="43.249575" lon="11.3540083"><ele>190.0</ele><time>2026-04-19T09:46:18.647Z</time></trkpt><trkpt lat="43.249595" lon="11.35381"><ele>192.0</ele><time>2026-04-19T09:46:19.643Z</time></trkpt><trkpt lat="43.2496083" lon="11.353595"><ele>194.0</ele><time>2026-04-19T09:46:20.644Z</time></trkpt><trkpt lat="43.2496067" lon="11.3533983"><ele>196.0</ele><time>2026-04-19T09:46:21.647Z</time></trkpt><trkpt lat="43.24962" lon="11.3531933"><ele>197.66666666666666</ele><time>2026-04-19T09:46:22.651Z</time></trkpt><trkpt lat="43.24964" lon="11.3529867"><ele>199.33333333333331</ele><time>2026-04-19T09:46:23.651Z</time></trkpt><trkpt lat="43.2496733" lon="11.3527817"><ele>201.0</ele><time>2026-04-19T09:46:24.651Z</time></trkpt><trkpt lat="43.24972" lon="11.3525817"><ele>201.0</ele><time>2026-04-19T09:46:25.653Z</time></trkpt><trkpt lat="43.2497783" lon="11.3524067"><ele>201.0</ele><time>2026-04-19T09:46:26.642Z</time></trkpt><trkpt lat="43.249845" lon="11.3522533"><ele>201.0</ele><time>2026-04-19T09:46:27.65Z</time></trkpt><trkpt lat="43.2499167" lon="11.3521167"><ele>201.0</ele><time>2026-04-19T09:46:28.644Z</time></trkpt><trkpt lat="43.24998" lon="11.3519767"><ele>200.8</ele><time>2026-04-19T09:46:29.645Z</time></trkpt><trkpt lat="43.2500283" lon="11.3518383"><ele>200.60000000000002</ele><time>2026-04-19T09:46:30.649Z</time></trkpt><trkpt lat="43.25007" lon="11.35171"><ele>200.4</ele><time>2026-04-19T09:46:31.648Z</time></trkpt><trkpt lat="43.250115" lon="11.3515733"><ele>200.2</ele><time>2026-04-19T09:46:32.647Z</time></trkpt><trkpt lat="43.2501567" lon="11.35145"><ele>200.0</ele><time>2026-04-19T09:46:33.653Z</time></trkpt><trkpt lat="43.2501967" lon="11.3513367"><ele>198.66666666666669</ele><time>2026-04-19T09:46:34.655Z</time></trkpt><trkpt lat="43.2502367" lon="11.3512433"><ele>197.33333333333334</ele><time>2026-04-19T09:46:35.658Z</time></trkpt><trkpt lat="43.2502733" lon="11.35117"><ele>196.0</ele><time>2026-04-19T09:46:36.654Z</time></trkpt><trkpt lat="43.25032" lon="11.3510983"><ele>194.66666666666669</ele><time>2026-04-19T09:46:39.65Z</time></trkpt><trkpt lat="43.2503933" lon="11.3510583"><ele>193.33333333333334</ele><time>2026-04-19T09:46:56.644Z</time></trkpt><trkpt lat="43.25044" lon="11.3509933"><ele>192.0</ele><time>2026-04-19T09:46:58.647Z</time></trkpt><trkpt lat="43.250505" lon="11.3508883"><ele>192.0</ele><time>2026-04-19T09:47:00.653Z</time></trkpt><trkpt lat="43.2505733" lon="11.35078"><ele>192.0</ele><time>2026-04-19T09:47:02.649Z</time></trkpt><trkpt lat="43.2506617" lon="11.350655"><ele>192.0</ele><time>2026-04-19T09:47:04.646Z</time></trkpt><trkpt lat="43.250725" lon="11.3505967"><ele>192.0</ele><time>2026-04-19T09:47:05.653Z</time></trkpt><trkpt lat="43.2507917" lon="11.3505433"><ele>192.0</ele><time>2026-04-19T09:47:06.648Z</time></trkpt><trkpt lat="43.2508583" lon="11.3504967"><ele>192.0</ele><time>2026-04-19T09:47:07.653Z</time></trkpt><trkpt lat="43.2509283" lon="11.3504567"><ele>192.0</ele><time>2026-04-19T09:47:08.652Z</time></trkpt><trkpt lat="43.2509883" lon="11.35042"><ele>192.0</ele><time>2026-04-19T09:47:09.644Z</time></trkpt><trkpt lat="43.251095" lon="11.3503333"><ele>192.0</ele><time>2026-04-19T09:47:11.649Z</time></trkpt><trkpt lat="43.2511733" lon="11.35026"><ele>192.0</ele><time>2026-04-19T09:47:13.651Z</time></trkpt><trkpt lat="43.2512183" lon="11.3501667"><ele>192.0</ele><time>2026-04-19T09:47:16.65Z</time></trkpt><trkpt lat="43.251245" lon="11.350085"><ele>192.0</ele><time>2026-04-19T09:47:18.654Z</time></trkpt><trkpt lat="43.2512617" lon="11.3499917"><ele>192.0</ele><time>2026-04-19T09:47:20.65Z</time></trkpt><trkpt lat="43.2512633" lon="11.3498733"><ele>192.0</ele><time>2026-04-19T09:47:22.648Z</time></trkpt><trkpt lat="43.2512567" lon="11.3497317"><ele>192.0</ele><time>2026-04-19T09:47:24.648Z</time></trkpt><trkpt lat="43.2512483" lon="11.34961"><ele>192.0</ele><time>2026-04-19T09:47:26.683Z</time></trkpt><trkpt lat="43.2512167" lon="11.3495083"><ele>192.0</ele><time>2026-04-19T09:47:28.647Z</time></trkpt><trkpt lat="43.251175" lon="11.3493967"><ele>191.6</ele><time>2026-04-19T09:47:30.651Z</time></trkpt><trkpt lat="43.25115" lon="11.34927"><ele>191.2</ele><time>2026-04-19T09:47:32.651Z</time></trkpt><trkpt lat="43.2511333" lon="11.3491367"><ele>190.8</ele><time>2026-04-19T09:47:34.651Z</time></trkpt><trkpt lat="43.2511267" lon="11.348965"><ele>190.4</ele><time>2026-04-19T09:47:36.645Z</time></trkpt><trkpt lat="43.2511217" lon="11.348875"><ele>190.0</ele><time>2026-04-19T09:47:37.646Z</time></trkpt><trkpt lat="43.251125" lon="11.348775"><ele>190.0</ele><time>2026-04-19T09:47:38.648Z</time></trkpt><trkpt lat="43.2511367" lon="11.348665"><ele>190.0</ele><time>2026-04-19T09:47:39.649Z</time></trkpt><trkpt lat="43.2511567" lon="11.3485517"><ele>190.0</ele><time>2026-04-19T09:47:40.646Z</time></trkpt><trkpt lat="43.2511833" lon="11.3484317"><ele>190.0</ele><time>2026-04-19T09:47:41.649Z</time></trkpt><trkpt lat="43.2512067" lon="11.3482917"><ele>190.0</ele><time>2026-04-19T09:47:42.653Z</time></trkpt><trkpt lat="43.25122" lon="11.3481467"><ele>191.75</ele><time>2026-04-19T09:47:43.647Z</time></trkpt><trkpt lat="43.2512233" lon="11.3479867"><ele>193.5</ele><time>2026-04-19T09:47:44.649Z</time></trkpt><trkpt lat="43.251215" lon="11.3478117"><ele>195.25</ele><time>2026-04-19T09:47:45.651Z</time></trkpt><trkpt lat="43.2512" lon="11.3476283"><ele>197.0</ele><time>2026-04-19T09:47:46.651Z</time></trkpt><trkpt lat="43.2511883" lon="11.3474467"><ele>197.0</ele><time>2026-04-19T09:47:47.646Z</time></trkpt><trkpt lat="43.251165" lon="11.3472783"><ele>197.0</ele><time>2026-04-19T09:47:48.654Z</time></trkpt><trkpt lat="43.2511367" lon="11.3471083"><ele>197.0</ele><time>2026-04-19T09:47:49.645Z</time></trkpt><trkpt lat="43.2511067" lon="11.34694"><ele>197.0</ele><time>2026-04-19T09:47:50.649Z</time></trkpt><trkpt lat="43.251075" lon="11.346765"><ele>199.0</ele><time>2026-04-19T09:47:51.65Z</time></trkpt><trkpt lat="43.25104" lon="11.3465867"><ele>201.0</ele><time>2026-04-19T09:47:52.647Z</time></trkpt><trkpt lat="43.2509967" lon="11.346405"><ele>203.0</ele><time>2026-04-19T09:47:53.649Z</time></trkpt><trkpt lat="43.2509533" lon="11.3462233"><ele>205.0</ele><time>2026-04-19T09:47:54.648Z</time></trkpt><trkpt lat="43.2509067" lon="11.3460283"><ele>207.0</ele><time>2026-04-19T09:47:55.652Z</time></trkpt><trkpt lat="43.25086" lon="11.3458167"><ele>209.0</ele><time>2026-04-19T09:47:56.657Z</time></trkpt><trkpt lat="43.2508183" lon="11.3456117"><ele>211.0</ele><time>2026-04-19T09:47:57.651Z</time></trkpt><trkpt lat="43.2507817" lon="11.3454183"><ele>212.75</ele><time>2026-04-19T09:47:58.65Z</time></trkpt><trkpt lat="43.2507533" lon="11.3452233"><ele>214.5</ele><time>2026-04-19T09:47:59.649Z</time></trkpt><trkpt lat="43.2507433" lon="11.3450333"><ele>216.25</ele><time>2026-04-19T09:48:00.65Z</time></trkpt><trkpt lat="43.2507417" lon="11.344865"><ele>218.0</ele><time>2026-04-19T09:48:01.646Z</time></trkpt><trkpt lat="43.2507333" lon="11.3447133"><ele>218.83333333333334</ele><time>2026-04-19T09:48:02.643Z</time></trkpt><trkpt lat="43.25073" lon="11.3445783"><ele>219.66666666666669</ele><time>2026-04-19T09:48:03.642Z</time></trkpt><trkpt lat="43.250715" lon="11.34445"><ele>220.5</ele><time>2026-04-19T09:48:04.65Z</time></trkpt><trkpt lat="43.2506817" lon="11.3443533"><ele>221.33333333333331</ele><time>2026-04-19T09:48:05.649Z</time></trkpt><trkpt lat="43.250625" lon="11.3442867"><ele>222.16666666666666</ele><time>2026-04-19T09:48:07.647Z</time></trkpt><trkpt lat="43.2506917" lon="11.3442067"><ele>223.0</ele><time>2026-04-19T09:48:11.65Z</time></trkpt><trkpt lat="43.25077" lon="11.3441417"><ele>223.0</ele><time>2026-04-19T09:48:14.652Z</time></trkpt><trkpt lat="43.2508717" lon="11.3440467"><ele>223.0</ele><time>2026-04-19T09:48:16.647Z</time></trkpt><trkpt lat="43.2509233" lon="11.3439867"><ele>223.0</ele><time>2026-04-19T09:48:17.646Z</time></trkpt><trkpt lat="43.2509733" lon="11.343925"><ele>223.0</ele><time>2026-04-19T09:48:18.646Z</time></trkpt><trkpt lat="43.251035" lon="11.3438"><ele>223.0</ele><time>2026-04-19T09:48:20.655Z</time></trkpt><trkpt lat="43.2510817" lon="11.3436717"><ele>222.0</ele><time>2026-04-19T09:48:22.647Z</time></trkpt><trkpt lat="43.2511267" lon="11.343505"><ele>221.0</ele><time>2026-04-19T09:48:24.651Z</time></trkpt><trkpt lat="43.2511583" lon="11.3434233"><ele>220.0</ele><time>2026-04-19T09:48:25.647Z</time></trkpt><trkpt lat="43.251235" lon="11.3432717"><ele>219.0</ele><time>2026-04-19T09:48:27.645Z</time></trkpt><trkpt lat="43.251285" lon="11.34318"><ele>218.0</ele><time>2026-04-19T09:48:28.647Z</time></trkpt><trkpt lat="43.2513317" lon="11.343075"><ele>217.5</ele><time>2026-04-19T09:48:29.655Z</time></trkpt><trkpt lat="43.2513717" lon="11.3429533"><ele>217.0</ele><time>2026-04-19T09:48:30.65Z</time></trkpt><trkpt lat="43.2514067" lon="11.3428183"><ele>216.5</ele><time>2026-04-19T09:48:31.649Z</time></trkpt><trkpt lat="43.25147" lon="11.3426683"><ele>216.0</ele><time>2026-04-19T09:48:32.645Z</time></trkpt><trkpt lat="43.2515317" lon="11.34252"><ele>216.0</ele><time>2026-04-19T09:48:33.644Z</time></trkpt><trkpt lat="43.2515783" lon="11.3423867"><ele>216.00000000000003</ele><time>2026-04-19T09:48:34.652Z</time></trkpt><trkpt lat="43.2516133" lon="11.34226"><ele>216.00000000000003</ele><time>2026-04-19T09:48:35.655Z</time></trkpt><trkpt lat="43.251645" lon="11.3421283"><ele>216.0</ele><time>2026-04-19T09:48:36.644Z</time></trkpt><trkpt lat="43.25166" lon="11.342015"><ele>216.0</ele><time>2026-04-19T09:48:37.644Z</time></trkpt><trkpt lat="43.25167" lon="11.3419083"><ele>215.8</ele><time>2026-04-19T09:48:38.651Z</time></trkpt><trkpt lat="43.25168" lon="11.3418067"><ele>215.60000000000002</ele><time>2026-04-19T09:48:39.645Z</time></trkpt><trkpt lat="43.25168" lon="11.3417183"><ele>215.4</ele><time>2026-04-19T09:48:40.656Z</time></trkpt><trkpt lat="43.2516917" lon="11.3415617"><ele>215.2</ele><time>2026-04-19T09:48:42.651Z</time></trkpt><trkpt lat="43.25168" lon="11.3414217"><ele>215.0</ele><time>2026-04-19T09:48:44.652Z</time></trkpt><trkpt lat="43.251645" lon="11.341295"><ele>215.0</ele><time>2026-04-19T09:48:46.644Z</time></trkpt><trkpt lat="43.251585" lon="11.3411517"><ele>215.0</ele><time>2026-04-19T09:48:48.648Z</time></trkpt><trkpt lat="43.2515417" lon="11.341015"><ele>215.0</ele><time>2026-04-19T09:48:50.65Z</time></trkpt><trkpt lat="43.2515333" lon="11.3408783"><ele>215.0</ele><time>2026-04-19T09:48:52.647Z</time></trkpt><trkpt lat="43.2515467" lon="11.3407433"><ele>215.0</ele><time>2026-04-19T09:48:54.644Z</time></trkpt><trkpt lat="43.25158" lon="11.3405983"><ele>214.66666666666669</ele><time>2026-04-19T09:48:56.652Z</time></trkpt><trkpt lat="43.2516217" lon="11.34044"><ele>214.33333333333334</ele><time>2026-04-19T09:48:58.649Z</time></trkpt><trkpt lat="43.2516367" lon="11.3403417"><ele>214.0</ele><time>2026-04-19T09:48:59.647Z</time></trkpt><trkpt lat="43.2516467" lon="11.340255"><ele>213.66666666666669</ele><time>2026-04-19T09:49:00.65Z</time></trkpt><trkpt lat="43.2515833" lon="11.3401667"><ele>213.33333333333334</ele><time>2026-04-19T09:49:01.656Z</time></trkpt><trkpt lat="43.2515467" lon="11.3400733"><ele>213.0</ele><time>2026-04-19T09:49:02.647Z</time></trkpt><trkpt lat="43.2515033" lon="11.33998"><ele>210.83333333333334</ele><time>2026-04-19T09:49:03.647Z</time></trkpt><trkpt lat="43.2514483" lon="11.3398867"><ele>208.66666666666669</ele><time>2026-04-19T09:49:04.648Z</time></trkpt><trkpt lat="43.2514033" lon="11.3397983"><ele>206.5</ele><time>2026-04-19T09:49:05.643Z</time></trkpt><trkpt lat="43.2513467" lon="11.33971"><ele>204.33333333333334</ele><time>2026-04-19T09:49:06.645Z</time></trkpt><trkpt lat="43.251285" lon="11.339605"><ele>202.16666666666669</ele><time>2026-04-19T09:49:07.646Z</time></trkpt><trkpt lat="43.2512367" lon="11.3395067"><ele>200.0</ele><time>2026-04-19T09:49:08.648Z</time></trkpt><trkpt lat="43.2512" lon="11.339395"><ele>200.00000000000003</ele><time>2026-04-19T09:49:09.648Z</time></trkpt><trkpt lat="43.2511667" lon="11.339275"><ele>200.0</ele><time>2026-04-19T09:49:10.654Z</time></trkpt><trkpt lat="43.2511383" lon="11.3391417"><ele>200.0</ele><time>2026-04-19T09:49:11.648Z</time></trkpt><trkpt lat="43.2511083" lon="11.339025"><ele>200.0</ele><time>2026-04-19T09:49:12.649Z</time></trkpt><trkpt lat="43.2510867" lon="11.3389233"><ele>200.00000000000003</ele><time>2026-04-19T09:49:13.653Z</time></trkpt><trkpt lat="43.2510683" lon="11.33884"><ele>200.0</ele><time>2026-04-19T09:49:14.646Z</time></trkpt><trkpt lat="43.2510483" lon="11.3387417"><ele>200.0</ele><time>2026-04-19T09:49:16.646Z</time></trkpt><trkpt lat="43.25101" lon="11.3389383"><ele>200.0</ele><time>2026-04-19T09:49:22.648Z</time></trkpt><trkpt lat="43.2509983" lon="11.3391233"><ele>200.0</ele><time>2026-04-19T09:49:23.647Z</time></trkpt><trkpt lat="43.2509867" lon="11.3392967"><ele>200.0</ele><time>2026-04-19T09:49:24.652Z</time></trkpt><trkpt lat="43.2509733" lon="11.3394983"><ele>200.0</ele><time>2026-04-19T09:49:25.652Z</time></trkpt><trkpt lat="43.2509383" lon="11.33971"><ele>200.0</ele><time>2026-04-19T09:49:26.648Z</time></trkpt><trkpt lat="43.250895" lon="11.339925"><ele>200.0</ele><time>2026-04-19T09:49:27.648Z</time></trkpt><trkpt lat="43.2508433" lon="11.34014"><ele>200.0</ele><time>2026-04-19T09:49:28.646Z</time></trkpt><trkpt lat="43.2507917" lon="11.340375"><ele>200.0</ele><time>2026-04-19T09:49:29.648Z</time></trkpt><trkpt lat="43.2507383" lon="11.3405917"><ele>200.0</ele><time>2026-04-19T09:49:30.649Z</time></trkpt><trkpt lat="43.2506633" lon="11.3407967"><ele>197.0</ele><time>2026-04-19T09:49:31.648Z</time></trkpt><trkpt lat="43.250575" lon="11.3409783"><ele>194.0</ele><time>2026-04-19T09:49:32.645Z</time></trkpt><trkpt lat="43.2504783" lon="11.341145"><ele>191.0</ele><time>2026-04-19T09:49:33.647Z</time></trkpt><trkpt lat="43.2503667" lon="11.3413133"><ele>192.0</ele><time>2026-04-19T09:49:34.653Z</time></trkpt><trkpt lat="43.2502267" lon="11.341455"><ele>193.0</ele><time>2026-04-19T09:49:35.652Z</time></trkpt><trkpt lat="43.2500783" lon="11.341565"><ele>194.0</ele><time>2026-04-19T09:49:36.653Z</time></trkpt><trkpt lat="43.24992" lon="11.3416467"><ele>191.66666666666669</ele><time>2026-04-19T09:49:37.649Z</time></trkpt><trkpt lat="43.2497567" lon="11.3417033"><ele>189.33333333333334</ele><time>2026-04-19T09:49:38.65Z</time></trkpt><trkpt lat="43.2495833" lon="11.341735"><ele>187.0</ele><time>2026-04-19T09:49:39.652Z</time></trkpt><trkpt lat="43.249405" lon="11.34175"><ele>187.0</ele><time>2026-04-19T09:49:40.651Z</time></trkpt><trkpt lat="43.2492267" lon="11.34173"><ele>187.0</ele><time>2026-04-19T09:49:41.651Z</time></trkpt><trkpt lat="43.24904" lon="11.341695"><ele>187.0</ele><time>2026-04-19T09:49:42.649Z</time></trkpt><trkpt lat="43.248845" lon="11.34166"><ele>186.66666666666669</ele><time>2026-04-19T09:49:43.654Z</time></trkpt><trkpt lat="43.24865" lon="11.341615"><ele>186.33333333333334</ele><time>2026-04-19T09:49:44.652Z</time></trkpt><trkpt lat="43.248465" lon="11.3415733"><ele>186.0</ele><time>2026-04-19T09:49:45.645Z</time></trkpt><trkpt lat="43.2482917" lon="11.341535"><ele>186.66666666666666</ele><time>2026-04-19T09:49:46.645Z</time></trkpt><trkpt lat="43.2481217" lon="11.3414983"><ele>187.33333333333331</ele><time>2026-04-19T09:49:47.644Z</time></trkpt><trkpt lat="43.2479583" lon="11.3414583"><ele>188.0</ele><time>2026-04-19T09:49:48.648Z</time></trkpt><trkpt lat="43.2478017" lon="11.3414217"><ele>188.0</ele><time>2026-04-19T09:49:49.649Z</time></trkpt><trkpt lat="43.2476517" lon="11.3413833"><ele>188.0</ele><time>2026-04-19T09:49:50.648Z</time></trkpt><trkpt lat="43.2475083" lon="11.3413417"><ele>188.0</ele><time>2026-04-19T09:49:51.648Z</time></trkpt><trkpt lat="43.2473783" lon="11.3412917"><ele>188.0</ele><time>2026-04-19T09:49:52.653Z</time></trkpt><trkpt lat="43.2472517" lon="11.3412383"><ele>188.5</ele><time>2026-04-19T09:49:53.651Z</time></trkpt><trkpt lat="43.24712" lon="11.3411783"><ele>189.0</ele><time>2026-04-19T09:49:54.646Z</time></trkpt><trkpt lat="43.2469983" lon="11.3411283"><ele>189.5</ele><time>2026-04-19T09:49:55.647Z</time></trkpt><trkpt lat="43.2468767" lon="11.3410817"><ele>190.0</ele><time>2026-04-19T09:49:56.647Z</time></trkpt><trkpt lat="43.2467717" lon="11.341045"><ele>190.0</ele><time>2026-04-19T09:49:57.647Z</time></trkpt><trkpt lat="43.2466883" lon="11.3410167"><ele>190.0</ele><time>2026-04-19T09:49:58.648Z</time></trkpt><trkpt lat="43.2466033" lon="11.34101"><ele>190.0</ele><time>2026-04-19T09:49:59.648Z</time></trkpt><trkpt lat="43.2465267" lon="11.341035"><ele>190.0</ele><time>2026-04-19T09:50:00.655Z</time></trkpt><trkpt lat="43.2464567" lon="11.3410783"><ele>190.0</ele><time>2026-04-19T09:50:01.652Z</time></trkpt><trkpt lat="43.2463883" lon="11.34114"><ele>190.0</ele><time>2026-04-19T09:50:02.649Z</time></trkpt><trkpt lat="43.2463217" lon="11.3412117"><ele>190.66666666666669</ele><time>2026-04-19T09:50:03.651Z</time></trkpt><trkpt lat="43.2462533" lon="11.3412833"><ele>191.33333333333334</ele><time>2026-04-19T09:50:04.652Z</time></trkpt><trkpt lat="43.2461817" lon="11.341355"><ele>192.0</ele><time>2026-04-19T09:50:05.646Z</time></trkpt><trkpt lat="43.2461167" lon="11.3414267"><ele>192.66666666666669</ele><time>2026-04-19T09:50:06.649Z</time></trkpt><trkpt lat="43.2460533" lon="11.3414967"><ele>193.33333333333334</ele><time>2026-04-19T09:50:07.646Z</time></trkpt><trkpt lat="43.246" lon="11.3415617"><ele>194.0</ele><time>2026-04-19T09:50:08.649Z</time></trkpt><trkpt lat="43.245915" lon="11.3416533"><ele>195.00000000000003</ele><time>2026-04-19T09:50:10.646Z</time></trkpt><trkpt lat="43.24581" lon="11.3417133"><ele>196.0</ele><time>2026-04-19T09:50:12.65Z</time></trkpt><trkpt lat="43.2457467" lon="11.3417367"><ele>197.0</ele><time>2026-04-19T09:50:13.649Z</time></trkpt><trkpt lat="43.2456817" lon="11.3417583"><ele>198.0</ele><time>2026-04-19T09:50:14.65Z</time></trkpt><trkpt lat="43.2456117" lon="11.3417817"><ele>199.00000000000003</ele><time>2026-04-19T09:50:15.647Z</time></trkpt><trkpt lat="43.2455417" lon="11.3418017"><ele>200.0</ele><time>2026-04-19T09:50:16.648Z</time></trkpt><trkpt lat="43.245465" lon="11.3418183"><ele>200.6</ele><time>2026-04-19T09:50:17.656Z</time></trkpt><trkpt lat="43.24538" lon="11.34184"><ele>201.2</ele><time>2026-04-19T09:50:18.657Z</time></trkpt><trkpt lat="43.2452867" lon="11.341865"><ele>201.8</ele><time>2026-04-19T09:50:19.654Z</time></trkpt><trkpt lat="43.2451917" lon="11.34189"><ele>202.4</ele><time>2026-04-19T09:50:20.652Z</time></trkpt><trkpt lat="43.2450983" lon="11.3419133"><ele>203.0</ele><time>2026-04-19T09:50:21.653Z</time></trkpt><trkpt lat="43.2450083" lon="11.3419333"><ele>203.0</ele><time>2026-04-19T09:50:22.653Z</time></trkpt><trkpt lat="43.2449133" lon="11.3419633"><ele>203.0</ele><time>2026-04-19T09:50:23.651Z</time></trkpt><trkpt lat="43.2448167" lon="11.342"><ele>203.0</ele><time>2026-04-19T09:50:24.646Z</time></trkpt><trkpt lat="43.2447167" lon="11.3420333"><ele>203.0</ele><time>2026-04-19T09:50:25.649Z</time></trkpt><trkpt lat="43.2446117" lon="11.3420683"><ele>203.0</ele><time>2026-04-19T09:50:26.645Z</time></trkpt><trkpt lat="43.2444933" lon="11.3421117"><ele>204.0</ele><time>2026-04-19T09:50:27.651Z</time></trkpt><trkpt lat="43.2443783" lon="11.34215"><ele>205.0</ele><time>2026-04-19T09:50:28.649Z</time></trkpt><trkpt lat="43.2442633" lon="11.3421867"><ele>206.0</ele><time>2026-04-19T09:50:29.651Z</time></trkpt><trkpt lat="43.2441483" lon="11.3422183"><ele>207.0</ele><time>2026-04-19T09:50:30.655Z</time></trkpt><trkpt lat="43.2440333" lon="11.3422383"><ele>209.75</ele><time>2026-04-19T09:50:31.651Z</time></trkpt><trkpt lat="43.2439183" lon="11.342245"><ele>212.5</ele><time>2026-04-19T09:50:32.65Z</time></trkpt><trkpt lat="43.2438" lon="11.3422583"><ele>215.25</ele><time>2026-04-19T09:50:33.649Z</time></trkpt><trkpt lat="43.2436817" lon="11.3422683"><ele>218.0</ele><time>2026-04-19T09:50:34.644Z</time></trkpt><trkpt lat="43.243565" lon="11.342275"><ele>218.0</ele><time>2026-04-19T09:50:35.653Z</time></trkpt><trkpt lat="43.24345" lon="11.342285"><ele>218.0</ele><time>2026-04-19T09:50:36.658Z</time></trkpt><trkpt lat="43.2433333" lon="11.3422967"><ele>218.0</ele><time>2026-04-19T09:50:37.651Z</time></trkpt><trkpt lat="43.2432217" lon="11.34231"><ele>218.0</ele><time>2026-04-19T09:50:38.649Z</time></trkpt><trkpt lat="43.24311" lon="11.3423267"><ele>218.0</ele><time>2026-04-19T09:50:39.65Z</time></trkpt><trkpt lat="43.2430067" lon="11.34235"><ele>218.0</ele><time>2026-04-19T09:50:40.655Z</time></trkpt><trkpt lat="43.2429083" lon="11.3423867"><ele>218.0</ele><time>2026-04-19T09:50:41.647Z</time></trkpt><trkpt lat="43.2428217" lon="11.3424417"><ele>218.0</ele><time>2026-04-19T09:50:42.651Z</time></trkpt><trkpt lat="43.2427417" lon="11.3425067"><ele>218.0</ele><time>2026-04-19T09:50:43.647Z</time></trkpt><trkpt lat="43.2426783" lon="11.3425867"><ele>218.0</ele><time>2026-04-19T09:50:44.654Z</time></trkpt><trkpt lat="43.2426183" lon="11.34268"><ele>218.0</ele><time>2026-04-19T09:50:45.653Z</time></trkpt><trkpt lat="43.24256" lon="11.3427967"><ele>218.0</ele><time>2026-04-19T09:50:46.661Z</time></trkpt><trkpt lat="43.242505" lon="11.342935"><ele>218.0</ele><time>2026-04-19T09:50:47.647Z</time></trkpt><trkpt lat="43.242455" lon="11.3431017"><ele>218.0</ele><time>2026-04-19T09:50:48.652Z</time></trkpt><trkpt lat="43.2423983" lon="11.34326"><ele>219.0</ele><time>2026-04-19T09:50:49.65Z</time></trkpt><trkpt lat="43.2423383" lon="11.3434133"><ele>220.0</ele><time>2026-04-19T09:50:50.656Z</time></trkpt><trkpt lat="43.2422767" lon="11.3435633"><ele>221.0</ele><time>2026-04-19T09:50:51.652Z</time></trkpt><trkpt lat="43.2422167" lon="11.3437117"><ele>222.0</ele><time>2026-04-19T09:50:52.645Z</time></trkpt><trkpt lat="43.2421517" lon="11.3438617"><ele>223.75</ele><time>2026-04-19T09:50:53.646Z</time></trkpt><trkpt lat="43.2420733" lon="11.3440083"><ele>225.5</ele><time>2026-04-19T09:50:54.647Z</time></trkpt><trkpt lat="43.2419883" lon="11.3441433"><ele>227.25</ele><time>2026-04-19T09:50:55.649Z</time></trkpt><trkpt lat="43.2419017" lon="11.3442683"><ele>229.0</ele><time>2026-04-19T09:50:56.649Z</time></trkpt><trkpt lat="43.2418067" lon="11.3443833"><ele>229.0</ele><time>2026-04-19T09:50:57.647Z</time></trkpt><trkpt lat="43.24171" lon="11.3445"><ele>229.0</ele><time>2026-04-19T09:50:58.65Z</time></trkpt><trkpt lat="43.2416133" lon="11.3446117"><ele>229.0</ele><time>2026-04-19T09:50:59.647Z</time></trkpt><trkpt lat="43.2415167" lon="11.3447083"><ele>229.0</ele><time>2026-04-19T09:51:00.652Z</time></trkpt><trkpt lat="43.2414217" lon="11.344795"><ele>230.0</ele><time>2026-04-19T09:51:01.651Z</time></trkpt><trkpt lat="43.2413333" lon="11.3448767"><ele>230.99999999999997</ele><time>2026-04-19T09:51:02.648Z</time></trkpt><trkpt lat="43.241255" lon="11.344945"><ele>231.99999999999997</ele><time>2026-04-19T09:51:03.646Z</time></trkpt><trkpt lat="43.241195" lon="11.3450017"><ele>233.0</ele><time>2026-04-19T09:51:04.645Z</time></trkpt><trkpt lat="43.24111" lon="11.3450983"><ele>234.0</ele><time>2026-04-19T09:51:06.648Z</time></trkpt><trkpt lat="43.241045" lon="11.34515"><ele>234.0</ele><time>2026-04-19T09:51:08.653Z</time></trkpt><trkpt lat="43.2409783" lon="11.3451367"><ele>233.99999999999997</ele><time>2026-04-19T09:51:10.651Z</time></trkpt><trkpt lat="43.2409117" lon="11.3450917"><ele>233.99999999999997</ele><time>2026-04-19T09:51:12.651Z</time></trkpt><trkpt lat="43.2408117" lon="11.3450617"><ele>234.0</ele><time>2026-04-19T09:51:14.645Z</time></trkpt><trkpt lat="43.240695" lon="11.3450583"><ele>234.0</ele><time>2026-04-19T09:51:16.647Z</time></trkpt><trkpt lat="43.2405733" lon="11.3450467"><ele>234.79999999999998</ele><time>2026-04-19T09:51:18.646Z</time></trkpt><trkpt lat="43.2404733" lon="11.3450267"><ele>235.59999999999997</ele><time>2026-04-19T09:51:20.648Z</time></trkpt><trkpt lat="43.240385" lon="11.3449833"><ele>236.4</ele><time>2026-04-19T09:51:22.642Z</time></trkpt><trkpt lat="43.2403017" lon="11.344915"><ele>237.2</ele><time>2026-04-19T09:51:24.646Z</time></trkpt><trkpt lat="43.240235" lon="11.3448283"><ele>238.0</ele><time>2026-04-19T09:51:26.659Z</time></trkpt><trkpt lat="43.2401717" lon="11.344755"><ele>238.83333333333331</ele><time>2026-04-19T09:51:28.652Z</time></trkpt><trkpt lat="43.2401017" lon="11.34471"><ele>239.66666666666666</ele><time>2026-04-19T09:51:30.653Z</time></trkpt><trkpt lat="43.240005" lon="11.344685"><ele>240.5</ele><time>2026-04-19T09:51:32.649Z</time></trkpt><trkpt lat="43.2399033" lon="11.3446617"><ele>241.33333333333331</ele><time>2026-04-19T09:51:34.644Z</time></trkpt><trkpt lat="43.2398283" lon="11.3446867"><ele>242.16666666666666</ele><time>2026-04-19T09:51:36.662Z</time></trkpt><trkpt lat="43.2397667" lon="11.3447817"><ele>243.0</ele><time>2026-04-19T09:51:38.651Z</time></trkpt><trkpt lat="43.23971" lon="11.34493"><ele>241.14285714285714</ele><time>2026-04-19T09:51:40.649Z</time></trkpt><trkpt lat="43.2396783" lon="11.3450083"><ele>239.28571428571428</ele><time>2026-04-19T09:51:41.649Z</time></trkpt><trkpt lat="43.23964" lon="11.34509"><ele>237.42857142857142</ele><time>2026-04-19T09:51:42.65Z</time></trkpt><trkpt lat="43.2395883" lon="11.3451683"><ele>235.57142857142856</ele><time>2026-04-19T09:51:43.648Z</time></trkpt><trkpt lat="43.23953" lon="11.34524"><ele>233.71428571428572</ele><time>2026-04-19T09:51:44.646Z</time></trkpt><trkpt lat="43.2394667" lon="11.3452967"><ele>231.85714285714283</ele><time>2026-04-19T09:51:45.647Z</time></trkpt><trkpt lat="43.2393983" lon="11.3453467"><ele>229.99999999999997</ele><time>2026-04-19T09:51:46.648Z</time></trkpt><trkpt lat="43.2393267" lon="11.3453983"><ele>230.00000000000003</ele><time>2026-04-19T09:51:47.646Z</time></trkpt><trkpt lat="43.2392567" lon="11.3454417"><ele>230.0</ele><time>2026-04-19T09:51:48.644Z</time></trkpt><trkpt lat="43.2391883" lon="11.34548"><ele>230.0</ele><time>2026-04-19T09:51:49.651Z</time></trkpt><trkpt lat="43.239115" lon="11.3455217"><ele>230.0</ele><time>2026-04-19T09:51:50.647Z</time></trkpt><trkpt lat="43.2390383" lon="11.3455617"><ele>230.00000000000003</ele><time>2026-04-19T09:51:51.644Z</time></trkpt><trkpt lat="43.2389583" lon="11.345605"><ele>230.0</ele><time>2026-04-19T09:51:52.648Z</time></trkpt><trkpt lat="43.2388817" lon="11.3456483"><ele>230.33333333333334</ele><time>2026-04-19T09:51:53.648Z</time></trkpt><trkpt lat="43.23881" lon="11.34569"><ele>230.66666666666669</ele><time>2026-04-19T09:51:54.652Z</time></trkpt><trkpt lat="43.2387417" lon="11.3457233"><ele>231.0</ele><time>2026-04-19T09:51:55.646Z</time></trkpt><trkpt lat="43.2386717" lon="11.3457383"><ele>231.33333333333331</ele><time>2026-04-19T09:51:56.649Z</time></trkpt><trkpt lat="43.2385667" lon="11.34571"><ele>231.66666666666666</ele><time>2026-04-19T09:51:58.65Z</time></trkpt><trkpt lat="43.238495" lon="11.3456283"><ele>232.0</ele><time>2026-04-19T09:52:00.652Z</time></trkpt><trkpt lat="43.2384583" lon="11.34543"><ele>230.66666666666666</ele><time>2026-04-19T09:52:02.647Z</time></trkpt><trkpt lat="43.23848" lon="11.3452517"><ele>229.33333333333331</ele><time>2026-04-19T09:52:03.649Z</time></trkpt><trkpt lat="43.2385167" lon="11.3450267"><ele>228.0</ele><time>2026-04-19T09:52:04.649Z</time></trkpt><trkpt lat="43.2385383" lon="11.344785"><ele>225.66666666666669</ele><time>2026-04-19T09:52:05.659Z</time></trkpt><trkpt lat="43.2385217" lon="11.3445683"><ele>223.33333333333334</ele><time>2026-04-19T09:52:06.65Z</time></trkpt><trkpt lat="43.2384983" lon="11.3443567"><ele>221.0</ele><time>2026-04-19T09:52:07.66Z</time></trkpt><trkpt lat="43.2384733" lon="11.3441567"><ele>221.0</ele><time>2026-04-19T09:52:08.648Z</time></trkpt><trkpt lat="43.2384533" lon="11.3439633"><ele>221.0</ele><time>2026-04-19T09:52:09.646Z</time></trkpt><trkpt lat="43.2384417" lon="11.3437567"><ele>221.0</ele><time>2026-04-19T09:52:10.654Z</time></trkpt><trkpt lat="43.23844" lon="11.3435383"><ele>219.66666666666669</ele><time>2026-04-19T09:52:11.657Z</time></trkpt><trkpt lat="43.2384367" lon="11.3433133"><ele>218.33333333333331</ele><time>2026-04-19T09:52:12.646Z</time></trkpt><trkpt lat="43.2384333" lon="11.343095"><ele>217.0</ele><time>2026-04-19T09:52:13.645Z</time></trkpt><trkpt lat="43.2384267" lon="11.34288"><ele>216.5</ele><time>2026-04-19T09:52:14.647Z</time></trkpt><trkpt lat="43.2384217" lon="11.3426717"><ele>216.0</ele><time>2026-04-19T09:52:15.647Z</time></trkpt><trkpt lat="43.23842" lon="11.34247"><ele>215.5</ele><time>2026-04-19T09:52:16.646Z</time></trkpt><trkpt lat="43.2384183" lon="11.3422783"><ele>215.0</ele><time>2026-04-19T09:52:17.647Z</time></trkpt><trkpt lat="43.2384133" lon="11.3420933"><ele>214.0</ele><time>2026-04-19T09:52:18.649Z</time></trkpt><trkpt lat="43.2384067" lon="11.3419167"><ele>213.0</ele><time>2026-04-19T09:52:19.652Z</time></trkpt><trkpt lat="43.2384033" lon="11.3417383"><ele>212.0</ele><time>2026-04-19T09:52:20.65Z</time></trkpt><trkpt lat="43.2384017" lon="11.3415617"><ele>211.0</ele><time>2026-04-19T09:52:21.644Z</time></trkpt><trkpt lat="43.2383983" lon="11.3413867"><ele>210.8</ele><time>2026-04-19T09:52:22.643Z</time></trkpt><trkpt lat="43.2383917" lon="11.3412217"><ele>210.60000000000002</ele><time>2026-04-19T09:52:23.648Z</time></trkpt><trkpt lat="43.2383867" lon="11.3410667"><ele>210.4</ele><time>2026-04-19T09:52:24.646Z</time></trkpt><trkpt lat="43.238385" lon="11.3409233"><ele>210.2</ele><time>2026-04-19T09:52:25.648Z</time></trkpt><trkpt lat="43.23839" lon="11.340795"><ele>210.0</ele><time>2026-04-19T09:52:26.648Z</time></trkpt><trkpt lat="43.2383983" lon="11.3406817"><ele>210.0</ele><time>2026-04-19T09:52:27.651Z</time></trkpt><trkpt lat="43.23842" lon="11.3405867"><ele>210.0</ele><time>2026-04-19T09:52:28.647Z</time></trkpt><trkpt lat="43.2384633" lon="11.3405233"><ele>210.0</ele><time>2026-04-19T09:52:29.649Z</time></trkpt><trkpt lat="43.2385267" lon="11.3404867"><ele>210.0</ele><time>2026-04-19T09:52:30.651Z</time></trkpt><trkpt lat="43.2386033" lon="11.34045"><ele>210.0</ele><time>2026-04-19T09:52:31.65Z</time></trkpt><trkpt lat="43.2386867" lon="11.34041"><ele>210.0</ele><time>2026-04-19T09:52:32.646Z</time></trkpt><trkpt lat="43.23877" lon="11.340345"><ele>209.25</ele><time>2026-04-19T09:52:33.646Z</time></trkpt><trkpt lat="43.2388583" lon="11.34027"><ele>208.5</ele><time>2026-04-19T09:52:34.649Z</time></trkpt><trkpt lat="43.2389617" lon="11.3401683"><ele>207.75</ele><time>2026-04-19T09:52:35.657Z</time></trkpt><trkpt lat="43.2390767" lon="11.3400617"><ele>207.0</ele><time>2026-04-19T09:52:36.647Z</time></trkpt><trkpt lat="43.23921" lon="11.3399533"><ele>207.0</ele><time>2026-04-19T09:52:37.647Z</time></trkpt><trkpt lat="43.239345" lon="11.3398567"><ele>207.0</ele><time>2026-04-19T09:52:38.65Z</time></trkpt><trkpt lat="43.23948" lon="11.3397567"><ele>207.0</ele><time>2026-04-19T09:52:39.642Z</time></trkpt><trkpt lat="43.2396183" lon="11.3396533"><ele>205.33333333333331</ele><time>2026-04-19T09:52:40.651Z</time></trkpt><trkpt lat="43.2397583" lon="11.3395483"><ele>203.66666666666666</ele><time>2026-04-19T09:52:41.657Z</time></trkpt><trkpt lat="43.2398983" lon="11.3394467"><ele>202.0</ele><time>2026-04-19T09:52:42.654Z</time></trkpt><trkpt lat="43.2400383" lon="11.3393517"><ele>202.0</ele><time>2026-04-19T09:52:43.646Z</time></trkpt><trkpt lat="43.2401717" lon="11.3392717"><ele>202.0</ele><time>2026-04-19T09:52:44.646Z</time></trkpt><trkpt lat="43.24029" lon="11.3392117"><ele>202.0</ele><time>2026-04-19T09:52:45.646Z</time></trkpt><trkpt lat="43.2404033" lon="11.3391583"><ele>202.0</ele><time>2026-04-19T09:52:46.651Z</time></trkpt><trkpt lat="43.24047" lon="11.339105"><ele>202.0</ele><time>2026-04-19T09:52:47.647Z</time></trkpt><trkpt lat="43.2404917" lon="11.338975"><ele>202.0</ele><time>2026-04-19T09:52:49.651Z</time></trkpt><trkpt lat="43.2404417" lon="11.338885"><ele>202.0</ele><time>2026-04-19T09:52:50.642Z</time></trkpt><trkpt lat="43.2403917" lon="11.33879"><ele>202.0</ele><time>2026-04-19T09:52:51.642Z</time></trkpt><trkpt lat="43.2403517" lon="11.33868"><ele>202.0</ele><time>2026-04-19T09:52:52.643Z</time></trkpt><trkpt lat="43.240315" lon="11.338555"><ele>201.0</ele><time>2026-04-19T09:52:53.644Z</time></trkpt><trkpt lat="43.240285" lon="11.3384017"><ele>200.0</ele><time>2026-04-19T09:52:54.647Z</time></trkpt><trkpt lat="43.2402533" lon="11.3382533"><ele>199.0</ele><time>2026-04-19T09:52:55.65Z</time></trkpt><trkpt lat="43.24022" lon="11.3381017"><ele>198.0</ele><time>2026-04-19T09:52:56.652Z</time></trkpt><trkpt lat="43.2401833" lon="11.3379583"><ele>198.0</ele><time>2026-04-19T09:52:57.65Z</time></trkpt><trkpt lat="43.2401467" lon="11.3378233"><ele>198.0</ele><time>2026-04-19T09:52:58.651Z</time></trkpt><trkpt lat="43.2401217" lon="11.3376983"><ele>198.0</ele><time>2026-04-19T09:52:59.643Z</time></trkpt><trkpt lat="43.2401017" lon="11.3375967"><ele>198.0</ele><time>2026-04-19T09:53:00.671Z</time></trkpt><trkpt lat="43.2400817" lon="11.3375117"><ele>198.0</ele><time>2026-04-19T09:53:01.645Z</time></trkpt><trkpt lat="43.2400283" lon="11.3374083"><ele>198.0</ele><time>2026-04-19T09:53:03.643Z</time></trkpt><trkpt lat="43.23995" lon="11.337415"><ele>198.0</ele><time>2026-04-19T09:53:05.652Z</time></trkpt><trkpt lat="43.2398767" lon="11.3375"><ele>198.0</ele><time>2026-04-19T09:53:07.651Z</time></trkpt><trkpt lat="43.23978" lon="11.3375883"><ele>198.0</ele><time>2026-04-19T09:53:09.654Z</time></trkpt><trkpt lat="43.239645" lon="11.3376"><ele>198.0</ele><time>2026-04-19T09:53:11.646Z</time></trkpt><trkpt lat="43.23956" lon="11.3375833"><ele>198.0</ele><time>2026-04-19T09:53:12.659Z</time></trkpt><trkpt lat="43.2394783" lon="11.33757"><ele>199.8</ele><time>2026-04-19T09:53:13.646Z</time></trkpt><trkpt lat="43.2393883" lon="11.3375533"><ele>201.60000000000002</ele><time>2026-04-19T09:53:14.646Z</time></trkpt><trkpt lat="43.239285" lon="11.3375333"><ele>203.39999999999998</ele><time>2026-04-19T09:53:15.647Z</time></trkpt><trkpt lat="43.23919" lon="11.3375017"><ele>205.2</ele><time>2026-04-19T09:53:16.649Z</time></trkpt><trkpt lat="43.2391067" lon="11.3374633"><ele>207.0</ele><time>2026-04-19T09:53:17.645Z</time></trkpt><trkpt lat="43.2390183" lon="11.33742"><ele>208.25</ele><time>2026-04-19T09:53:18.652Z</time></trkpt><trkpt lat="43.2389017" lon="11.337375"><ele>209.5</ele><time>2026-04-19T09:53:19.653Z</time></trkpt><trkpt lat="43.238775" lon="11.3373317"><ele>210.75</ele><time>2026-04-19T09:53:20.653Z</time></trkpt><trkpt lat="43.2386533" lon="11.3372883"><ele>212.0</ele><time>2026-04-19T09:53:21.645Z</time></trkpt><trkpt lat="43.2385283" lon="11.3372433"><ele>212.25</ele><time>2026-04-19T09:53:22.644Z</time></trkpt><trkpt lat="43.2383933" lon="11.3371917"><ele>212.5</ele><time>2026-04-19T09:53:23.646Z</time></trkpt><trkpt lat="43.2382483" lon="11.3371417"><ele>212.75</ele><time>2026-04-19T09:53:24.647Z</time></trkpt><trkpt lat="43.2381017" lon="11.3370867"><ele>213.0</ele><time>2026-04-19T09:53:25.649Z</time></trkpt><trkpt lat="43.23795" lon="11.3370267"><ele>215.5</ele><time>2026-04-19T09:53:26.65Z</time></trkpt><trkpt lat="43.2378" lon="11.3369717"><ele>218.0</ele><time>2026-04-19T09:53:27.652Z</time></trkpt><trkpt lat="43.2376567" lon="11.33692"><ele>220.5</ele><time>2026-04-19T09:53:28.647Z</time></trkpt><trkpt lat="43.2375217" lon="11.3368717"><ele>223.0</ele><time>2026-04-19T09:53:29.649Z</time></trkpt><trkpt lat="43.2373933" lon="11.3368133"><ele>224.33333333333331</ele><time>2026-04-19T09:53:30.656Z</time></trkpt><trkpt lat="43.2372617" lon="11.3367367"><ele>225.66666666666669</ele><time>2026-04-19T09:53:31.644Z</time></trkpt><trkpt lat="43.237115" lon="11.3366367"><ele>227.0</ele><time>2026-04-19T09:53:32.649Z</time></trkpt><trkpt lat="43.2369617" lon="11.33652"><ele>227.0</ele><time>2026-04-19T09:53:33.658Z</time></trkpt><trkpt lat="43.236795" lon="11.3363917"><ele>227.0</ele><time>2026-04-19T09:53:34.65Z</time></trkpt><trkpt lat="43.23663" lon="11.3362567"><ele>227.0</ele><time>2026-04-19T09:53:35.657Z</time></trkpt><trkpt lat="43.236475" lon="11.33613"><ele>229.66666666666669</ele><time>2026-04-19T09:53:36.647Z</time></trkpt><trkpt lat="43.236335" lon="11.3360183"><ele>232.33333333333331</ele><time>2026-04-19T09:53:37.652Z</time></trkpt><trkpt lat="43.2361983" lon="11.3358967"><ele>235.0</ele><time>2026-04-19T09:53:38.649Z</time></trkpt><trkpt lat="43.2360667" lon="11.3357583"><ele>235.0</ele><time>2026-04-19T09:53:39.644Z</time></trkpt><trkpt lat="43.2359433" lon="11.3355983"><ele>235.0</ele><time>2026-04-19T09:53:40.644Z</time></trkpt><trkpt lat="43.2358217" lon="11.335425"><ele>235.0</ele><time>2026-04-19T09:53:41.652Z</time></trkpt><trkpt lat="43.2356967" lon="11.3352517"><ele>237.0</ele><time>2026-04-19T09:53:42.646Z</time></trkpt><trkpt lat="43.2355667" lon="11.3350867"><ele>239.0</ele><time>2026-04-19T09:53:43.65Z</time></trkpt><trkpt lat="43.2354467" lon="11.3349317"><ele>241.0</ele><time>2026-04-19T09:53:44.648Z</time></trkpt><trkpt lat="43.235325" lon="11.3347867"><ele>241.33333333333331</ele><time>2026-04-19T09:53:45.649Z</time></trkpt><trkpt lat="43.2352017" lon="11.3346433"><ele>241.66666666666669</ele><time>2026-04-19T09:53:46.65Z</time></trkpt><trkpt lat="43.2350767" lon="11.3344883"><ele>242.0</ele><time>2026-04-19T09:53:47.649Z</time></trkpt><trkpt lat="43.2349533" lon="11.3343267"><ele>242.0</ele><time>2026-04-19T09:53:48.65Z</time></trkpt><trkpt lat="43.2348433" lon="11.3341717"><ele>242.0</ele><time>2026-04-19T09:53:49.654Z</time></trkpt><trkpt lat="43.2347367" lon="11.33402"><ele>242.0</ele><time>2026-04-19T09:53:50.653Z</time></trkpt><trkpt lat="43.2346317" lon="11.333865"><ele>243.33333333333334</ele><time>2026-04-19T09:53:51.656Z</time></trkpt><trkpt lat="43.23453" lon="11.3336983"><ele>244.66666666666669</ele><time>2026-04-19T09:53:52.657Z</time></trkpt><trkpt lat="43.2344333" lon="11.3335233"><ele>246.0</ele><time>2026-04-19T09:53:53.656Z</time></trkpt><trkpt lat="43.2343483" lon="11.3333417"><ele>246.0</ele><time>2026-04-19T09:53:54.654Z</time></trkpt><trkpt lat="43.2342683" lon="11.3331667"><ele>246.0</ele><time>2026-04-19T09:53:55.651Z</time></trkpt><trkpt lat="43.2341917" lon="11.3329917"><ele>246.0</ele><time>2026-04-19T09:53:56.654Z</time></trkpt><trkpt lat="43.2341167" lon="11.3328117"><ele>245.66666666666669</ele><time>2026-04-19T09:53:57.646Z</time></trkpt><trkpt lat="43.2340417" lon="11.3326233"><ele>245.33333333333334</ele><time>2026-04-19T09:53:58.653Z</time></trkpt><trkpt lat="43.2339467" lon="11.3324233"><ele>245.0</ele><time>2026-04-19T09:53:59.654Z</time></trkpt><trkpt lat="43.2338367" lon="11.3322217"><ele>246.0</ele><time>2026-04-19T09:54:00.651Z</time></trkpt><trkpt lat="43.2337167" lon="11.33203"><ele>247.0</ele><time>2026-04-19T09:54:01.649Z</time></trkpt><trkpt lat="43.23359" lon="11.3318483"><ele>248.0</ele><time>2026-04-19T09:54:02.645Z</time></trkpt><trkpt lat="43.23345" lon="11.3316833"><ele>248.0</ele><time>2026-04-19T09:54:03.657Z</time></trkpt><trkpt lat="43.2333183" lon="11.331525"><ele>248.0</ele><time>2026-04-19T09:54:04.651Z</time></trkpt><trkpt lat="43.23319" lon="11.3313867"><ele>248.0</ele><time>2026-04-19T09:54:05.646Z</time></trkpt><trkpt lat="43.2330617" lon="11.3312583"><ele>251.25</ele><time>2026-04-19T09:54:06.651Z</time></trkpt><trkpt lat="43.232935" lon="11.3311533"><ele>254.5</ele><time>2026-04-19T09:54:07.652Z</time></trkpt><trkpt lat="43.23281" lon="11.3310667"><ele>257.75</ele><time>2026-04-19T09:54:08.644Z</time></trkpt><trkpt lat="43.23269" lon="11.33101"><ele>261.0</ele><time>2026-04-19T09:54:09.654Z</time></trkpt><trkpt lat="43.2325717" lon="11.3309533"><ele>261.0</ele><time>2026-04-19T09:54:10.646Z</time></trkpt><trkpt lat="43.2324667" lon="11.3309"><ele>261.0</ele><time>2026-04-19T09:54:11.653Z</time></trkpt><trkpt lat="43.2323567" lon="11.3308467"><ele>261.0</ele><time>2026-04-19T09:54:12.65Z</time></trkpt><trkpt lat="43.2322467" lon="11.3307883"><ele>261.0</ele><time>2026-04-19T09:54:13.649Z</time></trkpt><trkpt lat="43.2321433" lon="11.3307283"><ele>263.0</ele><time>2026-04-19T09:54:14.647Z</time></trkpt><trkpt lat="43.2320417" lon="11.3306733"><ele>265.0</ele><time>2026-04-19T09:54:15.651Z</time></trkpt><trkpt lat="43.2319333" lon="11.33063"><ele>267.0</ele><time>2026-04-19T09:54:16.654Z</time></trkpt><trkpt lat="43.2318417" lon="11.3305917"><ele>269.0</ele><time>2026-04-19T09:54:17.654Z</time></trkpt><trkpt lat="43.2317633" lon="11.3305467"><ele>271.0</ele><time>2026-04-19T09:54:18.644Z</time></trkpt><trkpt lat="43.2317217" lon="11.33048"><ele>271.0</ele><time>2026-04-19T09:54:19.649Z</time></trkpt><trkpt lat="43.2316833" lon="11.3304017"><ele>271.0</ele><time>2026-04-19T09:54:20.655Z</time></trkpt><trkpt lat="43.23165" lon="11.3303217"><ele>271.0</ele><time>2026-04-19T09:54:21.645Z</time></trkpt><trkpt lat="43.2316033" lon="11.330245"><ele>271.0</ele><time>2026-04-19T09:54:22.648Z</time></trkpt><trkpt lat="43.23154" lon="11.33017"><ele>271.0</ele><time>2026-04-19T09:54:23.655Z</time></trkpt><trkpt lat="43.2314767" lon="11.33008"><ele>271.0</ele><time>2026-04-19T09:54:24.649Z</time></trkpt><trkpt lat="43.2314133" lon="11.3299817"><ele>270.6</ele><time>2026-04-19T09:54:25.651Z</time></trkpt><trkpt lat="43.2313517" lon="11.3298867"><ele>270.20000000000005</ele><time>2026-04-19T09:54:26.651Z</time></trkpt><trkpt lat="43.2312667" lon="11.329795"><ele>269.79999999999995</ele><time>2026-04-19T09:54:27.651Z</time></trkpt><trkpt lat="43.2311867" lon="11.3296983"><ele>269.4</ele><time>2026-04-19T09:54:28.649Z</time></trkpt><trkpt lat="43.23111" lon="11.329595"><ele>269.0</ele><time>2026-04-19T09:54:29.643Z</time></trkpt><trkpt lat="43.231045" lon="11.3295017"><ele>269.83333333333337</ele><time>2026-04-19T09:54:30.645Z</time></trkpt><trkpt lat="43.230965" lon="11.329445"><ele>270.6666666666667</ele><time>2026-04-19T09:54:31.648Z</time></trkpt><trkpt lat="43.2309033" lon="11.3293833"><ele>271.5</ele><time>2026-04-19T09:54:32.647Z</time></trkpt><trkpt lat="43.2308467" lon="11.3293083"><ele>272.3333333333333</ele><time>2026-04-19T09:54:33.653Z</time></trkpt><trkpt lat="43.23079" lon="11.3292217"><ele>273.16666666666663</ele><time>2026-04-19T09:54:34.643Z</time></trkpt><trkpt lat="43.23073" lon="11.329145"><ele>274.0</ele><time>2026-04-19T09:54:35.652Z</time></trkpt><trkpt lat="43.2306767" lon="11.3290733"><ele>273.8571428571429</ele><time>2026-04-19T09:54:36.651Z</time></trkpt><trkpt lat="43.2306267" lon="11.32901"><ele>273.7142857142857</ele><time>2026-04-19T09:54:37.651Z</time></trkpt><trkpt lat="43.2305833" lon="11.3289417"><ele>273.57142857142856</ele><time>2026-04-19T09:54:38.651Z</time></trkpt><trkpt lat="43.2305317" lon="11.32887"><ele>273.42857142857144</ele><time>2026-04-19T09:54:39.65Z</time></trkpt><trkpt lat="43.2304767" lon="11.3287967"><ele>273.2857142857143</ele><time>2026-04-19T09:54:40.644Z</time></trkpt><trkpt lat="43.2304217" lon="11.3287217"><ele>273.14285714285717</ele><time>2026-04-19T09:54:41.652Z</time></trkpt><trkpt lat="43.2303567" lon="11.32865"><ele>273.0</ele><time>2026-04-19T09:54:42.649Z</time></trkpt><trkpt lat="43.23029" lon="11.3285717"><ele>273.8333333333333</ele><time>2026-04-19T09:54:43.65Z</time></trkpt><trkpt lat="43.2302267" lon="11.3284967"><ele>274.6666666666667</ele><time>2026-04-19T09:54:44.648Z</time></trkpt><trkpt lat="43.2301617" lon="11.3284217"><ele>275.5</ele><time>2026-04-19T09:54:45.654Z</time></trkpt><trkpt lat="43.230095" lon="11.3283483"><ele>276.33333333333337</ele><time>2026-04-19T09:54:46.651Z</time></trkpt><trkpt lat="43.2300283" lon="11.328275"><ele>277.1666666666667</ele><time>2026-04-19T09:54:47.651Z</time></trkpt><trkpt lat="43.2299667" lon="11.328205"><ele>278.0</ele><time>2026-04-19T09:54:48.65Z</time></trkpt><trkpt lat="43.2299" lon="11.32813"><ele>278.33333333333337</ele><time>2026-04-19T09:54:49.647Z</time></trkpt><trkpt lat="43.2298367" lon="11.3280517"><ele>278.6666666666667</ele><time>2026-04-19T09:54:50.652Z</time></trkpt><trkpt lat="43.2297767" lon="11.3279683"><ele>279.0</ele><time>2026-04-19T09:54:51.649Z</time></trkpt><trkpt lat="43.229715" lon="11.3278783"><ele>279.3333333333333</ele><time>2026-04-19T09:54:52.648Z</time></trkpt><trkpt lat="43.2296567" lon="11.3277933"><ele>279.66666666666663</ele><time>2026-04-19T09:54:53.645Z</time></trkpt><trkpt lat="43.2296017" lon="11.3277067"><ele>280.0</ele><time>2026-04-19T09:54:54.649Z</time></trkpt><trkpt lat="43.22955" lon="11.32762"><ele>281.0</ele><time>2026-04-19T09:54:55.648Z</time></trkpt><trkpt lat="43.2295033" lon="11.327525"><ele>282.0</ele><time>2026-04-19T09:54:56.653Z</time></trkpt><trkpt lat="43.2294533" lon="11.3274383"><ele>283.0</ele><time>2026-04-19T09:54:57.647Z</time></trkpt><trkpt lat="43.2294083" lon="11.3273683"><ele>284.0</ele><time>2026-04-19T09:54:58.642Z</time></trkpt><trkpt lat="43.2293667" lon="11.3272967"><ele>285.0</ele><time>2026-04-19T09:54:59.652Z</time></trkpt><trkpt lat="43.229315" lon="11.327225"><ele>286.0</ele><time>2026-04-19T09:55:00.645Z</time></trkpt><trkpt lat="43.2292617" lon="11.3271583"><ele>287.0</ele><time>2026-04-19T09:55:01.647Z</time></trkpt><trkpt lat="43.2292017" lon="11.32709"><ele>287.0</ele><time>2026-04-19T09:55:02.65Z</time></trkpt><trkpt lat="43.2291267" lon="11.3270233"><ele>287.0</ele><time>2026-04-19T09:55:03.65Z</time></trkpt><trkpt lat="43.2290483" lon="11.3269583"><ele>287.0</ele><time>2026-04-19T09:55:04.648Z</time></trkpt><trkpt lat="43.2289683" lon="11.3269033"><ele>287.0</ele><time>2026-04-19T09:55:05.654Z</time></trkpt><trkpt lat="43.2288933" lon="11.3268483"><ele>287.0</ele><time>2026-04-19T09:55:06.652Z</time></trkpt><trkpt lat="43.2288183" lon="11.3267967"><ele>287.0</ele><time>2026-04-19T09:55:07.651Z</time></trkpt><trkpt lat="43.228745" lon="11.3267583"><ele>288.0</ele><time>2026-04-19T09:55:08.648Z</time></trkpt><trkpt lat="43.228675" lon="11.326715"><ele>289.0</ele><time>2026-04-19T09:55:09.646Z</time></trkpt><trkpt lat="43.2285967" lon="11.3266667"><ele>290.0</ele><time>2026-04-19T09:55:10.647Z</time></trkpt><trkpt lat="43.22852" lon="11.3266083"><ele>291.0</ele><time>2026-04-19T09:55:11.657Z</time></trkpt><trkpt lat="43.2284467" lon="11.3265417"><ele>292.0</ele><time>2026-04-19T09:55:12.648Z</time></trkpt><trkpt lat="43.2283783" lon="11.326465"><ele>293.0</ele><time>2026-04-19T09:55:13.648Z</time></trkpt><trkpt lat="43.2283133" lon="11.3263733"><ele>293.0</ele><time>2026-04-19T09:55:14.651Z</time></trkpt><trkpt lat="43.2282467" lon="11.3262833"><ele>293.0</ele><time>2026-04-19T09:55:15.652Z</time></trkpt><trkpt lat="43.2281717" lon="11.3261867"><ele>293.0</ele><time>2026-04-19T09:55:16.649Z</time></trkpt><trkpt lat="43.22809" lon="11.3260783"><ele>293.0</ele><time>2026-04-19T09:55:17.649Z</time></trkpt><trkpt lat="43.2280017" lon="11.325975"><ele>293.0</ele><time>2026-04-19T09:55:18.652Z</time></trkpt><trkpt lat="43.2279067" lon="11.32588"><ele>293.25</ele><time>2026-04-19T09:55:19.647Z</time></trkpt><trkpt lat="43.2278067" lon="11.3257867"><ele>293.5</ele><time>2026-04-19T09:55:20.646Z</time></trkpt><trkpt lat="43.2277017" lon="11.325685"><ele>293.75</ele><time>2026-04-19T09:55:21.646Z</time></trkpt><trkpt lat="43.2276" lon="11.325585"><ele>294.0</ele><time>2026-04-19T09:55:22.648Z</time></trkpt><trkpt lat="43.2274983" lon="11.3254833"><ele>294.0</ele><time>2026-04-19T09:55:23.651Z</time></trkpt><trkpt lat="43.227395" lon="11.32538"><ele>294.0</ele><time>2026-04-19T09:55:24.649Z</time></trkpt><trkpt lat="43.2272933" lon="11.3252767"><ele>294.0</ele><time>2026-04-19T09:55:25.653Z</time></trkpt><trkpt lat="43.2271867" lon="11.3251667"><ele>294.0</ele><time>2026-04-19T09:55:26.649Z</time></trkpt><trkpt lat="43.22708" lon="11.3250583"><ele>295.5</ele><time>2026-04-19T09:55:27.654Z</time></trkpt><trkpt lat="43.226975" lon="11.3249533"><ele>297.0</ele><time>2026-04-19T09:55:28.656Z</time></trkpt><trkpt lat="43.22687" lon="11.324845"><ele>298.5</ele><time>2026-04-19T09:55:29.647Z</time></trkpt><trkpt lat="43.226765" lon="11.32474"><ele>300.0</ele><time>2026-04-19T09:55:30.645Z</time></trkpt><trkpt lat="43.226675" lon="11.3246533"><ele>300.0</ele><time>2026-04-19T09:55:31.65Z</time></trkpt><trkpt lat="43.2265883" lon="11.324585"><ele>300.0</ele><time>2026-04-19T09:55:32.648Z</time></trkpt><trkpt lat="43.22653" lon="11.3245467"><ele>300.0</ele><time>2026-04-19T09:55:33.649Z</time></trkpt><trkpt lat="43.226475" lon="11.3245033"><ele>300.0</ele><time>2026-04-19T09:55:36.65Z</time></trkpt><trkpt lat="43.2264233" lon="11.3244467"><ele>300.0</ele><time>2026-04-19T09:55:38.653Z</time></trkpt><trkpt lat="43.2263233" lon="11.3243817"><ele>300.0</ele><time>2026-04-19T09:55:40.647Z</time></trkpt><trkpt lat="43.2262017" lon="11.324295"><ele>301.8</ele><time>2026-04-19T09:55:42.65Z</time></trkpt><trkpt lat="43.2261233" lon="11.32423"><ele>303.6</ele><time>2026-04-19T09:55:43.651Z</time></trkpt><trkpt lat="43.226035" lon="11.32415"><ele>305.4</ele><time>2026-04-19T09:55:44.652Z</time></trkpt><trkpt lat="43.225955" lon="11.3240717"><ele>307.2</ele><time>2026-04-19T09:55:45.652Z</time></trkpt><trkpt lat="43.2258733" lon="11.3239983"><ele>309.0</ele><time>2026-04-19T09:55:46.645Z</time></trkpt><trkpt lat="43.225795" lon="11.3239333"><ele>310.4</ele><time>2026-04-19T09:55:47.654Z</time></trkpt><trkpt lat="43.22571" lon="11.3238717"><ele>311.79999999999995</ele><time>2026-04-19T09:55:48.652Z</time></trkpt><trkpt lat="43.2256117" lon="11.3237967"><ele>313.20000000000005</ele><time>2026-04-19T09:55:49.646Z</time></trkpt><trkpt lat="43.2255183" lon="11.3237167"><ele>314.6</ele><time>2026-04-19T09:55:50.646Z</time></trkpt><trkpt lat="43.225425" lon="11.3236267"><ele>316.0</ele><time>2026-04-19T09:55:51.649Z</time></trkpt><trkpt lat="43.2253333" lon="11.3235317"><ele>317.20000000000005</ele><time>2026-04-19T09:55:52.649Z</time></trkpt><trkpt lat="43.2252467" lon="11.323435"><ele>318.40000000000003</ele><time>2026-04-19T09:55:53.649Z</time></trkpt><trkpt lat="43.2251667" lon="11.32334"><ele>319.6</ele><time>2026-04-19T09:55:54.656Z</time></trkpt><trkpt lat="43.2250817" lon="11.3232583"><ele>320.8</ele><time>2026-04-19T09:55:55.651Z</time></trkpt><trkpt lat="43.2249933" lon="11.3231967"><ele>322.0</ele><time>2026-04-19T09:55:56.653Z</time></trkpt><trkpt lat="43.224905" lon="11.3231433"><ele>322.0</ele><time>2026-04-19T09:55:57.652Z</time></trkpt><trkpt lat="43.2248233" lon="11.3231033"><ele>322.0</ele><time>2026-04-19T09:55:58.643Z</time></trkpt><trkpt lat="43.22472" lon="11.323075"><ele>322.0</ele><time>2026-04-19T09:55:59.648Z</time></trkpt><trkpt lat="43.2245983" lon="11.32308"><ele>322.0</ele><time>2026-04-19T09:56:00.646Z</time></trkpt><trkpt lat="43.2244783" lon="11.3231083"><ele>322.0</ele><time>2026-04-19T09:56:01.648Z</time></trkpt><trkpt lat="43.2243633" lon="11.3231333"><ele>321.5</ele><time>2026-04-19T09:56:02.648Z</time></trkpt><trkpt lat="43.22423" lon="11.32318"><ele>321.0</ele><time>2026-04-19T09:56:03.651Z</time></trkpt><trkpt lat="43.224095" lon="11.3232367"><ele>320.5</ele><time>2026-04-19T09:56:04.652Z</time></trkpt><trkpt lat="43.2239417" lon="11.3232983"><ele>320.0</ele><time>2026-04-19T09:56:05.652Z</time></trkpt><trkpt lat="43.2238" lon="11.32333"><ele>321.5</ele><time>2026-04-19T09:56:06.647Z</time></trkpt><trkpt lat="43.223665" lon="11.32336"><ele>323.0</ele><time>2026-04-19T09:56:07.65Z</time></trkpt><trkpt lat="43.2235467" lon="11.32338"><ele>324.5</ele><time>2026-04-19T09:56:08.653Z</time></trkpt><trkpt lat="43.2234367" lon="11.32339"><ele>326.0</ele><time>2026-04-19T09:56:09.648Z</time></trkpt><trkpt lat="43.2233217" lon="11.3234017"><ele>326.0</ele><time>2026-04-19T09:56:10.646Z</time></trkpt><trkpt lat="43.2232033" lon="11.3234117"><ele>326.0</ele><time>2026-04-19T09:56:11.652Z</time></trkpt><trkpt lat="43.223095" lon="11.323415"><ele>326.0</ele><time>2026-04-19T09:56:12.647Z</time></trkpt><trkpt lat="43.2229883" lon="11.3234117"><ele>326.0</ele><time>2026-04-19T09:56:13.648Z</time></trkpt><trkpt lat="43.2228767" lon="11.3234133"><ele>326.0</ele><time>2026-04-19T09:56:14.651Z</time></trkpt><trkpt lat="43.2227667" lon="11.323415"><ele>326.20000000000005</ele><time>2026-04-19T09:56:15.646Z</time></trkpt><trkpt lat="43.2226617" lon="11.32342"><ele>326.40000000000003</ele><time>2026-04-19T09:56:16.651Z</time></trkpt><trkpt lat="43.2225767" lon="11.3234317"><ele>326.6</ele><time>2026-04-19T09:56:17.651Z</time></trkpt><trkpt lat="43.2224917" lon="11.3234483"><ele>326.8</ele><time>2026-04-19T09:56:18.651Z</time></trkpt><trkpt lat="43.2224" lon="11.3234783"><ele>327.0</ele><time>2026-04-19T09:56:19.645Z</time></trkpt><trkpt lat="43.2223017" lon="11.3235033"><ele>328.0</ele><time>2026-04-19T09:56:20.654Z</time></trkpt><trkpt lat="43.2221917" lon="11.3235133"><ele>329.0</ele><time>2026-04-19T09:56:21.647Z</time></trkpt><trkpt lat="43.2220783" lon="11.323505"><ele>330.0</ele><time>2026-04-19T09:56:22.649Z</time></trkpt><trkpt lat="43.2219533" lon="11.323475"><ele>331.0</ele><time>2026-04-19T09:56:23.653Z</time></trkpt><trkpt lat="43.221815" lon="11.3234133"><ele>331.0</ele><time>2026-04-19T09:56:24.65Z</time></trkpt><trkpt lat="43.2216783" lon="11.3233217"><ele>331.0</ele><time>2026-04-19T09:56:25.645Z</time></trkpt><trkpt lat="43.2215633" lon="11.32321"><ele>331.0</ele><time>2026-04-19T09:56:26.644Z</time></trkpt><trkpt lat="43.221475" lon="11.3230867"><ele>331.0</ele><time>2026-04-19T09:56:27.648Z</time></trkpt><trkpt lat="43.2213933" lon="11.3229683"><ele>329.8</ele><time>2026-04-19T09:56:28.644Z</time></trkpt><trkpt lat="43.2213067" lon="11.3228567"><ele>328.6</ele><time>2026-04-19T09:56:29.655Z</time></trkpt><trkpt lat="43.2212233" lon="11.3227717"><ele>327.4</ele><time>2026-04-19T09:56:30.645Z</time></trkpt><trkpt lat="43.2211333" lon="11.3226917"><ele>326.2</ele><time>2026-04-19T09:56:31.651Z</time></trkpt><trkpt lat="43.2210333" lon="11.3226333"><ele>325.0</ele><time>2026-04-19T09:56:32.655Z</time></trkpt><trkpt lat="43.22094" lon="11.3226267"><ele>325.0</ele><time>2026-04-19T09:56:33.646Z</time></trkpt><trkpt lat="43.2208617" lon="11.322645"><ele>325.0</ele><time>2026-04-19T09:56:34.647Z</time></trkpt><trkpt lat="43.2207967" lon="11.3226817"><ele>325.0</ele><time>2026-04-19T09:56:35.645Z</time></trkpt><trkpt lat="43.2207517" lon="11.32278"><ele>325.0</ele><time>2026-04-19T09:56:36.646Z</time></trkpt><trkpt lat="43.22071" lon="11.3229017"><ele>325.0</ele><time>2026-04-19T09:56:37.643Z</time></trkpt><trkpt lat="43.220655" lon="11.322985"><ele>325.0</ele><time>2026-04-19T09:56:38.648Z</time></trkpt><trkpt lat="43.22059" lon="11.3230733"><ele>326.6</ele><time>2026-04-19T09:56:39.649Z</time></trkpt><trkpt lat="43.2205333" lon="11.3231483"><ele>328.2</ele><time>2026-04-19T09:56:40.645Z</time></trkpt><trkpt lat="43.220435" lon="11.3232233"><ele>329.79999999999995</ele><time>2026-04-19T09:56:42.651Z</time></trkpt><trkpt lat="43.2203317" lon="11.3232"><ele>331.4</ele><time>2026-04-19T09:56:44.648Z</time></trkpt><trkpt lat="43.2202483" lon="11.3230983"><ele>333.0</ele><time>2026-04-19T09:56:46.654Z</time></trkpt><trkpt lat="43.2202" lon="11.3229633"><ele>333.0</ele><time>2026-04-19T09:56:48.648Z</time></trkpt><trkpt lat="43.2201483" lon="11.3228867"><ele>333.0</ele><time>2026-04-19T09:56:50.649Z</time></trkpt><trkpt lat="43.2200767" lon="11.3229433"><ele>333.0</ele><time>2026-04-19T09:56:55.651Z</time></trkpt><trkpt lat="43.2200317" lon="11.3230167"><ele>333.0</ele><time>2026-04-19T09:56:56.646Z</time></trkpt><trkpt lat="43.2199817" lon="11.3231083"><ele>333.0</ele><time>2026-04-19T09:56:57.652Z</time></trkpt><trkpt lat="43.2199183" lon="11.323195"><ele>333.0</ele><time>2026-04-19T09:56:58.647Z</time></trkpt><trkpt lat="43.21986" lon="11.3232867"><ele>334.4</ele><time>2026-04-19T09:56:59.645Z</time></trkpt><trkpt lat="43.2197917" lon="11.3233717"><ele>335.79999999999995</ele><time>2026-04-19T09:57:00.651Z</time></trkpt><trkpt lat="43.21971" lon="11.32346"><ele>337.2</ele><time>2026-04-19T09:57:01.646Z</time></trkpt><trkpt lat="43.219605" lon="11.3235517"><ele>338.6</ele><time>2026-04-19T09:57:02.645Z</time></trkpt><trkpt lat="43.219515" lon="11.3236333"><ele>340.0</ele><time>2026-04-19T09:57:03.65Z</time></trkpt><trkpt lat="43.2194233" lon="11.3237083"><ele>340.0</ele><time>2026-04-19T09:57:04.65Z</time></trkpt><trkpt lat="43.2193383" lon="11.3237833"><ele>340.0</ele><time>2026-04-19T09:57:05.645Z</time></trkpt><trkpt lat="43.2192567" lon="11.3238533"><ele>340.0</ele><time>2026-04-19T09:57:06.64Z</time></trkpt><trkpt lat="43.2191717" lon="11.323925"><ele>340.0</ele><time>2026-04-19T09:57:07.646Z</time></trkpt><trkpt lat="43.2190883" lon="11.3239967"><ele>340.0</ele><time>2026-04-19T09:57:08.644Z</time></trkpt><trkpt lat="43.2190017" lon="11.3240833"><ele>339.3333333333333</ele><time>2026-04-19T09:57:09.646Z</time></trkpt><trkpt lat="43.2189367" lon="11.3241767"><ele>338.66666666666663</ele><time>2026-04-19T09:57:10.649Z</time></trkpt><trkpt lat="43.218895" lon="11.3242567"><ele>338.0</ele><time>2026-04-19T09:57:11.646Z</time></trkpt><trkpt lat="43.218835" lon="11.32433"><ele>337.3333333333333</ele><time>2026-04-19T09:57:12.649Z</time></trkpt><trkpt lat="43.2187717" lon="11.324405"><ele>336.6666666666667</ele><time>2026-04-19T09:57:13.646Z</time></trkpt><trkpt lat="43.2187117" lon="11.3244883"><ele>336.0</ele><time>2026-04-19T09:57:14.64Z</time></trkpt><trkpt lat="43.2186733" lon="11.3245733"><ele>336.0</ele><time>2026-04-19T09:57:15.641Z</time></trkpt><trkpt lat="43.2186417" lon="11.3246667"><ele>336.0</ele><time>2026-04-19T09:57:16.645Z</time></trkpt><trkpt lat="43.2186367" lon="11.3248133"><ele>336.0</ele><time>2026-04-19T09:57:18.643Z</time></trkpt><trkpt lat="43.21864" lon="11.3249283"><ele>336.0</ele><time>2026-04-19T09:57:20.65Z</time></trkpt><trkpt lat="43.218585" lon="11.3248483"><ele>336.0</ele><time>2026-04-19T09:57:29.646Z</time></trkpt><trkpt lat="43.2185433" lon="11.3247083"><ele>336.0</ele><time>2026-04-19T09:57:31.654Z</time></trkpt><trkpt lat="43.218525" lon="11.3246033"><ele>336.0</ele><time>2026-04-19T09:57:32.646Z</time></trkpt><trkpt lat="43.218495" lon="11.32451"><ele>336.0</ele><time>2026-04-19T09:57:33.647Z</time></trkpt><trkpt lat="43.2184667" lon="11.3243667"><ele>336.0</ele><time>2026-04-19T09:57:34.643Z</time></trkpt><trkpt lat="43.2184267" lon="11.3242367"><ele>336.0</ele><time>2026-04-19T09:57:35.65Z</time></trkpt><trkpt lat="43.218375" lon="11.3241217"><ele>336.0</ele><time>2026-04-19T09:57:36.646Z</time></trkpt><trkpt lat="43.2183317" lon="11.3240083"><ele>336.0</ele><time>2026-04-19T09:57:37.667Z</time></trkpt><trkpt lat="43.2182883" lon="11.323905"><ele>336.0</ele><time>2026-04-19T09:57:38.646Z</time></trkpt><trkpt lat="43.2182317" lon="11.323815"><ele>336.0</ele><time>2026-04-19T09:57:39.644Z</time></trkpt><trkpt lat="43.218165" lon="11.3237317"><ele>336.0</ele><time>2026-04-19T09:57:40.65Z</time></trkpt><trkpt lat="43.2181017" lon="11.32365"><ele>336.0</ele><time>2026-04-19T09:57:41.654Z</time></trkpt><trkpt lat="43.218035" lon="11.323565"><ele>338.20000000000005</ele><time>2026-04-19T09:57:42.65Z</time></trkpt><trkpt lat="43.2179633" lon="11.32349"><ele>340.40000000000003</ele><time>2026-04-19T09:57:43.649Z</time></trkpt><trkpt lat="43.21787" lon="11.3234333"><ele>342.6</ele><time>2026-04-19T09:57:44.647Z</time></trkpt><trkpt lat="43.217765" lon="11.3233717"><ele>344.8</ele><time>2026-04-19T09:57:45.644Z</time></trkpt><trkpt lat="43.2176433" lon="11.3233"><ele>347.0</ele><time>2026-04-19T09:57:46.648Z</time></trkpt><trkpt lat="43.2175267" lon="11.3232217"><ele>347.0</ele><time>2026-04-19T09:57:47.647Z</time></trkpt><trkpt lat="43.2174167" lon="11.3231467"><ele>347.0</ele><time>2026-04-19T09:57:48.646Z</time></trkpt><trkpt lat="43.2173183" lon="11.3230733"><ele>347.0</ele><time>2026-04-19T09:57:49.65Z</time></trkpt><trkpt lat="43.217245" lon="11.3230033"><ele>347.0</ele><time>2026-04-19T09:57:50.652Z</time></trkpt><trkpt lat="43.21718" lon="11.3229417"><ele>347.0</ele><time>2026-04-19T09:57:51.649Z</time></trkpt><trkpt lat="43.2171217" lon="11.3229"><ele>348.20000000000005</ele><time>2026-04-19T09:57:52.65Z</time></trkpt><trkpt lat="43.217015" lon="11.322835"><ele>349.4</ele><time>2026-04-19T09:57:54.653Z</time></trkpt><trkpt lat="43.2169167" lon="11.32279"><ele>350.6</ele><time>2026-04-19T09:57:56.646Z</time></trkpt><trkpt lat="43.216855" lon="11.322755"><ele>351.79999999999995</ele><time>2026-04-19T09:57:57.647Z</time></trkpt><trkpt lat="43.2167817" lon="11.3227117"><ele>353.0</ele><time>2026-04-19T09:57:58.649Z</time></trkpt><trkpt lat="43.216695" lon="11.3226633"><ele>353.0</ele><time>2026-04-19T09:57:59.65Z</time></trkpt><trkpt lat="43.2165983" lon="11.3226117"><ele>353.0</ele><time>2026-04-19T09:58:00.651Z</time></trkpt><trkpt lat="43.216495" lon="11.3225567"><ele>353.0</ele><time>2026-04-19T09:58:01.647Z</time></trkpt><trkpt lat="43.2163917" lon="11.322495"><ele>353.0</ele><time>2026-04-19T09:58:02.65Z</time></trkpt><trkpt lat="43.2162867" lon="11.32243"><ele>353.0</ele><time>2026-04-19T09:58:03.651Z</time></trkpt><trkpt lat="43.216175" lon="11.322365"><ele>353.75</ele><time>2026-04-19T09:58:04.652Z</time></trkpt><trkpt lat="43.2160617" lon="11.3222933"><ele>354.5</ele><time>2026-04-19T09:58:05.649Z</time></trkpt><trkpt lat="43.2159433" lon="11.32222"><ele>355.25</ele><time>2026-04-19T09:58:06.643Z</time></trkpt><trkpt lat="43.2158167" lon="11.3221433"><ele>356.0</ele><time>2026-04-19T09:58:07.648Z</time></trkpt><trkpt lat="43.21569" lon="11.3220533"><ele>355.25</ele><time>2026-04-19T09:58:08.649Z</time></trkpt><trkpt lat="43.2155583" lon="11.32196"><ele>354.5</ele><time>2026-04-19T09:58:09.647Z</time></trkpt><trkpt lat="43.21543" lon="11.32187"><ele>353.75</ele><time>2026-04-19T09:58:10.65Z</time></trkpt><trkpt lat="43.2152883" lon="11.321785"><ele>353.0</ele><time>2026-04-19T09:58:11.65Z</time></trkpt><trkpt lat="43.215145" lon="11.3217033"><ele>353.0</ele><time>2026-04-19T09:58:12.653Z</time></trkpt><trkpt lat="43.215005" lon="11.32162"><ele>353.0</ele><time>2026-04-19T09:58:13.645Z</time></trkpt><trkpt lat="43.2148617" lon="11.3215333"><ele>353.0</ele><time>2026-04-19T09:58:14.652Z</time></trkpt><trkpt lat="43.2147183" lon="11.3214483"><ele>355.33333333333337</ele><time>2026-04-19T09:58:15.647Z</time></trkpt><trkpt lat="43.2145683" lon="11.3213667"><ele>357.6666666666667</ele><time>2026-04-19T09:58:16.645Z</time></trkpt><trkpt lat="43.2144217" lon="11.321275"><ele>360.0</ele><time>2026-04-19T09:58:17.647Z</time></trkpt><trkpt lat="43.214275" lon="11.321185"><ele>360.0</ele><time>2026-04-19T09:58:18.651Z</time></trkpt><trkpt lat="43.214125" lon="11.321105"><ele>360.0</ele><time>2026-04-19T09:58:19.646Z</time></trkpt><trkpt lat="43.2139767" lon="11.3210167"><ele>360.0</ele><time>2026-04-19T09:58:20.653Z</time></trkpt><trkpt lat="43.21383" lon="11.32093"><ele>359.6666666666667</ele><time>2026-04-19T09:58:21.647Z</time></trkpt><trkpt lat="43.2136767" lon="11.32085"><ele>359.33333333333337</ele><time>2026-04-19T09:58:22.648Z</time></trkpt><trkpt lat="43.2135283" lon="11.3207667"><ele>359.0</ele><time>2026-04-19T09:58:23.655Z</time></trkpt><trkpt lat="43.2133833" lon="11.3206783"><ele>359.0</ele><time>2026-04-19T09:58:24.656Z</time></trkpt><trkpt lat="43.21324" lon="11.3205933"><ele>359.0</ele><time>2026-04-19T09:58:25.654Z</time></trkpt><trkpt lat="43.213095" lon="11.3205017"><ele>359.0</ele><time>2026-04-19T09:58:26.652Z</time></trkpt><trkpt lat="43.2129467" lon="11.32041"><ele>359.6666666666667</ele><time>2026-04-19T09:58:27.644Z</time></trkpt><trkpt lat="43.2127967" lon="11.3203183"><ele>360.3333333333333</ele><time>2026-04-19T09:58:28.647Z</time></trkpt><trkpt lat="43.2126483" lon="11.3202267"><ele>361.0</ele><time>2026-04-19T09:58:29.649Z</time></trkpt><trkpt lat="43.2125033" lon="11.32013"><ele>361.0</ele><time>2026-04-19T09:58:30.648Z</time></trkpt><trkpt lat="43.21235" lon="11.3200267"><ele>361.0</ele><time>2026-04-19T09:58:31.65Z</time></trkpt><trkpt lat="43.2121967" lon="11.319925"><ele>361.0</ele><time>2026-04-19T09:58:32.649Z</time></trkpt><trkpt lat="43.2120433" lon="11.3198267"><ele>359.66666666666663</ele><time>2026-04-19T09:58:33.654Z</time></trkpt><trkpt lat="43.2118933" lon="11.3197283"><ele>358.3333333333333</ele><time>2026-04-19T09:58:34.642Z</time></trkpt><trkpt lat="43.2117567" lon="11.319635"><ele>357.0</ele><time>2026-04-19T09:58:35.649Z</time></trkpt><trkpt lat="43.211625" lon="11.3195417"><ele>357.0</ele><time>2026-04-19T09:58:36.646Z</time></trkpt><trkpt lat="43.2115033" lon="11.3194467"><ele>357.0</ele><time>2026-04-19T09:58:37.647Z</time></trkpt><trkpt lat="43.2113983" lon="11.31934"><ele>357.0</ele><time>2026-04-19T09:58:38.651Z</time></trkpt><trkpt lat="43.2113033" lon="11.319235"><ele>357.0</ele><time>2026-04-19T09:58:39.648Z</time></trkpt><trkpt lat="43.2112167" lon="11.3191333"><ele>356.5</ele><time>2026-04-19T09:58:40.65Z</time></trkpt><trkpt lat="43.2111433" lon="11.3190167"><ele>356.0</ele><time>2026-04-19T09:58:41.651Z</time></trkpt><trkpt lat="43.2110733" lon="11.3188983"><ele>355.5</ele><time>2026-04-19T09:58:42.65Z</time></trkpt><trkpt lat="43.211" lon="11.318785"><ele>355.0</ele><time>2026-04-19T09:58:43.648Z</time></trkpt><trkpt lat="43.21092" lon="11.31866"><ele>355.0</ele><time>2026-04-19T09:58:44.642Z</time></trkpt><trkpt lat="43.210835" lon="11.3185317"><ele>355.0</ele><time>2026-04-19T09:58:45.652Z</time></trkpt><trkpt lat="43.2107317" lon="11.3184067"><ele>355.0</ele><time>2026-04-19T09:58:46.646Z</time></trkpt><trkpt lat="43.210575" lon="11.31833"><ele>355.0</ele><time>2026-04-19T09:58:47.644Z</time></trkpt><trkpt lat="43.2104567" lon="11.318205"><ele>356.66666666666663</ele><time>2026-04-19T09:58:48.648Z</time></trkpt><trkpt lat="43.2103283" lon="11.3180817"><ele>358.3333333333333</ele><time>2026-04-19T09:58:49.646Z</time></trkpt><trkpt lat="43.2101933" lon="11.317965"><ele>360.0</ele><time>2026-04-19T09:58:50.649Z</time></trkpt><trkpt lat="43.2100683" lon="11.3178383"><ele>357.5</ele><time>2026-04-19T09:58:51.651Z</time></trkpt><trkpt lat="43.2099433" lon="11.3177317"><ele>355.0</ele><time>2026-04-19T09:58:52.641Z</time></trkpt><trkpt lat="43.2098167" lon="11.317645"><ele>352.5</ele><time>2026-04-19T09:58:53.649Z</time></trkpt><trkpt lat="43.2097" lon="11.3175533"><ele>350.0</ele><time>2026-04-19T09:58:54.65Z</time></trkpt><trkpt lat="43.2095833" lon="11.3174833"><ele>350.0</ele><time>2026-04-19T09:58:55.649Z</time></trkpt><trkpt lat="43.209475" lon="11.31744"><ele>350.0</ele><time>2026-04-19T09:58:56.642Z</time></trkpt><trkpt lat="43.2093683" lon="11.3173967"><ele>350.0</ele><time>2026-04-19T09:58:57.646Z</time></trkpt><trkpt lat="43.2092683" lon="11.3173817"><ele>350.0</ele><time>2026-04-19T09:58:58.647Z</time></trkpt><trkpt lat="43.2091533" lon="11.31741"><ele>350.0</ele><time>2026-04-19T09:58:59.646Z</time></trkpt><trkpt lat="43.2090333" lon="11.3174633"><ele>347.0</ele><time>2026-04-19T09:59:00.649Z</time></trkpt><trkpt lat="43.2089083" lon="11.3175617"><ele>344.0</ele><time>2026-04-19T09:59:01.651Z</time></trkpt><trkpt lat="43.2087833" lon="11.31769"><ele>341.0</ele><time>2026-04-19T09:59:02.651Z</time></trkpt><trkpt lat="43.20866" lon="11.3177983"><ele>338.0</ele><time>2026-04-19T09:59:03.65Z</time></trkpt><trkpt lat="43.208525" lon="11.317885"><ele>338.0</ele><time>2026-04-19T09:59:04.641Z</time></trkpt><trkpt lat="43.20837" lon="11.3179633"><ele>338.0</ele><time>2026-04-19T09:59:05.646Z</time></trkpt><trkpt lat="43.2082033" lon="11.3180183"><ele>338.0</ele><time>2026-04-19T09:59:06.648Z</time></trkpt><trkpt lat="43.2080283" lon="11.3180817"><ele>339.33333333333337</ele><time>2026-04-19T09:59:07.651Z</time></trkpt><trkpt lat="43.2078567" lon="11.31814"><ele>340.6666666666667</ele><time>2026-04-19T09:59:08.656Z</time></trkpt><trkpt lat="43.207695" lon="11.318215"><ele>342.0</ele><time>2026-04-19T09:59:09.659Z</time></trkpt><trkpt lat="43.20752" lon="11.318325"><ele>342.0</ele><time>2026-04-19T09:59:10.65Z</time></trkpt><trkpt lat="43.20737" lon="11.3184333"><ele>342.0</ele><time>2026-04-19T09:59:11.648Z</time></trkpt><trkpt lat="43.2072333" lon="11.318575"><ele>342.0</ele><time>2026-04-19T09:59:12.653Z</time></trkpt><trkpt lat="43.2071183" lon="11.3187533"><ele>343.3333333333333</ele><time>2026-04-19T09:59:13.65Z</time></trkpt><trkpt lat="43.2070033" lon="11.3189267"><ele>344.66666666666663</ele><time>2026-04-19T09:59:14.645Z</time></trkpt><trkpt lat="43.2069017" lon="11.3191117"><ele>346.0</ele><time>2026-04-19T09:59:15.645Z</time></trkpt><trkpt lat="43.2067983" lon="11.31928"><ele>346.0</ele><time>2026-04-19T09:59:16.649Z</time></trkpt><trkpt lat="43.2066917" lon="11.3194567"><ele>346.0</ele><time>2026-04-19T09:59:17.648Z</time></trkpt><trkpt lat="43.2065917" lon="11.3196433"><ele>346.0</ele><time>2026-04-19T09:59:18.647Z</time></trkpt><trkpt lat="43.2065033" lon="11.319845"><ele>348.66666666666663</ele><time>2026-04-19T09:59:19.648Z</time></trkpt><trkpt lat="43.2064283" lon="11.32005"><ele>351.3333333333333</ele><time>2026-04-19T09:59:20.645Z</time></trkpt><trkpt lat="43.20637" lon="11.3202567"><ele>354.0</ele><time>2026-04-19T09:59:21.653Z</time></trkpt><trkpt lat="43.2063133" lon="11.320455"><ele>352.0</ele><time>2026-04-19T09:59:22.642Z</time></trkpt><trkpt lat="43.2062567" lon="11.3206417"><ele>350.0</ele><time>2026-04-19T09:59:23.647Z</time></trkpt><trkpt lat="43.2061883" lon="11.3208067"><ele>348.0</ele><time>2026-04-19T09:59:24.657Z</time></trkpt><trkpt lat="43.2060933" lon="11.320955"><ele>346.0</ele><time>2026-04-19T09:59:25.644Z</time></trkpt><trkpt lat="43.2059817" lon="11.3211033"><ele>346.0</ele><time>2026-04-19T09:59:26.657Z</time></trkpt><trkpt lat="43.205865" lon="11.3212417"><ele>346.0</ele><time>2026-04-19T09:59:27.655Z</time></trkpt><trkpt lat="43.20573" lon="11.3213733"><ele>346.0</ele><time>2026-04-19T09:59:28.645Z</time></trkpt><trkpt lat="43.2055933" lon="11.3214933"><ele>343.66666666666663</ele><time>2026-04-19T09:59:29.651Z</time></trkpt><trkpt lat="43.2054533" lon="11.3215933"><ele>341.3333333333333</ele><time>2026-04-19T09:59:30.648Z</time></trkpt><trkpt lat="43.2053067" lon="11.3216733"><ele>339.0</ele><time>2026-04-19T09:59:31.652Z</time></trkpt><trkpt lat="43.2051667" lon="11.3217283"><ele>339.0</ele><time>2026-04-19T09:59:32.653Z</time></trkpt><trkpt lat="43.2050217" lon="11.3217767"><ele>339.0</ele><time>2026-04-19T09:59:33.65Z</time></trkpt><trkpt lat="43.204885" lon="11.3218283"><ele>339.0</ele><time>2026-04-19T09:59:34.654Z</time></trkpt><trkpt lat="43.2047533" lon="11.3219"><ele>339.0</ele><time>2026-04-19T09:59:35.646Z</time></trkpt><trkpt lat="43.204625" lon="11.3219883"><ele>336.75</ele><time>2026-04-19T09:59:36.645Z</time></trkpt><trkpt lat="43.2045033" lon="11.3220833"><ele>334.5</ele><time>2026-04-19T09:59:37.647Z</time></trkpt><trkpt lat="43.2044" lon="11.3221617"><ele>332.25</ele><time>2026-04-19T09:59:38.65Z</time></trkpt><trkpt lat="43.2042983" lon="11.3222133"><ele>330.0</ele><time>2026-04-19T09:59:39.648Z</time></trkpt><trkpt lat="43.2042" lon="11.3222517"><ele>330.0</ele><time>2026-04-19T09:59:40.648Z</time></trkpt><trkpt lat="43.2041267" lon="11.3222483"><ele>330.0</ele><time>2026-04-19T09:59:41.65Z</time></trkpt><trkpt lat="43.2040867" lon="11.3220867"><ele>330.0</ele><time>2026-04-19T09:59:43.651Z</time></trkpt><trkpt lat="43.2041" lon="11.321945"><ele>330.0</ele><time>2026-04-19T09:59:44.651Z</time></trkpt><trkpt lat="43.20413" lon="11.3217667"><ele>330.0</ele><time>2026-04-19T09:59:45.646Z</time></trkpt><trkpt lat="43.2042033" lon="11.3214917"><ele>328.3333333333333</ele><time>2026-04-19T09:59:46.645Z</time></trkpt><trkpt lat="43.2042183" lon="11.321265"><ele>326.66666666666663</ele><time>2026-04-19T09:59:47.65Z</time></trkpt><trkpt lat="43.2042167" lon="11.3210367"><ele>325.0</ele><time>2026-04-19T09:59:48.649Z</time></trkpt><trkpt lat="43.204185" lon="11.3208283"><ele>325.0</ele><time>2026-04-19T09:59:49.649Z</time></trkpt><trkpt lat="43.2041333" lon="11.32062"><ele>325.0</ele><time>2026-04-19T09:59:50.649Z</time></trkpt><trkpt lat="43.20407" lon="11.3204167"><ele>325.0</ele><time>2026-04-19T09:59:51.649Z</time></trkpt><trkpt lat="43.20401" lon="11.320215"><ele>323.75</ele><time>2026-04-19T09:59:52.648Z</time></trkpt><trkpt lat="43.2039533" lon="11.3200233"><ele>322.5</ele><time>2026-04-19T09:59:53.644Z</time></trkpt><trkpt lat="43.2038967" lon="11.3198383"><ele>321.25</ele><time>2026-04-19T09:59:54.65Z</time></trkpt><trkpt lat="43.203835" lon="11.319655"><ele>320.0</ele><time>2026-04-19T09:59:55.647Z</time></trkpt><trkpt lat="43.2037767" lon="11.3194767"><ele>320.0</ele><time>2026-04-19T09:59:56.648Z</time></trkpt><trkpt lat="43.2037233" lon="11.3193017"><ele>320.0</ele><time>2026-04-19T09:59:57.65Z</time></trkpt><trkpt lat="43.20368" lon="11.3191267"><ele>320.0</ele><time>2026-04-19T09:59:58.646Z</time></trkpt><trkpt lat="43.203635" lon="11.3189683"><ele>320.0</ele><time>2026-04-19T09:59:59.649Z</time></trkpt><trkpt lat="43.2035833" lon="11.3188267"><ele>318.0</ele><time>2026-04-19T10:00:00.653Z</time></trkpt><trkpt lat="43.203525" lon="11.31872"><ele>316.0</ele><time>2026-04-19T10:00:01.65Z</time></trkpt><trkpt lat="43.2034567" lon="11.3186567"><ele>314.0</ele><time>2026-04-19T10:00:02.644Z</time></trkpt><trkpt lat="43.2033533" lon="11.3186333"><ele>312.0</ele><time>2026-04-19T10:00:03.643Z</time></trkpt><trkpt lat="43.203145" lon="11.31872"><ele>309.6666666666667</ele><time>2026-04-19T10:00:04.645Z</time></trkpt><trkpt lat="43.203005" lon="11.3187317"><ele>307.33333333333337</ele><time>2026-04-19T10:00:05.643Z</time></trkpt><trkpt lat="43.202845" lon="11.3187517"><ele>305.0</ele><time>2026-04-19T10:00:06.647Z</time></trkpt><trkpt lat="43.2026583" lon="11.3187817"><ele>305.0</ele><time>2026-04-19T10:00:07.649Z</time></trkpt><trkpt lat="43.2024767" lon="11.3188033"><ele>305.0</ele><time>2026-04-19T10:00:08.649Z</time></trkpt><trkpt lat="43.20229" lon="11.3188233"><ele>305.0</ele><time>2026-04-19T10:00:09.654Z</time></trkpt><trkpt lat="43.2020967" lon="11.3188533"><ele>305.33333333333337</ele><time>2026-04-19T10:00:10.657Z</time></trkpt><trkpt lat="43.201905" lon="11.3188817"><ele>305.6666666666667</ele><time>2026-04-19T10:00:11.648Z</time></trkpt><trkpt lat="43.201715" lon="11.3189017"><ele>306.0</ele><time>2026-04-19T10:00:12.651Z</time></trkpt><trkpt lat="43.2015283" lon="11.318925"><ele>306.3333333333333</ele><time>2026-04-19T10:00:13.655Z</time></trkpt><trkpt lat="43.20135" lon="11.318945"><ele>306.66666666666663</ele><time>2026-04-19T10:00:14.65Z</time></trkpt><trkpt lat="43.2011767" lon="11.3189683"><ele>307.0</ele><time>2026-04-19T10:00:15.646Z</time></trkpt><trkpt lat="43.2010117" lon="11.31901"><ele>307.0</ele><time>2026-04-19T10:00:16.647Z</time></trkpt><trkpt lat="43.20086" lon="11.3190717"><ele>307.0</ele><time>2026-04-19T10:00:17.649Z</time></trkpt><trkpt lat="43.2007233" lon="11.31918"><ele>307.0</ele><time>2026-04-19T10:00:18.647Z</time></trkpt><trkpt lat="43.200595" lon="11.3193017"><ele>309.3333333333333</ele><time>2026-04-19T10:00:19.648Z</time></trkpt><trkpt lat="43.2004667" lon="11.3194433"><ele>311.6666666666667</ele><time>2026-04-19T10:00:20.652Z</time></trkpt><trkpt lat="43.200355" lon="11.319625"><ele>314.0</ele><time>2026-04-19T10:00:21.651Z</time></trkpt><trkpt lat="43.2002433" lon="11.3198417"><ele>314.6666666666667</ele><time>2026-04-19T10:00:22.653Z</time></trkpt><trkpt lat="43.2001333" lon="11.32005"><ele>315.3333333333333</ele><time>2026-04-19T10:00:23.653Z</time></trkpt><trkpt lat="43.2000283" lon="11.3202467"><ele>316.0</ele><time>2026-04-19T10:00:24.649Z</time></trkpt><trkpt lat="43.19993" lon="11.3204517"><ele>315.0</ele><time>2026-04-19T10:00:25.645Z</time></trkpt><trkpt lat="43.1998417" lon="11.3206517"><ele>314.0</ele><time>2026-04-19T10:00:26.648Z</time></trkpt><trkpt lat="43.199785" lon="11.3208517"><ele>313.0</ele><time>2026-04-19T10:00:27.644Z</time></trkpt><trkpt lat="43.199715" lon="11.32105"><ele>315.3333333333333</ele><time>2026-04-19T10:00:28.655Z</time></trkpt><trkpt lat="43.1996517" lon="11.3212433"><ele>317.6666666666667</ele><time>2026-04-19T10:00:29.653Z</time></trkpt><trkpt lat="43.1995783" lon="11.3214283"><ele>320.0</ele><time>2026-04-19T10:00:30.651Z</time></trkpt><trkpt lat="43.1994783" lon="11.3216217"><ele>320.0</ele><time>2026-04-19T10:00:31.65Z</time></trkpt><trkpt lat="43.1993717" lon="11.321795"><ele>320.0</ele><time>2026-04-19T10:00:32.642Z</time></trkpt><trkpt lat="43.19927" lon="11.3219583"><ele>320.0</ele><time>2026-04-19T10:00:33.65Z</time></trkpt><trkpt lat="43.1991633" lon="11.3221017"><ele>320.0</ele><time>2026-04-19T10:00:34.642Z</time></trkpt><trkpt lat="43.19907" lon="11.32223"><ele>320.0</ele><time>2026-04-19T10:00:35.647Z</time></trkpt><trkpt lat="43.1989683" lon="11.3223383"><ele>320.0</ele><time>2026-04-19T10:00:36.646Z</time></trkpt><trkpt lat="43.1988683" lon="11.322395"><ele>320.0</ele><time>2026-04-19T10:00:37.647Z</time></trkpt><trkpt lat="43.198685" lon="11.3223767"><ele>319.5</ele><time>2026-04-19T10:00:38.645Z</time></trkpt><trkpt lat="43.1985333" lon="11.322425"><ele>319.0</ele><time>2026-04-19T10:00:39.649Z</time></trkpt><trkpt lat="43.1984" lon="11.3224917"><ele>318.5</ele><time>2026-04-19T10:00:40.65Z</time></trkpt><trkpt lat="43.1982833" lon="11.3226067"><ele>318.0</ele><time>2026-04-19T10:00:41.65Z</time></trkpt><trkpt lat="43.1981917" lon="11.3227367"><ele>317.0</ele><time>2026-04-19T10:00:42.65Z</time></trkpt><trkpt lat="43.19814" lon="11.3229617"><ele>316.0</ele><time>2026-04-19T10:00:43.643Z</time></trkpt><trkpt lat="43.198045" lon="11.3231517"><ele>315.0</ele><time>2026-04-19T10:00:44.65Z</time></trkpt><trkpt lat="43.1979433" lon="11.3233367"><ele>315.0</ele><time>2026-04-19T10:00:45.648Z</time></trkpt><trkpt lat="43.197845" lon="11.3235083"><ele>315.0</ele><time>2026-04-19T10:00:46.646Z</time></trkpt><trkpt lat="43.1977317" lon="11.3236483"><ele>315.0</ele><time>2026-04-19T10:00:47.649Z</time></trkpt><trkpt lat="43.19763" lon="11.32373"><ele>315.0</ele><time>2026-04-19T10:00:48.649Z</time></trkpt><trkpt lat="43.1975167" lon="11.323725"><ele>315.0</ele><time>2026-04-19T10:00:49.653Z</time></trkpt><trkpt lat="43.1973983" lon="11.3236533"><ele>315.0</ele><time>2026-04-19T10:00:50.645Z</time></trkpt><trkpt lat="43.1972717" lon="11.3235117"><ele>315.0</ele><time>2026-04-19T10:00:51.649Z</time></trkpt><trkpt lat="43.1971383" lon="11.3233633"><ele>314.0</ele><time>2026-04-19T10:00:52.647Z</time></trkpt><trkpt lat="43.1969933" lon="11.32327"><ele>313.0</ele><time>2026-04-19T10:00:53.644Z</time></trkpt><trkpt lat="43.19685" lon="11.3231983"><ele>312.0</ele><time>2026-04-19T10:00:54.649Z</time></trkpt><trkpt lat="43.19671" lon="11.3231367"><ele>312.0</ele><time>2026-04-19T10:00:55.645Z</time></trkpt><trkpt lat="43.19658" lon="11.323105"><ele>312.0</ele><time>2026-04-19T10:00:56.65Z</time></trkpt><trkpt lat="43.1964567" lon="11.3230983"><ele>312.0</ele><time>2026-04-19T10:00:57.652Z</time></trkpt><trkpt lat="43.19635" lon="11.3231833"><ele>312.0</ele><time>2026-04-19T10:00:58.647Z</time></trkpt><trkpt lat="43.196295" lon="11.3234233"><ele>312.0</ele><time>2026-04-19T10:00:59.648Z</time></trkpt><trkpt lat="43.1962017" lon="11.323565"><ele>312.0</ele><time>2026-04-19T10:01:00.647Z</time></trkpt><trkpt lat="43.1961117" lon="11.3237383"><ele>312.0</ele><time>2026-04-19T10:01:01.652Z</time></trkpt><trkpt lat="43.1960183" lon="11.323915"><ele>312.0</ele><time>2026-04-19T10:01:02.652Z</time></trkpt><trkpt lat="43.1959217" lon="11.3240933"><ele>312.0</ele><time>2026-04-19T10:01:03.651Z</time></trkpt><trkpt lat="43.1958233" lon="11.32425"><ele>312.0</ele><time>2026-04-19T10:01:04.645Z</time></trkpt><trkpt lat="43.1957183" lon="11.3243717"><ele>314.0</ele><time>2026-04-19T10:01:05.648Z</time></trkpt><trkpt lat="43.1956083" lon="11.3244533"><ele>316.0</ele><time>2026-04-19T10:01:06.648Z</time></trkpt><trkpt lat="43.195455" lon="11.3244833"><ele>318.0</ele><time>2026-04-19T10:01:07.649Z</time></trkpt><trkpt lat="43.1952917" lon="11.324455"><ele>320.0</ele><time>2026-04-19T10:01:08.647Z</time></trkpt><trkpt lat="43.1951483" lon="11.3243733"><ele>320.0</ele><time>2026-04-19T10:01:09.66Z</time></trkpt><trkpt lat="43.19498" lon="11.3242983"><ele>320.0</ele><time>2026-04-19T10:01:10.649Z</time></trkpt><trkpt lat="43.1948333" lon="11.3242217"><ele>320.0</ele><time>2026-04-19T10:01:11.655Z</time></trkpt><trkpt lat="43.1946917" lon="11.3241467"><ele>322.33333333333337</ele><time>2026-04-19T10:01:12.644Z</time></trkpt><trkpt lat="43.1945533" lon="11.324085"><ele>324.6666666666667</ele><time>2026-04-19T10:01:13.644Z</time></trkpt><trkpt lat="43.1944133" lon="11.3240333"><ele>327.0</ele><time>2026-04-19T10:01:14.653Z</time></trkpt><trkpt lat="43.1942033" lon="11.3240367"><ele>327.0</ele><time>2026-04-19T10:01:15.646Z</time></trkpt><trkpt lat="43.1940117" lon="11.3240083"><ele>327.0</ele><time>2026-04-19T10:01:16.644Z</time></trkpt><trkpt lat="43.1938433" lon="11.32397"><ele>327.0</ele><time>2026-04-19T10:01:17.65Z</time></trkpt><trkpt lat="43.1936767" lon="11.3239067"><ele>326.5</ele><time>2026-04-19T10:01:18.65Z</time></trkpt><trkpt lat="43.19353" lon="11.323865"><ele>326.0</ele><time>2026-04-19T10:01:19.65Z</time></trkpt><trkpt lat="43.1933867" lon="11.3238317"><ele>325.5</ele><time>2026-04-19T10:01:20.651Z</time></trkpt><trkpt lat="43.1932917" lon="11.3238183"><ele>325.0</ele><time>2026-04-19T10:01:21.647Z</time></trkpt><trkpt lat="43.193185" lon="11.3238517"><ele>328.6</ele><time>2026-04-19T10:01:22.651Z</time></trkpt><trkpt lat="43.193105" lon="11.32392"><ele>332.2</ele><time>2026-04-19T10:01:23.644Z</time></trkpt><trkpt lat="43.19306" lon="11.3240383"><ele>335.79999999999995</ele><time>2026-04-19T10:01:24.651Z</time></trkpt><trkpt lat="43.1930217" lon="11.3241833"><ele>339.4</ele><time>2026-04-19T10:01:25.651Z</time></trkpt><trkpt lat="43.1929617" lon="11.3242867"><ele>343.0</ele><time>2026-04-19T10:01:26.646Z</time></trkpt><trkpt lat="43.1928967" lon="11.3243767"><ele>343.0</ele><time>2026-04-19T10:01:27.648Z</time></trkpt><trkpt lat="43.1928217" lon="11.3244567"><ele>343.0</ele><time>2026-04-19T10:01:28.651Z</time></trkpt><trkpt lat="43.192765" lon="11.3245267"><ele>343.0</ele><time>2026-04-19T10:01:29.648Z</time></trkpt><trkpt lat="43.1926867" lon="11.3245583"><ele>343.0</ele><time>2026-04-19T10:01:30.649Z</time></trkpt><trkpt lat="43.192615" lon="11.324605"><ele>343.0</ele><time>2026-04-19T10:01:31.644Z</time></trkpt><trkpt lat="43.1925217" lon="11.3246633"><ele>343.0</ele><time>2026-04-19T10:01:32.642Z</time></trkpt><trkpt lat="43.1924217" lon="11.324705"><ele>345.0</ele><time>2026-04-19T10:01:33.643Z</time></trkpt><trkpt lat="43.192285" lon="11.3247217"><ele>347.0</ele><time>2026-04-19T10:01:34.645Z</time></trkpt><trkpt lat="43.19215" lon="11.3247417"><ele>349.0</ele><time>2026-04-19T10:01:35.644Z</time></trkpt><trkpt lat="43.1920117" lon="11.32471"><ele>351.0</ele><time>2026-04-19T10:01:36.649Z</time></trkpt><trkpt lat="43.1918667" lon="11.324665"><ele>351.0</ele><time>2026-04-19T10:01:37.648Z</time></trkpt><trkpt lat="43.191685" lon="11.3245833"><ele>351.0</ele><time>2026-04-19T10:01:38.649Z</time></trkpt><trkpt lat="43.1915133" lon="11.3244117"><ele>351.0</ele><time>2026-04-19T10:01:39.649Z</time></trkpt><trkpt lat="43.1913833" lon="11.3243933"><ele>353.25</ele><time>2026-04-19T10:01:40.649Z</time></trkpt><trkpt lat="43.1913133" lon="11.3244017"><ele>355.5</ele><time>2026-04-19T10:01:41.651Z</time></trkpt><trkpt lat="43.19117" lon="11.3244217"><ele>357.75</ele><time>2026-04-19T10:01:42.65Z</time></trkpt><trkpt lat="43.1910467" lon="11.3244467"><ele>360.0</ele><time>2026-04-19T10:01:43.646Z</time></trkpt><trkpt lat="43.19091" lon="11.3244317"><ele>360.0</ele><time>2026-04-19T10:01:44.647Z</time></trkpt><trkpt lat="43.1907583" lon="11.324405"><ele>360.0</ele><time>2026-04-19T10:01:45.647Z</time></trkpt><trkpt lat="43.1906667" lon="11.324495"><ele>360.0</ele><time>2026-04-19T10:01:46.647Z</time></trkpt><trkpt lat="43.190585" lon="11.3246583"><ele>360.0</ele><time>2026-04-19T10:01:47.649Z</time></trkpt><trkpt lat="43.1904667" lon="11.3247017"><ele>367.25</ele><time>2026-04-19T10:01:48.65Z</time></trkpt><trkpt lat="43.1903517" lon="11.3247483"><ele>374.5</ele><time>2026-04-19T10:01:49.649Z</time></trkpt><trkpt lat="43.19025" lon="11.3248117"><ele>381.75</ele><time>2026-04-19T10:01:50.653Z</time></trkpt><trkpt lat="43.1901517" lon="11.3248033"><ele>389.0</ele><time>2026-04-19T10:01:51.648Z</time></trkpt><trkpt lat="43.1900117" lon="11.3248167"><ele>389.0</ele><time>2026-04-19T10:01:52.643Z</time></trkpt><trkpt lat="43.1899267" lon="11.3248233"><ele>389.0</ele><time>2026-04-19T10:01:53.645Z</time></trkpt><trkpt lat="43.1898467" lon="11.3248733"><ele>389.0</ele><time>2026-04-19T10:01:54.648Z</time></trkpt><trkpt lat="43.1897617" lon="11.3249467"><ele>389.0</ele><time>2026-04-19T10:01:55.647Z</time></trkpt><trkpt lat="43.1896683" lon="11.3249967"><ele>389.0</ele><time>2026-04-19T10:01:56.649Z</time></trkpt><trkpt lat="43.1895367" lon="11.3250133"><ele>390.3333333333333</ele><time>2026-04-19T10:01:57.65Z</time></trkpt><trkpt lat="43.1893933" lon="11.3250633"><ele>391.66666666666663</ele><time>2026-04-19T10:01:58.646Z</time></trkpt><trkpt lat="43.1892433" lon="11.3251067"><ele>393.0</ele><time>2026-04-19T10:01:59.652Z</time></trkpt><trkpt lat="43.1890933" lon="11.3251567"><ele>393.66666666666663</ele><time>2026-04-19T10:02:00.643Z</time></trkpt><trkpt lat="43.1889217" lon="11.32517"><ele>394.3333333333333</ele><time>2026-04-19T10:02:01.655Z</time></trkpt><trkpt lat="43.1887583" lon="11.3252"><ele>395.0</ele><time>2026-04-19T10:02:02.654Z</time></trkpt><trkpt lat="43.18861" lon="11.3252183"><ele>395.0</ele><time>2026-04-19T10:02:03.642Z</time></trkpt><trkpt lat="43.1884783" lon="11.3252117"><ele>395.0</ele><time>2026-04-19T10:02:04.645Z</time></trkpt><trkpt lat="43.1883167" lon="11.3252033"><ele>395.0</ele><time>2026-04-19T10:02:05.648Z</time></trkpt><trkpt lat="43.1881717" lon="11.3252567"><ele>395.0</ele><time>2026-04-19T10:02:06.647Z</time></trkpt><trkpt lat="43.1881517" lon="11.325465"><ele>397.0</ele><time>2026-04-19T10:02:07.65Z</time></trkpt><trkpt lat="43.18809" lon="11.3257"><ele>399.0</ele><time>2026-04-19T10:02:08.646Z</time></trkpt><trkpt lat="43.18802" lon="11.32587"><ele>401.0</ele><time>2026-04-19T10:02:09.647Z</time></trkpt><trkpt lat="43.18795" lon="11.3260383"><ele>401.0</ele><time>2026-04-19T10:02:10.649Z</time></trkpt><trkpt lat="43.1878867" lon="11.326195"><ele>401.0</ele><time>2026-04-19T10:02:11.645Z</time></trkpt><trkpt lat="43.18782" lon="11.3263267"><ele>401.0</ele><time>2026-04-19T10:02:12.649Z</time></trkpt><trkpt lat="43.1877417" lon="11.32644"><ele>401.0</ele><time>2026-04-19T10:02:13.646Z</time></trkpt><trkpt lat="43.1876717" lon="11.3265667"><ele>402.75</ele><time>2026-04-19T10:02:14.645Z</time></trkpt><trkpt lat="43.18759" lon="11.3266967"><ele>404.5</ele><time>2026-04-19T10:02:15.648Z</time></trkpt><trkpt lat="43.1874983" lon="11.3268133"><ele>406.25</ele><time>2026-04-19T10:02:16.648Z</time></trkpt><trkpt lat="43.187375" lon="11.326885"><ele>408.0</ele><time>2026-04-19T10:02:17.646Z</time></trkpt><trkpt lat="43.187265" lon="11.3269367"><ele>408.0</ele><time>2026-04-19T10:02:18.65Z</time></trkpt><trkpt lat="43.1870833" lon="11.326905"><ele>408.0</ele><time>2026-04-19T10:02:19.646Z</time></trkpt><trkpt lat="43.186985" lon="11.3269167"><ele>408.0</ele><time>2026-04-19T10:02:20.65Z</time></trkpt><trkpt lat="43.186875" lon="11.3267683"><ele>408.0</ele><time>2026-04-19T10:02:21.643Z</time></trkpt><trkpt lat="43.1868017" lon="11.3267617"><ele>408.0</ele><time>2026-04-19T10:02:24.645Z</time></trkpt><trkpt lat="43.1868467" lon="11.326605"><ele>408.0</ele><time>2026-04-19T10:02:25.647Z</time></trkpt><trkpt lat="43.1869567" lon="11.3265883"><ele>408.0</ele><time>2026-04-19T10:02:28.649Z</time></trkpt><trkpt lat="43.1870183" lon="11.3266167"><ele>408.0</ele><time>2026-04-19T10:02:29.653Z</time></trkpt><trkpt lat="43.1870717" lon="11.3266633"><ele>408.0</ele><time>2026-04-19T10:02:30.65Z</time></trkpt><trkpt lat="43.1871717" lon="11.3267167"><ele>408.0</ele><time>2026-04-19T10:02:32.646Z</time></trkpt><trkpt lat="43.1872383" lon="11.32674"><ele>408.0</ele><time>2026-04-19T10:02:33.646Z</time></trkpt><trkpt lat="43.1873067" lon="11.3267583"><ele>408.0</ele><time>2026-04-19T10:02:34.647Z</time></trkpt><trkpt lat="43.18739" lon="11.32678"><ele>408.0</ele><time>2026-04-19T10:02:35.648Z</time></trkpt><trkpt lat="43.18748" lon="11.3268067"><ele>408.0</ele><time>2026-04-19T10:02:36.65Z</time></trkpt><trkpt lat="43.1875567" lon="11.326835"><ele>408.0</ele><time>2026-04-19T10:02:37.65Z</time></trkpt><trkpt lat="43.187635" lon="11.3268717"><ele>408.0</ele><time>2026-04-19T10:02:38.65Z</time></trkpt><trkpt lat="43.1877117" lon="11.3269033"><ele>408.0</ele><time>2026-04-19T10:02:39.647Z</time></trkpt><trkpt lat="43.1877783" lon="11.326935"><ele>408.0</ele><time>2026-04-19T10:02:40.643Z</time></trkpt><trkpt lat="43.1878383" lon="11.3269817"><ele>408.0</ele><time>2026-04-19T10:02:41.65Z</time></trkpt><trkpt lat="43.1878917" lon="11.3270367"><ele>408.0</ele><time>2026-04-19T10:02:42.652Z</time></trkpt><trkpt lat="43.1879333" lon="11.3271033"><ele>408.0</ele><time>2026-04-19T10:02:43.647Z</time></trkpt><trkpt lat="43.1879667" lon="11.3272417"><ele>407.75</ele><time>2026-04-19T10:02:45.65Z</time></trkpt><trkpt lat="43.18795" lon="11.327395"><ele>407.5</ele><time>2026-04-19T10:02:47.65Z</time></trkpt><trkpt lat="43.187925" lon="11.3275717"><ele>407.25</ele><time>2026-04-19T10:02:49.652Z</time></trkpt><trkpt lat="43.18793" lon="11.3277317"><ele>407.0</ele><time>2026-04-19T10:02:51.658Z</time></trkpt><trkpt lat="43.1879633" lon="11.3278633"><ele>407.0</ele><time>2026-04-19T10:02:53.657Z</time></trkpt><trkpt lat="43.1880117" lon="11.328005"><ele>407.0</ele><time>2026-04-19T10:02:55.647Z</time></trkpt><trkpt lat="43.1880683" lon="11.3281417"><ele>407.0</ele><time>2026-04-19T10:02:57.652Z</time></trkpt><trkpt lat="43.1881417" lon="11.3282317"><ele>407.0</ele><time>2026-04-19T10:02:59.651Z</time></trkpt><trkpt lat="43.1882217" lon="11.32829"><ele>407.0</ele><time>2026-04-19T10:03:01.647Z</time></trkpt><trkpt lat="43.1883383" lon="11.3283783"><ele>406.0</ele><time>2026-04-19T10:03:03.646Z</time></trkpt><trkpt lat="43.188395" lon="11.3284233"><ele>405.0</ele><time>2026-04-19T10:03:04.65Z</time></trkpt><trkpt lat="43.1885083" lon="11.3284817"><ele>404.0</ele><time>2026-04-19T10:03:06.649Z</time></trkpt><trkpt lat="43.1886033" lon="11.3285717"><ele>403.0</ele><time>2026-04-19T10:03:08.653Z</time></trkpt><trkpt lat="43.1886967" lon="11.328685"><ele>402.0</ele><time>2026-04-19T10:03:10.654Z</time></trkpt><trkpt lat="43.1887417" lon="11.3287583"><ele>402.0</ele><time>2026-04-19T10:03:11.653Z</time></trkpt><trkpt lat="43.1887917" lon="11.3288283"><ele>402.0</ele><time>2026-04-19T10:03:12.651Z</time></trkpt><trkpt lat="43.1888633" lon="11.3289133"><ele>402.0</ele><time>2026-04-19T10:03:13.653Z</time></trkpt><trkpt lat="43.188925" lon="11.3289867"><ele>402.0</ele><time>2026-04-19T10:03:14.647Z</time></trkpt><trkpt lat="43.1890017" lon="11.3290767"><ele>402.0</ele><time>2026-04-19T10:03:15.651Z</time></trkpt><trkpt lat="43.1890767" lon="11.329185"><ele>401.0</ele><time>2026-04-19T10:03:16.648Z</time></trkpt><trkpt lat="43.189145" lon="11.3292867"><ele>400.0</ele><time>2026-04-19T10:03:17.651Z</time></trkpt><trkpt lat="43.1892183" lon="11.32938"><ele>399.0</ele><time>2026-04-19T10:03:18.653Z</time></trkpt><trkpt lat="43.1893067" lon="11.3295"><ele>398.0</ele><time>2026-04-19T10:03:19.65Z</time></trkpt><trkpt lat="43.1893817" lon="11.329605"><ele>397.0</ele><time>2026-04-19T10:03:20.649Z</time></trkpt><trkpt lat="43.1894583" lon="11.3297033"><ele>395.25</ele><time>2026-04-19T10:03:21.653Z</time></trkpt><trkpt lat="43.1895417" lon="11.3298017"><ele>393.5</ele><time>2026-04-19T10:03:22.645Z</time></trkpt><trkpt lat="43.1896283" lon="11.32993"><ele>391.75</ele><time>2026-04-19T10:03:23.65Z</time></trkpt><trkpt lat="43.1897117" lon="11.3300167"><ele>390.0</ele><time>2026-04-19T10:03:24.646Z</time></trkpt><trkpt lat="43.189805" lon="11.33009"><ele>391.2</ele><time>2026-04-19T10:03:25.648Z</time></trkpt><trkpt lat="43.1899033" lon="11.3301533"><ele>392.4</ele><time>2026-04-19T10:03:26.654Z</time></trkpt><trkpt lat="43.190005" lon="11.3302267"><ele>393.6</ele><time>2026-04-19T10:03:27.65Z</time></trkpt><trkpt lat="43.1901017" lon="11.3302733"><ele>394.8</ele><time>2026-04-19T10:03:28.649Z</time></trkpt><trkpt lat="43.1901917" lon="11.3303067"><ele>396.0</ele><time>2026-04-19T10:03:29.653Z</time></trkpt><trkpt lat="43.1902883" lon="11.33033"><ele>396.0</ele><time>2026-04-19T10:03:30.648Z</time></trkpt><trkpt lat="43.19037" lon="11.330325"><ele>396.0</ele><time>2026-04-19T10:03:31.646Z</time></trkpt><trkpt lat="43.1904533" lon="11.3303117"><ele>396.0</ele><time>2026-04-19T10:03:32.646Z</time></trkpt><trkpt lat="43.19053" lon="11.3302833"><ele>396.0</ele><time>2026-04-19T10:03:33.655Z</time></trkpt><trkpt lat="43.190595" lon="11.33023"><ele>396.0</ele><time>2026-04-19T10:03:34.649Z</time></trkpt><trkpt lat="43.1907017" lon="11.3301267"><ele>394.8333333333333</ele><time>2026-04-19T10:03:36.65Z</time></trkpt><trkpt lat="43.190765" lon="11.3300983"><ele>393.66666666666663</ele><time>2026-04-19T10:03:37.651Z</time></trkpt><trkpt lat="43.1908317" lon="11.3300567"><ele>392.5</ele><time>2026-04-19T10:03:38.65Z</time></trkpt><trkpt lat="43.1908983" lon="11.3300083"><ele>391.3333333333333</ele><time>2026-04-19T10:03:39.651Z</time></trkpt><trkpt lat="43.1910317" lon="11.3299517"><ele>390.16666666666663</ele><time>2026-04-19T10:03:41.652Z</time></trkpt><trkpt lat="43.191115" lon="11.3299433"><ele>389.0</ele><time>2026-04-19T10:03:42.651Z</time></trkpt><trkpt lat="43.1912733" lon="11.3299483"><ele>388.99999999999994</ele><time>2026-04-19T10:03:43.647Z</time></trkpt><trkpt lat="43.1913567" lon="11.32994"><ele>389.0</ele><time>2026-04-19T10:03:44.647Z</time></trkpt><trkpt lat="43.191425" lon="11.3299367"><ele>389.0</ele><time>2026-04-19T10:03:45.648Z</time></trkpt><trkpt lat="43.1915017" lon="11.3299317"><ele>389.0</ele><time>2026-04-19T10:03:46.652Z</time></trkpt><trkpt lat="43.1915883" lon="11.3299283"><ele>388.99999999999994</ele><time>2026-04-19T10:03:47.65Z</time></trkpt><trkpt lat="43.19167" lon="11.3299433"><ele>389.0</ele><time>2026-04-19T10:03:48.65Z</time></trkpt><trkpt lat="43.191755" lon="11.3299717"><ele>388.6</ele><time>2026-04-19T10:03:49.649Z</time></trkpt><trkpt lat="43.1918383" lon="11.330035"><ele>388.2</ele><time>2026-04-19T10:03:50.65Z</time></trkpt><trkpt lat="43.1919167" lon="11.3301033"><ele>387.8</ele><time>2026-04-19T10:03:51.645Z</time></trkpt><trkpt lat="43.191975" lon="11.330215"><ele>387.40000000000003</ele><time>2026-04-19T10:03:52.648Z</time></trkpt><trkpt lat="43.1920317" lon="11.3303517"><ele>387.0</ele><time>2026-04-19T10:03:53.649Z</time></trkpt><trkpt lat="43.19209" lon="11.3304983"><ele>385.0</ele><time>2026-04-19T10:03:54.649Z</time></trkpt><trkpt lat="43.1921433" lon="11.3306733"><ele>383.0</ele><time>2026-04-19T10:03:55.648Z</time></trkpt><trkpt lat="43.1921917" lon="11.3308283"><ele>381.0</ele><time>2026-04-19T10:03:56.652Z</time></trkpt><trkpt lat="43.19225" lon="11.33097"><ele>379.0</ele><time>2026-04-19T10:03:57.648Z</time></trkpt><trkpt lat="43.192285" lon="11.33109"><ele>379.0</ele><time>2026-04-19T10:03:58.644Z</time></trkpt><trkpt lat="43.1923033" lon="11.3312033"><ele>379.0</ele><time>2026-04-19T10:03:59.652Z</time></trkpt><trkpt lat="43.1923417" lon="11.3312967"><ele>379.0</ele><time>2026-04-19T10:04:00.648Z</time></trkpt><trkpt lat="43.19237" lon="11.331395"><ele>379.0</ele><time>2026-04-19T10:04:01.647Z</time></trkpt><trkpt lat="43.19238" lon="11.331485"><ele>379.0</ele><time>2026-04-19T10:04:02.648Z</time></trkpt><trkpt lat="43.1924017" lon="11.3316333"><ele>379.0</ele><time>2026-04-19T10:04:04.65Z</time></trkpt><trkpt lat="43.1924183" lon="11.3317417"><ele>379.6</ele><time>2026-04-19T10:04:05.652Z</time></trkpt><trkpt lat="43.1924367" lon="11.3318567"><ele>380.2</ele><time>2026-04-19T10:04:06.651Z</time></trkpt><trkpt lat="43.1924533" lon="11.3319767"><ele>380.8</ele><time>2026-04-19T10:04:07.652Z</time></trkpt><trkpt lat="43.1924583" lon="11.3321"><ele>381.40000000000003</ele><time>2026-04-19T10:04:08.648Z</time></trkpt><trkpt lat="43.192455" lon="11.332225"><ele>382.0</ele><time>2026-04-19T10:04:09.648Z</time></trkpt><trkpt lat="43.1924367" lon="11.332375"><ele>382.20000000000005</ele><time>2026-04-19T10:04:10.654Z</time></trkpt><trkpt lat="43.1924317" lon="11.3325233"><ele>382.4</ele><time>2026-04-19T10:04:11.648Z</time></trkpt><trkpt lat="43.19243" lon="11.3326817"><ele>382.6</ele><time>2026-04-19T10:04:12.65Z</time></trkpt><trkpt lat="43.1924533" lon="11.3328233"><ele>382.79999999999995</ele><time>2026-04-19T10:04:13.651Z</time></trkpt><trkpt lat="43.1924783" lon="11.33296"><ele>383.0</ele><time>2026-04-19T10:04:14.65Z</time></trkpt><trkpt lat="43.1925067" lon="11.333085"><ele>382.6666666666667</ele><time>2026-04-19T10:04:15.65Z</time></trkpt><trkpt lat="43.1925317" lon="11.3331983"><ele>382.33333333333337</ele><time>2026-04-19T10:04:16.651Z</time></trkpt><trkpt lat="43.1925717" lon="11.3333"><ele>382.0</ele><time>2026-04-19T10:04:17.65Z</time></trkpt><trkpt lat="43.1926017" lon="11.3333983"><ele>381.6666666666667</ele><time>2026-04-19T10:04:18.642Z</time></trkpt><trkpt lat="43.19263" lon="11.33349"><ele>381.3333333333333</ele><time>2026-04-19T10:04:19.644Z</time></trkpt><trkpt lat="43.1926533" lon="11.3335917"><ele>381.0</ele><time>2026-04-19T10:04:20.647Z</time></trkpt><trkpt lat="43.1926667" lon="11.3337"><ele>381.0</ele><time>2026-04-19T10:04:21.648Z</time></trkpt><trkpt lat="43.1926683" lon="11.3338233"><ele>381.0</ele><time>2026-04-19T10:04:22.645Z</time></trkpt><trkpt lat="43.1926767" lon="11.3339483"><ele>381.0</ele><time>2026-04-19T10:04:23.657Z</time></trkpt><trkpt lat="43.1926667" lon="11.3340783"><ele>381.0</ele><time>2026-04-19T10:04:24.65Z</time></trkpt><trkpt lat="43.192675" lon="11.3342017"><ele>381.0</ele><time>2026-04-19T10:04:25.648Z</time></trkpt><trkpt lat="43.1927033" lon="11.3343183"><ele>380.0</ele><time>2026-04-19T10:04:26.647Z</time></trkpt><trkpt lat="43.1927183" lon="11.3344317"><ele>379.0</ele><time>2026-04-19T10:04:27.65Z</time></trkpt><trkpt lat="43.19272" lon="11.3345483"><ele>378.0</ele><time>2026-04-19T10:04:28.652Z</time></trkpt><trkpt lat="43.1927333" lon="11.3346767"><ele>377.0</ele><time>2026-04-19T10:04:29.652Z</time></trkpt><trkpt lat="43.1927533" lon="11.3348"><ele>376.0</ele><time>2026-04-19T10:04:30.65Z</time></trkpt><trkpt lat="43.1927717" lon="11.334925"><ele>375.0</ele><time>2026-04-19T10:04:31.646Z</time></trkpt><trkpt lat="43.1927917" lon="11.3350467"><ele>373.6666666666667</ele><time>2026-04-19T10:04:32.649Z</time></trkpt><trkpt lat="43.1928083" lon="11.3351617"><ele>372.3333333333333</ele><time>2026-04-19T10:04:33.657Z</time></trkpt><trkpt lat="43.1928217" lon="11.3352767"><ele>371.0</ele><time>2026-04-19T10:04:34.647Z</time></trkpt><trkpt lat="43.1928517" lon="11.3353833"><ele>369.66666666666663</ele><time>2026-04-19T10:04:35.648Z</time></trkpt><trkpt lat="43.1928917" lon="11.3354833"><ele>368.3333333333333</ele><time>2026-04-19T10:04:36.648Z</time></trkpt><trkpt lat="43.1929333" lon="11.33559"><ele>367.0</ele><time>2026-04-19T10:04:37.648Z</time></trkpt><trkpt lat="43.19299" lon="11.3356967"><ele>366.20000000000005</ele><time>2026-04-19T10:04:38.651Z</time></trkpt><trkpt lat="43.193055" lon="11.335805"><ele>365.4</ele><time>2026-04-19T10:04:39.653Z</time></trkpt><trkpt lat="43.1931083" lon="11.3359133"><ele>364.6</ele><time>2026-04-19T10:04:40.642Z</time></trkpt><trkpt lat="43.193185" lon="11.33602"><ele>363.79999999999995</ele><time>2026-04-19T10:04:41.649Z</time></trkpt><trkpt lat="43.1932433" lon="11.3361217"><ele>363.0</ele><time>2026-04-19T10:04:42.646Z</time></trkpt><trkpt lat="43.1933067" lon="11.33622"><ele>363.0</ele><time>2026-04-19T10:04:43.647Z</time></trkpt><trkpt lat="43.1933783" lon="11.3363117"><ele>363.0</ele><time>2026-04-19T10:04:44.649Z</time></trkpt><trkpt lat="43.193455" lon="11.33641"><ele>363.0</ele><time>2026-04-19T10:04:45.65Z</time></trkpt><trkpt lat="43.1935133" lon="11.3365017"><ele>363.0</ele><time>2026-04-19T10:04:46.652Z</time></trkpt><trkpt lat="43.19356" lon="11.3365933"><ele>363.0</ele><time>2026-04-19T10:04:47.653Z</time></trkpt><trkpt lat="43.1935917" lon="11.3366917"><ele>363.0</ele><time>2026-04-19T10:04:48.651Z</time></trkpt><trkpt lat="43.1936017" lon="11.3367917"><ele>363.0</ele><time>2026-04-19T10:04:49.654Z</time></trkpt><trkpt lat="43.1936133" lon="11.3369017"><ele>363.0</ele><time>2026-04-19T10:04:50.653Z</time></trkpt><trkpt lat="43.1936133" lon="11.3370367"><ele>363.0</ele><time>2026-04-19T10:04:51.649Z</time></trkpt><trkpt lat="43.1935917" lon="11.3371767"><ele>363.0</ele><time>2026-04-19T10:04:52.648Z</time></trkpt><trkpt lat="43.193595" lon="11.33732"><ele>362.0</ele><time>2026-04-19T10:04:53.647Z</time></trkpt><trkpt lat="43.1935933" lon="11.33746"><ele>361.0</ele><time>2026-04-19T10:04:54.647Z</time></trkpt><trkpt lat="43.1935867" lon="11.3375917"><ele>360.0</ele><time>2026-04-19T10:04:55.65Z</time></trkpt><trkpt lat="43.193575" lon="11.3377333"><ele>359.0</ele><time>2026-04-19T10:04:56.65Z</time></trkpt><trkpt lat="43.1935633" lon="11.3378717"><ele>358.0</ele><time>2026-04-19T10:04:57.647Z</time></trkpt><trkpt lat="43.1935483" lon="11.3380083"><ele>357.0</ele><time>2026-04-19T10:04:58.65Z</time></trkpt><trkpt lat="43.1935383" lon="11.33815"><ele>356.0</ele><time>2026-04-19T10:04:59.644Z</time></trkpt><trkpt lat="43.1935317" lon="11.3382967"><ele>355.0</ele><time>2026-04-19T10:05:00.646Z</time></trkpt><trkpt lat="43.193525" lon="11.3384233"><ele>354.0</ele><time>2026-04-19T10:05:01.648Z</time></trkpt><trkpt lat="43.1935133" lon="11.3385467"><ele>353.0</ele><time>2026-04-19T10:05:02.648Z</time></trkpt><trkpt lat="43.1934933" lon="11.3386683"><ele>353.0</ele><time>2026-04-19T10:05:03.644Z</time></trkpt><trkpt lat="43.1934617" lon="11.3387817"><ele>353.0</ele><time>2026-04-19T10:05:04.65Z</time></trkpt><trkpt lat="43.1934267" lon="11.3388933"><ele>353.0</ele><time>2026-04-19T10:05:05.645Z</time></trkpt><trkpt lat="43.1933917" lon="11.3390133"><ele>353.0</ele><time>2026-04-19T10:05:06.649Z</time></trkpt><trkpt lat="43.1933717" lon="11.3391433"><ele>353.0</ele><time>2026-04-19T10:05:07.642Z</time></trkpt><trkpt lat="43.19335" lon="11.3392817"><ele>353.0</ele><time>2026-04-19T10:05:08.648Z</time></trkpt><trkpt lat="43.1933317" lon="11.33942"><ele>353.0</ele><time>2026-04-19T10:05:09.645Z</time></trkpt><trkpt lat="43.193315" lon="11.339555"><ele>353.0</ele><time>2026-04-19T10:05:10.654Z</time></trkpt><trkpt lat="43.1933017" lon="11.3396867"><ele>353.0</ele><time>2026-04-19T10:05:11.649Z</time></trkpt><trkpt lat="43.1932833" lon="11.3398067"><ele>353.0</ele><time>2026-04-19T10:05:12.649Z</time></trkpt><trkpt lat="43.19326" lon="11.339915"><ele>353.0</ele><time>2026-04-19T10:05:13.648Z</time></trkpt><trkpt lat="43.1932183" lon="11.3400633"><ele>353.0</ele><time>2026-04-19T10:05:15.65Z</time></trkpt><trkpt lat="43.19317" lon="11.3402183"><ele>353.0</ele><time>2026-04-19T10:05:17.65Z</time></trkpt><trkpt lat="43.193145" lon="11.3403033"><ele>353.0</ele><time>2026-04-19T10:05:18.645Z</time></trkpt><trkpt lat="43.19312" lon="11.3403967"><ele>353.0</ele><time>2026-04-19T10:05:19.649Z</time></trkpt><trkpt lat="43.19309" lon="11.3404933"><ele>351.2</ele><time>2026-04-19T10:05:20.646Z</time></trkpt><trkpt lat="43.193045" lon="11.3405967"><ele>349.4</ele><time>2026-04-19T10:05:21.648Z</time></trkpt><trkpt lat="43.1929983" lon="11.3407033"><ele>347.59999999999997</ele><time>2026-04-19T10:05:22.648Z</time></trkpt><trkpt lat="43.1929517" lon="11.34081"><ele>345.79999999999995</ele><time>2026-04-19T10:05:23.65Z</time></trkpt><trkpt lat="43.1928967" lon="11.340915"><ele>344.0</ele><time>2026-04-19T10:05:24.65Z</time></trkpt><trkpt lat="43.1928483" lon="11.3410183"><ele>344.0</ele><time>2026-04-19T10:05:25.645Z</time></trkpt><trkpt lat="43.192805" lon="11.34113"><ele>344.0</ele><time>2026-04-19T10:05:26.65Z</time></trkpt><trkpt lat="43.192775" lon="11.34125"><ele>344.0</ele><time>2026-04-19T10:05:27.649Z</time></trkpt><trkpt lat="43.192755" lon="11.3413683"><ele>344.0</ele><time>2026-04-19T10:05:28.649Z</time></trkpt><trkpt lat="43.19275" lon="11.3414833"><ele>344.0</ele><time>2026-04-19T10:05:29.646Z</time></trkpt><trkpt lat="43.19275" lon="11.3415883"><ele>344.0</ele><time>2026-04-19T10:05:30.648Z</time></trkpt><trkpt lat="43.192745" lon="11.34171"><ele>345.0</ele><time>2026-04-19T10:05:31.643Z</time></trkpt><trkpt lat="43.1927467" lon="11.341815"><ele>346.0</ele><time>2026-04-19T10:05:32.644Z</time></trkpt><trkpt lat="43.1927267" lon="11.3419633"><ele>347.0</ele><time>2026-04-19T10:05:34.649Z</time></trkpt><trkpt lat="43.1927033" lon="11.3420467"><ele>348.0</ele><time>2026-04-19T10:05:35.65Z</time></trkpt><trkpt lat="43.1926667" lon="11.3421333"><ele>349.0</ele><time>2026-04-19T10:05:36.651Z</time></trkpt><trkpt lat="43.19262" lon="11.3422183"><ele>350.0</ele><time>2026-04-19T10:05:37.645Z</time></trkpt><trkpt lat="43.1925783" lon="11.3422933"><ele>350.5</ele><time>2026-04-19T10:05:38.649Z</time></trkpt><trkpt lat="43.1925367" lon="11.3423683"><ele>351.0</ele><time>2026-04-19T10:05:39.644Z</time></trkpt><trkpt lat="43.1924933" lon="11.3424533"><ele>351.5</ele><time>2026-04-19T10:05:40.643Z</time></trkpt><trkpt lat="43.19245" lon="11.342545"><ele>352.0</ele><time>2026-04-19T10:05:41.649Z</time></trkpt><trkpt lat="43.19241" lon="11.3426383"><ele>352.5</ele><time>2026-04-19T10:05:42.65Z</time></trkpt><trkpt lat="43.1923733" lon="11.34274"><ele>353.0</ele><time>2026-04-19T10:05:43.652Z</time></trkpt><trkpt lat="43.1923317" lon="11.3428367"><ele>353.33333333333337</ele><time>2026-04-19T10:05:44.648Z</time></trkpt><trkpt lat="43.192295" lon="11.342935"><ele>353.6666666666667</ele><time>2026-04-19T10:05:45.649Z</time></trkpt><trkpt lat="43.1922683" lon="11.34305"><ele>354.0</ele><time>2026-04-19T10:05:46.651Z</time></trkpt><trkpt lat="43.1922283" lon="11.343145"><ele>354.3333333333333</ele><time>2026-04-19T10:05:47.651Z</time></trkpt><trkpt lat="43.19218" lon="11.34324"><ele>354.66666666666663</ele><time>2026-04-19T10:05:48.644Z</time></trkpt><trkpt lat="43.1921283" lon="11.3433267"><ele>355.0</ele><time>2026-04-19T10:05:49.645Z</time></trkpt><trkpt lat="43.1920833" lon="11.3434183"><ele>355.0</ele><time>2026-04-19T10:05:50.645Z</time></trkpt><trkpt lat="43.1920483" lon="11.34351"><ele>355.0</ele><time>2026-04-19T10:05:51.646Z</time></trkpt><trkpt lat="43.19203" lon="11.3436033"><ele>355.0</ele><time>2026-04-19T10:05:52.648Z</time></trkpt><trkpt lat="43.1920283" lon="11.3436933"><ele>355.0</ele><time>2026-04-19T10:05:53.649Z</time></trkpt><trkpt lat="43.1920267" lon="11.3437867"><ele>355.0</ele><time>2026-04-19T10:05:54.647Z</time></trkpt><trkpt lat="43.1920317" lon="11.3438783"><ele>355.0</ele><time>2026-04-19T10:05:55.649Z</time></trkpt><trkpt lat="43.1920667" lon="11.3439967"><ele>355.0</ele><time>2026-04-19T10:05:56.649Z</time></trkpt><trkpt lat="43.1920983" lon="11.3441217"><ele>356.4</ele><time>2026-04-19T10:05:57.641Z</time></trkpt><trkpt lat="43.1921233" lon="11.3442483"><ele>357.8</ele><time>2026-04-19T10:05:58.646Z</time></trkpt><trkpt lat="43.1921367" lon="11.344365"><ele>359.20000000000005</ele><time>2026-04-19T10:05:59.646Z</time></trkpt><trkpt lat="43.1921567" lon="11.3444767"><ele>360.6</ele><time>2026-04-19T10:06:00.644Z</time></trkpt><trkpt lat="43.1921567" lon="11.3445767"><ele>362.0</ele><time>2026-04-19T10:06:01.646Z</time></trkpt><trkpt lat="43.1921433" lon="11.3447533"><ele>364.0</ele><time>2026-04-19T10:06:03.649Z</time></trkpt><trkpt lat="43.1921483" lon="11.344885"><ele>366.0</ele><time>2026-04-19T10:06:05.646Z</time></trkpt><trkpt lat="43.1921567" lon="11.3449983"><ele>368.0</ele><time>2026-04-19T10:06:07.651Z</time></trkpt><trkpt lat="43.19219" lon="11.3451233"><ele>370.0</ele><time>2026-04-19T10:06:09.652Z</time></trkpt><trkpt lat="43.1922433" lon="11.3452567"><ele>372.0</ele><time>2026-04-19T10:06:11.646Z</time></trkpt><trkpt lat="43.1922833" lon="11.3453933"><ele>372.0</ele><time>2026-04-19T10:06:13.649Z</time></trkpt><trkpt lat="43.1923083" lon="11.34549"><ele>372.0</ele><time>2026-04-19T10:06:15.648Z</time></trkpt><trkpt lat="43.1923183" lon="11.34558"><ele>372.0</ele><time>2026-04-19T10:06:17.644Z</time></trkpt><trkpt lat="43.1923567" lon="11.3457067"><ele>372.0</ele><time>2026-04-19T10:06:19.646Z</time></trkpt><trkpt lat="43.1923417" lon="11.345815"><ele>372.0</ele><time>2026-04-19T10:06:21.648Z</time></trkpt><trkpt lat="43.192265" lon="11.3458967"><ele>372.0</ele><time>2026-04-19T10:06:23.65Z</time></trkpt><trkpt lat="43.1922017" lon="11.34599"><ele>371.20000000000005</ele><time>2026-04-19T10:06:25.649Z</time></trkpt><trkpt lat="43.192145" lon="11.3460833"><ele>370.4</ele><time>2026-04-19T10:06:27.648Z</time></trkpt><trkpt lat="43.1920683" lon="11.3462133"><ele>369.6</ele><time>2026-04-19T10:06:29.645Z</time></trkpt><trkpt lat="43.1920217" lon="11.3462767"><ele>368.79999999999995</ele><time>2026-04-19T10:06:30.647Z</time></trkpt><trkpt lat="43.1919367" lon="11.3463817"><ele>368.0</ele><time>2026-04-19T10:06:32.65Z</time></trkpt><trkpt lat="43.1918583" lon="11.3465017"><ele>366.0</ele><time>2026-04-19T10:06:34.647Z</time></trkpt><trkpt lat="43.191755" lon="11.3466033"><ele>364.0</ele><time>2026-04-19T10:06:36.649Z</time></trkpt><trkpt lat="43.1916733" lon="11.3466733"><ele>362.0</ele><time>2026-04-19T10:06:37.649Z</time></trkpt><trkpt lat="43.191615" lon="11.3467483"><ele>360.0</ele><time>2026-04-19T10:06:38.651Z</time></trkpt><trkpt lat="43.1915617" lon="11.3468317"><ele>358.0</ele><time>2026-04-19T10:06:39.651Z</time></trkpt><trkpt lat="43.191515" lon="11.3469183"><ele>357.8571428571429</ele><time>2026-04-19T10:06:40.646Z</time></trkpt><trkpt lat="43.1914633" lon="11.3469917"><ele>357.7142857142857</ele><time>2026-04-19T10:06:41.648Z</time></trkpt><trkpt lat="43.1914183" lon="11.34707"><ele>357.57142857142856</ele><time>2026-04-19T10:06:42.652Z</time></trkpt><trkpt lat="43.191375" lon="11.34715"><ele>357.42857142857144</ele><time>2026-04-19T10:06:43.647Z</time></trkpt><trkpt lat="43.1913333" lon="11.3472383"><ele>357.2857142857143</ele><time>2026-04-19T10:06:44.656Z</time></trkpt><trkpt lat="43.1912967" lon="11.3473267"><ele>357.14285714285717</ele><time>2026-04-19T10:06:45.651Z</time></trkpt><trkpt lat="43.19126" lon="11.3474183"><ele>357.0</ele><time>2026-04-19T10:06:46.65Z</time></trkpt><trkpt lat="43.1912267" lon="11.347505"><ele>358.0</ele><time>2026-04-19T10:06:47.656Z</time></trkpt><trkpt lat="43.1911983" lon="11.34759"><ele>359.0</ele><time>2026-04-19T10:06:48.652Z</time></trkpt><trkpt lat="43.19115" lon="11.34774"><ele>360.0</ele><time>2026-04-19T10:06:50.654Z</time></trkpt><trkpt lat="43.1911217" lon="11.3478183"><ele>361.0</ele><time>2026-04-19T10:06:51.644Z</time></trkpt><trkpt lat="43.1910983" lon="11.347905"><ele>362.0</ele><time>2026-04-19T10:06:52.65Z</time></trkpt><trkpt lat="43.19108" lon="11.3480033"><ele>363.0</ele><time>2026-04-19T10:06:53.65Z</time></trkpt><trkpt lat="43.1910617" lon="11.3481017"><ele>363.0</ele><time>2026-04-19T10:06:54.653Z</time></trkpt><trkpt lat="43.1910417" lon="11.3482"><ele>363.0</ele><time>2026-04-19T10:06:55.645Z</time></trkpt><trkpt lat="43.1910267" lon="11.3482983"><ele>363.0</ele><time>2026-04-19T10:06:56.647Z</time></trkpt><trkpt lat="43.19101" lon="11.3483883"><ele>363.0</ele><time>2026-04-19T10:06:57.65Z</time></trkpt><trkpt lat="43.1909883" lon="11.34847"><ele>363.0</ele><time>2026-04-19T10:06:58.658Z</time></trkpt><trkpt lat="43.1909683" lon="11.348555"><ele>363.0</ele><time>2026-04-19T10:06:59.645Z</time></trkpt><trkpt lat="43.1909233" lon="11.3487"><ele>363.0</ele><time>2026-04-19T10:07:01.644Z</time></trkpt><trkpt lat="43.1908567" lon="11.34879"><ele>363.0</ele><time>2026-04-19T10:07:03.65Z</time></trkpt><trkpt lat="43.190795" lon="11.3488217"><ele>363.0</ele><time>2026-04-19T10:07:05.65Z</time></trkpt><trkpt lat="43.1907333" lon="11.3487633"><ele>363.0</ele><time>2026-04-19T10:07:08.644Z</time></trkpt><trkpt lat="43.19065" lon="11.3487333"><ele>363.0</ele><time>2026-04-19T10:07:12.653Z</time></trkpt><trkpt lat="43.1905917" lon="11.3487767"><ele>363.0</ele><time>2026-04-19T10:07:14.651Z</time></trkpt><trkpt lat="43.1905367" lon="11.348835"><ele>362.59999999999997</ele><time>2026-04-19T10:07:16.651Z</time></trkpt><trkpt lat="43.1904717" lon="11.3489283"><ele>362.2</ele><time>2026-04-19T10:07:18.651Z</time></trkpt><trkpt lat="43.19039" lon="11.3490283"><ele>361.8</ele><time>2026-04-19T10:07:20.647Z</time></trkpt><trkpt lat="43.1903067" lon="11.3491117"><ele>361.4</ele><time>2026-04-19T10:07:22.648Z</time></trkpt><trkpt lat="43.1902533" lon="11.349165"><ele>361.0</ele><time>2026-04-19T10:07:26.655Z</time></trkpt><trkpt lat="43.1902033" lon="11.34925"><ele>361.0</ele><time>2026-04-19T10:07:29.647Z</time></trkpt><trkpt lat="43.190135" lon="11.3493633"><ele>361.0</ele><time>2026-04-19T10:07:31.647Z</time></trkpt><trkpt lat="43.19008" lon="11.349505"><ele>361.0</ele><time>2026-04-19T10:07:33.646Z</time></trkpt><trkpt lat="43.190045" lon="11.3496667"><ele>361.0</ele><time>2026-04-19T10:07:35.651Z</time></trkpt><trkpt lat="43.1900183" lon="11.34982"><ele>360.6</ele><time>2026-04-19T10:07:37.646Z</time></trkpt><trkpt lat="43.1899867" lon="11.3499683"><ele>360.20000000000005</ele><time>2026-04-19T10:07:39.647Z</time></trkpt><trkpt lat="43.189955" lon="11.3501117"><ele>359.79999999999995</ele><time>2026-04-19T10:07:41.647Z</time></trkpt><trkpt lat="43.1899367" lon="11.3502233"><ele>359.4</ele><time>2026-04-19T10:07:43.646Z</time></trkpt><trkpt lat="43.18996" lon="11.3503267"><ele>359.0</ele><time>2026-04-19T10:07:46.651Z</time></trkpt><trkpt lat="43.1900133" lon="11.35039"><ele>359.0</ele><time>2026-04-19T10:07:48.656Z</time></trkpt><trkpt lat="43.1900817" lon="11.3504683"><ele>359.0</ele><time>2026-04-19T10:07:50.647Z</time></trkpt><trkpt lat="43.1901183" lon="11.3505467"><ele>359.0</ele><time>2026-04-19T10:07:52.65Z</time></trkpt><trkpt lat="43.19013" lon="11.3507317"><ele>359.0</ele><time>2026-04-19T10:07:54.65Z</time></trkpt><trkpt lat="43.1901283" lon="11.3508517"><ele>359.0</ele><time>2026-04-19T10:07:55.648Z</time></trkpt><trkpt lat="43.1901467" lon="11.3509783"><ele>359.5</ele><time>2026-04-19T10:07:56.642Z</time></trkpt><trkpt lat="43.1901783" lon="11.3511233"><ele>360.0</ele><time>2026-04-19T10:07:57.652Z</time></trkpt><trkpt lat="43.1901817" lon="11.3512317"><ele>360.5</ele><time>2026-04-19T10:07:58.645Z</time></trkpt><trkpt lat="43.19022" lon="11.3513317"><ele>361.0</ele><time>2026-04-19T10:07:59.648Z</time></trkpt><trkpt lat="43.1902467" lon="11.35141"><ele>361.5</ele><time>2026-04-19T10:08:00.649Z</time></trkpt><trkpt lat="43.19028" lon="11.3515583"><ele>362.0</ele><time>2026-04-19T10:08:02.644Z</time></trkpt><trkpt lat="43.1901967" lon="11.3516083"><ele>362.0</ele><time>2026-04-19T10:08:07.653Z</time></trkpt><trkpt lat="43.1901117" lon="11.351585"><ele>362.0</ele><time>2026-04-19T10:08:08.648Z</time></trkpt><trkpt lat="43.190045" lon="11.351565"><ele>362.0</ele><time>2026-04-19T10:08:09.649Z</time></trkpt><trkpt lat="43.1899467" lon="11.3515433"><ele>362.0</ele><time>2026-04-19T10:08:11.647Z</time></trkpt><trkpt lat="43.1898783" lon="11.3515567"><ele>362.0</ele><time>2026-04-19T10:08:13.65Z</time></trkpt><trkpt lat="43.1899617" lon="11.35157"><ele>362.0</ele><time>2026-04-19T10:08:21.649Z</time></trkpt><trkpt lat="43.190025" lon="11.3515933"><ele>362.0</ele><time>2026-04-19T10:08:24.649Z</time></trkpt><trkpt lat="43.1900717" lon="11.3516917"><ele>362.0</ele><time>2026-04-19T10:08:28.649Z</time></trkpt><trkpt lat="43.1901" lon="11.351805"><ele>362.0</ele><time>2026-04-19T10:08:31.649Z</time></trkpt><trkpt lat="43.19012" lon="11.35189"><ele>362.0</ele><time>2026-04-19T10:08:33.648Z</time></trkpt><trkpt lat="43.19015" lon="11.3520167"><ele>362.0</ele><time>2026-04-19T10:08:36.651Z</time></trkpt><trkpt lat="43.1901783" lon="11.3521317"><ele>362.0</ele><time>2026-04-19T10:08:38.654Z</time></trkpt><trkpt lat="43.1901983" lon="11.352255"><ele>361.8</ele><time>2026-04-19T10:08:40.646Z</time></trkpt><trkpt lat="43.1902233" lon="11.35237"><ele>361.6</ele><time>2026-04-19T10:08:43.652Z</time></trkpt><trkpt lat="43.1902583" lon="11.352475"><ele>361.40000000000003</ele><time>2026-04-19T10:08:45.653Z</time></trkpt><trkpt lat="43.1903033" lon="11.3525967"><ele>361.20000000000005</ele><time>2026-04-19T10:08:47.645Z</time></trkpt><trkpt lat="43.19035" lon="11.3527167"><ele>361.0</ele><time>2026-04-19T10:08:49.649Z</time></trkpt><trkpt lat="43.1903867" lon="11.3528433"><ele>361.0</ele><time>2026-04-19T10:08:51.647Z</time></trkpt><trkpt lat="43.19041" lon="11.352955"><ele>361.0</ele><time>2026-04-19T10:08:53.649Z</time></trkpt><trkpt lat="43.1904383" lon="11.35305"><ele>361.0</ele><time>2026-04-19T10:08:56.651Z</time></trkpt><trkpt lat="43.1904017" lon="11.3529483"><ele>361.0</ele><time>2026-04-19T10:09:23.647Z</time></trkpt><trkpt lat="43.1903467" lon="11.352825"><ele>361.0</ele><time>2026-04-19T10:09:25.644Z</time></trkpt><trkpt lat="43.1903133" lon="11.352735"><ele>361.0</ele><time>2026-04-19T10:09:26.652Z</time></trkpt><trkpt lat="43.1902733" lon="11.3525883"><ele>361.0</ele><time>2026-04-19T10:09:28.653Z</time></trkpt><trkpt lat="43.1902383" lon="11.352465"><ele>361.0</ele><time>2026-04-19T10:09:30.648Z</time></trkpt><trkpt lat="43.1901833" lon="11.3523333"><ele>361.0</ele><time>2026-04-19T10:09:32.652Z</time></trkpt><trkpt lat="43.1901583" lon="11.3522467"><ele>361.0</ele><time>2026-04-19T10:09:33.65Z</time></trkpt><trkpt lat="43.1901367" lon="11.352145"><ele>361.0</ele><time>2026-04-19T10:09:34.647Z</time></trkpt><trkpt lat="43.1901067" lon="11.3520533"><ele>361.0</ele><time>2026-04-19T10:09:35.652Z</time></trkpt><trkpt lat="43.1900667" lon="11.35192"><ele>361.20000000000005</ele><time>2026-04-19T10:09:37.65Z</time></trkpt><trkpt lat="43.1900233" lon="11.3518233"><ele>361.40000000000003</ele><time>2026-04-19T10:09:39.65Z</time></trkpt><trkpt lat="43.1899917" lon="11.3516817"><ele>361.6</ele><time>2026-04-19T10:09:41.654Z</time></trkpt><trkpt lat="43.18996" lon="11.3515283"><ele>361.8</ele><time>2026-04-19T10:09:43.65Z</time></trkpt><trkpt lat="43.18997" lon="11.351365"><ele>362.0</ele><time>2026-04-19T10:09:45.652Z</time></trkpt><trkpt lat="43.1899917" lon="11.35122"><ele>362.20000000000005</ele><time>2026-04-19T10:09:47.649Z</time></trkpt><trkpt lat="43.1900267" lon="11.3511017"><ele>362.4</ele><time>2026-04-19T10:09:48.651Z</time></trkpt><trkpt lat="43.1900483" lon="11.35094"><ele>362.6</ele><time>2026-04-19T10:09:50.649Z</time></trkpt><trkpt lat="43.1900283" lon="11.3508267"><ele>362.79999999999995</ele><time>2026-04-19T10:09:52.649Z</time></trkpt><trkpt lat="43.1900383" lon="11.3507033"><ele>363.0</ele><time>2026-04-19T10:09:54.649Z</time></trkpt><trkpt lat="43.1899767" lon="11.3506767"><ele>363.0</ele><time>2026-04-19T10:10:00.658Z</time></trkpt><trkpt lat="43.1898967" lon="11.3506183"><ele>363.0</ele><time>2026-04-19T10:10:02.65Z</time></trkpt><trkpt lat="43.1898417" lon="11.350575"><ele>363.0</ele><time>2026-04-19T10:10:03.653Z</time></trkpt><trkpt lat="43.1898067" lon="11.35048"><ele>363.0</ele><time>2026-04-19T10:10:05.655Z</time></trkpt><trkpt lat="43.1898067" lon="11.3503483"><ele>363.0</ele><time>2026-04-19T10:10:07.648Z</time></trkpt><trkpt lat="43.1898117" lon="11.35025"><ele>363.0</ele><time>2026-04-19T10:10:08.648Z</time></trkpt><trkpt lat="43.1898383" lon="11.3501283"><ele>362.5</ele><time>2026-04-19T10:10:09.649Z</time></trkpt><trkpt lat="43.1899" lon="11.349935"><ele>362.0</ele><time>2026-04-19T10:10:10.646Z</time></trkpt><trkpt lat="43.1899533" lon="11.34977"><ele>361.5</ele><time>2026-04-19T10:10:11.646Z</time></trkpt><trkpt lat="43.18999" lon="11.3496433"><ele>361.0</ele><time>2026-04-19T10:10:12.651Z</time></trkpt><trkpt lat="43.19005" lon="11.3495083"><ele>361.0</ele><time>2026-04-19T10:10:13.652Z</time></trkpt><trkpt lat="43.190105" lon="11.3494117"><ele>361.0</ele><time>2026-04-19T10:10:14.646Z</time></trkpt><trkpt lat="43.190165" lon="11.3492967"><ele>361.0</ele><time>2026-04-19T10:10:15.644Z</time></trkpt><trkpt lat="43.190235" lon="11.349185"><ele>361.0</ele><time>2026-04-19T10:10:16.648Z</time></trkpt><trkpt lat="43.1903033" lon="11.34908"><ele>361.0</ele><time>2026-04-19T10:10:17.647Z</time></trkpt><trkpt lat="43.1903683" lon="11.3489817"><ele>361.0</ele><time>2026-04-19T10:10:18.646Z</time></trkpt><trkpt lat="43.1904333" lon="11.3488883"><ele>361.0</ele><time>2026-04-19T10:10:19.653Z</time></trkpt><trkpt lat="43.1904883" lon="11.3488133"><ele>361.0</ele><time>2026-04-19T10:10:20.648Z</time></trkpt><trkpt lat="43.1905483" lon="11.34875"><ele>361.0</ele><time>2026-04-19T10:10:21.653Z</time></trkpt><trkpt lat="43.19065" lon="11.3486883"><ele>361.0</ele><time>2026-04-19T10:10:23.655Z</time></trkpt><trkpt lat="43.19073" lon="11.3486917"><ele>361.0</ele><time>2026-04-19T10:10:25.643Z</time></trkpt><trkpt lat="43.1908183" lon="11.34869"><ele>361.3333333333333</ele><time>2026-04-19T10:10:28.645Z</time></trkpt><trkpt lat="43.1908783" lon="11.3486267"><ele>361.66666666666663</ele><time>2026-04-19T10:10:31.652Z</time></trkpt><trkpt lat="43.1909167" lon="11.3485017"><ele>362.0</ele><time>2026-04-19T10:10:35.66Z</time></trkpt><trkpt lat="43.190935" lon="11.3483467"><ele>362.3333333333333</ele><time>2026-04-19T10:10:37.645Z</time></trkpt><trkpt lat="43.1909533" lon="11.3482617"><ele>362.6666666666667</ele><time>2026-04-19T10:10:38.651Z</time></trkpt><trkpt lat="43.1909733" lon="11.348175"><ele>363.0</ele><time>2026-04-19T10:10:39.648Z</time></trkpt><trkpt lat="43.1909933" lon="11.3480717"><ele>363.1666666666667</ele><time>2026-04-19T10:10:40.65Z</time></trkpt><trkpt lat="43.1910167" lon="11.3479683"><ele>363.3333333333333</ele><time>2026-04-19T10:10:41.65Z</time></trkpt><trkpt lat="43.1910467" lon="11.34786"><ele>363.5</ele><time>2026-04-19T10:10:42.654Z</time></trkpt><trkpt lat="43.1910833" lon="11.3477417"><ele>363.66666666666663</ele><time>2026-04-19T10:10:43.653Z</time></trkpt><trkpt lat="43.1911233" lon="11.3476267"><ele>363.8333333333333</ele><time>2026-04-19T10:10:44.652Z</time></trkpt><trkpt lat="43.1911633" lon="11.3475117"><ele>364.0</ele><time>2026-04-19T10:10:45.645Z</time></trkpt><trkpt lat="43.191205" lon="11.347395"><ele>364.0</ele><time>2026-04-19T10:10:46.648Z</time></trkpt><trkpt lat="43.1912517" lon="11.347275"><ele>364.0</ele><time>2026-04-19T10:10:47.647Z</time></trkpt><trkpt lat="43.1913017" lon="11.3471483"><ele>364.0</ele><time>2026-04-19T10:10:48.648Z</time></trkpt><trkpt lat="43.1913533" lon="11.347025"><ele>364.0</ele><time>2026-04-19T10:10:49.648Z</time></trkpt><trkpt lat="43.1914033" lon="11.34691"><ele>364.0</ele><time>2026-04-19T10:10:50.65Z</time></trkpt><trkpt lat="43.19145" lon="11.3468233"><ele>364.66666666666663</ele><time>2026-04-19T10:10:51.656Z</time></trkpt><trkpt lat="43.1914983" lon="11.3467533"><ele>365.3333333333333</ele><time>2026-04-19T10:10:52.65Z</time></trkpt><trkpt lat="43.1915733" lon="11.346675"><ele>366.0</ele><time>2026-04-19T10:10:54.652Z</time></trkpt><trkpt lat="43.1916367" lon="11.3466167"><ele>366.6666666666667</ele><time>2026-04-19T10:10:58.646Z</time></trkpt><trkpt lat="43.1916867" lon="11.34655"><ele>367.33333333333337</ele><time>2026-04-19T10:11:01.647Z</time></trkpt><trkpt lat="43.1917767" lon="11.3464583"><ele>368.0</ele><time>2026-04-19T10:11:03.652Z</time></trkpt><trkpt lat="43.19188" lon="11.346365"><ele>368.0</ele><time>2026-04-19T10:11:05.649Z</time></trkpt><trkpt lat="43.1919483" lon="11.3463133"><ele>368.0</ele><time>2026-04-19T10:11:07.65Z</time></trkpt><trkpt lat="43.1918983" lon="11.3463683"><ele>368.0</ele><time>2026-04-19T10:11:11.647Z</time></trkpt></trkseg></trk></gpx>